<?xml version="1.0" encoding="UTF-8" standalone="no" ?>
<gpx xmlns="http://www.topografix.com/GPX/1/1" xmlns:xsi="http://www.w3.org/2001/XMLSchema-instance" xsi:schemaLocation="http://www.topografix.com/GPX/1/1 http://www.topografix.com/GPX/1/1/gpx.xsd" version="1.1" creator="VisuGPX - https://www.visugpx.com">
  <metadata>
    <name>Gran Utag</name>
    <desc><![CDATA[Alta Garrotxa]]></desc>
  </metadata>
  <trk>
    <name><![CDATA[GPSies Track on GPSies.com]]></name>
    <trkseg>
      <trkpt lat="42.2709" lon="2.59056">
        <ele>268</ele>
        <time>2010-01-01T00:00:00Z</time>
      </trkpt>
      <trkpt lat="42.27091" lon="2.59053">
        <ele>269</ele>
        <time>2010-01-01T00:00:02Z</time>
      </trkpt>
      <trkpt lat="42.27091" lon="2.59057">
        <ele>268</ele>
        <time>2010-01-01T00:00:04Z</time>
      </trkpt>
      <trkpt lat="42.27088" lon="2.59058">
        <ele>268</ele>
        <time>2010-01-01T00:00:08Z</time>
      </trkpt>
      <trkpt lat="42.27096" lon="2.59055">
        <ele>269</ele>
        <time>2010-01-01T00:00:16Z</time>
      </trkpt>
      <trkpt lat="42.27099" lon="2.59044">
        <ele>272</ele>
        <time>2010-01-01T00:00:25Z</time>
      </trkpt>
      <trkpt lat="42.27107" lon="2.59041">
        <ele>273</ele>
        <time>2010-01-01T00:00:33Z</time>
      </trkpt>
      <trkpt lat="42.27116" lon="2.59042">
        <ele>275</ele>
        <time>2010-01-01T00:00:42Z</time>
      </trkpt>
      <trkpt lat="42.27124" lon="2.5904">
        <ele>277</ele>
        <time>2010-01-01T00:00:49Z</time>
      </trkpt>
      <trkpt lat="42.27131" lon="2.59048">
        <ele>275</ele>
        <time>2010-01-01T00:00:59Z</time>
      </trkpt>
      <trkpt lat="42.27141" lon="2.59049">
        <ele>276</ele>
        <time>2010-01-01T00:01:09Z</time>
      </trkpt>
      <trkpt lat="42.27143" lon="2.59048">
        <ele>277</ele>
        <time>2010-01-01T00:01:11Z</time>
      </trkpt>
      <trkpt lat="42.27153" lon="2.59035">
        <ele>285</ele>
        <time>2010-01-01T00:01:25Z</time>
      </trkpt>
      <trkpt lat="42.27158" lon="2.59026">
        <ele>290</ele>
        <time>2010-01-01T00:01:34Z</time>
      </trkpt>
      <trkpt lat="42.27164" lon="2.59019">
        <ele>293</ele>
        <time>2010-01-01T00:01:42Z</time>
      </trkpt>
      <trkpt lat="42.27179" lon="2.59007">
        <ele>299</ele>
        <time>2010-01-01T00:01:59Z</time>
      </trkpt>
      <trkpt lat="42.27185" lon="2.59008">
        <ele>299</ele>
        <time>2010-01-01T00:02:05Z</time>
      </trkpt>
      <trkpt lat="42.27194" lon="2.59012">
        <ele>298</ele>
        <time>2010-01-01T00:02:14Z</time>
      </trkpt>
      <trkpt lat="42.27204" lon="2.59012">
        <ele>299</ele>
        <time>2010-01-01T00:02:25Z</time>
      </trkpt>
      <trkpt lat="42.27213" lon="2.59014">
        <ele>300</ele>
        <time>2010-01-01T00:02:33Z</time>
      </trkpt>
      <trkpt lat="42.27223" lon="2.59016">
        <ele>301</ele>
        <time>2010-01-01T00:02:44Z</time>
      </trkpt>
      <trkpt lat="42.27234" lon="2.59012">
        <ele>303</ele>
        <time>2010-01-01T00:02:55Z</time>
      </trkpt>
      <trkpt lat="42.27244" lon="2.59005">
        <ele>306</ele>
        <time>2010-01-01T00:03:07Z</time>
      </trkpt>
      <trkpt lat="42.27246" lon="2.58998">
        <ele>308</ele>
        <time>2010-01-01T00:03:12Z</time>
      </trkpt>
      <trkpt lat="42.27255" lon="2.58991">
        <ele>311</ele>
        <time>2010-01-01T00:03:22Z</time>
      </trkpt>
      <trkpt lat="42.27266" lon="2.58986">
        <ele>314</ele>
        <time>2010-01-01T00:03:34Z</time>
      </trkpt>
      <trkpt lat="42.27277" lon="2.5898">
        <ele>317</ele>
        <time>2010-01-01T00:03:46Z</time>
      </trkpt>
      <trkpt lat="42.2729" lon="2.58973">
        <ele>319</ele>
        <time>2010-01-01T00:03:59Z</time>
      </trkpt>
      <trkpt lat="42.27303" lon="2.58966">
        <ele>321</ele>
        <time>2010-01-01T00:04:14Z</time>
      </trkpt>
      <trkpt lat="42.27312" lon="2.58957">
        <ele>325</ele>
        <time>2010-01-01T00:04:25Z</time>
      </trkpt>
      <trkpt lat="42.27318" lon="2.58953">
        <ele>327</ele>
        <time>2010-01-01T00:04:32Z</time>
      </trkpt>
      <trkpt lat="42.2733" lon="2.58944">
        <ele>331</ele>
        <time>2010-01-01T00:04:45Z</time>
      </trkpt>
      <trkpt lat="42.27334" lon="2.58938">
        <ele>334</ele>
        <time>2010-01-01T00:04:51Z</time>
      </trkpt>
      <trkpt lat="42.27343" lon="2.58926">
        <ele>338</ele>
        <time>2010-01-01T00:05:04Z</time>
      </trkpt>
      <trkpt lat="42.27351" lon="2.58921">
        <ele>339</ele>
        <time>2010-01-01T00:05:13Z</time>
      </trkpt>
      <trkpt lat="42.27363" lon="2.58917">
        <ele>339</ele>
        <time>2010-01-01T00:05:25Z</time>
      </trkpt>
      <trkpt lat="42.27366" lon="2.58916">
        <ele>340</ele>
        <time>2010-01-01T00:05:29Z</time>
      </trkpt>
      <trkpt lat="42.2737" lon="2.58914">
        <ele>340</ele>
        <time>2010-01-01T00:05:32Z</time>
      </trkpt>
      <trkpt lat="42.27375" lon="2.58911">
        <ele>341</ele>
        <time>2010-01-01T00:05:38Z</time>
      </trkpt>
      <trkpt lat="42.27387" lon="2.58897">
        <ele>345</ele>
        <time>2010-01-01T00:05:54Z</time>
      </trkpt>
      <trkpt lat="42.27396" lon="2.58892">
        <ele>347</ele>
        <time>2010-01-01T00:06:03Z</time>
      </trkpt>
      <trkpt lat="42.27404" lon="2.58885">
        <ele>349</ele>
        <time>2010-01-01T00:06:13Z</time>
      </trkpt>
      <trkpt lat="42.27413" lon="2.58873">
        <ele>352</ele>
        <time>2010-01-01T00:06:26Z</time>
      </trkpt>
      <trkpt lat="42.27423" lon="2.58859">
        <ele>355</ele>
        <time>2010-01-01T00:06:40Z</time>
      </trkpt>
      <trkpt lat="42.27428" lon="2.58844">
        <ele>357</ele>
        <time>2010-01-01T00:06:52Z</time>
      </trkpt>
      <trkpt lat="42.27438" lon="2.58826">
        <ele>360</ele>
        <time>2010-01-01T00:07:09Z</time>
      </trkpt>
      <trkpt lat="42.27445" lon="2.58817">
        <ele>361</ele>
        <time>2010-01-01T00:07:19Z</time>
      </trkpt>
      <trkpt lat="42.27451" lon="2.58805">
        <ele>362</ele>
        <time>2010-01-01T00:07:29Z</time>
      </trkpt>
      <trkpt lat="42.27456" lon="2.58795">
        <ele>362</ele>
        <time>2010-01-01T00:07:38Z</time>
      </trkpt>
      <trkpt lat="42.27459" lon="2.58774">
        <ele>365</ele>
        <time>2010-01-01T00:07:54Z</time>
      </trkpt>
      <trkpt lat="42.27461" lon="2.58765">
        <ele>367</ele>
        <time>2010-01-01T00:08:01Z</time>
      </trkpt>
      <trkpt lat="42.27469" lon="2.58751">
        <ele>368</ele>
        <time>2010-01-01T00:08:15Z</time>
      </trkpt>
      <trkpt lat="42.27471" lon="2.58735">
        <ele>371</ele>
        <time>2010-01-01T00:08:26Z</time>
      </trkpt>
      <trkpt lat="42.27475" lon="2.5872">
        <ele>373</ele>
        <time>2010-01-01T00:08:38Z</time>
      </trkpt>
      <trkpt lat="42.27478" lon="2.58719">
        <ele>373</ele>
        <time>2010-01-01T00:08:41Z</time>
      </trkpt>
      <trkpt lat="42.2748" lon="2.58715">
        <ele>374</ele>
        <time>2010-01-01T00:08:44Z</time>
      </trkpt>
      <trkpt lat="42.27486" lon="2.58695">
        <ele>376</ele>
        <time>2010-01-01T00:09:00Z</time>
      </trkpt>
      <trkpt lat="42.27493" lon="2.58677">
        <ele>378</ele>
        <time>2010-01-01T00:09:15Z</time>
      </trkpt>
      <trkpt lat="42.27491" lon="2.58663">
        <ele>381</ele>
        <time>2010-01-01T00:09:26Z</time>
      </trkpt>
      <trkpt lat="42.27494" lon="2.58645">
        <ele>382</ele>
        <time>2010-01-01T00:09:40Z</time>
      </trkpt>
      <trkpt lat="42.27497" lon="2.58629">
        <ele>382</ele>
        <time>2010-01-01T00:09:52Z</time>
      </trkpt>
      <trkpt lat="42.27498" lon="2.58616">
        <ele>382</ele>
        <time>2010-01-01T00:10:01Z</time>
      </trkpt>
      <trkpt lat="42.275" lon="2.58595">
        <ele>383</ele>
        <time>2010-01-01T00:10:17Z</time>
      </trkpt>
      <trkpt lat="42.27501" lon="2.58589">
        <ele>383</ele>
        <time>2010-01-01T00:10:22Z</time>
      </trkpt>
      <trkpt lat="42.27502" lon="2.58585">
        <ele>383</ele>
        <time>2010-01-01T00:10:24Z</time>
      </trkpt>
      <trkpt lat="42.27507" lon="2.58561">
        <ele>384</ele>
        <time>2010-01-01T00:10:43Z</time>
      </trkpt>
      <trkpt lat="42.27508" lon="2.58554">
        <ele>385</ele>
        <time>2010-01-01T00:10:48Z</time>
      </trkpt>
      <trkpt lat="42.27508" lon="2.58545">
        <ele>387</ele>
        <time>2010-01-01T00:10:55Z</time>
      </trkpt>
      <trkpt lat="42.27511" lon="2.58532">
        <ele>389</ele>
        <time>2010-01-01T00:11:06Z</time>
      </trkpt>
      <trkpt lat="42.27512" lon="2.58516">
        <ele>391</ele>
        <time>2010-01-01T00:11:17Z</time>
      </trkpt>
      <trkpt lat="42.27514" lon="2.58514">
        <ele>391</ele>
        <time>2010-01-01T00:11:20Z</time>
      </trkpt>
      <trkpt lat="42.27517" lon="2.58515">
        <ele>391</ele>
        <time>2010-01-01T00:11:23Z</time>
      </trkpt>
      <trkpt lat="42.27528" lon="2.58514">
        <ele>390</ele>
        <time>2010-01-01T00:11:34Z</time>
      </trkpt>
      <trkpt lat="42.2754" lon="2.5852">
        <ele>392</ele>
        <time>2010-01-01T00:11:47Z</time>
      </trkpt>
      <trkpt lat="42.27546" lon="2.58518">
        <ele>394</ele>
        <time>2010-01-01T00:11:53Z</time>
      </trkpt>
      <trkpt lat="42.27558" lon="2.58519">
        <ele>397</ele>
        <time>2010-01-01T00:12:05Z</time>
      </trkpt>
      <trkpt lat="42.27562" lon="2.58511">
        <ele>399</ele>
        <time>2010-01-01T00:12:13Z</time>
      </trkpt>
      <trkpt lat="42.27565" lon="2.585">
        <ele>402</ele>
        <time>2010-01-01T00:12:21Z</time>
      </trkpt>
      <trkpt lat="42.27567" lon="2.58487">
        <ele>403</ele>
        <time>2010-01-01T00:12:31Z</time>
      </trkpt>
      <trkpt lat="42.27574" lon="2.58484">
        <ele>405</ele>
        <time>2010-01-01T00:12:39Z</time>
      </trkpt>
      <trkpt lat="42.27575" lon="2.58484">
        <ele>406</ele>
        <time>2010-01-01T00:12:39Z</time>
      </trkpt>
      <trkpt lat="42.27579" lon="2.58473">
        <ele>408</ele>
        <time>2010-01-01T00:12:49Z</time>
      </trkpt>
      <trkpt lat="42.27584" lon="2.58466">
        <ele>410</ele>
        <time>2010-01-01T00:12:55Z</time>
      </trkpt>
      <trkpt lat="42.27588" lon="2.58468">
        <ele>411</ele>
        <time>2010-01-01T00:13:00Z</time>
      </trkpt>
      <trkpt lat="42.27593" lon="2.58462">
        <ele>413</ele>
        <time>2010-01-01T00:13:06Z</time>
      </trkpt>
      <trkpt lat="42.27595" lon="2.58463">
        <ele>414</ele>
        <time>2010-01-01T00:13:08Z</time>
      </trkpt>
      <trkpt lat="42.27602" lon="2.58465">
        <ele>417</ele>
        <time>2010-01-01T00:13:16Z</time>
      </trkpt>
      <trkpt lat="42.27608" lon="2.58458">
        <ele>420</ele>
        <time>2010-01-01T00:13:23Z</time>
      </trkpt>
      <trkpt lat="42.27609" lon="2.58457">
        <ele>420</ele>
        <time>2010-01-01T00:13:24Z</time>
      </trkpt>
      <trkpt lat="42.27613" lon="2.58435">
        <ele>424</ele>
        <time>2010-01-01T00:13:41Z</time>
      </trkpt>
      <trkpt lat="42.27616" lon="2.58433">
        <ele>425</ele>
        <time>2010-01-01T00:13:44Z</time>
      </trkpt>
      <trkpt lat="42.27622" lon="2.5842">
        <ele>429</ele>
        <time>2010-01-01T00:13:55Z</time>
      </trkpt>
      <trkpt lat="42.27624" lon="2.58412">
        <ele>430</ele>
        <time>2010-01-01T00:14:02Z</time>
      </trkpt>
      <trkpt lat="42.27627" lon="2.58393">
        <ele>433</ele>
        <time>2010-01-01T00:14:16Z</time>
      </trkpt>
      <trkpt lat="42.27626" lon="2.58384">
        <ele>433</ele>
        <time>2010-01-01T00:14:23Z</time>
      </trkpt>
      <trkpt lat="42.27625" lon="2.58377">
        <ele>434</ele>
        <time>2010-01-01T00:14:28Z</time>
      </trkpt>
      <trkpt lat="42.27624" lon="2.58351">
        <ele>435</ele>
        <time>2010-01-01T00:14:48Z</time>
      </trkpt>
      <trkpt lat="42.27623" lon="2.58332">
        <ele>436</ele>
        <time>2010-01-01T00:15:02Z</time>
      </trkpt>
      <trkpt lat="42.27623" lon="2.58308">
        <ele>439</ele>
        <time>2010-01-01T00:15:20Z</time>
      </trkpt>
      <trkpt lat="42.27624" lon="2.5829">
        <ele>441</ele>
        <time>2010-01-01T00:15:32Z</time>
      </trkpt>
      <trkpt lat="42.27626" lon="2.58284">
        <ele>442</ele>
        <time>2010-01-01T00:15:38Z</time>
      </trkpt>
      <trkpt lat="42.27629" lon="2.58276">
        <ele>444</ele>
        <time>2010-01-01T00:15:44Z</time>
      </trkpt>
      <trkpt lat="42.27631" lon="2.58267">
        <ele>446</ele>
        <time>2010-01-01T00:15:51Z</time>
      </trkpt>
      <trkpt lat="42.27634" lon="2.58271">
        <ele>447</ele>
        <time>2010-01-01T00:15:56Z</time>
      </trkpt>
      <trkpt lat="42.27636" lon="2.58266">
        <ele>448</ele>
        <time>2010-01-01T00:16:01Z</time>
      </trkpt>
      <trkpt lat="42.27639" lon="2.58255">
        <ele>450</ele>
        <time>2010-01-01T00:16:09Z</time>
      </trkpt>
      <trkpt lat="42.2764" lon="2.58238">
        <ele>452</ele>
        <time>2010-01-01T00:16:22Z</time>
      </trkpt>
      <trkpt lat="42.2764" lon="2.58234">
        <ele>452</ele>
        <time>2010-01-01T00:16:25Z</time>
      </trkpt>
      <trkpt lat="42.27641" lon="2.58223">
        <ele>453</ele>
        <time>2010-01-01T00:16:33Z</time>
      </trkpt>
      <trkpt lat="42.27644" lon="2.58211">
        <ele>456</ele>
        <time>2010-01-01T00:16:43Z</time>
      </trkpt>
      <trkpt lat="42.27647" lon="2.58193">
        <ele>459</ele>
        <time>2010-01-01T00:16:56Z</time>
      </trkpt>
      <trkpt lat="42.27648" lon="2.58181">
        <ele>461</ele>
        <time>2010-01-01T00:17:05Z</time>
      </trkpt>
      <trkpt lat="42.27652" lon="2.58172">
        <ele>464</ele>
        <time>2010-01-01T00:17:12Z</time>
      </trkpt>
      <trkpt lat="42.27651" lon="2.58172">
        <ele>464</ele>
        <time>2010-01-01T00:17:13Z</time>
      </trkpt>
      <trkpt lat="42.27652" lon="2.58165">
        <ele>465</ele>
        <time>2010-01-01T00:17:18Z</time>
      </trkpt>
      <trkpt lat="42.27656" lon="2.58148">
        <ele>468</ele>
        <time>2010-01-01T00:17:31Z</time>
      </trkpt>
      <trkpt lat="42.27657" lon="2.58136">
        <ele>469</ele>
        <time>2010-01-01T00:17:40Z</time>
      </trkpt>
      <trkpt lat="42.27659" lon="2.58134">
        <ele>470</ele>
        <time>2010-01-01T00:17:42Z</time>
      </trkpt>
      <trkpt lat="42.27662" lon="2.58131">
        <ele>471</ele>
        <time>2010-01-01T00:17:46Z</time>
      </trkpt>
      <trkpt lat="42.27662" lon="2.58125">
        <ele>472</ele>
        <time>2010-01-01T00:17:51Z</time>
      </trkpt>
      <trkpt lat="42.27662" lon="2.58121">
        <ele>472</ele>
        <time>2010-01-01T00:17:53Z</time>
      </trkpt>
      <trkpt lat="42.27664" lon="2.58104">
        <ele>475</ele>
        <time>2010-01-01T00:18:07Z</time>
      </trkpt>
      <trkpt lat="42.27672" lon="2.58097">
        <ele>477</ele>
        <time>2010-01-01T00:18:16Z</time>
      </trkpt>
      <trkpt lat="42.27674" lon="2.58092">
        <ele>478</ele>
        <time>2010-01-01T00:18:20Z</time>
      </trkpt>
      <trkpt lat="42.27681" lon="2.5808">
        <ele>481</ele>
        <time>2010-01-01T00:18:31Z</time>
      </trkpt>
      <trkpt lat="42.27684" lon="2.58071">
        <ele>483</ele>
        <time>2010-01-01T00:18:39Z</time>
      </trkpt>
      <trkpt lat="42.27691" lon="2.58052">
        <ele>486</ele>
        <time>2010-01-01T00:18:54Z</time>
      </trkpt>
      <trkpt lat="42.27698" lon="2.5804">
        <ele>488</ele>
        <time>2010-01-01T00:19:06Z</time>
      </trkpt>
      <trkpt lat="42.27699" lon="2.58038">
        <ele>489</ele>
        <time>2010-01-01T00:19:07Z</time>
      </trkpt>
      <trkpt lat="42.27703" lon="2.58018">
        <ele>490</ele>
        <time>2010-01-01T00:19:23Z</time>
      </trkpt>
      <trkpt lat="42.27705" lon="2.58002">
        <ele>491</ele>
        <time>2010-01-01T00:19:35Z</time>
      </trkpt>
      <trkpt lat="42.27708" lon="2.5799">
        <ele>492</ele>
        <time>2010-01-01T00:19:44Z</time>
      </trkpt>
      <trkpt lat="42.27709" lon="2.57975">
        <ele>492</ele>
        <time>2010-01-01T00:19:55Z</time>
      </trkpt>
      <trkpt lat="42.27707" lon="2.5795">
        <ele>495</ele>
        <time>2010-01-01T00:20:14Z</time>
      </trkpt>
      <trkpt lat="42.2771" lon="2.57932">
        <ele>497</ele>
        <time>2010-01-01T00:20:28Z</time>
      </trkpt>
      <trkpt lat="42.27711" lon="2.57925">
        <ele>497</ele>
        <time>2010-01-01T00:20:33Z</time>
      </trkpt>
      <trkpt lat="42.27702" lon="2.57905">
        <ele>495</ele>
        <time>2010-01-01T00:20:50Z</time>
      </trkpt>
      <trkpt lat="42.2769" lon="2.5789">
        <ele>493</ele>
        <time>2010-01-01T00:21:06Z</time>
      </trkpt>
      <trkpt lat="42.27686" lon="2.57879">
        <ele>493</ele>
        <time>2010-01-01T00:21:15Z</time>
      </trkpt>
      <trkpt lat="42.27683" lon="2.57872">
        <ele>493</ele>
        <time>2010-01-01T00:21:22Z</time>
      </trkpt>
      <trkpt lat="42.27682" lon="2.57861">
        <ele>493</ele>
        <time>2010-01-01T00:21:29Z</time>
      </trkpt>
      <trkpt lat="42.27671" lon="2.57859">
        <ele>494</ele>
        <time>2010-01-01T00:21:41Z</time>
      </trkpt>
      <trkpt lat="42.27662" lon="2.57855">
        <ele>495</ele>
        <time>2010-01-01T00:21:50Z</time>
      </trkpt>
      <trkpt lat="42.2766" lon="2.57837">
        <ele>496</ele>
        <time>2010-01-01T00:22:04Z</time>
      </trkpt>
      <trkpt lat="42.2766" lon="2.57835">
        <ele>496</ele>
        <time>2010-01-01T00:22:05Z</time>
      </trkpt>
      <trkpt lat="42.27659" lon="2.5783">
        <ele>496</ele>
        <time>2010-01-01T00:22:09Z</time>
      </trkpt>
      <trkpt lat="42.27658" lon="2.57826">
        <ele>496</ele>
        <time>2010-01-01T00:22:12Z</time>
      </trkpt>
      <trkpt lat="42.27655" lon="2.57807">
        <ele>495</ele>
        <time>2010-01-01T00:22:26Z</time>
      </trkpt>
      <trkpt lat="42.27653" lon="2.5779">
        <ele>495</ele>
        <time>2010-01-01T00:22:39Z</time>
      </trkpt>
      <trkpt lat="42.27649" lon="2.57767">
        <ele>494</ele>
        <time>2010-01-01T00:22:57Z</time>
      </trkpt>
      <trkpt lat="42.27647" lon="2.57758">
        <ele>493</ele>
        <time>2010-01-01T00:23:04Z</time>
      </trkpt>
      <trkpt lat="42.27641" lon="2.57745">
        <ele>493</ele>
        <time>2010-01-01T00:23:15Z</time>
      </trkpt>
      <trkpt lat="42.27628" lon="2.57725">
        <ele>496</ele>
        <time>2010-01-01T00:23:35Z</time>
      </trkpt>
      <trkpt lat="42.27628" lon="2.57714">
        <ele>494</ele>
        <time>2010-01-01T00:23:43Z</time>
      </trkpt>
      <trkpt lat="42.27629" lon="2.57697">
        <ele>491</ele>
        <time>2010-01-01T00:23:56Z</time>
      </trkpt>
      <trkpt lat="42.27631" lon="2.57678">
        <ele>490</ele>
        <time>2010-01-01T00:24:10Z</time>
      </trkpt>
      <trkpt lat="42.27628" lon="2.57667">
        <ele>492</ele>
        <time>2010-01-01T00:24:19Z</time>
      </trkpt>
      <trkpt lat="42.27626" lon="2.57657">
        <ele>492</ele>
        <time>2010-01-01T00:24:26Z</time>
      </trkpt>
      <trkpt lat="42.2763" lon="2.5765">
        <ele>490</ele>
        <time>2010-01-01T00:24:32Z</time>
      </trkpt>
      <trkpt lat="42.27635" lon="2.57648">
        <ele>487</ele>
        <time>2010-01-01T00:24:38Z</time>
      </trkpt>
      <trkpt lat="42.27637" lon="2.57657">
        <ele>487</ele>
        <time>2010-01-01T00:24:45Z</time>
      </trkpt>
      <trkpt lat="42.27641" lon="2.57661">
        <ele>486</ele>
        <time>2010-01-01T00:24:50Z</time>
      </trkpt>
      <trkpt lat="42.27649" lon="2.57678">
        <ele>483</ele>
        <time>2010-01-01T00:25:05Z</time>
      </trkpt>
      <trkpt lat="42.27652" lon="2.57674">
        <ele>482</ele>
        <time>2010-01-01T00:25:09Z</time>
      </trkpt>
      <trkpt lat="42.27653" lon="2.57677">
        <ele>481</ele>
        <time>2010-01-01T00:25:11Z</time>
      </trkpt>
      <trkpt lat="42.27655" lon="2.57677">
        <ele>480</ele>
        <time>2010-01-01T00:25:14Z</time>
      </trkpt>
      <trkpt lat="42.27659" lon="2.57664">
        <ele>478</ele>
        <time>2010-01-01T00:25:24Z</time>
      </trkpt>
      <trkpt lat="42.2766" lon="2.57659">
        <ele>477</ele>
        <time>2010-01-01T00:25:28Z</time>
      </trkpt>
      <trkpt lat="42.27671" lon="2.57674">
        <ele>474</ele>
        <time>2010-01-01T00:25:44Z</time>
      </trkpt>
      <trkpt lat="42.27676" lon="2.57698">
        <ele>476</ele>
        <time>2010-01-01T00:26:03Z</time>
      </trkpt>
      <trkpt lat="42.27678" lon="2.57699">
        <ele>476</ele>
        <time>2010-01-01T00:26:05Z</time>
      </trkpt>
      <trkpt lat="42.27681" lon="2.57701">
        <ele>476</ele>
        <time>2010-01-01T00:26:08Z</time>
      </trkpt>
      <trkpt lat="42.27684" lon="2.57699">
        <ele>475</ele>
        <time>2010-01-01T00:26:12Z</time>
      </trkpt>
      <trkpt lat="42.27679" lon="2.57683">
        <ele>473</ele>
        <time>2010-01-01T00:26:25Z</time>
      </trkpt>
      <trkpt lat="42.27681" lon="2.57673">
        <ele>470</ele>
        <time>2010-01-01T00:26:32Z</time>
      </trkpt>
      <trkpt lat="42.2768" lon="2.57662">
        <ele>469</ele>
        <time>2010-01-01T00:26:40Z</time>
      </trkpt>
      <trkpt lat="42.27675" lon="2.57641">
        <ele>469</ele>
        <time>2010-01-01T00:26:57Z</time>
      </trkpt>
      <trkpt lat="42.27677" lon="2.57629">
        <ele>465</ele>
        <time>2010-01-01T00:27:05Z</time>
      </trkpt>
      <trkpt lat="42.27675" lon="2.57625">
        <ele>466</ele>
        <time>2010-01-01T00:27:09Z</time>
      </trkpt>
      <trkpt lat="42.27675" lon="2.57618">
        <ele>464</ele>
        <time>2010-01-01T00:27:15Z</time>
      </trkpt>
      <trkpt lat="42.27675" lon="2.57604">
        <ele>461</ele>
        <time>2010-01-01T00:27:25Z</time>
      </trkpt>
      <trkpt lat="42.27678" lon="2.57593">
        <ele>456</ele>
        <time>2010-01-01T00:27:34Z</time>
      </trkpt>
      <trkpt lat="42.2768" lon="2.57589">
        <ele>453</ele>
        <time>2010-01-01T00:27:38Z</time>
      </trkpt>
      <trkpt lat="42.27682" lon="2.5758">
        <ele>451</ele>
        <time>2010-01-01T00:27:44Z</time>
      </trkpt>
      <trkpt lat="42.27679" lon="2.57562">
        <ele>451</ele>
        <time>2010-01-01T00:27:58Z</time>
      </trkpt>
      <trkpt lat="42.27678" lon="2.57546">
        <ele>451</ele>
        <time>2010-01-01T00:28:10Z</time>
      </trkpt>
      <trkpt lat="42.27681" lon="2.57528">
        <ele>446</ele>
        <time>2010-01-01T00:28:24Z</time>
      </trkpt>
      <trkpt lat="42.27674" lon="2.57514">
        <ele>452</ele>
        <time>2010-01-01T00:28:36Z</time>
      </trkpt>
      <trkpt lat="42.27677" lon="2.57498">
        <ele>450</ele>
        <time>2010-01-01T00:28:49Z</time>
      </trkpt>
      <trkpt lat="42.27681" lon="2.57492">
        <ele>447</ele>
        <time>2010-01-01T00:28:55Z</time>
      </trkpt>
      <trkpt lat="42.27681" lon="2.57489">
        <ele>447</ele>
        <time>2010-01-01T00:28:57Z</time>
      </trkpt>
      <trkpt lat="42.27689" lon="2.57478">
        <ele>444</ele>
        <time>2010-01-01T00:29:08Z</time>
      </trkpt>
      <trkpt lat="42.27701" lon="2.57473">
        <ele>436</ele>
        <time>2010-01-01T00:29:21Z</time>
      </trkpt>
      <trkpt lat="42.27703" lon="2.57468">
        <ele>436</ele>
        <time>2010-01-01T00:29:25Z</time>
      </trkpt>
      <trkpt lat="42.27709" lon="2.57455">
        <ele>434</ele>
        <time>2010-01-01T00:29:36Z</time>
      </trkpt>
      <trkpt lat="42.27712" lon="2.57453">
        <ele>432</ele>
        <time>2010-01-01T00:29:40Z</time>
      </trkpt>
      <trkpt lat="42.27718" lon="2.5744">
        <ele>432</ele>
        <time>2010-01-01T00:29:50Z</time>
      </trkpt>
      <trkpt lat="42.27719" lon="2.57436">
        <ele>431</ele>
        <time>2010-01-01T00:29:54Z</time>
      </trkpt>
      <trkpt lat="42.27722" lon="2.57426">
        <ele>430</ele>
        <time>2010-01-01T00:30:02Z</time>
      </trkpt>
      <trkpt lat="42.27727" lon="2.57411">
        <ele>427</ele>
        <time>2010-01-01T00:30:14Z</time>
      </trkpt>
      <trkpt lat="42.27731" lon="2.57397">
        <ele>426</ele>
        <time>2010-01-01T00:30:25Z</time>
      </trkpt>
      <trkpt lat="42.27734" lon="2.57389">
        <ele>424</ele>
        <time>2010-01-01T00:30:32Z</time>
      </trkpt>
      <trkpt lat="42.2774" lon="2.57376">
        <ele>419</ele>
        <time>2010-01-01T00:30:43Z</time>
      </trkpt>
      <trkpt lat="42.27746" lon="2.57364">
        <ele>415</ele>
        <time>2010-01-01T00:30:54Z</time>
      </trkpt>
      <trkpt lat="42.27747" lon="2.5736">
        <ele>415</ele>
        <time>2010-01-01T00:30:57Z</time>
      </trkpt>
      <trkpt lat="42.27756" lon="2.57347">
        <ele>408</ele>
        <time>2010-01-01T00:31:10Z</time>
      </trkpt>
      <trkpt lat="42.27757" lon="2.57333">
        <ele>407</ele>
        <time>2010-01-01T00:31:20Z</time>
      </trkpt>
      <trkpt lat="42.27758" lon="2.57322">
        <ele>406</ele>
        <time>2010-01-01T00:31:28Z</time>
      </trkpt>
      <trkpt lat="42.2776" lon="2.57322">
        <ele>404</ele>
        <time>2010-01-01T00:31:31Z</time>
      </trkpt>
      <trkpt lat="42.2776" lon="2.5732">
        <ele>404</ele>
        <time>2010-01-01T00:31:33Z</time>
      </trkpt>
      <trkpt lat="42.27761" lon="2.57306">
        <ele>401</ele>
        <time>2010-01-01T00:31:43Z</time>
      </trkpt>
      <trkpt lat="42.27764" lon="2.57298">
        <ele>397</ele>
        <time>2010-01-01T00:31:49Z</time>
      </trkpt>
      <trkpt lat="42.27773" lon="2.57313">
        <ele>393</ele>
        <time>2010-01-01T00:32:04Z</time>
      </trkpt>
      <trkpt lat="42.27783" lon="2.57327">
        <ele>388</ele>
        <time>2010-01-01T00:32:18Z</time>
      </trkpt>
      <trkpt lat="42.27788" lon="2.57337">
        <ele>384</ele>
        <time>2010-01-01T00:32:27Z</time>
      </trkpt>
      <trkpt lat="42.27794" lon="2.57348">
        <ele>377</ele>
        <time>2010-01-01T00:32:37Z</time>
      </trkpt>
      <trkpt lat="42.27797" lon="2.57344">
        <ele>375</ele>
        <time>2010-01-01T00:32:41Z</time>
      </trkpt>
      <trkpt lat="42.278" lon="2.57328">
        <ele>374</ele>
        <time>2010-01-01T00:32:54Z</time>
      </trkpt>
      <trkpt lat="42.27801" lon="2.57322">
        <ele>374</ele>
        <time>2010-01-01T00:32:58Z</time>
      </trkpt>
      <trkpt lat="42.27801" lon="2.57305">
        <ele>374</ele>
        <time>2010-01-01T00:33:11Z</time>
      </trkpt>
      <trkpt lat="42.27807" lon="2.57317">
        <ele>370</ele>
        <time>2010-01-01T00:33:21Z</time>
      </trkpt>
      <trkpt lat="42.27819" lon="2.57314">
        <ele>365</ele>
        <time>2010-01-01T00:33:34Z</time>
      </trkpt>
      <trkpt lat="42.27822" lon="2.57313">
        <ele>364</ele>
        <time>2010-01-01T00:33:37Z</time>
      </trkpt>
      <trkpt lat="42.27827" lon="2.5731">
        <ele>362</ele>
        <time>2010-01-01T00:33:42Z</time>
      </trkpt>
      <trkpt lat="42.27836" lon="2.57309">
        <ele>358</ele>
        <time>2010-01-01T00:33:51Z</time>
      </trkpt>
      <trkpt lat="42.2784" lon="2.57329">
        <ele>354</ele>
        <time>2010-01-01T00:34:06Z</time>
      </trkpt>
      <trkpt lat="42.2784" lon="2.5733">
        <ele>353</ele>
        <time>2010-01-01T00:34:08Z</time>
      </trkpt>
      <trkpt lat="42.27838" lon="2.57334">
        <ele>354</ele>
        <time>2010-01-01T00:34:11Z</time>
      </trkpt>
      <trkpt lat="42.27843" lon="2.57343">
        <ele>348</ele>
        <time>2010-01-01T00:34:19Z</time>
      </trkpt>
      <trkpt lat="42.27843" lon="2.57358">
        <ele>343</ele>
        <time>2010-01-01T00:34:30Z</time>
      </trkpt>
      <trkpt lat="42.27847" lon="2.57368">
        <ele>339</ele>
        <time>2010-01-01T00:34:39Z</time>
      </trkpt>
      <trkpt lat="42.27854" lon="2.57376">
        <ele>335</ele>
        <time>2010-01-01T00:34:49Z</time>
      </trkpt>
      <trkpt lat="42.27858" lon="2.57374">
        <ele>333</ele>
        <time>2010-01-01T00:34:52Z</time>
      </trkpt>
      <trkpt lat="42.27857" lon="2.57372">
        <ele>334</ele>
        <time>2010-01-01T00:34:54Z</time>
      </trkpt>
      <trkpt lat="42.2786" lon="2.57364">
        <ele>332</ele>
        <time>2010-01-01T00:35:01Z</time>
      </trkpt>
      <trkpt lat="42.27863" lon="2.57361">
        <ele>331</ele>
        <time>2010-01-01T00:35:05Z</time>
      </trkpt>
      <trkpt lat="42.27862" lon="2.57358">
        <ele>332</ele>
        <time>2010-01-01T00:35:07Z</time>
      </trkpt>
      <trkpt lat="42.27864" lon="2.57349">
        <ele>335</ele>
        <time>2010-01-01T00:35:15Z</time>
      </trkpt>
      <trkpt lat="42.27864" lon="2.57356">
        <ele>333</ele>
        <time>2010-01-01T00:35:20Z</time>
      </trkpt>
      <trkpt lat="42.27863" lon="2.5736">
        <ele>332</ele>
        <time>2010-01-01T00:35:24Z</time>
      </trkpt>
      <trkpt lat="42.27866" lon="2.5737">
        <ele>331</ele>
        <time>2010-01-01T00:35:32Z</time>
      </trkpt>
      <trkpt lat="42.27864" lon="2.57383">
        <ele>331</ele>
        <time>2010-01-01T00:35:42Z</time>
      </trkpt>
      <trkpt lat="42.27863" lon="2.57394">
        <ele>331</ele>
        <time>2010-01-01T00:35:49Z</time>
      </trkpt>
      <trkpt lat="42.27865" lon="2.57406">
        <ele>331</ele>
        <time>2010-01-01T00:35:59Z</time>
      </trkpt>
      <trkpt lat="42.27865" lon="2.57408">
        <ele>331</ele>
        <time>2010-01-01T00:36:00Z</time>
      </trkpt>
      <trkpt lat="42.27866" lon="2.57414">
        <ele>331</ele>
        <time>2010-01-01T00:36:05Z</time>
      </trkpt>
      <trkpt lat="42.27865" lon="2.57428">
        <ele>333</ele>
        <time>2010-01-01T00:36:15Z</time>
      </trkpt>
      <trkpt lat="42.27864" lon="2.57437">
        <ele>334</ele>
        <time>2010-01-01T00:36:22Z</time>
      </trkpt>
      <trkpt lat="42.27865" lon="2.57438">
        <ele>334</ele>
        <time>2010-01-01T00:36:23Z</time>
      </trkpt>
      <trkpt lat="42.27866" lon="2.57443">
        <ele>334</ele>
        <time>2010-01-01T00:36:27Z</time>
      </trkpt>
      <trkpt lat="42.27866" lon="2.57442">
        <ele>334</ele>
        <time>2010-01-01T00:36:27Z</time>
      </trkpt>
      <trkpt lat="42.27868" lon="2.57439">
        <ele>333</ele>
        <time>2010-01-01T00:36:31Z</time>
      </trkpt>
      <trkpt lat="42.27871" lon="2.57433">
        <ele>332</ele>
        <time>2010-01-01T00:36:35Z</time>
      </trkpt>
      <trkpt lat="42.27874" lon="2.57426">
        <ele>331</ele>
        <time>2010-01-01T00:36:41Z</time>
      </trkpt>
      <trkpt lat="42.27876" lon="2.57422">
        <ele>331</ele>
        <time>2010-01-01T00:36:45Z</time>
      </trkpt>
      <trkpt lat="42.27877" lon="2.57421">
        <ele>331</ele>
        <time>2010-01-01T00:36:46Z</time>
      </trkpt>
      <trkpt lat="42.27885" lon="2.5741">
        <ele>330</ele>
        <time>2010-01-01T00:36:58Z</time>
      </trkpt>
      <trkpt lat="42.27892" lon="2.57401">
        <ele>330</ele>
        <time>2010-01-01T00:37:08Z</time>
      </trkpt>
      <trkpt lat="42.27901" lon="2.57391">
        <ele>333</ele>
        <time>2010-01-01T00:37:19Z</time>
      </trkpt>
      <trkpt lat="42.27914" lon="2.57398">
        <ele>336</ele>
        <time>2010-01-01T00:37:34Z</time>
      </trkpt>
      <trkpt lat="42.27891" lon="2.57397">
        <ele>330</ele>
        <time>2010-01-01T00:37:57Z</time>
      </trkpt>
      <trkpt lat="42.27881" lon="2.57398">
        <ele>330</ele>
        <time>2010-01-01T00:38:07Z</time>
      </trkpt>
      <trkpt lat="42.27868" lon="2.57383">
        <ele>331</ele>
        <time>2010-01-01T00:38:24Z</time>
      </trkpt>
      <trkpt lat="42.27864" lon="2.57378">
        <ele>331</ele>
        <time>2010-01-01T00:38:30Z</time>
      </trkpt>
      <trkpt lat="42.27863" lon="2.57349">
        <ele>335</ele>
        <time>2010-01-01T00:38:51Z</time>
      </trkpt>
      <trkpt lat="42.27877" lon="2.57341">
        <ele>333</ele>
        <time>2010-01-01T00:39:06Z</time>
      </trkpt>
      <trkpt lat="42.27889" lon="2.57336">
        <ele>330</ele>
        <time>2010-01-01T00:39:19Z</time>
      </trkpt>
      <trkpt lat="42.27889" lon="2.57327">
        <ele>332</ele>
        <time>2010-01-01T00:39:26Z</time>
      </trkpt>
      <trkpt lat="42.27893" lon="2.57309">
        <ele>335</ele>
        <time>2010-01-01T00:39:40Z</time>
      </trkpt>
      <trkpt lat="42.27906" lon="2.5729">
        <ele>334</ele>
        <time>2010-01-01T00:39:59Z</time>
      </trkpt>
      <trkpt lat="42.27915" lon="2.57281">
        <ele>332</ele>
        <time>2010-01-01T00:40:10Z</time>
      </trkpt>
      <trkpt lat="42.27934" lon="2.57268">
        <ele>336</ele>
        <time>2010-01-01T00:40:31Z</time>
      </trkpt>
      <trkpt lat="42.27943" lon="2.57259">
        <ele>337</ele>
        <time>2010-01-01T00:40:43Z</time>
      </trkpt>
      <trkpt lat="42.27957" lon="2.57243">
        <ele>344</ele>
        <time>2010-01-01T00:41:01Z</time>
      </trkpt>
      <trkpt lat="42.27972" lon="2.57219">
        <ele>350</ele>
        <time>2010-01-01T00:41:24Z</time>
      </trkpt>
      <trkpt lat="42.27988" lon="2.57217">
        <ele>350</ele>
        <time>2010-01-01T00:41:40Z</time>
      </trkpt>
      <trkpt lat="42.2799" lon="2.57225">
        <ele>352</ele>
        <time>2010-01-01T00:41:46Z</time>
      </trkpt>
      <trkpt lat="42.2799" lon="2.5723">
        <ele>353</ele>
        <time>2010-01-01T00:41:50Z</time>
      </trkpt>
      <trkpt lat="42.27971" lon="2.5715">
        <ele>399</ele>
        <time>2010-01-01T00:42:52Z</time>
      </trkpt>
      <trkpt lat="42.28216" lon="2.57365">
        <ele>383</ele>
        <time>2010-01-01T00:47:45Z</time>
      </trkpt>
      <trkpt lat="42.28229" lon="2.57385">
        <ele>397</ele>
        <time>2010-01-01T00:48:04Z</time>
      </trkpt>
      <trkpt lat="42.2821" lon="2.5739">
        <ele>393</ele>
        <time>2010-01-01T00:48:24Z</time>
      </trkpt>
      <trkpt lat="42.28222" lon="2.57395">
        <ele>401</ele>
        <time>2010-01-01T00:48:36Z</time>
      </trkpt>
      <trkpt lat="42.28235" lon="2.57398">
        <ele>407</ele>
        <time>2010-01-01T00:48:49Z</time>
      </trkpt>
      <trkpt lat="42.28228" lon="2.57401">
        <ele>407</ele>
        <time>2010-01-01T00:48:57Z</time>
      </trkpt>
      <trkpt lat="42.28223" lon="2.57403">
        <ele>407</ele>
        <time>2010-01-01T00:49:02Z</time>
      </trkpt>
      <trkpt lat="42.28241" lon="2.57402">
        <ele>412</ele>
        <time>2010-01-01T00:49:21Z</time>
      </trkpt>
      <trkpt lat="42.28238" lon="2.57413">
        <ele>418</ele>
        <time>2010-01-01T00:49:29Z</time>
      </trkpt>
      <trkpt lat="42.28234" lon="2.57432">
        <ele>426</ele>
        <time>2010-01-01T00:49:44Z</time>
      </trkpt>
      <trkpt lat="42.28238" lon="2.57442">
        <ele>430</ele>
        <time>2010-01-01T00:49:52Z</time>
      </trkpt>
      <trkpt lat="42.28246" lon="2.57442">
        <ele>431</ele>
        <time>2010-01-01T00:50:01Z</time>
      </trkpt>
      <trkpt lat="42.2825" lon="2.57463">
        <ele>439</ele>
        <time>2010-01-01T00:50:17Z</time>
      </trkpt>
      <trkpt lat="42.28264" lon="2.57458">
        <ele>443</ele>
        <time>2010-01-01T00:50:32Z</time>
      </trkpt>
      <trkpt lat="42.28253" lon="2.57476">
        <ele>445</ele>
        <time>2010-01-01T00:50:50Z</time>
      </trkpt>
      <trkpt lat="42.28232" lon="2.57491">
        <ele>448</ele>
        <time>2010-01-01T00:51:13Z</time>
      </trkpt>
      <trkpt lat="42.28234" lon="2.57504">
        <ele>452</ele>
        <time>2010-01-01T00:51:23Z</time>
      </trkpt>
      <trkpt lat="42.2823" lon="2.57518">
        <ele>454</ele>
        <time>2010-01-01T00:51:34Z</time>
      </trkpt>
      <trkpt lat="42.28244" lon="2.57522">
        <ele>456</ele>
        <time>2010-01-01T00:51:49Z</time>
      </trkpt>
      <trkpt lat="42.28252" lon="2.57525">
        <ele>457</ele>
        <time>2010-01-01T00:51:57Z</time>
      </trkpt>
      <trkpt lat="42.28247" lon="2.57531">
        <ele>457</ele>
        <time>2010-01-01T00:52:03Z</time>
      </trkpt>
      <trkpt lat="42.28241" lon="2.57524">
        <ele>456</ele>
        <time>2010-01-01T00:52:11Z</time>
      </trkpt>
      <trkpt lat="42.2824" lon="2.57533">
        <ele>457</ele>
        <time>2010-01-01T00:52:18Z</time>
      </trkpt>
      <trkpt lat="42.28241" lon="2.57524">
        <ele>456</ele>
        <time>2010-01-01T00:52:25Z</time>
      </trkpt>
      <trkpt lat="42.28242" lon="2.57522">
        <ele>455</ele>
        <time>2010-01-01T00:52:27Z</time>
      </trkpt>
      <trkpt lat="42.28245" lon="2.57517">
        <ele>455</ele>
        <time>2010-01-01T00:52:31Z</time>
      </trkpt>
      <trkpt lat="42.28249" lon="2.5752">
        <ele>456</ele>
        <time>2010-01-01T00:52:35Z</time>
      </trkpt>
      <trkpt lat="42.28257" lon="2.57523">
        <ele>458</ele>
        <time>2010-01-01T00:52:44Z</time>
      </trkpt>
      <trkpt lat="42.28264" lon="2.57517">
        <ele>458</ele>
        <time>2010-01-01T00:52:52Z</time>
      </trkpt>
      <trkpt lat="42.28274" lon="2.57515">
        <ele>460</ele>
        <time>2010-01-01T00:53:02Z</time>
      </trkpt>
      <trkpt lat="42.28294" lon="2.57537">
        <ele>467</ele>
        <time>2010-01-01T00:53:28Z</time>
      </trkpt>
      <trkpt lat="42.283" lon="2.57522">
        <ele>471</ele>
        <time>2010-01-01T00:53:40Z</time>
      </trkpt>
      <trkpt lat="42.28309" lon="2.57521">
        <ele>475</ele>
        <time>2010-01-01T00:53:49Z</time>
      </trkpt>
      <trkpt lat="42.28327" lon="2.57523">
        <ele>483</ele>
        <time>2010-01-01T00:54:07Z</time>
      </trkpt>
      <trkpt lat="42.28344" lon="2.57531">
        <ele>488</ele>
        <time>2010-01-01T00:54:25Z</time>
      </trkpt>
      <trkpt lat="42.28365" lon="2.57521">
        <ele>502</ele>
        <time>2010-01-01T00:54:48Z</time>
      </trkpt>
      <trkpt lat="42.28378" lon="2.57527">
        <ele>507</ele>
        <time>2010-01-01T00:55:01Z</time>
      </trkpt>
      <trkpt lat="42.28393" lon="2.57533">
        <ele>512</ele>
        <time>2010-01-01T00:55:17Z</time>
      </trkpt>
      <trkpt lat="42.28399" lon="2.57556">
        <ele>506</ele>
        <time>2010-01-01T00:55:35Z</time>
      </trkpt>
      <trkpt lat="42.2842" lon="2.5756">
        <ele>513</ele>
        <time>2010-01-01T00:55:56Z</time>
      </trkpt>
      <trkpt lat="42.28438" lon="2.57563">
        <ele>521</ele>
        <time>2010-01-01T00:56:14Z</time>
      </trkpt>
      <trkpt lat="42.28459" lon="2.57572">
        <ele>528</ele>
        <time>2010-01-01T00:56:36Z</time>
      </trkpt>
      <trkpt lat="42.28474" lon="2.57576">
        <ele>535</ele>
        <time>2010-01-01T00:56:52Z</time>
      </trkpt>
      <trkpt lat="42.28473" lon="2.57572">
        <ele>535</ele>
        <time>2010-01-01T00:56:55Z</time>
      </trkpt>
      <trkpt lat="42.28473" lon="2.57566">
        <ele>537</ele>
        <time>2010-01-01T00:57:00Z</time>
      </trkpt>
      <trkpt lat="42.28467" lon="2.5755">
        <ele>540</ele>
        <time>2010-01-01T00:57:13Z</time>
      </trkpt>
      <trkpt lat="42.28466" lon="2.57535">
        <ele>545</ele>
        <time>2010-01-01T00:57:24Z</time>
      </trkpt>
      <trkpt lat="42.28474" lon="2.57517">
        <ele>556</ele>
        <time>2010-01-01T00:57:40Z</time>
      </trkpt>
      <trkpt lat="42.28464" lon="2.57513">
        <ele>553</ele>
        <time>2010-01-01T00:57:49Z</time>
      </trkpt>
      <trkpt lat="42.28465" lon="2.57505">
        <ele>555</ele>
        <time>2010-01-01T00:57:55Z</time>
      </trkpt>
      <trkpt lat="42.28474" lon="2.57494">
        <ele>561</ele>
        <time>2010-01-01T00:58:08Z</time>
      </trkpt>
      <trkpt lat="42.28479" lon="2.57483">
        <ele>566</ele>
        <time>2010-01-01T00:58:17Z</time>
      </trkpt>
      <trkpt lat="42.28485" lon="2.57449">
        <ele>574</ele>
        <time>2010-01-01T00:58:43Z</time>
      </trkpt>
      <trkpt lat="42.28485" lon="2.57462">
        <ele>573</ele>
        <time>2010-01-01T00:58:53Z</time>
      </trkpt>
      <trkpt lat="42.28491" lon="2.57454">
        <ele>577</ele>
        <time>2010-01-01T00:59:01Z</time>
      </trkpt>
      <trkpt lat="42.28509" lon="2.57428">
        <ele>592</ele>
        <time>2010-01-01T00:59:28Z</time>
      </trkpt>
      <trkpt lat="42.28521" lon="2.57428">
        <ele>599</ele>
        <time>2010-01-01T00:59:39Z</time>
      </trkpt>
      <trkpt lat="42.28514" lon="2.57469">
        <ele>588</ele>
        <time>2010-01-01T01:00:11Z</time>
      </trkpt>
      <trkpt lat="42.28527" lon="2.57484">
        <ele>590</ele>
        <time>2010-01-01T01:00:27Z</time>
      </trkpt>
      <trkpt lat="42.28535" lon="2.57492">
        <ele>591</ele>
        <time>2010-01-01T01:00:38Z</time>
      </trkpt>
      <trkpt lat="42.28542" lon="2.57492">
        <ele>593</ele>
        <time>2010-01-01T01:00:45Z</time>
      </trkpt>
      <trkpt lat="42.28565" lon="2.57498">
        <ele>601</ele>
        <time>2010-01-01T01:01:08Z</time>
      </trkpt>
      <trkpt lat="42.28561" lon="2.57477">
        <ele>604</ele>
        <time>2010-01-01T01:01:25Z</time>
      </trkpt>
      <trkpt lat="42.28575" lon="2.57477">
        <ele>614</ele>
        <time>2010-01-01T01:01:39Z</time>
      </trkpt>
      <trkpt lat="42.28587" lon="2.57493">
        <ele>616</ele>
        <time>2010-01-01T01:01:56Z</time>
      </trkpt>
      <trkpt lat="42.28583" lon="2.57496">
        <ele>612</ele>
        <time>2010-01-01T01:02:00Z</time>
      </trkpt>
      <trkpt lat="42.2859" lon="2.57501">
        <ele>615</ele>
        <time>2010-01-01T01:02:08Z</time>
      </trkpt>
      <trkpt lat="42.28585" lon="2.57472">
        <ele>625</ele>
        <time>2010-01-01T01:02:30Z</time>
      </trkpt>
      <trkpt lat="42.28587" lon="2.57454">
        <ele>631</ele>
        <time>2010-01-01T01:02:43Z</time>
      </trkpt>
      <trkpt lat="42.28588" lon="2.57448">
        <ele>633</ele>
        <time>2010-01-01T01:02:48Z</time>
      </trkpt>
      <trkpt lat="42.28574" lon="2.57425">
        <ele>630</ele>
        <time>2010-01-01T01:03:10Z</time>
      </trkpt>
      <trkpt lat="42.28567" lon="2.57417">
        <ele>627</ele>
        <time>2010-01-01T01:03:20Z</time>
      </trkpt>
      <trkpt lat="42.28564" lon="2.57404">
        <ele>627</ele>
        <time>2010-01-01T01:03:30Z</time>
      </trkpt>
      <trkpt lat="42.28571" lon="2.57377">
        <ele>626</ele>
        <time>2010-01-01T01:03:51Z</time>
      </trkpt>
      <trkpt lat="42.28581" lon="2.57352">
        <ele>618</ele>
        <time>2010-01-01T01:04:11Z</time>
      </trkpt>
      <trkpt lat="42.28599" lon="2.57328">
        <ele>621</ele>
        <time>2010-01-01T01:04:37Z</time>
      </trkpt>
      <trkpt lat="42.28608" lon="2.57308">
        <ele>621</ele>
        <time>2010-01-01T01:04:54Z</time>
      </trkpt>
      <trkpt lat="42.286" lon="2.57277">
        <ele>608</ele>
        <time>2010-01-01T01:05:19Z</time>
      </trkpt>
      <trkpt lat="42.28605" lon="2.5727">
        <ele>610</ele>
        <time>2010-01-01T01:05:25Z</time>
      </trkpt>
      <trkpt lat="42.28611" lon="2.57256">
        <ele>610</ele>
        <time>2010-01-01T01:05:38Z</time>
      </trkpt>
      <trkpt lat="42.28617" lon="2.57262">
        <ele>616</ele>
        <time>2010-01-01T01:05:45Z</time>
      </trkpt>
      <trkpt lat="42.28625" lon="2.57278">
        <ele>625</ele>
        <time>2010-01-01T01:06:00Z</time>
      </trkpt>
      <trkpt lat="42.28635" lon="2.57298">
        <ele>638</ele>
        <time>2010-01-01T01:06:17Z</time>
      </trkpt>
      <trkpt lat="42.28633" lon="2.57316">
        <ele>642</ele>
        <time>2010-01-01T01:06:31Z</time>
      </trkpt>
      <trkpt lat="42.28624" lon="2.57333">
        <ele>643</ele>
        <time>2010-01-01T01:06:46Z</time>
      </trkpt>
      <trkpt lat="42.28623" lon="2.57353">
        <ele>649</ele>
        <time>2010-01-01T01:07:01Z</time>
      </trkpt>
      <trkpt lat="42.28628" lon="2.5737">
        <ele>657</ele>
        <time>2010-01-01T01:07:15Z</time>
      </trkpt>
      <trkpt lat="42.28642" lon="2.57392">
        <ele>665</ele>
        <time>2010-01-01T01:07:36Z</time>
      </trkpt>
      <trkpt lat="42.28656" lon="2.57406">
        <ele>669</ele>
        <time>2010-01-01T01:07:53Z</time>
      </trkpt>
      <trkpt lat="42.28662" lon="2.57426">
        <ele>668</ele>
        <time>2010-01-01T01:08:09Z</time>
      </trkpt>
      <trkpt lat="42.28684" lon="2.57452">
        <ele>674</ele>
        <time>2010-01-01T01:08:38Z</time>
      </trkpt>
      <trkpt lat="42.28696" lon="2.57471">
        <ele>678</ele>
        <time>2010-01-01T01:08:56Z</time>
      </trkpt>
      <trkpt lat="42.28713" lon="2.57465">
        <ele>688</ele>
        <time>2010-01-01T01:09:14Z</time>
      </trkpt>
      <trkpt lat="42.28723" lon="2.5748">
        <ele>692</ele>
        <time>2010-01-01T01:09:29Z</time>
      </trkpt>
      <trkpt lat="42.28734" lon="2.57513">
        <ele>694</ele>
        <time>2010-01-01T01:09:55Z</time>
      </trkpt>
      <trkpt lat="42.28744" lon="2.57533">
        <ele>699</ele>
        <time>2010-01-01T01:10:13Z</time>
      </trkpt>
      <trkpt lat="42.28749" lon="2.57564">
        <ele>702</ele>
        <time>2010-01-01T01:10:37Z</time>
      </trkpt>
      <trkpt lat="42.28752" lon="2.57593">
        <ele>703</ele>
        <time>2010-01-01T01:10:58Z</time>
      </trkpt>
      <trkpt lat="42.28753" lon="2.57616">
        <ele>706</ele>
        <time>2010-01-01T01:11:15Z</time>
      </trkpt>
      <trkpt lat="42.28766" lon="2.57628">
        <ele>711</ele>
        <time>2010-01-01T01:11:31Z</time>
      </trkpt>
      <trkpt lat="42.28777" lon="2.57653">
        <ele>716</ele>
        <time>2010-01-01T01:11:53Z</time>
      </trkpt>
      <trkpt lat="42.28792" lon="2.57667">
        <ele>722</ele>
        <time>2010-01-01T01:12:11Z</time>
      </trkpt>
      <trkpt lat="42.288" lon="2.57683">
        <ele>725</ele>
        <time>2010-01-01T01:12:25Z</time>
      </trkpt>
      <trkpt lat="42.28812" lon="2.57711">
        <ele>731</ele>
        <time>2010-01-01T01:12:49Z</time>
      </trkpt>
      <trkpt lat="42.28826" lon="2.57728">
        <ele>736</ele>
        <time>2010-01-01T01:13:08Z</time>
      </trkpt>
      <trkpt lat="42.28834" lon="2.57745">
        <ele>740</ele>
        <time>2010-01-01T01:13:23Z</time>
      </trkpt>
      <trkpt lat="42.28834" lon="2.57773">
        <ele>743</ele>
        <time>2010-01-01T01:13:44Z</time>
      </trkpt>
      <trkpt lat="42.28835" lon="2.57791">
        <ele>746</ele>
        <time>2010-01-01T01:13:57Z</time>
      </trkpt>
      <trkpt lat="42.28843" lon="2.57808">
        <ele>752</ele>
        <time>2010-01-01T01:14:12Z</time>
      </trkpt>
      <trkpt lat="42.28858" lon="2.57819">
        <ele>759</ele>
        <time>2010-01-01T01:14:29Z</time>
      </trkpt>
      <trkpt lat="42.28859" lon="2.57851">
        <ele>765</ele>
        <time>2010-01-01T01:14:53Z</time>
      </trkpt>
      <trkpt lat="42.28855" lon="2.57862">
        <ele>766</ele>
        <time>2010-01-01T01:15:02Z</time>
      </trkpt>
      <trkpt lat="42.2885" lon="2.57885">
        <ele>768</ele>
        <time>2010-01-01T01:15:20Z</time>
      </trkpt>
      <trkpt lat="42.28849" lon="2.5791">
        <ele>770</ele>
        <time>2010-01-01T01:15:38Z</time>
      </trkpt>
      <trkpt lat="42.28853" lon="2.57932">
        <ele>772</ele>
        <time>2010-01-01T01:15:55Z</time>
      </trkpt>
      <trkpt lat="42.28863" lon="2.57966">
        <ele>775</ele>
        <time>2010-01-01T01:16:22Z</time>
      </trkpt>
      <trkpt lat="42.28865" lon="2.58001">
        <ele>776</ele>
        <time>2010-01-01T01:16:48Z</time>
      </trkpt>
      <trkpt lat="42.28865" lon="2.58027">
        <ele>775</ele>
        <time>2010-01-01T01:17:07Z</time>
      </trkpt>
      <trkpt lat="42.28879" lon="2.58052">
        <ele>774</ele>
        <time>2010-01-01T01:17:30Z</time>
      </trkpt>
      <trkpt lat="42.28911" lon="2.58072">
        <ele>771</ele>
        <time>2010-01-01T01:18:06Z</time>
      </trkpt>
      <trkpt lat="42.28935" lon="2.58056">
        <ele>766</ele>
        <time>2010-01-01T01:18:32Z</time>
      </trkpt>
      <trkpt lat="42.28946" lon="2.58036">
        <ele>764</ele>
        <time>2010-01-01T01:18:50Z</time>
      </trkpt>
      <trkpt lat="42.28952" lon="2.58005">
        <ele>771</ele>
        <time>2010-01-01T01:19:14Z</time>
      </trkpt>
      <trkpt lat="42.28964" lon="2.57973">
        <ele>778</ele>
        <time>2010-01-01T01:19:41Z</time>
      </trkpt>
      <trkpt lat="42.28975" lon="2.57964">
        <ele>776</ele>
        <time>2010-01-01T01:19:54Z</time>
      </trkpt>
      <trkpt lat="42.29002" lon="2.57946">
        <ele>768</ele>
        <time>2010-01-01T01:20:23Z</time>
      </trkpt>
      <trkpt lat="42.29015" lon="2.57933">
        <ele>766</ele>
        <time>2010-01-01T01:20:40Z</time>
      </trkpt>
      <trkpt lat="42.2904" lon="2.57902">
        <ele>766</ele>
        <time>2010-01-01T01:21:14Z</time>
      </trkpt>
      <trkpt lat="42.29057" lon="2.57885">
        <ele>760</ele>
        <time>2010-01-01T01:21:35Z</time>
      </trkpt>
      <trkpt lat="42.2907" lon="2.57868">
        <ele>758</ele>
        <time>2010-01-01T01:21:53Z</time>
      </trkpt>
      <trkpt lat="42.2908" lon="2.5785">
        <ele>756</ele>
        <time>2010-01-01T01:22:09Z</time>
      </trkpt>
      <trkpt lat="42.29089" lon="2.57811">
        <ele>758</ele>
        <time>2010-01-01T01:22:40Z</time>
      </trkpt>
      <trkpt lat="42.29113" lon="2.57797">
        <ele>752</ele>
        <time>2010-01-01T01:23:06Z</time>
      </trkpt>
      <trkpt lat="42.29116" lon="2.57793">
        <ele>752</ele>
        <time>2010-01-01T01:23:10Z</time>
      </trkpt>
      <trkpt lat="42.29123" lon="2.57793">
        <ele>752</ele>
        <time>2010-01-01T01:23:17Z</time>
      </trkpt>
      <trkpt lat="42.29132" lon="2.57786">
        <ele>751</ele>
        <time>2010-01-01T01:23:28Z</time>
      </trkpt>
      <trkpt lat="42.29134" lon="2.57775">
        <ele>751</ele>
        <time>2010-01-01T01:23:36Z</time>
      </trkpt>
      <trkpt lat="42.29135" lon="2.57779">
        <ele>752</ele>
        <time>2010-01-01T01:23:39Z</time>
      </trkpt>
      <trkpt lat="42.29145" lon="2.57788">
        <ele>752</ele>
        <time>2010-01-01T01:23:51Z</time>
      </trkpt>
      <trkpt lat="42.29163" lon="2.57766">
        <ele>755</ele>
        <time>2010-01-01T01:24:15Z</time>
      </trkpt>
      <trkpt lat="42.2918" lon="2.57753">
        <ele>761</ele>
        <time>2010-01-01T01:24:35Z</time>
      </trkpt>
      <trkpt lat="42.29193" lon="2.57751">
        <ele>768</ele>
        <time>2010-01-01T01:24:48Z</time>
      </trkpt>
      <trkpt lat="42.29193" lon="2.5775">
        <ele>768</ele>
        <time>2010-01-01T01:24:49Z</time>
      </trkpt>
      <trkpt lat="42.29208" lon="2.57742">
        <ele>776</ele>
        <time>2010-01-01T01:25:05Z</time>
      </trkpt>
      <trkpt lat="42.29212" lon="2.57714">
        <ele>778</ele>
        <time>2010-01-01T01:25:26Z</time>
      </trkpt>
      <trkpt lat="42.29213" lon="2.5769">
        <ele>778</ele>
        <time>2010-01-01T01:25:44Z</time>
      </trkpt>
      <trkpt lat="42.29216" lon="2.57669">
        <ele>778</ele>
        <time>2010-01-01T01:26:00Z</time>
      </trkpt>
      <trkpt lat="42.29214" lon="2.57637">
        <ele>773</ele>
        <time>2010-01-01T01:26:23Z</time>
      </trkpt>
      <trkpt lat="42.29221" lon="2.57606">
        <ele>777</ele>
        <time>2010-01-01T01:26:47Z</time>
      </trkpt>
      <trkpt lat="42.2923" lon="2.57613">
        <ele>785</ele>
        <time>2010-01-01T01:26:58Z</time>
      </trkpt>
      <trkpt lat="42.29232" lon="2.57627">
        <ele>787</ele>
        <time>2010-01-01T01:27:08Z</time>
      </trkpt>
      <trkpt lat="42.29245" lon="2.57647">
        <ele>798</ele>
        <time>2010-01-01T01:27:28Z</time>
      </trkpt>
      <trkpt lat="42.29257" lon="2.57644">
        <ele>807</ele>
        <time>2010-01-01T01:27:40Z</time>
      </trkpt>
      <trkpt lat="42.29265" lon="2.57662">
        <ele>813</ele>
        <time>2010-01-01T01:27:56Z</time>
      </trkpt>
      <trkpt lat="42.29268" lon="2.57687">
        <ele>815</ele>
        <time>2010-01-01T01:28:14Z</time>
      </trkpt>
      <trkpt lat="42.29277" lon="2.57715">
        <ele>821</ele>
        <time>2010-01-01T01:28:37Z</time>
      </trkpt>
      <trkpt lat="42.29275" lon="2.57743">
        <ele>818</ele>
        <time>2010-01-01T01:28:58Z</time>
      </trkpt>
      <trkpt lat="42.29282" lon="2.57765">
        <ele>821</ele>
        <time>2010-01-01T01:29:15Z</time>
      </trkpt>
      <trkpt lat="42.29286" lon="2.5775">
        <ele>826</ele>
        <time>2010-01-01T01:29:26Z</time>
      </trkpt>
      <trkpt lat="42.29303" lon="2.57767">
        <ele>834</ele>
        <time>2010-01-01T01:29:47Z</time>
      </trkpt>
      <trkpt lat="42.29309" lon="2.5779">
        <ele>833</ele>
        <time>2010-01-01T01:30:05Z</time>
      </trkpt>
      <trkpt lat="42.29324" lon="2.57801">
        <ele>840</ele>
        <time>2010-01-01T01:30:22Z</time>
      </trkpt>
      <trkpt lat="42.29338" lon="2.57807">
        <ele>846</ele>
        <time>2010-01-01T01:30:36Z</time>
      </trkpt>
      <trkpt lat="42.29349" lon="2.57816">
        <ele>851</ele>
        <time>2010-01-01T01:30:50Z</time>
      </trkpt>
      <trkpt lat="42.29371" lon="2.57821">
        <ele>861</ele>
        <time>2010-01-01T01:31:12Z</time>
      </trkpt>
      <trkpt lat="42.29374" lon="2.57834">
        <ele>860</ele>
        <time>2010-01-01T01:31:22Z</time>
      </trkpt>
      <trkpt lat="42.2937" lon="2.57835">
        <ele>858</ele>
        <time>2010-01-01T01:31:25Z</time>
      </trkpt>
      <trkpt lat="42.29381" lon="2.57828">
        <ele>864</ele>
        <time>2010-01-01T01:31:37Z</time>
      </trkpt>
      <trkpt lat="42.29399" lon="2.57844">
        <ele>866</ele>
        <time>2010-01-01T01:31:58Z</time>
      </trkpt>
      <trkpt lat="42.29409" lon="2.57831">
        <ele>870</ele>
        <time>2010-01-01T01:32:12Z</time>
      </trkpt>
      <trkpt lat="42.29424" lon="2.57829">
        <ele>871</ele>
        <time>2010-01-01T01:32:27Z</time>
      </trkpt>
      <trkpt lat="42.29428" lon="2.57808">
        <ele>874</ele>
        <time>2010-01-01T01:32:44Z</time>
      </trkpt>
      <trkpt lat="42.29414" lon="2.57782">
        <ele>878</ele>
        <time>2010-01-01T01:33:07Z</time>
      </trkpt>
      <trkpt lat="42.29423" lon="2.57767">
        <ele>882</ele>
        <time>2010-01-01T01:33:21Z</time>
      </trkpt>
      <trkpt lat="42.2943" lon="2.57753">
        <ele>885</ele>
        <time>2010-01-01T01:33:34Z</time>
      </trkpt>
      <trkpt lat="42.29434" lon="2.57736">
        <ele>888</ele>
        <time>2010-01-01T01:33:47Z</time>
      </trkpt>
      <trkpt lat="42.29431" lon="2.57704">
        <ele>893</ele>
        <time>2010-01-01T01:34:11Z</time>
      </trkpt>
      <trkpt lat="42.29432" lon="2.57666">
        <ele>900</ele>
        <time>2010-01-01T01:34:39Z</time>
      </trkpt>
      <trkpt lat="42.29441" lon="2.57659">
        <ele>902</ele>
        <time>2010-01-01T01:34:50Z</time>
      </trkpt>
      <trkpt lat="42.29436" lon="2.57641">
        <ele>904</ele>
        <time>2010-01-01T01:35:05Z</time>
      </trkpt>
      <trkpt lat="42.29439" lon="2.57622">
        <ele>908</ele>
        <time>2010-01-01T01:35:18Z</time>
      </trkpt>
      <trkpt lat="42.29448" lon="2.576">
        <ele>913</ele>
        <time>2010-01-01T01:35:37Z</time>
      </trkpt>
      <trkpt lat="42.29466" lon="2.57579">
        <ele>919</ele>
        <time>2010-01-01T01:36:01Z</time>
      </trkpt>
      <trkpt lat="42.29471" lon="2.57561">
        <ele>923</ele>
        <time>2010-01-01T01:36:15Z</time>
      </trkpt>
      <trkpt lat="42.29484" lon="2.57556">
        <ele>924</ele>
        <time>2010-01-01T01:36:28Z</time>
      </trkpt>
      <trkpt lat="42.29493" lon="2.57535">
        <ele>930</ele>
        <time>2010-01-01T01:36:47Z</time>
      </trkpt>
      <trkpt lat="42.29514" lon="2.57507">
        <ele>935</ele>
        <time>2010-01-01T01:37:16Z</time>
      </trkpt>
      <trkpt lat="42.2952" lon="2.57489">
        <ele>939</ele>
        <time>2010-01-01T01:37:31Z</time>
      </trkpt>
      <trkpt lat="42.29522" lon="2.57475">
        <ele>942</ele>
        <time>2010-01-01T01:37:41Z</time>
      </trkpt>
      <trkpt lat="42.29528" lon="2.57459">
        <ele>944</ele>
        <time>2010-01-01T01:37:54Z</time>
      </trkpt>
      <trkpt lat="42.29519" lon="2.57452">
        <ele>948</ele>
        <time>2010-01-01T01:38:04Z</time>
      </trkpt>
      <trkpt lat="42.2951" lon="2.57447">
        <ele>951</ele>
        <time>2010-01-01T01:38:15Z</time>
      </trkpt>
      <trkpt lat="42.29503" lon="2.57435">
        <ele>955</ele>
        <time>2010-01-01T01:38:25Z</time>
      </trkpt>
      <trkpt lat="42.29503" lon="2.57425">
        <ele>957</ele>
        <time>2010-01-01T01:38:33Z</time>
      </trkpt>
      <trkpt lat="42.29505" lon="2.57416">
        <ele>958</ele>
        <time>2010-01-01T01:38:40Z</time>
      </trkpt>
      <trkpt lat="42.29502" lon="2.57419">
        <ele>959</ele>
        <time>2010-01-01T01:38:43Z</time>
      </trkpt>
      <trkpt lat="42.29507" lon="2.57413">
        <ele>958</ele>
        <time>2010-01-01T01:38:49Z</time>
      </trkpt>
      <trkpt lat="42.29502" lon="2.57398">
        <ele>962</ele>
        <time>2010-01-01T01:39:01Z</time>
      </trkpt>
      <trkpt lat="42.29493" lon="2.57376">
        <ele>964</ele>
        <time>2010-01-01T01:39:20Z</time>
      </trkpt>
      <trkpt lat="42.29486" lon="2.57362">
        <ele>965</ele>
        <time>2010-01-01T01:39:32Z</time>
      </trkpt>
      <trkpt lat="42.29489" lon="2.5735">
        <ele>966</ele>
        <time>2010-01-01T01:39:41Z</time>
      </trkpt>
      <trkpt lat="42.29495" lon="2.57336">
        <ele>966</ele>
        <time>2010-01-01T01:39:54Z</time>
      </trkpt>
      <trkpt lat="42.29494" lon="2.57312">
        <ele>970</ele>
        <time>2010-01-01T01:40:12Z</time>
      </trkpt>
      <trkpt lat="42.29501" lon="2.57296">
        <ele>967</ele>
        <time>2010-01-01T01:40:24Z</time>
      </trkpt>
      <trkpt lat="42.29498" lon="2.57277">
        <ele>960</ele>
        <time>2010-01-01T01:40:39Z</time>
      </trkpt>
      <trkpt lat="42.2949" lon="2.57256">
        <ele>951</ele>
        <time>2010-01-01T01:40:56Z</time>
      </trkpt>
      <trkpt lat="42.2949" lon="2.57255">
        <ele>950</ele>
        <time>2010-01-01T01:40:57Z</time>
      </trkpt>
      <trkpt lat="42.29488" lon="2.57256">
        <ele>952</ele>
        <time>2010-01-01T01:40:59Z</time>
      </trkpt>
      <trkpt lat="42.29497" lon="2.57261">
        <ele>948</ele>
        <time>2010-01-01T01:41:08Z</time>
      </trkpt>
      <trkpt lat="42.29495" lon="2.57263">
        <ele>951</ele>
        <time>2010-01-01T01:41:11Z</time>
      </trkpt>
      <trkpt lat="42.29493" lon="2.57261">
        <ele>951</ele>
        <time>2010-01-01T01:41:13Z</time>
      </trkpt>
      <trkpt lat="42.29492" lon="2.57261">
        <ele>952</ele>
        <time>2010-01-01T01:41:14Z</time>
      </trkpt>
      <trkpt lat="42.29494" lon="2.57262">
        <ele>951</ele>
        <time>2010-01-01T01:41:16Z</time>
      </trkpt>
      <trkpt lat="42.29487" lon="2.57265">
        <ele>957</ele>
        <time>2010-01-01T01:41:24Z</time>
      </trkpt>
      <trkpt lat="42.29494" lon="2.57262">
        <ele>951</ele>
        <time>2010-01-01T01:41:31Z</time>
      </trkpt>
      <trkpt lat="42.29495" lon="2.5727">
        <ele>956</ele>
        <time>2010-01-01T01:41:37Z</time>
      </trkpt>
      <trkpt lat="42.29502" lon="2.5728">
        <ele>959</ele>
        <time>2010-01-01T01:41:47Z</time>
      </trkpt>
      <trkpt lat="42.29507" lon="2.57296">
        <ele>961</ele>
        <time>2010-01-01T01:42:00Z</time>
      </trkpt>
      <trkpt lat="42.29511" lon="2.57313">
        <ele>962</ele>
        <time>2010-01-01T01:42:13Z</time>
      </trkpt>
      <trkpt lat="42.29516" lon="2.57323">
        <ele>959</ele>
        <time>2010-01-01T01:42:22Z</time>
      </trkpt>
      <trkpt lat="42.29528" lon="2.57338">
        <ele>954</ele>
        <time>2010-01-01T01:42:39Z</time>
      </trkpt>
      <trkpt lat="42.29537" lon="2.57354">
        <ele>949</ele>
        <time>2010-01-01T01:42:53Z</time>
      </trkpt>
      <trkpt lat="42.29543" lon="2.57354">
        <ele>943</ele>
        <time>2010-01-01T01:42:59Z</time>
      </trkpt>
      <trkpt lat="42.29549" lon="2.57345">
        <ele>933</ele>
        <time>2010-01-01T01:43:08Z</time>
      </trkpt>
      <trkpt lat="42.29558" lon="2.57347">
        <ele>923</ele>
        <time>2010-01-01T01:43:18Z</time>
      </trkpt>
      <trkpt lat="42.2956" lon="2.57349">
        <ele>924</ele>
        <time>2010-01-01T01:43:20Z</time>
      </trkpt>
      <trkpt lat="42.29575" lon="2.57348">
        <ele>909</ele>
        <time>2010-01-01T01:43:35Z</time>
      </trkpt>
      <trkpt lat="42.29632" lon="2.57423">
        <ele>883</ele>
        <time>2010-01-01T01:44:55Z</time>
      </trkpt>
      <trkpt lat="42.29628" lon="2.57401">
        <ele>885</ele>
        <time>2010-01-01T01:45:12Z</time>
      </trkpt>
      <trkpt lat="42.29624" lon="2.574">
        <ele>887</ele>
        <time>2010-01-01T01:45:16Z</time>
      </trkpt>
      <trkpt lat="42.29623" lon="2.57386">
        <ele>885</ele>
        <time>2010-01-01T01:45:26Z</time>
      </trkpt>
      <trkpt lat="42.29619" lon="2.57391">
        <ele>889</ele>
        <time>2010-01-01T01:45:32Z</time>
      </trkpt>
      <trkpt lat="42.29624" lon="2.5741">
        <ele>888</ele>
        <time>2010-01-01T01:45:47Z</time>
      </trkpt>
      <trkpt lat="42.29633" lon="2.57414">
        <ele>883</ele>
        <time>2010-01-01T01:45:56Z</time>
      </trkpt>
      <trkpt lat="42.29644" lon="2.57413">
        <ele>877</ele>
        <time>2010-01-01T01:46:07Z</time>
      </trkpt>
      <trkpt lat="42.29663" lon="2.57424">
        <ele>868</ele>
        <time>2010-01-01T01:46:28Z</time>
      </trkpt>
      <trkpt lat="42.29667" lon="2.57428">
        <ele>866</ele>
        <time>2010-01-01T01:46:33Z</time>
      </trkpt>
      <trkpt lat="42.29682" lon="2.57409">
        <ele>860</ele>
        <time>2010-01-01T01:46:54Z</time>
      </trkpt>
      <trkpt lat="42.29693" lon="2.57381">
        <ele>853</ele>
        <time>2010-01-01T01:47:17Z</time>
      </trkpt>
      <trkpt lat="42.30023" lon="2.57258">
        <ele>756</ele>
        <time>2010-01-01T01:52:59Z</time>
      </trkpt>
      <trkpt lat="42.29987" lon="2.5726">
        <ele>755</ele>
        <time>2010-01-01T01:53:35Z</time>
      </trkpt>
      <trkpt lat="42.29963" lon="2.57245">
        <ele>759</ele>
        <time>2010-01-01T01:54:02Z</time>
      </trkpt>
      <trkpt lat="42.29947" lon="2.57237">
        <ele>761</ele>
        <time>2010-01-01T01:54:18Z</time>
      </trkpt>
      <trkpt lat="42.29951" lon="2.57231">
        <ele>759</ele>
        <time>2010-01-01T01:54:24Z</time>
      </trkpt>
      <trkpt lat="42.29953" lon="2.57236">
        <ele>760</ele>
        <time>2010-01-01T01:54:29Z</time>
      </trkpt>
      <trkpt lat="42.2998" lon="2.57236">
        <ele>757</ele>
        <time>2010-01-01T01:54:55Z</time>
      </trkpt>
      <trkpt lat="42.29993" lon="2.57223">
        <ele>756</ele>
        <time>2010-01-01T01:55:11Z</time>
      </trkpt>
      <trkpt lat="42.29987" lon="2.57216">
        <ele>755</ele>
        <time>2010-01-01T01:55:19Z</time>
      </trkpt>
      <trkpt lat="42.29995" lon="2.5722">
        <ele>756</ele>
        <time>2010-01-01T01:55:28Z</time>
      </trkpt>
      <trkpt lat="42.29995" lon="2.57216">
        <ele>755</ele>
        <time>2010-01-01T01:55:31Z</time>
      </trkpt>
      <trkpt lat="42.30008" lon="2.57231">
        <ele>757</ele>
        <time>2010-01-01T01:55:48Z</time>
      </trkpt>
      <trkpt lat="42.30016" lon="2.57228">
        <ele>758</ele>
        <time>2010-01-01T01:55:56Z</time>
      </trkpt>
      <trkpt lat="42.3002" lon="2.57247">
        <ele>757</ele>
        <time>2010-01-01T01:56:10Z</time>
      </trkpt>
      <trkpt lat="42.30019" lon="2.57247">
        <ele>757</ele>
        <time>2010-01-01T01:56:12Z</time>
      </trkpt>
      <trkpt lat="42.3002" lon="2.57248">
        <ele>757</ele>
        <time>2010-01-01T01:56:14Z</time>
      </trkpt>
      <trkpt lat="42.30017" lon="2.57248">
        <ele>757</ele>
        <time>2010-01-01T01:56:17Z</time>
      </trkpt>
      <trkpt lat="42.30018" lon="2.57247">
        <ele>757</ele>
        <time>2010-01-01T01:56:18Z</time>
      </trkpt>
      <trkpt lat="42.30018" lon="2.57247">
        <ele>757</ele>
        <time>2010-01-01T01:56:19Z</time>
      </trkpt>
      <trkpt lat="42.30018" lon="2.57247">
        <ele>757</ele>
        <time>2010-01-01T01:56:19Z</time>
      </trkpt>
      <trkpt lat="42.30018" lon="2.57246">
        <ele>757</ele>
        <time>2010-01-01T01:56:20Z</time>
      </trkpt>
      <trkpt lat="42.3002" lon="2.57246">
        <ele>757</ele>
        <time>2010-01-01T01:56:23Z</time>
      </trkpt>
      <trkpt lat="42.30017" lon="2.57247">
        <ele>757</ele>
        <time>2010-01-01T01:56:26Z</time>
      </trkpt>
      <trkpt lat="42.30019" lon="2.57245">
        <ele>757</ele>
        <time>2010-01-01T01:56:29Z</time>
      </trkpt>
      <trkpt lat="42.30019" lon="2.57248">
        <ele>757</ele>
        <time>2010-01-01T01:56:31Z</time>
      </trkpt>
      <trkpt lat="42.3002" lon="2.57248">
        <ele>757</ele>
        <time>2010-01-01T01:56:32Z</time>
      </trkpt>
      <trkpt lat="42.30018" lon="2.5725">
        <ele>757</ele>
        <time>2010-01-01T01:56:34Z</time>
      </trkpt>
      <trkpt lat="42.30019" lon="2.57249">
        <ele>757</ele>
        <time>2010-01-01T01:56:35Z</time>
      </trkpt>
      <trkpt lat="42.3002" lon="2.57248">
        <ele>757</ele>
        <time>2010-01-01T01:56:36Z</time>
      </trkpt>
      <trkpt lat="42.30021" lon="2.57248">
        <ele>757</ele>
        <time>2010-01-01T01:56:37Z</time>
      </trkpt>
      <trkpt lat="42.30018" lon="2.57246">
        <ele>757</ele>
        <time>2010-01-01T01:56:40Z</time>
      </trkpt>
      <trkpt lat="42.3002" lon="2.57244">
        <ele>757</ele>
        <time>2010-01-01T01:56:41Z</time>
      </trkpt>
      <trkpt lat="42.30016" lon="2.57243">
        <ele>757</ele>
        <time>2010-01-01T01:56:45Z</time>
      </trkpt>
      <trkpt lat="42.30028" lon="2.57238">
        <ele>758</ele>
        <time>2010-01-01T01:56:58Z</time>
      </trkpt>
      <trkpt lat="42.30043" lon="2.57235">
        <ele>760</ele>
        <time>2010-01-01T01:57:13Z</time>
      </trkpt>
      <trkpt lat="42.30074" lon="2.57235">
        <ele>764</ele>
        <time>2010-01-01T01:57:43Z</time>
      </trkpt>
      <trkpt lat="42.301" lon="2.57235">
        <ele>768</ele>
        <time>2010-01-01T01:58:10Z</time>
      </trkpt>
      <trkpt lat="42.30125" lon="2.57215">
        <ele>773</ele>
        <time>2010-01-01T01:58:39Z</time>
      </trkpt>
      <trkpt lat="42.30134" lon="2.57193">
        <ele>779</ele>
        <time>2010-01-01T01:58:58Z</time>
      </trkpt>
      <trkpt lat="42.30142" lon="2.57182">
        <ele>783</ele>
        <time>2010-01-01T01:59:09Z</time>
      </trkpt>
      <trkpt lat="42.30139" lon="2.57157">
        <ele>785</ele>
        <time>2010-01-01T01:59:28Z</time>
      </trkpt>
      <trkpt lat="42.30132" lon="2.57125">
        <ele>784</ele>
        <time>2010-01-01T01:59:53Z</time>
      </trkpt>
      <trkpt lat="42.30123" lon="2.57104">
        <ele>782</ele>
        <time>2010-01-01T02:00:11Z</time>
      </trkpt>
      <trkpt lat="42.30123" lon="2.57102">
        <ele>781</ele>
        <time>2010-01-01T02:00:12Z</time>
      </trkpt>
      <trkpt lat="42.3012" lon="2.57087">
        <ele>782</ele>
        <time>2010-01-01T02:00:23Z</time>
      </trkpt>
      <trkpt lat="42.30112" lon="2.57086">
        <ele>777</ele>
        <time>2010-01-01T02:00:31Z</time>
      </trkpt>
      <trkpt lat="42.30119" lon="2.57082">
        <ele>781</ele>
        <time>2010-01-01T02:00:39Z</time>
      </trkpt>
      <trkpt lat="42.30127" lon="2.57084">
        <ele>785</ele>
        <time>2010-01-01T02:00:47Z</time>
      </trkpt>
      <trkpt lat="42.30126" lon="2.57083">
        <ele>785</ele>
        <time>2010-01-01T02:00:48Z</time>
      </trkpt>
      <trkpt lat="42.30124" lon="2.57078">
        <ele>785</ele>
        <time>2010-01-01T02:00:52Z</time>
      </trkpt>
      <trkpt lat="42.30127" lon="2.57066">
        <ele>787</ele>
        <time>2010-01-01T02:01:02Z</time>
      </trkpt>
      <trkpt lat="42.30127" lon="2.57058">
        <ele>788</ele>
        <time>2010-01-01T02:01:08Z</time>
      </trkpt>
      <trkpt lat="42.30128" lon="2.57043">
        <ele>791</ele>
        <time>2010-01-01T02:01:19Z</time>
      </trkpt>
      <trkpt lat="42.30129" lon="2.57028">
        <ele>793</ele>
        <time>2010-01-01T02:01:30Z</time>
      </trkpt>
      <trkpt lat="42.30132" lon="2.57014">
        <ele>795</ele>
        <time>2010-01-01T02:01:41Z</time>
      </trkpt>
      <trkpt lat="42.30134" lon="2.56997">
        <ele>797</ele>
        <time>2010-01-01T02:01:53Z</time>
      </trkpt>
      <trkpt lat="42.30139" lon="2.56988">
        <ele>799</ele>
        <time>2010-01-01T02:02:02Z</time>
      </trkpt>
      <trkpt lat="42.30143" lon="2.56983">
        <ele>801</ele>
        <time>2010-01-01T02:02:07Z</time>
      </trkpt>
      <trkpt lat="42.30145" lon="2.56977">
        <ele>802</ele>
        <time>2010-01-01T02:02:12Z</time>
      </trkpt>
      <trkpt lat="42.30149" lon="2.56964">
        <ele>805</ele>
        <time>2010-01-01T02:02:23Z</time>
      </trkpt>
      <trkpt lat="42.30157" lon="2.56946">
        <ele>809</ele>
        <time>2010-01-01T02:02:38Z</time>
      </trkpt>
      <trkpt lat="42.30164" lon="2.56933">
        <ele>815</ele>
        <time>2010-01-01T02:02:50Z</time>
      </trkpt>
      <trkpt lat="42.30166" lon="2.56927">
        <ele>816</ele>
        <time>2010-01-01T02:02:55Z</time>
      </trkpt>
      <trkpt lat="42.30172" lon="2.5691">
        <ele>820</ele>
        <time>2010-01-01T02:03:09Z</time>
      </trkpt>
      <trkpt lat="42.30174" lon="2.56896">
        <ele>822</ele>
        <time>2010-01-01T02:03:20Z</time>
      </trkpt>
      <trkpt lat="42.30175" lon="2.56884">
        <ele>823</ele>
        <time>2010-01-01T02:03:28Z</time>
      </trkpt>
      <trkpt lat="42.3018" lon="2.56873">
        <ele>825</ele>
        <time>2010-01-01T02:03:38Z</time>
      </trkpt>
      <trkpt lat="42.30179" lon="2.56864">
        <ele>825</ele>
        <time>2010-01-01T02:03:45Z</time>
      </trkpt>
      <trkpt lat="42.30182" lon="2.5686">
        <ele>826</ele>
        <time>2010-01-01T02:03:50Z</time>
      </trkpt>
      <trkpt lat="42.30184" lon="2.56861">
        <ele>827</ele>
        <time>2010-01-01T02:03:52Z</time>
      </trkpt>
      <trkpt lat="42.30191" lon="2.5686">
        <ele>828</ele>
        <time>2010-01-01T02:03:58Z</time>
      </trkpt>
      <trkpt lat="42.30186" lon="2.56843">
        <ele>830</ele>
        <time>2010-01-01T02:04:12Z</time>
      </trkpt>
      <trkpt lat="42.30186" lon="2.56841">
        <ele>830</ele>
        <time>2010-01-01T02:04:13Z</time>
      </trkpt>
      <trkpt lat="42.30186" lon="2.56831">
        <ele>832</ele>
        <time>2010-01-01T02:04:21Z</time>
      </trkpt>
      <trkpt lat="42.30188" lon="2.56827">
        <ele>832</ele>
        <time>2010-01-01T02:04:24Z</time>
      </trkpt>
      <trkpt lat="42.30196" lon="2.56808">
        <ele>834</ele>
        <time>2010-01-01T02:04:41Z</time>
      </trkpt>
      <trkpt lat="42.30199" lon="2.56801">
        <ele>835</ele>
        <time>2010-01-01T02:04:47Z</time>
      </trkpt>
      <trkpt lat="42.30209" lon="2.56784">
        <ele>836</ele>
        <time>2010-01-01T02:05:03Z</time>
      </trkpt>
      <trkpt lat="42.30213" lon="2.5678">
        <ele>837</ele>
        <time>2010-01-01T02:05:08Z</time>
      </trkpt>
      <trkpt lat="42.30214" lon="2.56774">
        <ele>838</ele>
        <time>2010-01-01T02:05:12Z</time>
      </trkpt>
      <trkpt lat="42.30216" lon="2.56744">
        <ele>841</ele>
        <time>2010-01-01T02:05:35Z</time>
      </trkpt>
      <trkpt lat="42.30224" lon="2.56724">
        <ele>845</ele>
        <time>2010-01-01T02:05:52Z</time>
      </trkpt>
      <trkpt lat="42.30225" lon="2.56716">
        <ele>846</ele>
        <time>2010-01-01T02:05:57Z</time>
      </trkpt>
      <trkpt lat="42.30235" lon="2.56703">
        <ele>849</ele>
        <time>2010-01-01T02:06:12Z</time>
      </trkpt>
      <trkpt lat="42.30236" lon="2.56702">
        <ele>849</ele>
        <time>2010-01-01T02:06:13Z</time>
      </trkpt>
      <trkpt lat="42.30242" lon="2.567">
        <ele>850</ele>
        <time>2010-01-01T02:06:19Z</time>
      </trkpt>
      <trkpt lat="42.30248" lon="2.5669">
        <ele>851</ele>
        <time>2010-01-01T02:06:28Z</time>
      </trkpt>
      <trkpt lat="42.30257" lon="2.56671">
        <ele>852</ele>
        <time>2010-01-01T02:06:45Z</time>
      </trkpt>
      <trkpt lat="42.30267" lon="2.56657">
        <ele>853</ele>
        <time>2010-01-01T02:07:00Z</time>
      </trkpt>
      <trkpt lat="42.30268" lon="2.56648">
        <ele>853</ele>
        <time>2010-01-01T02:07:06Z</time>
      </trkpt>
      <trkpt lat="42.30269" lon="2.56647">
        <ele>853</ele>
        <time>2010-01-01T02:07:07Z</time>
      </trkpt>
      <trkpt lat="42.30271" lon="2.56632">
        <ele>852</ele>
        <time>2010-01-01T02:07:18Z</time>
      </trkpt>
      <trkpt lat="42.3028" lon="2.56645">
        <ele>853</ele>
        <time>2010-01-01T02:07:32Z</time>
      </trkpt>
      <trkpt lat="42.3029" lon="2.56648">
        <ele>856</ele>
        <time>2010-01-01T02:07:42Z</time>
      </trkpt>
      <trkpt lat="42.30298" lon="2.56644">
        <ele>858</ele>
        <time>2010-01-01T02:07:49Z</time>
      </trkpt>
      <trkpt lat="42.30308" lon="2.56653">
        <ele>862</ele>
        <time>2010-01-01T02:08:02Z</time>
      </trkpt>
      <trkpt lat="42.3031" lon="2.56663">
        <ele>863</ele>
        <time>2010-01-01T02:08:09Z</time>
      </trkpt>
      <trkpt lat="42.30304" lon="2.56689">
        <ele>863</ele>
        <time>2010-01-01T02:08:30Z</time>
      </trkpt>
      <trkpt lat="42.30305" lon="2.56714">
        <ele>865</ele>
        <time>2010-01-01T02:08:48Z</time>
      </trkpt>
      <trkpt lat="42.30307" lon="2.56719">
        <ele>866</ele>
        <time>2010-01-01T02:08:52Z</time>
      </trkpt>
      <trkpt lat="42.30315" lon="2.56738">
        <ele>870</ele>
        <time>2010-01-01T02:09:08Z</time>
      </trkpt>
      <trkpt lat="42.30321" lon="2.56734">
        <ele>872</ele>
        <time>2010-01-01T02:09:15Z</time>
      </trkpt>
      <trkpt lat="42.30329" lon="2.5672">
        <ele>874</ele>
        <time>2010-01-01T02:09:28Z</time>
      </trkpt>
      <trkpt lat="42.30328" lon="2.56721">
        <ele>874</ele>
        <time>2010-01-01T02:09:30Z</time>
      </trkpt>
      <trkpt lat="42.30329" lon="2.5672">
        <ele>874</ele>
        <time>2010-01-01T02:09:30Z</time>
      </trkpt>
      <trkpt lat="42.3033" lon="2.56721">
        <ele>874</ele>
        <time>2010-01-01T02:09:31Z</time>
      </trkpt>
      <trkpt lat="42.30331" lon="2.56717">
        <ele>874</ele>
        <time>2010-01-01T02:09:34Z</time>
      </trkpt>
      <trkpt lat="42.3034" lon="2.56711">
        <ele>877</ele>
        <time>2010-01-01T02:09:44Z</time>
      </trkpt>
      <trkpt lat="42.3035" lon="2.56694">
        <ele>879</ele>
        <time>2010-01-01T02:10:00Z</time>
      </trkpt>
      <trkpt lat="42.30359" lon="2.56682">
        <ele>881</ele>
        <time>2010-01-01T02:10:13Z</time>
      </trkpt>
      <trkpt lat="42.30366" lon="2.56665">
        <ele>883</ele>
        <time>2010-01-01T02:10:27Z</time>
      </trkpt>
      <trkpt lat="42.30374" lon="2.56646">
        <ele>884</ele>
        <time>2010-01-01T02:10:43Z</time>
      </trkpt>
      <trkpt lat="42.30384" lon="2.56631">
        <ele>886</ele>
        <time>2010-01-01T02:10:59Z</time>
      </trkpt>
      <trkpt lat="42.30394" lon="2.56615">
        <ele>888</ele>
        <time>2010-01-01T02:11:14Z</time>
      </trkpt>
      <trkpt lat="42.30396" lon="2.56611">
        <ele>888</ele>
        <time>2010-01-01T02:11:17Z</time>
      </trkpt>
      <trkpt lat="42.30409" lon="2.56597">
        <ele>890</ele>
        <time>2010-01-01T02:11:34Z</time>
      </trkpt>
      <trkpt lat="42.30426" lon="2.56582">
        <ele>892</ele>
        <time>2010-01-01T02:11:54Z</time>
      </trkpt>
      <trkpt lat="42.30437" lon="2.56576">
        <ele>894</ele>
        <time>2010-01-01T02:12:06Z</time>
      </trkpt>
      <trkpt lat="42.3044" lon="2.56571">
        <ele>894</ele>
        <time>2010-01-01T02:12:11Z</time>
      </trkpt>
      <trkpt lat="42.30444" lon="2.56567">
        <ele>894</ele>
        <time>2010-01-01T02:12:16Z</time>
      </trkpt>
      <trkpt lat="42.30458" lon="2.56553">
        <ele>895</ele>
        <time>2010-01-01T02:12:33Z</time>
      </trkpt>
      <trkpt lat="42.30459" lon="2.56551">
        <ele>895</ele>
        <time>2010-01-01T02:12:35Z</time>
      </trkpt>
      <trkpt lat="42.3047" lon="2.5654">
        <ele>896</ele>
        <time>2010-01-01T02:12:49Z</time>
      </trkpt>
      <trkpt lat="42.30485" lon="2.56527">
        <ele>899</ele>
        <time>2010-01-01T02:13:06Z</time>
      </trkpt>
      <trkpt lat="42.30494" lon="2.56515">
        <ele>901</ele>
        <time>2010-01-01T02:13:19Z</time>
      </trkpt>
      <trkpt lat="42.30503" lon="2.56501">
        <ele>903</ele>
        <time>2010-01-01T02:13:33Z</time>
      </trkpt>
      <trkpt lat="42.30508" lon="2.56481">
        <ele>903</ele>
        <time>2010-01-01T02:13:49Z</time>
      </trkpt>
      <trkpt lat="42.30515" lon="2.56462">
        <ele>903</ele>
        <time>2010-01-01T02:14:04Z</time>
      </trkpt>
      <trkpt lat="42.30523" lon="2.56442">
        <ele>903</ele>
        <time>2010-01-01T02:14:21Z</time>
      </trkpt>
      <trkpt lat="42.30531" lon="2.56423">
        <ele>903</ele>
        <time>2010-01-01T02:14:37Z</time>
      </trkpt>
      <trkpt lat="42.30533" lon="2.56416">
        <ele>903</ele>
        <time>2010-01-01T02:14:43Z</time>
      </trkpt>
      <trkpt lat="42.30541" lon="2.56395">
        <ele>901</ele>
        <time>2010-01-01T02:15:00Z</time>
      </trkpt>
      <trkpt lat="42.30552" lon="2.56389">
        <ele>905</ele>
        <time>2010-01-01T02:15:12Z</time>
      </trkpt>
      <trkpt lat="42.30554" lon="2.56392">
        <ele>908</ele>
        <time>2010-01-01T02:15:15Z</time>
      </trkpt>
      <trkpt lat="42.30552" lon="2.56398">
        <ele>909</ele>
        <time>2010-01-01T02:15:19Z</time>
      </trkpt>
      <trkpt lat="42.30549" lon="2.56409">
        <ele>910</ele>
        <time>2010-01-01T02:15:28Z</time>
      </trkpt>
      <trkpt lat="42.30547" lon="2.56413">
        <ele>911</ele>
        <time>2010-01-01T02:15:32Z</time>
      </trkpt>
      <trkpt lat="42.30545" lon="2.56421">
        <ele>912</ele>
        <time>2010-01-01T02:15:39Z</time>
      </trkpt>
      <trkpt lat="42.30543" lon="2.5644">
        <ele>916</ele>
        <time>2010-01-01T02:15:53Z</time>
      </trkpt>
      <trkpt lat="42.30542" lon="2.56443">
        <ele>917</ele>
        <time>2010-01-01T02:15:55Z</time>
      </trkpt>
      <trkpt lat="42.30541" lon="2.56448">
        <ele>916</ele>
        <time>2010-01-01T02:15:59Z</time>
      </trkpt>
      <trkpt lat="42.30541" lon="2.56463">
        <ele>921</ele>
        <time>2010-01-01T02:16:10Z</time>
      </trkpt>
      <trkpt lat="42.30539" lon="2.56484">
        <ele>924</ele>
        <time>2010-01-01T02:16:26Z</time>
      </trkpt>
      <trkpt lat="42.30539" lon="2.56488">
        <ele>925</ele>
        <time>2010-01-01T02:16:29Z</time>
      </trkpt>
      <trkpt lat="42.30538" lon="2.5651">
        <ele>929</ele>
        <time>2010-01-01T02:16:45Z</time>
      </trkpt>
      <trkpt lat="42.30535" lon="2.56525">
        <ele>931</ele>
        <time>2010-01-01T02:16:56Z</time>
      </trkpt>
      <trkpt lat="42.30529" lon="2.56543">
        <ele>931</ele>
        <time>2010-01-01T02:17:11Z</time>
      </trkpt>
      <trkpt lat="42.30528" lon="2.56551">
        <ele>931</ele>
        <time>2010-01-01T02:17:17Z</time>
      </trkpt>
      <trkpt lat="42.30526" lon="2.56569">
        <ele>934</ele>
        <time>2010-01-01T02:17:30Z</time>
      </trkpt>
      <trkpt lat="42.30525" lon="2.56574">
        <ele>935</ele>
        <time>2010-01-01T02:17:34Z</time>
      </trkpt>
      <trkpt lat="42.30524" lon="2.56577">
        <ele>935</ele>
        <time>2010-01-01T02:17:37Z</time>
      </trkpt>
      <trkpt lat="42.30523" lon="2.5658">
        <ele>936</ele>
        <time>2010-01-01T02:17:39Z</time>
      </trkpt>
      <trkpt lat="42.30519" lon="2.56588">
        <ele>936</ele>
        <time>2010-01-01T02:17:46Z</time>
      </trkpt>
      <trkpt lat="42.30511" lon="2.56601">
        <ele>937</ele>
        <time>2010-01-01T02:17:59Z</time>
      </trkpt>
      <trkpt lat="42.30508" lon="2.56609">
        <ele>938</ele>
        <time>2010-01-01T02:18:06Z</time>
      </trkpt>
      <trkpt lat="42.30499" lon="2.56615">
        <ele>935</ele>
        <time>2010-01-01T02:18:16Z</time>
      </trkpt>
      <trkpt lat="42.30496" lon="2.56616">
        <ele>934</ele>
        <time>2010-01-01T02:18:19Z</time>
      </trkpt>
      <trkpt lat="42.30486" lon="2.56625">
        <ele>934</ele>
        <time>2010-01-01T02:18:31Z</time>
      </trkpt>
      <trkpt lat="42.30477" lon="2.56639">
        <ele>936</ele>
        <time>2010-01-01T02:18:44Z</time>
      </trkpt>
      <trkpt lat="42.30474" lon="2.56645">
        <ele>937</ele>
        <time>2010-01-01T02:18:50Z</time>
      </trkpt>
      <trkpt lat="42.30467" lon="2.56656">
        <ele>938</ele>
        <time>2010-01-01T02:19:00Z</time>
      </trkpt>
      <trkpt lat="42.30474" lon="2.56659">
        <ele>943</ele>
        <time>2010-01-01T02:19:06Z</time>
      </trkpt>
      <trkpt lat="42.3048" lon="2.56652">
        <ele>943</ele>
        <time>2010-01-01T02:19:15Z</time>
      </trkpt>
      <trkpt lat="42.3049" lon="2.56648">
        <ele>946</ele>
        <time>2010-01-01T02:19:25Z</time>
      </trkpt>
      <trkpt lat="42.30498" lon="2.56649">
        <ele>951</ele>
        <time>2010-01-01T02:19:33Z</time>
      </trkpt>
      <trkpt lat="42.30512" lon="2.56644">
        <ele>956</ele>
        <time>2010-01-01T02:19:47Z</time>
      </trkpt>
      <trkpt lat="42.30523" lon="2.56641">
        <ele>961</ele>
        <time>2010-01-01T02:19:59Z</time>
      </trkpt>
      <trkpt lat="42.30532" lon="2.56637">
        <ele>964</ele>
        <time>2010-01-01T02:20:09Z</time>
      </trkpt>
      <trkpt lat="42.30543" lon="2.56629">
        <ele>969</ele>
        <time>2010-01-01T02:20:21Z</time>
      </trkpt>
      <trkpt lat="42.30553" lon="2.56619">
        <ele>971</ele>
        <time>2010-01-01T02:20:33Z</time>
      </trkpt>
      <trkpt lat="42.30555" lon="2.56613">
        <ele>969</ele>
        <time>2010-01-01T02:20:38Z</time>
      </trkpt>
      <trkpt lat="42.30556" lon="2.56608">
        <ele>969</ele>
        <time>2010-01-01T02:20:42Z</time>
      </trkpt>
      <trkpt lat="42.30561" lon="2.56602">
        <ele>971</ele>
        <time>2010-01-01T02:20:48Z</time>
      </trkpt>
      <trkpt lat="42.30563" lon="2.56596">
        <ele>971</ele>
        <time>2010-01-01T02:20:53Z</time>
      </trkpt>
      <trkpt lat="42.30572" lon="2.56587">
        <ele>974</ele>
        <time>2010-01-01T02:21:04Z</time>
      </trkpt>
      <trkpt lat="42.30579" lon="2.56582">
        <ele>977</ele>
        <time>2010-01-01T02:21:12Z</time>
      </trkpt>
      <trkpt lat="42.30587" lon="2.56574">
        <ele>979</ele>
        <time>2010-01-01T02:21:22Z</time>
      </trkpt>
      <trkpt lat="42.30589" lon="2.56558">
        <ele>973</ele>
        <time>2010-01-01T02:21:34Z</time>
      </trkpt>
      <trkpt lat="42.30592" lon="2.56554">
        <ele>973</ele>
        <time>2010-01-01T02:21:39Z</time>
      </trkpt>
      <trkpt lat="42.30598" lon="2.56539">
        <ele>970</ele>
        <time>2010-01-01T02:21:51Z</time>
      </trkpt>
      <trkpt lat="42.30599" lon="2.56529">
        <ele>967</ele>
        <time>2010-01-01T02:21:58Z</time>
      </trkpt>
      <trkpt lat="42.30602" lon="2.56514">
        <ele>964</ele>
        <time>2010-01-01T02:22:10Z</time>
      </trkpt>
      <trkpt lat="42.30603" lon="2.565">
        <ele>962</ele>
        <time>2010-01-01T02:22:21Z</time>
      </trkpt>
      <trkpt lat="42.30613" lon="2.56477">
        <ele>962</ele>
        <time>2010-01-01T02:22:40Z</time>
      </trkpt>
      <trkpt lat="42.30621" lon="2.56467">
        <ele>963</ele>
        <time>2010-01-01T02:22:51Z</time>
      </trkpt>
      <trkpt lat="42.3064" lon="2.56461">
        <ele>968</ele>
        <time>2010-01-01T02:23:10Z</time>
      </trkpt>
      <trkpt lat="42.30647" lon="2.56465">
        <ele>970</ele>
        <time>2010-01-01T02:23:18Z</time>
      </trkpt>
      <trkpt lat="42.30647" lon="2.56465">
        <ele>970</ele>
        <time>2010-01-01T02:23:18Z</time>
      </trkpt>
      <trkpt lat="42.3065" lon="2.56453">
        <ele>965</ele>
        <time>2010-01-01T02:23:28Z</time>
      </trkpt>
      <trkpt lat="42.30655" lon="2.56447">
        <ele>963</ele>
        <time>2010-01-01T02:23:35Z</time>
      </trkpt>
      <trkpt lat="42.30661" lon="2.56445">
        <ele>962</ele>
        <time>2010-01-01T02:23:41Z</time>
      </trkpt>
      <trkpt lat="42.30675" lon="2.56442">
        <ele>959</ele>
        <time>2010-01-01T02:23:55Z</time>
      </trkpt>
      <trkpt lat="42.3068" lon="2.56437">
        <ele>957</ele>
        <time>2010-01-01T02:24:01Z</time>
      </trkpt>
      <trkpt lat="42.30675" lon="2.56443">
        <ele>960</ele>
        <time>2010-01-01T02:24:08Z</time>
      </trkpt>
      <trkpt lat="42.30674" lon="2.56451">
        <ele>964</ele>
        <time>2010-01-01T02:24:14Z</time>
      </trkpt>
      <trkpt lat="42.30676" lon="2.56459">
        <ele>968</ele>
        <time>2010-01-01T02:24:20Z</time>
      </trkpt>
      <trkpt lat="42.30678" lon="2.56463">
        <ele>970</ele>
        <time>2010-01-01T02:24:23Z</time>
      </trkpt>
      <trkpt lat="42.30676" lon="2.5646">
        <ele>968</ele>
        <time>2010-01-01T02:24:26Z</time>
      </trkpt>
      <trkpt lat="42.30677" lon="2.56462">
        <ele>969</ele>
        <time>2010-01-01T02:24:27Z</time>
      </trkpt>
      <trkpt lat="42.30687" lon="2.56459">
        <ele>966</ele>
        <time>2010-01-01T02:24:38Z</time>
      </trkpt>
      <trkpt lat="42.30694" lon="2.56458">
        <ele>966</ele>
        <time>2010-01-01T02:24:45Z</time>
      </trkpt>
      <trkpt lat="42.30701" lon="2.56462">
        <ele>966</ele>
        <time>2010-01-01T02:24:53Z</time>
      </trkpt>
      <trkpt lat="42.30716" lon="2.56463">
        <ele>964</ele>
        <time>2010-01-01T02:25:08Z</time>
      </trkpt>
      <trkpt lat="42.30729" lon="2.56467">
        <ele>963</ele>
        <time>2010-01-01T02:25:21Z</time>
      </trkpt>
      <trkpt lat="42.30737" lon="2.56468">
        <ele>963</ele>
        <time>2010-01-01T02:25:29Z</time>
      </trkpt>
      <trkpt lat="42.30748" lon="2.56471">
        <ele>962</ele>
        <time>2010-01-01T02:25:40Z</time>
      </trkpt>
      <trkpt lat="42.30756" lon="2.56469">
        <ele>961</ele>
        <time>2010-01-01T02:25:49Z</time>
      </trkpt>
      <trkpt lat="42.30761" lon="2.5647">
        <ele>961</ele>
        <time>2010-01-01T02:25:53Z</time>
      </trkpt>
      <trkpt lat="42.30771" lon="2.56474">
        <ele>961</ele>
        <time>2010-01-01T02:26:04Z</time>
      </trkpt>
      <trkpt lat="42.3077" lon="2.56473">
        <ele>961</ele>
        <time>2010-01-01T02:26:05Z</time>
      </trkpt>
      <trkpt lat="42.3077" lon="2.56471">
        <ele>961</ele>
        <time>2010-01-01T02:26:06Z</time>
      </trkpt>
      <trkpt lat="42.30775" lon="2.56469">
        <ele>960</ele>
        <time>2010-01-01T02:26:12Z</time>
      </trkpt>
      <trkpt lat="42.30774" lon="2.56464">
        <ele>959</ele>
        <time>2010-01-01T02:26:15Z</time>
      </trkpt>
      <trkpt lat="42.30768" lon="2.56462">
        <ele>959</ele>
        <time>2010-01-01T02:26:22Z</time>
      </trkpt>
      <trkpt lat="42.30768" lon="2.56462">
        <ele>959</ele>
        <time>2010-01-01T02:26:23Z</time>
      </trkpt>
      <trkpt lat="42.30768" lon="2.5646">
        <ele>958</ele>
        <time>2010-01-01T02:26:24Z</time>
      </trkpt>
      <trkpt lat="42.30768" lon="2.56454">
        <ele>957</ele>
        <time>2010-01-01T02:26:29Z</time>
      </trkpt>
      <trkpt lat="42.30773" lon="2.56451">
        <ele>955</ele>
        <time>2010-01-01T02:26:34Z</time>
      </trkpt>
      <trkpt lat="42.30769" lon="2.56452">
        <ele>956</ele>
        <time>2010-01-01T02:26:38Z</time>
      </trkpt>
      <trkpt lat="42.30767" lon="2.56451">
        <ele>956</ele>
        <time>2010-01-01T02:26:40Z</time>
      </trkpt>
      <trkpt lat="42.30766" lon="2.56447">
        <ele>955</ele>
        <time>2010-01-01T02:26:43Z</time>
      </trkpt>
      <trkpt lat="42.30765" lon="2.56443">
        <ele>954</ele>
        <time>2010-01-01T02:26:46Z</time>
      </trkpt>
      <trkpt lat="42.30769" lon="2.56443">
        <ele>954</ele>
        <time>2010-01-01T02:26:50Z</time>
      </trkpt>
      <trkpt lat="42.30769" lon="2.56449">
        <ele>955</ele>
        <time>2010-01-01T02:26:54Z</time>
      </trkpt>
      <trkpt lat="42.30771" lon="2.56451">
        <ele>956</ele>
        <time>2010-01-01T02:26:57Z</time>
      </trkpt>
      <trkpt lat="42.3077" lon="2.56452">
        <ele>956</ele>
        <time>2010-01-01T02:26:58Z</time>
      </trkpt>
      <trkpt lat="42.30767" lon="2.56451">
        <ele>956</ele>
        <time>2010-01-01T02:27:01Z</time>
      </trkpt>
      <trkpt lat="42.30767" lon="2.5645">
        <ele>956</ele>
        <time>2010-01-01T02:27:02Z</time>
      </trkpt>
      <trkpt lat="42.30768" lon="2.56447">
        <ele>955</ele>
        <time>2010-01-01T02:27:05Z</time>
      </trkpt>
      <trkpt lat="42.30769" lon="2.56444">
        <ele>954</ele>
        <time>2010-01-01T02:27:07Z</time>
      </trkpt>
      <trkpt lat="42.3077" lon="2.56441">
        <ele>953</ele>
        <time>2010-01-01T02:27:09Z</time>
      </trkpt>
      <trkpt lat="42.30773" lon="2.5644">
        <ele>953</ele>
        <time>2010-01-01T02:27:12Z</time>
      </trkpt>
      <trkpt lat="42.30773" lon="2.56435">
        <ele>951</ele>
        <time>2010-01-01T02:27:16Z</time>
      </trkpt>
      <trkpt lat="42.30773" lon="2.56429">
        <ele>950</ele>
        <time>2010-01-01T02:27:20Z</time>
      </trkpt>
      <trkpt lat="42.30777" lon="2.56428">
        <ele>950</ele>
        <time>2010-01-01T02:27:25Z</time>
      </trkpt>
      <trkpt lat="42.30776" lon="2.56428">
        <ele>950</ele>
        <time>2010-01-01T02:27:26Z</time>
      </trkpt>
      <trkpt lat="42.30779" lon="2.56425">
        <ele>950</ele>
        <time>2010-01-01T02:27:29Z</time>
      </trkpt>
      <trkpt lat="42.3078" lon="2.56419">
        <ele>949</ele>
        <time>2010-01-01T02:27:33Z</time>
      </trkpt>
      <trkpt lat="42.30782" lon="2.56416">
        <ele>949</ele>
        <time>2010-01-01T02:27:37Z</time>
      </trkpt>
      <trkpt lat="42.30783" lon="2.56405">
        <ele>946</ele>
        <time>2010-01-01T02:27:45Z</time>
      </trkpt>
      <trkpt lat="42.30782" lon="2.56402">
        <ele>945</ele>
        <time>2010-01-01T02:27:48Z</time>
      </trkpt>
      <trkpt lat="42.30778" lon="2.56393">
        <ele>941</ele>
        <time>2010-01-01T02:27:55Z</time>
      </trkpt>
      <trkpt lat="42.30778" lon="2.56384">
        <ele>938</ele>
        <time>2010-01-01T02:28:02Z</time>
      </trkpt>
      <trkpt lat="42.30779" lon="2.56369">
        <ele>934</ele>
        <time>2010-01-01T02:28:13Z</time>
      </trkpt>
      <trkpt lat="42.30782" lon="2.56361">
        <ele>933</ele>
        <time>2010-01-01T02:28:20Z</time>
      </trkpt>
      <trkpt lat="42.30782" lon="2.56361">
        <ele>933</ele>
        <time>2010-01-01T02:28:20Z</time>
      </trkpt>
      <trkpt lat="42.30776" lon="2.56358">
        <ele>930</ele>
        <time>2010-01-01T02:28:26Z</time>
      </trkpt>
      <trkpt lat="42.30776" lon="2.56358">
        <ele>930</ele>
        <time>2010-01-01T02:28:26Z</time>
      </trkpt>
      <trkpt lat="42.30777" lon="2.56352">
        <ele>929</ele>
        <time>2010-01-01T02:28:30Z</time>
      </trkpt>
      <trkpt lat="42.30786" lon="2.5634">
        <ele>930</ele>
        <time>2010-01-01T02:28:43Z</time>
      </trkpt>
      <trkpt lat="42.30787" lon="2.56332">
        <ele>928</ele>
        <time>2010-01-01T02:28:49Z</time>
      </trkpt>
      <trkpt lat="42.30787" lon="2.56315">
        <ele>924</ele>
        <time>2010-01-01T02:29:02Z</time>
      </trkpt>
      <trkpt lat="42.30786" lon="2.56308">
        <ele>923</ele>
        <time>2010-01-01T02:29:07Z</time>
      </trkpt>
      <trkpt lat="42.30787" lon="2.56289">
        <ele>921</ele>
        <time>2010-01-01T02:29:21Z</time>
      </trkpt>
      <trkpt lat="42.3079" lon="2.56265">
        <ele>922</ele>
        <time>2010-01-01T02:29:39Z</time>
      </trkpt>
      <trkpt lat="42.30795" lon="2.56246">
        <ele>922</ele>
        <time>2010-01-01T02:29:54Z</time>
      </trkpt>
      <trkpt lat="42.30798" lon="2.56231">
        <ele>921</ele>
        <time>2010-01-01T02:30:05Z</time>
      </trkpt>
      <trkpt lat="42.30801" lon="2.56216">
        <ele>919</ele>
        <time>2010-01-01T02:30:17Z</time>
      </trkpt>
      <trkpt lat="42.30804" lon="2.56202">
        <ele>917</ele>
        <time>2010-01-01T02:30:28Z</time>
      </trkpt>
      <trkpt lat="42.30805" lon="2.56196">
        <ele>917</ele>
        <time>2010-01-01T02:30:32Z</time>
      </trkpt>
      <trkpt lat="42.30806" lon="2.56194">
        <ele>916</ele>
        <time>2010-01-01T02:30:34Z</time>
      </trkpt>
      <trkpt lat="42.30817" lon="2.56183">
        <ele>916</ele>
        <time>2010-01-01T02:30:47Z</time>
      </trkpt>
      <trkpt lat="42.30826" lon="2.5617">
        <ele>915</ele>
        <time>2010-01-01T02:31:01Z</time>
      </trkpt>
      <trkpt lat="42.30839" lon="2.56159">
        <ele>916</ele>
        <time>2010-01-01T02:31:16Z</time>
      </trkpt>
      <trkpt lat="42.30846" lon="2.5615">
        <ele>915</ele>
        <time>2010-01-01T02:31:26Z</time>
      </trkpt>
      <trkpt lat="42.30853" lon="2.56136">
        <ele>914</ele>
        <time>2010-01-01T02:31:38Z</time>
      </trkpt>
      <trkpt lat="42.30861" lon="2.56122">
        <ele>914</ele>
        <time>2010-01-01T02:31:51Z</time>
      </trkpt>
      <trkpt lat="42.3087" lon="2.56105">
        <ele>916</ele>
        <time>2010-01-01T02:32:07Z</time>
      </trkpt>
      <trkpt lat="42.30866" lon="2.56094">
        <ele>915</ele>
        <time>2010-01-01T02:32:16Z</time>
      </trkpt>
      <trkpt lat="42.30862" lon="2.56092">
        <ele>913</ele>
        <time>2010-01-01T02:32:19Z</time>
      </trkpt>
      <trkpt lat="42.30853" lon="2.56088">
        <ele>910</ele>
        <time>2010-01-01T02:32:29Z</time>
      </trkpt>
      <trkpt lat="42.30834" lon="2.56077">
        <ele>906</ele>
        <time>2010-01-01T02:32:50Z</time>
      </trkpt>
      <trkpt lat="42.30823" lon="2.56059">
        <ele>907</ele>
        <time>2010-01-01T02:33:08Z</time>
      </trkpt>
      <trkpt lat="42.30811" lon="2.56042">
        <ele>908</ele>
        <time>2010-01-01T02:33:25Z</time>
      </trkpt>
      <trkpt lat="42.30808" lon="2.56036">
        <ele>908</ele>
        <time>2010-01-01T02:33:30Z</time>
      </trkpt>
      <trkpt lat="42.30805" lon="2.56029">
        <ele>909</ele>
        <time>2010-01-01T02:33:36Z</time>
      </trkpt>
      <trkpt lat="42.30806" lon="2.56033">
        <ele>908</ele>
        <time>2010-01-01T02:33:40Z</time>
      </trkpt>
      <trkpt lat="42.30809" lon="2.56038">
        <ele>908</ele>
        <time>2010-01-01T02:33:45Z</time>
      </trkpt>
      <trkpt lat="42.30808" lon="2.56039">
        <ele>908</ele>
        <time>2010-01-01T02:33:46Z</time>
      </trkpt>
      <trkpt lat="42.30807" lon="2.56042">
        <ele>906</ele>
        <time>2010-01-01T02:33:48Z</time>
      </trkpt>
      <trkpt lat="42.30806" lon="2.56041">
        <ele>906</ele>
        <time>2010-01-01T02:33:49Z</time>
      </trkpt>
      <trkpt lat="42.30806" lon="2.56041">
        <ele>906</ele>
        <time>2010-01-01T02:33:49Z</time>
      </trkpt>
      <trkpt lat="42.30805" lon="2.5604">
        <ele>906</ele>
        <time>2010-01-01T02:33:50Z</time>
      </trkpt>
      <trkpt lat="42.30798" lon="2.56034">
        <ele>904</ele>
        <time>2010-01-01T02:33:58Z</time>
      </trkpt>
      <trkpt lat="42.30798" lon="2.56033">
        <ele>905</ele>
        <time>2010-01-01T02:34:00Z</time>
      </trkpt>
      <trkpt lat="42.3079" lon="2.5602">
        <ele>905</ele>
        <time>2010-01-01T02:34:12Z</time>
      </trkpt>
      <trkpt lat="42.30786" lon="2.56017">
        <ele>904</ele>
        <time>2010-01-01T02:34:16Z</time>
      </trkpt>
      <trkpt lat="42.30776" lon="2.56012">
        <ele>902</ele>
        <time>2010-01-01T02:34:27Z</time>
      </trkpt>
      <trkpt lat="42.30767" lon="2.56005">
        <ele>902</ele>
        <time>2010-01-01T02:34:37Z</time>
      </trkpt>
      <trkpt lat="42.30767" lon="2.56004">
        <ele>902</ele>
        <time>2010-01-01T02:34:38Z</time>
      </trkpt>
      <trkpt lat="42.30755" lon="2.55995">
        <ele>903</ele>
        <time>2010-01-01T02:34:51Z</time>
      </trkpt>
      <trkpt lat="42.30748" lon="2.55989">
        <ele>903</ele>
        <time>2010-01-01T02:35:00Z</time>
      </trkpt>
      <trkpt lat="42.30742" lon="2.5598">
        <ele>904</ele>
        <time>2010-01-01T02:35:09Z</time>
      </trkpt>
      <trkpt lat="42.30739" lon="2.55977">
        <ele>904</ele>
        <time>2010-01-01T02:35:12Z</time>
      </trkpt>
      <trkpt lat="42.30736" lon="2.55972">
        <ele>905</ele>
        <time>2010-01-01T02:35:17Z</time>
      </trkpt>
      <trkpt lat="42.30726" lon="2.55962">
        <ele>904</ele>
        <time>2010-01-01T02:35:29Z</time>
      </trkpt>
      <trkpt lat="42.30719" lon="2.55955">
        <ele>902</ele>
        <time>2010-01-01T02:35:39Z</time>
      </trkpt>
      <trkpt lat="42.30716" lon="2.55948">
        <ele>902</ele>
        <time>2010-01-01T02:35:44Z</time>
      </trkpt>
      <trkpt lat="42.3071" lon="2.55938">
        <ele>902</ele>
        <time>2010-01-01T02:35:54Z</time>
      </trkpt>
      <trkpt lat="42.30704" lon="2.55927">
        <ele>903</ele>
        <time>2010-01-01T02:36:04Z</time>
      </trkpt>
      <trkpt lat="42.30693" lon="2.55915">
        <ele>900</ele>
        <time>2010-01-01T02:36:18Z</time>
      </trkpt>
      <trkpt lat="42.30681" lon="2.55902">
        <ele>897</ele>
        <time>2010-01-01T02:36:34Z</time>
      </trkpt>
      <trkpt lat="42.30672" lon="2.55891">
        <ele>896</ele>
        <time>2010-01-01T02:36:45Z</time>
      </trkpt>
      <trkpt lat="42.30665" lon="2.55882">
        <ele>895</ele>
        <time>2010-01-01T02:36:55Z</time>
      </trkpt>
      <trkpt lat="42.30662" lon="2.55864">
        <ele>900</ele>
        <time>2010-01-01T02:37:09Z</time>
      </trkpt>
      <trkpt lat="42.30658" lon="2.55853">
        <ele>900</ele>
        <time>2010-01-01T02:37:18Z</time>
      </trkpt>
      <trkpt lat="42.30656" lon="2.55849">
        <ele>900</ele>
        <time>2010-01-01T02:37:22Z</time>
      </trkpt>
      <trkpt lat="42.30651" lon="2.55835">
        <ele>900</ele>
        <time>2010-01-01T02:37:33Z</time>
      </trkpt>
      <trkpt lat="42.30644" lon="2.55827">
        <ele>896</ele>
        <time>2010-01-01T02:37:43Z</time>
      </trkpt>
      <trkpt lat="42.30642" lon="2.5582">
        <ele>898</ele>
        <time>2010-01-01T02:37:48Z</time>
      </trkpt>
      <trkpt lat="42.30635" lon="2.55803">
        <ele>901</ele>
        <time>2010-01-01T02:38:02Z</time>
      </trkpt>
      <trkpt lat="42.3063" lon="2.55786">
        <ele>904</ele>
        <time>2010-01-01T02:38:16Z</time>
      </trkpt>
      <trkpt lat="42.30625" lon="2.55776">
        <ele>905</ele>
        <time>2010-01-01T02:38:25Z</time>
      </trkpt>
      <trkpt lat="42.30619" lon="2.55756">
        <ele>906</ele>
        <time>2010-01-01T02:38:41Z</time>
      </trkpt>
      <trkpt lat="42.30616" lon="2.55752">
        <ele>905</ele>
        <time>2010-01-01T02:38:45Z</time>
      </trkpt>
      <trkpt lat="42.30611" lon="2.55745">
        <ele>902</ele>
        <time>2010-01-01T02:38:52Z</time>
      </trkpt>
      <trkpt lat="42.30605" lon="2.55727">
        <ele>894</ele>
        <time>2010-01-01T02:39:06Z</time>
      </trkpt>
      <trkpt lat="42.30605" lon="2.55726">
        <ele>893</ele>
        <time>2010-01-01T02:39:07Z</time>
      </trkpt>
      <trkpt lat="42.30599" lon="2.55711">
        <ele>887</ele>
        <time>2010-01-01T02:39:20Z</time>
      </trkpt>
      <trkpt lat="42.30596" lon="2.55694">
        <ele>884</ele>
        <time>2010-01-01T02:39:33Z</time>
      </trkpt>
      <trkpt lat="42.3059" lon="2.55673">
        <ele>879</ele>
        <time>2010-01-01T02:39:50Z</time>
      </trkpt>
      <trkpt lat="42.3059" lon="2.55657">
        <ele>879</ele>
        <time>2010-01-01T02:40:01Z</time>
      </trkpt>
      <trkpt lat="42.3059" lon="2.55647">
        <ele>879</ele>
        <time>2010-01-01T02:40:08Z</time>
      </trkpt>
      <trkpt lat="42.3059" lon="2.55635">
        <ele>879</ele>
        <time>2010-01-01T02:40:17Z</time>
      </trkpt>
      <trkpt lat="42.30593" lon="2.55627">
        <ele>881</ele>
        <time>2010-01-01T02:40:24Z</time>
      </trkpt>
      <trkpt lat="42.30594" lon="2.55615">
        <ele>881</ele>
        <time>2010-01-01T02:40:33Z</time>
      </trkpt>
      <trkpt lat="42.30595" lon="2.55612">
        <ele>882</ele>
        <time>2010-01-01T02:40:36Z</time>
      </trkpt>
      <trkpt lat="42.30603" lon="2.55597">
        <ele>890</ele>
        <time>2010-01-01T02:40:49Z</time>
      </trkpt>
      <trkpt lat="42.30609" lon="2.55588">
        <ele>897</ele>
        <time>2010-01-01T02:40:58Z</time>
      </trkpt>
      <trkpt lat="42.30606" lon="2.55571">
        <ele>896</ele>
        <time>2010-01-01T02:41:11Z</time>
      </trkpt>
      <trkpt lat="42.30603" lon="2.55556">
        <ele>895</ele>
        <time>2010-01-01T02:41:22Z</time>
      </trkpt>
      <trkpt lat="42.30599" lon="2.55533">
        <ele>895</ele>
        <time>2010-01-01T02:41:40Z</time>
      </trkpt>
      <trkpt lat="42.30592" lon="2.55525">
        <ele>891</ele>
        <time>2010-01-01T02:41:49Z</time>
      </trkpt>
      <trkpt lat="42.30585" lon="2.55509">
        <ele>891</ele>
        <time>2010-01-01T02:42:03Z</time>
      </trkpt>
      <trkpt lat="42.30581" lon="2.55502">
        <ele>889</ele>
        <time>2010-01-01T02:42:09Z</time>
      </trkpt>
      <trkpt lat="42.30573" lon="2.55491">
        <ele>887</ele>
        <time>2010-01-01T02:42:20Z</time>
      </trkpt>
      <trkpt lat="42.30568" lon="2.55479">
        <ele>888</ele>
        <time>2010-01-01T02:42:30Z</time>
      </trkpt>
      <trkpt lat="42.30565" lon="2.55475">
        <ele>886</ele>
        <time>2010-01-01T02:42:35Z</time>
      </trkpt>
      <trkpt lat="42.30563" lon="2.5547">
        <ele>886</ele>
        <time>2010-01-01T02:42:39Z</time>
      </trkpt>
      <trkpt lat="42.30558" lon="2.55463">
        <ele>884</ele>
        <time>2010-01-01T02:42:46Z</time>
      </trkpt>
      <trkpt lat="42.30552" lon="2.55447">
        <ele>884</ele>
        <time>2010-01-01T02:43:00Z</time>
      </trkpt>
      <trkpt lat="42.30552" lon="2.55444">
        <ele>885</ele>
        <time>2010-01-01T02:43:02Z</time>
      </trkpt>
      <trkpt lat="42.30553" lon="2.55427">
        <ele>887</ele>
        <time>2010-01-01T02:43:15Z</time>
      </trkpt>
      <trkpt lat="42.30553" lon="2.55425">
        <ele>887</ele>
        <time>2010-01-01T02:43:16Z</time>
      </trkpt>
      <trkpt lat="42.30554" lon="2.55409">
        <ele>890</ele>
        <time>2010-01-01T02:43:28Z</time>
      </trkpt>
      <trkpt lat="42.3056" lon="2.55395">
        <ele>898</ele>
        <time>2010-01-01T02:43:40Z</time>
      </trkpt>
      <trkpt lat="42.30564" lon="2.55391">
        <ele>902</ele>
        <time>2010-01-01T02:43:45Z</time>
      </trkpt>
      <trkpt lat="42.30564" lon="2.55373">
        <ele>903</ele>
        <time>2010-01-01T02:43:59Z</time>
      </trkpt>
      <trkpt lat="42.3056" lon="2.55353">
        <ele>900</ele>
        <time>2010-01-01T02:44:14Z</time>
      </trkpt>
      <trkpt lat="42.30558" lon="2.5535">
        <ele>899</ele>
        <time>2010-01-01T02:44:17Z</time>
      </trkpt>
      <trkpt lat="42.30556" lon="2.55344">
        <ele>898</ele>
        <time>2010-01-01T02:44:22Z</time>
      </trkpt>
      <trkpt lat="42.3055" lon="2.5533">
        <ele>894</ele>
        <time>2010-01-01T02:44:34Z</time>
      </trkpt>
      <trkpt lat="42.30548" lon="2.55313">
        <ele>895</ele>
        <time>2010-01-01T02:44:46Z</time>
      </trkpt>
      <trkpt lat="42.30547" lon="2.55292">
        <ele>895</ele>
        <time>2010-01-01T02:45:02Z</time>
      </trkpt>
      <trkpt lat="42.30544" lon="2.55283">
        <ele>892</ele>
        <time>2010-01-01T02:45:10Z</time>
      </trkpt>
      <trkpt lat="42.30543" lon="2.55275">
        <ele>892</ele>
        <time>2010-01-01T02:45:16Z</time>
      </trkpt>
      <trkpt lat="42.30543" lon="2.55258">
        <ele>892</ele>
        <time>2010-01-01T02:45:28Z</time>
      </trkpt>
      <trkpt lat="42.30545" lon="2.55234">
        <ele>892</ele>
        <time>2010-01-01T02:45:46Z</time>
      </trkpt>
      <trkpt lat="42.30545" lon="2.55232">
        <ele>892</ele>
        <time>2010-01-01T02:45:48Z</time>
      </trkpt>
      <trkpt lat="42.30547" lon="2.55226">
        <ele>893</ele>
        <time>2010-01-01T02:45:52Z</time>
      </trkpt>
      <trkpt lat="42.30551" lon="2.55204">
        <ele>893</ele>
        <time>2010-01-01T02:46:09Z</time>
      </trkpt>
      <trkpt lat="42.30557" lon="2.55189">
        <ele>894</ele>
        <time>2010-01-01T02:46:21Z</time>
      </trkpt>
      <trkpt lat="42.30557" lon="2.55188">
        <ele>894</ele>
        <time>2010-01-01T02:46:22Z</time>
      </trkpt>
      <trkpt lat="42.30563" lon="2.55171">
        <ele>892</ele>
        <time>2010-01-01T02:46:36Z</time>
      </trkpt>
      <trkpt lat="42.30572" lon="2.55157">
        <ele>895</ele>
        <time>2010-01-01T02:46:50Z</time>
      </trkpt>
      <trkpt lat="42.30573" lon="2.55155">
        <ele>895</ele>
        <time>2010-01-01T02:46:52Z</time>
      </trkpt>
      <trkpt lat="42.30579" lon="2.55135">
        <ele>896</ele>
        <time>2010-01-01T02:47:08Z</time>
      </trkpt>
      <trkpt lat="42.30585" lon="2.55126">
        <ele>900</ele>
        <time>2010-01-01T02:47:17Z</time>
      </trkpt>
      <trkpt lat="42.30586" lon="2.55124">
        <ele>900</ele>
        <time>2010-01-01T02:47:19Z</time>
      </trkpt>
      <trkpt lat="42.30592" lon="2.55121">
        <ele>904</ele>
        <time>2010-01-01T02:47:25Z</time>
      </trkpt>
      <trkpt lat="42.30591" lon="2.5512">
        <ele>903</ele>
        <time>2010-01-01T02:47:26Z</time>
      </trkpt>
      <trkpt lat="42.30589" lon="2.55107">
        <ele>901</ele>
        <time>2010-01-01T02:47:36Z</time>
      </trkpt>
      <trkpt lat="42.30587" lon="2.55103">
        <ele>900</ele>
        <time>2010-01-01T02:47:40Z</time>
      </trkpt>
      <trkpt lat="42.30583" lon="2.55099">
        <ele>897</ele>
        <time>2010-01-01T02:47:44Z</time>
      </trkpt>
      <trkpt lat="42.30591" lon="2.55096">
        <ele>902</ele>
        <time>2010-01-01T02:47:52Z</time>
      </trkpt>
      <trkpt lat="42.30591" lon="2.55085">
        <ele>902</ele>
        <time>2010-01-01T02:48:00Z</time>
      </trkpt>
      <trkpt lat="42.30587" lon="2.55073">
        <ele>901</ele>
        <time>2010-01-01T02:48:10Z</time>
      </trkpt>
      <trkpt lat="42.30584" lon="2.55053">
        <ele>904</ele>
        <time>2010-01-01T02:48:25Z</time>
      </trkpt>
      <trkpt lat="42.30582" lon="2.55043">
        <ele>902</ele>
        <time>2010-01-01T02:48:33Z</time>
      </trkpt>
      <trkpt lat="42.30583" lon="2.5503">
        <ele>906</ele>
        <time>2010-01-01T02:48:43Z</time>
      </trkpt>
      <trkpt lat="42.30585" lon="2.5502">
        <ele>909</ele>
        <time>2010-01-01T02:48:50Z</time>
      </trkpt>
      <trkpt lat="42.30585" lon="2.55023">
        <ele>909</ele>
        <time>2010-01-01T02:48:52Z</time>
      </trkpt>
      <trkpt lat="42.3059" lon="2.5504">
        <ele>909</ele>
        <time>2010-01-01T02:49:06Z</time>
      </trkpt>
      <trkpt lat="42.30595" lon="2.55041">
        <ele>913</ele>
        <time>2010-01-01T02:49:12Z</time>
      </trkpt>
      <trkpt lat="42.30597" lon="2.5504">
        <ele>914</ele>
        <time>2010-01-01T02:49:14Z</time>
      </trkpt>
      <trkpt lat="42.306" lon="2.55043">
        <ele>915</ele>
        <time>2010-01-01T02:49:17Z</time>
      </trkpt>
      <trkpt lat="42.30601" lon="2.55049">
        <ele>915</ele>
        <time>2010-01-01T02:49:21Z</time>
      </trkpt>
      <trkpt lat="42.30598" lon="2.55057">
        <ele>912</ele>
        <time>2010-01-01T02:49:28Z</time>
      </trkpt>
      <trkpt lat="42.30596" lon="2.55063">
        <ele>910</ele>
        <time>2010-01-01T02:49:33Z</time>
      </trkpt>
      <trkpt lat="42.30601" lon="2.5508">
        <ele>910</ele>
        <time>2010-01-01T02:49:47Z</time>
      </trkpt>
      <trkpt lat="42.30604" lon="2.55095">
        <ele>911</ele>
        <time>2010-01-01T02:49:58Z</time>
      </trkpt>
      <trkpt lat="42.30609" lon="2.55102">
        <ele>914</ele>
        <time>2010-01-01T02:50:05Z</time>
      </trkpt>
      <trkpt lat="42.30607" lon="2.55101">
        <ele>913</ele>
        <time>2010-01-01T02:50:07Z</time>
      </trkpt>
      <trkpt lat="42.30603" lon="2.55088">
        <ele>911</ele>
        <time>2010-01-01T02:50:17Z</time>
      </trkpt>
      <trkpt lat="42.30606" lon="2.55075">
        <ele>914</ele>
        <time>2010-01-01T02:50:27Z</time>
      </trkpt>
      <trkpt lat="42.30612" lon="2.55084">
        <ele>918</ele>
        <time>2010-01-01T02:50:36Z</time>
      </trkpt>
      <trkpt lat="42.30618" lon="2.55079">
        <ele>920</ele>
        <time>2010-01-01T02:50:43Z</time>
      </trkpt>
      <trkpt lat="42.30617" lon="2.55063">
        <ele>922</ele>
        <time>2010-01-01T02:50:55Z</time>
      </trkpt>
      <trkpt lat="42.3062" lon="2.5505">
        <ele>926</ele>
        <time>2010-01-01T02:51:05Z</time>
      </trkpt>
      <trkpt lat="42.30623" lon="2.55044">
        <ele>928</ele>
        <time>2010-01-01T02:51:11Z</time>
      </trkpt>
      <trkpt lat="42.30624" lon="2.55033">
        <ele>932</ele>
        <time>2010-01-01T02:51:19Z</time>
      </trkpt>
      <trkpt lat="42.30628" lon="2.55034">
        <ele>933</ele>
        <time>2010-01-01T02:51:22Z</time>
      </trkpt>
      <trkpt lat="42.30629" lon="2.55037">
        <ele>933</ele>
        <time>2010-01-01T02:51:25Z</time>
      </trkpt>
      <trkpt lat="42.30633" lon="2.5504">
        <ele>934</ele>
        <time>2010-01-01T02:51:30Z</time>
      </trkpt>
      <trkpt lat="42.30637" lon="2.55036">
        <ele>937</ele>
        <time>2010-01-01T02:51:34Z</time>
      </trkpt>
      <trkpt lat="42.30641" lon="2.55048">
        <ele>936</ele>
        <time>2010-01-01T02:51:44Z</time>
      </trkpt>
      <trkpt lat="42.30645" lon="2.55056">
        <ele>936</ele>
        <time>2010-01-01T02:51:51Z</time>
      </trkpt>
      <trkpt lat="42.30647" lon="2.55048">
        <ele>940</ele>
        <time>2010-01-01T02:51:58Z</time>
      </trkpt>
      <trkpt lat="42.30647" lon="2.55038">
        <ele>942</ele>
        <time>2010-01-01T02:52:05Z</time>
      </trkpt>
      <trkpt lat="42.30651" lon="2.55033">
        <ele>946</ele>
        <time>2010-01-01T02:52:10Z</time>
      </trkpt>
      <trkpt lat="42.30652" lon="2.55017">
        <ele>951</ele>
        <time>2010-01-01T02:52:22Z</time>
      </trkpt>
      <trkpt lat="42.30648" lon="2.55004">
        <ele>953</ele>
        <time>2010-01-01T02:52:32Z</time>
      </trkpt>
      <trkpt lat="42.30646" lon="2.54995">
        <ele>952</ele>
        <time>2010-01-01T02:52:39Z</time>
      </trkpt>
      <trkpt lat="42.30642" lon="2.54983">
        <ele>950</ele>
        <time>2010-01-01T02:52:49Z</time>
      </trkpt>
      <trkpt lat="42.30639" lon="2.54971">
        <ele>948</ele>
        <time>2010-01-01T02:52:58Z</time>
      </trkpt>
      <trkpt lat="42.30639" lon="2.54964">
        <ele>948</ele>
        <time>2010-01-01T02:53:03Z</time>
      </trkpt>
      <trkpt lat="42.30642" lon="2.54951">
        <ele>949</ele>
        <time>2010-01-01T02:53:13Z</time>
      </trkpt>
      <trkpt lat="42.30648" lon="2.54943">
        <ele>954</ele>
        <time>2010-01-01T02:53:22Z</time>
      </trkpt>
      <trkpt lat="42.30651" lon="2.54946">
        <ele>957</ele>
        <time>2010-01-01T02:53:26Z</time>
      </trkpt>
      <trkpt lat="42.30652" lon="2.54947">
        <ele>958</ele>
        <time>2010-01-01T02:53:27Z</time>
      </trkpt>
      <trkpt lat="42.3066" lon="2.5496">
        <ele>964</ele>
        <time>2010-01-01T02:53:40Z</time>
      </trkpt>
      <trkpt lat="42.30664" lon="2.54967">
        <ele>968</ele>
        <time>2010-01-01T02:53:46Z</time>
      </trkpt>
      <trkpt lat="42.30666" lon="2.54979">
        <ele>969</ele>
        <time>2010-01-01T02:53:55Z</time>
      </trkpt>
      <trkpt lat="42.30671" lon="2.54992">
        <ele>970</ele>
        <time>2010-01-01T02:54:06Z</time>
      </trkpt>
      <trkpt lat="42.3068" lon="2.55007">
        <ele>973</ele>
        <time>2010-01-01T02:54:20Z</time>
      </trkpt>
      <trkpt lat="42.30688" lon="2.55019">
        <ele>976</ele>
        <time>2010-01-01T02:54:32Z</time>
      </trkpt>
      <trkpt lat="42.30696" lon="2.55026">
        <ele>980</ele>
        <time>2010-01-01T02:54:42Z</time>
      </trkpt>
      <trkpt lat="42.30702" lon="2.55034">
        <ele>981</ele>
        <time>2010-01-01T02:54:50Z</time>
      </trkpt>
      <trkpt lat="42.30707" lon="2.55041">
        <ele>982</ele>
        <time>2010-01-01T02:54:57Z</time>
      </trkpt>
      <trkpt lat="42.30715" lon="2.55047">
        <ele>985</ele>
        <time>2010-01-01T02:55:07Z</time>
      </trkpt>
      <trkpt lat="42.30722" lon="2.55054">
        <ele>988</ele>
        <time>2010-01-01T02:55:15Z</time>
      </trkpt>
      <trkpt lat="42.30727" lon="2.55052">
        <ele>991</ele>
        <time>2010-01-01T02:55:20Z</time>
      </trkpt>
      <trkpt lat="42.30728" lon="2.55039">
        <ele>994</ele>
        <time>2010-01-01T02:55:30Z</time>
      </trkpt>
      <trkpt lat="42.3073" lon="2.55041">
        <ele>996</ele>
        <time>2010-01-01T02:55:33Z</time>
      </trkpt>
      <trkpt lat="42.30732" lon="2.55044">
        <ele>997</ele>
        <time>2010-01-01T02:55:35Z</time>
      </trkpt>
      <trkpt lat="42.30739" lon="2.55054">
        <ele>999</ele>
        <time>2010-01-01T02:55:45Z</time>
      </trkpt>
      <trkpt lat="42.30742" lon="2.55059">
        <ele>1001</ele>
        <time>2010-01-01T02:55:50Z</time>
      </trkpt>
      <trkpt lat="42.30744" lon="2.55068">
        <ele>1001</ele>
        <time>2010-01-01T02:55:57Z</time>
      </trkpt>
      <trkpt lat="42.3075" lon="2.55079">
        <ele>1003</ele>
        <time>2010-01-01T02:56:07Z</time>
      </trkpt>
      <trkpt lat="42.30756" lon="2.55071">
        <ele>1008</ele>
        <time>2010-01-01T02:56:15Z</time>
      </trkpt>
      <trkpt lat="42.30756" lon="2.55067">
        <ele>1008</ele>
        <time>2010-01-01T02:56:18Z</time>
      </trkpt>
      <trkpt lat="42.30755" lon="2.55059">
        <ele>1009</ele>
        <time>2010-01-01T02:56:24Z</time>
      </trkpt>
      <trkpt lat="42.30752" lon="2.5505">
        <ele>1009</ele>
        <time>2010-01-01T02:56:31Z</time>
      </trkpt>
      <trkpt lat="42.30752" lon="2.55035">
        <ele>1012</ele>
        <time>2010-01-01T02:56:43Z</time>
      </trkpt>
      <trkpt lat="42.30751" lon="2.55034">
        <ele>1011</ele>
        <time>2010-01-01T02:56:43Z</time>
      </trkpt>
      <trkpt lat="42.3075" lon="2.55031">
        <ele>1011</ele>
        <time>2010-01-01T02:56:46Z</time>
      </trkpt>
      <trkpt lat="42.30748" lon="2.55013">
        <ele>1011</ele>
        <time>2010-01-01T02:56:59Z</time>
      </trkpt>
      <trkpt lat="42.30747" lon="2.54995">
        <ele>1011</ele>
        <time>2010-01-01T02:57:13Z</time>
      </trkpt>
      <trkpt lat="42.30745" lon="2.54975">
        <ele>1011</ele>
        <time>2010-01-01T02:57:28Z</time>
      </trkpt>
      <trkpt lat="42.30743" lon="2.54958">
        <ele>1009</ele>
        <time>2010-01-01T02:57:41Z</time>
      </trkpt>
      <trkpt lat="42.30746" lon="2.54946">
        <ele>1010</ele>
        <time>2010-01-01T02:57:50Z</time>
      </trkpt>
      <trkpt lat="42.3075" lon="2.54937">
        <ele>1012</ele>
        <time>2010-01-01T02:57:58Z</time>
      </trkpt>
      <trkpt lat="42.30756" lon="2.54931">
        <ele>1014</ele>
        <time>2010-01-01T02:58:05Z</time>
      </trkpt>
      <trkpt lat="42.30763" lon="2.5492">
        <ele>1015</ele>
        <time>2010-01-01T02:58:15Z</time>
      </trkpt>
      <trkpt lat="42.30772" lon="2.54912">
        <ele>1015</ele>
        <time>2010-01-01T02:58:27Z</time>
      </trkpt>
      <trkpt lat="42.30782" lon="2.54908">
        <ele>1016</ele>
        <time>2010-01-01T02:58:38Z</time>
      </trkpt>
      <trkpt lat="42.30796" lon="2.54904">
        <ele>1018</ele>
        <time>2010-01-01T02:58:52Z</time>
      </trkpt>
      <trkpt lat="42.30806" lon="2.54898">
        <ele>1018</ele>
        <time>2010-01-01T02:59:03Z</time>
      </trkpt>
      <trkpt lat="42.3082" lon="2.54896">
        <ele>1020</ele>
        <time>2010-01-01T02:59:16Z</time>
      </trkpt>
      <trkpt lat="42.30829" lon="2.54892">
        <ele>1021</ele>
        <time>2010-01-01T02:59:26Z</time>
      </trkpt>
      <trkpt lat="42.30846" lon="2.54883">
        <ele>1020</ele>
        <time>2010-01-01T02:59:44Z</time>
      </trkpt>
      <trkpt lat="42.30857" lon="2.54872">
        <ele>1018</ele>
        <time>2010-01-01T02:59:58Z</time>
      </trkpt>
      <trkpt lat="42.30862" lon="2.54868">
        <ele>1017</ele>
        <time>2010-01-01T03:00:04Z</time>
      </trkpt>
      <trkpt lat="42.30865" lon="2.54871">
        <ele>1019</ele>
        <time>2010-01-01T03:00:07Z</time>
      </trkpt>
      <trkpt lat="42.30867" lon="2.54873">
        <ele>1019</ele>
        <time>2010-01-01T03:00:10Z</time>
      </trkpt>
      <trkpt lat="42.30866" lon="2.54866">
        <ele>1017</ele>
        <time>2010-01-01T03:00:16Z</time>
      </trkpt>
      <trkpt lat="42.30871" lon="2.54859">
        <ele>1015</ele>
        <time>2010-01-01T03:00:22Z</time>
      </trkpt>
      <trkpt lat="42.30871" lon="2.54858">
        <ele>1015</ele>
        <time>2010-01-01T03:00:23Z</time>
      </trkpt>
      <trkpt lat="42.30868" lon="2.54865">
        <ele>1017</ele>
        <time>2010-01-01T03:00:29Z</time>
      </trkpt>
      <trkpt lat="42.30868" lon="2.54873">
        <ele>1019</ele>
        <time>2010-01-01T03:00:35Z</time>
      </trkpt>
      <trkpt lat="42.30874" lon="2.54874">
        <ele>1020</ele>
        <time>2010-01-01T03:00:41Z</time>
      </trkpt>
      <trkpt lat="42.30875" lon="2.54873">
        <ele>1020</ele>
        <time>2010-01-01T03:00:42Z</time>
      </trkpt>
      <trkpt lat="42.30868" lon="2.54873">
        <ele>1019</ele>
        <time>2010-01-01T03:00:49Z</time>
      </trkpt>
      <trkpt lat="42.30868" lon="2.54865">
        <ele>1017</ele>
        <time>2010-01-01T03:00:55Z</time>
      </trkpt>
      <trkpt lat="42.30871" lon="2.54857">
        <ele>1015</ele>
        <time>2010-01-01T03:01:02Z</time>
      </trkpt>
      <trkpt lat="42.30875" lon="2.54855">
        <ele>1015</ele>
        <time>2010-01-01T03:01:06Z</time>
      </trkpt>
      <trkpt lat="42.30885" lon="2.54859">
        <ele>1018</ele>
        <time>2010-01-01T03:01:17Z</time>
      </trkpt>
      <trkpt lat="42.30894" lon="2.54861">
        <ele>1018</ele>
        <time>2010-01-01T03:01:25Z</time>
      </trkpt>
      <trkpt lat="42.30902" lon="2.54864">
        <ele>1017</ele>
        <time>2010-01-01T03:01:33Z</time>
      </trkpt>
      <trkpt lat="42.30909" lon="2.5487">
        <ele>1018</ele>
        <time>2010-01-01T03:01:42Z</time>
      </trkpt>
      <trkpt lat="42.30917" lon="2.54877">
        <ele>1019</ele>
        <time>2010-01-01T03:01:51Z</time>
      </trkpt>
      <trkpt lat="42.30925" lon="2.54882">
        <ele>1018</ele>
        <time>2010-01-01T03:02:01Z</time>
      </trkpt>
      <trkpt lat="42.30936" lon="2.54879">
        <ele>1015</ele>
        <time>2010-01-01T03:02:12Z</time>
      </trkpt>
      <trkpt lat="42.30939" lon="2.54877">
        <ele>1013</ele>
        <time>2010-01-01T03:02:15Z</time>
      </trkpt>
      <trkpt lat="42.30949" lon="2.5488">
        <ele>1012</ele>
        <time>2010-01-01T03:02:25Z</time>
      </trkpt>
      <trkpt lat="42.30957" lon="2.54876">
        <ele>1008</ele>
        <time>2010-01-01T03:02:34Z</time>
      </trkpt>
      <trkpt lat="42.30961" lon="2.54874">
        <ele>1006</ele>
        <time>2010-01-01T03:02:38Z</time>
      </trkpt>
      <trkpt lat="42.30957" lon="2.54868">
        <ele>1005</ele>
        <time>2010-01-01T03:02:44Z</time>
      </trkpt>
      <trkpt lat="42.30953" lon="2.54863">
        <ele>1004</ele>
        <time>2010-01-01T03:02:49Z</time>
      </trkpt>
      <trkpt lat="42.30946" lon="2.54852">
        <ele>1001</ele>
        <time>2010-01-01T03:02:59Z</time>
      </trkpt>
      <trkpt lat="42.30956" lon="2.54852">
        <ele>998</ele>
        <time>2010-01-01T03:03:09Z</time>
      </trkpt>
      <trkpt lat="42.30962" lon="2.54851">
        <ele>995</ele>
        <time>2010-01-01T03:03:15Z</time>
      </trkpt>
      <trkpt lat="42.3097" lon="2.54852">
        <ele>993</ele>
        <time>2010-01-01T03:03:23Z</time>
      </trkpt>
      <trkpt lat="42.30981" lon="2.54852">
        <ele>988</ele>
        <time>2010-01-01T03:03:34Z</time>
      </trkpt>
      <trkpt lat="42.30973" lon="2.54842">
        <ele>987</ele>
        <time>2010-01-01T03:03:45Z</time>
      </trkpt>
      <trkpt lat="42.30973" lon="2.54836">
        <ele>984</ele>
        <time>2010-01-01T03:03:49Z</time>
      </trkpt>
      <trkpt lat="42.30982" lon="2.54839">
        <ele>982</ele>
        <time>2010-01-01T03:03:58Z</time>
      </trkpt>
      <trkpt lat="42.30994" lon="2.54844">
        <ele>979</ele>
        <time>2010-01-01T03:04:10Z</time>
      </trkpt>
      <trkpt lat="42.31005" lon="2.54847">
        <ele>976</ele>
        <time>2010-01-01T03:04:22Z</time>
      </trkpt>
      <trkpt lat="42.31016" lon="2.54851">
        <ele>973</ele>
        <time>2010-01-01T03:04:33Z</time>
      </trkpt>
      <trkpt lat="42.31027" lon="2.54858">
        <ele>971</ele>
        <time>2010-01-01T03:04:45Z</time>
      </trkpt>
      <trkpt lat="42.31036" lon="2.5487">
        <ele>973</ele>
        <time>2010-01-01T03:04:59Z</time>
      </trkpt>
      <trkpt lat="42.31043" lon="2.54874">
        <ele>972</ele>
        <time>2010-01-01T03:05:06Z</time>
      </trkpt>
      <trkpt lat="42.3105" lon="2.54871">
        <ele>968</ele>
        <time>2010-01-01T03:05:13Z</time>
      </trkpt>
      <trkpt lat="42.3106" lon="2.54868">
        <ele>964</ele>
        <time>2010-01-01T03:05:23Z</time>
      </trkpt>
      <trkpt lat="42.31068" lon="2.54869">
        <ele>964</ele>
        <time>2010-01-01T03:05:31Z</time>
      </trkpt>
      <trkpt lat="42.31074" lon="2.54871">
        <ele>963</ele>
        <time>2010-01-01T03:05:37Z</time>
      </trkpt>
      <trkpt lat="42.31087" lon="2.5487">
        <ele>963</ele>
        <time>2010-01-01T03:05:50Z</time>
      </trkpt>
      <trkpt lat="42.31088" lon="2.54871">
        <ele>963</ele>
        <time>2010-01-01T03:05:52Z</time>
      </trkpt>
      <trkpt lat="42.31099" lon="2.54866">
        <ele>962</ele>
        <time>2010-01-01T03:06:03Z</time>
      </trkpt>
      <trkpt lat="42.31104" lon="2.54854">
        <ele>959</ele>
        <time>2010-01-01T03:06:13Z</time>
      </trkpt>
      <trkpt lat="42.31112" lon="2.54835">
        <ele>954</ele>
        <time>2010-01-01T03:06:29Z</time>
      </trkpt>
      <trkpt lat="42.31115" lon="2.54827">
        <ele>952</ele>
        <time>2010-01-01T03:06:36Z</time>
      </trkpt>
      <trkpt lat="42.31126" lon="2.54816">
        <ele>949</ele>
        <time>2010-01-01T03:06:49Z</time>
      </trkpt>
      <trkpt lat="42.31135" lon="2.54801">
        <ele>945</ele>
        <time>2010-01-01T03:07:03Z</time>
      </trkpt>
      <trkpt lat="42.31149" lon="2.54794">
        <ele>944</ele>
        <time>2010-01-01T03:07:18Z</time>
      </trkpt>
      <trkpt lat="42.3115" lon="2.54794">
        <ele>944</ele>
        <time>2010-01-01T03:07:19Z</time>
      </trkpt>
      <trkpt lat="42.31153" lon="2.54793">
        <ele>945</ele>
        <time>2010-01-01T03:07:22Z</time>
      </trkpt>
      <trkpt lat="42.31165" lon="2.54789">
        <ele>944</ele>
        <time>2010-01-01T03:07:35Z</time>
      </trkpt>
      <trkpt lat="42.31178" lon="2.54783">
        <ele>943</ele>
        <time>2010-01-01T03:07:49Z</time>
      </trkpt>
      <trkpt lat="42.31196" lon="2.54785">
        <ele>945</ele>
        <time>2010-01-01T03:08:07Z</time>
      </trkpt>
      <trkpt lat="42.31209" lon="2.54786">
        <ele>946</ele>
        <time>2010-01-01T03:08:20Z</time>
      </trkpt>
      <trkpt lat="42.31218" lon="2.54794">
        <ele>951</ele>
        <time>2010-01-01T03:08:31Z</time>
      </trkpt>
      <trkpt lat="42.31226" lon="2.54794">
        <ele>950</ele>
        <time>2010-01-01T03:08:38Z</time>
      </trkpt>
      <trkpt lat="42.31226" lon="2.54793">
        <ele>950</ele>
        <time>2010-01-01T03:08:39Z</time>
      </trkpt>
      <trkpt lat="42.31225" lon="2.54794">
        <ele>950</ele>
        <time>2010-01-01T03:08:40Z</time>
      </trkpt>
      <trkpt lat="42.3123" lon="2.54795">
        <ele>950</ele>
        <time>2010-01-01T03:08:45Z</time>
      </trkpt>
      <trkpt lat="42.31233" lon="2.54794">
        <ele>949</ele>
        <time>2010-01-01T03:08:48Z</time>
      </trkpt>
      <trkpt lat="42.31244" lon="2.54795">
        <ele>947</ele>
        <time>2010-01-01T03:08:59Z</time>
      </trkpt>
      <trkpt lat="42.31259" lon="2.54803">
        <ele>946</ele>
        <time>2010-01-01T03:09:15Z</time>
      </trkpt>
      <trkpt lat="42.31261" lon="2.54804">
        <ele>946</ele>
        <time>2010-01-01T03:09:17Z</time>
      </trkpt>
      <trkpt lat="42.31268" lon="2.54807">
        <ele>945</ele>
        <time>2010-01-01T03:09:24Z</time>
      </trkpt>
      <trkpt lat="42.31273" lon="2.54809">
        <ele>944</ele>
        <time>2010-01-01T03:09:30Z</time>
      </trkpt>
      <trkpt lat="42.31281" lon="2.54814">
        <ele>942</ele>
        <time>2010-01-01T03:09:39Z</time>
      </trkpt>
      <trkpt lat="42.31294" lon="2.5482">
        <ele>939</ele>
        <time>2010-01-01T03:09:53Z</time>
      </trkpt>
      <trkpt lat="42.31302" lon="2.54828">
        <ele>939</ele>
        <time>2010-01-01T03:10:03Z</time>
      </trkpt>
      <trkpt lat="42.31319" lon="2.54844">
        <ele>941</ele>
        <time>2010-01-01T03:10:23Z</time>
      </trkpt>
      <trkpt lat="42.31323" lon="2.54848">
        <ele>942</ele>
        <time>2010-01-01T03:10:28Z</time>
      </trkpt>
      <trkpt lat="42.31336" lon="2.54858">
        <ele>942</ele>
        <time>2010-01-01T03:10:43Z</time>
      </trkpt>
      <trkpt lat="42.31346" lon="2.54863">
        <ele>941</ele>
        <time>2010-01-01T03:10:54Z</time>
      </trkpt>
      <trkpt lat="42.31353" lon="2.54872">
        <ele>942</ele>
        <time>2010-01-01T03:11:04Z</time>
      </trkpt>
      <trkpt lat="42.31366" lon="2.54887">
        <ele>941</ele>
        <time>2010-01-01T03:11:21Z</time>
      </trkpt>
      <trkpt lat="42.31381" lon="2.54895">
        <ele>936</ele>
        <time>2010-01-01T03:11:36Z</time>
      </trkpt>
      <trkpt lat="42.31388" lon="2.54911">
        <ele>936</ele>
        <time>2010-01-01T03:11:50Z</time>
      </trkpt>
      <trkpt lat="42.31396" lon="2.54921">
        <ele>935</ele>
        <time>2010-01-01T03:12:01Z</time>
      </trkpt>
      <trkpt lat="42.31403" lon="2.54933">
        <ele>934</ele>
        <time>2010-01-01T03:12:13Z</time>
      </trkpt>
      <trkpt lat="42.31408" lon="2.54947">
        <ele>934</ele>
        <time>2010-01-01T03:12:24Z</time>
      </trkpt>
      <trkpt lat="42.31407" lon="2.54966">
        <ele>939</ele>
        <time>2010-01-01T03:12:38Z</time>
      </trkpt>
      <trkpt lat="42.31407" lon="2.54974">
        <ele>940</ele>
        <time>2010-01-01T03:12:44Z</time>
      </trkpt>
      <trkpt lat="42.31417" lon="2.5497">
        <ele>936</ele>
        <time>2010-01-01T03:12:55Z</time>
      </trkpt>
      <trkpt lat="42.31422" lon="2.5497">
        <ele>935</ele>
        <time>2010-01-01T03:12:59Z</time>
      </trkpt>
      <trkpt lat="42.31436" lon="2.54967">
        <ele>931</ele>
        <time>2010-01-01T03:13:13Z</time>
      </trkpt>
      <trkpt lat="42.31452" lon="2.54972">
        <ele>928</ele>
        <time>2010-01-01T03:13:30Z</time>
      </trkpt>
      <trkpt lat="42.31463" lon="2.54977">
        <ele>927</ele>
        <time>2010-01-01T03:13:41Z</time>
      </trkpt>
      <trkpt lat="42.31473" lon="2.54982">
        <ele>926</ele>
        <time>2010-01-01T03:13:52Z</time>
      </trkpt>
      <trkpt lat="42.31477" lon="2.54987">
        <ele>926</ele>
        <time>2010-01-01T03:13:58Z</time>
      </trkpt>
      <trkpt lat="42.31481" lon="2.54992">
        <ele>926</ele>
        <time>2010-01-01T03:14:03Z</time>
      </trkpt>
      <trkpt lat="42.31493" lon="2.55">
        <ele>926</ele>
        <time>2010-01-01T03:14:16Z</time>
      </trkpt>
      <trkpt lat="42.31507" lon="2.55006">
        <ele>924</ele>
        <time>2010-01-01T03:14:31Z</time>
      </trkpt>
      <trkpt lat="42.3152" lon="2.55014">
        <ele>924</ele>
        <time>2010-01-01T03:14:45Z</time>
      </trkpt>
      <trkpt lat="42.31534" lon="2.55017">
        <ele>923</ele>
        <time>2010-01-01T03:15:00Z</time>
      </trkpt>
      <trkpt lat="42.31549" lon="2.55028">
        <ele>925</ele>
        <time>2010-01-01T03:15:16Z</time>
      </trkpt>
      <trkpt lat="42.3156" lon="2.5504">
        <ele>928</ele>
        <time>2010-01-01T03:15:31Z</time>
      </trkpt>
      <trkpt lat="42.31569" lon="2.55044">
        <ele>931</ele>
        <time>2010-01-01T03:15:40Z</time>
      </trkpt>
      <trkpt lat="42.31574" lon="2.55041">
        <ele>933</ele>
        <time>2010-01-01T03:15:45Z</time>
      </trkpt>
      <trkpt lat="42.31572" lon="2.55047">
        <ele>932</ele>
        <time>2010-01-01T03:15:50Z</time>
      </trkpt>
      <trkpt lat="42.31569" lon="2.55037">
        <ele>931</ele>
        <time>2010-01-01T03:15:59Z</time>
      </trkpt>
      <trkpt lat="42.31566" lon="2.55031">
        <ele>930</ele>
        <time>2010-01-01T03:16:04Z</time>
      </trkpt>
      <trkpt lat="42.3156" lon="2.55014">
        <ele>927</ele>
        <time>2010-01-01T03:16:18Z</time>
      </trkpt>
      <trkpt lat="42.31555" lon="2.55004">
        <ele>924</ele>
        <time>2010-01-01T03:16:26Z</time>
      </trkpt>
      <trkpt lat="42.31554" lon="2.55">
        <ele>923</ele>
        <time>2010-01-01T03:16:30Z</time>
      </trkpt>
      <trkpt lat="42.31549" lon="2.5499">
        <ele>924</ele>
        <time>2010-01-01T03:16:39Z</time>
      </trkpt>
      <trkpt lat="42.3154" lon="2.54977">
        <ele>923</ele>
        <time>2010-01-01T03:16:52Z</time>
      </trkpt>
      <trkpt lat="42.3153" lon="2.54956">
        <ele>921</ele>
        <time>2010-01-01T03:17:10Z</time>
      </trkpt>
      <trkpt lat="42.31524" lon="2.54935">
        <ele>919</ele>
        <time>2010-01-01T03:17:27Z</time>
      </trkpt>
      <trkpt lat="42.31519" lon="2.54919">
        <ele>919</ele>
        <time>2010-01-01T03:17:40Z</time>
      </trkpt>
      <trkpt lat="42.31518" lon="2.54914">
        <ele>918</ele>
        <time>2010-01-01T03:17:44Z</time>
      </trkpt>
      <trkpt lat="42.3151" lon="2.54902">
        <ele>916</ele>
        <time>2010-01-01T03:17:55Z</time>
      </trkpt>
      <trkpt lat="42.31505" lon="2.54893">
        <ele>914</ele>
        <time>2010-01-01T03:18:04Z</time>
      </trkpt>
      <trkpt lat="42.31503" lon="2.54888">
        <ele>914</ele>
        <time>2010-01-01T03:18:09Z</time>
      </trkpt>
      <trkpt lat="42.31498" lon="2.54875">
        <ele>912</ele>
        <time>2010-01-01T03:18:19Z</time>
      </trkpt>
      <trkpt lat="42.31492" lon="2.54868">
        <ele>911</ele>
        <time>2010-01-01T03:18:27Z</time>
      </trkpt>
      <trkpt lat="42.31491" lon="2.54866">
        <ele>911</ele>
        <time>2010-01-01T03:18:29Z</time>
      </trkpt>
      <trkpt lat="42.31487" lon="2.54853">
        <ele>911</ele>
        <time>2010-01-01T03:18:39Z</time>
      </trkpt>
      <trkpt lat="42.31481" lon="2.54832">
        <ele>914</ele>
        <time>2010-01-01T03:18:56Z</time>
      </trkpt>
      <trkpt lat="42.31474" lon="2.54814">
        <ele>913</ele>
        <time>2010-01-01T03:19:11Z</time>
      </trkpt>
      <trkpt lat="42.31465" lon="2.54798">
        <ele>910</ele>
        <time>2010-01-01T03:19:26Z</time>
      </trkpt>
      <trkpt lat="42.31462" lon="2.54784">
        <ele>908</ele>
        <time>2010-01-01T03:19:37Z</time>
      </trkpt>
      <trkpt lat="42.31457" lon="2.54771">
        <ele>906</ele>
        <time>2010-01-01T03:19:47Z</time>
      </trkpt>
      <trkpt lat="42.3145" lon="2.54754">
        <ele>903</ele>
        <time>2010-01-01T03:20:02Z</time>
      </trkpt>
      <trkpt lat="42.3145" lon="2.54751">
        <ele>903</ele>
        <time>2010-01-01T03:20:04Z</time>
      </trkpt>
      <trkpt lat="42.31442" lon="2.54734">
        <ele>901</ele>
        <time>2010-01-01T03:20:19Z</time>
      </trkpt>
      <trkpt lat="42.31445" lon="2.54714">
        <ele>906</ele>
        <time>2010-01-01T03:20:34Z</time>
      </trkpt>
      <trkpt lat="42.31445" lon="2.54705">
        <ele>907</ele>
        <time>2010-01-01T03:20:40Z</time>
      </trkpt>
      <trkpt lat="42.31442" lon="2.54689">
        <ele>907</ele>
        <time>2010-01-01T03:20:53Z</time>
      </trkpt>
      <trkpt lat="42.31442" lon="2.54677">
        <ele>908</ele>
        <time>2010-01-01T03:21:02Z</time>
      </trkpt>
      <trkpt lat="42.31436" lon="2.54667">
        <ele>904</ele>
        <time>2010-01-01T03:21:11Z</time>
      </trkpt>
      <trkpt lat="42.31425" lon="2.54654">
        <ele>894</ele>
        <time>2010-01-01T03:21:26Z</time>
      </trkpt>
      <trkpt lat="42.31413" lon="2.54639">
        <ele>881</ele>
        <time>2010-01-01T03:21:42Z</time>
      </trkpt>
      <trkpt lat="42.31411" lon="2.54635">
        <ele>878</ele>
        <time>2010-01-01T03:21:46Z</time>
      </trkpt>
      <trkpt lat="42.31405" lon="2.54609">
        <ele>868</ele>
        <time>2010-01-01T03:22:06Z</time>
      </trkpt>
      <trkpt lat="42.31404" lon="2.54591">
        <ele>872</ele>
        <time>2010-01-01T03:22:19Z</time>
      </trkpt>
      <trkpt lat="42.31404" lon="2.54576">
        <ele>879</ele>
        <time>2010-01-01T03:22:30Z</time>
      </trkpt>
      <trkpt lat="42.31403" lon="2.54563">
        <ele>884</ele>
        <time>2010-01-01T03:22:40Z</time>
      </trkpt>
      <trkpt lat="42.31398" lon="2.54548">
        <ele>885</ele>
        <time>2010-01-01T03:22:52Z</time>
      </trkpt>
      <trkpt lat="42.31392" lon="2.54529">
        <ele>886</ele>
        <time>2010-01-01T03:23:08Z</time>
      </trkpt>
      <trkpt lat="42.31388" lon="2.54514">
        <ele>885</ele>
        <time>2010-01-01T03:23:19Z</time>
      </trkpt>
      <trkpt lat="42.31388" lon="2.54513">
        <ele>885</ele>
        <time>2010-01-01T03:23:21Z</time>
      </trkpt>
      <trkpt lat="42.31387" lon="2.54496">
        <ele>884</ele>
        <time>2010-01-01T03:23:33Z</time>
      </trkpt>
      <trkpt lat="42.31393" lon="2.54482">
        <ele>887</ele>
        <time>2010-01-01T03:23:45Z</time>
      </trkpt>
      <trkpt lat="42.31398" lon="2.54471">
        <ele>890</ele>
        <time>2010-01-01T03:23:54Z</time>
      </trkpt>
      <trkpt lat="42.31402" lon="2.54465">
        <ele>894</ele>
        <time>2010-01-01T03:24:00Z</time>
      </trkpt>
      <trkpt lat="42.31404" lon="2.54459">
        <ele>895</ele>
        <time>2010-01-01T03:24:05Z</time>
      </trkpt>
      <trkpt lat="42.31413" lon="2.54448">
        <ele>903</ele>
        <time>2010-01-01T03:24:17Z</time>
      </trkpt>
      <trkpt lat="42.3142" lon="2.54439">
        <ele>907</ele>
        <time>2010-01-01T03:24:27Z</time>
      </trkpt>
      <trkpt lat="42.3143" lon="2.54415">
        <ele>910</ele>
        <time>2010-01-01T03:24:47Z</time>
      </trkpt>
      <trkpt lat="42.3143" lon="2.54407">
        <ele>909</ele>
        <time>2010-01-01T03:24:53Z</time>
      </trkpt>
      <trkpt lat="42.31428" lon="2.54394">
        <ele>907</ele>
        <time>2010-01-01T03:25:03Z</time>
      </trkpt>
      <trkpt lat="42.31428" lon="2.54386">
        <ele>906</ele>
        <time>2010-01-01T03:25:09Z</time>
      </trkpt>
      <trkpt lat="42.31429" lon="2.54381">
        <ele>907</ele>
        <time>2010-01-01T03:25:13Z</time>
      </trkpt>
      <trkpt lat="42.31427" lon="2.54375">
        <ele>906</ele>
        <time>2010-01-01T03:25:18Z</time>
      </trkpt>
      <trkpt lat="42.31424" lon="2.54368">
        <ele>904</ele>
        <time>2010-01-01T03:25:24Z</time>
      </trkpt>
      <trkpt lat="42.31423" lon="2.54367">
        <ele>904</ele>
        <time>2010-01-01T03:25:25Z</time>
      </trkpt>
      <trkpt lat="42.31424" lon="2.54366">
        <ele>904</ele>
        <time>2010-01-01T03:25:26Z</time>
      </trkpt>
      <trkpt lat="42.31426" lon="2.54357">
        <ele>906</ele>
        <time>2010-01-01T03:25:33Z</time>
      </trkpt>
      <trkpt lat="42.31424" lon="2.54353">
        <ele>906</ele>
        <time>2010-01-01T03:25:37Z</time>
      </trkpt>
      <trkpt lat="42.31412" lon="2.54337">
        <ele>907</ele>
        <time>2010-01-01T03:25:53Z</time>
      </trkpt>
      <trkpt lat="42.31396" lon="2.54328">
        <ele>905</ele>
        <time>2010-01-01T03:26:11Z</time>
      </trkpt>
      <trkpt lat="42.31375" lon="2.5432">
        <ele>901</ele>
        <time>2010-01-01T03:26:32Z</time>
      </trkpt>
      <trkpt lat="42.3136" lon="2.54309">
        <ele>900</ele>
        <time>2010-01-01T03:26:49Z</time>
      </trkpt>
      <trkpt lat="42.31352" lon="2.54294">
        <ele>899</ele>
        <time>2010-01-01T03:27:03Z</time>
      </trkpt>
      <trkpt lat="42.31348" lon="2.54279">
        <ele>901</ele>
        <time>2010-01-01T03:27:15Z</time>
      </trkpt>
      <trkpt lat="42.31345" lon="2.54266">
        <ele>902</ele>
        <time>2010-01-01T03:27:25Z</time>
      </trkpt>
      <trkpt lat="42.31343" lon="2.54256">
        <ele>904</ele>
        <time>2010-01-01T03:27:33Z</time>
      </trkpt>
      <trkpt lat="42.31335" lon="2.54235">
        <ele>904</ele>
        <time>2010-01-01T03:27:50Z</time>
      </trkpt>
      <trkpt lat="42.31331" lon="2.54226">
        <ele>904</ele>
        <time>2010-01-01T03:27:58Z</time>
      </trkpt>
      <trkpt lat="42.31321" lon="2.54212">
        <ele>903</ele>
        <time>2010-01-01T03:28:12Z</time>
      </trkpt>
      <trkpt lat="42.31313" lon="2.54199">
        <ele>902</ele>
        <time>2010-01-01T03:28:24Z</time>
      </trkpt>
      <trkpt lat="42.31304" lon="2.54173">
        <ele>905</ele>
        <time>2010-01-01T03:28:46Z</time>
      </trkpt>
      <trkpt lat="42.31292" lon="2.54149">
        <ele>904</ele>
        <time>2010-01-01T03:29:08Z</time>
      </trkpt>
      <trkpt lat="42.31287" lon="2.54142">
        <ele>903</ele>
        <time>2010-01-01T03:29:14Z</time>
      </trkpt>
      <trkpt lat="42.31283" lon="2.54135">
        <ele>902</ele>
        <time>2010-01-01T03:29:21Z</time>
      </trkpt>
      <trkpt lat="42.3128" lon="2.54131">
        <ele>902</ele>
        <time>2010-01-01T03:29:26Z</time>
      </trkpt>
      <trkpt lat="42.31276" lon="2.54119">
        <ele>902</ele>
        <time>2010-01-01T03:29:35Z</time>
      </trkpt>
      <trkpt lat="42.31272" lon="2.54103">
        <ele>900</ele>
        <time>2010-01-01T03:29:47Z</time>
      </trkpt>
      <trkpt lat="42.31273" lon="2.54076">
        <ele>899</ele>
        <time>2010-01-01T03:30:08Z</time>
      </trkpt>
      <trkpt lat="42.31275" lon="2.54064">
        <ele>898</ele>
        <time>2010-01-01T03:30:17Z</time>
      </trkpt>
      <trkpt lat="42.31276" lon="2.54061">
        <ele>898</ele>
        <time>2010-01-01T03:30:19Z</time>
      </trkpt>
      <trkpt lat="42.31281" lon="2.54042">
        <ele>897</ele>
        <time>2010-01-01T03:30:34Z</time>
      </trkpt>
      <trkpt lat="42.31285" lon="2.54025">
        <ele>896</ele>
        <time>2010-01-01T03:30:47Z</time>
      </trkpt>
      <trkpt lat="42.31297" lon="2.54002">
        <ele>893</ele>
        <time>2010-01-01T03:31:08Z</time>
      </trkpt>
      <trkpt lat="42.31306" lon="2.53991">
        <ele>892</ele>
        <time>2010-01-01T03:31:20Z</time>
      </trkpt>
      <trkpt lat="42.3131" lon="2.53988">
        <ele>892</ele>
        <time>2010-01-01T03:31:25Z</time>
      </trkpt>
      <trkpt lat="42.31314" lon="2.53992">
        <ele>892</ele>
        <time>2010-01-01T03:31:30Z</time>
      </trkpt>
      <trkpt lat="42.31326" lon="2.54004">
        <ele>892</ele>
        <time>2010-01-01T03:31:45Z</time>
      </trkpt>
      <trkpt lat="42.31331" lon="2.54007">
        <ele>892</ele>
        <time>2010-01-01T03:31:51Z</time>
      </trkpt>
      <trkpt lat="42.31338" lon="2.54013">
        <ele>893</ele>
        <time>2010-01-01T03:31:58Z</time>
      </trkpt>
      <trkpt lat="42.31359" lon="2.54021">
        <ele>896</ele>
        <time>2010-01-01T03:32:20Z</time>
      </trkpt>
      <trkpt lat="42.31368" lon="2.54019">
        <ele>897</ele>
        <time>2010-01-01T03:32:30Z</time>
      </trkpt>
      <trkpt lat="42.31376" lon="2.54015">
        <ele>897</ele>
        <time>2010-01-01T03:32:39Z</time>
      </trkpt>
      <trkpt lat="42.31396" lon="2.5401">
        <ele>897</ele>
        <time>2010-01-01T03:32:58Z</time>
      </trkpt>
      <trkpt lat="42.31416" lon="2.53999">
        <ele>894</ele>
        <time>2010-01-01T03:33:20Z</time>
      </trkpt>
      <trkpt lat="42.31422" lon="2.53999">
        <ele>894</ele>
        <time>2010-01-01T03:33:27Z</time>
      </trkpt>
      <trkpt lat="42.31426" lon="2.54">
        <ele>894</ele>
        <time>2010-01-01T03:33:31Z</time>
      </trkpt>
      <trkpt lat="42.31445" lon="2.5401">
        <ele>895</ele>
        <time>2010-01-01T03:33:51Z</time>
      </trkpt>
      <trkpt lat="42.31464" lon="2.5401">
        <ele>894</ele>
        <time>2010-01-01T03:34:10Z</time>
      </trkpt>
      <trkpt lat="42.31484" lon="2.54015">
        <ele>896</ele>
        <time>2010-01-01T03:34:30Z</time>
      </trkpt>
      <trkpt lat="42.31492" lon="2.54014">
        <ele>897</ele>
        <time>2010-01-01T03:34:38Z</time>
      </trkpt>
      <trkpt lat="42.31505" lon="2.54017">
        <ele>900</ele>
        <time>2010-01-01T03:34:52Z</time>
      </trkpt>
      <trkpt lat="42.31522" lon="2.54017">
        <ele>903</ele>
        <time>2010-01-01T03:35:09Z</time>
      </trkpt>
      <trkpt lat="42.3153" lon="2.54014">
        <ele>903</ele>
        <time>2010-01-01T03:35:17Z</time>
      </trkpt>
      <trkpt lat="42.31546" lon="2.54009">
        <ele>903</ele>
        <time>2010-01-01T03:35:33Z</time>
      </trkpt>
      <trkpt lat="42.3155" lon="2.54004">
        <ele>901</ele>
        <time>2010-01-01T03:35:39Z</time>
      </trkpt>
      <trkpt lat="42.31553" lon="2.53999">
        <ele>900</ele>
        <time>2010-01-01T03:35:44Z</time>
      </trkpt>
      <trkpt lat="42.31556" lon="2.53994">
        <ele>899</ele>
        <time>2010-01-01T03:35:49Z</time>
      </trkpt>
      <trkpt lat="42.31561" lon="2.53989">
        <ele>897</ele>
        <time>2010-01-01T03:35:54Z</time>
      </trkpt>
      <trkpt lat="42.31566" lon="2.53994">
        <ele>898</ele>
        <time>2010-01-01T03:36:00Z</time>
      </trkpt>
      <trkpt lat="42.3158" lon="2.54012">
        <ele>902</ele>
        <time>2010-01-01T03:36:20Z</time>
      </trkpt>
      <trkpt lat="42.31581" lon="2.54013">
        <ele>902</ele>
        <time>2010-01-01T03:36:20Z</time>
      </trkpt>
      <trkpt lat="42.31588" lon="2.54022">
        <ele>902</ele>
        <time>2010-01-01T03:36:30Z</time>
      </trkpt>
      <trkpt lat="42.31598" lon="2.54039">
        <ele>902</ele>
        <time>2010-01-01T03:36:47Z</time>
      </trkpt>
      <trkpt lat="42.31611" lon="2.54053">
        <ele>901</ele>
        <time>2010-01-01T03:37:03Z</time>
      </trkpt>
      <trkpt lat="42.31621" lon="2.54064">
        <ele>900</ele>
        <time>2010-01-01T03:37:16Z</time>
      </trkpt>
      <trkpt lat="42.31627" lon="2.54073">
        <ele>899</ele>
        <time>2010-01-01T03:37:25Z</time>
      </trkpt>
      <trkpt lat="42.31634" lon="2.5408">
        <ele>898</ele>
        <time>2010-01-01T03:37:34Z</time>
      </trkpt>
      <trkpt lat="42.3164" lon="2.54081">
        <ele>897</ele>
        <time>2010-01-01T03:37:40Z</time>
      </trkpt>
      <trkpt lat="42.31651" lon="2.54082">
        <ele>895</ele>
        <time>2010-01-01T03:37:51Z</time>
      </trkpt>
      <trkpt lat="42.31654" lon="2.54086">
        <ele>896</ele>
        <time>2010-01-01T03:37:55Z</time>
      </trkpt>
      <trkpt lat="42.31655" lon="2.54088">
        <ele>896</ele>
        <time>2010-01-01T03:37:57Z</time>
      </trkpt>
      <trkpt lat="42.3166" lon="2.54087">
        <ele>895</ele>
        <time>2010-01-01T03:38:02Z</time>
      </trkpt>
      <trkpt lat="42.31658" lon="2.54088">
        <ele>896</ele>
        <time>2010-01-01T03:38:05Z</time>
      </trkpt>
      <trkpt lat="42.31657" lon="2.5409">
        <ele>897</ele>
        <time>2010-01-01T03:38:07Z</time>
      </trkpt>
      <trkpt lat="42.31661" lon="2.54087">
        <ele>895</ele>
        <time>2010-01-01T03:38:11Z</time>
      </trkpt>
      <trkpt lat="42.31664" lon="2.54088">
        <ele>895</ele>
        <time>2010-01-01T03:38:14Z</time>
      </trkpt>
      <trkpt lat="42.31665" lon="2.54089">
        <ele>895</ele>
        <time>2010-01-01T03:38:15Z</time>
      </trkpt>
      <trkpt lat="42.31676" lon="2.54091">
        <ele>894</ele>
        <time>2010-01-01T03:38:26Z</time>
      </trkpt>
      <trkpt lat="42.31691" lon="2.54098">
        <ele>895</ele>
        <time>2010-01-01T03:38:42Z</time>
      </trkpt>
      <trkpt lat="42.31701" lon="2.54104">
        <ele>897</ele>
        <time>2010-01-01T03:38:53Z</time>
      </trkpt>
      <trkpt lat="42.31711" lon="2.54106">
        <ele>896</ele>
        <time>2010-01-01T03:39:04Z</time>
      </trkpt>
      <trkpt lat="42.31729" lon="2.54109">
        <ele>897</ele>
        <time>2010-01-01T03:39:21Z</time>
      </trkpt>
      <trkpt lat="42.31747" lon="2.54116">
        <ele>901</ele>
        <time>2010-01-01T03:39:40Z</time>
      </trkpt>
      <trkpt lat="42.31757" lon="2.54113">
        <ele>899</ele>
        <time>2010-01-01T03:39:50Z</time>
      </trkpt>
      <trkpt lat="42.3177" lon="2.54109">
        <ele>896</ele>
        <time>2010-01-01T03:40:03Z</time>
      </trkpt>
      <trkpt lat="42.3177" lon="2.54109">
        <ele>897</ele>
        <time>2010-01-01T03:40:04Z</time>
      </trkpt>
      <trkpt lat="42.31784" lon="2.54109">
        <ele>895</ele>
        <time>2010-01-01T03:40:18Z</time>
      </trkpt>
      <trkpt lat="42.31797" lon="2.5411">
        <ele>893</ele>
        <time>2010-01-01T03:40:30Z</time>
      </trkpt>
      <trkpt lat="42.31805" lon="2.5411">
        <ele>892</ele>
        <time>2010-01-01T03:40:38Z</time>
      </trkpt>
      <trkpt lat="42.31819" lon="2.54111">
        <ele>893</ele>
        <time>2010-01-01T03:40:53Z</time>
      </trkpt>
      <trkpt lat="42.31835" lon="2.54103">
        <ele>889</ele>
        <time>2010-01-01T03:41:09Z</time>
      </trkpt>
      <trkpt lat="42.3184" lon="2.541">
        <ele>887</ele>
        <time>2010-01-01T03:41:15Z</time>
      </trkpt>
      <trkpt lat="42.31853" lon="2.54098">
        <ele>886</ele>
        <time>2010-01-01T03:41:28Z</time>
      </trkpt>
      <trkpt lat="42.31864" lon="2.54085">
        <ele>880</ele>
        <time>2010-01-01T03:41:43Z</time>
      </trkpt>
      <trkpt lat="42.31874" lon="2.54075">
        <ele>875</ele>
        <time>2010-01-01T03:41:55Z</time>
      </trkpt>
      <trkpt lat="42.31882" lon="2.54069">
        <ele>874</ele>
        <time>2010-01-01T03:42:04Z</time>
      </trkpt>
      <trkpt lat="42.31894" lon="2.54058">
        <ele>871</ele>
        <time>2010-01-01T03:42:19Z</time>
      </trkpt>
      <trkpt lat="42.31903" lon="2.54032">
        <ele>862</ele>
        <time>2010-01-01T03:42:40Z</time>
      </trkpt>
      <trkpt lat="42.31919" lon="2.54031">
        <ele>864</ele>
        <time>2010-01-01T03:42:56Z</time>
      </trkpt>
      <trkpt lat="42.31937" lon="2.54031">
        <ele>863</ele>
        <time>2010-01-01T03:43:14Z</time>
      </trkpt>
      <trkpt lat="42.31956" lon="2.54041">
        <ele>864</ele>
        <time>2010-01-01T03:43:35Z</time>
      </trkpt>
      <trkpt lat="42.31971" lon="2.54053">
        <ele>868</ele>
        <time>2010-01-01T03:43:52Z</time>
      </trkpt>
      <trkpt lat="42.31979" lon="2.54054">
        <ele>867</ele>
        <time>2010-01-01T03:44:00Z</time>
      </trkpt>
      <trkpt lat="42.31999" lon="2.54056">
        <ele>862</ele>
        <time>2010-01-01T03:44:20Z</time>
      </trkpt>
      <trkpt lat="42.32012" lon="2.54063">
        <ele>862</ele>
        <time>2010-01-01T03:44:34Z</time>
      </trkpt>
      <trkpt lat="42.32026" lon="2.5407">
        <ele>860</ele>
        <time>2010-01-01T03:44:49Z</time>
      </trkpt>
      <trkpt lat="42.32036" lon="2.54078">
        <ele>857</ele>
        <time>2010-01-01T03:45:01Z</time>
      </trkpt>
      <trkpt lat="42.32039" lon="2.5409">
        <ele>861</ele>
        <time>2010-01-01T03:45:10Z</time>
      </trkpt>
      <trkpt lat="42.32049" lon="2.54111">
        <ele>864</ele>
        <time>2010-01-01T03:45:29Z</time>
      </trkpt>
      <trkpt lat="42.32056" lon="2.54127">
        <ele>867</ele>
        <time>2010-01-01T03:45:43Z</time>
      </trkpt>
      <trkpt lat="42.32062" lon="2.54145">
        <ele>871</ele>
        <time>2010-01-01T03:45:57Z</time>
      </trkpt>
      <trkpt lat="42.32072" lon="2.54161">
        <ele>874</ele>
        <time>2010-01-01T03:46:13Z</time>
      </trkpt>
      <trkpt lat="42.32082" lon="2.54169">
        <ele>874</ele>
        <time>2010-01-01T03:46:24Z</time>
      </trkpt>
      <trkpt lat="42.32096" lon="2.54182">
        <ele>874</ele>
        <time>2010-01-01T03:46:41Z</time>
      </trkpt>
      <trkpt lat="42.32111" lon="2.54195">
        <ele>873</ele>
        <time>2010-01-01T03:47:00Z</time>
      </trkpt>
      <trkpt lat="42.32112" lon="2.54196">
        <ele>873</ele>
        <time>2010-01-01T03:47:01Z</time>
      </trkpt>
      <trkpt lat="42.32127" lon="2.54213">
        <ele>875</ele>
        <time>2010-01-01T03:47:20Z</time>
      </trkpt>
      <trkpt lat="42.32139" lon="2.54224">
        <ele>876</ele>
        <time>2010-01-01T03:47:34Z</time>
      </trkpt>
      <trkpt lat="42.32159" lon="2.54238">
        <ele>876</ele>
        <time>2010-01-01T03:47:57Z</time>
      </trkpt>
      <trkpt lat="42.32171" lon="2.54256">
        <ele>879</ele>
        <time>2010-01-01T03:48:15Z</time>
      </trkpt>
      <trkpt lat="42.32184" lon="2.54262">
        <ele>878</ele>
        <time>2010-01-01T03:48:29Z</time>
      </trkpt>
      <trkpt lat="42.32189" lon="2.54268">
        <ele>878</ele>
        <time>2010-01-01T03:48:36Z</time>
      </trkpt>
      <trkpt lat="42.32195" lon="2.54273">
        <ele>878</ele>
        <time>2010-01-01T03:48:43Z</time>
      </trkpt>
      <trkpt lat="42.32202" lon="2.54276">
        <ele>879</ele>
        <time>2010-01-01T03:48:50Z</time>
      </trkpt>
      <trkpt lat="42.32216" lon="2.54276">
        <ele>879</ele>
        <time>2010-01-01T03:49:04Z</time>
      </trkpt>
      <trkpt lat="42.32223" lon="2.54276">
        <ele>880</ele>
        <time>2010-01-01T03:49:11Z</time>
      </trkpt>
      <trkpt lat="42.32238" lon="2.54267">
        <ele>881</ele>
        <time>2010-01-01T03:49:28Z</time>
      </trkpt>
      <trkpt lat="42.32252" lon="2.5426">
        <ele>882</ele>
        <time>2010-01-01T03:49:42Z</time>
      </trkpt>
      <trkpt lat="42.32258" lon="2.54259">
        <ele>884</ele>
        <time>2010-01-01T03:49:48Z</time>
      </trkpt>
      <trkpt lat="42.32271" lon="2.54241">
        <ele>878</ele>
        <time>2010-01-01T03:50:07Z</time>
      </trkpt>
      <trkpt lat="42.32276" lon="2.5424">
        <ele>878</ele>
        <time>2010-01-01T03:50:12Z</time>
      </trkpt>
      <trkpt lat="42.32278" lon="2.54241">
        <ele>879</ele>
        <time>2010-01-01T03:50:14Z</time>
      </trkpt>
      <trkpt lat="42.32284" lon="2.54234">
        <ele>876</ele>
        <time>2010-01-01T03:50:22Z</time>
      </trkpt>
      <trkpt lat="42.32287" lon="2.54229">
        <ele>874</ele>
        <time>2010-01-01T03:50:26Z</time>
      </trkpt>
      <trkpt lat="42.32291" lon="2.54225">
        <ele>871</ele>
        <time>2010-01-01T03:50:32Z</time>
      </trkpt>
      <trkpt lat="42.32299" lon="2.54213">
        <ele>867</ele>
        <time>2010-01-01T03:50:44Z</time>
      </trkpt>
      <trkpt lat="42.32305" lon="2.54206">
        <ele>865</ele>
        <time>2010-01-01T03:50:52Z</time>
      </trkpt>
      <trkpt lat="42.3231" lon="2.54203">
        <ele>865</ele>
        <time>2010-01-01T03:50:57Z</time>
      </trkpt>
      <trkpt lat="42.32313" lon="2.54201">
        <ele>864</ele>
        <time>2010-01-01T03:51:01Z</time>
      </trkpt>
      <trkpt lat="42.32319" lon="2.54197">
        <ele>864</ele>
        <time>2010-01-01T03:51:07Z</time>
      </trkpt>
      <trkpt lat="42.32321" lon="2.54201">
        <ele>866</ele>
        <time>2010-01-01T03:51:10Z</time>
      </trkpt>
      <trkpt lat="42.3232" lon="2.54209">
        <ele>870</ele>
        <time>2010-01-01T03:51:17Z</time>
      </trkpt>
      <trkpt lat="42.3233" lon="2.54207">
        <ele>871</ele>
        <time>2010-01-01T03:51:28Z</time>
      </trkpt>
      <trkpt lat="42.32333" lon="2.54212">
        <ele>874</ele>
        <time>2010-01-01T03:51:33Z</time>
      </trkpt>
      <trkpt lat="42.32341" lon="2.54231">
        <ele>882</ele>
        <time>2010-01-01T03:51:49Z</time>
      </trkpt>
      <trkpt lat="42.32354" lon="2.54249">
        <ele>888</ele>
        <time>2010-01-01T03:52:07Z</time>
      </trkpt>
      <trkpt lat="42.32362" lon="2.54266">
        <ele>893</ele>
        <time>2010-01-01T03:52:22Z</time>
      </trkpt>
      <trkpt lat="42.32366" lon="2.54281">
        <ele>896</ele>
        <time>2010-01-01T03:52:34Z</time>
      </trkpt>
      <trkpt lat="42.32371" lon="2.54295">
        <ele>896</ele>
        <time>2010-01-01T03:52:46Z</time>
      </trkpt>
      <trkpt lat="42.32374" lon="2.54308">
        <ele>897</ele>
        <time>2010-01-01T03:52:55Z</time>
      </trkpt>
      <trkpt lat="42.32374" lon="2.54321">
        <ele>900</ele>
        <time>2010-01-01T03:53:05Z</time>
      </trkpt>
      <trkpt lat="42.32377" lon="2.54324">
        <ele>900</ele>
        <time>2010-01-01T03:53:09Z</time>
      </trkpt>
      <trkpt lat="42.32385" lon="2.54338">
        <ele>900</ele>
        <time>2010-01-01T03:53:22Z</time>
      </trkpt>
      <trkpt lat="42.32387" lon="2.54344">
        <ele>901</ele>
        <time>2010-01-01T03:53:27Z</time>
      </trkpt>
      <trkpt lat="42.32392" lon="2.54361">
        <ele>903</ele>
        <time>2010-01-01T03:53:41Z</time>
      </trkpt>
      <trkpt lat="42.32394" lon="2.54373">
        <ele>905</ele>
        <time>2010-01-01T03:53:49Z</time>
      </trkpt>
      <trkpt lat="42.32396" lon="2.54391">
        <ele>907</ele>
        <time>2010-01-01T03:54:03Z</time>
      </trkpt>
      <trkpt lat="42.32398" lon="2.54408">
        <ele>908</ele>
        <time>2010-01-01T03:54:16Z</time>
      </trkpt>
      <trkpt lat="42.324" lon="2.54408">
        <ele>908</ele>
        <time>2010-01-01T03:54:18Z</time>
      </trkpt>
      <trkpt lat="42.32407" lon="2.54407">
        <ele>909</ele>
        <time>2010-01-01T03:54:25Z</time>
      </trkpt>
      <trkpt lat="42.32411" lon="2.54407">
        <ele>909</ele>
        <time>2010-01-01T03:54:29Z</time>
      </trkpt>
      <trkpt lat="42.32418" lon="2.54407">
        <ele>909</ele>
        <time>2010-01-01T03:54:36Z</time>
      </trkpt>
      <trkpt lat="42.32419" lon="2.54409">
        <ele>910</ele>
        <time>2010-01-01T03:54:37Z</time>
      </trkpt>
      <trkpt lat="42.32422" lon="2.54406">
        <ele>910</ele>
        <time>2010-01-01T03:54:41Z</time>
      </trkpt>
      <trkpt lat="42.32426" lon="2.54402">
        <ele>911</ele>
        <time>2010-01-01T03:54:46Z</time>
      </trkpt>
      <trkpt lat="42.32427" lon="2.54394">
        <ele>911</ele>
        <time>2010-01-01T03:54:52Z</time>
      </trkpt>
      <trkpt lat="42.32433" lon="2.54377">
        <ele>912</ele>
        <time>2010-01-01T03:55:06Z</time>
      </trkpt>
      <trkpt lat="42.32436" lon="2.5437">
        <ele>912</ele>
        <time>2010-01-01T03:55:12Z</time>
      </trkpt>
      <trkpt lat="42.32441" lon="2.54342">
        <ele>911</ele>
        <time>2010-01-01T03:55:33Z</time>
      </trkpt>
      <trkpt lat="42.32445" lon="2.5432">
        <ele>910</ele>
        <time>2010-01-01T03:55:50Z</time>
      </trkpt>
      <trkpt lat="42.32451" lon="2.54305">
        <ele>910</ele>
        <time>2010-01-01T03:56:03Z</time>
      </trkpt>
      <trkpt lat="42.32464" lon="2.54279">
        <ele>912</ele>
        <time>2010-01-01T03:56:26Z</time>
      </trkpt>
      <trkpt lat="42.32464" lon="2.54261">
        <ele>910</ele>
        <time>2010-01-01T03:56:40Z</time>
      </trkpt>
      <trkpt lat="42.32463" lon="2.54235">
        <ele>907</ele>
        <time>2010-01-01T03:56:58Z</time>
      </trkpt>
      <trkpt lat="42.32464" lon="2.54216">
        <ele>906</ele>
        <time>2010-01-01T03:57:13Z</time>
      </trkpt>
      <trkpt lat="42.32464" lon="2.54215">
        <ele>906</ele>
        <time>2010-01-01T03:57:14Z</time>
      </trkpt>
      <trkpt lat="42.32464" lon="2.5421">
        <ele>906</ele>
        <time>2010-01-01T03:57:17Z</time>
      </trkpt>
      <trkpt lat="42.32472" lon="2.54209">
        <ele>909</ele>
        <time>2010-01-01T03:57:25Z</time>
      </trkpt>
      <trkpt lat="42.32477" lon="2.54195">
        <ele>909</ele>
        <time>2010-01-01T03:57:36Z</time>
      </trkpt>
      <trkpt lat="42.32482" lon="2.54185">
        <ele>910</ele>
        <time>2010-01-01T03:57:46Z</time>
      </trkpt>
      <trkpt lat="42.32482" lon="2.54166">
        <ele>907</ele>
        <time>2010-01-01T03:57:59Z</time>
      </trkpt>
      <trkpt lat="42.32493" lon="2.54153">
        <ele>907</ele>
        <time>2010-01-01T03:58:14Z</time>
      </trkpt>
      <trkpt lat="42.32499" lon="2.54143">
        <ele>905</ele>
        <time>2010-01-01T03:58:24Z</time>
      </trkpt>
      <trkpt lat="42.32502" lon="2.54141">
        <ele>905</ele>
        <time>2010-01-01T03:58:26Z</time>
      </trkpt>
      <trkpt lat="42.32511" lon="2.54134">
        <ele>906</ele>
        <time>2010-01-01T03:58:37Z</time>
      </trkpt>
      <trkpt lat="42.32525" lon="2.54118">
        <ele>905</ele>
        <time>2010-01-01T03:58:56Z</time>
      </trkpt>
      <trkpt lat="42.32524" lon="2.54117">
        <ele>905</ele>
        <time>2010-01-01T03:58:57Z</time>
      </trkpt>
      <trkpt lat="42.32519" lon="2.54126">
        <ele>906</ele>
        <time>2010-01-01T03:59:05Z</time>
      </trkpt>
      <trkpt lat="42.32523" lon="2.54131">
        <ele>908</ele>
        <time>2010-01-01T03:59:11Z</time>
      </trkpt>
      <trkpt lat="42.32526" lon="2.54129">
        <ele>908</ele>
        <time>2010-01-01T03:59:14Z</time>
      </trkpt>
      <trkpt lat="42.32532" lon="2.54122">
        <ele>908</ele>
        <time>2010-01-01T03:59:22Z</time>
      </trkpt>
      <trkpt lat="42.32538" lon="2.5412">
        <ele>910</ele>
        <time>2010-01-01T03:59:28Z</time>
      </trkpt>
      <trkpt lat="42.3254" lon="2.54131">
        <ele>913</ele>
        <time>2010-01-01T03:59:36Z</time>
      </trkpt>
      <trkpt lat="42.32536" lon="2.54139">
        <ele>914</ele>
        <time>2010-01-01T03:59:43Z</time>
      </trkpt>
      <trkpt lat="42.32535" lon="2.54148">
        <ele>915</ele>
        <time>2010-01-01T03:59:49Z</time>
      </trkpt>
      <trkpt lat="42.32537" lon="2.54145">
        <ele>915</ele>
        <time>2010-01-01T03:59:52Z</time>
      </trkpt>
      <trkpt lat="42.32537" lon="2.54145">
        <ele>916</ele>
        <time>2010-01-01T03:59:52Z</time>
      </trkpt>
      <trkpt lat="42.32536" lon="2.54146">
        <ele>915</ele>
        <time>2010-01-01T03:59:54Z</time>
      </trkpt>
      <trkpt lat="42.32537" lon="2.54147">
        <ele>916</ele>
        <time>2010-01-01T03:59:55Z</time>
      </trkpt>
      <trkpt lat="42.32536" lon="2.54145">
        <ele>915</ele>
        <time>2010-01-01T03:59:57Z</time>
      </trkpt>
      <trkpt lat="42.32538" lon="2.54146">
        <ele>916</ele>
        <time>2010-01-01T04:00:00Z</time>
      </trkpt>
      <trkpt lat="42.3254" lon="2.54146">
        <ele>917</ele>
        <time>2010-01-01T04:00:02Z</time>
      </trkpt>
      <trkpt lat="42.32547" lon="2.54142">
        <ele>919</ele>
        <time>2010-01-01T04:00:09Z</time>
      </trkpt>
      <trkpt lat="42.3255" lon="2.54139">
        <ele>919</ele>
        <time>2010-01-01T04:00:12Z</time>
      </trkpt>
      <trkpt lat="42.32556" lon="2.54121">
        <ele>917</ele>
        <time>2010-01-01T04:00:28Z</time>
      </trkpt>
      <trkpt lat="42.32561" lon="2.54116">
        <ele>918</ele>
        <time>2010-01-01T04:00:33Z</time>
      </trkpt>
      <trkpt lat="42.3257" lon="2.54104">
        <ele>917</ele>
        <time>2010-01-01T04:00:46Z</time>
      </trkpt>
      <trkpt lat="42.3258" lon="2.5409">
        <ele>916</ele>
        <time>2010-01-01T04:01:00Z</time>
      </trkpt>
      <trkpt lat="42.32582" lon="2.54089">
        <ele>917</ele>
        <time>2010-01-01T04:01:03Z</time>
      </trkpt>
      <trkpt lat="42.32598" lon="2.54075">
        <ele>918</ele>
        <time>2010-01-01T04:01:22Z</time>
      </trkpt>
      <trkpt lat="42.32599" lon="2.54075">
        <ele>918</ele>
        <time>2010-01-01T04:01:23Z</time>
      </trkpt>
      <trkpt lat="42.32604" lon="2.54066">
        <ele>918</ele>
        <time>2010-01-01T04:01:31Z</time>
      </trkpt>
      <trkpt lat="42.32603" lon="2.54062">
        <ele>916</ele>
        <time>2010-01-01T04:01:34Z</time>
      </trkpt>
      <trkpt lat="42.32616" lon="2.5406">
        <ele>920</ele>
        <time>2010-01-01T04:01:48Z</time>
      </trkpt>
      <trkpt lat="42.32617" lon="2.5406">
        <ele>920</ele>
        <time>2010-01-01T04:01:49Z</time>
      </trkpt>
      <trkpt lat="42.32624" lon="2.54059">
        <ele>923</ele>
        <time>2010-01-01T04:01:56Z</time>
      </trkpt>
      <trkpt lat="42.3263" lon="2.54061">
        <ele>925</ele>
        <time>2010-01-01T04:02:02Z</time>
      </trkpt>
      <trkpt lat="42.32635" lon="2.54059">
        <ele>926</ele>
        <time>2010-01-01T04:02:07Z</time>
      </trkpt>
      <trkpt lat="42.32643" lon="2.54056">
        <ele>928</ele>
        <time>2010-01-01T04:02:16Z</time>
      </trkpt>
      <trkpt lat="42.32655" lon="2.54045">
        <ele>927</ele>
        <time>2010-01-01T04:02:30Z</time>
      </trkpt>
      <trkpt lat="42.32659" lon="2.54042">
        <ele>927</ele>
        <time>2010-01-01T04:02:35Z</time>
      </trkpt>
      <trkpt lat="42.32665" lon="2.54037">
        <ele>926</ele>
        <time>2010-01-01T04:02:42Z</time>
      </trkpt>
      <trkpt lat="42.32673" lon="2.54034">
        <ele>926</ele>
        <time>2010-01-01T04:02:50Z</time>
      </trkpt>
      <trkpt lat="42.32683" lon="2.54032">
        <ele>927</ele>
        <time>2010-01-01T04:03:00Z</time>
      </trkpt>
      <trkpt lat="42.32701" lon="2.54025">
        <ele>929</ele>
        <time>2010-01-01T04:03:19Z</time>
      </trkpt>
      <trkpt lat="42.32718" lon="2.54017">
        <ele>933</ele>
        <time>2010-01-01T04:03:36Z</time>
      </trkpt>
      <trkpt lat="42.32736" lon="2.54002">
        <ele>936</ele>
        <time>2010-01-01T04:03:58Z</time>
      </trkpt>
      <trkpt lat="42.32745" lon="2.53993">
        <ele>939</ele>
        <time>2010-01-01T04:04:09Z</time>
      </trkpt>
      <trkpt lat="42.3274" lon="2.53965">
        <ele>935</ele>
        <time>2010-01-01T04:04:31Z</time>
      </trkpt>
      <trkpt lat="42.3274" lon="2.53962">
        <ele>935</ele>
        <time>2010-01-01T04:04:33Z</time>
      </trkpt>
      <trkpt lat="42.3274" lon="2.53947">
        <ele>936</ele>
        <time>2010-01-01T04:04:44Z</time>
      </trkpt>
      <trkpt lat="42.32738" lon="2.53929">
        <ele>937</ele>
        <time>2010-01-01T04:04:58Z</time>
      </trkpt>
      <trkpt lat="42.32737" lon="2.53927">
        <ele>937</ele>
        <time>2010-01-01T04:04:59Z</time>
      </trkpt>
      <trkpt lat="42.32735" lon="2.53929">
        <ele>935</ele>
        <time>2010-01-01T04:05:02Z</time>
      </trkpt>
      <trkpt lat="42.32734" lon="2.53926">
        <ele>936</ele>
        <time>2010-01-01T04:05:04Z</time>
      </trkpt>
      <trkpt lat="42.32729" lon="2.53924">
        <ele>933</ele>
        <time>2010-01-01T04:05:10Z</time>
      </trkpt>
      <trkpt lat="42.32713" lon="2.53919">
        <ele>928</ele>
        <time>2010-01-01T04:05:26Z</time>
      </trkpt>
      <trkpt lat="42.32711" lon="2.53918">
        <ele>927</ele>
        <time>2010-01-01T04:05:29Z</time>
      </trkpt>
      <trkpt lat="42.32704" lon="2.53914">
        <ele>926</ele>
        <time>2010-01-01T04:05:36Z</time>
      </trkpt>
      <trkpt lat="42.32691" lon="2.53905">
        <ele>926</ele>
        <time>2010-01-01T04:05:51Z</time>
      </trkpt>
      <trkpt lat="42.32682" lon="2.53885">
        <ele>929</ele>
        <time>2010-01-01T04:06:08Z</time>
      </trkpt>
      <trkpt lat="42.32681" lon="2.53878">
        <ele>930</ele>
        <time>2010-01-01T04:06:13Z</time>
      </trkpt>
      <trkpt lat="42.32677" lon="2.53861">
        <ele>933</ele>
        <time>2010-01-01T04:06:26Z</time>
      </trkpt>
      <trkpt lat="42.32671" lon="2.53851">
        <ele>933</ele>
        <time>2010-01-01T04:06:36Z</time>
      </trkpt>
      <trkpt lat="42.32669" lon="2.53846">
        <ele>933</ele>
        <time>2010-01-01T04:06:40Z</time>
      </trkpt>
      <trkpt lat="42.32663" lon="2.53835">
        <ele>933</ele>
        <time>2010-01-01T04:06:50Z</time>
      </trkpt>
      <trkpt lat="42.32645" lon="2.53836">
        <ele>928</ele>
        <time>2010-01-01T04:07:08Z</time>
      </trkpt>
      <trkpt lat="42.32628" lon="2.53841">
        <ele>922</ele>
        <time>2010-01-01T04:07:26Z</time>
      </trkpt>
      <trkpt lat="42.32625" lon="2.53841">
        <ele>921</ele>
        <time>2010-01-01T04:07:29Z</time>
      </trkpt>
      <trkpt lat="42.32616" lon="2.5384">
        <ele>919</ele>
        <time>2010-01-01T04:07:38Z</time>
      </trkpt>
      <trkpt lat="42.32613" lon="2.53833">
        <ele>919</ele>
        <time>2010-01-01T04:07:44Z</time>
      </trkpt>
      <trkpt lat="42.32598" lon="2.5382">
        <ele>919</ele>
        <time>2010-01-01T04:08:02Z</time>
      </trkpt>
      <trkpt lat="42.32591" lon="2.53801">
        <ele>923</ele>
        <time>2010-01-01T04:08:18Z</time>
      </trkpt>
      <trkpt lat="42.32586" lon="2.53785">
        <ele>926</ele>
        <time>2010-01-01T04:08:31Z</time>
      </trkpt>
      <trkpt lat="42.32584" lon="2.53772">
        <ele>928</ele>
        <time>2010-01-01T04:08:40Z</time>
      </trkpt>
      <trkpt lat="42.32585" lon="2.53757">
        <ele>933</ele>
        <time>2010-01-01T04:08:52Z</time>
      </trkpt>
      <trkpt lat="42.32577" lon="2.53749">
        <ele>933</ele>
        <time>2010-01-01T04:09:02Z</time>
      </trkpt>
      <trkpt lat="42.32572" lon="2.53743">
        <ele>932</ele>
        <time>2010-01-01T04:09:09Z</time>
      </trkpt>
      <trkpt lat="42.32561" lon="2.53737">
        <ele>930</ele>
        <time>2010-01-01T04:09:20Z</time>
      </trkpt>
      <trkpt lat="42.32552" lon="2.53725">
        <ele>930</ele>
        <time>2010-01-01T04:09:32Z</time>
      </trkpt>
      <trkpt lat="42.3255" lon="2.53723">
        <ele>931</ele>
        <time>2010-01-01T04:09:35Z</time>
      </trkpt>
      <trkpt lat="42.32545" lon="2.53717">
        <ele>932</ele>
        <time>2010-01-01T04:09:42Z</time>
      </trkpt>
      <trkpt lat="42.32541" lon="2.53712">
        <ele>933</ele>
        <time>2010-01-01T04:09:47Z</time>
      </trkpt>
      <trkpt lat="42.3254" lon="2.537">
        <ele>936</ele>
        <time>2010-01-01T04:09:56Z</time>
      </trkpt>
      <trkpt lat="42.32543" lon="2.53697">
        <ele>937</ele>
        <time>2010-01-01T04:10:00Z</time>
      </trkpt>
      <trkpt lat="42.32545" lon="2.537">
        <ele>937</ele>
        <time>2010-01-01T04:10:03Z</time>
      </trkpt>
      <trkpt lat="42.32554" lon="2.537">
        <ele>938</ele>
        <time>2010-01-01T04:10:11Z</time>
      </trkpt>
      <trkpt lat="42.32551" lon="2.53691">
        <ele>940</ele>
        <time>2010-01-01T04:10:19Z</time>
      </trkpt>
      <trkpt lat="42.32549" lon="2.53682">
        <ele>943</ele>
        <time>2010-01-01T04:10:26Z</time>
      </trkpt>
      <trkpt lat="42.32548" lon="2.53671">
        <ele>946</ele>
        <time>2010-01-01T04:10:34Z</time>
      </trkpt>
      <trkpt lat="42.32548" lon="2.53669">
        <ele>946</ele>
        <time>2010-01-01T04:10:35Z</time>
      </trkpt>
      <trkpt lat="42.32543" lon="2.53662">
        <ele>948</ele>
        <time>2010-01-01T04:10:42Z</time>
      </trkpt>
      <trkpt lat="42.32541" lon="2.53655">
        <ele>950</ele>
        <time>2010-01-01T04:10:48Z</time>
      </trkpt>
      <trkpt lat="42.32537" lon="2.53649">
        <ele>951</ele>
        <time>2010-01-01T04:10:54Z</time>
      </trkpt>
      <trkpt lat="42.32529" lon="2.5364">
        <ele>952</ele>
        <time>2010-01-01T04:11:05Z</time>
      </trkpt>
      <trkpt lat="42.32518" lon="2.53634">
        <ele>954</ele>
        <time>2010-01-01T04:11:16Z</time>
      </trkpt>
      <trkpt lat="42.3251" lon="2.5363">
        <ele>956</ele>
        <time>2010-01-01T04:11:25Z</time>
      </trkpt>
      <trkpt lat="42.32502" lon="2.53626">
        <ele>958</ele>
        <time>2010-01-01T04:11:33Z</time>
      </trkpt>
      <trkpt lat="42.32498" lon="2.5362">
        <ele>960</ele>
        <time>2010-01-01T04:11:39Z</time>
      </trkpt>
      <trkpt lat="42.32492" lon="2.5361">
        <ele>965</ele>
        <time>2010-01-01T04:11:49Z</time>
      </trkpt>
      <trkpt lat="42.32491" lon="2.53601">
        <ele>967</ele>
        <time>2010-01-01T04:11:55Z</time>
      </trkpt>
      <trkpt lat="42.32484" lon="2.53592">
        <ele>970</ele>
        <time>2010-01-01T04:12:05Z</time>
      </trkpt>
      <trkpt lat="42.32482" lon="2.53583">
        <ele>972</ele>
        <time>2010-01-01T04:12:12Z</time>
      </trkpt>
      <trkpt lat="42.32482" lon="2.53581">
        <ele>972</ele>
        <time>2010-01-01T04:12:13Z</time>
      </trkpt>
      <trkpt lat="42.32481" lon="2.53574">
        <ele>975</ele>
        <time>2010-01-01T04:12:19Z</time>
      </trkpt>
      <trkpt lat="42.32478" lon="2.53567">
        <ele>977</ele>
        <time>2010-01-01T04:12:25Z</time>
      </trkpt>
      <trkpt lat="42.32474" lon="2.53561">
        <ele>980</ele>
        <time>2010-01-01T04:12:31Z</time>
      </trkpt>
      <trkpt lat="42.32473" lon="2.53561">
        <ele>980</ele>
        <time>2010-01-01T04:12:32Z</time>
      </trkpt>
      <trkpt lat="42.32473" lon="2.53551">
        <ele>983</ele>
        <time>2010-01-01T04:12:39Z</time>
      </trkpt>
      <trkpt lat="42.32476" lon="2.53537">
        <ele>987</ele>
        <time>2010-01-01T04:12:50Z</time>
      </trkpt>
      <trkpt lat="42.32478" lon="2.53526">
        <ele>990</ele>
        <time>2010-01-01T04:12:58Z</time>
      </trkpt>
      <trkpt lat="42.32478" lon="2.53521">
        <ele>991</ele>
        <time>2010-01-01T04:13:02Z</time>
      </trkpt>
      <trkpt lat="42.32479" lon="2.53509">
        <ele>994</ele>
        <time>2010-01-01T04:13:11Z</time>
      </trkpt>
      <trkpt lat="42.32477" lon="2.53501">
        <ele>996</ele>
        <time>2010-01-01T04:13:17Z</time>
      </trkpt>
      <trkpt lat="42.32479" lon="2.5349">
        <ele>997</ele>
        <time>2010-01-01T04:13:25Z</time>
      </trkpt>
      <trkpt lat="42.32481" lon="2.5348">
        <ele>999</ele>
        <time>2010-01-01T04:13:33Z</time>
      </trkpt>
      <trkpt lat="42.32485" lon="2.5347">
        <ele>1000</ele>
        <time>2010-01-01T04:13:41Z</time>
      </trkpt>
      <trkpt lat="42.3248" lon="2.53467">
        <ele>1001</ele>
        <time>2010-01-01T04:13:47Z</time>
      </trkpt>
      <trkpt lat="42.32478" lon="2.53453">
        <ele>1002</ele>
        <time>2010-01-01T04:13:57Z</time>
      </trkpt>
      <trkpt lat="42.3247" lon="2.53435">
        <ele>1001</ele>
        <time>2010-01-01T04:14:13Z</time>
      </trkpt>
      <trkpt lat="42.32471" lon="2.53412">
        <ele>1000</ele>
        <time>2010-01-01T04:14:29Z</time>
      </trkpt>
      <trkpt lat="42.32478" lon="2.53398">
        <ele>998</ele>
        <time>2010-01-01T04:14:41Z</time>
      </trkpt>
      <trkpt lat="42.32483" lon="2.53396">
        <ele>1000</ele>
        <time>2010-01-01T04:14:47Z</time>
      </trkpt>
      <trkpt lat="42.32496" lon="2.53384">
        <ele>1004</ele>
        <time>2010-01-01T04:15:03Z</time>
      </trkpt>
      <trkpt lat="42.32507" lon="2.53376">
        <ele>1007</ele>
        <time>2010-01-01T04:15:16Z</time>
      </trkpt>
      <trkpt lat="42.3251" lon="2.53373">
        <ele>1008</ele>
        <time>2010-01-01T04:15:19Z</time>
      </trkpt>
      <trkpt lat="42.32515" lon="2.53373">
        <ele>1010</ele>
        <time>2010-01-01T04:15:24Z</time>
      </trkpt>
      <trkpt lat="42.32518" lon="2.53377">
        <ele>1011</ele>
        <time>2010-01-01T04:15:29Z</time>
      </trkpt>
      <trkpt lat="42.32525" lon="2.53372">
        <ele>1013</ele>
        <time>2010-01-01T04:15:36Z</time>
      </trkpt>
      <trkpt lat="42.32533" lon="2.53375">
        <ele>1015</ele>
        <time>2010-01-01T04:15:45Z</time>
      </trkpt>
      <trkpt lat="42.32545" lon="2.5338">
        <ele>1019</ele>
        <time>2010-01-01T04:15:58Z</time>
      </trkpt>
      <trkpt lat="42.32546" lon="2.5338">
        <ele>1019</ele>
        <time>2010-01-01T04:15:58Z</time>
      </trkpt>
      <trkpt lat="42.32548" lon="2.53377">
        <ele>1020</ele>
        <time>2010-01-01T04:16:01Z</time>
      </trkpt>
      <trkpt lat="42.32553" lon="2.53367">
        <ele>1021</ele>
        <time>2010-01-01T04:16:10Z</time>
      </trkpt>
      <trkpt lat="42.32558" lon="2.53359">
        <ele>1022</ele>
        <time>2010-01-01T04:16:18Z</time>
      </trkpt>
      <trkpt lat="42.3256" lon="2.53358">
        <ele>1023</ele>
        <time>2010-01-01T04:16:20Z</time>
      </trkpt>
      <trkpt lat="42.32569" lon="2.53364">
        <ele>1027</ele>
        <time>2010-01-01T04:16:30Z</time>
      </trkpt>
      <trkpt lat="42.32576" lon="2.53371">
        <ele>1030</ele>
        <time>2010-01-01T04:16:39Z</time>
      </trkpt>
      <trkpt lat="42.32578" lon="2.5337">
        <ele>1031</ele>
        <time>2010-01-01T04:16:41Z</time>
      </trkpt>
      <trkpt lat="42.32586" lon="2.53366">
        <ele>1035</ele>
        <time>2010-01-01T04:16:50Z</time>
      </trkpt>
      <trkpt lat="42.32591" lon="2.53363">
        <ele>1036</ele>
        <time>2010-01-01T04:16:55Z</time>
      </trkpt>
      <trkpt lat="42.32594" lon="2.53365">
        <ele>1037</ele>
        <time>2010-01-01T04:16:58Z</time>
      </trkpt>
      <trkpt lat="42.32599" lon="2.53371">
        <ele>1039</ele>
        <time>2010-01-01T04:17:04Z</time>
      </trkpt>
      <trkpt lat="42.32612" lon="2.53365">
        <ele>1043</ele>
        <time>2010-01-01T04:17:18Z</time>
      </trkpt>
      <trkpt lat="42.32617" lon="2.5336">
        <ele>1046</ele>
        <time>2010-01-01T04:17:24Z</time>
      </trkpt>
      <trkpt lat="42.3262" lon="2.53362">
        <ele>1048</ele>
        <time>2010-01-01T04:17:28Z</time>
      </trkpt>
      <trkpt lat="42.3263" lon="2.53356">
        <ele>1053</ele>
        <time>2010-01-01T04:17:39Z</time>
      </trkpt>
      <trkpt lat="42.32639" lon="2.53345">
        <ele>1057</ele>
        <time>2010-01-01T04:17:51Z</time>
      </trkpt>
      <trkpt lat="42.32647" lon="2.53337">
        <ele>1062</ele>
        <time>2010-01-01T04:18:01Z</time>
      </trkpt>
      <trkpt lat="42.32652" lon="2.53332">
        <ele>1064</ele>
        <time>2010-01-01T04:18:07Z</time>
      </trkpt>
      <trkpt lat="42.32656" lon="2.53334">
        <ele>1067</ele>
        <time>2010-01-01T04:18:11Z</time>
      </trkpt>
      <trkpt lat="42.3266" lon="2.53323">
        <ele>1068</ele>
        <time>2010-01-01T04:18:20Z</time>
      </trkpt>
      <trkpt lat="42.32665" lon="2.53329">
        <ele>1073</ele>
        <time>2010-01-01T04:18:26Z</time>
      </trkpt>
      <trkpt lat="42.32672" lon="2.53335">
        <ele>1078</ele>
        <time>2010-01-01T04:18:34Z</time>
      </trkpt>
      <trkpt lat="42.32677" lon="2.53325">
        <ele>1080</ele>
        <time>2010-01-01T04:18:43Z</time>
      </trkpt>
      <trkpt lat="42.32679" lon="2.53323">
        <ele>1080</ele>
        <time>2010-01-01T04:18:46Z</time>
      </trkpt>
      <trkpt lat="42.32688" lon="2.53318">
        <ele>1085</ele>
        <time>2010-01-01T04:18:55Z</time>
      </trkpt>
      <trkpt lat="42.32691" lon="2.53317">
        <ele>1087</ele>
        <time>2010-01-01T04:18:59Z</time>
      </trkpt>
      <trkpt lat="42.32692" lon="2.53313">
        <ele>1087</ele>
        <time>2010-01-01T04:19:02Z</time>
      </trkpt>
      <trkpt lat="42.327" lon="2.53303">
        <ele>1090</ele>
        <time>2010-01-01T04:19:12Z</time>
      </trkpt>
      <trkpt lat="42.32705" lon="2.53296">
        <ele>1091</ele>
        <time>2010-01-01T04:19:20Z</time>
      </trkpt>
      <trkpt lat="42.32709" lon="2.53289">
        <ele>1092</ele>
        <time>2010-01-01T04:19:26Z</time>
      </trkpt>
      <trkpt lat="42.32715" lon="2.53278">
        <ele>1093</ele>
        <time>2010-01-01T04:19:37Z</time>
      </trkpt>
      <trkpt lat="42.3272" lon="2.53272">
        <ele>1095</ele>
        <time>2010-01-01T04:19:43Z</time>
      </trkpt>
      <trkpt lat="42.32727" lon="2.53264">
        <ele>1097</ele>
        <time>2010-01-01T04:19:52Z</time>
      </trkpt>
      <trkpt lat="42.32735" lon="2.53252">
        <ele>1100</ele>
        <time>2010-01-01T04:20:04Z</time>
      </trkpt>
      <trkpt lat="42.32743" lon="2.53233">
        <ele>1102</ele>
        <time>2010-01-01T04:20:20Z</time>
      </trkpt>
      <trkpt lat="42.32747" lon="2.53222">
        <ele>1103</ele>
        <time>2010-01-01T04:20:30Z</time>
      </trkpt>
      <trkpt lat="42.32754" lon="2.53206">
        <ele>1107</ele>
        <time>2010-01-01T04:20:43Z</time>
      </trkpt>
      <trkpt lat="42.32759" lon="2.53192">
        <ele>1109</ele>
        <time>2010-01-01T04:20:55Z</time>
      </trkpt>
      <trkpt lat="42.32759" lon="2.53189">
        <ele>1109</ele>
        <time>2010-01-01T04:20:57Z</time>
      </trkpt>
      <trkpt lat="42.32762" lon="2.53165">
        <ele>1108</ele>
        <time>2010-01-01T04:21:15Z</time>
      </trkpt>
      <trkpt lat="42.32765" lon="2.53154">
        <ele>1110</ele>
        <time>2010-01-01T04:21:24Z</time>
      </trkpt>
      <trkpt lat="42.32766" lon="2.53153">
        <ele>1111</ele>
        <time>2010-01-01T04:21:25Z</time>
      </trkpt>
      <trkpt lat="42.32774" lon="2.53141">
        <ele>1115</ele>
        <time>2010-01-01T04:21:37Z</time>
      </trkpt>
      <trkpt lat="42.32776" lon="2.53139">
        <ele>1117</ele>
        <time>2010-01-01T04:21:40Z</time>
      </trkpt>
      <trkpt lat="42.32778" lon="2.5311">
        <ele>1119</ele>
        <time>2010-01-01T04:22:01Z</time>
      </trkpt>
      <trkpt lat="42.3278" lon="2.53101">
        <ele>1121</ele>
        <time>2010-01-01T04:22:08Z</time>
      </trkpt>
      <trkpt lat="42.32781" lon="2.531">
        <ele>1121</ele>
        <time>2010-01-01T04:22:09Z</time>
      </trkpt>
      <trkpt lat="42.32785" lon="2.53087">
        <ele>1125</ele>
        <time>2010-01-01T04:22:20Z</time>
      </trkpt>
      <trkpt lat="42.32784" lon="2.53086">
        <ele>1124</ele>
        <time>2010-01-01T04:22:21Z</time>
      </trkpt>
      <trkpt lat="42.32781" lon="2.5308">
        <ele>1124</ele>
        <time>2010-01-01T04:22:27Z</time>
      </trkpt>
      <trkpt lat="42.32779" lon="2.53077">
        <ele>1123</ele>
        <time>2010-01-01T04:22:30Z</time>
      </trkpt>
      <trkpt lat="42.32774" lon="2.53071">
        <ele>1123</ele>
        <time>2010-01-01T04:22:36Z</time>
      </trkpt>
      <trkpt lat="42.32768" lon="2.53062">
        <ele>1123</ele>
        <time>2010-01-01T04:22:45Z</time>
      </trkpt>
      <trkpt lat="42.32761" lon="2.53054">
        <ele>1121</ele>
        <time>2010-01-01T04:22:54Z</time>
      </trkpt>
      <trkpt lat="42.32759" lon="2.53051">
        <ele>1121</ele>
        <time>2010-01-01T04:22:57Z</time>
      </trkpt>
      <trkpt lat="42.32758" lon="2.5305">
        <ele>1121</ele>
        <time>2010-01-01T04:22:58Z</time>
      </trkpt>
      <trkpt lat="42.32752" lon="2.53039">
        <ele>1121</ele>
        <time>2010-01-01T04:23:08Z</time>
      </trkpt>
      <trkpt lat="42.3274" lon="2.53025">
        <ele>1121</ele>
        <time>2010-01-01T04:23:24Z</time>
      </trkpt>
      <trkpt lat="42.32736" lon="2.5301">
        <ele>1126</ele>
        <time>2010-01-01T04:23:36Z</time>
      </trkpt>
      <trkpt lat="42.32734" lon="2.52995">
        <ele>1132</ele>
        <time>2010-01-01T04:23:47Z</time>
      </trkpt>
      <trkpt lat="42.32731" lon="2.52985">
        <ele>1133</ele>
        <time>2010-01-01T04:23:55Z</time>
      </trkpt>
      <trkpt lat="42.3273" lon="2.52977">
        <ele>1135</ele>
        <time>2010-01-01T04:24:01Z</time>
      </trkpt>
      <trkpt lat="42.32732" lon="2.52971">
        <ele>1139</ele>
        <time>2010-01-01T04:24:06Z</time>
      </trkpt>
      <trkpt lat="42.32733" lon="2.5296">
        <ele>1142</ele>
        <time>2010-01-01T04:24:15Z</time>
      </trkpt>
      <trkpt lat="42.32734" lon="2.52942">
        <ele>1146</ele>
        <time>2010-01-01T04:24:28Z</time>
      </trkpt>
      <trkpt lat="42.32737" lon="2.52928">
        <ele>1149</ele>
        <time>2010-01-01T04:24:39Z</time>
      </trkpt>
      <trkpt lat="42.3274" lon="2.52917">
        <ele>1152</ele>
        <time>2010-01-01T04:24:48Z</time>
      </trkpt>
      <trkpt lat="42.3274" lon="2.52897">
        <ele>1152</ele>
        <time>2010-01-01T04:25:02Z</time>
      </trkpt>
      <trkpt lat="42.3274" lon="2.52885">
        <ele>1154</ele>
        <time>2010-01-01T04:25:11Z</time>
      </trkpt>
      <trkpt lat="42.32742" lon="2.52864">
        <ele>1158</ele>
        <time>2010-01-01T04:25:26Z</time>
      </trkpt>
      <trkpt lat="42.32742" lon="2.52847">
        <ele>1162</ele>
        <time>2010-01-01T04:25:40Z</time>
      </trkpt>
      <trkpt lat="42.32739" lon="2.52825">
        <ele>1166</ele>
        <time>2010-01-01T04:25:56Z</time>
      </trkpt>
      <trkpt lat="42.32739" lon="2.52813">
        <ele>1171</ele>
        <time>2010-01-01T04:26:05Z</time>
      </trkpt>
      <trkpt lat="42.32738" lon="2.528">
        <ele>1177</ele>
        <time>2010-01-01T04:26:14Z</time>
      </trkpt>
      <trkpt lat="42.32737" lon="2.52799">
        <ele>1176</ele>
        <time>2010-01-01T04:26:16Z</time>
      </trkpt>
      <trkpt lat="42.3274" lon="2.52794">
        <ele>1181</ele>
        <time>2010-01-01T04:26:21Z</time>
      </trkpt>
      <trkpt lat="42.32736" lon="2.52784">
        <ele>1182</ele>
        <time>2010-01-01T04:26:29Z</time>
      </trkpt>
      <trkpt lat="42.32733" lon="2.5278">
        <ele>1182</ele>
        <time>2010-01-01T04:26:33Z</time>
      </trkpt>
      <trkpt lat="42.32725" lon="2.52779">
        <ele>1178</ele>
        <time>2010-01-01T04:26:41Z</time>
      </trkpt>
      <trkpt lat="42.32718" lon="2.5278">
        <ele>1172</ele>
        <time>2010-01-01T04:26:48Z</time>
      </trkpt>
      <trkpt lat="42.32703" lon="2.52782">
        <ele>1160</ele>
        <time>2010-01-01T04:27:04Z</time>
      </trkpt>
      <trkpt lat="42.32703" lon="2.52775">
        <ele>1164</ele>
        <time>2010-01-01T04:27:09Z</time>
      </trkpt>
      <trkpt lat="42.327" lon="2.52775">
        <ele>1162</ele>
        <time>2010-01-01T04:27:12Z</time>
      </trkpt>
      <trkpt lat="42.32697" lon="2.52762">
        <ele>1168</ele>
        <time>2010-01-01T04:27:22Z</time>
      </trkpt>
      <trkpt lat="42.32693" lon="2.52762">
        <ele>1166</ele>
        <time>2010-01-01T04:27:26Z</time>
      </trkpt>
      <trkpt lat="42.32694" lon="2.52761">
        <ele>1167</ele>
        <time>2010-01-01T04:27:27Z</time>
      </trkpt>
      <trkpt lat="42.32698" lon="2.52757">
        <ele>1171</ele>
        <time>2010-01-01T04:27:32Z</time>
      </trkpt>
      <trkpt lat="42.32695" lon="2.52762">
        <ele>1167</ele>
        <time>2010-01-01T04:27:36Z</time>
      </trkpt>
      <trkpt lat="42.32697" lon="2.52763">
        <ele>1167</ele>
        <time>2010-01-01T04:27:39Z</time>
      </trkpt>
      <trkpt lat="42.32698" lon="2.52761">
        <ele>1169</ele>
        <time>2010-01-01T04:27:41Z</time>
      </trkpt>
      <trkpt lat="42.32696" lon="2.52762">
        <ele>1167</ele>
        <time>2010-01-01T04:27:42Z</time>
      </trkpt>
      <trkpt lat="42.32696" lon="2.52759">
        <ele>1169</ele>
        <time>2010-01-01T04:27:44Z</time>
      </trkpt>
      <trkpt lat="42.32696" lon="2.5276">
        <ele>1168</ele>
        <time>2010-01-01T04:27:45Z</time>
      </trkpt>
      <trkpt lat="42.32696" lon="2.52757">
        <ele>1170</ele>
        <time>2010-01-01T04:27:47Z</time>
      </trkpt>
      <trkpt lat="42.32697" lon="2.52754">
        <ele>1173</ele>
        <time>2010-01-01T04:27:50Z</time>
      </trkpt>
      <trkpt lat="42.32697" lon="2.52754">
        <ele>1172</ele>
        <time>2010-01-01T04:27:50Z</time>
      </trkpt>
      <trkpt lat="42.32697" lon="2.52751">
        <ele>1175</ele>
        <time>2010-01-01T04:27:53Z</time>
      </trkpt>
      <trkpt lat="42.32694" lon="2.52738">
        <ele>1178</ele>
        <time>2010-01-01T04:28:02Z</time>
      </trkpt>
      <trkpt lat="42.32688" lon="2.52727">
        <ele>1180</ele>
        <time>2010-01-01T04:28:12Z</time>
      </trkpt>
      <trkpt lat="42.32687" lon="2.52717">
        <ele>1184</ele>
        <time>2010-01-01T04:28:19Z</time>
      </trkpt>
      <trkpt lat="42.32679" lon="2.52707">
        <ele>1185</ele>
        <time>2010-01-01T04:28:30Z</time>
      </trkpt>
      <trkpt lat="42.32676" lon="2.52699">
        <ele>1187</ele>
        <time>2010-01-01T04:28:37Z</time>
      </trkpt>
      <trkpt lat="42.32674" lon="2.5269">
        <ele>1189</ele>
        <time>2010-01-01T04:28:44Z</time>
      </trkpt>
      <trkpt lat="42.32667" lon="2.52677">
        <ele>1189</ele>
        <time>2010-01-01T04:28:56Z</time>
      </trkpt>
      <trkpt lat="42.32665" lon="2.52675">
        <ele>1189</ele>
        <time>2010-01-01T04:28:58Z</time>
      </trkpt>
      <trkpt lat="42.32663" lon="2.52657">
        <ele>1193</ele>
        <time>2010-01-01T04:29:12Z</time>
      </trkpt>
      <trkpt lat="42.32664" lon="2.5265">
        <ele>1196</ele>
        <time>2010-01-01T04:29:17Z</time>
      </trkpt>
      <trkpt lat="42.3266" lon="2.52641">
        <ele>1195</ele>
        <time>2010-01-01T04:29:24Z</time>
      </trkpt>
      <trkpt lat="42.32658" lon="2.52628">
        <ele>1197</ele>
        <time>2010-01-01T04:29:34Z</time>
      </trkpt>
      <trkpt lat="42.32657" lon="2.52624">
        <ele>1197</ele>
        <time>2010-01-01T04:29:38Z</time>
      </trkpt>
      <trkpt lat="42.32655" lon="2.5261">
        <ele>1200</ele>
        <time>2010-01-01T04:29:48Z</time>
      </trkpt>
      <trkpt lat="42.32654" lon="2.52603">
        <ele>1200</ele>
        <time>2010-01-01T04:29:54Z</time>
      </trkpt>
      <trkpt lat="42.32658" lon="2.52591">
        <ele>1205</ele>
        <time>2010-01-01T04:30:03Z</time>
      </trkpt>
      <trkpt lat="42.32659" lon="2.52577">
        <ele>1206</ele>
        <time>2010-01-01T04:30:13Z</time>
      </trkpt>
      <trkpt lat="42.32666" lon="2.52571">
        <ele>1211</ele>
        <time>2010-01-01T04:30:22Z</time>
      </trkpt>
      <trkpt lat="42.32673" lon="2.52563">
        <ele>1217</ele>
        <time>2010-01-01T04:30:31Z</time>
      </trkpt>
      <trkpt lat="42.32681" lon="2.52553">
        <ele>1223</ele>
        <time>2010-01-01T04:30:42Z</time>
      </trkpt>
      <trkpt lat="42.32687" lon="2.52539">
        <ele>1226</ele>
        <time>2010-01-01T04:30:53Z</time>
      </trkpt>
      <trkpt lat="42.3269" lon="2.52532">
        <ele>1229</ele>
        <time>2010-01-01T04:31:00Z</time>
      </trkpt>
      <trkpt lat="42.32694" lon="2.52522">
        <ele>1231</ele>
        <time>2010-01-01T04:31:08Z</time>
      </trkpt>
      <trkpt lat="42.32694" lon="2.52521">
        <ele>1231</ele>
        <time>2010-01-01T04:31:08Z</time>
      </trkpt>
      <trkpt lat="42.32697" lon="2.52507">
        <ele>1234</ele>
        <time>2010-01-01T04:31:19Z</time>
      </trkpt>
      <trkpt lat="42.32697" lon="2.52501">
        <ele>1235</ele>
        <time>2010-01-01T04:31:24Z</time>
      </trkpt>
      <trkpt lat="42.32698" lon="2.52498">
        <ele>1235</ele>
        <time>2010-01-01T04:31:26Z</time>
      </trkpt>
      <trkpt lat="42.32704" lon="2.52481">
        <ele>1236</ele>
        <time>2010-01-01T04:31:40Z</time>
      </trkpt>
      <trkpt lat="42.32708" lon="2.52474">
        <ele>1237</ele>
        <time>2010-01-01T04:31:47Z</time>
      </trkpt>
      <trkpt lat="42.32708" lon="2.52468">
        <ele>1237</ele>
        <time>2010-01-01T04:31:51Z</time>
      </trkpt>
      <trkpt lat="42.32712" lon="2.52448">
        <ele>1236</ele>
        <time>2010-01-01T04:32:06Z</time>
      </trkpt>
      <trkpt lat="42.32713" lon="2.52439">
        <ele>1236</ele>
        <time>2010-01-01T04:32:13Z</time>
      </trkpt>
      <trkpt lat="42.32717" lon="2.52428">
        <ele>1238</ele>
        <time>2010-01-01T04:32:22Z</time>
      </trkpt>
      <trkpt lat="42.32718" lon="2.52427">
        <ele>1238</ele>
        <time>2010-01-01T04:32:23Z</time>
      </trkpt>
      <trkpt lat="42.3272" lon="2.52417">
        <ele>1239</ele>
        <time>2010-01-01T04:32:30Z</time>
      </trkpt>
      <trkpt lat="42.3272" lon="2.52415">
        <ele>1239</ele>
        <time>2010-01-01T04:32:33Z</time>
      </trkpt>
      <trkpt lat="42.32719" lon="2.52414">
        <ele>1239</ele>
        <time>2010-01-01T04:32:33Z</time>
      </trkpt>
      <trkpt lat="42.32721" lon="2.52411">
        <ele>1239</ele>
        <time>2010-01-01T04:32:36Z</time>
      </trkpt>
      <trkpt lat="42.32725" lon="2.52401">
        <ele>1242</ele>
        <time>2010-01-01T04:32:44Z</time>
      </trkpt>
      <trkpt lat="42.32725" lon="2.52399">
        <ele>1242</ele>
        <time>2010-01-01T04:32:46Z</time>
      </trkpt>
      <trkpt lat="42.32729" lon="2.52392">
        <ele>1245</ele>
        <time>2010-01-01T04:32:52Z</time>
      </trkpt>
      <trkpt lat="42.32731" lon="2.52383">
        <ele>1247</ele>
        <time>2010-01-01T04:32:59Z</time>
      </trkpt>
      <trkpt lat="42.32731" lon="2.52378">
        <ele>1247</ele>
        <time>2010-01-01T04:33:03Z</time>
      </trkpt>
      <trkpt lat="42.32732" lon="2.52369">
        <ele>1250</ele>
        <time>2010-01-01T04:33:10Z</time>
      </trkpt>
      <trkpt lat="42.32733" lon="2.52367">
        <ele>1250</ele>
        <time>2010-01-01T04:33:12Z</time>
      </trkpt>
      <trkpt lat="42.32732" lon="2.5236">
        <ele>1251</ele>
        <time>2010-01-01T04:33:17Z</time>
      </trkpt>
      <trkpt lat="42.32734" lon="2.52356">
        <ele>1252</ele>
        <time>2010-01-01T04:33:20Z</time>
      </trkpt>
      <trkpt lat="42.32739" lon="2.52341">
        <ele>1256</ele>
        <time>2010-01-01T04:33:33Z</time>
      </trkpt>
      <trkpt lat="42.32741" lon="2.5233">
        <ele>1258</ele>
        <time>2010-01-01T04:33:41Z</time>
      </trkpt>
      <trkpt lat="42.32745" lon="2.5232">
        <ele>1260</ele>
        <time>2010-01-01T04:33:49Z</time>
      </trkpt>
      <trkpt lat="42.32745" lon="2.52305">
        <ele>1263</ele>
        <time>2010-01-01T04:34:00Z</time>
      </trkpt>
      <trkpt lat="42.32748" lon="2.52299">
        <ele>1264</ele>
        <time>2010-01-01T04:34:06Z</time>
      </trkpt>
      <trkpt lat="42.32749" lon="2.52297">
        <ele>1265</ele>
        <time>2010-01-01T04:34:07Z</time>
      </trkpt>
      <trkpt lat="42.32754" lon="2.52283">
        <ele>1268</ele>
        <time>2010-01-01T04:34:19Z</time>
      </trkpt>
      <trkpt lat="42.32757" lon="2.52271">
        <ele>1271</ele>
        <time>2010-01-01T04:34:28Z</time>
      </trkpt>
      <trkpt lat="42.32759" lon="2.52269">
        <ele>1272</ele>
        <time>2010-01-01T04:34:30Z</time>
      </trkpt>
      <trkpt lat="42.32763" lon="2.52264">
        <ele>1275</ele>
        <time>2010-01-01T04:34:36Z</time>
      </trkpt>
      <trkpt lat="42.32767" lon="2.52258">
        <ele>1277</ele>
        <time>2010-01-01T04:34:42Z</time>
      </trkpt>
      <trkpt lat="42.32779" lon="2.52251">
        <ele>1282</ele>
        <time>2010-01-01T04:34:56Z</time>
      </trkpt>
      <trkpt lat="42.32782" lon="2.5225">
        <ele>1282</ele>
        <time>2010-01-01T04:34:59Z</time>
      </trkpt>
      <trkpt lat="42.32793" lon="2.52234">
        <ele>1287</ele>
        <time>2010-01-01T04:35:15Z</time>
      </trkpt>
      <trkpt lat="42.32794" lon="2.52231">
        <ele>1287</ele>
        <time>2010-01-01T04:35:18Z</time>
      </trkpt>
      <trkpt lat="42.32799" lon="2.52228">
        <ele>1288</ele>
        <time>2010-01-01T04:35:23Z</time>
      </trkpt>
      <trkpt lat="42.32812" lon="2.52229">
        <ele>1288</ele>
        <time>2010-01-01T04:35:36Z</time>
      </trkpt>
      <trkpt lat="42.32815" lon="2.52227">
        <ele>1288</ele>
        <time>2010-01-01T04:35:40Z</time>
      </trkpt>
      <trkpt lat="42.32819" lon="2.52228">
        <ele>1288</ele>
        <time>2010-01-01T04:35:43Z</time>
      </trkpt>
      <trkpt lat="42.32821" lon="2.52235">
        <ele>1288</ele>
        <time>2010-01-01T04:35:49Z</time>
      </trkpt>
      <trkpt lat="42.32825" lon="2.52244">
        <ele>1288</ele>
        <time>2010-01-01T04:35:57Z</time>
      </trkpt>
      <trkpt lat="42.32834" lon="2.52253">
        <ele>1290</ele>
        <time>2010-01-01T04:36:07Z</time>
      </trkpt>
      <trkpt lat="42.32836" lon="2.5226">
        <ele>1290</ele>
        <time>2010-01-01T04:36:13Z</time>
      </trkpt>
      <trkpt lat="42.32838" lon="2.52263">
        <ele>1291</ele>
        <time>2010-01-01T04:36:16Z</time>
      </trkpt>
      <trkpt lat="42.32843" lon="2.52273">
        <ele>1292</ele>
        <time>2010-01-01T04:36:26Z</time>
      </trkpt>
      <trkpt lat="42.32849" lon="2.5228">
        <ele>1293</ele>
        <time>2010-01-01T04:36:33Z</time>
      </trkpt>
      <trkpt lat="42.32857" lon="2.52287">
        <ele>1296</ele>
        <time>2010-01-01T04:36:43Z</time>
      </trkpt>
      <trkpt lat="42.32859" lon="2.52288">
        <ele>1296</ele>
        <time>2010-01-01T04:36:45Z</time>
      </trkpt>
      <trkpt lat="42.32863" lon="2.52296">
        <ele>1298</ele>
        <time>2010-01-01T04:36:52Z</time>
      </trkpt>
      <trkpt lat="42.32867" lon="2.52293">
        <ele>1299</ele>
        <time>2010-01-01T04:36:56Z</time>
      </trkpt>
      <trkpt lat="42.32871" lon="2.52291">
        <ele>1300</ele>
        <time>2010-01-01T04:37:00Z</time>
      </trkpt>
      <trkpt lat="42.3287" lon="2.52296">
        <ele>1300</ele>
        <time>2010-01-01T04:37:04Z</time>
      </trkpt>
      <trkpt lat="42.32874" lon="2.52303">
        <ele>1302</ele>
        <time>2010-01-01T04:37:10Z</time>
      </trkpt>
      <trkpt lat="42.32879" lon="2.52308">
        <ele>1303</ele>
        <time>2010-01-01T04:37:16Z</time>
      </trkpt>
      <trkpt lat="42.32884" lon="2.52308">
        <ele>1304</ele>
        <time>2010-01-01T04:37:21Z</time>
      </trkpt>
      <trkpt lat="42.32889" lon="2.52309">
        <ele>1305</ele>
        <time>2010-01-01T04:37:27Z</time>
      </trkpt>
      <trkpt lat="42.32898" lon="2.52313">
        <ele>1309</ele>
        <time>2010-01-01T04:37:36Z</time>
      </trkpt>
      <trkpt lat="42.32906" lon="2.52316">
        <ele>1313</ele>
        <time>2010-01-01T04:37:44Z</time>
      </trkpt>
      <trkpt lat="42.32908" lon="2.52317">
        <ele>1314</ele>
        <time>2010-01-01T04:37:47Z</time>
      </trkpt>
      <trkpt lat="42.32919" lon="2.52318">
        <ele>1318</ele>
        <time>2010-01-01T04:37:57Z</time>
      </trkpt>
      <trkpt lat="42.32926" lon="2.52322">
        <ele>1320</ele>
        <time>2010-01-01T04:38:05Z</time>
      </trkpt>
      <trkpt lat="42.32932" lon="2.52328">
        <ele>1322</ele>
        <time>2010-01-01T04:38:12Z</time>
      </trkpt>
      <trkpt lat="42.32937" lon="2.52327">
        <ele>1323</ele>
        <time>2010-01-01T04:38:17Z</time>
      </trkpt>
      <trkpt lat="42.32936" lon="2.52327">
        <ele>1323</ele>
        <time>2010-01-01T04:38:18Z</time>
      </trkpt>
      <trkpt lat="42.32938" lon="2.52326">
        <ele>1323</ele>
        <time>2010-01-01T04:38:19Z</time>
      </trkpt>
      <trkpt lat="42.32938" lon="2.52326">
        <ele>1323</ele>
        <time>2010-01-01T04:38:20Z</time>
      </trkpt>
      <trkpt lat="42.32938" lon="2.52326">
        <ele>1323</ele>
        <time>2010-01-01T04:38:20Z</time>
      </trkpt>
      <trkpt lat="42.32939" lon="2.52326">
        <ele>1323</ele>
        <time>2010-01-01T04:38:21Z</time>
      </trkpt>
      <trkpt lat="42.32939" lon="2.52325">
        <ele>1323</ele>
        <time>2010-01-01T04:38:22Z</time>
      </trkpt>
      <trkpt lat="42.32939" lon="2.52325">
        <ele>1323</ele>
        <time>2010-01-01T04:38:23Z</time>
      </trkpt>
      <trkpt lat="42.32938" lon="2.52325">
        <ele>1323</ele>
        <time>2010-01-01T04:38:23Z</time>
      </trkpt>
      <trkpt lat="42.32938" lon="2.52325">
        <ele>1323</ele>
        <time>2010-01-01T04:38:24Z</time>
      </trkpt>
      <trkpt lat="42.32938" lon="2.52325">
        <ele>1323</ele>
        <time>2010-01-01T04:38:24Z</time>
      </trkpt>
      <trkpt lat="42.32939" lon="2.52327">
        <ele>1323</ele>
        <time>2010-01-01T04:38:25Z</time>
      </trkpt>
      <trkpt lat="42.3294" lon="2.52327">
        <ele>1323</ele>
        <time>2010-01-01T04:38:27Z</time>
      </trkpt>
      <trkpt lat="42.3294" lon="2.52328">
        <ele>1323</ele>
        <time>2010-01-01T04:38:27Z</time>
      </trkpt>
      <trkpt lat="42.32953" lon="2.52334">
        <ele>1326</ele>
        <time>2010-01-01T04:38:41Z</time>
      </trkpt>
      <trkpt lat="42.32955" lon="2.52335">
        <ele>1327</ele>
        <time>2010-01-01T04:38:44Z</time>
      </trkpt>
      <trkpt lat="42.32968" lon="2.5234">
        <ele>1329</ele>
        <time>2010-01-01T04:38:56Z</time>
      </trkpt>
      <trkpt lat="42.32982" lon="2.5235">
        <ele>1335</ele>
        <time>2010-01-01T04:39:13Z</time>
      </trkpt>
      <trkpt lat="42.32986" lon="2.52351">
        <ele>1337</ele>
        <time>2010-01-01T04:39:17Z</time>
      </trkpt>
      <trkpt lat="42.32991" lon="2.52353">
        <ele>1338</ele>
        <time>2010-01-01T04:39:22Z</time>
      </trkpt>
      <trkpt lat="42.33002" lon="2.52359">
        <ele>1343</ele>
        <time>2010-01-01T04:39:34Z</time>
      </trkpt>
      <trkpt lat="42.33007" lon="2.52362">
        <ele>1344</ele>
        <time>2010-01-01T04:39:39Z</time>
      </trkpt>
      <trkpt lat="42.33015" lon="2.52366">
        <ele>1346</ele>
        <time>2010-01-01T04:39:48Z</time>
      </trkpt>
      <trkpt lat="42.33025" lon="2.52369">
        <ele>1348</ele>
        <time>2010-01-01T04:39:58Z</time>
      </trkpt>
      <trkpt lat="42.33033" lon="2.52372">
        <ele>1350</ele>
        <time>2010-01-01T04:40:06Z</time>
      </trkpt>
      <trkpt lat="42.33037" lon="2.52375">
        <ele>1351</ele>
        <time>2010-01-01T04:40:10Z</time>
      </trkpt>
      <trkpt lat="42.33041" lon="2.52386">
        <ele>1353</ele>
        <time>2010-01-01T04:40:20Z</time>
      </trkpt>
      <trkpt lat="42.33046" lon="2.52395">
        <ele>1355</ele>
        <time>2010-01-01T04:40:28Z</time>
      </trkpt>
      <trkpt lat="42.33045" lon="2.52397">
        <ele>1355</ele>
        <time>2010-01-01T04:40:29Z</time>
      </trkpt>
      <trkpt lat="42.33045" lon="2.52409">
        <ele>1356</ele>
        <time>2010-01-01T04:40:38Z</time>
      </trkpt>
      <trkpt lat="42.3305" lon="2.52422">
        <ele>1359</ele>
        <time>2010-01-01T04:40:48Z</time>
      </trkpt>
      <trkpt lat="42.33054" lon="2.52432">
        <ele>1361</ele>
        <time>2010-01-01T04:40:57Z</time>
      </trkpt>
      <trkpt lat="42.3306" lon="2.52442">
        <ele>1363</ele>
        <time>2010-01-01T04:41:07Z</time>
      </trkpt>
      <trkpt lat="42.33064" lon="2.52449">
        <ele>1366</ele>
        <time>2010-01-01T04:41:13Z</time>
      </trkpt>
      <trkpt lat="42.33066" lon="2.52452">
        <ele>1367</ele>
        <time>2010-01-01T04:41:16Z</time>
      </trkpt>
      <trkpt lat="42.3307" lon="2.52457">
        <ele>1369</ele>
        <time>2010-01-01T04:41:21Z</time>
      </trkpt>
      <trkpt lat="42.33073" lon="2.52466">
        <ele>1371</ele>
        <time>2010-01-01T04:41:29Z</time>
      </trkpt>
      <trkpt lat="42.33073" lon="2.52483">
        <ele>1373</ele>
        <time>2010-01-01T04:41:42Z</time>
      </trkpt>
      <trkpt lat="42.33073" lon="2.52484">
        <ele>1373</ele>
        <time>2010-01-01T04:41:42Z</time>
      </trkpt>
      <trkpt lat="42.33073" lon="2.52498">
        <ele>1375</ele>
        <time>2010-01-01T04:41:53Z</time>
      </trkpt>
      <trkpt lat="42.33072" lon="2.52507">
        <ele>1375</ele>
        <time>2010-01-01T04:42:00Z</time>
      </trkpt>
      <trkpt lat="42.33073" lon="2.52511">
        <ele>1376</ele>
        <time>2010-01-01T04:42:03Z</time>
      </trkpt>
      <trkpt lat="42.33071" lon="2.52523">
        <ele>1376</ele>
        <time>2010-01-01T04:42:12Z</time>
      </trkpt>
      <trkpt lat="42.33072" lon="2.52542">
        <ele>1380</ele>
        <time>2010-01-01T04:42:27Z</time>
      </trkpt>
      <trkpt lat="42.33072" lon="2.52559">
        <ele>1382</ele>
        <time>2010-01-01T04:42:39Z</time>
      </trkpt>
      <trkpt lat="42.33074" lon="2.52572">
        <ele>1385</ele>
        <time>2010-01-01T04:42:49Z</time>
      </trkpt>
      <trkpt lat="42.33072" lon="2.52583">
        <ele>1386</ele>
        <time>2010-01-01T04:42:57Z</time>
      </trkpt>
      <trkpt lat="42.33075" lon="2.52589">
        <ele>1389</ele>
        <time>2010-01-01T04:43:03Z</time>
      </trkpt>
      <trkpt lat="42.33074" lon="2.52602">
        <ele>1390</ele>
        <time>2010-01-01T04:43:12Z</time>
      </trkpt>
      <trkpt lat="42.33074" lon="2.52609">
        <ele>1391</ele>
        <time>2010-01-01T04:43:17Z</time>
      </trkpt>
      <trkpt lat="42.33076" lon="2.52612">
        <ele>1393</ele>
        <time>2010-01-01T04:43:21Z</time>
      </trkpt>
      <trkpt lat="42.33083" lon="2.52614">
        <ele>1399</ele>
        <time>2010-01-01T04:43:28Z</time>
      </trkpt>
      <trkpt lat="42.33084" lon="2.52617">
        <ele>1400</ele>
        <time>2010-01-01T04:43:30Z</time>
      </trkpt>
      <trkpt lat="42.33086" lon="2.52621">
        <ele>1401</ele>
        <time>2010-01-01T04:43:33Z</time>
      </trkpt>
      <trkpt lat="42.33086" lon="2.52627">
        <ele>1402</ele>
        <time>2010-01-01T04:43:38Z</time>
      </trkpt>
      <trkpt lat="42.33088" lon="2.52634">
        <ele>1403</ele>
        <time>2010-01-01T04:43:43Z</time>
      </trkpt>
      <trkpt lat="42.33093" lon="2.52636">
        <ele>1407</ele>
        <time>2010-01-01T04:43:48Z</time>
      </trkpt>
      <trkpt lat="42.33096" lon="2.52641">
        <ele>1410</ele>
        <time>2010-01-01T04:43:54Z</time>
      </trkpt>
      <trkpt lat="42.33099" lon="2.52648">
        <ele>1412</ele>
        <time>2010-01-01T04:44:00Z</time>
      </trkpt>
      <trkpt lat="42.33102" lon="2.5265">
        <ele>1413</ele>
        <time>2010-01-01T04:44:02Z</time>
      </trkpt>
      <trkpt lat="42.33103" lon="2.52654">
        <ele>1414</ele>
        <time>2010-01-01T04:44:05Z</time>
      </trkpt>
      <trkpt lat="42.33107" lon="2.52654">
        <ele>1418</ele>
        <time>2010-01-01T04:44:09Z</time>
      </trkpt>
      <trkpt lat="42.33112" lon="2.52661">
        <ele>1421</ele>
        <time>2010-01-01T04:44:16Z</time>
      </trkpt>
      <trkpt lat="42.33113" lon="2.52648">
        <ele>1423</ele>
        <time>2010-01-01T04:44:26Z</time>
      </trkpt>
      <trkpt lat="42.33114" lon="2.52641">
        <ele>1424</ele>
        <time>2010-01-01T04:44:32Z</time>
      </trkpt>
      <trkpt lat="42.33122" lon="2.52645">
        <ele>1430</ele>
        <time>2010-01-01T04:44:40Z</time>
      </trkpt>
      <trkpt lat="42.33127" lon="2.5265">
        <ele>1433</ele>
        <time>2010-01-01T04:44:47Z</time>
      </trkpt>
      <trkpt lat="42.33133" lon="2.5265">
        <ele>1437</ele>
        <time>2010-01-01T04:44:52Z</time>
      </trkpt>
      <trkpt lat="42.33141" lon="2.52654">
        <ele>1443</ele>
        <time>2010-01-01T04:45:01Z</time>
      </trkpt>
      <trkpt lat="42.33146" lon="2.52656">
        <ele>1446</ele>
        <time>2010-01-01T04:45:06Z</time>
      </trkpt>
      <trkpt lat="42.33153" lon="2.52659">
        <ele>1450</ele>
        <time>2010-01-01T04:45:13Z</time>
      </trkpt>
      <trkpt lat="42.33159" lon="2.52665">
        <ele>1453</ele>
        <time>2010-01-01T04:45:21Z</time>
      </trkpt>
      <trkpt lat="42.33165" lon="2.52671">
        <ele>1455</ele>
        <time>2010-01-01T04:45:28Z</time>
      </trkpt>
      <trkpt lat="42.33171" lon="2.52676">
        <ele>1458</ele>
        <time>2010-01-01T04:45:35Z</time>
      </trkpt>
      <trkpt lat="42.33173" lon="2.52667">
        <ele>1462</ele>
        <time>2010-01-01T04:45:43Z</time>
      </trkpt>
      <trkpt lat="42.33176" lon="2.5267">
        <ele>1463</ele>
        <time>2010-01-01T04:45:46Z</time>
      </trkpt>
      <trkpt lat="42.33182" lon="2.52674">
        <ele>1466</ele>
        <time>2010-01-01T04:45:53Z</time>
      </trkpt>
      <trkpt lat="42.33187" lon="2.52676">
        <ele>1468</ele>
        <time>2010-01-01T04:45:58Z</time>
      </trkpt>
      <trkpt lat="42.33193" lon="2.52678">
        <ele>1472</ele>
        <time>2010-01-01T04:46:05Z</time>
      </trkpt>
      <trkpt lat="42.33194" lon="2.52678">
        <ele>1473</ele>
        <time>2010-01-01T04:46:06Z</time>
      </trkpt>
      <trkpt lat="42.33199" lon="2.52673">
        <ele>1476</ele>
        <time>2010-01-01T04:46:12Z</time>
      </trkpt>
      <trkpt lat="42.33206" lon="2.5267">
        <ele>1479</ele>
        <time>2010-01-01T04:46:19Z</time>
      </trkpt>
      <trkpt lat="42.33207" lon="2.5267">
        <ele>1479</ele>
        <time>2010-01-01T04:46:20Z</time>
      </trkpt>
      <trkpt lat="42.3321" lon="2.52672">
        <ele>1480</ele>
        <time>2010-01-01T04:46:23Z</time>
      </trkpt>
      <trkpt lat="42.33212" lon="2.52663">
        <ele>1482</ele>
        <time>2010-01-01T04:46:30Z</time>
      </trkpt>
      <trkpt lat="42.33215" lon="2.52664">
        <ele>1483</ele>
        <time>2010-01-01T04:46:33Z</time>
      </trkpt>
      <trkpt lat="42.33225" lon="2.52661">
        <ele>1487</ele>
        <time>2010-01-01T04:46:44Z</time>
      </trkpt>
      <trkpt lat="42.33235" lon="2.52656">
        <ele>1491</ele>
        <time>2010-01-01T04:46:54Z</time>
      </trkpt>
      <trkpt lat="42.33243" lon="2.52651">
        <ele>1494</ele>
        <time>2010-01-01T04:47:02Z</time>
      </trkpt>
      <trkpt lat="42.33249" lon="2.52641">
        <ele>1496</ele>
        <time>2010-01-01T04:47:12Z</time>
      </trkpt>
      <trkpt lat="42.33256" lon="2.52636">
        <ele>1499</ele>
        <time>2010-01-01T04:47:20Z</time>
      </trkpt>
      <trkpt lat="42.33264" lon="2.52629">
        <ele>1502</ele>
        <time>2010-01-01T04:47:30Z</time>
      </trkpt>
      <trkpt lat="42.33268" lon="2.52627">
        <ele>1503</ele>
        <time>2010-01-01T04:47:34Z</time>
      </trkpt>
      <trkpt lat="42.33271" lon="2.52635">
        <ele>1505</ele>
        <time>2010-01-01T04:47:41Z</time>
      </trkpt>
      <trkpt lat="42.33271" lon="2.52638">
        <ele>1505</ele>
        <time>2010-01-01T04:47:43Z</time>
      </trkpt>
      <trkpt lat="42.33275" lon="2.52649">
        <ele>1507</ele>
        <time>2010-01-01T04:47:52Z</time>
      </trkpt>
      <trkpt lat="42.33277" lon="2.52656">
        <ele>1508</ele>
        <time>2010-01-01T04:47:57Z</time>
      </trkpt>
      <trkpt lat="42.33282" lon="2.52661">
        <ele>1511</ele>
        <time>2010-01-01T04:48:04Z</time>
      </trkpt>
      <trkpt lat="42.33287" lon="2.52664">
        <ele>1514</ele>
        <time>2010-01-01T04:48:09Z</time>
      </trkpt>
      <trkpt lat="42.33291" lon="2.52659">
        <ele>1516</ele>
        <time>2010-01-01T04:48:15Z</time>
      </trkpt>
      <trkpt lat="42.33298" lon="2.52649">
        <ele>1519</ele>
        <time>2010-01-01T04:48:24Z</time>
      </trkpt>
      <trkpt lat="42.33303" lon="2.52645">
        <ele>1521</ele>
        <time>2010-01-01T04:48:30Z</time>
      </trkpt>
      <trkpt lat="42.33308" lon="2.52641">
        <ele>1523</ele>
        <time>2010-01-01T04:48:36Z</time>
      </trkpt>
      <trkpt lat="42.33313" lon="2.52642">
        <ele>1526</ele>
        <time>2010-01-01T04:48:42Z</time>
      </trkpt>
      <trkpt lat="42.33315" lon="2.52649">
        <ele>1527</ele>
        <time>2010-01-01T04:48:48Z</time>
      </trkpt>
      <trkpt lat="42.33317" lon="2.52652">
        <ele>1529</ele>
        <time>2010-01-01T04:48:51Z</time>
      </trkpt>
      <trkpt lat="42.33319" lon="2.52659">
        <ele>1530</ele>
        <time>2010-01-01T04:48:56Z</time>
      </trkpt>
      <trkpt lat="42.33319" lon="2.5267">
        <ele>1532</ele>
        <time>2010-01-01T04:49:04Z</time>
      </trkpt>
      <trkpt lat="42.3332" lon="2.52677">
        <ele>1533</ele>
        <time>2010-01-01T04:49:10Z</time>
      </trkpt>
      <trkpt lat="42.3332" lon="2.52689">
        <ele>1534</ele>
        <time>2010-01-01T04:49:19Z</time>
      </trkpt>
      <trkpt lat="42.33321" lon="2.52697">
        <ele>1535</ele>
        <time>2010-01-01T04:49:25Z</time>
      </trkpt>
      <trkpt lat="42.33323" lon="2.52707">
        <ele>1536</ele>
        <time>2010-01-01T04:49:33Z</time>
      </trkpt>
      <trkpt lat="42.33325" lon="2.52715">
        <ele>1537</ele>
        <time>2010-01-01T04:49:39Z</time>
      </trkpt>
      <trkpt lat="42.33328" lon="2.5272">
        <ele>1539</ele>
        <time>2010-01-01T04:49:44Z</time>
      </trkpt>
      <trkpt lat="42.3333" lon="2.52726">
        <ele>1540</ele>
        <time>2010-01-01T04:49:49Z</time>
      </trkpt>
      <trkpt lat="42.33332" lon="2.52733">
        <ele>1541</ele>
        <time>2010-01-01T04:49:55Z</time>
      </trkpt>
      <trkpt lat="42.33333" lon="2.52733">
        <ele>1541</ele>
        <time>2010-01-01T04:49:55Z</time>
      </trkpt>
      <trkpt lat="42.33332" lon="2.52742">
        <ele>1541</ele>
        <time>2010-01-01T04:50:02Z</time>
      </trkpt>
      <trkpt lat="42.33334" lon="2.52754">
        <ele>1542</ele>
        <time>2010-01-01T04:50:11Z</time>
      </trkpt>
      <trkpt lat="42.33333" lon="2.52773">
        <ele>1543</ele>
        <time>2010-01-01T04:50:25Z</time>
      </trkpt>
      <trkpt lat="42.33329" lon="2.5278">
        <ele>1543</ele>
        <time>2010-01-01T04:50:31Z</time>
      </trkpt>
      <trkpt lat="42.33331" lon="2.52779">
        <ele>1543</ele>
        <time>2010-01-01T04:50:32Z</time>
      </trkpt>
      <trkpt lat="42.33333" lon="2.52778">
        <ele>1543</ele>
        <time>2010-01-01T04:50:35Z</time>
      </trkpt>
      <trkpt lat="42.33331" lon="2.52777">
        <ele>1543</ele>
        <time>2010-01-01T04:50:38Z</time>
      </trkpt>
      <trkpt lat="42.33331" lon="2.52777">
        <ele>1543</ele>
        <time>2010-01-01T04:50:38Z</time>
      </trkpt>
      <trkpt lat="42.33332" lon="2.52776">
        <ele>1543</ele>
        <time>2010-01-01T04:50:39Z</time>
      </trkpt>
      <trkpt lat="42.33331" lon="2.52779">
        <ele>1543</ele>
        <time>2010-01-01T04:50:40Z</time>
      </trkpt>
      <trkpt lat="42.33331" lon="2.52778">
        <ele>1543</ele>
        <time>2010-01-01T04:50:41Z</time>
      </trkpt>
      <trkpt lat="42.33331" lon="2.52778">
        <ele>1543</ele>
        <time>2010-01-01T04:50:41Z</time>
      </trkpt>
      <trkpt lat="42.33331" lon="2.52778">
        <ele>1543</ele>
        <time>2010-01-01T04:50:43Z</time>
      </trkpt>
      <trkpt lat="42.3333" lon="2.52776">
        <ele>1542</ele>
        <time>2010-01-01T04:50:44Z</time>
      </trkpt>
      <trkpt lat="42.33331" lon="2.52777">
        <ele>1543</ele>
        <time>2010-01-01T04:50:45Z</time>
      </trkpt>
      <trkpt lat="42.33331" lon="2.52778">
        <ele>1543</ele>
        <time>2010-01-01T04:50:46Z</time>
      </trkpt>
      <trkpt lat="42.33331" lon="2.52776">
        <ele>1543</ele>
        <time>2010-01-01T04:50:47Z</time>
      </trkpt>
      <trkpt lat="42.33331" lon="2.52775">
        <ele>1543</ele>
        <time>2010-01-01T04:50:48Z</time>
      </trkpt>
      <trkpt lat="42.3333" lon="2.52776">
        <ele>1543</ele>
        <time>2010-01-01T04:50:48Z</time>
      </trkpt>
      <trkpt lat="42.33331" lon="2.52776">
        <ele>1543</ele>
        <time>2010-01-01T04:50:49Z</time>
      </trkpt>
      <trkpt lat="42.3333" lon="2.52776">
        <ele>1543</ele>
        <time>2010-01-01T04:50:50Z</time>
      </trkpt>
      <trkpt lat="42.33331" lon="2.52779">
        <ele>1543</ele>
        <time>2010-01-01T04:50:52Z</time>
      </trkpt>
      <trkpt lat="42.33331" lon="2.52776">
        <ele>1543</ele>
        <time>2010-01-01T04:50:55Z</time>
      </trkpt>
      <trkpt lat="42.33332" lon="2.52778">
        <ele>1543</ele>
        <time>2010-01-01T04:50:56Z</time>
      </trkpt>
      <trkpt lat="42.33331" lon="2.52777">
        <ele>1543</ele>
        <time>2010-01-01T04:50:57Z</time>
      </trkpt>
      <trkpt lat="42.33334" lon="2.52772">
        <ele>1543</ele>
        <time>2010-01-01T04:51:01Z</time>
      </trkpt>
      <trkpt lat="42.33334" lon="2.52774">
        <ele>1543</ele>
        <time>2010-01-01T04:51:02Z</time>
      </trkpt>
      <trkpt lat="42.33333" lon="2.52781">
        <ele>1544</ele>
        <time>2010-01-01T04:51:07Z</time>
      </trkpt>
      <trkpt lat="42.3333" lon="2.5278">
        <ele>1543</ele>
        <time>2010-01-01T04:51:10Z</time>
      </trkpt>
      <trkpt lat="42.33338" lon="2.52785">
        <ele>1543</ele>
        <time>2010-01-01T04:51:19Z</time>
      </trkpt>
      <trkpt lat="42.33327" lon="2.52784">
        <ele>1542</ele>
        <time>2010-01-01T04:51:30Z</time>
      </trkpt>
      <trkpt lat="42.33328" lon="2.52804">
        <ele>1543</ele>
        <time>2010-01-01T04:51:45Z</time>
      </trkpt>
      <trkpt lat="42.33321" lon="2.52834">
        <ele>1540</ele>
        <time>2010-01-01T04:52:08Z</time>
      </trkpt>
      <trkpt lat="42.33321" lon="2.52836">
        <ele>1540</ele>
        <time>2010-01-01T04:52:09Z</time>
      </trkpt>
      <trkpt lat="42.33318" lon="2.52844">
        <ele>1538</ele>
        <time>2010-01-01T04:52:16Z</time>
      </trkpt>
      <trkpt lat="42.33317" lon="2.52886">
        <ele>1536</ele>
        <time>2010-01-01T04:52:47Z</time>
      </trkpt>
      <trkpt lat="42.33316" lon="2.52923">
        <ele>1533</ele>
        <time>2010-01-01T04:53:15Z</time>
      </trkpt>
      <trkpt lat="42.33317" lon="2.52952">
        <ele>1530</ele>
        <time>2010-01-01T04:53:36Z</time>
      </trkpt>
      <trkpt lat="42.33314" lon="2.52974">
        <ele>1529</ele>
        <time>2010-01-01T04:53:52Z</time>
      </trkpt>
      <trkpt lat="42.33314" lon="2.52995">
        <ele>1527</ele>
        <time>2010-01-01T04:54:08Z</time>
      </trkpt>
      <trkpt lat="42.3332" lon="2.53016">
        <ele>1526</ele>
        <time>2010-01-01T04:54:25Z</time>
      </trkpt>
      <trkpt lat="42.33316" lon="2.53044">
        <ele>1523</ele>
        <time>2010-01-01T04:54:46Z</time>
      </trkpt>
      <trkpt lat="42.33317" lon="2.53082">
        <ele>1517</ele>
        <time>2010-01-01T04:55:14Z</time>
      </trkpt>
      <trkpt lat="42.33314" lon="2.53105">
        <ele>1514</ele>
        <time>2010-01-01T04:55:31Z</time>
      </trkpt>
      <trkpt lat="42.33306" lon="2.5314">
        <ele>1509</ele>
        <time>2010-01-01T04:55:59Z</time>
      </trkpt>
      <trkpt lat="42.33315" lon="2.53169">
        <ele>1506</ele>
        <time>2010-01-01T04:56:21Z</time>
      </trkpt>
      <trkpt lat="42.33309" lon="2.53202">
        <ele>1505</ele>
        <time>2010-01-01T04:56:46Z</time>
      </trkpt>
      <trkpt lat="42.33295" lon="2.53241">
        <ele>1504</ele>
        <time>2010-01-01T04:57:19Z</time>
      </trkpt>
      <trkpt lat="42.33302" lon="2.53268">
        <ele>1503</ele>
        <time>2010-01-01T04:57:41Z</time>
      </trkpt>
      <trkpt lat="42.3331" lon="2.533">
        <ele>1499</ele>
        <time>2010-01-01T04:58:05Z</time>
      </trkpt>
      <trkpt lat="42.33327" lon="2.53337">
        <ele>1484</ele>
        <time>2010-01-01T04:58:37Z</time>
      </trkpt>
      <trkpt lat="42.33335" lon="2.53361">
        <ele>1477</ele>
        <time>2010-01-01T04:58:57Z</time>
      </trkpt>
      <trkpt lat="42.3334" lon="2.53368">
        <ele>1472</ele>
        <time>2010-01-01T04:59:04Z</time>
      </trkpt>
      <trkpt lat="42.33344" lon="2.53383">
        <ele>1467</ele>
        <time>2010-01-01T04:59:16Z</time>
      </trkpt>
      <trkpt lat="42.33348" lon="2.53391">
        <ele>1464</ele>
        <time>2010-01-01T04:59:23Z</time>
      </trkpt>
      <trkpt lat="42.33355" lon="2.5339">
        <ele>1462</ele>
        <time>2010-01-01T04:59:30Z</time>
      </trkpt>
      <trkpt lat="42.33359" lon="2.53386">
        <ele>1462</ele>
        <time>2010-01-01T04:59:35Z</time>
      </trkpt>
      <trkpt lat="42.33371" lon="2.53383">
        <ele>1457</ele>
        <time>2010-01-01T04:59:47Z</time>
      </trkpt>
      <trkpt lat="42.33378" lon="2.53403">
        <ele>1451</ele>
        <time>2010-01-01T05:00:04Z</time>
      </trkpt>
      <trkpt lat="42.3339" lon="2.53435">
        <ele>1441</ele>
        <time>2010-01-01T05:00:30Z</time>
      </trkpt>
      <trkpt lat="42.3339" lon="2.53471">
        <ele>1431</ele>
        <time>2010-01-01T05:00:57Z</time>
      </trkpt>
      <trkpt lat="42.33387" lon="2.53492">
        <ele>1426</ele>
        <time>2010-01-01T05:01:12Z</time>
      </trkpt>
      <trkpt lat="42.33388" lon="2.53515">
        <ele>1418</ele>
        <time>2010-01-01T05:01:30Z</time>
      </trkpt>
      <trkpt lat="42.33391" lon="2.53516">
        <ele>1417</ele>
        <time>2010-01-01T05:01:32Z</time>
      </trkpt>
      <trkpt lat="42.33394" lon="2.53513">
        <ele>1417</ele>
        <time>2010-01-01T05:01:36Z</time>
      </trkpt>
      <trkpt lat="42.33394" lon="2.53516">
        <ele>1416</ele>
        <time>2010-01-01T05:01:38Z</time>
      </trkpt>
      <trkpt lat="42.33388" lon="2.5354">
        <ele>1411</ele>
        <time>2010-01-01T05:01:56Z</time>
      </trkpt>
      <trkpt lat="42.33394" lon="2.5358">
        <ele>1404</ele>
        <time>2010-01-01T05:02:27Z</time>
      </trkpt>
      <trkpt lat="42.33397" lon="2.53606">
        <ele>1401</ele>
        <time>2010-01-01T05:02:46Z</time>
      </trkpt>
      <trkpt lat="42.33394" lon="2.53627">
        <ele>1399</ele>
        <time>2010-01-01T05:03:02Z</time>
      </trkpt>
      <trkpt lat="42.33391" lon="2.5366">
        <ele>1396</ele>
        <time>2010-01-01T05:03:27Z</time>
      </trkpt>
      <trkpt lat="42.33384" lon="2.53704">
        <ele>1393</ele>
        <time>2010-01-01T05:04:00Z</time>
      </trkpt>
      <trkpt lat="42.33381" lon="2.53698">
        <ele>1392</ele>
        <time>2010-01-01T05:04:06Z</time>
      </trkpt>
      <trkpt lat="42.33387" lon="2.53728">
        <ele>1393</ele>
        <time>2010-01-01T05:04:29Z</time>
      </trkpt>
      <trkpt lat="42.33387" lon="2.53758">
        <ele>1394</ele>
        <time>2010-01-01T05:04:51Z</time>
      </trkpt>
      <trkpt lat="42.33392" lon="2.53812">
        <ele>1396</ele>
        <time>2010-01-01T05:05:31Z</time>
      </trkpt>
      <trkpt lat="42.33387" lon="2.53844">
        <ele>1397</ele>
        <time>2010-01-01T05:05:56Z</time>
      </trkpt>
      <trkpt lat="42.33382" lon="2.53899">
        <ele>1395</ele>
        <time>2010-01-01T05:06:37Z</time>
      </trkpt>
      <trkpt lat="42.3338" lon="2.5395">
        <ele>1394</ele>
        <time>2010-01-01T05:07:15Z</time>
      </trkpt>
      <trkpt lat="42.33381" lon="2.53979">
        <ele>1395</ele>
        <time>2010-01-01T05:07:36Z</time>
      </trkpt>
      <trkpt lat="42.3338" lon="2.54016">
        <ele>1393</ele>
        <time>2010-01-01T05:08:03Z</time>
      </trkpt>
      <trkpt lat="42.33376" lon="2.54069">
        <ele>1388</ele>
        <time>2010-01-01T05:08:43Z</time>
      </trkpt>
      <trkpt lat="42.33371" lon="2.54067">
        <ele>1388</ele>
        <time>2010-01-01T05:08:49Z</time>
      </trkpt>
      <trkpt lat="42.33371" lon="2.54092">
        <ele>1387</ele>
        <time>2010-01-01T05:09:07Z</time>
      </trkpt>
      <trkpt lat="42.33361" lon="2.54151">
        <ele>1392</ele>
        <time>2010-01-01T05:09:52Z</time>
      </trkpt>
      <trkpt lat="42.3334" lon="2.54196">
        <ele>1391</ele>
        <time>2010-01-01T05:10:31Z</time>
      </trkpt>
      <trkpt lat="42.33329" lon="2.5426">
        <ele>1379</ele>
        <time>2010-01-01T05:11:20Z</time>
      </trkpt>
      <trkpt lat="42.33299" lon="2.54306">
        <ele>1375</ele>
        <time>2010-01-01T05:12:05Z</time>
      </trkpt>
      <trkpt lat="42.33273" lon="2.54371">
        <ele>1365</ele>
        <time>2010-01-01T05:13:00Z</time>
      </trkpt>
      <trkpt lat="42.33272" lon="2.54378">
        <ele>1365</ele>
        <time>2010-01-01T05:13:05Z</time>
      </trkpt>
      <trkpt lat="42.33252" lon="2.54426">
        <ele>1368</ele>
        <time>2010-01-01T05:13:46Z</time>
      </trkpt>
      <trkpt lat="42.33235" lon="2.54455">
        <ele>1367</ele>
        <time>2010-01-01T05:14:13Z</time>
      </trkpt>
      <trkpt lat="42.33232" lon="2.54459">
        <ele>1367</ele>
        <time>2010-01-01T05:14:17Z</time>
      </trkpt>
      <trkpt lat="42.33213" lon="2.54474">
        <ele>1361</ele>
        <time>2010-01-01T05:14:39Z</time>
      </trkpt>
      <trkpt lat="42.33199" lon="2.54501">
        <ele>1357</ele>
        <time>2010-01-01T05:15:04Z</time>
      </trkpt>
      <trkpt lat="42.33189" lon="2.54509">
        <ele>1354</ele>
        <time>2010-01-01T05:15:14Z</time>
      </trkpt>
      <trkpt lat="42.33179" lon="2.5452">
        <ele>1351</ele>
        <time>2010-01-01T05:15:28Z</time>
      </trkpt>
      <trkpt lat="42.33185" lon="2.54525">
        <ele>1353</ele>
        <time>2010-01-01T05:15:34Z</time>
      </trkpt>
      <trkpt lat="42.33182" lon="2.54515">
        <ele>1351</ele>
        <time>2010-01-01T05:15:41Z</time>
      </trkpt>
      <trkpt lat="42.33172" lon="2.54526">
        <ele>1350</ele>
        <time>2010-01-01T05:15:54Z</time>
      </trkpt>
      <trkpt lat="42.3315" lon="2.54551">
        <ele>1344</ele>
        <time>2010-01-01T05:16:23Z</time>
      </trkpt>
      <trkpt lat="42.33131" lon="2.54581">
        <ele>1343</ele>
        <time>2010-01-01T05:16:52Z</time>
      </trkpt>
      <trkpt lat="42.33106" lon="2.54608">
        <ele>1342</ele>
        <time>2010-01-01T05:17:24Z</time>
      </trkpt>
      <trkpt lat="42.33087" lon="2.54649">
        <ele>1344</ele>
        <time>2010-01-01T05:18:00Z</time>
      </trkpt>
      <trkpt lat="42.33066" lon="2.54697">
        <ele>1344</ele>
        <time>2010-01-01T05:18:41Z</time>
      </trkpt>
      <trkpt lat="42.33054" lon="2.54711">
        <ele>1339</ele>
        <time>2010-01-01T05:18:57Z</time>
      </trkpt>
      <trkpt lat="42.33046" lon="2.54769">
        <ele>1341</ele>
        <time>2010-01-01T05:19:41Z</time>
      </trkpt>
      <trkpt lat="42.33034" lon="2.54797">
        <ele>1340</ele>
        <time>2010-01-01T05:20:05Z</time>
      </trkpt>
      <trkpt lat="42.33021" lon="2.54844">
        <ele>1341</ele>
        <time>2010-01-01T05:20:42Z</time>
      </trkpt>
      <trkpt lat="42.32996" lon="2.5489">
        <ele>1342</ele>
        <time>2010-01-01T05:21:24Z</time>
      </trkpt>
      <trkpt lat="42.32999" lon="2.54919">
        <ele>1340</ele>
        <time>2010-01-01T05:21:46Z</time>
      </trkpt>
      <trkpt lat="42.32985" lon="2.54947">
        <ele>1332</ele>
        <time>2010-01-01T05:22:11Z</time>
      </trkpt>
      <trkpt lat="42.32966" lon="2.5497">
        <ele>1329</ele>
        <time>2010-01-01T05:22:36Z</time>
      </trkpt>
      <trkpt lat="42.32972" lon="2.5499">
        <ele>1324</ele>
        <time>2010-01-01T05:22:52Z</time>
      </trkpt>
      <trkpt lat="42.32975" lon="2.55028">
        <ele>1310</ele>
        <time>2010-01-01T05:23:20Z</time>
      </trkpt>
      <trkpt lat="42.32941" lon="2.55046">
        <ele>1315</ele>
        <time>2010-01-01T05:23:56Z</time>
      </trkpt>
      <trkpt lat="42.32915" lon="2.55048">
        <ele>1319</ele>
        <time>2010-01-01T05:24:23Z</time>
      </trkpt>
      <trkpt lat="42.32905" lon="2.55052">
        <ele>1317</ele>
        <time>2010-01-01T05:24:33Z</time>
      </trkpt>
      <trkpt lat="42.32902" lon="2.55057">
        <ele>1316</ele>
        <time>2010-01-01T05:24:38Z</time>
      </trkpt>
      <trkpt lat="42.32872" lon="2.55092">
        <ele>1314</ele>
        <time>2010-01-01T05:25:17Z</time>
      </trkpt>
      <trkpt lat="42.32845" lon="2.55108">
        <ele>1313</ele>
        <time>2010-01-01T05:25:47Z</time>
      </trkpt>
      <trkpt lat="42.32823" lon="2.55122">
        <ele>1316</ele>
        <time>2010-01-01T05:26:11Z</time>
      </trkpt>
      <trkpt lat="42.32814" lon="2.55128">
        <ele>1319</ele>
        <time>2010-01-01T05:26:21Z</time>
      </trkpt>
      <trkpt lat="42.32798" lon="2.55123">
        <ele>1324</ele>
        <time>2010-01-01T05:26:37Z</time>
      </trkpt>
      <trkpt lat="42.32794" lon="2.55117">
        <ele>1325</ele>
        <time>2010-01-01T05:26:43Z</time>
      </trkpt>
      <trkpt lat="42.32791" lon="2.5512">
        <ele>1326</ele>
        <time>2010-01-01T05:26:47Z</time>
      </trkpt>
      <trkpt lat="42.32783" lon="2.55131">
        <ele>1329</ele>
        <time>2010-01-01T05:26:59Z</time>
      </trkpt>
      <trkpt lat="42.3277" lon="2.55145">
        <ele>1331</ele>
        <time>2010-01-01T05:27:15Z</time>
      </trkpt>
      <trkpt lat="42.32755" lon="2.55171">
        <ele>1330</ele>
        <time>2010-01-01T05:27:40Z</time>
      </trkpt>
      <trkpt lat="42.32745" lon="2.55189">
        <ele>1329</ele>
        <time>2010-01-01T05:27:56Z</time>
      </trkpt>
      <trkpt lat="42.32727" lon="2.55209">
        <ele>1329</ele>
        <time>2010-01-01T05:28:19Z</time>
      </trkpt>
      <trkpt lat="42.32705" lon="2.55246">
        <ele>1329</ele>
        <time>2010-01-01T05:28:55Z</time>
      </trkpt>
      <trkpt lat="42.32683" lon="2.55262">
        <ele>1330</ele>
        <time>2010-01-01T05:29:20Z</time>
      </trkpt>
      <trkpt lat="42.32666" lon="2.55284">
        <ele>1329</ele>
        <time>2010-01-01T05:29:43Z</time>
      </trkpt>
      <trkpt lat="42.32664" lon="2.55285">
        <ele>1329</ele>
        <time>2010-01-01T05:29:45Z</time>
      </trkpt>
      <trkpt lat="42.32633" lon="2.55325">
        <ele>1329</ele>
        <time>2010-01-01T05:30:28Z</time>
      </trkpt>
      <trkpt lat="42.32616" lon="2.55355">
        <ele>1336</ele>
        <time>2010-01-01T05:30:56Z</time>
      </trkpt>
      <trkpt lat="42.32605" lon="2.55382">
        <ele>1343</ele>
        <time>2010-01-01T05:31:19Z</time>
      </trkpt>
      <trkpt lat="42.32602" lon="2.55405">
        <ele>1347</ele>
        <time>2010-01-01T05:31:36Z</time>
      </trkpt>
      <trkpt lat="42.32591" lon="2.55425">
        <ele>1350</ele>
        <time>2010-01-01T05:31:54Z</time>
      </trkpt>
      <trkpt lat="42.32579" lon="2.55448">
        <ele>1353</ele>
        <time>2010-01-01T05:32:15Z</time>
      </trkpt>
      <trkpt lat="42.32577" lon="2.5545">
        <ele>1354</ele>
        <time>2010-01-01T05:32:18Z</time>
      </trkpt>
      <trkpt lat="42.32556" lon="2.5547">
        <ele>1362</ele>
        <time>2010-01-01T05:32:43Z</time>
      </trkpt>
      <trkpt lat="42.32539" lon="2.55498">
        <ele>1367</ele>
        <time>2010-01-01T05:33:11Z</time>
      </trkpt>
      <trkpt lat="42.32521" lon="2.55524">
        <ele>1372</ele>
        <time>2010-01-01T05:33:37Z</time>
      </trkpt>
      <trkpt lat="42.32509" lon="2.5554">
        <ele>1373</ele>
        <time>2010-01-01T05:33:53Z</time>
      </trkpt>
      <trkpt lat="42.32503" lon="2.55539">
        <ele>1374</ele>
        <time>2010-01-01T05:34:00Z</time>
      </trkpt>
      <trkpt lat="42.32496" lon="2.55539">
        <ele>1374</ele>
        <time>2010-01-01T05:34:06Z</time>
      </trkpt>
      <trkpt lat="42.32489" lon="2.5554">
        <ele>1374</ele>
        <time>2010-01-01T05:34:13Z</time>
      </trkpt>
      <trkpt lat="42.32465" lon="2.55544">
        <ele>1372</ele>
        <time>2010-01-01T05:34:38Z</time>
      </trkpt>
      <trkpt lat="42.3245" lon="2.55548">
        <ele>1371</ele>
        <time>2010-01-01T05:34:53Z</time>
      </trkpt>
      <trkpt lat="42.32452" lon="2.55551">
        <ele>1372</ele>
        <time>2010-01-01T05:34:55Z</time>
      </trkpt>
      <trkpt lat="42.32453" lon="2.55549">
        <ele>1372</ele>
        <time>2010-01-01T05:34:57Z</time>
      </trkpt>
      <trkpt lat="42.32454" lon="2.55551">
        <ele>1372</ele>
        <time>2010-01-01T05:34:58Z</time>
      </trkpt>
      <trkpt lat="42.32454" lon="2.55549">
        <ele>1372</ele>
        <time>2010-01-01T05:35:00Z</time>
      </trkpt>
      <trkpt lat="42.32453" lon="2.5555">
        <ele>1372</ele>
        <time>2010-01-01T05:35:01Z</time>
      </trkpt>
      <trkpt lat="42.32451" lon="2.5555">
        <ele>1371</ele>
        <time>2010-01-01T05:35:04Z</time>
      </trkpt>
      <trkpt lat="42.32455" lon="2.55548">
        <ele>1372</ele>
        <time>2010-01-01T05:35:08Z</time>
      </trkpt>
      <trkpt lat="42.32459" lon="2.55548">
        <ele>1372</ele>
        <time>2010-01-01T05:35:12Z</time>
      </trkpt>
      <trkpt lat="42.32465" lon="2.55543">
        <ele>1372</ele>
        <time>2010-01-01T05:35:19Z</time>
      </trkpt>
      <trkpt lat="42.32459" lon="2.55547">
        <ele>1372</ele>
        <time>2010-01-01T05:35:25Z</time>
      </trkpt>
      <trkpt lat="42.32442" lon="2.5555">
        <ele>1371</ele>
        <time>2010-01-01T05:35:42Z</time>
      </trkpt>
      <trkpt lat="42.32434" lon="2.55547">
        <ele>1369</ele>
        <time>2010-01-01T05:35:51Z</time>
      </trkpt>
      <trkpt lat="42.3243" lon="2.55555">
        <ele>1369</ele>
        <time>2010-01-01T05:35:57Z</time>
      </trkpt>
      <trkpt lat="42.32415" lon="2.5556">
        <ele>1365</ele>
        <time>2010-01-01T05:36:13Z</time>
      </trkpt>
      <trkpt lat="42.32412" lon="2.5556">
        <ele>1364</ele>
        <time>2010-01-01T05:36:16Z</time>
      </trkpt>
      <trkpt lat="42.32393" lon="2.55573">
        <ele>1357</ele>
        <time>2010-01-01T05:36:37Z</time>
      </trkpt>
      <trkpt lat="42.32392" lon="2.55573">
        <ele>1356</ele>
        <time>2010-01-01T05:36:38Z</time>
      </trkpt>
      <trkpt lat="42.32357" lon="2.5559">
        <ele>1347</ele>
        <time>2010-01-01T05:37:15Z</time>
      </trkpt>
      <trkpt lat="42.32326" lon="2.55605">
        <ele>1337</ele>
        <time>2010-01-01T05:37:48Z</time>
      </trkpt>
      <trkpt lat="42.32301" lon="2.55613">
        <ele>1332</ele>
        <time>2010-01-01T05:38:14Z</time>
      </trkpt>
      <trkpt lat="42.32298" lon="2.55623">
        <ele>1331</ele>
        <time>2010-01-01T05:38:21Z</time>
      </trkpt>
      <trkpt lat="42.32289" lon="2.55646">
        <ele>1328</ele>
        <time>2010-01-01T05:38:41Z</time>
      </trkpt>
      <trkpt lat="42.32282" lon="2.55659">
        <ele>1327</ele>
        <time>2010-01-01T05:38:53Z</time>
      </trkpt>
      <trkpt lat="42.32271" lon="2.55669">
        <ele>1324</ele>
        <time>2010-01-01T05:39:07Z</time>
      </trkpt>
      <trkpt lat="42.32269" lon="2.55674">
        <ele>1323</ele>
        <time>2010-01-01T05:39:10Z</time>
      </trkpt>
      <trkpt lat="42.32256" lon="2.55675">
        <ele>1319</ele>
        <time>2010-01-01T05:39:24Z</time>
      </trkpt>
      <trkpt lat="42.32246" lon="2.55692">
        <ele>1317</ele>
        <time>2010-01-01T05:39:39Z</time>
      </trkpt>
      <trkpt lat="42.32238" lon="2.55692">
        <ele>1313</ele>
        <time>2010-01-01T05:39:48Z</time>
      </trkpt>
      <trkpt lat="42.32231" lon="2.5569">
        <ele>1309</ele>
        <time>2010-01-01T05:39:55Z</time>
      </trkpt>
      <trkpt lat="42.32224" lon="2.55699">
        <ele>1307</ele>
        <time>2010-01-01T05:40:05Z</time>
      </trkpt>
      <trkpt lat="42.3222" lon="2.55732">
        <ele>1311</ele>
        <time>2010-01-01T05:40:30Z</time>
      </trkpt>
      <trkpt lat="42.32198" lon="2.55753">
        <ele>1302</ele>
        <time>2010-01-01T05:40:57Z</time>
      </trkpt>
      <trkpt lat="42.3217" lon="2.55775">
        <ele>1291</ele>
        <time>2010-01-01T05:41:29Z</time>
      </trkpt>
      <trkpt lat="42.3216" lon="2.55786">
        <ele>1285</ele>
        <time>2010-01-01T05:41:42Z</time>
      </trkpt>
      <trkpt lat="42.32147" lon="2.55802">
        <ele>1278</ele>
        <time>2010-01-01T05:41:59Z</time>
      </trkpt>
      <trkpt lat="42.32147" lon="2.55811">
        <ele>1279</ele>
        <time>2010-01-01T05:42:06Z</time>
      </trkpt>
      <trkpt lat="42.32139" lon="2.55838">
        <ele>1276</ele>
        <time>2010-01-01T05:42:27Z</time>
      </trkpt>
      <trkpt lat="42.32136" lon="2.55846">
        <ele>1275</ele>
        <time>2010-01-01T05:42:34Z</time>
      </trkpt>
      <trkpt lat="42.3213" lon="2.55855">
        <ele>1273</ele>
        <time>2010-01-01T05:42:42Z</time>
      </trkpt>
      <trkpt lat="42.32125" lon="2.5588">
        <ele>1272</ele>
        <time>2010-01-01T05:43:02Z</time>
      </trkpt>
      <trkpt lat="42.32117" lon="2.55898">
        <ele>1269</ele>
        <time>2010-01-01T05:43:17Z</time>
      </trkpt>
      <trkpt lat="42.32101" lon="2.55922">
        <ele>1263</ele>
        <time>2010-01-01T05:43:42Z</time>
      </trkpt>
      <trkpt lat="42.32093" lon="2.55941">
        <ele>1262</ele>
        <time>2010-01-01T05:43:57Z</time>
      </trkpt>
      <trkpt lat="42.32084" lon="2.55972">
        <ele>1258</ele>
        <time>2010-01-01T05:44:23Z</time>
      </trkpt>
      <trkpt lat="42.32074" lon="2.55989">
        <ele>1255</ele>
        <time>2010-01-01T05:44:38Z</time>
      </trkpt>
      <trkpt lat="42.32064" lon="2.56013">
        <ele>1252</ele>
        <time>2010-01-01T05:44:59Z</time>
      </trkpt>
      <trkpt lat="42.32049" lon="2.56055">
        <ele>1246</ele>
        <time>2010-01-01T05:45:33Z</time>
      </trkpt>
      <trkpt lat="42.32031" lon="2.56089">
        <ele>1249</ele>
        <time>2010-01-01T05:46:04Z</time>
      </trkpt>
      <trkpt lat="42.3202" lon="2.56101">
        <ele>1251</ele>
        <time>2010-01-01T05:46:19Z</time>
      </trkpt>
      <trkpt lat="42.32003" lon="2.56113">
        <ele>1253</ele>
        <time>2010-01-01T05:46:38Z</time>
      </trkpt>
      <trkpt lat="42.31972" lon="2.56145">
        <ele>1254</ele>
        <time>2010-01-01T05:47:16Z</time>
      </trkpt>
      <trkpt lat="42.31962" lon="2.56167">
        <ele>1257</ele>
        <time>2010-01-01T05:47:36Z</time>
      </trkpt>
      <trkpt lat="42.31939" lon="2.56193">
        <ele>1262</ele>
        <time>2010-01-01T05:48:06Z</time>
      </trkpt>
      <trkpt lat="42.31931" lon="2.56207">
        <ele>1264</ele>
        <time>2010-01-01T05:48:19Z</time>
      </trkpt>
      <trkpt lat="42.31933" lon="2.56204">
        <ele>1263</ele>
        <time>2010-01-01T05:48:22Z</time>
      </trkpt>
      <trkpt lat="42.31929" lon="2.56201">
        <ele>1263</ele>
        <time>2010-01-01T05:48:27Z</time>
      </trkpt>
      <trkpt lat="42.31929" lon="2.56201">
        <ele>1263</ele>
        <time>2010-01-01T05:48:27Z</time>
      </trkpt>
      <trkpt lat="42.31928" lon="2.56207">
        <ele>1264</ele>
        <time>2010-01-01T05:48:31Z</time>
      </trkpt>
      <trkpt lat="42.31931" lon="2.56208">
        <ele>1264</ele>
        <time>2010-01-01T05:48:34Z</time>
      </trkpt>
      <trkpt lat="42.31924" lon="2.56207">
        <ele>1264</ele>
        <time>2010-01-01T05:48:42Z</time>
      </trkpt>
      <trkpt lat="42.31929" lon="2.56211">
        <ele>1264</ele>
        <time>2010-01-01T05:48:48Z</time>
      </trkpt>
      <trkpt lat="42.31927" lon="2.56212">
        <ele>1265</ele>
        <time>2010-01-01T05:48:50Z</time>
      </trkpt>
      <trkpt lat="42.31927" lon="2.56207">
        <ele>1264</ele>
        <time>2010-01-01T05:48:53Z</time>
      </trkpt>
      <trkpt lat="42.3192" lon="2.56223">
        <ele>1266</ele>
        <time>2010-01-01T05:49:07Z</time>
      </trkpt>
      <trkpt lat="42.31906" lon="2.56242">
        <ele>1273</ele>
        <time>2010-01-01T05:49:27Z</time>
      </trkpt>
      <trkpt lat="42.31899" lon="2.56248">
        <ele>1276</ele>
        <time>2010-01-01T05:49:35Z</time>
      </trkpt>
      <trkpt lat="42.31885" lon="2.56274">
        <ele>1283</ele>
        <time>2010-01-01T05:49:59Z</time>
      </trkpt>
      <trkpt lat="42.31868" lon="2.56284">
        <ele>1287</ele>
        <time>2010-01-01T05:50:18Z</time>
      </trkpt>
      <trkpt lat="42.31855" lon="2.56277">
        <ele>1292</ele>
        <time>2010-01-01T05:50:32Z</time>
      </trkpt>
      <trkpt lat="42.3184" lon="2.56275">
        <ele>1295</ele>
        <time>2010-01-01T05:50:46Z</time>
      </trkpt>
      <trkpt lat="42.31827" lon="2.56288">
        <ele>1295</ele>
        <time>2010-01-01T05:51:03Z</time>
      </trkpt>
      <trkpt lat="42.31813" lon="2.56299">
        <ele>1291</ele>
        <time>2010-01-01T05:51:19Z</time>
      </trkpt>
      <trkpt lat="42.31807" lon="2.56301">
        <ele>1289</ele>
        <time>2010-01-01T05:51:25Z</time>
      </trkpt>
      <trkpt lat="42.31798" lon="2.56295">
        <ele>1288</ele>
        <time>2010-01-01T05:51:35Z</time>
      </trkpt>
      <trkpt lat="42.31796" lon="2.56283">
        <ele>1292</ele>
        <time>2010-01-01T05:51:44Z</time>
      </trkpt>
      <trkpt lat="42.31789" lon="2.56265">
        <ele>1295</ele>
        <time>2010-01-01T05:52:00Z</time>
      </trkpt>
      <trkpt lat="42.31779" lon="2.5625">
        <ele>1297</ele>
        <time>2010-01-01T05:52:14Z</time>
      </trkpt>
      <trkpt lat="42.31773" lon="2.5623">
        <ele>1300</ele>
        <time>2010-01-01T05:52:30Z</time>
      </trkpt>
      <trkpt lat="42.31772" lon="2.56224">
        <ele>1301</ele>
        <time>2010-01-01T05:52:35Z</time>
      </trkpt>
      <trkpt lat="42.31772" lon="2.56219">
        <ele>1301</ele>
        <time>2010-01-01T05:52:39Z</time>
      </trkpt>
      <trkpt lat="42.31772" lon="2.5622">
        <ele>1301</ele>
        <time>2010-01-01T05:52:39Z</time>
      </trkpt>
      <trkpt lat="42.31772" lon="2.56223">
        <ele>1301</ele>
        <time>2010-01-01T05:52:42Z</time>
      </trkpt>
      <trkpt lat="42.31771" lon="2.56226">
        <ele>1300</ele>
        <time>2010-01-01T05:52:45Z</time>
      </trkpt>
      <trkpt lat="42.31773" lon="2.56225">
        <ele>1301</ele>
        <time>2010-01-01T05:52:47Z</time>
      </trkpt>
      <trkpt lat="42.31773" lon="2.56224">
        <ele>1301</ele>
        <time>2010-01-01T05:52:48Z</time>
      </trkpt>
      <trkpt lat="42.31773" lon="2.56223">
        <ele>1301</ele>
        <time>2010-01-01T05:52:49Z</time>
      </trkpt>
      <trkpt lat="42.31773" lon="2.56224">
        <ele>1301</ele>
        <time>2010-01-01T05:52:49Z</time>
      </trkpt>
      <trkpt lat="42.31774" lon="2.56229">
        <ele>1301</ele>
        <time>2010-01-01T05:52:53Z</time>
      </trkpt>
      <trkpt lat="42.31774" lon="2.56232">
        <ele>1300</ele>
        <time>2010-01-01T05:52:56Z</time>
      </trkpt>
      <trkpt lat="42.31782" lon="2.56252">
        <ele>1297</ele>
        <time>2010-01-01T05:53:12Z</time>
      </trkpt>
      <trkpt lat="42.3179" lon="2.56267">
        <ele>1295</ele>
        <time>2010-01-01T05:53:25Z</time>
      </trkpt>
      <trkpt lat="42.31793" lon="2.56275">
        <ele>1294</ele>
        <time>2010-01-01T05:53:32Z</time>
      </trkpt>
      <trkpt lat="42.31798" lon="2.56296">
        <ele>1288</ele>
        <time>2010-01-01T05:53:49Z</time>
      </trkpt>
      <trkpt lat="42.31803" lon="2.56301">
        <ele>1288</ele>
        <time>2010-01-01T05:53:54Z</time>
      </trkpt>
      <trkpt lat="42.31808" lon="2.56306">
        <ele>1288</ele>
        <time>2010-01-01T05:54:00Z</time>
      </trkpt>
      <trkpt lat="42.3182" lon="2.56298">
        <ele>1292</ele>
        <time>2010-01-01T05:54:14Z</time>
      </trkpt>
      <trkpt lat="42.31835" lon="2.5628">
        <ele>1296</ele>
        <time>2010-01-01T05:54:34Z</time>
      </trkpt>
      <trkpt lat="42.31864" lon="2.56285">
        <ele>1288</ele>
        <time>2010-01-01T05:55:04Z</time>
      </trkpt>
      <trkpt lat="42.31885" lon="2.56294">
        <ele>1281</ele>
        <time>2010-01-01T05:55:26Z</time>
      </trkpt>
      <trkpt lat="42.31906" lon="2.56302">
        <ele>1274</ele>
        <time>2010-01-01T05:55:48Z</time>
      </trkpt>
      <trkpt lat="42.31917" lon="2.56307">
        <ele>1270</ele>
        <time>2010-01-01T05:56:00Z</time>
      </trkpt>
      <trkpt lat="42.31936" lon="2.56309">
        <ele>1262</ele>
        <time>2010-01-01T05:56:19Z</time>
      </trkpt>
      <trkpt lat="42.31947" lon="2.56315">
        <ele>1256</ele>
        <time>2010-01-01T05:56:30Z</time>
      </trkpt>
      <trkpt lat="42.31941" lon="2.56325">
        <ele>1257</ele>
        <time>2010-01-01T05:56:40Z</time>
      </trkpt>
      <trkpt lat="42.3195" lon="2.56323">
        <ele>1253</ele>
        <time>2010-01-01T05:56:48Z</time>
      </trkpt>
      <trkpt lat="42.31953" lon="2.56326">
        <ele>1251</ele>
        <time>2010-01-01T05:56:52Z</time>
      </trkpt>
      <trkpt lat="42.3195" lon="2.56341">
        <ele>1247</ele>
        <time>2010-01-01T05:57:04Z</time>
      </trkpt>
      <trkpt lat="42.31942" lon="2.56362">
        <ele>1243</ele>
        <time>2010-01-01T05:57:22Z</time>
      </trkpt>
      <trkpt lat="42.31938" lon="2.56373">
        <ele>1241</ele>
        <time>2010-01-01T05:57:30Z</time>
      </trkpt>
      <trkpt lat="42.3194" lon="2.56372">
        <ele>1240</ele>
        <time>2010-01-01T05:57:33Z</time>
      </trkpt>
      <trkpt lat="42.3194" lon="2.56404">
        <ele>1227</ele>
        <time>2010-01-01T05:57:56Z</time>
      </trkpt>
      <trkpt lat="42.3194" lon="2.56417">
        <ele>1221</ele>
        <time>2010-01-01T05:58:06Z</time>
      </trkpt>
      <trkpt lat="42.31939" lon="2.56441">
        <ele>1215</ele>
        <time>2010-01-01T05:58:24Z</time>
      </trkpt>
      <trkpt lat="42.31938" lon="2.5646">
        <ele>1209</ele>
        <time>2010-01-01T05:58:38Z</time>
      </trkpt>
      <trkpt lat="42.31948" lon="2.56471">
        <ele>1202</ele>
        <time>2010-01-01T05:58:51Z</time>
      </trkpt>
      <trkpt lat="42.31942" lon="2.56485">
        <ele>1200</ele>
        <time>2010-01-01T05:59:03Z</time>
      </trkpt>
      <trkpt lat="42.31949" lon="2.56504">
        <ele>1191</ele>
        <time>2010-01-01T05:59:19Z</time>
      </trkpt>
      <trkpt lat="42.31946" lon="2.56514">
        <ele>1187</ele>
        <time>2010-01-01T05:59:27Z</time>
      </trkpt>
      <trkpt lat="42.31939" lon="2.56526">
        <ele>1183</ele>
        <time>2010-01-01T05:59:38Z</time>
      </trkpt>
      <trkpt lat="42.31945" lon="2.56539">
        <ele>1177</ele>
        <time>2010-01-01T05:59:49Z</time>
      </trkpt>
      <trkpt lat="42.31949" lon="2.56546">
        <ele>1172</ele>
        <time>2010-01-01T05:59:56Z</time>
      </trkpt>
      <trkpt lat="42.31963" lon="2.56555">
        <ele>1165</ele>
        <time>2010-01-01T06:00:11Z</time>
      </trkpt>
      <trkpt lat="42.31963" lon="2.56572">
        <ele>1159</ele>
        <time>2010-01-01T06:00:24Z</time>
      </trkpt>
      <trkpt lat="42.31962" lon="2.56593">
        <ele>1151</ele>
        <time>2010-01-01T06:00:39Z</time>
      </trkpt>
      <trkpt lat="42.31965" lon="2.56621">
        <ele>1140</ele>
        <time>2010-01-01T06:01:01Z</time>
      </trkpt>
      <trkpt lat="42.31967" lon="2.56662">
        <ele>1127</ele>
        <time>2010-01-01T06:01:30Z</time>
      </trkpt>
      <trkpt lat="42.31965" lon="2.56697">
        <ele>1116</ele>
        <time>2010-01-01T06:01:57Z</time>
      </trkpt>
      <trkpt lat="42.31962" lon="2.56717">
        <ele>1110</ele>
        <time>2010-01-01T06:02:12Z</time>
      </trkpt>
      <trkpt lat="42.31955" lon="2.56709">
        <ele>1113</ele>
        <time>2010-01-01T06:02:21Z</time>
      </trkpt>
      <trkpt lat="42.31956" lon="2.56714">
        <ele>1111</ele>
        <time>2010-01-01T06:02:25Z</time>
      </trkpt>
      <trkpt lat="42.31956" lon="2.56712">
        <ele>1112</ele>
        <time>2010-01-01T06:02:26Z</time>
      </trkpt>
      <trkpt lat="42.31955" lon="2.56715">
        <ele>1111</ele>
        <time>2010-01-01T06:02:28Z</time>
      </trkpt>
      <trkpt lat="42.31954" lon="2.56714">
        <ele>1111</ele>
        <time>2010-01-01T06:02:30Z</time>
      </trkpt>
      <trkpt lat="42.31954" lon="2.56713">
        <ele>1112</ele>
        <time>2010-01-01T06:02:31Z</time>
      </trkpt>
      <trkpt lat="42.31956" lon="2.56712">
        <ele>1112</ele>
        <time>2010-01-01T06:02:33Z</time>
      </trkpt>
      <trkpt lat="42.31958" lon="2.56716">
        <ele>1111</ele>
        <time>2010-01-01T06:02:37Z</time>
      </trkpt>
      <trkpt lat="42.31952" lon="2.56718">
        <ele>1110</ele>
        <time>2010-01-01T06:02:43Z</time>
      </trkpt>
      <trkpt lat="42.31942" lon="2.5673">
        <ele>1106</ele>
        <time>2010-01-01T06:02:56Z</time>
      </trkpt>
      <trkpt lat="42.31939" lon="2.56747">
        <ele>1101</ele>
        <time>2010-01-01T06:03:09Z</time>
      </trkpt>
      <trkpt lat="42.31934" lon="2.56748">
        <ele>1099</ele>
        <time>2010-01-01T06:03:14Z</time>
      </trkpt>
      <trkpt lat="42.31933" lon="2.5675">
        <ele>1098</ele>
        <time>2010-01-01T06:03:16Z</time>
      </trkpt>
      <trkpt lat="42.31926" lon="2.56752">
        <ele>1096</ele>
        <time>2010-01-01T06:03:23Z</time>
      </trkpt>
      <trkpt lat="42.31918" lon="2.56747">
        <ele>1095</ele>
        <time>2010-01-01T06:03:32Z</time>
      </trkpt>
      <trkpt lat="42.31906" lon="2.56746">
        <ele>1092</ele>
        <time>2010-01-01T06:03:44Z</time>
      </trkpt>
      <trkpt lat="42.31901" lon="2.56741">
        <ele>1092</ele>
        <time>2010-01-01T06:03:50Z</time>
      </trkpt>
      <trkpt lat="42.31903" lon="2.56729">
        <ele>1097</ele>
        <time>2010-01-01T06:03:58Z</time>
      </trkpt>
      <trkpt lat="42.31897" lon="2.56743">
        <ele>1090</ele>
        <time>2010-01-01T06:04:11Z</time>
      </trkpt>
      <trkpt lat="42.31889" lon="2.56752">
        <ele>1085</ele>
        <time>2010-01-01T06:04:21Z</time>
      </trkpt>
      <trkpt lat="42.3188" lon="2.56766">
        <ele>1079</ele>
        <time>2010-01-01T06:04:34Z</time>
      </trkpt>
      <trkpt lat="42.31866" lon="2.56761">
        <ele>1076</ele>
        <time>2010-01-01T06:04:49Z</time>
      </trkpt>
      <trkpt lat="42.31862" lon="2.56785">
        <ele>1067</ele>
        <time>2010-01-01T06:05:07Z</time>
      </trkpt>
      <trkpt lat="42.31865" lon="2.56809">
        <ele>1056</ele>
        <time>2010-01-01T06:05:26Z</time>
      </trkpt>
      <trkpt lat="42.31865" lon="2.5683">
        <ele>1047</ele>
        <time>2010-01-01T06:05:41Z</time>
      </trkpt>
      <trkpt lat="42.3186" lon="2.56855">
        <ele>1032</ele>
        <time>2010-01-01T06:06:00Z</time>
      </trkpt>
      <trkpt lat="42.31851" lon="2.56873">
        <ele>1021</ele>
        <time>2010-01-01T06:06:17Z</time>
      </trkpt>
      <trkpt lat="42.31852" lon="2.56875">
        <ele>1020</ele>
        <time>2010-01-01T06:06:19Z</time>
      </trkpt>
      <trkpt lat="42.31874" lon="2.56876">
        <ele>1031</ele>
        <time>2010-01-01T06:06:41Z</time>
      </trkpt>
      <trkpt lat="42.31876" lon="2.5688">
        <ele>1031</ele>
        <time>2010-01-01T06:06:44Z</time>
      </trkpt>
      <trkpt lat="42.31879" lon="2.56878">
        <ele>1033</ele>
        <time>2010-01-01T06:06:47Z</time>
      </trkpt>
      <trkpt lat="42.31893" lon="2.56881">
        <ele>1041</ele>
        <time>2010-01-01T06:07:01Z</time>
      </trkpt>
      <trkpt lat="42.31892" lon="2.56886">
        <ele>1039</ele>
        <time>2010-01-01T06:07:05Z</time>
      </trkpt>
      <trkpt lat="42.31885" lon="2.56894">
        <ele>1031</ele>
        <time>2010-01-01T06:07:14Z</time>
      </trkpt>
      <trkpt lat="42.31879" lon="2.56896">
        <ele>1025</ele>
        <time>2010-01-01T06:07:21Z</time>
      </trkpt>
      <trkpt lat="42.31875" lon="2.56907">
        <ele>1017</ele>
        <time>2010-01-01T06:07:30Z</time>
      </trkpt>
      <trkpt lat="42.31865" lon="2.56914">
        <ele>1004</ele>
        <time>2010-01-01T06:07:41Z</time>
      </trkpt>
      <trkpt lat="42.31865" lon="2.56914">
        <ele>1003</ele>
        <time>2010-01-01T06:07:41Z</time>
      </trkpt>
      <trkpt lat="42.31864" lon="2.56905">
        <ele>1008</ele>
        <time>2010-01-01T06:07:48Z</time>
      </trkpt>
      <trkpt lat="42.31877" lon="2.56915">
        <ele>1015</ele>
        <time>2010-01-01T06:08:03Z</time>
      </trkpt>
      <trkpt lat="42.31897" lon="2.56924">
        <ele>1029</ele>
        <time>2010-01-01T06:08:24Z</time>
      </trkpt>
      <trkpt lat="42.3192" lon="2.56945">
        <ele>1038</ele>
        <time>2010-01-01T06:08:52Z</time>
      </trkpt>
      <trkpt lat="42.31925" lon="2.56962">
        <ele>1029</ele>
        <time>2010-01-01T06:09:06Z</time>
      </trkpt>
      <trkpt lat="42.31925" lon="2.56979">
        <ele>1018</ele>
        <time>2010-01-01T06:09:19Z</time>
      </trkpt>
      <trkpt lat="42.3192" lon="2.56996">
        <ele>1003</ele>
        <time>2010-01-01T06:09:32Z</time>
      </trkpt>
      <trkpt lat="42.31921" lon="2.57028">
        <ele>982</ele>
        <time>2010-01-01T06:09:55Z</time>
      </trkpt>
      <trkpt lat="42.31929" lon="2.57043">
        <ele>980</ele>
        <time>2010-01-01T06:10:09Z</time>
      </trkpt>
      <trkpt lat="42.3191" lon="2.57039">
        <ele>971</ele>
        <time>2010-01-01T06:10:29Z</time>
      </trkpt>
      <trkpt lat="42.31903" lon="2.57034">
        <ele>968</ele>
        <time>2010-01-01T06:10:36Z</time>
      </trkpt>
      <trkpt lat="42.31915" lon="2.57055">
        <ele>968</ele>
        <time>2010-01-01T06:10:55Z</time>
      </trkpt>
      <trkpt lat="42.31939" lon="2.57067">
        <ele>976</ele>
        <time>2010-01-01T06:11:21Z</time>
      </trkpt>
      <trkpt lat="42.31954" lon="2.57084">
        <ele>974</ele>
        <time>2010-01-01T06:11:40Z</time>
      </trkpt>
      <trkpt lat="42.3197" lon="2.57101">
        <ele>972</ele>
        <time>2010-01-01T06:12:01Z</time>
      </trkpt>
      <trkpt lat="42.3198" lon="2.57121">
        <ele>971</ele>
        <time>2010-01-01T06:12:19Z</time>
      </trkpt>
      <trkpt lat="42.31966" lon="2.57121">
        <ele>964</ele>
        <time>2010-01-01T06:12:33Z</time>
      </trkpt>
      <trkpt lat="42.31952" lon="2.57114">
        <ele>962</ele>
        <time>2010-01-01T06:12:47Z</time>
      </trkpt>
      <trkpt lat="42.31942" lon="2.57114">
        <ele>958</ele>
        <time>2010-01-01T06:12:58Z</time>
      </trkpt>
      <trkpt lat="42.31921" lon="2.57114">
        <ele>949</ele>
        <time>2010-01-01T06:13:19Z</time>
      </trkpt>
      <trkpt lat="42.31899" lon="2.57115">
        <ele>933</ele>
        <time>2010-01-01T06:13:40Z</time>
      </trkpt>
      <trkpt lat="42.31881" lon="2.57111">
        <ele>923</ele>
        <time>2010-01-01T06:13:59Z</time>
      </trkpt>
      <trkpt lat="42.3186" lon="2.57096">
        <ele>918</ele>
        <time>2010-01-01T06:14:22Z</time>
      </trkpt>
      <trkpt lat="42.31849" lon="2.57102">
        <ele>909</ele>
        <time>2010-01-01T06:14:35Z</time>
      </trkpt>
      <trkpt lat="42.31847" lon="2.57103">
        <ele>908</ele>
        <time>2010-01-01T06:14:36Z</time>
      </trkpt>
      <trkpt lat="42.31842" lon="2.57098">
        <ele>907</ele>
        <time>2010-01-01T06:14:43Z</time>
      </trkpt>
      <trkpt lat="42.3184" lon="2.57091">
        <ele>909</ele>
        <time>2010-01-01T06:14:49Z</time>
      </trkpt>
      <trkpt lat="42.31833" lon="2.57089">
        <ele>906</ele>
        <time>2010-01-01T06:14:56Z</time>
      </trkpt>
      <trkpt lat="42.31829" lon="2.57097">
        <ele>900</ele>
        <time>2010-01-01T06:15:04Z</time>
      </trkpt>
      <trkpt lat="42.31824" lon="2.57111">
        <ele>891</ele>
        <time>2010-01-01T06:15:15Z</time>
      </trkpt>
      <trkpt lat="42.31822" lon="2.57119">
        <ele>885</ele>
        <time>2010-01-01T06:15:21Z</time>
      </trkpt>
      <trkpt lat="42.31817" lon="2.57122">
        <ele>881</ele>
        <time>2010-01-01T06:15:26Z</time>
      </trkpt>
      <trkpt lat="42.3181" lon="2.57123">
        <ele>874</ele>
        <time>2010-01-01T06:15:34Z</time>
      </trkpt>
      <trkpt lat="42.3181" lon="2.57114">
        <ele>880</ele>
        <time>2010-01-01T06:15:41Z</time>
      </trkpt>
      <trkpt lat="42.31807" lon="2.57097">
        <ele>883</ele>
        <time>2010-01-01T06:15:54Z</time>
      </trkpt>
      <trkpt lat="42.31806" lon="2.57094">
        <ele>882</ele>
        <time>2010-01-01T06:15:56Z</time>
      </trkpt>
      <trkpt lat="42.31804" lon="2.57102">
        <ele>879</ele>
        <time>2010-01-01T06:16:02Z</time>
      </trkpt>
      <trkpt lat="42.31798" lon="2.57107">
        <ele>872</ele>
        <time>2010-01-01T06:16:09Z</time>
      </trkpt>
      <trkpt lat="42.31794" lon="2.57103">
        <ele>867</ele>
        <time>2010-01-01T06:16:15Z</time>
      </trkpt>
      <trkpt lat="42.31791" lon="2.57092">
        <ele>868</ele>
        <time>2010-01-01T06:16:24Z</time>
      </trkpt>
      <trkpt lat="42.31784" lon="2.57072">
        <ele>869</ele>
        <time>2010-01-01T06:16:40Z</time>
      </trkpt>
      <trkpt lat="42.31771" lon="2.57063">
        <ele>863</ele>
        <time>2010-01-01T06:16:55Z</time>
      </trkpt>
      <trkpt lat="42.3176" lon="2.57052">
        <ele>863</ele>
        <time>2010-01-01T06:17:09Z</time>
      </trkpt>
      <trkpt lat="42.31748" lon="2.57051">
        <ele>859</ele>
        <time>2010-01-01T06:17:21Z</time>
      </trkpt>
      <trkpt lat="42.31744" lon="2.57051">
        <ele>858</ele>
        <time>2010-01-01T06:17:25Z</time>
      </trkpt>
      <trkpt lat="42.31737" lon="2.57044">
        <ele>861</ele>
        <time>2010-01-01T06:17:33Z</time>
      </trkpt>
      <trkpt lat="42.31736" lon="2.57062">
        <ele>850</ele>
        <time>2010-01-01T06:17:46Z</time>
      </trkpt>
      <trkpt lat="42.31744" lon="2.57075">
        <ele>844</ele>
        <time>2010-01-01T06:17:58Z</time>
      </trkpt>
      <trkpt lat="42.31746" lon="2.57091">
        <ele>837</ele>
        <time>2010-01-01T06:18:11Z</time>
      </trkpt>
      <trkpt lat="42.31753" lon="2.57101">
        <ele>835</ele>
        <time>2010-01-01T06:18:21Z</time>
      </trkpt>
      <trkpt lat="42.3176" lon="2.57115">
        <ele>833</ele>
        <time>2010-01-01T06:18:33Z</time>
      </trkpt>
      <trkpt lat="42.31759" lon="2.57128">
        <ele>826</ele>
        <time>2010-01-01T06:18:43Z</time>
      </trkpt>
      <trkpt lat="42.31768" lon="2.5713">
        <ele>830</ele>
        <time>2010-01-01T06:18:52Z</time>
      </trkpt>
      <trkpt lat="42.31779" lon="2.57134">
        <ele>836</ele>
        <time>2010-01-01T06:19:04Z</time>
      </trkpt>
      <trkpt lat="42.3178" lon="2.5714">
        <ele>833</ele>
        <time>2010-01-01T06:19:08Z</time>
      </trkpt>
      <trkpt lat="42.31781" lon="2.5714">
        <ele>834</ele>
        <time>2010-01-01T06:19:09Z</time>
      </trkpt>
      <trkpt lat="42.31779" lon="2.57145">
        <ele>828</ele>
        <time>2010-01-01T06:19:13Z</time>
      </trkpt>
      <trkpt lat="42.31784" lon="2.57157">
        <ele>826</ele>
        <time>2010-01-01T06:19:22Z</time>
      </trkpt>
      <trkpt lat="42.31774" lon="2.57157">
        <ele>817</ele>
        <time>2010-01-01T06:19:33Z</time>
      </trkpt>
      <trkpt lat="42.31769" lon="2.57157">
        <ele>814</ele>
        <time>2010-01-01T06:19:37Z</time>
      </trkpt>
      <trkpt lat="42.31763" lon="2.57144">
        <ele>819</ele>
        <time>2010-01-01T06:19:49Z</time>
      </trkpt>
      <trkpt lat="42.31766" lon="2.57149">
        <ele>818</ele>
        <time>2010-01-01T06:19:54Z</time>
      </trkpt>
      <trkpt lat="42.31776" lon="2.57151">
        <ele>822</ele>
        <time>2010-01-01T06:20:04Z</time>
      </trkpt>
      <trkpt lat="42.31776" lon="2.57152">
        <ele>821</ele>
        <time>2010-01-01T06:20:04Z</time>
      </trkpt>
      <trkpt lat="42.31786" lon="2.57146">
        <ele>835</ele>
        <time>2010-01-01T06:20:15Z</time>
      </trkpt>
      <trkpt lat="42.31791" lon="2.57146">
        <ele>840</ele>
        <time>2010-01-01T06:20:21Z</time>
      </trkpt>
      <trkpt lat="42.3178" lon="2.57141">
        <ele>833</ele>
        <time>2010-01-01T06:20:32Z</time>
      </trkpt>
      <trkpt lat="42.31781" lon="2.5714">
        <ele>834</ele>
        <time>2010-01-01T06:20:33Z</time>
      </trkpt>
      <trkpt lat="42.31794" lon="2.57144">
        <ele>844</ele>
        <time>2010-01-01T06:20:46Z</time>
      </trkpt>
      <trkpt lat="42.31808" lon="2.57163">
        <ele>845</ele>
        <time>2010-01-01T06:21:05Z</time>
      </trkpt>
      <trkpt lat="42.31818" lon="2.57183">
        <ele>844</ele>
        <time>2010-01-01T06:21:24Z</time>
      </trkpt>
      <trkpt lat="42.31822" lon="2.57208">
        <ele>834</ele>
        <time>2010-01-01T06:21:43Z</time>
      </trkpt>
      <trkpt lat="42.31828" lon="2.57256">
        <ele>842</ele>
        <time>2010-01-01T06:22:19Z</time>
      </trkpt>
      <trkpt lat="42.31831" lon="2.57281">
        <ele>810</ele>
        <time>2010-01-01T06:22:38Z</time>
      </trkpt>
      <trkpt lat="42.3184" lon="2.57294">
        <ele>817</ele>
        <time>2010-01-01T06:22:51Z</time>
      </trkpt>
      <trkpt lat="42.31855" lon="2.57307">
        <ele>835</ele>
        <time>2010-01-01T06:23:08Z</time>
      </trkpt>
      <trkpt lat="42.31853" lon="2.57328">
        <ele>819</ele>
        <time>2010-01-01T06:23:24Z</time>
      </trkpt>
      <trkpt lat="42.31848" lon="2.57342">
        <ele>803</ele>
        <time>2010-01-01T06:23:36Z</time>
      </trkpt>
      <trkpt lat="42.31841" lon="2.57346">
        <ele>793</ele>
        <time>2010-01-01T06:23:43Z</time>
      </trkpt>
      <trkpt lat="42.31833" lon="2.57346">
        <ele>783</ele>
        <time>2010-01-01T06:23:51Z</time>
      </trkpt>
      <trkpt lat="42.3183" lon="2.57356">
        <ele>776</ele>
        <time>2010-01-01T06:23:59Z</time>
      </trkpt>
      <trkpt lat="42.31828" lon="2.5738">
        <ele>764</ele>
        <time>2010-01-01T06:24:17Z</time>
      </trkpt>
      <trkpt lat="42.31824" lon="2.57402">
        <ele>747</ele>
        <time>2010-01-01T06:24:33Z</time>
      </trkpt>
      <trkpt lat="42.31825" lon="2.5742">
        <ele>740</ele>
        <time>2010-01-01T06:24:47Z</time>
      </trkpt>
      <trkpt lat="42.31821" lon="2.57437">
        <ele>731</ele>
        <time>2010-01-01T06:25:00Z</time>
      </trkpt>
      <trkpt lat="42.3182" lon="2.57455">
        <ele>724</ele>
        <time>2010-01-01T06:25:14Z</time>
      </trkpt>
      <trkpt lat="42.31818" lon="2.57487">
        <ele>711</ele>
        <time>2010-01-01T06:25:38Z</time>
      </trkpt>
      <trkpt lat="42.31819" lon="2.5751">
        <ele>708</ele>
        <time>2010-01-01T06:25:54Z</time>
      </trkpt>
      <trkpt lat="42.31815" lon="2.57536">
        <ele>705</ele>
        <time>2010-01-01T06:26:14Z</time>
      </trkpt>
      <trkpt lat="42.31807" lon="2.57562">
        <ele>702</ele>
        <time>2010-01-01T06:26:35Z</time>
      </trkpt>
      <trkpt lat="42.31799" lon="2.57581">
        <ele>692</ele>
        <time>2010-01-01T06:26:51Z</time>
      </trkpt>
      <trkpt lat="42.31798" lon="2.57614">
        <ele>687</ele>
        <time>2010-01-01T06:27:15Z</time>
      </trkpt>
      <trkpt lat="42.31797" lon="2.57644">
        <ele>682</ele>
        <time>2010-01-01T06:27:37Z</time>
      </trkpt>
      <trkpt lat="42.31795" lon="2.5767">
        <ele>677</ele>
        <time>2010-01-01T06:27:57Z</time>
      </trkpt>
      <trkpt lat="42.31793" lon="2.5769">
        <ele>672</ele>
        <time>2010-01-01T06:28:12Z</time>
      </trkpt>
      <trkpt lat="42.31792" lon="2.5772">
        <ele>662</ele>
        <time>2010-01-01T06:28:34Z</time>
      </trkpt>
      <trkpt lat="42.31785" lon="2.57749">
        <ele>654</ele>
        <time>2010-01-01T06:28:57Z</time>
      </trkpt>
      <trkpt lat="42.31781" lon="2.57781">
        <ele>650</ele>
        <time>2010-01-01T06:29:20Z</time>
      </trkpt>
      <trkpt lat="42.31781" lon="2.57806">
        <ele>650</ele>
        <time>2010-01-01T06:29:39Z</time>
      </trkpt>
      <trkpt lat="42.31774" lon="2.57826">
        <ele>643</ele>
        <time>2010-01-01T06:29:56Z</time>
      </trkpt>
      <trkpt lat="42.31768" lon="2.57846">
        <ele>637</ele>
        <time>2010-01-01T06:30:11Z</time>
      </trkpt>
      <trkpt lat="42.31762" lon="2.57863">
        <ele>631</ele>
        <time>2010-01-01T06:30:25Z</time>
      </trkpt>
      <trkpt lat="42.31755" lon="2.5789">
        <ele>623</ele>
        <time>2010-01-01T06:30:47Z</time>
      </trkpt>
      <trkpt lat="42.31749" lon="2.57913">
        <ele>615</ele>
        <time>2010-01-01T06:31:05Z</time>
      </trkpt>
      <trkpt lat="42.31748" lon="2.5794">
        <ele>613</ele>
        <time>2010-01-01T06:31:25Z</time>
      </trkpt>
      <trkpt lat="42.31744" lon="2.57963">
        <ele>608</ele>
        <time>2010-01-01T06:31:42Z</time>
      </trkpt>
      <trkpt lat="42.31744" lon="2.57989">
        <ele>605</ele>
        <time>2010-01-01T06:32:01Z</time>
      </trkpt>
      <trkpt lat="42.31746" lon="2.58008">
        <ele>603</ele>
        <time>2010-01-01T06:32:15Z</time>
      </trkpt>
      <trkpt lat="42.31749" lon="2.58032">
        <ele>600</ele>
        <time>2010-01-01T06:32:33Z</time>
      </trkpt>
      <trkpt lat="42.31742" lon="2.58053">
        <ele>591</ele>
        <time>2010-01-01T06:32:50Z</time>
      </trkpt>
      <trkpt lat="42.31738" lon="2.58059">
        <ele>587</ele>
        <time>2010-01-01T06:32:56Z</time>
      </trkpt>
      <trkpt lat="42.31739" lon="2.58086">
        <ele>581</ele>
        <time>2010-01-01T06:33:16Z</time>
      </trkpt>
      <trkpt lat="42.31736" lon="2.58104">
        <ele>577</ele>
        <time>2010-01-01T06:33:30Z</time>
      </trkpt>
      <trkpt lat="42.31736" lon="2.58119">
        <ele>574</ele>
        <time>2010-01-01T06:33:41Z</time>
      </trkpt>
      <trkpt lat="42.31738" lon="2.5816">
        <ele>567</ele>
        <time>2010-01-01T06:34:11Z</time>
      </trkpt>
      <trkpt lat="42.31731" lon="2.58185">
        <ele>561</ele>
        <time>2010-01-01T06:34:30Z</time>
      </trkpt>
      <trkpt lat="42.31731" lon="2.58219">
        <ele>558</ele>
        <time>2010-01-01T06:34:56Z</time>
      </trkpt>
      <trkpt lat="42.31722" lon="2.58222">
        <ele>553</ele>
        <time>2010-01-01T06:35:04Z</time>
      </trkpt>
      <trkpt lat="42.31711" lon="2.58211">
        <ele>549</ele>
        <time>2010-01-01T06:35:18Z</time>
      </trkpt>
      <trkpt lat="42.31703" lon="2.58189">
        <ele>547</ele>
        <time>2010-01-01T06:35:36Z</time>
      </trkpt>
      <trkpt lat="42.31703" lon="2.58202">
        <ele>546</ele>
        <time>2010-01-01T06:35:45Z</time>
      </trkpt>
      <trkpt lat="42.31701" lon="2.58208">
        <ele>544</ele>
        <time>2010-01-01T06:35:50Z</time>
      </trkpt>
      <trkpt lat="42.317" lon="2.582">
        <ele>544</ele>
        <time>2010-01-01T06:35:56Z</time>
      </trkpt>
      <trkpt lat="42.31702" lon="2.58205">
        <ele>545</ele>
        <time>2010-01-01T06:36:00Z</time>
      </trkpt>
      <trkpt lat="42.31705" lon="2.58213">
        <ele>545</ele>
        <time>2010-01-01T06:36:07Z</time>
      </trkpt>
      <trkpt lat="42.31709" lon="2.58222">
        <ele>546</ele>
        <time>2010-01-01T06:36:15Z</time>
      </trkpt>
      <trkpt lat="42.31709" lon="2.58224">
        <ele>546</ele>
        <time>2010-01-01T06:36:16Z</time>
      </trkpt>
      <trkpt lat="42.31711" lon="2.58247">
        <ele>544</ele>
        <time>2010-01-01T06:36:33Z</time>
      </trkpt>
      <trkpt lat="42.31714" lon="2.58261">
        <ele>545</ele>
        <time>2010-01-01T06:36:45Z</time>
      </trkpt>
      <trkpt lat="42.31714" lon="2.58276">
        <ele>544</ele>
        <time>2010-01-01T06:36:55Z</time>
      </trkpt>
      <trkpt lat="42.31716" lon="2.58281">
        <ele>544</ele>
        <time>2010-01-01T06:36:59Z</time>
      </trkpt>
      <trkpt lat="42.31717" lon="2.58287">
        <ele>543</ele>
        <time>2010-01-01T06:37:04Z</time>
      </trkpt>
      <trkpt lat="42.3172" lon="2.58298">
        <ele>544</ele>
        <time>2010-01-01T06:37:12Z</time>
      </trkpt>
      <trkpt lat="42.31727" lon="2.58323">
        <ele>543</ele>
        <time>2010-01-01T06:37:32Z</time>
      </trkpt>
      <trkpt lat="42.31733" lon="2.58346">
        <ele>541</ele>
        <time>2010-01-01T06:37:50Z</time>
      </trkpt>
      <trkpt lat="42.31733" lon="2.58364">
        <ele>535</ele>
        <time>2010-01-01T06:38:03Z</time>
      </trkpt>
      <trkpt lat="42.3173" lon="2.58378">
        <ele>530</ele>
        <time>2010-01-01T06:38:14Z</time>
      </trkpt>
      <trkpt lat="42.31728" lon="2.58397">
        <ele>524</ele>
        <time>2010-01-01T06:38:29Z</time>
      </trkpt>
      <trkpt lat="42.31719" lon="2.58413">
        <ele>519</ele>
        <time>2010-01-01T06:38:44Z</time>
      </trkpt>
      <trkpt lat="42.31716" lon="2.58416">
        <ele>518</ele>
        <time>2010-01-01T06:38:47Z</time>
      </trkpt>
      <trkpt lat="42.31716" lon="2.58429">
        <ele>516</ele>
        <time>2010-01-01T06:38:56Z</time>
      </trkpt>
      <trkpt lat="42.31722" lon="2.58442">
        <ele>515</ele>
        <time>2010-01-01T06:39:08Z</time>
      </trkpt>
      <trkpt lat="42.31717" lon="2.58455">
        <ele>510</ele>
        <time>2010-01-01T06:39:18Z</time>
      </trkpt>
      <trkpt lat="42.31711" lon="2.58464">
        <ele>506</ele>
        <time>2010-01-01T06:39:27Z</time>
      </trkpt>
      <trkpt lat="42.31708" lon="2.58477">
        <ele>502</ele>
        <time>2010-01-01T06:39:38Z</time>
      </trkpt>
      <trkpt lat="42.31708" lon="2.58488">
        <ele>500</ele>
        <time>2010-01-01T06:39:46Z</time>
      </trkpt>
      <trkpt lat="42.3171" lon="2.58494">
        <ele>499</ele>
        <time>2010-01-01T06:39:51Z</time>
      </trkpt>
      <trkpt lat="42.31713" lon="2.58503">
        <ele>498</ele>
        <time>2010-01-01T06:39:58Z</time>
      </trkpt>
      <trkpt lat="42.3171" lon="2.58508">
        <ele>497</ele>
        <time>2010-01-01T06:40:03Z</time>
      </trkpt>
      <trkpt lat="42.31701" lon="2.58519">
        <ele>494</ele>
        <time>2010-01-01T06:40:15Z</time>
      </trkpt>
      <trkpt lat="42.31701" lon="2.58536">
        <ele>492</ele>
        <time>2010-01-01T06:40:28Z</time>
      </trkpt>
      <trkpt lat="42.31708" lon="2.5855">
        <ele>489</ele>
        <time>2010-01-01T06:40:41Z</time>
      </trkpt>
      <trkpt lat="42.31717" lon="2.58558">
        <ele>488</ele>
        <time>2010-01-01T06:40:52Z</time>
      </trkpt>
      <trkpt lat="42.31721" lon="2.58557">
        <ele>488</ele>
        <time>2010-01-01T06:40:55Z</time>
      </trkpt>
      <trkpt lat="42.31723" lon="2.58563">
        <ele>486</ele>
        <time>2010-01-01T06:41:01Z</time>
      </trkpt>
      <trkpt lat="42.31718" lon="2.58574">
        <ele>483</ele>
        <time>2010-01-01T06:41:10Z</time>
      </trkpt>
      <trkpt lat="42.31718" lon="2.58574">
        <ele>483</ele>
        <time>2010-01-01T06:41:11Z</time>
      </trkpt>
      <trkpt lat="42.31713" lon="2.58584">
        <ele>481</ele>
        <time>2010-01-01T06:41:20Z</time>
      </trkpt>
      <trkpt lat="42.31711" lon="2.58592">
        <ele>479</ele>
        <time>2010-01-01T06:41:26Z</time>
      </trkpt>
      <trkpt lat="42.31705" lon="2.58602">
        <ele>478</ele>
        <time>2010-01-01T06:41:35Z</time>
      </trkpt>
      <trkpt lat="42.317" lon="2.58614">
        <ele>477</ele>
        <time>2010-01-01T06:41:45Z</time>
      </trkpt>
      <trkpt lat="42.317" lon="2.58616">
        <ele>476</ele>
        <time>2010-01-01T06:41:46Z</time>
      </trkpt>
      <trkpt lat="42.31698" lon="2.58633">
        <ele>475</ele>
        <time>2010-01-01T06:41:59Z</time>
      </trkpt>
      <trkpt lat="42.31702" lon="2.58642">
        <ele>472</ele>
        <time>2010-01-01T06:42:07Z</time>
      </trkpt>
      <trkpt lat="42.31704" lon="2.58651">
        <ele>470</ele>
        <time>2010-01-01T06:42:14Z</time>
      </trkpt>
      <trkpt lat="42.31707" lon="2.58669">
        <ele>465</ele>
        <time>2010-01-01T06:42:28Z</time>
      </trkpt>
      <trkpt lat="42.31707" lon="2.58686">
        <ele>462</ele>
        <time>2010-01-01T06:42:40Z</time>
      </trkpt>
      <trkpt lat="42.31711" lon="2.58696">
        <ele>460</ele>
        <time>2010-01-01T06:42:49Z</time>
      </trkpt>
      <trkpt lat="42.31692" lon="2.58722">
        <ele>457</ele>
        <time>2010-01-01T06:43:16Z</time>
      </trkpt>
      <trkpt lat="42.31682" lon="2.58726">
        <ele>458</ele>
        <time>2010-01-01T06:43:27Z</time>
      </trkpt>
      <trkpt lat="42.31689" lon="2.58726">
        <ele>457</ele>
        <time>2010-01-01T06:43:35Z</time>
      </trkpt>
      <trkpt lat="42.31689" lon="2.58729">
        <ele>456</ele>
        <time>2010-01-01T06:43:37Z</time>
      </trkpt>
      <trkpt lat="42.31692" lon="2.58731">
        <ele>455</ele>
        <time>2010-01-01T06:43:40Z</time>
      </trkpt>
      <trkpt lat="42.31692" lon="2.58722">
        <ele>457</ele>
        <time>2010-01-01T06:43:47Z</time>
      </trkpt>
      <trkpt lat="42.317" lon="2.58711">
        <ele>458</ele>
        <time>2010-01-01T06:43:59Z</time>
      </trkpt>
      <trkpt lat="42.31696" lon="2.58722">
        <ele>456</ele>
        <time>2010-01-01T06:44:08Z</time>
      </trkpt>
      <trkpt lat="42.31696" lon="2.58722">
        <ele>456</ele>
        <time>2010-01-01T06:44:08Z</time>
      </trkpt>
      <trkpt lat="42.31697" lon="2.58711">
        <ele>459</ele>
        <time>2010-01-01T06:44:16Z</time>
      </trkpt>
      <trkpt lat="42.31694" lon="2.5872">
        <ele>457</ele>
        <time>2010-01-01T06:44:24Z</time>
      </trkpt>
      <trkpt lat="42.31704" lon="2.58711">
        <ele>458</ele>
        <time>2010-01-01T06:44:36Z</time>
      </trkpt>
      <trkpt lat="42.31701" lon="2.58712">
        <ele>458</ele>
        <time>2010-01-01T06:44:39Z</time>
      </trkpt>
      <trkpt lat="42.31692" lon="2.58734">
        <ele>455</ele>
        <time>2010-01-01T06:44:58Z</time>
      </trkpt>
      <trkpt lat="42.31691" lon="2.58727">
        <ele>456</ele>
        <time>2010-01-01T06:45:04Z</time>
      </trkpt>
      <trkpt lat="42.31686" lon="2.5874">
        <ele>455</ele>
        <time>2010-01-01T06:45:15Z</time>
      </trkpt>
      <trkpt lat="42.3169" lon="2.58731">
        <ele>456</ele>
        <time>2010-01-01T06:45:23Z</time>
      </trkpt>
      <trkpt lat="42.31693" lon="2.58727">
        <ele>456</ele>
        <time>2010-01-01T06:45:27Z</time>
      </trkpt>
      <trkpt lat="42.3169" lon="2.58735">
        <ele>455</ele>
        <time>2010-01-01T06:45:34Z</time>
      </trkpt>
      <trkpt lat="42.31682" lon="2.58736">
        <ele>456</ele>
        <time>2010-01-01T06:45:42Z</time>
      </trkpt>
      <trkpt lat="42.31681" lon="2.58744">
        <ele>455</ele>
        <time>2010-01-01T06:45:47Z</time>
      </trkpt>
      <trkpt lat="42.31689" lon="2.58728">
        <ele>456</ele>
        <time>2010-01-01T06:46:01Z</time>
      </trkpt>
      <trkpt lat="42.31686" lon="2.58731">
        <ele>456</ele>
        <time>2010-01-01T06:46:05Z</time>
      </trkpt>
      <trkpt lat="42.31683" lon="2.58732">
        <ele>457</ele>
        <time>2010-01-01T06:46:09Z</time>
      </trkpt>
      <trkpt lat="42.31683" lon="2.58733">
        <ele>456</ele>
        <time>2010-01-01T06:46:09Z</time>
      </trkpt>
      <trkpt lat="42.31675" lon="2.58741">
        <ele>456</ele>
        <time>2010-01-01T06:46:19Z</time>
      </trkpt>
      <trkpt lat="42.31684" lon="2.58736">
        <ele>456</ele>
        <time>2010-01-01T06:46:28Z</time>
      </trkpt>
      <trkpt lat="42.31693" lon="2.58735">
        <ele>454</ele>
        <time>2010-01-01T06:46:38Z</time>
      </trkpt>
      <trkpt lat="42.31694" lon="2.58723">
        <ele>456</ele>
        <time>2010-01-01T06:46:46Z</time>
      </trkpt>
      <trkpt lat="42.31691" lon="2.58738">
        <ele>454</ele>
        <time>2010-01-01T06:46:57Z</time>
      </trkpt>
      <trkpt lat="42.317" lon="2.58722">
        <ele>456</ele>
        <time>2010-01-01T06:47:11Z</time>
      </trkpt>
      <trkpt lat="42.31698" lon="2.58722">
        <ele>456</ele>
        <time>2010-01-01T06:47:13Z</time>
      </trkpt>
      <trkpt lat="42.3169" lon="2.58731">
        <ele>456</ele>
        <time>2010-01-01T06:47:23Z</time>
      </trkpt>
      <trkpt lat="42.31685" lon="2.58733">
        <ele>456</ele>
        <time>2010-01-01T06:47:29Z</time>
      </trkpt>
      <trkpt lat="42.31686" lon="2.58732">
        <ele>456</ele>
        <time>2010-01-01T06:47:31Z</time>
      </trkpt>
      <trkpt lat="42.31682" lon="2.58739">
        <ele>456</ele>
        <time>2010-01-01T06:47:37Z</time>
      </trkpt>
      <trkpt lat="42.31678" lon="2.5874">
        <ele>456</ele>
        <time>2010-01-01T06:47:41Z</time>
      </trkpt>
      <trkpt lat="42.31683" lon="2.58737">
        <ele>456</ele>
        <time>2010-01-01T06:47:46Z</time>
      </trkpt>
      <trkpt lat="42.3168" lon="2.58738">
        <ele>456</ele>
        <time>2010-01-01T06:47:48Z</time>
      </trkpt>
      <trkpt lat="42.3168" lon="2.58724">
        <ele>458</ele>
        <time>2010-01-01T06:47:59Z</time>
      </trkpt>
      <trkpt lat="42.31681" lon="2.58731">
        <ele>457</ele>
        <time>2010-01-01T06:48:05Z</time>
      </trkpt>
      <trkpt lat="42.31686" lon="2.58736">
        <ele>455</ele>
        <time>2010-01-01T06:48:11Z</time>
      </trkpt>
      <trkpt lat="42.31687" lon="2.58722">
        <ele>458</ele>
        <time>2010-01-01T06:48:22Z</time>
      </trkpt>
      <trkpt lat="42.31682" lon="2.58731">
        <ele>457</ele>
        <time>2010-01-01T06:48:30Z</time>
      </trkpt>
      <trkpt lat="42.31687" lon="2.58745">
        <ele>454</ele>
        <time>2010-01-01T06:48:41Z</time>
      </trkpt>
      <trkpt lat="42.31688" lon="2.58757">
        <ele>452</ele>
        <time>2010-01-01T06:48:50Z</time>
      </trkpt>
      <trkpt lat="42.31689" lon="2.58777">
        <ele>448</ele>
        <time>2010-01-01T06:49:05Z</time>
      </trkpt>
      <trkpt lat="42.31691" lon="2.58787">
        <ele>447</ele>
        <time>2010-01-01T06:49:12Z</time>
      </trkpt>
      <trkpt lat="42.31694" lon="2.5878">
        <ele>447</ele>
        <time>2010-01-01T06:49:18Z</time>
      </trkpt>
      <trkpt lat="42.317" lon="2.58788">
        <ele>447</ele>
        <time>2010-01-01T06:49:26Z</time>
      </trkpt>
      <trkpt lat="42.31709" lon="2.58789">
        <ele>447</ele>
        <time>2010-01-01T06:49:36Z</time>
      </trkpt>
      <trkpt lat="42.31714" lon="2.58803">
        <ele>447</ele>
        <time>2010-01-01T06:49:47Z</time>
      </trkpt>
      <trkpt lat="42.31711" lon="2.58795">
        <ele>447</ele>
        <time>2010-01-01T06:49:54Z</time>
      </trkpt>
      <trkpt lat="42.31708" lon="2.5882">
        <ele>448</ele>
        <time>2010-01-01T06:50:13Z</time>
      </trkpt>
      <trkpt lat="42.31714" lon="2.58809">
        <ele>448</ele>
        <time>2010-01-01T06:50:24Z</time>
      </trkpt>
      <trkpt lat="42.31716" lon="2.58805">
        <ele>448</ele>
        <time>2010-01-01T06:50:27Z</time>
      </trkpt>
      <trkpt lat="42.31713" lon="2.58808">
        <ele>448</ele>
        <time>2010-01-01T06:50:31Z</time>
      </trkpt>
      <trkpt lat="42.31708" lon="2.5881">
        <ele>447</ele>
        <time>2010-01-01T06:50:36Z</time>
      </trkpt>
      <trkpt lat="42.31716" lon="2.58813">
        <ele>449</ele>
        <time>2010-01-01T06:50:45Z</time>
      </trkpt>
      <trkpt lat="42.3171" lon="2.58825">
        <ele>449</ele>
        <time>2010-01-01T06:50:55Z</time>
      </trkpt>
      <trkpt lat="42.31695" lon="2.58834">
        <ele>447</ele>
        <time>2010-01-01T06:51:12Z</time>
      </trkpt>
      <trkpt lat="42.31682" lon="2.58853">
        <ele>450</ele>
        <time>2010-01-01T06:51:31Z</time>
      </trkpt>
      <trkpt lat="42.31674" lon="2.58861">
        <ele>450</ele>
        <time>2010-01-01T06:51:41Z</time>
      </trkpt>
      <trkpt lat="42.3164" lon="2.58881">
        <ele>454</ele>
        <time>2010-01-01T06:52:19Z</time>
      </trkpt>
      <trkpt lat="42.31608" lon="2.58887">
        <ele>452</ele>
        <time>2010-01-01T06:52:51Z</time>
      </trkpt>
      <trkpt lat="42.31601" lon="2.58887">
        <ele>454</ele>
        <time>2010-01-01T06:52:58Z</time>
      </trkpt>
      <trkpt lat="42.31564" lon="2.58871">
        <ele>449</ele>
        <time>2010-01-01T06:53:37Z</time>
      </trkpt>
      <trkpt lat="42.31539" lon="2.58847">
        <ele>447</ele>
        <time>2010-01-01T06:54:07Z</time>
      </trkpt>
      <trkpt lat="42.31507" lon="2.5883">
        <ele>441</ele>
        <time>2010-01-01T06:54:41Z</time>
      </trkpt>
      <trkpt lat="42.31474" lon="2.58809">
        <ele>434</ele>
        <time>2010-01-01T06:55:18Z</time>
      </trkpt>
      <trkpt lat="42.31461" lon="2.58809">
        <ele>434</ele>
        <time>2010-01-01T06:55:31Z</time>
      </trkpt>
      <trkpt lat="42.31458" lon="2.58809">
        <ele>435</ele>
        <time>2010-01-01T06:55:34Z</time>
      </trkpt>
      <trkpt lat="42.31451" lon="2.58819">
        <ele>435</ele>
        <time>2010-01-01T06:55:44Z</time>
      </trkpt>
      <trkpt lat="42.31456" lon="2.58852">
        <ele>435</ele>
        <time>2010-01-01T06:56:10Z</time>
      </trkpt>
      <trkpt lat="42.31457" lon="2.58892">
        <ele>439</ele>
        <time>2010-01-01T06:56:39Z</time>
      </trkpt>
      <trkpt lat="42.31453" lon="2.58904">
        <ele>440</ele>
        <time>2010-01-01T06:56:49Z</time>
      </trkpt>
      <trkpt lat="42.31438" lon="2.58939">
        <ele>441</ele>
        <time>2010-01-01T06:57:19Z</time>
      </trkpt>
      <trkpt lat="42.31421" lon="2.58949">
        <ele>434</ele>
        <time>2010-01-01T06:57:37Z</time>
      </trkpt>
      <trkpt lat="42.31411" lon="2.58986">
        <ele>438</ele>
        <time>2010-01-01T06:58:07Z</time>
      </trkpt>
      <trkpt lat="42.3139" lon="2.59018">
        <ele>439</ele>
        <time>2010-01-01T06:58:38Z</time>
      </trkpt>
      <trkpt lat="42.31387" lon="2.59018">
        <ele>438</ele>
        <time>2010-01-01T06:58:41Z</time>
      </trkpt>
      <trkpt lat="42.31361" lon="2.59029">
        <ele>431</ele>
        <time>2010-01-01T06:59:08Z</time>
      </trkpt>
      <trkpt lat="42.31347" lon="2.59037">
        <ele>428</ele>
        <time>2010-01-01T06:59:23Z</time>
      </trkpt>
      <trkpt lat="42.31336" lon="2.59041">
        <ele>425</ele>
        <time>2010-01-01T06:59:34Z</time>
      </trkpt>
      <trkpt lat="42.31324" lon="2.59028">
        <ele>421</ele>
        <time>2010-01-01T06:59:50Z</time>
      </trkpt>
      <trkpt lat="42.31306" lon="2.59012">
        <ele>419</ele>
        <time>2010-01-01T07:00:12Z</time>
      </trkpt>
      <trkpt lat="42.31319" lon="2.59047">
        <ele>421</ele>
        <time>2010-01-01T07:00:41Z</time>
      </trkpt>
      <trkpt lat="42.3132" lon="2.59049">
        <ele>421</ele>
        <time>2010-01-01T07:00:43Z</time>
      </trkpt>
      <trkpt lat="42.31328" lon="2.59094">
        <ele>425</ele>
        <time>2010-01-01T07:01:17Z</time>
      </trkpt>
      <trkpt lat="42.31312" lon="2.59115">
        <ele>421</ele>
        <time>2010-01-01T07:01:38Z</time>
      </trkpt>
      <trkpt lat="42.31306" lon="2.59113">
        <ele>420</ele>
        <time>2010-01-01T07:01:45Z</time>
      </trkpt>
      <trkpt lat="42.31305" lon="2.59099">
        <ele>419</ele>
        <time>2010-01-01T07:01:56Z</time>
      </trkpt>
      <trkpt lat="42.31302" lon="2.59109">
        <ele>420</ele>
        <time>2010-01-01T07:02:04Z</time>
      </trkpt>
      <trkpt lat="42.31301" lon="2.5911">
        <ele>420</ele>
        <time>2010-01-01T07:02:05Z</time>
      </trkpt>
      <trkpt lat="42.313" lon="2.59138">
        <ele>421</ele>
        <time>2010-01-01T07:02:26Z</time>
      </trkpt>
      <trkpt lat="42.31299" lon="2.59158">
        <ele>422</ele>
        <time>2010-01-01T07:02:41Z</time>
      </trkpt>
      <trkpt lat="42.31301" lon="2.59183">
        <ele>423</ele>
        <time>2010-01-01T07:03:00Z</time>
      </trkpt>
      <trkpt lat="42.31295" lon="2.5921">
        <ele>428</ele>
        <time>2010-01-01T07:03:21Z</time>
      </trkpt>
      <trkpt lat="42.31294" lon="2.59234">
        <ele>431</ele>
        <time>2010-01-01T07:03:38Z</time>
      </trkpt>
      <trkpt lat="42.31292" lon="2.59266">
        <ele>437</ele>
        <time>2010-01-01T07:04:03Z</time>
      </trkpt>
      <trkpt lat="42.31298" lon="2.59292">
        <ele>439</ele>
        <time>2010-01-01T07:04:23Z</time>
      </trkpt>
      <trkpt lat="42.31294" lon="2.59311">
        <ele>445</ele>
        <time>2010-01-01T07:04:37Z</time>
      </trkpt>
      <trkpt lat="42.31287" lon="2.59317">
        <ele>450</ele>
        <time>2010-01-01T07:04:45Z</time>
      </trkpt>
      <trkpt lat="42.31287" lon="2.59324">
        <ele>452</ele>
        <time>2010-01-01T07:04:50Z</time>
      </trkpt>
      <trkpt lat="42.31278" lon="2.59326">
        <ele>456</ele>
        <time>2010-01-01T07:05:00Z</time>
      </trkpt>
      <trkpt lat="42.31262" lon="2.59316">
        <ele>461</ele>
        <time>2010-01-01T07:05:17Z</time>
      </trkpt>
      <trkpt lat="42.31264" lon="2.59326">
        <ele>463</ele>
        <time>2010-01-01T07:05:25Z</time>
      </trkpt>
      <trkpt lat="42.31258" lon="2.59328">
        <ele>466</ele>
        <time>2010-01-01T07:05:31Z</time>
      </trkpt>
      <trkpt lat="42.31251" lon="2.59335">
        <ele>470</ele>
        <time>2010-01-01T07:05:39Z</time>
      </trkpt>
      <trkpt lat="42.31252" lon="2.59348">
        <ele>476</ele>
        <time>2010-01-01T07:05:49Z</time>
      </trkpt>
      <trkpt lat="42.31247" lon="2.59342">
        <ele>475</ele>
        <time>2010-01-01T07:05:55Z</time>
      </trkpt>
      <trkpt lat="42.3125" lon="2.5936">
        <ele>481</ele>
        <time>2010-01-01T07:06:09Z</time>
      </trkpt>
      <trkpt lat="42.3126" lon="2.59379">
        <ele>484</ele>
        <time>2010-01-01T07:06:26Z</time>
      </trkpt>
      <trkpt lat="42.31268" lon="2.59405">
        <ele>491</ele>
        <time>2010-01-01T07:06:47Z</time>
      </trkpt>
      <trkpt lat="42.31272" lon="2.5942">
        <ele>495</ele>
        <time>2010-01-01T07:06:59Z</time>
      </trkpt>
      <trkpt lat="42.3127" lon="2.59434">
        <ele>501</ele>
        <time>2010-01-01T07:07:09Z</time>
      </trkpt>
      <trkpt lat="42.31277" lon="2.59452">
        <ele>504</ele>
        <time>2010-01-01T07:07:24Z</time>
      </trkpt>
      <trkpt lat="42.31287" lon="2.59479">
        <ele>510</ele>
        <time>2010-01-01T07:07:47Z</time>
      </trkpt>
      <trkpt lat="42.31298" lon="2.59495">
        <ele>512</ele>
        <time>2010-01-01T07:08:03Z</time>
      </trkpt>
      <trkpt lat="42.31299" lon="2.59513">
        <ele>517</ele>
        <time>2010-01-01T07:08:16Z</time>
      </trkpt>
      <trkpt lat="42.31303" lon="2.5953">
        <ele>522</ele>
        <time>2010-01-01T07:08:29Z</time>
      </trkpt>
      <trkpt lat="42.31306" lon="2.59551">
        <ele>529</ele>
        <time>2010-01-01T07:08:45Z</time>
      </trkpt>
      <trkpt lat="42.31313" lon="2.59568">
        <ele>533</ele>
        <time>2010-01-01T07:09:00Z</time>
      </trkpt>
      <trkpt lat="42.31317" lon="2.59582">
        <ele>537</ele>
        <time>2010-01-01T07:09:11Z</time>
      </trkpt>
      <trkpt lat="42.31329" lon="2.59594">
        <ele>537</ele>
        <time>2010-01-01T07:09:25Z</time>
      </trkpt>
      <trkpt lat="42.31337" lon="2.59621">
        <ele>540</ele>
        <time>2010-01-01T07:09:47Z</time>
      </trkpt>
      <trkpt lat="42.31326" lon="2.59621">
        <ele>546</ele>
        <time>2010-01-01T07:09:59Z</time>
      </trkpt>
      <trkpt lat="42.31316" lon="2.59629">
        <ele>552</ele>
        <time>2010-01-01T07:10:10Z</time>
      </trkpt>
      <trkpt lat="42.31314" lon="2.5964">
        <ele>557</ele>
        <time>2010-01-01T07:10:18Z</time>
      </trkpt>
      <trkpt lat="42.31314" lon="2.59663">
        <ele>562</ele>
        <time>2010-01-01T07:10:35Z</time>
      </trkpt>
      <trkpt lat="42.3131" lon="2.59675">
        <ele>567</ele>
        <time>2010-01-01T07:10:45Z</time>
      </trkpt>
      <trkpt lat="42.31314" lon="2.59699">
        <ele>570</ele>
        <time>2010-01-01T07:11:03Z</time>
      </trkpt>
      <trkpt lat="42.31311" lon="2.59717">
        <ele>576</ele>
        <time>2010-01-01T07:11:17Z</time>
      </trkpt>
      <trkpt lat="42.31314" lon="2.59739">
        <ele>579</ele>
        <time>2010-01-01T07:11:34Z</time>
      </trkpt>
      <trkpt lat="42.31319" lon="2.59761">
        <ele>581</ele>
        <time>2010-01-01T07:11:50Z</time>
      </trkpt>
      <trkpt lat="42.31318" lon="2.5978">
        <ele>585</ele>
        <time>2010-01-01T07:12:05Z</time>
      </trkpt>
      <trkpt lat="42.3132" lon="2.598">
        <ele>590</ele>
        <time>2010-01-01T07:12:20Z</time>
      </trkpt>
      <trkpt lat="42.31319" lon="2.59829">
        <ele>597</ele>
        <time>2010-01-01T07:12:41Z</time>
      </trkpt>
      <trkpt lat="42.31317" lon="2.59855">
        <ele>604</ele>
        <time>2010-01-01T07:13:00Z</time>
      </trkpt>
      <trkpt lat="42.31315" lon="2.59879">
        <ele>611</ele>
        <time>2010-01-01T07:13:18Z</time>
      </trkpt>
      <trkpt lat="42.31313" lon="2.59901">
        <ele>618</ele>
        <time>2010-01-01T07:13:35Z</time>
      </trkpt>
      <trkpt lat="42.3132" lon="2.59927">
        <ele>618</ele>
        <time>2010-01-01T07:13:55Z</time>
      </trkpt>
      <trkpt lat="42.31324" lon="2.59955">
        <ele>618</ele>
        <time>2010-01-01T07:14:16Z</time>
      </trkpt>
      <trkpt lat="42.31323" lon="2.59975">
        <ele>618</ele>
        <time>2010-01-01T07:14:31Z</time>
      </trkpt>
      <trkpt lat="42.31327" lon="2.59997">
        <ele>621</ele>
        <time>2010-01-01T07:14:47Z</time>
      </trkpt>
      <trkpt lat="42.31335" lon="2.60022">
        <ele>628</ele>
        <time>2010-01-01T07:15:08Z</time>
      </trkpt>
      <trkpt lat="42.31334" lon="2.60044">
        <ele>639</ele>
        <time>2010-01-01T07:15:24Z</time>
      </trkpt>
      <trkpt lat="42.31329" lon="2.60047">
        <ele>642</ele>
        <time>2010-01-01T07:15:30Z</time>
      </trkpt>
      <trkpt lat="42.31338" lon="2.6006">
        <ele>644</ele>
        <time>2010-01-01T07:15:43Z</time>
      </trkpt>
      <trkpt lat="42.31342" lon="2.60077">
        <ele>648</ele>
        <time>2010-01-01T07:15:57Z</time>
      </trkpt>
      <trkpt lat="42.31351" lon="2.60101">
        <ele>651</ele>
        <time>2010-01-01T07:16:16Z</time>
      </trkpt>
      <trkpt lat="42.3136" lon="2.60121">
        <ele>652</ele>
        <time>2010-01-01T07:16:34Z</time>
      </trkpt>
      <trkpt lat="42.31367" lon="2.60134">
        <ele>656</ele>
        <time>2010-01-01T07:16:46Z</time>
      </trkpt>
      <trkpt lat="42.31376" lon="2.60146">
        <ele>661</ele>
        <time>2010-01-01T07:16:58Z</time>
      </trkpt>
      <trkpt lat="42.31387" lon="2.60164">
        <ele>668</ele>
        <time>2010-01-01T07:17:16Z</time>
      </trkpt>
      <trkpt lat="42.31398" lon="2.60175">
        <ele>671</ele>
        <time>2010-01-01T07:17:29Z</time>
      </trkpt>
      <trkpt lat="42.31393" lon="2.60188">
        <ele>676</ele>
        <time>2010-01-01T07:17:40Z</time>
      </trkpt>
      <trkpt lat="42.31401" lon="2.60212">
        <ele>681</ele>
        <time>2010-01-01T07:17:58Z</time>
      </trkpt>
      <trkpt lat="42.31407" lon="2.60243">
        <ele>686</ele>
        <time>2010-01-01T07:18:23Z</time>
      </trkpt>
      <trkpt lat="42.31411" lon="2.60272">
        <ele>687</ele>
        <time>2010-01-01T07:18:44Z</time>
      </trkpt>
      <trkpt lat="42.31412" lon="2.60295">
        <ele>687</ele>
        <time>2010-01-01T07:19:02Z</time>
      </trkpt>
      <trkpt lat="42.3141" lon="2.60297">
        <ele>688</ele>
        <time>2010-01-01T07:19:04Z</time>
      </trkpt>
      <trkpt lat="42.31411" lon="2.603">
        <ele>687</ele>
        <time>2010-01-01T07:19:06Z</time>
      </trkpt>
      <trkpt lat="42.3141" lon="2.60298">
        <ele>688</ele>
        <time>2010-01-01T07:19:08Z</time>
      </trkpt>
      <trkpt lat="42.3141" lon="2.60299">
        <ele>688</ele>
        <time>2010-01-01T07:19:09Z</time>
      </trkpt>
      <trkpt lat="42.31406" lon="2.60298">
        <ele>689</ele>
        <time>2010-01-01T07:19:13Z</time>
      </trkpt>
      <trkpt lat="42.31405" lon="2.60306">
        <ele>689</ele>
        <time>2010-01-01T07:19:19Z</time>
      </trkpt>
      <trkpt lat="42.31386" lon="2.60324">
        <ele>695</ele>
        <time>2010-01-01T07:19:42Z</time>
      </trkpt>
      <trkpt lat="42.31376" lon="2.60354">
        <ele>696</ele>
        <time>2010-01-01T07:20:07Z</time>
      </trkpt>
      <trkpt lat="42.31383" lon="2.6038">
        <ele>688</ele>
        <time>2010-01-01T07:20:27Z</time>
      </trkpt>
      <trkpt lat="42.31381" lon="2.60418">
        <ele>684</ele>
        <time>2010-01-01T07:20:56Z</time>
      </trkpt>
      <trkpt lat="42.31361" lon="2.60447">
        <ele>696</ele>
        <time>2010-01-01T07:21:24Z</time>
      </trkpt>
      <trkpt lat="42.31369" lon="2.60472">
        <ele>692</ele>
        <time>2010-01-01T07:21:45Z</time>
      </trkpt>
      <trkpt lat="42.31372" lon="2.60499">
        <ele>692</ele>
        <time>2010-01-01T07:22:05Z</time>
      </trkpt>
      <trkpt lat="42.31368" lon="2.60531">
        <ele>694</ele>
        <time>2010-01-01T07:22:29Z</time>
      </trkpt>
      <trkpt lat="42.31358" lon="2.60558">
        <ele>697</ele>
        <time>2010-01-01T07:22:51Z</time>
      </trkpt>
      <trkpt lat="42.31354" lon="2.60575">
        <ele>699</ele>
        <time>2010-01-01T07:23:05Z</time>
      </trkpt>
      <trkpt lat="42.31351" lon="2.60598">
        <ele>698</ele>
        <time>2010-01-01T07:23:22Z</time>
      </trkpt>
      <trkpt lat="42.31342" lon="2.60622">
        <ele>702</ele>
        <time>2010-01-01T07:23:42Z</time>
      </trkpt>
      <trkpt lat="42.31332" lon="2.60642">
        <ele>706</ele>
        <time>2010-01-01T07:24:00Z</time>
      </trkpt>
      <trkpt lat="42.31339" lon="2.60664">
        <ele>704</ele>
        <time>2010-01-01T07:24:18Z</time>
      </trkpt>
      <trkpt lat="42.3134" lon="2.60683">
        <ele>709</ele>
        <time>2010-01-01T07:24:32Z</time>
      </trkpt>
      <trkpt lat="42.31338" lon="2.60697">
        <ele>715</ele>
        <time>2010-01-01T07:24:42Z</time>
      </trkpt>
      <trkpt lat="42.31337" lon="2.60713">
        <ele>721</ele>
        <time>2010-01-01T07:24:54Z</time>
      </trkpt>
      <trkpt lat="42.31342" lon="2.60728">
        <ele>724</ele>
        <time>2010-01-01T07:25:07Z</time>
      </trkpt>
      <trkpt lat="42.31351" lon="2.60752">
        <ele>726</ele>
        <time>2010-01-01T07:25:27Z</time>
      </trkpt>
      <trkpt lat="42.31354" lon="2.6076">
        <ele>727</ele>
        <time>2010-01-01T07:25:33Z</time>
      </trkpt>
      <trkpt lat="42.31365" lon="2.6078">
        <ele>727</ele>
        <time>2010-01-01T07:25:52Z</time>
      </trkpt>
      <trkpt lat="42.31375" lon="2.60801">
        <ele>729</ele>
        <time>2010-01-01T07:26:10Z</time>
      </trkpt>
      <trkpt lat="42.3138" lon="2.60827">
        <ele>737</ele>
        <time>2010-01-01T07:26:31Z</time>
      </trkpt>
      <trkpt lat="42.31384" lon="2.60851">
        <ele>745</ele>
        <time>2010-01-01T07:26:48Z</time>
      </trkpt>
      <trkpt lat="42.31389" lon="2.60874">
        <ele>751</ele>
        <time>2010-01-01T07:27:06Z</time>
      </trkpt>
      <trkpt lat="42.31391" lon="2.60896">
        <ele>758</ele>
        <time>2010-01-01T07:27:23Z</time>
      </trkpt>
      <trkpt lat="42.31396" lon="2.60926">
        <ele>765</ele>
        <time>2010-01-01T07:27:45Z</time>
      </trkpt>
      <trkpt lat="42.31402" lon="2.60952">
        <ele>770</ele>
        <time>2010-01-01T07:28:06Z</time>
      </trkpt>
      <trkpt lat="42.31411" lon="2.60975">
        <ele>773</ele>
        <time>2010-01-01T07:28:25Z</time>
      </trkpt>
      <trkpt lat="42.31423" lon="2.60991">
        <ele>777</ele>
        <time>2010-01-01T07:28:42Z</time>
      </trkpt>
      <trkpt lat="42.31432" lon="2.61014">
        <ele>783</ele>
        <time>2010-01-01T07:29:01Z</time>
      </trkpt>
      <trkpt lat="42.31448" lon="2.61029">
        <ele>786</ele>
        <time>2010-01-01T07:29:20Z</time>
      </trkpt>
      <trkpt lat="42.31466" lon="2.61013">
        <ele>785</ele>
        <time>2010-01-01T07:29:42Z</time>
      </trkpt>
      <trkpt lat="42.3148" lon="2.60997">
        <ele>785</ele>
        <time>2010-01-01T07:30:00Z</time>
      </trkpt>
      <trkpt lat="42.31495" lon="2.60975">
        <ele>786</ele>
        <time>2010-01-01T07:30:22Z</time>
      </trkpt>
      <trkpt lat="42.31506" lon="2.60956">
        <ele>787</ele>
        <time>2010-01-01T07:30:40Z</time>
      </trkpt>
      <trkpt lat="42.31513" lon="2.60973">
        <ele>794</ele>
        <time>2010-01-01T07:30:54Z</time>
      </trkpt>
      <trkpt lat="42.31514" lon="2.60999">
        <ele>802</ele>
        <time>2010-01-01T07:31:14Z</time>
      </trkpt>
      <trkpt lat="42.3151" lon="2.61023">
        <ele>806</ele>
        <time>2010-01-01T07:31:32Z</time>
      </trkpt>
      <trkpt lat="42.31508" lon="2.61048">
        <ele>811</ele>
        <time>2010-01-01T07:31:51Z</time>
      </trkpt>
      <trkpt lat="42.31506" lon="2.61072">
        <ele>815</ele>
        <time>2010-01-01T07:32:08Z</time>
      </trkpt>
      <trkpt lat="42.31502" lon="2.61104">
        <ele>820</ele>
        <time>2010-01-01T07:32:32Z</time>
      </trkpt>
      <trkpt lat="42.31506" lon="2.61129">
        <ele>826</ele>
        <time>2010-01-01T07:32:51Z</time>
      </trkpt>
      <trkpt lat="42.31492" lon="2.61158">
        <ele>826</ele>
        <time>2010-01-01T07:33:16Z</time>
      </trkpt>
      <trkpt lat="42.31491" lon="2.61184">
        <ele>830</ele>
        <time>2010-01-01T07:33:36Z</time>
      </trkpt>
      <trkpt lat="42.31492" lon="2.61211">
        <ele>832</ele>
        <time>2010-01-01T07:33:56Z</time>
      </trkpt>
      <trkpt lat="42.31484" lon="2.61219">
        <ele>831</ele>
        <time>2010-01-01T07:34:06Z</time>
      </trkpt>
      <trkpt lat="42.31481" lon="2.61214">
        <ele>830</ele>
        <time>2010-01-01T07:34:12Z</time>
      </trkpt>
      <trkpt lat="42.31481" lon="2.61216">
        <ele>830</ele>
        <time>2010-01-01T07:34:13Z</time>
      </trkpt>
      <trkpt lat="42.31489" lon="2.61213">
        <ele>831</ele>
        <time>2010-01-01T07:34:22Z</time>
      </trkpt>
      <trkpt lat="42.31493" lon="2.61218">
        <ele>832</ele>
        <time>2010-01-01T07:34:28Z</time>
      </trkpt>
      <trkpt lat="42.31492" lon="2.61232">
        <ele>831</ele>
        <time>2010-01-01T07:34:39Z</time>
      </trkpt>
      <trkpt lat="42.31495" lon="2.61248">
        <ele>830</ele>
        <time>2010-01-01T07:34:51Z</time>
      </trkpt>
      <trkpt lat="42.31514" lon="2.6128">
        <ele>834</ele>
        <time>2010-01-01T07:35:21Z</time>
      </trkpt>
      <trkpt lat="42.3153" lon="2.61294">
        <ele>840</ele>
        <time>2010-01-01T07:35:40Z</time>
      </trkpt>
      <trkpt lat="42.31541" lon="2.61306">
        <ele>845</ele>
        <time>2010-01-01T07:35:55Z</time>
      </trkpt>
      <trkpt lat="42.31551" lon="2.61325">
        <ele>849</ele>
        <time>2010-01-01T07:36:12Z</time>
      </trkpt>
      <trkpt lat="42.31561" lon="2.61353">
        <ele>850</ele>
        <time>2010-01-01T07:36:35Z</time>
      </trkpt>
      <trkpt lat="42.31571" lon="2.61374">
        <ele>853</ele>
        <time>2010-01-01T07:36:53Z</time>
      </trkpt>
      <trkpt lat="42.31574" lon="2.61397">
        <ele>851</ele>
        <time>2010-01-01T07:37:10Z</time>
      </trkpt>
      <trkpt lat="42.31589" lon="2.61417">
        <ele>856</ele>
        <time>2010-01-01T07:37:31Z</time>
      </trkpt>
      <trkpt lat="42.316" lon="2.61443">
        <ele>859</ele>
        <time>2010-01-01T07:37:54Z</time>
      </trkpt>
      <trkpt lat="42.31618" lon="2.61455">
        <ele>866</ele>
        <time>2010-01-01T07:38:14Z</time>
      </trkpt>
      <trkpt lat="42.31637" lon="2.61463">
        <ele>872</ele>
        <time>2010-01-01T07:38:33Z</time>
      </trkpt>
      <trkpt lat="42.31658" lon="2.61488">
        <ele>875</ele>
        <time>2010-01-01T07:39:01Z</time>
      </trkpt>
      <trkpt lat="42.31678" lon="2.61511">
        <ele>876</ele>
        <time>2010-01-01T07:39:28Z</time>
      </trkpt>
      <trkpt lat="42.31699" lon="2.61533">
        <ele>873</ele>
        <time>2010-01-01T07:39:54Z</time>
      </trkpt>
      <trkpt lat="42.31708" lon="2.6153">
        <ele>877</ele>
        <time>2010-01-01T07:40:04Z</time>
      </trkpt>
      <trkpt lat="42.31731" lon="2.61503">
        <ele>894</ele>
        <time>2010-01-01T07:40:34Z</time>
      </trkpt>
      <trkpt lat="42.31748" lon="2.61512">
        <ele>896</ele>
        <time>2010-01-01T07:40:53Z</time>
      </trkpt>
      <trkpt lat="42.31769" lon="2.61516">
        <ele>897</ele>
        <time>2010-01-01T07:41:14Z</time>
      </trkpt>
      <trkpt lat="42.31812" lon="2.61565">
        <ele>888</ele>
        <time>2010-01-01T07:42:10Z</time>
      </trkpt>
      <trkpt lat="42.3182" lon="2.61605">
        <ele>883</ele>
        <time>2010-01-01T07:42:41Z</time>
      </trkpt>
      <trkpt lat="42.31816" lon="2.61647">
        <ele>878</ele>
        <time>2010-01-01T07:43:13Z</time>
      </trkpt>
      <trkpt lat="42.31819" lon="2.61697">
        <ele>880</ele>
        <time>2010-01-01T07:43:50Z</time>
      </trkpt>
      <trkpt lat="42.31824" lon="2.61707">
        <ele>881</ele>
        <time>2010-01-01T07:43:59Z</time>
      </trkpt>
      <trkpt lat="42.31854" lon="2.61724">
        <ele>884</ele>
        <time>2010-01-01T07:44:31Z</time>
      </trkpt>
      <trkpt lat="42.31872" lon="2.6173">
        <ele>884</ele>
        <time>2010-01-01T07:44:50Z</time>
      </trkpt>
      <trkpt lat="42.3188" lon="2.61734">
        <ele>884</ele>
        <time>2010-01-01T07:44:58Z</time>
      </trkpt>
      <trkpt lat="42.31881" lon="2.61742">
        <ele>880</ele>
        <time>2010-01-01T07:45:04Z</time>
      </trkpt>
      <trkpt lat="42.31889" lon="2.61741">
        <ele>883</ele>
        <time>2010-01-01T07:45:12Z</time>
      </trkpt>
      <trkpt lat="42.31898" lon="2.61737">
        <ele>887</ele>
        <time>2010-01-01T07:45:22Z</time>
      </trkpt>
      <trkpt lat="42.3192" lon="2.61753">
        <ele>886</ele>
        <time>2010-01-01T07:45:47Z</time>
      </trkpt>
      <trkpt lat="42.3193" lon="2.61768">
        <ele>881</ele>
        <time>2010-01-01T07:46:01Z</time>
      </trkpt>
      <trkpt lat="42.31929" lon="2.618">
        <ele>871</ele>
        <time>2010-01-01T07:46:25Z</time>
      </trkpt>
      <trkpt lat="42.31943" lon="2.61817">
        <ele>872</ele>
        <time>2010-01-01T07:46:44Z</time>
      </trkpt>
      <trkpt lat="42.31936" lon="2.61837">
        <ele>869</ele>
        <time>2010-01-01T07:47:01Z</time>
      </trkpt>
      <trkpt lat="42.31929" lon="2.61859">
        <ele>870</ele>
        <time>2010-01-01T07:47:19Z</time>
      </trkpt>
      <trkpt lat="42.31927" lon="2.61888">
        <ele>875</ele>
        <time>2010-01-01T07:47:40Z</time>
      </trkpt>
      <trkpt lat="42.31914" lon="2.61915">
        <ele>879</ele>
        <time>2010-01-01T07:48:04Z</time>
      </trkpt>
      <trkpt lat="42.31903" lon="2.61939">
        <ele>885</ele>
        <time>2010-01-01T07:48:24Z</time>
      </trkpt>
      <trkpt lat="42.31892" lon="2.61956">
        <ele>888</ele>
        <time>2010-01-01T07:48:41Z</time>
      </trkpt>
      <trkpt lat="42.31878" lon="2.61967">
        <ele>886</ele>
        <time>2010-01-01T07:48:58Z</time>
      </trkpt>
      <trkpt lat="42.31877" lon="2.61986">
        <ele>888</ele>
        <time>2010-01-01T07:49:12Z</time>
      </trkpt>
      <trkpt lat="42.31877" lon="2.62003">
        <ele>890</ele>
        <time>2010-01-01T07:49:25Z</time>
      </trkpt>
      <trkpt lat="42.31893" lon="2.62016">
        <ele>897</ele>
        <time>2010-01-01T07:49:43Z</time>
      </trkpt>
      <trkpt lat="42.31903" lon="2.6203">
        <ele>901</ele>
        <time>2010-01-01T07:49:58Z</time>
      </trkpt>
      <trkpt lat="42.31911" lon="2.62037">
        <ele>903</ele>
        <time>2010-01-01T07:50:07Z</time>
      </trkpt>
      <trkpt lat="42.31929" lon="2.62044">
        <ele>910</ele>
        <time>2010-01-01T07:50:27Z</time>
      </trkpt>
      <trkpt lat="42.31938" lon="2.62071">
        <ele>912</ele>
        <time>2010-01-01T07:50:48Z</time>
      </trkpt>
      <trkpt lat="42.31954" lon="2.62081">
        <ele>920</ele>
        <time>2010-01-01T07:51:06Z</time>
      </trkpt>
      <trkpt lat="42.31972" lon="2.62092">
        <ele>927</ele>
        <time>2010-01-01T07:51:26Z</time>
      </trkpt>
      <trkpt lat="42.3199" lon="2.62136">
        <ele>925</ele>
        <time>2010-01-01T07:52:03Z</time>
      </trkpt>
      <trkpt lat="42.32023" lon="2.62189">
        <ele>923</ele>
        <time>2010-01-01T07:52:55Z</time>
      </trkpt>
      <trkpt lat="42.32046" lon="2.6223">
        <ele>923</ele>
        <time>2010-01-01T07:53:33Z</time>
      </trkpt>
      <trkpt lat="42.3207" lon="2.62271">
        <ele>923</ele>
        <time>2010-01-01T07:54:12Z</time>
      </trkpt>
      <trkpt lat="42.3209" lon="2.62321">
        <ele>918</ele>
        <time>2010-01-01T07:54:53Z</time>
      </trkpt>
      <trkpt lat="42.32106" lon="2.62374">
        <ele>917</ele>
        <time>2010-01-01T07:55:36Z</time>
      </trkpt>
      <trkpt lat="42.32117" lon="2.62411">
        <ele>917</ele>
        <time>2010-01-01T07:56:05Z</time>
      </trkpt>
      <trkpt lat="42.32116" lon="2.62462">
        <ele>911</ele>
        <time>2010-01-01T07:56:43Z</time>
      </trkpt>
      <trkpt lat="42.32118" lon="2.62508">
        <ele>910</ele>
        <time>2010-01-01T07:57:17Z</time>
      </trkpt>
      <trkpt lat="42.3212" lon="2.62527">
        <ele>910</ele>
        <time>2010-01-01T07:57:31Z</time>
      </trkpt>
      <trkpt lat="42.32125" lon="2.6257">
        <ele>912</ele>
        <time>2010-01-01T07:58:04Z</time>
      </trkpt>
      <trkpt lat="42.32145" lon="2.62619">
        <ele>911</ele>
        <time>2010-01-01T07:58:45Z</time>
      </trkpt>
      <trkpt lat="42.32149" lon="2.6264">
        <ele>908</ele>
        <time>2010-01-01T07:59:01Z</time>
      </trkpt>
      <trkpt lat="42.32155" lon="2.62646">
        <ele>909</ele>
        <time>2010-01-01T07:59:09Z</time>
      </trkpt>
      <trkpt lat="42.32166" lon="2.62657">
        <ele>911</ele>
        <time>2010-01-01T07:59:23Z</time>
      </trkpt>
      <trkpt lat="42.32185" lon="2.62681">
        <ele>913</ele>
        <time>2010-01-01T07:59:48Z</time>
      </trkpt>
      <trkpt lat="42.32194" lon="2.62687">
        <ele>913</ele>
        <time>2010-01-01T07:59:58Z</time>
      </trkpt>
      <trkpt lat="42.32199" lon="2.62692">
        <ele>914</ele>
        <time>2010-01-01T08:00:04Z</time>
      </trkpt>
      <trkpt lat="42.32202" lon="2.62696">
        <ele>914</ele>
        <time>2010-01-01T08:00:08Z</time>
      </trkpt>
      <trkpt lat="42.32196" lon="2.62688">
        <ele>913</ele>
        <time>2010-01-01T08:00:16Z</time>
      </trkpt>
      <trkpt lat="42.32203" lon="2.62675">
        <ele>916</ele>
        <time>2010-01-01T08:00:27Z</time>
      </trkpt>
      <trkpt lat="42.32201" lon="2.62684">
        <ele>915</ele>
        <time>2010-01-01T08:00:34Z</time>
      </trkpt>
      <trkpt lat="42.32196" lon="2.62687">
        <ele>913</ele>
        <time>2010-01-01T08:00:39Z</time>
      </trkpt>
      <trkpt lat="42.32184" lon="2.62689">
        <ele>913</ele>
        <time>2010-01-01T08:00:52Z</time>
      </trkpt>
      <trkpt lat="42.32182" lon="2.627">
        <ele>913</ele>
        <time>2010-01-01T08:01:00Z</time>
      </trkpt>
      <trkpt lat="42.32173" lon="2.62708">
        <ele>915</ele>
        <time>2010-01-01T08:01:11Z</time>
      </trkpt>
      <trkpt lat="42.32174" lon="2.62723">
        <ele>917</ele>
        <time>2010-01-01T08:01:22Z</time>
      </trkpt>
      <trkpt lat="42.32165" lon="2.62731">
        <ele>922</ele>
        <time>2010-01-01T08:01:32Z</time>
      </trkpt>
      <trkpt lat="42.32148" lon="2.62744">
        <ele>928</ele>
        <time>2010-01-01T08:01:52Z</time>
      </trkpt>
      <trkpt lat="42.32114" lon="2.62747">
        <ele>927</ele>
        <time>2010-01-01T08:02:27Z</time>
      </trkpt>
      <trkpt lat="42.32088" lon="2.62755">
        <ele>928</ele>
        <time>2010-01-01T08:02:53Z</time>
      </trkpt>
      <trkpt lat="42.32065" lon="2.62769">
        <ele>930</ele>
        <time>2010-01-01T08:03:19Z</time>
      </trkpt>
      <trkpt lat="42.32053" lon="2.62789">
        <ele>933</ele>
        <time>2010-01-01T08:03:38Z</time>
      </trkpt>
      <trkpt lat="42.32052" lon="2.6279">
        <ele>933</ele>
        <time>2010-01-01T08:03:39Z</time>
      </trkpt>
      <trkpt lat="42.32046" lon="2.62793">
        <ele>932</ele>
        <time>2010-01-01T08:03:45Z</time>
      </trkpt>
      <trkpt lat="42.32034" lon="2.62805">
        <ele>931</ele>
        <time>2010-01-01T08:03:59Z</time>
      </trkpt>
      <trkpt lat="42.32048" lon="2.62809">
        <ele>937</ele>
        <time>2010-01-01T08:04:13Z</time>
      </trkpt>
      <trkpt lat="42.32052" lon="2.62818">
        <ele>940</ele>
        <time>2010-01-01T08:04:21Z</time>
      </trkpt>
      <trkpt lat="42.32053" lon="2.62834">
        <ele>944</ele>
        <time>2010-01-01T08:04:33Z</time>
      </trkpt>
      <trkpt lat="42.32048" lon="2.62852">
        <ele>946</ele>
        <time>2010-01-01T08:04:46Z</time>
      </trkpt>
      <trkpt lat="42.3206" lon="2.62846">
        <ele>950</ele>
        <time>2010-01-01T08:04:59Z</time>
      </trkpt>
      <trkpt lat="42.32073" lon="2.62827">
        <ele>950</ele>
        <time>2010-01-01T08:05:18Z</time>
      </trkpt>
      <trkpt lat="42.32084" lon="2.62819">
        <ele>951</ele>
        <time>2010-01-01T08:05:31Z</time>
      </trkpt>
      <trkpt lat="42.32086" lon="2.6284">
        <ele>958</ele>
        <time>2010-01-01T08:05:47Z</time>
      </trkpt>
      <trkpt lat="42.32086" lon="2.62846">
        <ele>959</ele>
        <time>2010-01-01T08:05:51Z</time>
      </trkpt>
      <trkpt lat="42.32084" lon="2.62857">
        <ele>962</ele>
        <time>2010-01-01T08:05:59Z</time>
      </trkpt>
      <trkpt lat="42.32082" lon="2.6287">
        <ele>965</ele>
        <time>2010-01-01T08:06:09Z</time>
      </trkpt>
      <trkpt lat="42.32085" lon="2.62884">
        <ele>971</ele>
        <time>2010-01-01T08:06:20Z</time>
      </trkpt>
      <trkpt lat="42.32082" lon="2.62905">
        <ele>978</ele>
        <time>2010-01-01T08:06:36Z</time>
      </trkpt>
      <trkpt lat="42.3208" lon="2.62932">
        <ele>987</ele>
        <time>2010-01-01T08:06:56Z</time>
      </trkpt>
      <trkpt lat="42.32083" lon="2.62951">
        <ele>995</ele>
        <time>2010-01-01T08:07:10Z</time>
      </trkpt>
      <trkpt lat="42.32084" lon="2.62954">
        <ele>997</ele>
        <time>2010-01-01T08:07:12Z</time>
      </trkpt>
      <trkpt lat="42.32088" lon="2.62987">
        <ele>1009</ele>
        <time>2010-01-01T08:07:37Z</time>
      </trkpt>
      <trkpt lat="42.3208" lon="2.63006">
        <ele>1011</ele>
        <time>2010-01-01T08:07:54Z</time>
      </trkpt>
      <trkpt lat="42.32075" lon="2.63033">
        <ele>1018</ele>
        <time>2010-01-01T08:08:14Z</time>
      </trkpt>
      <trkpt lat="42.32076" lon="2.63048">
        <ele>1023</ele>
        <time>2010-01-01T08:08:25Z</time>
      </trkpt>
      <trkpt lat="42.32078" lon="2.63073">
        <ele>1032</ele>
        <time>2010-01-01T08:08:43Z</time>
      </trkpt>
      <trkpt lat="42.32078" lon="2.63093">
        <ele>1038</ele>
        <time>2010-01-01T08:08:58Z</time>
      </trkpt>
      <trkpt lat="42.32082" lon="2.63116">
        <ele>1047</ele>
        <time>2010-01-01T08:09:16Z</time>
      </trkpt>
      <trkpt lat="42.32087" lon="2.63134">
        <ele>1053</ele>
        <time>2010-01-01T08:09:30Z</time>
      </trkpt>
      <trkpt lat="42.32088" lon="2.63144">
        <ele>1056</ele>
        <time>2010-01-01T08:09:38Z</time>
      </trkpt>
      <trkpt lat="42.32094" lon="2.63152">
        <ele>1060</ele>
        <time>2010-01-01T08:09:46Z</time>
      </trkpt>
      <trkpt lat="42.32093" lon="2.63173">
        <ele>1065</ele>
        <time>2010-01-01T08:10:01Z</time>
      </trkpt>
      <trkpt lat="42.32086" lon="2.63193">
        <ele>1068</ele>
        <time>2010-01-01T08:10:17Z</time>
      </trkpt>
      <trkpt lat="42.32082" lon="2.63215">
        <ele>1073</ele>
        <time>2010-01-01T08:10:34Z</time>
      </trkpt>
      <trkpt lat="42.32077" lon="2.63242">
        <ele>1078</ele>
        <time>2010-01-01T08:10:54Z</time>
      </trkpt>
      <trkpt lat="42.32077" lon="2.63247">
        <ele>1080</ele>
        <time>2010-01-01T08:10:58Z</time>
      </trkpt>
      <trkpt lat="42.32074" lon="2.6327">
        <ele>1085</ele>
        <time>2010-01-01T08:11:16Z</time>
      </trkpt>
      <trkpt lat="42.3208" lon="2.63289">
        <ele>1093</ele>
        <time>2010-01-01T08:11:31Z</time>
      </trkpt>
      <trkpt lat="42.32075" lon="2.63317">
        <ele>1100</ele>
        <time>2010-01-01T08:11:52Z</time>
      </trkpt>
      <trkpt lat="42.32075" lon="2.63335">
        <ele>1107</ele>
        <time>2010-01-01T08:12:06Z</time>
      </trkpt>
      <trkpt lat="42.32077" lon="2.63347">
        <ele>1112</ele>
        <time>2010-01-01T08:12:15Z</time>
      </trkpt>
      <trkpt lat="42.32072" lon="2.63352">
        <ele>1113</ele>
        <time>2010-01-01T08:12:22Z</time>
      </trkpt>
      <trkpt lat="42.32075" lon="2.6336">
        <ele>1117</ele>
        <time>2010-01-01T08:12:28Z</time>
      </trkpt>
      <trkpt lat="42.32076" lon="2.63358">
        <ele>1116</ele>
        <time>2010-01-01T08:12:31Z</time>
      </trkpt>
      <trkpt lat="42.32078" lon="2.63362">
        <ele>1118</ele>
        <time>2010-01-01T08:12:34Z</time>
      </trkpt>
      <trkpt lat="42.32077" lon="2.63362">
        <ele>1118</ele>
        <time>2010-01-01T08:12:35Z</time>
      </trkpt>
      <trkpt lat="42.32074" lon="2.63362">
        <ele>1117</ele>
        <time>2010-01-01T08:12:38Z</time>
      </trkpt>
      <trkpt lat="42.32086" lon="2.63368">
        <ele>1121</ele>
        <time>2010-01-01T08:12:51Z</time>
      </trkpt>
      <trkpt lat="42.32079" lon="2.6336">
        <ele>1117</ele>
        <time>2010-01-01T08:13:00Z</time>
      </trkpt>
      <trkpt lat="42.32075" lon="2.63364">
        <ele>1118</ele>
        <time>2010-01-01T08:13:05Z</time>
      </trkpt>
      <trkpt lat="42.3207" lon="2.63361">
        <ele>1117</ele>
        <time>2010-01-01T08:13:10Z</time>
      </trkpt>
      <trkpt lat="42.32061" lon="2.63372">
        <ele>1119</ele>
        <time>2010-01-01T08:13:22Z</time>
      </trkpt>
      <trkpt lat="42.32053" lon="2.63391">
        <ele>1125</ele>
        <time>2010-01-01T08:13:38Z</time>
      </trkpt>
      <trkpt lat="42.32051" lon="2.63396">
        <ele>1126</ele>
        <time>2010-01-01T08:13:43Z</time>
      </trkpt>
      <trkpt lat="42.32009" lon="2.63429">
        <ele>1128</ele>
        <time>2010-01-01T08:14:31Z</time>
      </trkpt>
      <trkpt lat="42.31982" lon="2.63451">
        <ele>1128</ele>
        <time>2010-01-01T08:15:03Z</time>
      </trkpt>
      <trkpt lat="42.31982" lon="2.63454">
        <ele>1129</ele>
        <time>2010-01-01T08:15:04Z</time>
      </trkpt>
      <trkpt lat="42.31967" lon="2.63468">
        <ele>1129</ele>
        <time>2010-01-01T08:15:23Z</time>
      </trkpt>
      <trkpt lat="42.31957" lon="2.63469">
        <ele>1125</ele>
        <time>2010-01-01T08:15:32Z</time>
      </trkpt>
      <trkpt lat="42.3195" lon="2.63475">
        <ele>1124</ele>
        <time>2010-01-01T08:15:40Z</time>
      </trkpt>
      <trkpt lat="42.31928" lon="2.63505">
        <ele>1134</ele>
        <time>2010-01-01T08:16:11Z</time>
      </trkpt>
      <trkpt lat="42.31899" lon="2.63519">
        <ele>1130</ele>
        <time>2010-01-01T08:16:42Z</time>
      </trkpt>
      <trkpt lat="42.31866" lon="2.63541">
        <ele>1128</ele>
        <time>2010-01-01T08:17:19Z</time>
      </trkpt>
      <trkpt lat="42.31853" lon="2.63575">
        <ele>1129</ele>
        <time>2010-01-01T08:17:48Z</time>
      </trkpt>
      <trkpt lat="42.31846" lon="2.63594">
        <ele>1127</ele>
        <time>2010-01-01T08:18:03Z</time>
      </trkpt>
      <trkpt lat="42.31835" lon="2.63597">
        <ele>1125</ele>
        <time>2010-01-01T08:18:14Z</time>
      </trkpt>
      <trkpt lat="42.31808" lon="2.63584">
        <ele>1127</ele>
        <time>2010-01-01T08:18:44Z</time>
      </trkpt>
      <trkpt lat="42.31784" lon="2.63582">
        <ele>1133</ele>
        <time>2010-01-01T08:19:07Z</time>
      </trkpt>
      <trkpt lat="42.31772" lon="2.6358">
        <ele>1137</ele>
        <time>2010-01-01T08:19:19Z</time>
      </trkpt>
      <trkpt lat="42.31749" lon="2.63592">
        <ele>1144</ele>
        <time>2010-01-01T08:19:44Z</time>
      </trkpt>
      <trkpt lat="42.31727" lon="2.63607">
        <ele>1146</ele>
        <time>2010-01-01T08:20:09Z</time>
      </trkpt>
      <trkpt lat="42.31706" lon="2.63614">
        <ele>1149</ele>
        <time>2010-01-01T08:20:30Z</time>
      </trkpt>
      <trkpt lat="42.31691" lon="2.63623">
        <ele>1151</ele>
        <time>2010-01-01T08:20:47Z</time>
      </trkpt>
      <trkpt lat="42.31674" lon="2.63656">
        <ele>1151</ele>
        <time>2010-01-01T08:21:17Z</time>
      </trkpt>
      <trkpt lat="42.31659" lon="2.63686">
        <ele>1151</ele>
        <time>2010-01-01T08:21:44Z</time>
      </trkpt>
      <trkpt lat="42.31639" lon="2.63699">
        <ele>1154</ele>
        <time>2010-01-01T08:22:06Z</time>
      </trkpt>
      <trkpt lat="42.31623" lon="2.63676">
        <ele>1156</ele>
        <time>2010-01-01T08:22:29Z</time>
      </trkpt>
      <trkpt lat="42.31619" lon="2.6365">
        <ele>1159</ele>
        <time>2010-01-01T08:22:49Z</time>
      </trkpt>
      <trkpt lat="42.31598" lon="2.63636">
        <ele>1161</ele>
        <time>2010-01-01T08:23:12Z</time>
      </trkpt>
      <trkpt lat="42.31573" lon="2.63621">
        <ele>1162</ele>
        <time>2010-01-01T08:23:39Z</time>
      </trkpt>
      <trkpt lat="42.31573" lon="2.63601">
        <ele>1167</ele>
        <time>2010-01-01T08:23:54Z</time>
      </trkpt>
      <trkpt lat="42.31598" lon="2.63591">
        <ele>1170</ele>
        <time>2010-01-01T08:24:20Z</time>
      </trkpt>
      <trkpt lat="42.31625" lon="2.63583">
        <ele>1172</ele>
        <time>2010-01-01T08:24:48Z</time>
      </trkpt>
      <trkpt lat="42.31636" lon="2.63557">
        <ele>1176</ele>
        <time>2010-01-01T08:25:10Z</time>
      </trkpt>
      <trkpt lat="42.31634" lon="2.63544">
        <ele>1179</ele>
        <time>2010-01-01T08:25:20Z</time>
      </trkpt>
      <trkpt lat="42.31617" lon="2.63509">
        <ele>1184</ele>
        <time>2010-01-01T08:25:51Z</time>
      </trkpt>
      <trkpt lat="42.31609" lon="2.63484">
        <ele>1185</ele>
        <time>2010-01-01T08:26:11Z</time>
      </trkpt>
      <trkpt lat="42.31601" lon="2.63462">
        <ele>1186</ele>
        <time>2010-01-01T08:26:29Z</time>
      </trkpt>
      <trkpt lat="42.31592" lon="2.63431">
        <ele>1187</ele>
        <time>2010-01-01T08:26:53Z</time>
      </trkpt>
      <trkpt lat="42.31594" lon="2.6342">
        <ele>1188</ele>
        <time>2010-01-01T08:27:02Z</time>
      </trkpt>
      <trkpt lat="42.31586" lon="2.63391">
        <ele>1192</ele>
        <time>2010-01-01T08:27:25Z</time>
      </trkpt>
      <trkpt lat="42.31571" lon="2.63372">
        <ele>1196</ele>
        <time>2010-01-01T08:27:46Z</time>
      </trkpt>
      <trkpt lat="42.31555" lon="2.6336">
        <ele>1200</ele>
        <time>2010-01-01T08:28:04Z</time>
      </trkpt>
      <trkpt lat="42.31542" lon="2.63347">
        <ele>1202</ele>
        <time>2010-01-01T08:28:20Z</time>
      </trkpt>
      <trkpt lat="42.3153" lon="2.63335">
        <ele>1206</ele>
        <time>2010-01-01T08:28:35Z</time>
      </trkpt>
      <trkpt lat="42.31516" lon="2.63326">
        <ele>1210</ele>
        <time>2010-01-01T08:28:50Z</time>
      </trkpt>
      <trkpt lat="42.31508" lon="2.63321">
        <ele>1213</ele>
        <time>2010-01-01T08:28:59Z</time>
      </trkpt>
      <trkpt lat="42.31504" lon="2.63303">
        <ele>1218</ele>
        <time>2010-01-01T08:29:12Z</time>
      </trkpt>
      <trkpt lat="42.31492" lon="2.63304">
        <ele>1224</ele>
        <time>2010-01-01T08:29:24Z</time>
      </trkpt>
      <trkpt lat="42.3148" lon="2.63297">
        <ele>1233</ele>
        <time>2010-01-01T08:29:37Z</time>
      </trkpt>
      <trkpt lat="42.31472" lon="2.6329">
        <ele>1238</ele>
        <time>2010-01-01T08:29:47Z</time>
      </trkpt>
      <trkpt lat="42.31469" lon="2.63279">
        <ele>1241</ele>
        <time>2010-01-01T08:29:55Z</time>
      </trkpt>
      <trkpt lat="42.31468" lon="2.63271">
        <ele>1244</ele>
        <time>2010-01-01T08:30:02Z</time>
      </trkpt>
      <trkpt lat="42.31463" lon="2.63269">
        <ele>1248</ele>
        <time>2010-01-01T08:30:07Z</time>
      </trkpt>
      <trkpt lat="42.31461" lon="2.63274">
        <ele>1249</ele>
        <time>2010-01-01T08:30:11Z</time>
      </trkpt>
      <trkpt lat="42.31456" lon="2.6328">
        <ele>1252</ele>
        <time>2010-01-01T08:30:17Z</time>
      </trkpt>
      <trkpt lat="42.31448" lon="2.63288">
        <ele>1255</ele>
        <time>2010-01-01T08:30:27Z</time>
      </trkpt>
      <trkpt lat="42.31439" lon="2.63285">
        <ele>1261</ele>
        <time>2010-01-01T08:30:36Z</time>
      </trkpt>
      <trkpt lat="42.31433" lon="2.6328">
        <ele>1266</ele>
        <time>2010-01-01T08:30:44Z</time>
      </trkpt>
      <trkpt lat="42.31429" lon="2.63272">
        <ele>1269</ele>
        <time>2010-01-01T08:30:51Z</time>
      </trkpt>
      <trkpt lat="42.3142" lon="2.63269">
        <ele>1274</ele>
        <time>2010-01-01T08:31:00Z</time>
      </trkpt>
      <trkpt lat="42.31413" lon="2.63263">
        <ele>1277</ele>
        <time>2010-01-01T08:31:09Z</time>
      </trkpt>
      <trkpt lat="42.31407" lon="2.63255">
        <ele>1280</ele>
        <time>2010-01-01T08:31:17Z</time>
      </trkpt>
      <trkpt lat="42.31398" lon="2.63247">
        <ele>1284</ele>
        <time>2010-01-01T08:31:28Z</time>
      </trkpt>
      <trkpt lat="42.3139" lon="2.63243">
        <ele>1287</ele>
        <time>2010-01-01T08:31:36Z</time>
      </trkpt>
      <trkpt lat="42.31382" lon="2.63232">
        <ele>1292</ele>
        <time>2010-01-01T08:31:47Z</time>
      </trkpt>
      <trkpt lat="42.31373" lon="2.63216">
        <ele>1299</ele>
        <time>2010-01-01T08:32:02Z</time>
      </trkpt>
      <trkpt lat="42.3136" lon="2.63211">
        <ele>1306</ele>
        <time>2010-01-01T08:32:16Z</time>
      </trkpt>
      <trkpt lat="42.31351" lon="2.63196">
        <ele>1312</ele>
        <time>2010-01-01T08:32:29Z</time>
      </trkpt>
      <trkpt lat="42.31337" lon="2.63176">
        <ele>1319</ele>
        <time>2010-01-01T08:32:50Z</time>
      </trkpt>
      <trkpt lat="42.31326" lon="2.6317">
        <ele>1320</ele>
        <time>2010-01-01T08:33:02Z</time>
      </trkpt>
      <trkpt lat="42.31315" lon="2.63169">
        <ele>1320</ele>
        <time>2010-01-01T08:33:13Z</time>
      </trkpt>
      <trkpt lat="42.31306" lon="2.6316">
        <ele>1322</ele>
        <time>2010-01-01T08:33:25Z</time>
      </trkpt>
      <trkpt lat="42.31296" lon="2.63151">
        <ele>1322</ele>
        <time>2010-01-01T08:33:36Z</time>
      </trkpt>
      <trkpt lat="42.3129" lon="2.63136">
        <ele>1324</ele>
        <time>2010-01-01T08:33:49Z</time>
      </trkpt>
      <trkpt lat="42.31284" lon="2.63125">
        <ele>1326</ele>
        <time>2010-01-01T08:33:59Z</time>
      </trkpt>
      <trkpt lat="42.31291" lon="2.63128">
        <ele>1326</ele>
        <time>2010-01-01T08:34:06Z</time>
      </trkpt>
      <trkpt lat="42.31291" lon="2.63122">
        <ele>1327</ele>
        <time>2010-01-01T08:34:10Z</time>
      </trkpt>
      <trkpt lat="42.31291" lon="2.63118">
        <ele>1327</ele>
        <time>2010-01-01T08:34:14Z</time>
      </trkpt>
      <trkpt lat="42.31294" lon="2.63109">
        <ele>1329</ele>
        <time>2010-01-01T08:34:21Z</time>
      </trkpt>
      <trkpt lat="42.31296" lon="2.63112">
        <ele>1328</ele>
        <time>2010-01-01T08:34:23Z</time>
      </trkpt>
      <trkpt lat="42.31298" lon="2.63112">
        <ele>1328</ele>
        <time>2010-01-01T08:34:26Z</time>
      </trkpt>
      <trkpt lat="42.31297" lon="2.6311">
        <ele>1329</ele>
        <time>2010-01-01T08:34:27Z</time>
      </trkpt>
      <trkpt lat="42.31296" lon="2.6311">
        <ele>1329</ele>
        <time>2010-01-01T08:34:28Z</time>
      </trkpt>
      <trkpt lat="42.31297" lon="2.6311">
        <ele>1329</ele>
        <time>2010-01-01T08:34:29Z</time>
      </trkpt>
      <trkpt lat="42.31295" lon="2.63108">
        <ele>1329</ele>
        <time>2010-01-01T08:34:32Z</time>
      </trkpt>
      <trkpt lat="42.31293" lon="2.63109">
        <ele>1329</ele>
        <time>2010-01-01T08:34:34Z</time>
      </trkpt>
      <trkpt lat="42.31291" lon="2.63106">
        <ele>1329</ele>
        <time>2010-01-01T08:34:37Z</time>
      </trkpt>
      <trkpt lat="42.31289" lon="2.63092">
        <ele>1331</ele>
        <time>2010-01-01T08:34:47Z</time>
      </trkpt>
      <trkpt lat="42.31285" lon="2.63082">
        <ele>1333</ele>
        <time>2010-01-01T08:34:56Z</time>
      </trkpt>
      <trkpt lat="42.3128" lon="2.63073">
        <ele>1335</ele>
        <time>2010-01-01T08:35:04Z</time>
      </trkpt>
      <trkpt lat="42.31285" lon="2.63069">
        <ele>1333</ele>
        <time>2010-01-01T08:35:10Z</time>
      </trkpt>
      <trkpt lat="42.31286" lon="2.63068">
        <ele>1333</ele>
        <time>2010-01-01T08:35:11Z</time>
      </trkpt>
      <trkpt lat="42.31285" lon="2.63067">
        <ele>1333</ele>
        <time>2010-01-01T08:35:12Z</time>
      </trkpt>
      <trkpt lat="42.31282" lon="2.63065">
        <ele>1334</ele>
        <time>2010-01-01T08:35:15Z</time>
      </trkpt>
      <trkpt lat="42.31282" lon="2.63065">
        <ele>1334</ele>
        <time>2010-01-01T08:35:15Z</time>
      </trkpt>
      <trkpt lat="42.31283" lon="2.63062">
        <ele>1334</ele>
        <time>2010-01-01T08:35:17Z</time>
      </trkpt>
      <trkpt lat="42.31281" lon="2.63071">
        <ele>1334</ele>
        <time>2010-01-01T08:35:24Z</time>
      </trkpt>
      <trkpt lat="42.31281" lon="2.63076">
        <ele>1334</ele>
        <time>2010-01-01T08:35:27Z</time>
      </trkpt>
      <trkpt lat="42.3128" lon="2.63074">
        <ele>1335</ele>
        <time>2010-01-01T08:35:29Z</time>
      </trkpt>
      <trkpt lat="42.31279" lon="2.63074">
        <ele>1335</ele>
        <time>2010-01-01T08:35:29Z</time>
      </trkpt>
      <trkpt lat="42.31283" lon="2.63083">
        <ele>1333</ele>
        <time>2010-01-01T08:35:37Z</time>
      </trkpt>
      <trkpt lat="42.31288" lon="2.63096">
        <ele>1330</ele>
        <time>2010-01-01T08:35:48Z</time>
      </trkpt>
      <trkpt lat="42.31294" lon="2.63105">
        <ele>1329</ele>
        <time>2010-01-01T08:35:56Z</time>
      </trkpt>
      <trkpt lat="42.31295" lon="2.63106">
        <ele>1329</ele>
        <time>2010-01-01T08:35:58Z</time>
      </trkpt>
      <trkpt lat="42.31292" lon="2.63109">
        <ele>1329</ele>
        <time>2010-01-01T08:36:01Z</time>
      </trkpt>
      <trkpt lat="42.31297" lon="2.63109">
        <ele>1329</ele>
        <time>2010-01-01T08:36:07Z</time>
      </trkpt>
      <trkpt lat="42.31298" lon="2.63112">
        <ele>1328</ele>
        <time>2010-01-01T08:36:09Z</time>
      </trkpt>
      <trkpt lat="42.31295" lon="2.63112">
        <ele>1328</ele>
        <time>2010-01-01T08:36:12Z</time>
      </trkpt>
      <trkpt lat="42.31294" lon="2.6311">
        <ele>1329</ele>
        <time>2010-01-01T08:36:14Z</time>
      </trkpt>
      <trkpt lat="42.31295" lon="2.63112">
        <ele>1328</ele>
        <time>2010-01-01T08:36:16Z</time>
      </trkpt>
      <trkpt lat="42.31295" lon="2.6311">
        <ele>1329</ele>
        <time>2010-01-01T08:36:17Z</time>
      </trkpt>
      <trkpt lat="42.31296" lon="2.6311">
        <ele>1329</ele>
        <time>2010-01-01T08:36:18Z</time>
      </trkpt>
      <trkpt lat="42.31296" lon="2.6311">
        <ele>1329</ele>
        <time>2010-01-01T08:36:19Z</time>
      </trkpt>
      <trkpt lat="42.31298" lon="2.63112">
        <ele>1328</ele>
        <time>2010-01-01T08:36:21Z</time>
      </trkpt>
      <trkpt lat="42.31298" lon="2.63112">
        <ele>1328</ele>
        <time>2010-01-01T08:36:21Z</time>
      </trkpt>
      <trkpt lat="42.31298" lon="2.63116">
        <ele>1328</ele>
        <time>2010-01-01T08:36:24Z</time>
      </trkpt>
      <trkpt lat="42.31298" lon="2.63115">
        <ele>1328</ele>
        <time>2010-01-01T08:36:25Z</time>
      </trkpt>
      <trkpt lat="42.31295" lon="2.6312">
        <ele>1327</ele>
        <time>2010-01-01T08:36:30Z</time>
      </trkpt>
      <trkpt lat="42.31295" lon="2.63124">
        <ele>1327</ele>
        <time>2010-01-01T08:36:33Z</time>
      </trkpt>
      <trkpt lat="42.31296" lon="2.6313">
        <ele>1326</ele>
        <time>2010-01-01T08:36:38Z</time>
      </trkpt>
      <trkpt lat="42.31289" lon="2.6313">
        <ele>1325</ele>
        <time>2010-01-01T08:36:45Z</time>
      </trkpt>
      <trkpt lat="42.31294" lon="2.63135">
        <ele>1325</ele>
        <time>2010-01-01T08:36:51Z</time>
      </trkpt>
      <trkpt lat="42.31293" lon="2.63136">
        <ele>1325</ele>
        <time>2010-01-01T08:36:52Z</time>
      </trkpt>
      <trkpt lat="42.31291" lon="2.63141">
        <ele>1324</ele>
        <time>2010-01-01T08:36:56Z</time>
      </trkpt>
      <trkpt lat="42.31295" lon="2.63145">
        <ele>1323</ele>
        <time>2010-01-01T08:37:01Z</time>
      </trkpt>
      <trkpt lat="42.31304" lon="2.63157">
        <ele>1322</ele>
        <time>2010-01-01T08:37:14Z</time>
      </trkpt>
      <trkpt lat="42.3132" lon="2.63169">
        <ele>1320</ele>
        <time>2010-01-01T08:37:33Z</time>
      </trkpt>
      <trkpt lat="42.31338" lon="2.63174">
        <ele>1318</ele>
        <time>2010-01-01T08:37:51Z</time>
      </trkpt>
      <trkpt lat="42.3134" lon="2.63181">
        <ele>1317</ele>
        <time>2010-01-01T08:37:56Z</time>
      </trkpt>
      <trkpt lat="42.3134" lon="2.63181">
        <ele>1317</ele>
        <time>2010-01-01T08:37:57Z</time>
      </trkpt>
      <trkpt lat="42.31338" lon="2.63182">
        <ele>1318</ele>
        <time>2010-01-01T08:37:59Z</time>
      </trkpt>
      <trkpt lat="42.31337" lon="2.63182">
        <ele>1318</ele>
        <time>2010-01-01T08:38:00Z</time>
      </trkpt>
      <trkpt lat="42.31349" lon="2.63196">
        <ele>1313</ele>
        <time>2010-01-01T08:38:16Z</time>
      </trkpt>
      <trkpt lat="42.31361" lon="2.63212">
        <ele>1306</ele>
        <time>2010-01-01T08:38:33Z</time>
      </trkpt>
      <trkpt lat="42.31368" lon="2.63214">
        <ele>1302</ele>
        <time>2010-01-01T08:38:40Z</time>
      </trkpt>
      <trkpt lat="42.3138" lon="2.63232">
        <ele>1294</ele>
        <time>2010-01-01T08:38:58Z</time>
      </trkpt>
      <trkpt lat="42.31392" lon="2.63237">
        <ele>1287</ele>
        <time>2010-01-01T08:39:11Z</time>
      </trkpt>
      <trkpt lat="42.31406" lon="2.63257">
        <ele>1280</ele>
        <time>2010-01-01T08:39:31Z</time>
      </trkpt>
      <trkpt lat="42.31414" lon="2.63262">
        <ele>1277</ele>
        <time>2010-01-01T08:39:40Z</time>
      </trkpt>
      <trkpt lat="42.31429" lon="2.63279">
        <ele>1268</ele>
        <time>2010-01-01T08:39:59Z</time>
      </trkpt>
      <trkpt lat="42.31439" lon="2.63285">
        <ele>1261</ele>
        <time>2010-01-01T08:40:10Z</time>
      </trkpt>
      <trkpt lat="42.3145" lon="2.63273">
        <ele>1257</ele>
        <time>2010-01-01T08:40:25Z</time>
      </trkpt>
      <trkpt lat="42.31452" lon="2.63272">
        <ele>1255</ele>
        <time>2010-01-01T08:40:27Z</time>
      </trkpt>
      <trkpt lat="42.31459" lon="2.63268">
        <ele>1251</ele>
        <time>2010-01-01T08:40:34Z</time>
      </trkpt>
      <trkpt lat="42.31466" lon="2.63264">
        <ele>1246</ele>
        <time>2010-01-01T08:40:42Z</time>
      </trkpt>
      <trkpt lat="42.31475" lon="2.63271">
        <ele>1238</ele>
        <time>2010-01-01T08:40:53Z</time>
      </trkpt>
      <trkpt lat="42.31485" lon="2.63301">
        <ele>1229</ele>
        <time>2010-01-01T08:41:17Z</time>
      </trkpt>
      <trkpt lat="42.31506" lon="2.63305">
        <ele>1217</ele>
        <time>2010-01-01T08:41:37Z</time>
      </trkpt>
      <trkpt lat="42.31518" lon="2.6332">
        <ele>1210</ele>
        <time>2010-01-01T08:41:54Z</time>
      </trkpt>
      <trkpt lat="42.31532" lon="2.63323">
        <ele>1206</ele>
        <time>2010-01-01T08:42:08Z</time>
      </trkpt>
      <trkpt lat="42.31552" lon="2.63345">
        <ele>1201</ele>
        <time>2010-01-01T08:42:34Z</time>
      </trkpt>
      <trkpt lat="42.31575" lon="2.63345">
        <ele>1195</ele>
        <time>2010-01-01T08:42:57Z</time>
      </trkpt>
      <trkpt lat="42.31572" lon="2.63354">
        <ele>1196</ele>
        <time>2010-01-01T08:43:04Z</time>
      </trkpt>
      <trkpt lat="42.31573" lon="2.63361">
        <ele>1196</ele>
        <time>2010-01-01T08:43:09Z</time>
      </trkpt>
      <trkpt lat="42.31586" lon="2.63375">
        <ele>1192</ele>
        <time>2010-01-01T08:43:26Z</time>
      </trkpt>
      <trkpt lat="42.31596" lon="2.63406">
        <ele>1189</ele>
        <time>2010-01-01T08:43:51Z</time>
      </trkpt>
      <trkpt lat="42.31596" lon="2.63433">
        <ele>1187</ele>
        <time>2010-01-01T08:44:11Z</time>
      </trkpt>
      <trkpt lat="42.31609" lon="2.63471">
        <ele>1186</ele>
        <time>2010-01-01T08:44:42Z</time>
      </trkpt>
      <trkpt lat="42.3162" lon="2.63496">
        <ele>1185</ele>
        <time>2010-01-01T08:45:04Z</time>
      </trkpt>
      <trkpt lat="42.31622" lon="2.63508">
        <ele>1184</ele>
        <time>2010-01-01T08:45:12Z</time>
      </trkpt>
      <trkpt lat="42.3163" lon="2.6353">
        <ele>1181</ele>
        <time>2010-01-01T08:45:31Z</time>
      </trkpt>
      <trkpt lat="42.31638" lon="2.63556">
        <ele>1176</ele>
        <time>2010-01-01T08:45:51Z</time>
      </trkpt>
      <trkpt lat="42.31638" lon="2.63556">
        <ele>1176</ele>
        <time>2010-01-01T08:45:52Z</time>
      </trkpt>
      <trkpt lat="42.31632" lon="2.63558">
        <ele>1176</ele>
        <time>2010-01-01T08:45:58Z</time>
      </trkpt>
      <trkpt lat="42.3164" lon="2.63566">
        <ele>1174</ele>
        <time>2010-01-01T08:46:08Z</time>
      </trkpt>
      <trkpt lat="42.31635" lon="2.63593">
        <ele>1169</ele>
        <time>2010-01-01T08:46:29Z</time>
      </trkpt>
      <trkpt lat="42.3163" lon="2.63602">
        <ele>1167</ele>
        <time>2010-01-01T08:46:37Z</time>
      </trkpt>
      <trkpt lat="42.3163" lon="2.63614">
        <ele>1165</ele>
        <time>2010-01-01T08:46:45Z</time>
      </trkpt>
      <trkpt lat="42.31634" lon="2.6362">
        <ele>1163</ele>
        <time>2010-01-01T08:46:52Z</time>
      </trkpt>
      <trkpt lat="42.31644" lon="2.6364">
        <ele>1157</ele>
        <time>2010-01-01T08:47:09Z</time>
      </trkpt>
      <trkpt lat="42.31641" lon="2.63676">
        <ele>1155</ele>
        <time>2010-01-01T08:47:36Z</time>
      </trkpt>
      <trkpt lat="42.3165" lon="2.637">
        <ele>1152</ele>
        <time>2010-01-01T08:47:56Z</time>
      </trkpt>
      <trkpt lat="42.31658" lon="2.63706">
        <ele>1151</ele>
        <time>2010-01-01T08:48:05Z</time>
      </trkpt>
      <trkpt lat="42.31661" lon="2.63715">
        <ele>1150</ele>
        <time>2010-01-01T08:48:12Z</time>
      </trkpt>
      <trkpt lat="42.31673" lon="2.63721">
        <ele>1148</ele>
        <time>2010-01-01T08:48:25Z</time>
      </trkpt>
      <trkpt lat="42.31695" lon="2.63741">
        <ele>1143</ele>
        <time>2010-01-01T08:48:52Z</time>
      </trkpt>
      <trkpt lat="42.31706" lon="2.63779">
        <ele>1137</ele>
        <time>2010-01-01T08:49:22Z</time>
      </trkpt>
      <trkpt lat="42.31705" lon="2.63808">
        <ele>1134</ele>
        <time>2010-01-01T08:49:43Z</time>
      </trkpt>
      <trkpt lat="42.31708" lon="2.63832">
        <ele>1130</ele>
        <time>2010-01-01T08:50:01Z</time>
      </trkpt>
      <trkpt lat="42.31707" lon="2.63856">
        <ele>1127</ele>
        <time>2010-01-01T08:50:19Z</time>
      </trkpt>
      <trkpt lat="42.31706" lon="2.63889">
        <ele>1121</ele>
        <time>2010-01-01T08:50:43Z</time>
      </trkpt>
      <trkpt lat="42.317" lon="2.63923">
        <ele>1115</ele>
        <time>2010-01-01T08:51:10Z</time>
      </trkpt>
      <trkpt lat="42.317" lon="2.63938">
        <ele>1114</ele>
        <time>2010-01-01T08:51:20Z</time>
      </trkpt>
      <trkpt lat="42.31688" lon="2.63959">
        <ele>1112</ele>
        <time>2010-01-01T08:51:40Z</time>
      </trkpt>
      <trkpt lat="42.31688" lon="2.63962">
        <ele>1111</ele>
        <time>2010-01-01T08:51:42Z</time>
      </trkpt>
      <trkpt lat="42.31689" lon="2.63987">
        <ele>1109</ele>
        <time>2010-01-01T08:52:01Z</time>
      </trkpt>
      <trkpt lat="42.31687" lon="2.64023">
        <ele>1107</ele>
        <time>2010-01-01T08:52:27Z</time>
      </trkpt>
      <trkpt lat="42.31677" lon="2.64038">
        <ele>1106</ele>
        <time>2010-01-01T08:52:42Z</time>
      </trkpt>
      <trkpt lat="42.31637" lon="2.64034">
        <ele>1099</ele>
        <time>2010-01-01T08:53:22Z</time>
      </trkpt>
      <trkpt lat="42.31622" lon="2.64026">
        <ele>1096</ele>
        <time>2010-01-01T08:53:38Z</time>
      </trkpt>
      <trkpt lat="42.31622" lon="2.64026">
        <ele>1096</ele>
        <time>2010-01-01T08:53:39Z</time>
      </trkpt>
      <trkpt lat="42.31598" lon="2.63998">
        <ele>1091</ele>
        <time>2010-01-01T08:54:10Z</time>
      </trkpt>
      <trkpt lat="42.31577" lon="2.6397">
        <ele>1087</ele>
        <time>2010-01-01T08:54:40Z</time>
      </trkpt>
      <trkpt lat="42.31562" lon="2.63956">
        <ele>1084</ele>
        <time>2010-01-01T08:54:58Z</time>
      </trkpt>
      <trkpt lat="42.31563" lon="2.63966">
        <ele>1082</ele>
        <time>2010-01-01T08:55:05Z</time>
      </trkpt>
      <trkpt lat="42.31567" lon="2.63967">
        <ele>1084</ele>
        <time>2010-01-01T08:55:09Z</time>
      </trkpt>
      <trkpt lat="42.31567" lon="2.63985">
        <ele>1081</ele>
        <time>2010-01-01T08:55:22Z</time>
      </trkpt>
      <trkpt lat="42.31568" lon="2.64002">
        <ele>1079</ele>
        <time>2010-01-01T08:55:35Z</time>
      </trkpt>
      <trkpt lat="42.31567" lon="2.64037">
        <ele>1073</ele>
        <time>2010-01-01T08:56:00Z</time>
      </trkpt>
      <trkpt lat="42.31568" lon="2.64086">
        <ele>1069</ele>
        <time>2010-01-01T08:56:37Z</time>
      </trkpt>
      <trkpt lat="42.31556" lon="2.64117">
        <ele>1062</ele>
        <time>2010-01-01T08:57:03Z</time>
      </trkpt>
      <trkpt lat="42.31546" lon="2.6414">
        <ele>1056</ele>
        <time>2010-01-01T08:57:22Z</time>
      </trkpt>
      <trkpt lat="42.3154" lon="2.6417">
        <ele>1053</ele>
        <time>2010-01-01T08:57:45Z</time>
      </trkpt>
      <trkpt lat="42.31525" lon="2.64168">
        <ele>1043</ele>
        <time>2010-01-01T08:58:00Z</time>
      </trkpt>
      <trkpt lat="42.31518" lon="2.64174">
        <ele>1038</ele>
        <time>2010-01-01T08:58:09Z</time>
      </trkpt>
      <trkpt lat="42.31517" lon="2.64203">
        <ele>1039</ele>
        <time>2010-01-01T08:58:30Z</time>
      </trkpt>
      <trkpt lat="42.31506" lon="2.642">
        <ele>1029</ele>
        <time>2010-01-01T08:58:42Z</time>
      </trkpt>
      <trkpt lat="42.315" lon="2.64199">
        <ele>1024</ele>
        <time>2010-01-01T08:58:48Z</time>
      </trkpt>
      <trkpt lat="42.31495" lon="2.64232">
        <ele>1021</ele>
        <time>2010-01-01T08:59:13Z</time>
      </trkpt>
      <trkpt lat="42.31491" lon="2.64261">
        <ele>1019</ele>
        <time>2010-01-01T08:59:35Z</time>
      </trkpt>
      <trkpt lat="42.31486" lon="2.64253">
        <ele>1012</ele>
        <time>2010-01-01T08:59:43Z</time>
      </trkpt>
      <trkpt lat="42.31484" lon="2.64247">
        <ele>1010</ele>
        <time>2010-01-01T08:59:47Z</time>
      </trkpt>
      <trkpt lat="42.31476" lon="2.64244">
        <ele>1003</ele>
        <time>2010-01-01T08:59:55Z</time>
      </trkpt>
      <trkpt lat="42.31463" lon="2.64275">
        <ele>996</ele>
        <time>2010-01-01T09:00:22Z</time>
      </trkpt>
      <trkpt lat="42.31455" lon="2.64273">
        <ele>991</ele>
        <time>2010-01-01T09:00:30Z</time>
      </trkpt>
      <trkpt lat="42.31453" lon="2.64273">
        <ele>989</ele>
        <time>2010-01-01T09:00:32Z</time>
      </trkpt>
      <trkpt lat="42.31446" lon="2.64291">
        <ele>987</ele>
        <time>2010-01-01T09:00:48Z</time>
      </trkpt>
      <trkpt lat="42.31432" lon="2.64321">
        <ele>984</ele>
        <time>2010-01-01T09:01:14Z</time>
      </trkpt>
      <trkpt lat="42.31424" lon="2.64326">
        <ele>979</ele>
        <time>2010-01-01T09:01:23Z</time>
      </trkpt>
      <trkpt lat="42.3141" lon="2.64352">
        <ele>974</ele>
        <time>2010-01-01T09:01:47Z</time>
      </trkpt>
      <trkpt lat="42.31397" lon="2.64361">
        <ele>965</ele>
        <time>2010-01-01T09:02:02Z</time>
      </trkpt>
      <trkpt lat="42.31385" lon="2.64351">
        <ele>954</ele>
        <time>2010-01-01T09:02:16Z</time>
      </trkpt>
      <trkpt lat="42.31369" lon="2.64365">
        <ele>943</ele>
        <time>2010-01-01T09:02:35Z</time>
      </trkpt>
      <trkpt lat="42.31362" lon="2.64347">
        <ele>935</ele>
        <time>2010-01-01T09:02:50Z</time>
      </trkpt>
      <trkpt lat="42.31354" lon="2.64368">
        <ele>933</ele>
        <time>2010-01-01T09:03:08Z</time>
      </trkpt>
      <trkpt lat="42.3134" lon="2.64402">
        <ele>925</ele>
        <time>2010-01-01T09:03:37Z</time>
      </trkpt>
      <trkpt lat="42.31326" lon="2.64426">
        <ele>917</ele>
        <time>2010-01-01T09:04:00Z</time>
      </trkpt>
      <trkpt lat="42.31314" lon="2.64434">
        <ele>910</ele>
        <time>2010-01-01T09:04:13Z</time>
      </trkpt>
      <trkpt lat="42.31308" lon="2.64468">
        <ele>907</ele>
        <time>2010-01-01T09:04:38Z</time>
      </trkpt>
      <trkpt lat="42.31304" lon="2.64482">
        <ele>904</ele>
        <time>2010-01-01T09:04:50Z</time>
      </trkpt>
      <trkpt lat="42.31297" lon="2.64509">
        <ele>898</ele>
        <time>2010-01-01T09:05:11Z</time>
      </trkpt>
      <trkpt lat="42.31286" lon="2.64519">
        <ele>891</ele>
        <time>2010-01-01T09:05:24Z</time>
      </trkpt>
      <trkpt lat="42.31282" lon="2.64532">
        <ele>888</ele>
        <time>2010-01-01T09:05:34Z</time>
      </trkpt>
      <trkpt lat="42.3128" lon="2.64558">
        <ele>887</ele>
        <time>2010-01-01T09:05:54Z</time>
      </trkpt>
      <trkpt lat="42.31273" lon="2.64575">
        <ele>880</ele>
        <time>2010-01-01T09:06:09Z</time>
      </trkpt>
      <trkpt lat="42.31274" lon="2.64584">
        <ele>879</ele>
        <time>2010-01-01T09:06:15Z</time>
      </trkpt>
      <trkpt lat="42.31274" lon="2.64605">
        <ele>873</ele>
        <time>2010-01-01T09:06:30Z</time>
      </trkpt>
      <trkpt lat="42.3127" lon="2.64631">
        <ele>864</ele>
        <time>2010-01-01T09:06:50Z</time>
      </trkpt>
      <trkpt lat="42.31271" lon="2.64669">
        <ele>862</ele>
        <time>2010-01-01T09:07:18Z</time>
      </trkpt>
      <trkpt lat="42.31273" lon="2.64702">
        <ele>862</ele>
        <time>2010-01-01T09:07:43Z</time>
      </trkpt>
      <trkpt lat="42.31273" lon="2.64738">
        <ele>857</ele>
        <time>2010-01-01T09:08:09Z</time>
      </trkpt>
      <trkpt lat="42.31267" lon="2.64766">
        <ele>848</ele>
        <time>2010-01-01T09:08:31Z</time>
      </trkpt>
      <trkpt lat="42.3126" lon="2.64784">
        <ele>841</ele>
        <time>2010-01-01T09:08:46Z</time>
      </trkpt>
      <trkpt lat="42.31252" lon="2.64789">
        <ele>835</ele>
        <time>2010-01-01T09:08:55Z</time>
      </trkpt>
      <trkpt lat="42.31254" lon="2.64789">
        <ele>836</ele>
        <time>2010-01-01T09:08:56Z</time>
      </trkpt>
      <trkpt lat="42.31258" lon="2.6479">
        <ele>839</ele>
        <time>2010-01-01T09:09:01Z</time>
      </trkpt>
      <trkpt lat="42.31261" lon="2.64795">
        <ele>839</ele>
        <time>2010-01-01T09:09:06Z</time>
      </trkpt>
      <trkpt lat="42.31258" lon="2.64795">
        <ele>837</ele>
        <time>2010-01-01T09:09:09Z</time>
      </trkpt>
      <trkpt lat="42.31254" lon="2.64801">
        <ele>834</ele>
        <time>2010-01-01T09:09:15Z</time>
      </trkpt>
      <trkpt lat="42.31253" lon="2.64821">
        <ele>828</ele>
        <time>2010-01-01T09:09:30Z</time>
      </trkpt>
      <trkpt lat="42.31244" lon="2.64819">
        <ele>824</ele>
        <time>2010-01-01T09:09:39Z</time>
      </trkpt>
      <trkpt lat="42.31246" lon="2.64836">
        <ele>819</ele>
        <time>2010-01-01T09:09:51Z</time>
      </trkpt>
      <trkpt lat="42.31236" lon="2.6484">
        <ele>812</ele>
        <time>2010-01-01T09:10:02Z</time>
      </trkpt>
      <trkpt lat="42.31226" lon="2.64838">
        <ele>806</ele>
        <time>2010-01-01T09:10:12Z</time>
      </trkpt>
      <trkpt lat="42.31227" lon="2.64839">
        <ele>807</ele>
        <time>2010-01-01T09:10:13Z</time>
      </trkpt>
      <trkpt lat="42.31225" lon="2.64841">
        <ele>805</ele>
        <time>2010-01-01T09:10:15Z</time>
      </trkpt>
      <trkpt lat="42.31227" lon="2.6484">
        <ele>807</ele>
        <time>2010-01-01T09:10:17Z</time>
      </trkpt>
      <trkpt lat="42.31231" lon="2.64833">
        <ele>812</ele>
        <time>2010-01-01T09:10:24Z</time>
      </trkpt>
      <trkpt lat="42.3123" lon="2.64837">
        <ele>809</ele>
        <time>2010-01-01T09:10:27Z</time>
      </trkpt>
      <trkpt lat="42.3123" lon="2.64837">
        <ele>809</ele>
        <time>2010-01-01T09:10:27Z</time>
      </trkpt>
      <trkpt lat="42.31232" lon="2.64832">
        <ele>812</ele>
        <time>2010-01-01T09:10:32Z</time>
      </trkpt>
      <trkpt lat="42.31232" lon="2.64832">
        <ele>812</ele>
        <time>2010-01-01T09:10:32Z</time>
      </trkpt>
      <trkpt lat="42.31226" lon="2.64847">
        <ele>804</ele>
        <time>2010-01-01T09:10:45Z</time>
      </trkpt>
      <trkpt lat="42.31225" lon="2.64852">
        <ele>802</ele>
        <time>2010-01-01T09:10:49Z</time>
      </trkpt>
      <trkpt lat="42.31228" lon="2.64846">
        <ele>806</ele>
        <time>2010-01-01T09:10:54Z</time>
      </trkpt>
      <trkpt lat="42.31227" lon="2.64847">
        <ele>805</ele>
        <time>2010-01-01T09:10:56Z</time>
      </trkpt>
      <trkpt lat="42.31225" lon="2.64847">
        <ele>804</ele>
        <time>2010-01-01T09:10:57Z</time>
      </trkpt>
      <trkpt lat="42.31225" lon="2.64848">
        <ele>804</ele>
        <time>2010-01-01T09:10:58Z</time>
      </trkpt>
      <trkpt lat="42.31228" lon="2.64842">
        <ele>807</ele>
        <time>2010-01-01T09:11:03Z</time>
      </trkpt>
      <trkpt lat="42.31228" lon="2.64843">
        <ele>807</ele>
        <time>2010-01-01T09:11:03Z</time>
      </trkpt>
      <trkpt lat="42.31229" lon="2.64842">
        <ele>807</ele>
        <time>2010-01-01T09:11:04Z</time>
      </trkpt>
      <trkpt lat="42.31227" lon="2.6484">
        <ele>806</ele>
        <time>2010-01-01T09:11:07Z</time>
      </trkpt>
      <trkpt lat="42.31227" lon="2.64842">
        <ele>806</ele>
        <time>2010-01-01T09:11:08Z</time>
      </trkpt>
      <trkpt lat="42.3123" lon="2.64839">
        <ele>809</ele>
        <time>2010-01-01T09:11:12Z</time>
      </trkpt>
      <trkpt lat="42.31232" lon="2.64844">
        <ele>809</ele>
        <time>2010-01-01T09:11:16Z</time>
      </trkpt>
      <trkpt lat="42.31237" lon="2.6484">
        <ele>813</ele>
        <time>2010-01-01T09:11:21Z</time>
      </trkpt>
      <trkpt lat="42.3124" lon="2.64845">
        <ele>813</ele>
        <time>2010-01-01T09:11:26Z</time>
      </trkpt>
      <trkpt lat="42.31242" lon="2.64852">
        <ele>812</ele>
        <time>2010-01-01T09:11:31Z</time>
      </trkpt>
      <trkpt lat="42.31242" lon="2.64852">
        <ele>812</ele>
        <time>2010-01-01T09:11:31Z</time>
      </trkpt>
      <trkpt lat="42.31249" lon="2.64862">
        <ele>813</ele>
        <time>2010-01-01T09:11:42Z</time>
      </trkpt>
      <trkpt lat="42.3126" lon="2.64883">
        <ele>812</ele>
        <time>2010-01-01T09:12:01Z</time>
      </trkpt>
      <trkpt lat="42.31266" lon="2.64888">
        <ele>815</ele>
        <time>2010-01-01T09:12:07Z</time>
      </trkpt>
      <trkpt lat="42.31276" lon="2.64899">
        <ele>817</ele>
        <time>2010-01-01T09:12:21Z</time>
      </trkpt>
      <trkpt lat="42.3128" lon="2.64908">
        <ele>816</ele>
        <time>2010-01-01T09:12:28Z</time>
      </trkpt>
      <trkpt lat="42.31281" lon="2.64914">
        <ele>814</ele>
        <time>2010-01-01T09:12:33Z</time>
      </trkpt>
      <trkpt lat="42.31287" lon="2.64922">
        <ele>815</ele>
        <time>2010-01-01T09:12:41Z</time>
      </trkpt>
      <trkpt lat="42.31294" lon="2.64937">
        <ele>813</ele>
        <time>2010-01-01T09:12:55Z</time>
      </trkpt>
      <trkpt lat="42.31292" lon="2.64933">
        <ele>814</ele>
        <time>2010-01-01T09:12:59Z</time>
      </trkpt>
      <trkpt lat="42.31291" lon="2.64937">
        <ele>812</ele>
        <time>2010-01-01T09:13:02Z</time>
      </trkpt>
      <trkpt lat="42.31296" lon="2.64942">
        <ele>813</ele>
        <time>2010-01-01T09:13:08Z</time>
      </trkpt>
      <trkpt lat="42.31298" lon="2.64951">
        <ele>812</ele>
        <time>2010-01-01T09:13:14Z</time>
      </trkpt>
      <trkpt lat="42.3131" lon="2.64966">
        <ele>816</ele>
        <time>2010-01-01T09:13:31Z</time>
      </trkpt>
      <trkpt lat="42.31312" lon="2.64974">
        <ele>816</ele>
        <time>2010-01-01T09:13:37Z</time>
      </trkpt>
      <trkpt lat="42.31308" lon="2.64981">
        <ele>815</ele>
        <time>2010-01-01T09:13:44Z</time>
      </trkpt>
      <trkpt lat="42.31308" lon="2.64993">
        <ele>815</ele>
        <time>2010-01-01T09:13:53Z</time>
      </trkpt>
      <trkpt lat="42.3131" lon="2.65009">
        <ele>817</ele>
        <time>2010-01-01T09:14:04Z</time>
      </trkpt>
      <trkpt lat="42.31311" lon="2.65009">
        <ele>817</ele>
        <time>2010-01-01T09:14:05Z</time>
      </trkpt>
      <trkpt lat="42.31309" lon="2.65009">
        <ele>816</ele>
        <time>2010-01-01T09:14:08Z</time>
      </trkpt>
      <trkpt lat="42.31308" lon="2.65008">
        <ele>816</ele>
        <time>2010-01-01T09:14:08Z</time>
      </trkpt>
      <trkpt lat="42.31312" lon="2.65012">
        <ele>818</ele>
        <time>2010-01-01T09:14:13Z</time>
      </trkpt>
      <trkpt lat="42.31311" lon="2.65011">
        <ele>817</ele>
        <time>2010-01-01T09:14:14Z</time>
      </trkpt>
      <trkpt lat="42.31313" lon="2.65012">
        <ele>818</ele>
        <time>2010-01-01T09:14:16Z</time>
      </trkpt>
      <trkpt lat="42.31313" lon="2.6501">
        <ele>818</ele>
        <time>2010-01-01T09:14:18Z</time>
      </trkpt>
      <trkpt lat="42.31311" lon="2.65009">
        <ele>817</ele>
        <time>2010-01-01T09:14:20Z</time>
      </trkpt>
      <trkpt lat="42.31309" lon="2.65012">
        <ele>816</ele>
        <time>2010-01-01T09:14:24Z</time>
      </trkpt>
      <trkpt lat="42.3131" lon="2.65015">
        <ele>817</ele>
        <time>2010-01-01T09:14:26Z</time>
      </trkpt>
      <trkpt lat="42.31312" lon="2.6503">
        <ele>818</ele>
        <time>2010-01-01T09:14:37Z</time>
      </trkpt>
      <trkpt lat="42.31314" lon="2.6503">
        <ele>819</ele>
        <time>2010-01-01T09:14:39Z</time>
      </trkpt>
      <trkpt lat="42.31317" lon="2.65025">
        <ele>820</ele>
        <time>2010-01-01T09:14:44Z</time>
      </trkpt>
      <trkpt lat="42.31318" lon="2.65037">
        <ele>822</ele>
        <time>2010-01-01T09:14:53Z</time>
      </trkpt>
      <trkpt lat="42.31318" lon="2.65062">
        <ele>823</ele>
        <time>2010-01-01T09:15:12Z</time>
      </trkpt>
      <trkpt lat="42.31317" lon="2.65072">
        <ele>823</ele>
        <time>2010-01-01T09:15:19Z</time>
      </trkpt>
      <trkpt lat="42.31315" lon="2.65077">
        <ele>822</ele>
        <time>2010-01-01T09:15:23Z</time>
      </trkpt>
      <trkpt lat="42.31318" lon="2.65097">
        <ele>826</ele>
        <time>2010-01-01T09:15:38Z</time>
      </trkpt>
      <trkpt lat="42.31321" lon="2.65115">
        <ele>830</ele>
        <time>2010-01-01T09:15:52Z</time>
      </trkpt>
      <trkpt lat="42.31323" lon="2.6512">
        <ele>832</ele>
        <time>2010-01-01T09:15:56Z</time>
      </trkpt>
      <trkpt lat="42.31324" lon="2.65133">
        <ele>833</ele>
        <time>2010-01-01T09:16:06Z</time>
      </trkpt>
      <trkpt lat="42.31327" lon="2.6514">
        <ele>836</ele>
        <time>2010-01-01T09:16:12Z</time>
      </trkpt>
      <trkpt lat="42.31329" lon="2.65157">
        <ele>840</ele>
        <time>2010-01-01T09:16:25Z</time>
      </trkpt>
      <trkpt lat="42.31329" lon="2.65166">
        <ele>842</ele>
        <time>2010-01-01T09:16:31Z</time>
      </trkpt>
      <trkpt lat="42.3133" lon="2.6517">
        <ele>843</ele>
        <time>2010-01-01T09:16:34Z</time>
      </trkpt>
      <trkpt lat="42.3133" lon="2.65179">
        <ele>844</ele>
        <time>2010-01-01T09:16:41Z</time>
      </trkpt>
      <trkpt lat="42.31332" lon="2.65187">
        <ele>846</ele>
        <time>2010-01-01T09:16:47Z</time>
      </trkpt>
      <trkpt lat="42.31335" lon="2.65195">
        <ele>849</ele>
        <time>2010-01-01T09:16:54Z</time>
      </trkpt>
      <trkpt lat="42.31342" lon="2.65209">
        <ele>851</ele>
        <time>2010-01-01T09:17:06Z</time>
      </trkpt>
      <trkpt lat="42.31345" lon="2.65235">
        <ele>851</ele>
        <time>2010-01-01T09:17:26Z</time>
      </trkpt>
      <trkpt lat="42.3135" lon="2.65253">
        <ele>851</ele>
        <time>2010-01-01T09:17:40Z</time>
      </trkpt>
      <trkpt lat="42.31355" lon="2.65274">
        <ele>851</ele>
        <time>2010-01-01T09:17:57Z</time>
      </trkpt>
      <trkpt lat="42.31358" lon="2.6528">
        <ele>852</ele>
        <time>2010-01-01T09:18:02Z</time>
      </trkpt>
      <trkpt lat="42.31361" lon="2.653">
        <ele>852</ele>
        <time>2010-01-01T09:18:17Z</time>
      </trkpt>
      <trkpt lat="42.31361" lon="2.65311">
        <ele>851</ele>
        <time>2010-01-01T09:18:25Z</time>
      </trkpt>
      <trkpt lat="42.31364" lon="2.65317">
        <ele>852</ele>
        <time>2010-01-01T09:18:31Z</time>
      </trkpt>
      <trkpt lat="42.31365" lon="2.65325">
        <ele>851</ele>
        <time>2010-01-01T09:18:36Z</time>
      </trkpt>
      <trkpt lat="42.31364" lon="2.65327">
        <ele>851</ele>
        <time>2010-01-01T09:18:38Z</time>
      </trkpt>
      <trkpt lat="42.31369" lon="2.65335">
        <ele>853</ele>
        <time>2010-01-01T09:18:45Z</time>
      </trkpt>
      <trkpt lat="42.31367" lon="2.6536">
        <ele>851</ele>
        <time>2010-01-01T09:19:04Z</time>
      </trkpt>
      <trkpt lat="42.31369" lon="2.65367">
        <ele>852</ele>
        <time>2010-01-01T09:19:09Z</time>
      </trkpt>
      <trkpt lat="42.31368" lon="2.65377">
        <ele>852</ele>
        <time>2010-01-01T09:19:17Z</time>
      </trkpt>
      <trkpt lat="42.31369" lon="2.65386">
        <ele>853</ele>
        <time>2010-01-01T09:19:24Z</time>
      </trkpt>
      <trkpt lat="42.3137" lon="2.65401">
        <ele>854</ele>
        <time>2010-01-01T09:19:35Z</time>
      </trkpt>
      <trkpt lat="42.31375" lon="2.65412">
        <ele>858</ele>
        <time>2010-01-01T09:19:45Z</time>
      </trkpt>
      <trkpt lat="42.31376" lon="2.65422">
        <ele>859</ele>
        <time>2010-01-01T09:19:52Z</time>
      </trkpt>
      <trkpt lat="42.31376" lon="2.65425">
        <ele>859</ele>
        <time>2010-01-01T09:19:54Z</time>
      </trkpt>
      <trkpt lat="42.31377" lon="2.65434">
        <ele>861</ele>
        <time>2010-01-01T09:20:01Z</time>
      </trkpt>
      <trkpt lat="42.31382" lon="2.6544">
        <ele>864</ele>
        <time>2010-01-01T09:20:07Z</time>
      </trkpt>
      <trkpt lat="42.31387" lon="2.65448">
        <ele>867</ele>
        <time>2010-01-01T09:20:16Z</time>
      </trkpt>
      <trkpt lat="42.31387" lon="2.65465">
        <ele>868</ele>
        <time>2010-01-01T09:20:28Z</time>
      </trkpt>
      <trkpt lat="42.3139" lon="2.6547">
        <ele>870</ele>
        <time>2010-01-01T09:20:32Z</time>
      </trkpt>
      <trkpt lat="42.31389" lon="2.65477">
        <ele>870</ele>
        <time>2010-01-01T09:20:38Z</time>
      </trkpt>
      <trkpt lat="42.3139" lon="2.65483">
        <ele>871</ele>
        <time>2010-01-01T09:20:42Z</time>
      </trkpt>
      <trkpt lat="42.31387" lon="2.65495">
        <ele>872</ele>
        <time>2010-01-01T09:20:52Z</time>
      </trkpt>
      <trkpt lat="42.31388" lon="2.65502">
        <ele>873</ele>
        <time>2010-01-01T09:20:57Z</time>
      </trkpt>
      <trkpt lat="42.31386" lon="2.65506">
        <ele>874</ele>
        <time>2010-01-01T09:21:00Z</time>
      </trkpt>
      <trkpt lat="42.31388" lon="2.65524">
        <ele>877</ele>
        <time>2010-01-01T09:21:13Z</time>
      </trkpt>
      <trkpt lat="42.31385" lon="2.65535">
        <ele>878</ele>
        <time>2010-01-01T09:21:22Z</time>
      </trkpt>
      <trkpt lat="42.31381" lon="2.65542">
        <ele>878</ele>
        <time>2010-01-01T09:21:29Z</time>
      </trkpt>
      <trkpt lat="42.31379" lon="2.65551">
        <ele>879</ele>
        <time>2010-01-01T09:21:36Z</time>
      </trkpt>
      <trkpt lat="42.3138" lon="2.65554">
        <ele>879</ele>
        <time>2010-01-01T09:21:38Z</time>
      </trkpt>
      <trkpt lat="42.31388" lon="2.65559">
        <ele>882</ele>
        <time>2010-01-01T09:21:47Z</time>
      </trkpt>
      <trkpt lat="42.314" lon="2.65571">
        <ele>887</ele>
        <time>2010-01-01T09:22:02Z</time>
      </trkpt>
      <trkpt lat="42.31403" lon="2.65572">
        <ele>888</ele>
        <time>2010-01-01T09:22:05Z</time>
      </trkpt>
      <trkpt lat="42.31408" lon="2.65576">
        <ele>890</ele>
        <time>2010-01-01T09:22:11Z</time>
      </trkpt>
      <trkpt lat="42.31412" lon="2.65586">
        <ele>892</ele>
        <time>2010-01-01T09:22:20Z</time>
      </trkpt>
      <trkpt lat="42.31419" lon="2.65588">
        <ele>894</ele>
        <time>2010-01-01T09:22:27Z</time>
      </trkpt>
      <trkpt lat="42.31424" lon="2.65593">
        <ele>896</ele>
        <time>2010-01-01T09:22:33Z</time>
      </trkpt>
      <trkpt lat="42.31431" lon="2.65597">
        <ele>898</ele>
        <time>2010-01-01T09:22:41Z</time>
      </trkpt>
      <trkpt lat="42.31434" lon="2.65596">
        <ele>899</ele>
        <time>2010-01-01T09:22:44Z</time>
      </trkpt>
      <trkpt lat="42.31436" lon="2.65585">
        <ele>900</ele>
        <time>2010-01-01T09:22:52Z</time>
      </trkpt>
      <trkpt lat="42.31441" lon="2.65577">
        <ele>901</ele>
        <time>2010-01-01T09:23:00Z</time>
      </trkpt>
      <trkpt lat="42.31442" lon="2.65573">
        <ele>902</ele>
        <time>2010-01-01T09:23:03Z</time>
      </trkpt>
      <trkpt lat="42.31453" lon="2.65556">
        <ele>906</ele>
        <time>2010-01-01T09:23:19Z</time>
      </trkpt>
      <trkpt lat="42.31458" lon="2.65563">
        <ele>908</ele>
        <time>2010-01-01T09:23:27Z</time>
      </trkpt>
      <trkpt lat="42.31464" lon="2.65566">
        <ele>910</ele>
        <time>2010-01-01T09:23:33Z</time>
      </trkpt>
      <trkpt lat="42.31466" lon="2.65575">
        <ele>910</ele>
        <time>2010-01-01T09:23:40Z</time>
      </trkpt>
      <trkpt lat="42.3147" lon="2.65578">
        <ele>912</ele>
        <time>2010-01-01T09:23:45Z</time>
      </trkpt>
      <trkpt lat="42.31475" lon="2.65584">
        <ele>912</ele>
        <time>2010-01-01T09:23:51Z</time>
      </trkpt>
      <trkpt lat="42.31481" lon="2.65588">
        <ele>915</ele>
        <time>2010-01-01T09:23:58Z</time>
      </trkpt>
      <trkpt lat="42.31488" lon="2.65588">
        <ele>917</ele>
        <time>2010-01-01T09:24:05Z</time>
      </trkpt>
      <trkpt lat="42.31491" lon="2.65585">
        <ele>919</ele>
        <time>2010-01-01T09:24:09Z</time>
      </trkpt>
      <trkpt lat="42.31497" lon="2.65592">
        <ele>920</ele>
        <time>2010-01-01T09:24:16Z</time>
      </trkpt>
      <trkpt lat="42.31502" lon="2.65594">
        <ele>921</ele>
        <time>2010-01-01T09:24:21Z</time>
      </trkpt>
      <trkpt lat="42.31518" lon="2.65588">
        <ele>930</ele>
        <time>2010-01-01T09:24:38Z</time>
      </trkpt>
      <trkpt lat="42.31524" lon="2.65589">
        <ele>933</ele>
        <time>2010-01-01T09:24:45Z</time>
      </trkpt>
      <trkpt lat="42.3153" lon="2.65582">
        <ele>938</ele>
        <time>2010-01-01T09:24:52Z</time>
      </trkpt>
      <trkpt lat="42.31536" lon="2.65583">
        <ele>940</ele>
        <time>2010-01-01T09:24:58Z</time>
      </trkpt>
      <trkpt lat="42.31539" lon="2.65588">
        <ele>940</ele>
        <time>2010-01-01T09:25:03Z</time>
      </trkpt>
      <trkpt lat="42.31547" lon="2.65592">
        <ele>941</ele>
        <time>2010-01-01T09:25:11Z</time>
      </trkpt>
      <trkpt lat="42.31551" lon="2.65593">
        <ele>943</ele>
        <time>2010-01-01T09:25:15Z</time>
      </trkpt>
      <trkpt lat="42.31556" lon="2.65597">
        <ele>943</ele>
        <time>2010-01-01T09:25:21Z</time>
      </trkpt>
      <trkpt lat="42.31568" lon="2.65602">
        <ele>946</ele>
        <time>2010-01-01T09:25:34Z</time>
      </trkpt>
      <trkpt lat="42.31572" lon="2.65605">
        <ele>947</ele>
        <time>2010-01-01T09:25:38Z</time>
      </trkpt>
      <trkpt lat="42.31579" lon="2.65617">
        <ele>946</ele>
        <time>2010-01-01T09:25:50Z</time>
      </trkpt>
      <trkpt lat="42.31591" lon="2.65621">
        <ele>952</ele>
        <time>2010-01-01T09:26:02Z</time>
      </trkpt>
      <trkpt lat="42.31596" lon="2.65629">
        <ele>953</ele>
        <time>2010-01-01T09:26:10Z</time>
      </trkpt>
      <trkpt lat="42.31598" lon="2.65637">
        <ele>952</ele>
        <time>2010-01-01T09:26:16Z</time>
      </trkpt>
      <trkpt lat="42.31603" lon="2.65643">
        <ele>954</ele>
        <time>2010-01-01T09:26:23Z</time>
      </trkpt>
      <trkpt lat="42.31609" lon="2.65651">
        <ele>955</ele>
        <time>2010-01-01T09:26:30Z</time>
      </trkpt>
      <trkpt lat="42.31613" lon="2.65649">
        <ele>959</ele>
        <time>2010-01-01T09:26:35Z</time>
      </trkpt>
      <trkpt lat="42.31614" lon="2.65654">
        <ele>958</ele>
        <time>2010-01-01T09:26:38Z</time>
      </trkpt>
      <trkpt lat="42.31629" lon="2.65665">
        <ele>967</ele>
        <time>2010-01-01T09:26:56Z</time>
      </trkpt>
      <trkpt lat="42.3163" lon="2.65666">
        <ele>967</ele>
        <time>2010-01-01T09:26:57Z</time>
      </trkpt>
      <trkpt lat="42.31636" lon="2.65668">
        <ele>971</ele>
        <time>2010-01-01T09:27:03Z</time>
      </trkpt>
      <trkpt lat="42.31643" lon="2.65675">
        <ele>974</ele>
        <time>2010-01-01T09:27:12Z</time>
      </trkpt>
      <trkpt lat="42.31648" lon="2.65677">
        <ele>976</ele>
        <time>2010-01-01T09:27:17Z</time>
      </trkpt>
      <trkpt lat="42.31661" lon="2.657">
        <ele>975</ele>
        <time>2010-01-01T09:27:38Z</time>
      </trkpt>
      <trkpt lat="42.31665" lon="2.65703">
        <ele>975</ele>
        <time>2010-01-01T09:27:43Z</time>
      </trkpt>
      <trkpt lat="42.31669" lon="2.65706">
        <ele>977</ele>
        <time>2010-01-01T09:27:47Z</time>
      </trkpt>
      <trkpt lat="42.31679" lon="2.65724">
        <ele>973</ele>
        <time>2010-01-01T09:28:04Z</time>
      </trkpt>
      <trkpt lat="42.3169" lon="2.65734">
        <ele>974</ele>
        <time>2010-01-01T09:28:18Z</time>
      </trkpt>
      <trkpt lat="42.317" lon="2.65739">
        <ele>976</ele>
        <time>2010-01-01T09:28:28Z</time>
      </trkpt>
      <trkpt lat="42.31704" lon="2.65739">
        <ele>978</ele>
        <time>2010-01-01T09:28:33Z</time>
      </trkpt>
      <trkpt lat="42.3171" lon="2.65743">
        <ele>980</ele>
        <time>2010-01-01T09:28:39Z</time>
      </trkpt>
      <trkpt lat="42.31714" lon="2.65742">
        <ele>983</ele>
        <time>2010-01-01T09:28:43Z</time>
      </trkpt>
      <trkpt lat="42.31715" lon="2.65751">
        <ele>979</ele>
        <time>2010-01-01T09:28:50Z</time>
      </trkpt>
      <trkpt lat="42.31731" lon="2.65766">
        <ele>982</ele>
        <time>2010-01-01T09:29:09Z</time>
      </trkpt>
      <trkpt lat="42.31736" lon="2.65767">
        <ele>985</ele>
        <time>2010-01-01T09:29:14Z</time>
      </trkpt>
      <trkpt lat="42.3174" lon="2.65773">
        <ele>986</ele>
        <time>2010-01-01T09:29:20Z</time>
      </trkpt>
      <trkpt lat="42.31747" lon="2.6578">
        <ele>988</ele>
        <time>2010-01-01T09:29:29Z</time>
      </trkpt>
      <trkpt lat="42.31753" lon="2.65788">
        <ele>991</ele>
        <time>2010-01-01T09:29:37Z</time>
      </trkpt>
      <trkpt lat="42.31759" lon="2.65803">
        <ele>993</ele>
        <time>2010-01-01T09:29:49Z</time>
      </trkpt>
      <trkpt lat="42.31764" lon="2.6582">
        <ele>994</ele>
        <time>2010-01-01T09:30:03Z</time>
      </trkpt>
      <trkpt lat="42.31764" lon="2.65825">
        <ele>993</ele>
        <time>2010-01-01T09:30:07Z</time>
      </trkpt>
      <trkpt lat="42.31768" lon="2.65835">
        <ele>994</ele>
        <time>2010-01-01T09:30:15Z</time>
      </trkpt>
      <trkpt lat="42.31769" lon="2.65841">
        <ele>992</ele>
        <time>2010-01-01T09:30:20Z</time>
      </trkpt>
      <trkpt lat="42.31771" lon="2.65845">
        <ele>992</ele>
        <time>2010-01-01T09:30:23Z</time>
      </trkpt>
      <trkpt lat="42.31774" lon="2.65855">
        <ele>991</ele>
        <time>2010-01-01T09:30:32Z</time>
      </trkpt>
      <trkpt lat="42.31779" lon="2.65861">
        <ele>993</ele>
        <time>2010-01-01T09:30:39Z</time>
      </trkpt>
      <trkpt lat="42.31787" lon="2.65874">
        <ele>995</ele>
        <time>2010-01-01T09:30:51Z</time>
      </trkpt>
      <trkpt lat="42.31794" lon="2.65876">
        <ele>999</ele>
        <time>2010-01-01T09:30:58Z</time>
      </trkpt>
      <trkpt lat="42.31806" lon="2.65871">
        <ele>1007</ele>
        <time>2010-01-01T09:31:10Z</time>
      </trkpt>
      <trkpt lat="42.3181" lon="2.65872">
        <ele>1011</ele>
        <time>2010-01-01T09:31:15Z</time>
      </trkpt>
      <trkpt lat="42.31816" lon="2.65876">
        <ele>1016</ele>
        <time>2010-01-01T09:31:22Z</time>
      </trkpt>
      <trkpt lat="42.31818" lon="2.65878">
        <ele>1017</ele>
        <time>2010-01-01T09:31:24Z</time>
      </trkpt>
      <trkpt lat="42.31818" lon="2.65883">
        <ele>1018</ele>
        <time>2010-01-01T09:31:27Z</time>
      </trkpt>
      <trkpt lat="42.31821" lon="2.65888">
        <ele>1020</ele>
        <time>2010-01-01T09:31:32Z</time>
      </trkpt>
      <trkpt lat="42.31823" lon="2.65894">
        <ele>1021</ele>
        <time>2010-01-01T09:31:37Z</time>
      </trkpt>
      <trkpt lat="42.31827" lon="2.65901">
        <ele>1023</ele>
        <time>2010-01-01T09:31:43Z</time>
      </trkpt>
      <trkpt lat="42.31826" lon="2.65904">
        <ele>1021</ele>
        <time>2010-01-01T09:31:46Z</time>
      </trkpt>
      <trkpt lat="42.31827" lon="2.65921">
        <ele>1018</ele>
        <time>2010-01-01T09:31:58Z</time>
      </trkpt>
      <trkpt lat="42.31828" lon="2.65925">
        <ele>1018</ele>
        <time>2010-01-01T09:32:02Z</time>
      </trkpt>
      <trkpt lat="42.31838" lon="2.65935">
        <ele>1023</ele>
        <time>2010-01-01T09:32:14Z</time>
      </trkpt>
      <trkpt lat="42.3184" lon="2.65941">
        <ele>1023</ele>
        <time>2010-01-01T09:32:19Z</time>
      </trkpt>
      <trkpt lat="42.31841" lon="2.65949">
        <ele>1020</ele>
        <time>2010-01-01T09:32:25Z</time>
      </trkpt>
      <trkpt lat="42.31837" lon="2.65956">
        <ele>1014</ele>
        <time>2010-01-01T09:32:31Z</time>
      </trkpt>
      <trkpt lat="42.31836" lon="2.65961">
        <ele>1010</ele>
        <time>2010-01-01T09:32:35Z</time>
      </trkpt>
      <trkpt lat="42.31836" lon="2.65972">
        <ele>1003</ele>
        <time>2010-01-01T09:32:43Z</time>
      </trkpt>
      <trkpt lat="42.3184" lon="2.65982">
        <ele>1003</ele>
        <time>2010-01-01T09:32:52Z</time>
      </trkpt>
      <trkpt lat="42.31845" lon="2.65986">
        <ele>1005</ele>
        <time>2010-01-01T09:32:57Z</time>
      </trkpt>
      <trkpt lat="42.31846" lon="2.66005">
        <ele>1001</ele>
        <time>2010-01-01T09:33:11Z</time>
      </trkpt>
      <trkpt lat="42.31847" lon="2.66008">
        <ele>1002</ele>
        <time>2010-01-01T09:33:14Z</time>
      </trkpt>
      <trkpt lat="42.31848" lon="2.66024">
        <ele>1002</ele>
        <time>2010-01-01T09:33:26Z</time>
      </trkpt>
      <trkpt lat="42.31847" lon="2.66028">
        <ele>1000</ele>
        <time>2010-01-01T09:33:29Z</time>
      </trkpt>
      <trkpt lat="42.31846" lon="2.66027">
        <ele>1000</ele>
        <time>2010-01-01T09:33:30Z</time>
      </trkpt>
      <trkpt lat="42.31847" lon="2.66027">
        <ele>1001</ele>
        <time>2010-01-01T09:33:31Z</time>
      </trkpt>
      <trkpt lat="42.31848" lon="2.66025">
        <ele>1002</ele>
        <time>2010-01-01T09:33:32Z</time>
      </trkpt>
      <trkpt lat="42.31847" lon="2.66027">
        <ele>1001</ele>
        <time>2010-01-01T09:33:34Z</time>
      </trkpt>
      <trkpt lat="42.31853" lon="2.6603">
        <ele>1006</ele>
        <time>2010-01-01T09:33:40Z</time>
      </trkpt>
      <trkpt lat="42.3186" lon="2.66043">
        <ele>1010</ele>
        <time>2010-01-01T09:33:52Z</time>
      </trkpt>
      <trkpt lat="42.31865" lon="2.66066">
        <ele>1009</ele>
        <time>2010-01-01T09:34:09Z</time>
      </trkpt>
      <trkpt lat="42.31873" lon="2.66072">
        <ele>1013</ele>
        <time>2010-01-01T09:34:19Z</time>
      </trkpt>
      <trkpt lat="42.3188" lon="2.66082">
        <ele>1016</ele>
        <time>2010-01-01T09:34:29Z</time>
      </trkpt>
      <trkpt lat="42.31882" lon="2.66088">
        <ele>1016</ele>
        <time>2010-01-01T09:34:34Z</time>
      </trkpt>
      <trkpt lat="42.31893" lon="2.661">
        <ele>1021</ele>
        <time>2010-01-01T09:34:48Z</time>
      </trkpt>
      <trkpt lat="42.3189" lon="2.661">
        <ele>1019</ele>
        <time>2010-01-01T09:34:50Z</time>
      </trkpt>
      <trkpt lat="42.31891" lon="2.66099">
        <ele>1020</ele>
        <time>2010-01-01T09:34:52Z</time>
      </trkpt>
      <trkpt lat="42.31893" lon="2.66098">
        <ele>1021</ele>
        <time>2010-01-01T09:34:53Z</time>
      </trkpt>
      <trkpt lat="42.31893" lon="2.66097">
        <ele>1023</ele>
        <time>2010-01-01T09:34:54Z</time>
      </trkpt>
      <trkpt lat="42.31893" lon="2.66096">
        <ele>1022</ele>
        <time>2010-01-01T09:34:55Z</time>
      </trkpt>
      <trkpt lat="42.31891" lon="2.66097">
        <ele>1021</ele>
        <time>2010-01-01T09:34:57Z</time>
      </trkpt>
      <trkpt lat="42.31891" lon="2.66097">
        <ele>1020</ele>
        <time>2010-01-01T09:34:57Z</time>
      </trkpt>
      <trkpt lat="42.31902" lon="2.66108">
        <ele>1026</ele>
        <time>2010-01-01T09:35:10Z</time>
      </trkpt>
      <trkpt lat="42.31913" lon="2.66121">
        <ele>1033</ele>
        <time>2010-01-01T09:35:25Z</time>
      </trkpt>
      <trkpt lat="42.31913" lon="2.66125">
        <ele>1032</ele>
        <time>2010-01-01T09:35:28Z</time>
      </trkpt>
      <trkpt lat="42.31916" lon="2.66127">
        <ele>1034</ele>
        <time>2010-01-01T09:35:31Z</time>
      </trkpt>
      <trkpt lat="42.31919" lon="2.66143">
        <ele>1031</ele>
        <time>2010-01-01T09:35:43Z</time>
      </trkpt>
      <trkpt lat="42.31917" lon="2.66145">
        <ele>1029</ele>
        <time>2010-01-01T09:35:46Z</time>
      </trkpt>
      <trkpt lat="42.31916" lon="2.66154">
        <ele>1024</ele>
        <time>2010-01-01T09:35:52Z</time>
      </trkpt>
      <trkpt lat="42.31917" lon="2.66158">
        <ele>1023</ele>
        <time>2010-01-01T09:35:56Z</time>
      </trkpt>
      <trkpt lat="42.31916" lon="2.66156">
        <ele>1023</ele>
        <time>2010-01-01T09:35:58Z</time>
      </trkpt>
      <trkpt lat="42.31911" lon="2.6615">
        <ele>1021</ele>
        <time>2010-01-01T09:36:04Z</time>
      </trkpt>
      <trkpt lat="42.31909" lon="2.66147">
        <ele>1019</ele>
        <time>2010-01-01T09:36:07Z</time>
      </trkpt>
      <trkpt lat="42.31908" lon="2.66142">
        <ele>1020</ele>
        <time>2010-01-01T09:36:12Z</time>
      </trkpt>
      <trkpt lat="42.31902" lon="2.66141">
        <ele>1015</ele>
        <time>2010-01-01T09:36:17Z</time>
      </trkpt>
      <trkpt lat="42.31899" lon="2.66146">
        <ele>1010</ele>
        <time>2010-01-01T09:36:21Z</time>
      </trkpt>
      <trkpt lat="42.31902" lon="2.66152">
        <ele>1010</ele>
        <time>2010-01-01T09:36:27Z</time>
      </trkpt>
      <trkpt lat="42.31914" lon="2.66174">
        <ele>1014</ele>
        <time>2010-01-01T09:36:47Z</time>
      </trkpt>
      <trkpt lat="42.31918" lon="2.66188">
        <ele>1011</ele>
        <time>2010-01-01T09:36:58Z</time>
      </trkpt>
      <trkpt lat="42.31921" lon="2.66204">
        <ele>1005</ele>
        <time>2010-01-01T09:37:10Z</time>
      </trkpt>
      <trkpt lat="42.31921" lon="2.66213">
        <ele>1002</ele>
        <time>2010-01-01T09:37:17Z</time>
      </trkpt>
      <trkpt lat="42.31919" lon="2.66223">
        <ele>997</ele>
        <time>2010-01-01T09:37:24Z</time>
      </trkpt>
      <trkpt lat="42.3192" lon="2.66225">
        <ele>997</ele>
        <time>2010-01-01T09:37:26Z</time>
      </trkpt>
      <trkpt lat="42.3192" lon="2.66223">
        <ele>997</ele>
        <time>2010-01-01T09:37:27Z</time>
      </trkpt>
      <trkpt lat="42.31919" lon="2.66238">
        <ele>991</ele>
        <time>2010-01-01T09:37:38Z</time>
      </trkpt>
      <trkpt lat="42.31919" lon="2.66241">
        <ele>990</ele>
        <time>2010-01-01T09:37:41Z</time>
      </trkpt>
      <trkpt lat="42.31916" lon="2.66248">
        <ele>987</ele>
        <time>2010-01-01T09:37:47Z</time>
      </trkpt>
      <trkpt lat="42.31914" lon="2.66252">
        <ele>985</ele>
        <time>2010-01-01T09:37:50Z</time>
      </trkpt>
      <trkpt lat="42.31906" lon="2.66261">
        <ele>980</ele>
        <time>2010-01-01T09:38:01Z</time>
      </trkpt>
      <trkpt lat="42.31905" lon="2.66268">
        <ele>979</ele>
        <time>2010-01-01T09:38:06Z</time>
      </trkpt>
      <trkpt lat="42.31901" lon="2.66277">
        <ele>976</ele>
        <time>2010-01-01T09:38:14Z</time>
      </trkpt>
      <trkpt lat="42.31905" lon="2.66286">
        <ele>978</ele>
        <time>2010-01-01T09:38:22Z</time>
      </trkpt>
      <trkpt lat="42.31903" lon="2.66301">
        <ele>976</ele>
        <time>2010-01-01T09:38:32Z</time>
      </trkpt>
      <trkpt lat="42.31906" lon="2.6632">
        <ele>973</ele>
        <time>2010-01-01T09:38:47Z</time>
      </trkpt>
      <trkpt lat="42.31907" lon="2.66325">
        <ele>972</ele>
        <time>2010-01-01T09:38:51Z</time>
      </trkpt>
      <trkpt lat="42.31906" lon="2.6634">
        <ele>968</ele>
        <time>2010-01-01T09:39:02Z</time>
      </trkpt>
      <trkpt lat="42.31906" lon="2.6635">
        <ele>967</ele>
        <time>2010-01-01T09:39:09Z</time>
      </trkpt>
      <trkpt lat="42.31911" lon="2.66353">
        <ele>968</ele>
        <time>2010-01-01T09:39:14Z</time>
      </trkpt>
      <trkpt lat="42.31904" lon="2.66362">
        <ele>965</ele>
        <time>2010-01-01T09:39:23Z</time>
      </trkpt>
      <trkpt lat="42.31901" lon="2.66369">
        <ele>963</ele>
        <time>2010-01-01T09:39:29Z</time>
      </trkpt>
      <trkpt lat="42.31902" lon="2.66385">
        <ele>961</ele>
        <time>2010-01-01T09:39:41Z</time>
      </trkpt>
      <trkpt lat="42.31899" lon="2.66397">
        <ele>959</ele>
        <time>2010-01-01T09:39:51Z</time>
      </trkpt>
      <trkpt lat="42.31895" lon="2.66413">
        <ele>957</ele>
        <time>2010-01-01T09:40:03Z</time>
      </trkpt>
      <trkpt lat="42.31891" lon="2.66429">
        <ele>956</ele>
        <time>2010-01-01T09:40:15Z</time>
      </trkpt>
      <trkpt lat="42.31885" lon="2.66436">
        <ele>952</ele>
        <time>2010-01-01T09:40:24Z</time>
      </trkpt>
      <trkpt lat="42.31884" lon="2.66439">
        <ele>951</ele>
        <time>2010-01-01T09:40:27Z</time>
      </trkpt>
      <trkpt lat="42.31884" lon="2.66454">
        <ele>949</ele>
        <time>2010-01-01T09:40:38Z</time>
      </trkpt>
      <trkpt lat="42.31881" lon="2.66472">
        <ele>944</ele>
        <time>2010-01-01T09:40:51Z</time>
      </trkpt>
      <trkpt lat="42.31879" lon="2.6648">
        <ele>942</ele>
        <time>2010-01-01T09:40:57Z</time>
      </trkpt>
      <trkpt lat="42.31881" lon="2.66488">
        <ele>943</ele>
        <time>2010-01-01T09:41:04Z</time>
      </trkpt>
      <trkpt lat="42.31879" lon="2.66502">
        <ele>941</ele>
        <time>2010-01-01T09:41:14Z</time>
      </trkpt>
      <trkpt lat="42.31879" lon="2.66512">
        <ele>941</ele>
        <time>2010-01-01T09:41:22Z</time>
      </trkpt>
      <trkpt lat="42.31876" lon="2.66527">
        <ele>938</ele>
        <time>2010-01-01T09:41:33Z</time>
      </trkpt>
      <trkpt lat="42.31876" lon="2.66533">
        <ele>938</ele>
        <time>2010-01-01T09:41:38Z</time>
      </trkpt>
      <trkpt lat="42.31874" lon="2.66552">
        <ele>936</ele>
        <time>2010-01-01T09:41:52Z</time>
      </trkpt>
      <trkpt lat="42.31877" lon="2.66557">
        <ele>937</ele>
        <time>2010-01-01T09:41:56Z</time>
      </trkpt>
      <trkpt lat="42.3188" lon="2.66551">
        <ele>939</ele>
        <time>2010-01-01T09:42:01Z</time>
      </trkpt>
      <trkpt lat="42.31882" lon="2.6655">
        <ele>940</ele>
        <time>2010-01-01T09:42:03Z</time>
      </trkpt>
      <trkpt lat="42.31879" lon="2.66552">
        <ele>939</ele>
        <time>2010-01-01T09:42:06Z</time>
      </trkpt>
      <trkpt lat="42.31879" lon="2.66566">
        <ele>937</ele>
        <time>2010-01-01T09:42:17Z</time>
      </trkpt>
      <trkpt lat="42.3188" lon="2.66573">
        <ele>937</ele>
        <time>2010-01-01T09:42:22Z</time>
      </trkpt>
      <trkpt lat="42.31878" lon="2.66584">
        <ele>935</ele>
        <time>2010-01-01T09:42:30Z</time>
      </trkpt>
      <trkpt lat="42.31879" lon="2.66592">
        <ele>935</ele>
        <time>2010-01-01T09:42:36Z</time>
      </trkpt>
      <trkpt lat="42.31881" lon="2.66598">
        <ele>935</ele>
        <time>2010-01-01T09:42:40Z</time>
      </trkpt>
      <trkpt lat="42.31885" lon="2.66605">
        <ele>937</ele>
        <time>2010-01-01T09:42:48Z</time>
      </trkpt>
      <trkpt lat="42.31887" lon="2.66628">
        <ele>935</ele>
        <time>2010-01-01T09:43:05Z</time>
      </trkpt>
      <trkpt lat="42.31886" lon="2.66634">
        <ele>934</ele>
        <time>2010-01-01T09:43:09Z</time>
      </trkpt>
      <trkpt lat="42.31887" lon="2.66641">
        <ele>934</ele>
        <time>2010-01-01T09:43:14Z</time>
      </trkpt>
      <trkpt lat="42.31887" lon="2.6665">
        <ele>933</ele>
        <time>2010-01-01T09:43:21Z</time>
      </trkpt>
      <trkpt lat="42.31886" lon="2.66652">
        <ele>933</ele>
        <time>2010-01-01T09:43:23Z</time>
      </trkpt>
      <trkpt lat="42.31886" lon="2.66664">
        <ele>932</ele>
        <time>2010-01-01T09:43:32Z</time>
      </trkpt>
      <trkpt lat="42.31889" lon="2.66694">
        <ele>930</ele>
        <time>2010-01-01T09:43:54Z</time>
      </trkpt>
      <trkpt lat="42.31891" lon="2.66702">
        <ele>930</ele>
        <time>2010-01-01T09:44:00Z</time>
      </trkpt>
      <trkpt lat="42.31887" lon="2.66713">
        <ele>929</ele>
        <time>2010-01-01T09:44:09Z</time>
      </trkpt>
      <trkpt lat="42.31887" lon="2.66731">
        <ele>929</ele>
        <time>2010-01-01T09:44:22Z</time>
      </trkpt>
      <trkpt lat="42.31888" lon="2.66733">
        <ele>929</ele>
        <time>2010-01-01T09:44:24Z</time>
      </trkpt>
      <trkpt lat="42.31887" lon="2.66744">
        <ele>929</ele>
        <time>2010-01-01T09:44:32Z</time>
      </trkpt>
      <trkpt lat="42.31889" lon="2.66748">
        <ele>928</ele>
        <time>2010-01-01T09:44:36Z</time>
      </trkpt>
      <trkpt lat="42.3189" lon="2.66764">
        <ele>928</ele>
        <time>2010-01-01T09:44:48Z</time>
      </trkpt>
      <trkpt lat="42.31887" lon="2.66771">
        <ele>928</ele>
        <time>2010-01-01T09:44:54Z</time>
      </trkpt>
      <trkpt lat="42.31887" lon="2.66787">
        <ele>929</ele>
        <time>2010-01-01T09:45:05Z</time>
      </trkpt>
      <trkpt lat="42.31887" lon="2.66796">
        <ele>931</ele>
        <time>2010-01-01T09:45:12Z</time>
      </trkpt>
      <trkpt lat="42.31882" lon="2.66802">
        <ele>933</ele>
        <time>2010-01-01T09:45:19Z</time>
      </trkpt>
      <trkpt lat="42.31878" lon="2.66819">
        <ele>935</ele>
        <time>2010-01-01T09:45:31Z</time>
      </trkpt>
      <trkpt lat="42.31879" lon="2.6683">
        <ele>936</ele>
        <time>2010-01-01T09:45:40Z</time>
      </trkpt>
      <trkpt lat="42.31875" lon="2.66838">
        <ele>938</ele>
        <time>2010-01-01T09:45:47Z</time>
      </trkpt>
      <trkpt lat="42.31874" lon="2.66847">
        <ele>939</ele>
        <time>2010-01-01T09:45:54Z</time>
      </trkpt>
      <trkpt lat="42.31872" lon="2.66853">
        <ele>940</ele>
        <time>2010-01-01T09:45:58Z</time>
      </trkpt>
      <trkpt lat="42.31869" lon="2.66868">
        <ele>942</ele>
        <time>2010-01-01T09:46:10Z</time>
      </trkpt>
      <trkpt lat="42.31864" lon="2.66868">
        <ele>943</ele>
        <time>2010-01-01T09:46:15Z</time>
      </trkpt>
      <trkpt lat="42.31858" lon="2.66857">
        <ele>942</ele>
        <time>2010-01-01T09:46:25Z</time>
      </trkpt>
      <trkpt lat="42.31858" lon="2.66854">
        <ele>942</ele>
        <time>2010-01-01T09:46:27Z</time>
      </trkpt>
      <trkpt lat="42.31862" lon="2.66845">
        <ele>942</ele>
        <time>2010-01-01T09:46:35Z</time>
      </trkpt>
      <trkpt lat="42.31865" lon="2.66843">
        <ele>941</ele>
        <time>2010-01-01T09:46:38Z</time>
      </trkpt>
      <trkpt lat="42.31865" lon="2.66838">
        <ele>941</ele>
        <time>2010-01-01T09:46:42Z</time>
      </trkpt>
      <trkpt lat="42.31865" lon="2.66844">
        <ele>941</ele>
        <time>2010-01-01T09:46:46Z</time>
      </trkpt>
      <trkpt lat="42.31859" lon="2.66857">
        <ele>942</ele>
        <time>2010-01-01T09:46:57Z</time>
      </trkpt>
      <trkpt lat="42.31859" lon="2.6686">
        <ele>943</ele>
        <time>2010-01-01T09:46:59Z</time>
      </trkpt>
      <trkpt lat="42.31865" lon="2.66865">
        <ele>943</ele>
        <time>2010-01-01T09:47:06Z</time>
      </trkpt>
      <trkpt lat="42.31869" lon="2.66874">
        <ele>943</ele>
        <time>2010-01-01T09:47:14Z</time>
      </trkpt>
      <trkpt lat="42.31872" lon="2.66874">
        <ele>942</ele>
        <time>2010-01-01T09:47:17Z</time>
      </trkpt>
      <trkpt lat="42.31873" lon="2.66878">
        <ele>942</ele>
        <time>2010-01-01T09:47:20Z</time>
      </trkpt>
      <trkpt lat="42.31874" lon="2.66886">
        <ele>943</ele>
        <time>2010-01-01T09:47:26Z</time>
      </trkpt>
      <trkpt lat="42.31878" lon="2.66905">
        <ele>943</ele>
        <time>2010-01-01T09:47:41Z</time>
      </trkpt>
      <trkpt lat="42.31887" lon="2.66917">
        <ele>941</ele>
        <time>2010-01-01T09:47:53Z</time>
      </trkpt>
      <trkpt lat="42.31894" lon="2.66924">
        <ele>937</ele>
        <time>2010-01-01T09:48:02Z</time>
      </trkpt>
      <trkpt lat="42.31897" lon="2.66931">
        <ele>935</ele>
        <time>2010-01-01T09:48:08Z</time>
      </trkpt>
      <trkpt lat="42.31897" lon="2.66947">
        <ele>935</ele>
        <time>2010-01-01T09:48:20Z</time>
      </trkpt>
      <trkpt lat="42.31898" lon="2.66956">
        <ele>935</ele>
        <time>2010-01-01T09:48:27Z</time>
      </trkpt>
      <trkpt lat="42.31897" lon="2.66971">
        <ele>936</ele>
        <time>2010-01-01T09:48:38Z</time>
      </trkpt>
      <trkpt lat="42.31894" lon="2.6697">
        <ele>937</ele>
        <time>2010-01-01T09:48:40Z</time>
      </trkpt>
      <trkpt lat="42.31894" lon="2.66973">
        <ele>938</ele>
        <time>2010-01-01T09:48:42Z</time>
      </trkpt>
      <trkpt lat="42.31895" lon="2.66993">
        <ele>937</ele>
        <time>2010-01-01T09:48:57Z</time>
      </trkpt>
      <trkpt lat="42.31896" lon="2.67">
        <ele>935</ele>
        <time>2010-01-01T09:49:02Z</time>
      </trkpt>
      <trkpt lat="42.31904" lon="2.67009">
        <ele>929</ele>
        <time>2010-01-01T09:49:13Z</time>
      </trkpt>
      <trkpt lat="42.31907" lon="2.67016">
        <ele>926</ele>
        <time>2010-01-01T09:49:18Z</time>
      </trkpt>
      <trkpt lat="42.31903" lon="2.67024">
        <ele>929</ele>
        <time>2010-01-01T09:49:26Z</time>
      </trkpt>
      <trkpt lat="42.31904" lon="2.67027">
        <ele>928</ele>
        <time>2010-01-01T09:49:28Z</time>
      </trkpt>
      <trkpt lat="42.31904" lon="2.67033">
        <ele>928</ele>
        <time>2010-01-01T09:49:33Z</time>
      </trkpt>
      <trkpt lat="42.319" lon="2.67053">
        <ele>928</ele>
        <time>2010-01-01T09:49:48Z</time>
      </trkpt>
      <trkpt lat="42.31899" lon="2.67069">
        <ele>926</ele>
        <time>2010-01-01T09:49:59Z</time>
      </trkpt>
      <trkpt lat="42.319" lon="2.6708">
        <ele>923</ele>
        <time>2010-01-01T09:50:08Z</time>
      </trkpt>
      <trkpt lat="42.319" lon="2.67081">
        <ele>922</ele>
        <time>2010-01-01T09:50:09Z</time>
      </trkpt>
      <trkpt lat="42.31903" lon="2.67097">
        <ele>918</ele>
        <time>2010-01-01T09:50:21Z</time>
      </trkpt>
      <trkpt lat="42.3191" lon="2.67113">
        <ele>915</ele>
        <time>2010-01-01T09:50:35Z</time>
      </trkpt>
      <trkpt lat="42.31909" lon="2.67118">
        <ele>914</ele>
        <time>2010-01-01T09:50:38Z</time>
      </trkpt>
      <trkpt lat="42.31903" lon="2.67125">
        <ele>914</ele>
        <time>2010-01-01T09:50:46Z</time>
      </trkpt>
      <trkpt lat="42.31902" lon="2.6713">
        <ele>913</ele>
        <time>2010-01-01T09:50:51Z</time>
      </trkpt>
      <trkpt lat="42.31902" lon="2.67135">
        <ele>912</ele>
        <time>2010-01-01T09:50:54Z</time>
      </trkpt>
      <trkpt lat="42.31905" lon="2.67135">
        <ele>912</ele>
        <time>2010-01-01T09:50:57Z</time>
      </trkpt>
      <trkpt lat="42.31913" lon="2.6714">
        <ele>911</ele>
        <time>2010-01-01T09:51:05Z</time>
      </trkpt>
      <trkpt lat="42.3192" lon="2.67136">
        <ele>909</ele>
        <time>2010-01-01T09:51:13Z</time>
      </trkpt>
      <trkpt lat="42.31922" lon="2.67156">
        <ele>909</ele>
        <time>2010-01-01T09:51:27Z</time>
      </trkpt>
      <trkpt lat="42.31923" lon="2.67159">
        <ele>909</ele>
        <time>2010-01-01T09:51:30Z</time>
      </trkpt>
      <trkpt lat="42.31928" lon="2.67176">
        <ele>908</ele>
        <time>2010-01-01T09:51:44Z</time>
      </trkpt>
      <trkpt lat="42.31929" lon="2.67182">
        <ele>909</ele>
        <time>2010-01-01T09:51:48Z</time>
      </trkpt>
      <trkpt lat="42.31928" lon="2.67186">
        <ele>910</ele>
        <time>2010-01-01T09:51:52Z</time>
      </trkpt>
      <trkpt lat="42.31927" lon="2.67194">
        <ele>911</ele>
        <time>2010-01-01T09:51:58Z</time>
      </trkpt>
      <trkpt lat="42.31929" lon="2.67204">
        <ele>912</ele>
        <time>2010-01-01T09:52:05Z</time>
      </trkpt>
      <trkpt lat="42.31935" lon="2.67218">
        <ele>914</ele>
        <time>2010-01-01T09:52:17Z</time>
      </trkpt>
      <trkpt lat="42.31936" lon="2.67225">
        <ele>915</ele>
        <time>2010-01-01T09:52:22Z</time>
      </trkpt>
      <trkpt lat="42.31935" lon="2.67236">
        <ele>916</ele>
        <time>2010-01-01T09:52:31Z</time>
      </trkpt>
      <trkpt lat="42.31939" lon="2.6726">
        <ele>915</ele>
        <time>2010-01-01T09:52:49Z</time>
      </trkpt>
      <trkpt lat="42.3194" lon="2.6727">
        <ele>914</ele>
        <time>2010-01-01T09:52:57Z</time>
      </trkpt>
      <trkpt lat="42.31944" lon="2.67285">
        <ele>912</ele>
        <time>2010-01-01T09:53:08Z</time>
      </trkpt>
      <trkpt lat="42.31944" lon="2.6729">
        <ele>911</ele>
        <time>2010-01-01T09:53:12Z</time>
      </trkpt>
      <trkpt lat="42.31948" lon="2.67307">
        <ele>906</ele>
        <time>2010-01-01T09:53:25Z</time>
      </trkpt>
      <trkpt lat="42.31951" lon="2.67313">
        <ele>906</ele>
        <time>2010-01-01T09:53:30Z</time>
      </trkpt>
      <trkpt lat="42.31952" lon="2.67331">
        <ele>905</ele>
        <time>2010-01-01T09:53:44Z</time>
      </trkpt>
      <trkpt lat="42.31954" lon="2.67336">
        <ele>904</ele>
        <time>2010-01-01T09:53:48Z</time>
      </trkpt>
      <trkpt lat="42.31952" lon="2.67346">
        <ele>903</ele>
        <time>2010-01-01T09:53:55Z</time>
      </trkpt>
      <trkpt lat="42.31954" lon="2.67353">
        <ele>903</ele>
        <time>2010-01-01T09:54:01Z</time>
      </trkpt>
      <trkpt lat="42.31954" lon="2.67357">
        <ele>903</ele>
        <time>2010-01-01T09:54:04Z</time>
      </trkpt>
      <trkpt lat="42.31959" lon="2.67363">
        <ele>903</ele>
        <time>2010-01-01T09:54:10Z</time>
      </trkpt>
      <trkpt lat="42.3196" lon="2.67367">
        <ele>902</ele>
        <time>2010-01-01T09:54:14Z</time>
      </trkpt>
      <trkpt lat="42.31962" lon="2.67385">
        <ele>899</ele>
        <time>2010-01-01T09:54:27Z</time>
      </trkpt>
      <trkpt lat="42.31964" lon="2.67404">
        <ele>899</ele>
        <time>2010-01-01T09:54:41Z</time>
      </trkpt>
      <trkpt lat="42.31965" lon="2.67421">
        <ele>897</ele>
        <time>2010-01-01T09:54:54Z</time>
      </trkpt>
      <trkpt lat="42.31968" lon="2.67429">
        <ele>896</ele>
        <time>2010-01-01T09:55:00Z</time>
      </trkpt>
      <trkpt lat="42.31968" lon="2.67432">
        <ele>895</ele>
        <time>2010-01-01T09:55:03Z</time>
      </trkpt>
      <trkpt lat="42.31969" lon="2.67451">
        <ele>890</ele>
        <time>2010-01-01T09:55:17Z</time>
      </trkpt>
      <trkpt lat="42.31967" lon="2.6746">
        <ele>888</ele>
        <time>2010-01-01T09:55:24Z</time>
      </trkpt>
      <trkpt lat="42.3197" lon="2.67484">
        <ele>886</ele>
        <time>2010-01-01T09:55:42Z</time>
      </trkpt>
      <trkpt lat="42.3197" lon="2.67488">
        <ele>885</ele>
        <time>2010-01-01T09:55:45Z</time>
      </trkpt>
      <trkpt lat="42.31973" lon="2.67498">
        <ele>886</ele>
        <time>2010-01-01T09:55:53Z</time>
      </trkpt>
      <trkpt lat="42.3197" lon="2.67504">
        <ele>884</ele>
        <time>2010-01-01T09:55:58Z</time>
      </trkpt>
      <trkpt lat="42.31971" lon="2.67503">
        <ele>885</ele>
        <time>2010-01-01T09:56:00Z</time>
      </trkpt>
      <trkpt lat="42.31974" lon="2.67524">
        <ele>884</ele>
        <time>2010-01-01T09:56:15Z</time>
      </trkpt>
      <trkpt lat="42.31974" lon="2.67526">
        <ele>884</ele>
        <time>2010-01-01T09:56:17Z</time>
      </trkpt>
      <trkpt lat="42.31977" lon="2.67548">
        <ele>885</ele>
        <time>2010-01-01T09:56:33Z</time>
      </trkpt>
      <trkpt lat="42.31977" lon="2.6755">
        <ele>885</ele>
        <time>2010-01-01T09:56:35Z</time>
      </trkpt>
      <trkpt lat="42.31978" lon="2.67561">
        <ele>885</ele>
        <time>2010-01-01T09:56:43Z</time>
      </trkpt>
      <trkpt lat="42.31984" lon="2.67572">
        <ele>886</ele>
        <time>2010-01-01T09:56:54Z</time>
      </trkpt>
      <trkpt lat="42.31988" lon="2.67589">
        <ele>887</ele>
        <time>2010-01-01T09:57:07Z</time>
      </trkpt>
      <trkpt lat="42.31985" lon="2.67616">
        <ele>891</ele>
        <time>2010-01-01T09:57:26Z</time>
      </trkpt>
      <trkpt lat="42.31988" lon="2.67616">
        <ele>891</ele>
        <time>2010-01-01T09:57:30Z</time>
      </trkpt>
      <trkpt lat="42.31991" lon="2.67616">
        <ele>892</ele>
        <time>2010-01-01T09:57:32Z</time>
      </trkpt>
      <trkpt lat="42.31995" lon="2.67609">
        <ele>893</ele>
        <time>2010-01-01T09:57:39Z</time>
      </trkpt>
      <trkpt lat="42.32002" lon="2.67608">
        <ele>892</ele>
        <time>2010-01-01T09:57:45Z</time>
      </trkpt>
      <trkpt lat="42.32001" lon="2.67604">
        <ele>892</ele>
        <time>2010-01-01T09:57:48Z</time>
      </trkpt>
      <trkpt lat="42.32" lon="2.67607">
        <ele>893</ele>
        <time>2010-01-01T09:57:51Z</time>
      </trkpt>
      <trkpt lat="42.32004" lon="2.67613">
        <ele>891</ele>
        <time>2010-01-01T09:57:56Z</time>
      </trkpt>
      <trkpt lat="42.32004" lon="2.67621">
        <ele>891</ele>
        <time>2010-01-01T09:58:02Z</time>
      </trkpt>
      <trkpt lat="42.32006" lon="2.67626">
        <ele>891</ele>
        <time>2010-01-01T09:58:07Z</time>
      </trkpt>
      <trkpt lat="42.3201" lon="2.6762">
        <ele>886</ele>
        <time>2010-01-01T09:58:13Z</time>
      </trkpt>
      <trkpt lat="42.32007" lon="2.67619">
        <ele>888</ele>
        <time>2010-01-01T09:58:15Z</time>
      </trkpt>
      <trkpt lat="42.32009" lon="2.67622">
        <ele>887</ele>
        <time>2010-01-01T09:58:18Z</time>
      </trkpt>
      <trkpt lat="42.32013" lon="2.67621">
        <ele>883</ele>
        <time>2010-01-01T09:58:22Z</time>
      </trkpt>
      <trkpt lat="42.3201" lon="2.67623">
        <ele>886</ele>
        <time>2010-01-01T09:58:25Z</time>
      </trkpt>
      <trkpt lat="42.32015" lon="2.67643">
        <ele>888</ele>
        <time>2010-01-01T09:58:40Z</time>
      </trkpt>
      <trkpt lat="42.32015" lon="2.67643">
        <ele>888</ele>
        <time>2010-01-01T09:58:40Z</time>
      </trkpt>
      <trkpt lat="42.32016" lon="2.6765">
        <ele>887</ele>
        <time>2010-01-01T09:58:46Z</time>
      </trkpt>
      <trkpt lat="42.32018" lon="2.6765">
        <ele>886</ele>
        <time>2010-01-01T09:58:48Z</time>
      </trkpt>
      <trkpt lat="42.32018" lon="2.67649">
        <ele>886</ele>
        <time>2010-01-01T09:58:49Z</time>
      </trkpt>
      <trkpt lat="42.32015" lon="2.67647">
        <ele>887</ele>
        <time>2010-01-01T09:58:52Z</time>
      </trkpt>
      <trkpt lat="42.32019" lon="2.67652">
        <ele>886</ele>
        <time>2010-01-01T09:58:57Z</time>
      </trkpt>
      <trkpt lat="42.32018" lon="2.6765">
        <ele>886</ele>
        <time>2010-01-01T09:58:59Z</time>
      </trkpt>
      <trkpt lat="42.32015" lon="2.67648">
        <ele>887</ele>
        <time>2010-01-01T09:59:01Z</time>
      </trkpt>
      <trkpt lat="42.32016" lon="2.67652">
        <ele>887</ele>
        <time>2010-01-01T09:59:04Z</time>
      </trkpt>
      <trkpt lat="42.32016" lon="2.6765">
        <ele>887</ele>
        <time>2010-01-01T09:59:06Z</time>
      </trkpt>
      <trkpt lat="42.32015" lon="2.67653">
        <ele>887</ele>
        <time>2010-01-01T09:59:09Z</time>
      </trkpt>
      <trkpt lat="42.32016" lon="2.67649">
        <ele>887</ele>
        <time>2010-01-01T09:59:12Z</time>
      </trkpt>
      <trkpt lat="42.32016" lon="2.6765">
        <ele>887</ele>
        <time>2010-01-01T09:59:13Z</time>
      </trkpt>
      <trkpt lat="42.32019" lon="2.67652">
        <ele>886</ele>
        <time>2010-01-01T09:59:16Z</time>
      </trkpt>
      <trkpt lat="42.32017" lon="2.67652">
        <ele>886</ele>
        <time>2010-01-01T09:59:18Z</time>
      </trkpt>
      <trkpt lat="42.32015" lon="2.67649">
        <ele>887</ele>
        <time>2010-01-01T09:59:20Z</time>
      </trkpt>
      <trkpt lat="42.32015" lon="2.67647">
        <ele>887</ele>
        <time>2010-01-01T09:59:21Z</time>
      </trkpt>
      <trkpt lat="42.32012" lon="2.67637">
        <ele>889</ele>
        <time>2010-01-01T09:59:29Z</time>
      </trkpt>
      <trkpt lat="42.32008" lon="2.67635">
        <ele>891</ele>
        <time>2010-01-01T09:59:34Z</time>
      </trkpt>
      <trkpt lat="42.32004" lon="2.67637">
        <ele>894</ele>
        <time>2010-01-01T09:59:38Z</time>
      </trkpt>
      <trkpt lat="42.31999" lon="2.67636">
        <ele>895</ele>
        <time>2010-01-01T09:59:43Z</time>
      </trkpt>
      <trkpt lat="42.31998" lon="2.67634">
        <ele>895</ele>
        <time>2010-01-01T09:59:45Z</time>
      </trkpt>
      <trkpt lat="42.3199" lon="2.67642">
        <ele>891</ele>
        <time>2010-01-01T09:59:55Z</time>
      </trkpt>
      <trkpt lat="42.31996" lon="2.6765">
        <ele>892</ele>
        <time>2010-01-01T10:00:03Z</time>
      </trkpt>
      <trkpt lat="42.31995" lon="2.67657">
        <ele>890</ele>
        <time>2010-01-01T10:00:08Z</time>
      </trkpt>
      <trkpt lat="42.31994" lon="2.67661">
        <ele>888</ele>
        <time>2010-01-01T10:00:12Z</time>
      </trkpt>
      <trkpt lat="42.31987" lon="2.67674">
        <ele>883</ele>
        <time>2010-01-01T10:00:23Z</time>
      </trkpt>
      <trkpt lat="42.31989" lon="2.67678">
        <ele>882</ele>
        <time>2010-01-01T10:00:27Z</time>
      </trkpt>
      <trkpt lat="42.31988" lon="2.67687">
        <ele>880</ele>
        <time>2010-01-01T10:00:34Z</time>
      </trkpt>
      <trkpt lat="42.31992" lon="2.67692">
        <ele>879</ele>
        <time>2010-01-01T10:00:39Z</time>
      </trkpt>
      <trkpt lat="42.31991" lon="2.67702">
        <ele>877</ele>
        <time>2010-01-01T10:00:46Z</time>
      </trkpt>
      <trkpt lat="42.31992" lon="2.67708">
        <ele>875</ele>
        <time>2010-01-01T10:00:51Z</time>
      </trkpt>
      <trkpt lat="42.31989" lon="2.67711">
        <ele>874</ele>
        <time>2010-01-01T10:00:55Z</time>
      </trkpt>
      <trkpt lat="42.3199" lon="2.67719">
        <ele>873</ele>
        <time>2010-01-01T10:01:01Z</time>
      </trkpt>
      <trkpt lat="42.31987" lon="2.67726">
        <ele>870</ele>
        <time>2010-01-01T10:01:07Z</time>
      </trkpt>
      <trkpt lat="42.31982" lon="2.6773">
        <ele>869</ele>
        <time>2010-01-01T10:01:12Z</time>
      </trkpt>
      <trkpt lat="42.31982" lon="2.67736">
        <ele>868</ele>
        <time>2010-01-01T10:01:17Z</time>
      </trkpt>
      <trkpt lat="42.31984" lon="2.67742">
        <ele>867</ele>
        <time>2010-01-01T10:01:21Z</time>
      </trkpt>
      <trkpt lat="42.31988" lon="2.67749">
        <ele>866</ele>
        <time>2010-01-01T10:01:28Z</time>
      </trkpt>
      <trkpt lat="42.31992" lon="2.67758">
        <ele>864</ele>
        <time>2010-01-01T10:01:36Z</time>
      </trkpt>
      <trkpt lat="42.31987" lon="2.6776">
        <ele>863</ele>
        <time>2010-01-01T10:01:41Z</time>
      </trkpt>
      <trkpt lat="42.31977" lon="2.67772">
        <ele>858</ele>
        <time>2010-01-01T10:01:55Z</time>
      </trkpt>
      <trkpt lat="42.3198" lon="2.67778">
        <ele>856</ele>
        <time>2010-01-01T10:02:01Z</time>
      </trkpt>
      <trkpt lat="42.31977" lon="2.67781">
        <ele>855</ele>
        <time>2010-01-01T10:02:04Z</time>
      </trkpt>
      <trkpt lat="42.31979" lon="2.67785">
        <ele>854</ele>
        <time>2010-01-01T10:02:07Z</time>
      </trkpt>
      <trkpt lat="42.31976" lon="2.67792">
        <ele>850</ele>
        <time>2010-01-01T10:02:13Z</time>
      </trkpt>
      <trkpt lat="42.31977" lon="2.67795">
        <ele>849</ele>
        <time>2010-01-01T10:02:16Z</time>
      </trkpt>
      <trkpt lat="42.31968" lon="2.67802">
        <ele>845</ele>
        <time>2010-01-01T10:02:26Z</time>
      </trkpt>
      <trkpt lat="42.31972" lon="2.67808">
        <ele>844</ele>
        <time>2010-01-01T10:02:32Z</time>
      </trkpt>
      <trkpt lat="42.31971" lon="2.6781">
        <ele>843</ele>
        <time>2010-01-01T10:02:34Z</time>
      </trkpt>
      <trkpt lat="42.31973" lon="2.67812">
        <ele>843</ele>
        <time>2010-01-01T10:02:36Z</time>
      </trkpt>
      <trkpt lat="42.31972" lon="2.67813">
        <ele>842</ele>
        <time>2010-01-01T10:02:38Z</time>
      </trkpt>
      <trkpt lat="42.31968" lon="2.67826">
        <ele>838</ele>
        <time>2010-01-01T10:02:48Z</time>
      </trkpt>
      <trkpt lat="42.31972" lon="2.67831">
        <ele>837</ele>
        <time>2010-01-01T10:02:54Z</time>
      </trkpt>
      <trkpt lat="42.31969" lon="2.67834">
        <ele>835</ele>
        <time>2010-01-01T10:02:58Z</time>
      </trkpt>
      <trkpt lat="42.31971" lon="2.67846">
        <ele>831</ele>
        <time>2010-01-01T10:03:08Z</time>
      </trkpt>
      <trkpt lat="42.31968" lon="2.67846">
        <ele>830</ele>
        <time>2010-01-01T10:03:10Z</time>
      </trkpt>
      <trkpt lat="42.31966" lon="2.67847">
        <ele>829</ele>
        <time>2010-01-01T10:03:13Z</time>
      </trkpt>
      <trkpt lat="42.3197" lon="2.67854">
        <ele>827</ele>
        <time>2010-01-01T10:03:20Z</time>
      </trkpt>
      <trkpt lat="42.31964" lon="2.67865">
        <ele>821</ele>
        <time>2010-01-01T10:03:30Z</time>
      </trkpt>
      <trkpt lat="42.31976" lon="2.67876">
        <ele>819</ele>
        <time>2010-01-01T10:03:45Z</time>
      </trkpt>
      <trkpt lat="42.31978" lon="2.67884">
        <ele>816</ele>
        <time>2010-01-01T10:03:51Z</time>
      </trkpt>
      <trkpt lat="42.31986" lon="2.67895">
        <ele>812</ele>
        <time>2010-01-01T10:04:03Z</time>
      </trkpt>
      <trkpt lat="42.31991" lon="2.67899">
        <ele>811</ele>
        <time>2010-01-01T10:04:09Z</time>
      </trkpt>
      <trkpt lat="42.31988" lon="2.67906">
        <ele>809</ele>
        <time>2010-01-01T10:04:14Z</time>
      </trkpt>
      <trkpt lat="42.31992" lon="2.67911">
        <ele>807</ele>
        <time>2010-01-01T10:04:19Z</time>
      </trkpt>
      <trkpt lat="42.32" lon="2.67911">
        <ele>807</ele>
        <time>2010-01-01T10:04:28Z</time>
      </trkpt>
      <trkpt lat="42.32011" lon="2.67917">
        <ele>804</ele>
        <time>2010-01-01T10:04:40Z</time>
      </trkpt>
      <trkpt lat="42.32018" lon="2.67916">
        <ele>803</ele>
        <time>2010-01-01T10:04:47Z</time>
      </trkpt>
      <trkpt lat="42.32017" lon="2.67912">
        <ele>804</ele>
        <time>2010-01-01T10:04:50Z</time>
      </trkpt>
      <trkpt lat="42.32022" lon="2.67905">
        <ele>806</ele>
        <time>2010-01-01T10:04:58Z</time>
      </trkpt>
      <trkpt lat="42.32025" lon="2.67907">
        <ele>805</ele>
        <time>2010-01-01T10:05:01Z</time>
      </trkpt>
      <trkpt lat="42.32032" lon="2.67908">
        <ele>803</ele>
        <time>2010-01-01T10:05:08Z</time>
      </trkpt>
      <trkpt lat="42.32039" lon="2.67911">
        <ele>800</ele>
        <time>2010-01-01T10:05:15Z</time>
      </trkpt>
      <trkpt lat="42.32041" lon="2.67918">
        <ele>798</ele>
        <time>2010-01-01T10:05:20Z</time>
      </trkpt>
      <trkpt lat="42.32039" lon="2.67936">
        <ele>792</ele>
        <time>2010-01-01T10:05:34Z</time>
      </trkpt>
      <trkpt lat="42.3204" lon="2.67942">
        <ele>790</ele>
        <time>2010-01-01T10:05:39Z</time>
      </trkpt>
      <trkpt lat="42.32035" lon="2.67961">
        <ele>784</ele>
        <time>2010-01-01T10:05:53Z</time>
      </trkpt>
      <trkpt lat="42.32036" lon="2.67968">
        <ele>782</ele>
        <time>2010-01-01T10:05:59Z</time>
      </trkpt>
      <trkpt lat="42.32036" lon="2.67971">
        <ele>781</ele>
        <time>2010-01-01T10:06:01Z</time>
      </trkpt>
      <trkpt lat="42.32039" lon="2.67976">
        <ele>779</ele>
        <time>2010-01-01T10:06:05Z</time>
      </trkpt>
      <trkpt lat="42.32037" lon="2.67986">
        <ele>776</ele>
        <time>2010-01-01T10:06:13Z</time>
      </trkpt>
      <trkpt lat="42.32033" lon="2.67994">
        <ele>774</ele>
        <time>2010-01-01T10:06:20Z</time>
      </trkpt>
      <trkpt lat="42.32024" lon="2.68007">
        <ele>771</ele>
        <time>2010-01-01T10:06:33Z</time>
      </trkpt>
      <trkpt lat="42.32023" lon="2.6801">
        <ele>770</ele>
        <time>2010-01-01T10:06:36Z</time>
      </trkpt>
      <trkpt lat="42.32018" lon="2.68016">
        <ele>769</ele>
        <time>2010-01-01T10:06:42Z</time>
      </trkpt>
      <trkpt lat="42.32014" lon="2.68022">
        <ele>767</ele>
        <time>2010-01-01T10:06:48Z</time>
      </trkpt>
      <trkpt lat="42.32009" lon="2.68027">
        <ele>766</ele>
        <time>2010-01-01T10:06:54Z</time>
      </trkpt>
      <trkpt lat="42.32005" lon="2.68034">
        <ele>764</ele>
        <time>2010-01-01T10:07:01Z</time>
      </trkpt>
      <trkpt lat="42.32001" lon="2.68036">
        <ele>763</ele>
        <time>2010-01-01T10:07:06Z</time>
      </trkpt>
      <trkpt lat="42.31998" lon="2.6804">
        <ele>762</ele>
        <time>2010-01-01T10:07:10Z</time>
      </trkpt>
      <trkpt lat="42.31991" lon="2.68042">
        <ele>761</ele>
        <time>2010-01-01T10:07:16Z</time>
      </trkpt>
      <trkpt lat="42.31981" lon="2.68052">
        <ele>758</ele>
        <time>2010-01-01T10:07:29Z</time>
      </trkpt>
      <trkpt lat="42.31975" lon="2.68064">
        <ele>754</ele>
        <time>2010-01-01T10:07:40Z</time>
      </trkpt>
      <trkpt lat="42.31977" lon="2.68072">
        <ele>751</ele>
        <time>2010-01-01T10:07:46Z</time>
      </trkpt>
      <trkpt lat="42.31974" lon="2.68084">
        <ele>747</ele>
        <time>2010-01-01T10:07:56Z</time>
      </trkpt>
      <trkpt lat="42.31977" lon="2.68084">
        <ele>747</ele>
        <time>2010-01-01T10:07:59Z</time>
      </trkpt>
      <trkpt lat="42.31991" lon="2.68082">
        <ele>748</ele>
        <time>2010-01-01T10:08:13Z</time>
      </trkpt>
      <trkpt lat="42.31995" lon="2.6808">
        <ele>749</ele>
        <time>2010-01-01T10:08:17Z</time>
      </trkpt>
      <trkpt lat="42.32" lon="2.68081">
        <ele>749</ele>
        <time>2010-01-01T10:08:22Z</time>
      </trkpt>
      <trkpt lat="42.32005" lon="2.68084">
        <ele>748</ele>
        <time>2010-01-01T10:08:27Z</time>
      </trkpt>
      <trkpt lat="42.3201" lon="2.68084">
        <ele>747</ele>
        <time>2010-01-01T10:08:33Z</time>
      </trkpt>
      <trkpt lat="42.32013" lon="2.68085">
        <ele>746</ele>
        <time>2010-01-01T10:08:36Z</time>
      </trkpt>
      <trkpt lat="42.3201" lon="2.68089">
        <ele>745</ele>
        <time>2010-01-01T10:08:41Z</time>
      </trkpt>
      <trkpt lat="42.32009" lon="2.68094">
        <ele>744</ele>
        <time>2010-01-01T10:08:44Z</time>
      </trkpt>
      <trkpt lat="42.32012" lon="2.68111">
        <ele>738</ele>
        <time>2010-01-01T10:08:57Z</time>
      </trkpt>
      <trkpt lat="42.32014" lon="2.68115">
        <ele>737</ele>
        <time>2010-01-01T10:09:01Z</time>
      </trkpt>
      <trkpt lat="42.32009" lon="2.68127">
        <ele>733</ele>
        <time>2010-01-01T10:09:10Z</time>
      </trkpt>
      <trkpt lat="42.32007" lon="2.68135">
        <ele>731</ele>
        <time>2010-01-01T10:09:16Z</time>
      </trkpt>
      <trkpt lat="42.32009" lon="2.68139">
        <ele>730</ele>
        <time>2010-01-01T10:09:20Z</time>
      </trkpt>
      <trkpt lat="42.32007" lon="2.68145">
        <ele>728</ele>
        <time>2010-01-01T10:09:25Z</time>
      </trkpt>
      <trkpt lat="42.32009" lon="2.68146">
        <ele>727</ele>
        <time>2010-01-01T10:09:27Z</time>
      </trkpt>
      <trkpt lat="42.32007" lon="2.68149">
        <ele>726</ele>
        <time>2010-01-01T10:09:31Z</time>
      </trkpt>
      <trkpt lat="42.32007" lon="2.68159">
        <ele>722</ele>
        <time>2010-01-01T10:09:38Z</time>
      </trkpt>
      <trkpt lat="42.32003" lon="2.68166">
        <ele>720</ele>
        <time>2010-01-01T10:09:44Z</time>
      </trkpt>
      <trkpt lat="42.32001" lon="2.68173">
        <ele>718</ele>
        <time>2010-01-01T10:09:50Z</time>
      </trkpt>
      <trkpt lat="42.32003" lon="2.68178">
        <ele>716</ele>
        <time>2010-01-01T10:09:54Z</time>
      </trkpt>
      <trkpt lat="42.31999" lon="2.68186">
        <ele>713</ele>
        <time>2010-01-01T10:10:01Z</time>
      </trkpt>
      <trkpt lat="42.31998" lon="2.68191">
        <ele>712</ele>
        <time>2010-01-01T10:10:05Z</time>
      </trkpt>
      <trkpt lat="42.31993" lon="2.68204">
        <ele>707</ele>
        <time>2010-01-01T10:10:15Z</time>
      </trkpt>
      <trkpt lat="42.31989" lon="2.68208">
        <ele>705</ele>
        <time>2010-01-01T10:10:21Z</time>
      </trkpt>
      <trkpt lat="42.31985" lon="2.68215">
        <ele>702</ele>
        <time>2010-01-01T10:10:28Z</time>
      </trkpt>
      <trkpt lat="42.31981" lon="2.68217">
        <ele>701</ele>
        <time>2010-01-01T10:10:31Z</time>
      </trkpt>
      <trkpt lat="42.31974" lon="2.68234">
        <ele>697</ele>
        <time>2010-01-01T10:10:46Z</time>
      </trkpt>
      <trkpt lat="42.31978" lon="2.68249">
        <ele>695</ele>
        <time>2010-01-01T10:10:57Z</time>
      </trkpt>
      <trkpt lat="42.31972" lon="2.68254">
        <ele>694</ele>
        <time>2010-01-01T10:11:04Z</time>
      </trkpt>
      <trkpt lat="42.31973" lon="2.68258">
        <ele>692</ele>
        <time>2010-01-01T10:11:07Z</time>
      </trkpt>
      <trkpt lat="42.31964" lon="2.68271">
        <ele>686</ele>
        <time>2010-01-01T10:11:20Z</time>
      </trkpt>
      <trkpt lat="42.31963" lon="2.68276">
        <ele>684</ele>
        <time>2010-01-01T10:11:24Z</time>
      </trkpt>
      <trkpt lat="42.31962" lon="2.68288">
        <ele>680</ele>
        <time>2010-01-01T10:11:33Z</time>
      </trkpt>
      <trkpt lat="42.31964" lon="2.68296">
        <ele>678</ele>
        <time>2010-01-01T10:11:39Z</time>
      </trkpt>
      <trkpt lat="42.3197" lon="2.68306">
        <ele>677</ele>
        <time>2010-01-01T10:11:48Z</time>
      </trkpt>
      <trkpt lat="42.3197" lon="2.68312">
        <ele>675</ele>
        <time>2010-01-01T10:11:53Z</time>
      </trkpt>
      <trkpt lat="42.31975" lon="2.6832">
        <ele>674</ele>
        <time>2010-01-01T10:12:00Z</time>
      </trkpt>
      <trkpt lat="42.31975" lon="2.68332">
        <ele>671</ele>
        <time>2010-01-01T10:12:09Z</time>
      </trkpt>
      <trkpt lat="42.31978" lon="2.68343">
        <ele>669</ele>
        <time>2010-01-01T10:12:18Z</time>
      </trkpt>
      <trkpt lat="42.31976" lon="2.68336">
        <ele>670</ele>
        <time>2010-01-01T10:12:23Z</time>
      </trkpt>
      <trkpt lat="42.31979" lon="2.68341">
        <ele>669</ele>
        <time>2010-01-01T10:12:27Z</time>
      </trkpt>
      <trkpt lat="42.31986" lon="2.68339">
        <ele>670</ele>
        <time>2010-01-01T10:12:34Z</time>
      </trkpt>
      <trkpt lat="42.31997" lon="2.68324">
        <ele>673</ele>
        <time>2010-01-01T10:12:49Z</time>
      </trkpt>
      <trkpt lat="42.32001" lon="2.68322">
        <ele>673</ele>
        <time>2010-01-01T10:12:54Z</time>
      </trkpt>
      <trkpt lat="42.32017" lon="2.6831">
        <ele>673</ele>
        <time>2010-01-01T10:13:12Z</time>
      </trkpt>
      <trkpt lat="42.32019" lon="2.68309">
        <ele>672</ele>
        <time>2010-01-01T10:13:14Z</time>
      </trkpt>
      <trkpt lat="42.32048" lon="2.68287">
        <ele>675</ele>
        <time>2010-01-01T10:13:47Z</time>
      </trkpt>
      <trkpt lat="42.32052" lon="2.68283">
        <ele>676</ele>
        <time>2010-01-01T10:13:52Z</time>
      </trkpt>
      <trkpt lat="42.3207" lon="2.68268">
        <ele>679</ele>
        <time>2010-01-01T10:14:13Z</time>
      </trkpt>
      <trkpt lat="42.32098" lon="2.68257">
        <ele>683</ele>
        <time>2010-01-01T10:14:43Z</time>
      </trkpt>
      <trkpt lat="42.32128" lon="2.68259">
        <ele>679</ele>
        <time>2010-01-01T10:15:13Z</time>
      </trkpt>
      <trkpt lat="42.32135" lon="2.68263">
        <ele>677</ele>
        <time>2010-01-01T10:15:20Z</time>
      </trkpt>
      <trkpt lat="42.32131" lon="2.68257">
        <ele>680</ele>
        <time>2010-01-01T10:15:25Z</time>
      </trkpt>
      <trkpt lat="42.32128" lon="2.68256">
        <ele>681</ele>
        <time>2010-01-01T10:15:28Z</time>
      </trkpt>
      <trkpt lat="42.32129" lon="2.68255">
        <ele>681</ele>
        <time>2010-01-01T10:15:30Z</time>
      </trkpt>
      <trkpt lat="42.32131" lon="2.68261">
        <ele>678</ele>
        <time>2010-01-01T10:15:34Z</time>
      </trkpt>
      <trkpt lat="42.32137" lon="2.68263">
        <ele>677</ele>
        <time>2010-01-01T10:15:40Z</time>
      </trkpt>
      <trkpt lat="42.32123" lon="2.68264">
        <ele>678</ele>
        <time>2010-01-01T10:15:54Z</time>
      </trkpt>
      <trkpt lat="42.32113" lon="2.68259">
        <ele>682</ele>
        <time>2010-01-01T10:16:05Z</time>
      </trkpt>
      <trkpt lat="42.32104" lon="2.68259">
        <ele>682</ele>
        <time>2010-01-01T10:16:14Z</time>
      </trkpt>
      <trkpt lat="42.32092" lon="2.68257">
        <ele>683</ele>
        <time>2010-01-01T10:16:26Z</time>
      </trkpt>
      <trkpt lat="42.32085" lon="2.6826">
        <ele>682</ele>
        <time>2010-01-01T10:16:33Z</time>
      </trkpt>
      <trkpt lat="42.32086" lon="2.6826">
        <ele>681</ele>
        <time>2010-01-01T10:16:34Z</time>
      </trkpt>
      <trkpt lat="42.32086" lon="2.68261">
        <ele>681</ele>
        <time>2010-01-01T10:16:34Z</time>
      </trkpt>
      <trkpt lat="42.32087" lon="2.68259">
        <ele>682</ele>
        <time>2010-01-01T10:16:36Z</time>
      </trkpt>
      <trkpt lat="42.32094" lon="2.68259">
        <ele>682</ele>
        <time>2010-01-01T10:16:43Z</time>
      </trkpt>
      <trkpt lat="42.32099" lon="2.68256">
        <ele>683</ele>
        <time>2010-01-01T10:16:48Z</time>
      </trkpt>
      <trkpt lat="42.32102" lon="2.68255">
        <ele>684</ele>
        <time>2010-01-01T10:16:51Z</time>
      </trkpt>
      <trkpt lat="42.32101" lon="2.68257">
        <ele>683</ele>
        <time>2010-01-01T10:16:53Z</time>
      </trkpt>
      <trkpt lat="42.32107" lon="2.68258">
        <ele>683</ele>
        <time>2010-01-01T10:16:59Z</time>
      </trkpt>
      <trkpt lat="42.32102" lon="2.68257">
        <ele>683</ele>
        <time>2010-01-01T10:17:04Z</time>
      </trkpt>
      <trkpt lat="42.32102" lon="2.68259">
        <ele>682</ele>
        <time>2010-01-01T10:17:06Z</time>
      </trkpt>
      <trkpt lat="42.32088" lon="2.6826">
        <ele>682</ele>
        <time>2010-01-01T10:17:20Z</time>
      </trkpt>
      <trkpt lat="42.32087" lon="2.68261">
        <ele>681</ele>
        <time>2010-01-01T10:17:21Z</time>
      </trkpt>
      <trkpt lat="42.32084" lon="2.68264">
        <ele>680</ele>
        <time>2010-01-01T10:17:25Z</time>
      </trkpt>
      <trkpt lat="42.32065" lon="2.6827">
        <ele>679</ele>
        <time>2010-01-01T10:17:44Z</time>
      </trkpt>
      <trkpt lat="42.32059" lon="2.68274">
        <ele>678</ele>
        <time>2010-01-01T10:17:51Z</time>
      </trkpt>
      <trkpt lat="42.32053" lon="2.68285">
        <ele>676</ele>
        <time>2010-01-01T10:18:01Z</time>
      </trkpt>
      <trkpt lat="42.3205" lon="2.68283">
        <ele>677</ele>
        <time>2010-01-01T10:18:04Z</time>
      </trkpt>
      <trkpt lat="42.32053" lon="2.68281">
        <ele>677</ele>
        <time>2010-01-01T10:18:07Z</time>
      </trkpt>
      <trkpt lat="42.32057" lon="2.68276">
        <ele>678</ele>
        <time>2010-01-01T10:18:13Z</time>
      </trkpt>
      <trkpt lat="42.32063" lon="2.68271">
        <ele>679</ele>
        <time>2010-01-01T10:18:20Z</time>
      </trkpt>
      <trkpt lat="42.32066" lon="2.68266">
        <ele>680</ele>
        <time>2010-01-01T10:18:24Z</time>
      </trkpt>
      <trkpt lat="42.32072" lon="2.68262">
        <ele>682</ele>
        <time>2010-01-01T10:18:31Z</time>
      </trkpt>
      <trkpt lat="42.32075" lon="2.68262">
        <ele>681</ele>
        <time>2010-01-01T10:18:34Z</time>
      </trkpt>
      <trkpt lat="42.32093" lon="2.68255">
        <ele>684</ele>
        <time>2010-01-01T10:18:54Z</time>
      </trkpt>
      <trkpt lat="42.32101" lon="2.68254">
        <ele>684</ele>
        <time>2010-01-01T10:19:01Z</time>
      </trkpt>
      <trkpt lat="42.32104" lon="2.68255">
        <ele>684</ele>
        <time>2010-01-01T10:19:05Z</time>
      </trkpt>
      <trkpt lat="42.3211" lon="2.68255">
        <ele>684</ele>
        <time>2010-01-01T10:19:10Z</time>
      </trkpt>
      <trkpt lat="42.32117" lon="2.68257">
        <ele>682</ele>
        <time>2010-01-01T10:19:17Z</time>
      </trkpt>
      <trkpt lat="42.32121" lon="2.68256">
        <ele>682</ele>
        <time>2010-01-01T10:19:21Z</time>
      </trkpt>
      <trkpt lat="42.32128" lon="2.68262">
        <ele>678</ele>
        <time>2010-01-01T10:19:30Z</time>
      </trkpt>
      <trkpt lat="42.32147" lon="2.68263">
        <ele>675</ele>
        <time>2010-01-01T10:19:49Z</time>
      </trkpt>
      <trkpt lat="42.32192" lon="2.68242">
        <ele>674</ele>
        <time>2010-01-01T10:20:36Z</time>
      </trkpt>
      <trkpt lat="42.32195" lon="2.68239">
        <ele>675</ele>
        <time>2010-01-01T10:20:40Z</time>
      </trkpt>
      <trkpt lat="42.32201" lon="2.68236">
        <ele>675</ele>
        <time>2010-01-01T10:20:47Z</time>
      </trkpt>
      <trkpt lat="42.32247" lon="2.68201">
        <ele>674</ele>
        <time>2010-01-01T10:21:40Z</time>
      </trkpt>
      <trkpt lat="42.32256" lon="2.68189">
        <ele>671</ele>
        <time>2010-01-01T10:21:52Z</time>
      </trkpt>
      <trkpt lat="42.3226" lon="2.68177">
        <ele>668</ele>
        <time>2010-01-01T10:22:02Z</time>
      </trkpt>
      <trkpt lat="42.32261" lon="2.68171">
        <ele>667</ele>
        <time>2010-01-01T10:22:06Z</time>
      </trkpt>
      <trkpt lat="42.32255" lon="2.68146">
        <ele>666</ele>
        <time>2010-01-01T10:22:26Z</time>
      </trkpt>
      <trkpt lat="42.32249" lon="2.6813">
        <ele>666</ele>
        <time>2010-01-01T10:22:39Z</time>
      </trkpt>
      <trkpt lat="42.32244" lon="2.6812">
        <ele>667</ele>
        <time>2010-01-01T10:22:48Z</time>
      </trkpt>
      <trkpt lat="42.32239" lon="2.68115">
        <ele>668</ele>
        <time>2010-01-01T10:22:55Z</time>
      </trkpt>
      <trkpt lat="42.32232" lon="2.68099">
        <ele>669</ele>
        <time>2010-01-01T10:23:09Z</time>
      </trkpt>
      <trkpt lat="42.32229" lon="2.68096">
        <ele>670</ele>
        <time>2010-01-01T10:23:12Z</time>
      </trkpt>
      <trkpt lat="42.32227" lon="2.6809">
        <ele>670</ele>
        <time>2010-01-01T10:23:17Z</time>
      </trkpt>
      <trkpt lat="42.32214" lon="2.68066">
        <ele>674</ele>
        <time>2010-01-01T10:23:39Z</time>
      </trkpt>
      <trkpt lat="42.32208" lon="2.68053">
        <ele>675</ele>
        <time>2010-01-01T10:23:50Z</time>
      </trkpt>
      <trkpt lat="42.3221" lon="2.68045">
        <ele>674</ele>
        <time>2010-01-01T10:23:56Z</time>
      </trkpt>
      <trkpt lat="42.32209" lon="2.68039">
        <ele>675</ele>
        <time>2010-01-01T10:24:01Z</time>
      </trkpt>
      <trkpt lat="42.32212" lon="2.68035">
        <ele>673</ele>
        <time>2010-01-01T10:24:05Z</time>
      </trkpt>
      <trkpt lat="42.32214" lon="2.6803">
        <ele>673</ele>
        <time>2010-01-01T10:24:09Z</time>
      </trkpt>
      <trkpt lat="42.32217" lon="2.68006">
        <ele>676</ele>
        <time>2010-01-01T10:24:27Z</time>
      </trkpt>
      <trkpt lat="42.32232" lon="2.67989">
        <ele>678</ele>
        <time>2010-01-01T10:24:46Z</time>
      </trkpt>
      <trkpt lat="42.32242" lon="2.67983">
        <ele>679</ele>
        <time>2010-01-01T10:24:58Z</time>
      </trkpt>
      <trkpt lat="42.32253" lon="2.67983">
        <ele>678</ele>
        <time>2010-01-01T10:25:08Z</time>
      </trkpt>
      <trkpt lat="42.3227" lon="2.67977">
        <ele>676</ele>
        <time>2010-01-01T10:25:26Z</time>
      </trkpt>
      <trkpt lat="42.32279" lon="2.67969">
        <ele>677</ele>
        <time>2010-01-01T10:25:37Z</time>
      </trkpt>
      <trkpt lat="42.32295" lon="2.67963">
        <ele>676</ele>
        <time>2010-01-01T10:25:53Z</time>
      </trkpt>
      <trkpt lat="42.323" lon="2.67962">
        <ele>675</ele>
        <time>2010-01-01T10:25:59Z</time>
      </trkpt>
      <trkpt lat="42.32314" lon="2.67955">
        <ele>673</ele>
        <time>2010-01-01T10:26:14Z</time>
      </trkpt>
      <trkpt lat="42.32326" lon="2.67945">
        <ele>672</ele>
        <time>2010-01-01T10:26:28Z</time>
      </trkpt>
      <trkpt lat="42.32357" lon="2.67935">
        <ele>663</ele>
        <time>2010-01-01T10:27:00Z</time>
      </trkpt>
      <trkpt lat="42.3237" lon="2.67936">
        <ele>658</ele>
        <time>2010-01-01T10:27:13Z</time>
      </trkpt>
      <trkpt lat="42.32377" lon="2.67932">
        <ele>657</ele>
        <time>2010-01-01T10:27:20Z</time>
      </trkpt>
      <trkpt lat="42.32385" lon="2.6792">
        <ele>657</ele>
        <time>2010-01-01T10:27:33Z</time>
      </trkpt>
      <trkpt lat="42.32387" lon="2.67909">
        <ele>657</ele>
        <time>2010-01-01T10:27:41Z</time>
      </trkpt>
      <trkpt lat="42.32387" lon="2.67894">
        <ele>660</ele>
        <time>2010-01-01T10:27:52Z</time>
      </trkpt>
      <trkpt lat="42.32386" lon="2.6789">
        <ele>661</ele>
        <time>2010-01-01T10:27:55Z</time>
      </trkpt>
      <trkpt lat="42.32386" lon="2.67882">
        <ele>663</ele>
        <time>2010-01-01T10:28:01Z</time>
      </trkpt>
      <trkpt lat="42.32384" lon="2.67878">
        <ele>664</ele>
        <time>2010-01-01T10:28:05Z</time>
      </trkpt>
      <trkpt lat="42.32383" lon="2.67866">
        <ele>667</ele>
        <time>2010-01-01T10:28:14Z</time>
      </trkpt>
      <trkpt lat="42.32387" lon="2.67851">
        <ele>667</ele>
        <time>2010-01-01T10:28:25Z</time>
      </trkpt>
      <trkpt lat="42.3239" lon="2.67843">
        <ele>666</ele>
        <time>2010-01-01T10:28:32Z</time>
      </trkpt>
      <trkpt lat="42.3239" lon="2.6784">
        <ele>667</ele>
        <time>2010-01-01T10:28:34Z</time>
      </trkpt>
      <trkpt lat="42.32394" lon="2.67834">
        <ele>665</ele>
        <time>2010-01-01T10:28:40Z</time>
      </trkpt>
      <trkpt lat="42.32401" lon="2.6782">
        <ele>664</ele>
        <time>2010-01-01T10:28:53Z</time>
      </trkpt>
      <trkpt lat="42.32401" lon="2.67814">
        <ele>665</ele>
        <time>2010-01-01T10:28:57Z</time>
      </trkpt>
      <trkpt lat="42.32399" lon="2.67807">
        <ele>667</ele>
        <time>2010-01-01T10:29:03Z</time>
      </trkpt>
      <trkpt lat="42.32403" lon="2.67801">
        <ele>665</ele>
        <time>2010-01-01T10:29:09Z</time>
      </trkpt>
      <trkpt lat="42.32403" lon="2.67795">
        <ele>665</ele>
        <time>2010-01-01T10:29:13Z</time>
      </trkpt>
      <trkpt lat="42.32401" lon="2.67796">
        <ele>666</ele>
        <time>2010-01-01T10:29:16Z</time>
      </trkpt>
      <trkpt lat="42.32402" lon="2.67792">
        <ele>665</ele>
        <time>2010-01-01T10:29:19Z</time>
      </trkpt>
      <trkpt lat="42.32408" lon="2.67789">
        <ele>663</ele>
        <time>2010-01-01T10:29:25Z</time>
      </trkpt>
      <trkpt lat="42.32411" lon="2.67785">
        <ele>662</ele>
        <time>2010-01-01T10:29:30Z</time>
      </trkpt>
      <trkpt lat="42.32413" lon="2.67778">
        <ele>662</ele>
        <time>2010-01-01T10:29:35Z</time>
      </trkpt>
      <trkpt lat="42.32414" lon="2.67778">
        <ele>661</ele>
        <time>2010-01-01T10:29:36Z</time>
      </trkpt>
      <trkpt lat="42.32427" lon="2.67769">
        <ele>658</ele>
        <time>2010-01-01T10:29:51Z</time>
      </trkpt>
      <trkpt lat="42.32432" lon="2.6776">
        <ele>657</ele>
        <time>2010-01-01T10:29:59Z</time>
      </trkpt>
      <trkpt lat="42.32428" lon="2.6775">
        <ele>657</ele>
        <time>2010-01-01T10:30:08Z</time>
      </trkpt>
      <trkpt lat="42.32419" lon="2.6774">
        <ele>656</ele>
        <time>2010-01-01T10:30:19Z</time>
      </trkpt>
      <trkpt lat="42.32407" lon="2.67735">
        <ele>657</ele>
        <time>2010-01-01T10:30:32Z</time>
      </trkpt>
      <trkpt lat="42.32402" lon="2.67729">
        <ele>657</ele>
        <time>2010-01-01T10:30:39Z</time>
      </trkpt>
      <trkpt lat="42.32401" lon="2.67726">
        <ele>656</ele>
        <time>2010-01-01T10:30:41Z</time>
      </trkpt>
      <trkpt lat="42.32396" lon="2.67719">
        <ele>655</ele>
        <time>2010-01-01T10:30:49Z</time>
      </trkpt>
      <trkpt lat="42.32384" lon="2.6771">
        <ele>656</ele>
        <time>2010-01-01T10:31:02Z</time>
      </trkpt>
      <trkpt lat="42.32377" lon="2.67703">
        <ele>656</ele>
        <time>2010-01-01T10:31:11Z</time>
      </trkpt>
      <trkpt lat="42.3238" lon="2.67698">
        <ele>654</ele>
        <time>2010-01-01T10:31:15Z</time>
      </trkpt>
      <trkpt lat="42.32382" lon="2.67697">
        <ele>653</ele>
        <time>2010-01-01T10:31:18Z</time>
      </trkpt>
      <trkpt lat="42.32395" lon="2.67707">
        <ele>653</ele>
        <time>2010-01-01T10:31:33Z</time>
      </trkpt>
      <trkpt lat="42.32399" lon="2.67709">
        <ele>653</ele>
        <time>2010-01-01T10:31:37Z</time>
      </trkpt>
      <trkpt lat="42.32407" lon="2.67707">
        <ele>651</ele>
        <time>2010-01-01T10:31:45Z</time>
      </trkpt>
      <trkpt lat="42.32412" lon="2.67708">
        <ele>650</ele>
        <time>2010-01-01T10:31:50Z</time>
      </trkpt>
      <trkpt lat="42.32422" lon="2.67705">
        <ele>648</ele>
        <time>2010-01-01T10:32:00Z</time>
      </trkpt>
      <trkpt lat="42.32425" lon="2.67707">
        <ele>647</ele>
        <time>2010-01-01T10:32:04Z</time>
      </trkpt>
      <trkpt lat="42.32433" lon="2.67706">
        <ele>646</ele>
        <time>2010-01-01T10:32:11Z</time>
      </trkpt>
      <trkpt lat="42.32442" lon="2.67713">
        <ele>646</ele>
        <time>2010-01-01T10:32:22Z</time>
      </trkpt>
      <trkpt lat="42.32444" lon="2.67714">
        <ele>645</ele>
        <time>2010-01-01T10:32:24Z</time>
      </trkpt>
      <trkpt lat="42.32467" lon="2.67736">
        <ele>644</ele>
        <time>2010-01-01T10:32:52Z</time>
      </trkpt>
      <trkpt lat="42.32481" lon="2.67758">
        <ele>642</ele>
        <time>2010-01-01T10:33:14Z</time>
      </trkpt>
      <trkpt lat="42.32482" lon="2.67763">
        <ele>641</ele>
        <time>2010-01-01T10:33:18Z</time>
      </trkpt>
      <trkpt lat="42.32488" lon="2.67769">
        <ele>639</ele>
        <time>2010-01-01T10:33:25Z</time>
      </trkpt>
      <trkpt lat="42.32491" lon="2.6777">
        <ele>637</ele>
        <time>2010-01-01T10:33:28Z</time>
      </trkpt>
      <trkpt lat="42.32497" lon="2.67776">
        <ele>635</ele>
        <time>2010-01-01T10:33:35Z</time>
      </trkpt>
      <trkpt lat="42.32501" lon="2.67786">
        <ele>633</ele>
        <time>2010-01-01T10:33:44Z</time>
      </trkpt>
      <trkpt lat="42.32503" lon="2.67801">
        <ele>631</ele>
        <time>2010-01-01T10:33:55Z</time>
      </trkpt>
      <trkpt lat="42.32507" lon="2.67815">
        <ele>629</ele>
        <time>2010-01-01T10:34:06Z</time>
      </trkpt>
      <trkpt lat="42.32516" lon="2.67835">
        <ele>625</ele>
        <time>2010-01-01T10:34:24Z</time>
      </trkpt>
      <trkpt lat="42.3253" lon="2.67875">
        <ele>620</ele>
        <time>2010-01-01T10:34:56Z</time>
      </trkpt>
      <trkpt lat="42.32535" lon="2.67883">
        <ele>620</ele>
        <time>2010-01-01T10:35:04Z</time>
      </trkpt>
      <trkpt lat="42.32536" lon="2.67885">
        <ele>620</ele>
        <time>2010-01-01T10:35:05Z</time>
      </trkpt>
      <trkpt lat="42.32549" lon="2.67902">
        <ele>618</ele>
        <time>2010-01-01T10:35:24Z</time>
      </trkpt>
      <trkpt lat="42.32557" lon="2.67907">
        <ele>618</ele>
        <time>2010-01-01T10:35:33Z</time>
      </trkpt>
      <trkpt lat="42.32563" lon="2.67905">
        <ele>618</ele>
        <time>2010-01-01T10:35:39Z</time>
      </trkpt>
      <trkpt lat="42.3257" lon="2.67882">
        <ele>620</ele>
        <time>2010-01-01T10:35:58Z</time>
      </trkpt>
      <trkpt lat="42.32571" lon="2.67872">
        <ele>619</ele>
        <time>2010-01-01T10:36:05Z</time>
      </trkpt>
      <trkpt lat="42.32578" lon="2.67858">
        <ele>618</ele>
        <time>2010-01-01T10:36:17Z</time>
      </trkpt>
      <trkpt lat="42.32582" lon="2.67843">
        <ele>618</ele>
        <time>2010-01-01T10:36:29Z</time>
      </trkpt>
      <trkpt lat="42.32586" lon="2.67823">
        <ele>617</ele>
        <time>2010-01-01T10:36:44Z</time>
      </trkpt>
      <trkpt lat="42.3259" lon="2.67802">
        <ele>617</ele>
        <time>2010-01-01T10:37:00Z</time>
      </trkpt>
      <trkpt lat="42.32594" lon="2.67786">
        <ele>617</ele>
        <time>2010-01-01T10:37:13Z</time>
      </trkpt>
      <trkpt lat="42.32597" lon="2.67781">
        <ele>617</ele>
        <time>2010-01-01T10:37:18Z</time>
      </trkpt>
      <trkpt lat="42.32601" lon="2.67776">
        <ele>618</ele>
        <time>2010-01-01T10:37:24Z</time>
      </trkpt>
      <trkpt lat="42.32602" lon="2.67773">
        <ele>617</ele>
        <time>2010-01-01T10:37:26Z</time>
      </trkpt>
      <trkpt lat="42.3262" lon="2.67752">
        <ele>617</ele>
        <time>2010-01-01T10:37:50Z</time>
      </trkpt>
      <trkpt lat="42.32622" lon="2.67748">
        <ele>616</ele>
        <time>2010-01-01T10:37:53Z</time>
      </trkpt>
      <trkpt lat="42.32623" lon="2.67739">
        <ele>615</ele>
        <time>2010-01-01T10:38:00Z</time>
      </trkpt>
      <trkpt lat="42.3263" lon="2.67724">
        <ele>612</ele>
        <time>2010-01-01T10:38:14Z</time>
      </trkpt>
      <trkpt lat="42.32635" lon="2.67716">
        <ele>611</ele>
        <time>2010-01-01T10:38:22Z</time>
      </trkpt>
      <trkpt lat="42.32636" lon="2.6771">
        <ele>609</ele>
        <time>2010-01-01T10:38:26Z</time>
      </trkpt>
      <trkpt lat="42.32648" lon="2.67681">
        <ele>604</ele>
        <time>2010-01-01T10:38:51Z</time>
      </trkpt>
      <trkpt lat="42.32653" lon="2.67674">
        <ele>603</ele>
        <time>2010-01-01T10:38:57Z</time>
      </trkpt>
      <trkpt lat="42.32655" lon="2.67668">
        <ele>602</ele>
        <time>2010-01-01T10:39:03Z</time>
      </trkpt>
      <trkpt lat="42.32667" lon="2.67653">
        <ele>601</ele>
        <time>2010-01-01T10:39:19Z</time>
      </trkpt>
      <trkpt lat="42.32672" lon="2.67643">
        <ele>600</ele>
        <time>2010-01-01T10:39:28Z</time>
      </trkpt>
      <trkpt lat="42.32675" lon="2.67641">
        <ele>600</ele>
        <time>2010-01-01T10:39:32Z</time>
      </trkpt>
      <trkpt lat="42.32735" lon="2.67604">
        <ele>602</ele>
        <time>2010-01-01T10:40:37Z</time>
      </trkpt>
      <trkpt lat="42.32748" lon="2.67593">
        <ele>600</ele>
        <time>2010-01-01T10:40:52Z</time>
      </trkpt>
      <trkpt lat="42.32755" lon="2.67589">
        <ele>598</ele>
        <time>2010-01-01T10:41:00Z</time>
      </trkpt>
      <trkpt lat="42.32782" lon="2.67586">
        <ele>595</ele>
        <time>2010-01-01T10:41:28Z</time>
      </trkpt>
      <trkpt lat="42.32794" lon="2.67591">
        <ele>595</ele>
        <time>2010-01-01T10:41:40Z</time>
      </trkpt>
      <trkpt lat="42.32817" lon="2.67604">
        <ele>594</ele>
        <time>2010-01-01T10:42:04Z</time>
      </trkpt>
      <trkpt lat="42.32831" lon="2.67609">
        <ele>594</ele>
        <time>2010-01-01T10:42:19Z</time>
      </trkpt>
      <trkpt lat="42.3284" lon="2.67609">
        <ele>593</ele>
        <time>2010-01-01T10:42:28Z</time>
      </trkpt>
      <trkpt lat="42.32858" lon="2.67601">
        <ele>594</ele>
        <time>2010-01-01T10:42:47Z</time>
      </trkpt>
      <trkpt lat="42.32857" lon="2.67599">
        <ele>594</ele>
        <time>2010-01-01T10:42:49Z</time>
      </trkpt>
      <trkpt lat="42.32859" lon="2.67597">
        <ele>594</ele>
        <time>2010-01-01T10:42:52Z</time>
      </trkpt>
      <trkpt lat="42.32864" lon="2.67595">
        <ele>595</ele>
        <time>2010-01-01T10:42:57Z</time>
      </trkpt>
      <trkpt lat="42.32861" lon="2.67587">
        <ele>596</ele>
        <time>2010-01-01T10:43:03Z</time>
      </trkpt>
      <trkpt lat="42.3286" lon="2.67582">
        <ele>596</ele>
        <time>2010-01-01T10:43:07Z</time>
      </trkpt>
      <trkpt lat="42.32865" lon="2.67577">
        <ele>597</ele>
        <time>2010-01-01T10:43:13Z</time>
      </trkpt>
      <trkpt lat="42.32862" lon="2.67573">
        <ele>597</ele>
        <time>2010-01-01T10:43:16Z</time>
      </trkpt>
      <trkpt lat="42.32865" lon="2.67576">
        <ele>597</ele>
        <time>2010-01-01T10:43:20Z</time>
      </trkpt>
      <trkpt lat="42.3286" lon="2.67582">
        <ele>596</ele>
        <time>2010-01-01T10:43:26Z</time>
      </trkpt>
      <trkpt lat="42.32857" lon="2.67595">
        <ele>594</ele>
        <time>2010-01-01T10:43:36Z</time>
      </trkpt>
      <trkpt lat="42.32858" lon="2.676">
        <ele>594</ele>
        <time>2010-01-01T10:43:40Z</time>
      </trkpt>
      <trkpt lat="42.32863" lon="2.676">
        <ele>594</ele>
        <time>2010-01-01T10:43:45Z</time>
      </trkpt>
      <trkpt lat="42.32862" lon="2.67597">
        <ele>594</ele>
        <time>2010-01-01T10:43:47Z</time>
      </trkpt>
      <trkpt lat="42.32864" lon="2.67598">
        <ele>594</ele>
        <time>2010-01-01T10:43:49Z</time>
      </trkpt>
      <trkpt lat="42.32863" lon="2.67598">
        <ele>594</ele>
        <time>2010-01-01T10:43:50Z</time>
      </trkpt>
      <trkpt lat="42.32864" lon="2.67597">
        <ele>595</ele>
        <time>2010-01-01T10:43:51Z</time>
      </trkpt>
      <trkpt lat="42.3286" lon="2.67598">
        <ele>594</ele>
        <time>2010-01-01T10:43:55Z</time>
      </trkpt>
      <trkpt lat="42.32861" lon="2.67598">
        <ele>594</ele>
        <time>2010-01-01T10:43:55Z</time>
      </trkpt>
      <trkpt lat="42.32862" lon="2.67597">
        <ele>595</ele>
        <time>2010-01-01T10:43:57Z</time>
      </trkpt>
      <trkpt lat="42.32863" lon="2.67599">
        <ele>594</ele>
        <time>2010-01-01T10:43:58Z</time>
      </trkpt>
      <trkpt lat="42.32863" lon="2.67599">
        <ele>594</ele>
        <time>2010-01-01T10:43:59Z</time>
      </trkpt>
      <trkpt lat="42.32863" lon="2.67599">
        <ele>594</ele>
        <time>2010-01-01T10:43:59Z</time>
      </trkpt>
      <trkpt lat="42.32861" lon="2.67599">
        <ele>594</ele>
        <time>2010-01-01T10:44:01Z</time>
      </trkpt>
      <trkpt lat="42.3286" lon="2.67598">
        <ele>594</ele>
        <time>2010-01-01T10:44:02Z</time>
      </trkpt>
      <trkpt lat="42.32861" lon="2.67598">
        <ele>594</ele>
        <time>2010-01-01T10:44:03Z</time>
      </trkpt>
      <trkpt lat="42.32861" lon="2.67598">
        <ele>594</ele>
        <time>2010-01-01T10:44:03Z</time>
      </trkpt>
      <trkpt lat="42.32861" lon="2.67598">
        <ele>594</ele>
        <time>2010-01-01T10:44:03Z</time>
      </trkpt>
      <trkpt lat="42.3286" lon="2.67598">
        <ele>594</ele>
        <time>2010-01-01T10:44:04Z</time>
      </trkpt>
      <trkpt lat="42.32857" lon="2.67601">
        <ele>594</ele>
        <time>2010-01-01T10:44:07Z</time>
      </trkpt>
      <trkpt lat="42.32858" lon="2.676">
        <ele>594</ele>
        <time>2010-01-01T10:44:08Z</time>
      </trkpt>
      <trkpt lat="42.32856" lon="2.67601">
        <ele>594</ele>
        <time>2010-01-01T10:44:10Z</time>
      </trkpt>
      <trkpt lat="42.3286" lon="2.67601">
        <ele>594</ele>
        <time>2010-01-01T10:44:13Z</time>
      </trkpt>
      <trkpt lat="42.32862" lon="2.67599">
        <ele>594</ele>
        <time>2010-01-01T10:44:16Z</time>
      </trkpt>
      <trkpt lat="42.32863" lon="2.67596">
        <ele>595</ele>
        <time>2010-01-01T10:44:18Z</time>
      </trkpt>
      <trkpt lat="42.32856" lon="2.67599">
        <ele>594</ele>
        <time>2010-01-01T10:44:26Z</time>
      </trkpt>
      <trkpt lat="42.3286" lon="2.67596">
        <ele>595</ele>
        <time>2010-01-01T10:44:31Z</time>
      </trkpt>
      <trkpt lat="42.32858" lon="2.67599">
        <ele>594</ele>
        <time>2010-01-01T10:44:34Z</time>
      </trkpt>
      <trkpt lat="42.32861" lon="2.67596">
        <ele>595</ele>
        <time>2010-01-01T10:44:38Z</time>
      </trkpt>
      <trkpt lat="42.32861" lon="2.67597">
        <ele>594</ele>
        <time>2010-01-01T10:44:39Z</time>
      </trkpt>
      <trkpt lat="42.32859" lon="2.676">
        <ele>594</ele>
        <time>2010-01-01T10:44:41Z</time>
      </trkpt>
      <trkpt lat="42.32863" lon="2.67598">
        <ele>594</ele>
        <time>2010-01-01T10:44:45Z</time>
      </trkpt>
      <trkpt lat="42.32862" lon="2.676">
        <ele>594</ele>
        <time>2010-01-01T10:44:47Z</time>
      </trkpt>
      <trkpt lat="42.32862" lon="2.67603">
        <ele>594</ele>
        <time>2010-01-01T10:44:49Z</time>
      </trkpt>
      <trkpt lat="42.32861" lon="2.676">
        <ele>594</ele>
        <time>2010-01-01T10:44:51Z</time>
      </trkpt>
      <trkpt lat="42.3286" lon="2.67599">
        <ele>594</ele>
        <time>2010-01-01T10:44:52Z</time>
      </trkpt>
      <trkpt lat="42.32859" lon="2.67598">
        <ele>594</ele>
        <time>2010-01-01T10:44:54Z</time>
      </trkpt>
      <trkpt lat="42.3286" lon="2.67594">
        <ele>595</ele>
        <time>2010-01-01T10:44:57Z</time>
      </trkpt>
      <trkpt lat="42.32859" lon="2.67592">
        <ele>595</ele>
        <time>2010-01-01T10:44:59Z</time>
      </trkpt>
      <trkpt lat="42.32859" lon="2.6759">
        <ele>595</ele>
        <time>2010-01-01T10:45:00Z</time>
      </trkpt>
      <trkpt lat="42.3286" lon="2.6758">
        <ele>596</ele>
        <time>2010-01-01T10:45:07Z</time>
      </trkpt>
      <trkpt lat="42.32858" lon="2.67579">
        <ele>596</ele>
        <time>2010-01-01T10:45:09Z</time>
      </trkpt>
      <trkpt lat="42.32857" lon="2.6758">
        <ele>596</ele>
        <time>2010-01-01T10:45:11Z</time>
      </trkpt>
      <trkpt lat="42.32858" lon="2.67581">
        <ele>596</ele>
        <time>2010-01-01T10:45:12Z</time>
      </trkpt>
      <trkpt lat="42.32858" lon="2.6758">
        <ele>596</ele>
        <time>2010-01-01T10:45:13Z</time>
      </trkpt>
      <trkpt lat="42.32857" lon="2.6759">
        <ele>595</ele>
        <time>2010-01-01T10:45:21Z</time>
      </trkpt>
      <trkpt lat="42.32862" lon="2.67597">
        <ele>595</ele>
        <time>2010-01-01T10:45:28Z</time>
      </trkpt>
      <trkpt lat="42.32861" lon="2.67595">
        <ele>595</ele>
        <time>2010-01-01T10:45:30Z</time>
      </trkpt>
      <trkpt lat="42.32858" lon="2.67595">
        <ele>595</ele>
        <time>2010-01-01T10:45:32Z</time>
      </trkpt>
      <trkpt lat="42.3285" lon="2.67599">
        <ele>594</ele>
        <time>2010-01-01T10:45:40Z</time>
      </trkpt>
      <trkpt lat="42.32852" lon="2.67604">
        <ele>593</ele>
        <time>2010-01-01T10:45:45Z</time>
      </trkpt>
      <trkpt lat="42.32854" lon="2.67604">
        <ele>593</ele>
        <time>2010-01-01T10:45:47Z</time>
      </trkpt>
      <trkpt lat="42.32864" lon="2.67604">
        <ele>593</ele>
        <time>2010-01-01T10:45:57Z</time>
      </trkpt>
      <trkpt lat="42.32869" lon="2.67612">
        <ele>592</ele>
        <time>2010-01-01T10:46:04Z</time>
      </trkpt>
      <trkpt lat="42.32874" lon="2.67615">
        <ele>591</ele>
        <time>2010-01-01T10:46:10Z</time>
      </trkpt>
      <trkpt lat="42.32879" lon="2.67611">
        <ele>591</ele>
        <time>2010-01-01T10:46:15Z</time>
      </trkpt>
      <trkpt lat="42.32881" lon="2.67612">
        <ele>591</ele>
        <time>2010-01-01T10:46:18Z</time>
      </trkpt>
      <trkpt lat="42.32881" lon="2.67613">
        <ele>591</ele>
        <time>2010-01-01T10:46:19Z</time>
      </trkpt>
      <trkpt lat="42.3288" lon="2.67611">
        <ele>591</ele>
        <time>2010-01-01T10:46:21Z</time>
      </trkpt>
      <trkpt lat="42.32895" lon="2.67603">
        <ele>591</ele>
        <time>2010-01-01T10:46:38Z</time>
      </trkpt>
      <trkpt lat="42.32899" lon="2.67603">
        <ele>591</ele>
        <time>2010-01-01T10:46:42Z</time>
      </trkpt>
      <trkpt lat="42.32909" lon="2.67597">
        <ele>591</ele>
        <time>2010-01-01T10:46:52Z</time>
      </trkpt>
      <trkpt lat="42.32921" lon="2.67593">
        <ele>590</ele>
        <time>2010-01-01T10:47:04Z</time>
      </trkpt>
      <trkpt lat="42.32927" lon="2.67588">
        <ele>591</ele>
        <time>2010-01-01T10:47:12Z</time>
      </trkpt>
      <trkpt lat="42.32934" lon="2.6759">
        <ele>589</ele>
        <time>2010-01-01T10:47:18Z</time>
      </trkpt>
      <trkpt lat="42.32952" lon="2.67586">
        <ele>588</ele>
        <time>2010-01-01T10:47:37Z</time>
      </trkpt>
      <trkpt lat="42.32955" lon="2.67582">
        <ele>589</ele>
        <time>2010-01-01T10:47:41Z</time>
      </trkpt>
      <trkpt lat="42.32959" lon="2.67581">
        <ele>588</ele>
        <time>2010-01-01T10:47:45Z</time>
      </trkpt>
      <trkpt lat="42.32969" lon="2.67582">
        <ele>587</ele>
        <time>2010-01-01T10:47:54Z</time>
      </trkpt>
      <trkpt lat="42.32972" lon="2.67581">
        <ele>587</ele>
        <time>2010-01-01T10:47:58Z</time>
      </trkpt>
      <trkpt lat="42.32985" lon="2.67587">
        <ele>582</ele>
        <time>2010-01-01T10:48:11Z</time>
      </trkpt>
      <trkpt lat="42.3299" lon="2.67587">
        <ele>581</ele>
        <time>2010-01-01T10:48:17Z</time>
      </trkpt>
      <trkpt lat="42.32998" lon="2.67593">
        <ele>577</ele>
        <time>2010-01-01T10:48:26Z</time>
      </trkpt>
      <trkpt lat="42.33005" lon="2.67592">
        <ele>577</ele>
        <time>2010-01-01T10:48:32Z</time>
      </trkpt>
      <trkpt lat="42.33007" lon="2.67593">
        <ele>576</ele>
        <time>2010-01-01T10:48:35Z</time>
      </trkpt>
      <trkpt lat="42.33015" lon="2.6759">
        <ele>576</ele>
        <time>2010-01-01T10:48:43Z</time>
      </trkpt>
      <trkpt lat="42.33029" lon="2.67594">
        <ele>573</ele>
        <time>2010-01-01T10:48:57Z</time>
      </trkpt>
      <trkpt lat="42.33032" lon="2.67596">
        <ele>572</ele>
        <time>2010-01-01T10:49:00Z</time>
      </trkpt>
      <trkpt lat="42.33035" lon="2.67596">
        <ele>571</ele>
        <time>2010-01-01T10:49:04Z</time>
      </trkpt>
      <trkpt lat="42.33041" lon="2.676">
        <ele>569</ele>
        <time>2010-01-01T10:49:10Z</time>
      </trkpt>
      <trkpt lat="42.33052" lon="2.67602">
        <ele>566</ele>
        <time>2010-01-01T10:49:22Z</time>
      </trkpt>
      <trkpt lat="42.33062" lon="2.67602">
        <ele>563</ele>
        <time>2010-01-01T10:49:31Z</time>
      </trkpt>
      <trkpt lat="42.33074" lon="2.67604">
        <ele>559</ele>
        <time>2010-01-01T10:49:44Z</time>
      </trkpt>
      <trkpt lat="42.33077" lon="2.67607">
        <ele>558</ele>
        <time>2010-01-01T10:49:47Z</time>
      </trkpt>
      <trkpt lat="42.33082" lon="2.67607">
        <ele>556</ele>
        <time>2010-01-01T10:49:53Z</time>
      </trkpt>
      <trkpt lat="42.33094" lon="2.67607">
        <ele>554</ele>
        <time>2010-01-01T10:50:04Z</time>
      </trkpt>
      <trkpt lat="42.33097" lon="2.67611">
        <ele>552</ele>
        <time>2010-01-01T10:50:09Z</time>
      </trkpt>
      <trkpt lat="42.33101" lon="2.67611">
        <ele>551</ele>
        <time>2010-01-01T10:50:13Z</time>
      </trkpt>
      <trkpt lat="42.33105" lon="2.67613">
        <ele>550</ele>
        <time>2010-01-01T10:50:17Z</time>
      </trkpt>
      <trkpt lat="42.33106" lon="2.67616">
        <ele>549</ele>
        <time>2010-01-01T10:50:19Z</time>
      </trkpt>
      <trkpt lat="42.33111" lon="2.67618">
        <ele>547</ele>
        <time>2010-01-01T10:50:24Z</time>
      </trkpt>
      <trkpt lat="42.33113" lon="2.67623">
        <ele>545</ele>
        <time>2010-01-01T10:50:28Z</time>
      </trkpt>
      <trkpt lat="42.33117" lon="2.67623">
        <ele>544</ele>
        <time>2010-01-01T10:50:33Z</time>
      </trkpt>
      <trkpt lat="42.33128" lon="2.67631">
        <ele>540</ele>
        <time>2010-01-01T10:50:45Z</time>
      </trkpt>
      <trkpt lat="42.33133" lon="2.6763">
        <ele>539</ele>
        <time>2010-01-01T10:50:50Z</time>
      </trkpt>
      <trkpt lat="42.33138" lon="2.67633">
        <ele>537</ele>
        <time>2010-01-01T10:50:56Z</time>
      </trkpt>
      <trkpt lat="42.33156" lon="2.67638">
        <ele>531</ele>
        <time>2010-01-01T10:51:14Z</time>
      </trkpt>
      <trkpt lat="42.33163" lon="2.67641">
        <ele>529</ele>
        <time>2010-01-01T10:51:22Z</time>
      </trkpt>
      <trkpt lat="42.33168" lon="2.67645">
        <ele>526</ele>
        <time>2010-01-01T10:51:27Z</time>
      </trkpt>
      <trkpt lat="42.3317" lon="2.67646">
        <ele>525</ele>
        <time>2010-01-01T10:51:29Z</time>
      </trkpt>
      <trkpt lat="42.33171" lon="2.67642">
        <ele>526</ele>
        <time>2010-01-01T10:51:33Z</time>
      </trkpt>
      <trkpt lat="42.33176" lon="2.6764">
        <ele>526</ele>
        <time>2010-01-01T10:51:37Z</time>
      </trkpt>
      <trkpt lat="42.3318" lon="2.67644">
        <ele>523</ele>
        <time>2010-01-01T10:51:42Z</time>
      </trkpt>
      <trkpt lat="42.33188" lon="2.67634">
        <ele>524</ele>
        <time>2010-01-01T10:51:53Z</time>
      </trkpt>
      <trkpt lat="42.33198" lon="2.67631">
        <ele>520</ele>
        <time>2010-01-01T10:52:03Z</time>
      </trkpt>
      <trkpt lat="42.33203" lon="2.67625">
        <ele>518</ele>
        <time>2010-01-01T10:52:10Z</time>
      </trkpt>
      <trkpt lat="42.3321" lon="2.67623">
        <ele>515</ele>
        <time>2010-01-01T10:52:17Z</time>
      </trkpt>
      <trkpt lat="42.33218" lon="2.67622">
        <ele>510</ele>
        <time>2010-01-01T10:52:26Z</time>
      </trkpt>
      <trkpt lat="42.33223" lon="2.67619">
        <ele>508</ele>
        <time>2010-01-01T10:52:30Z</time>
      </trkpt>
      <trkpt lat="42.33227" lon="2.67614">
        <ele>507</ele>
        <time>2010-01-01T10:52:36Z</time>
      </trkpt>
      <trkpt lat="42.33229" lon="2.67619">
        <ele>504</ele>
        <time>2010-01-01T10:52:40Z</time>
      </trkpt>
      <trkpt lat="42.33225" lon="2.67622">
        <ele>505</ele>
        <time>2010-01-01T10:52:44Z</time>
      </trkpt>
      <trkpt lat="42.33224" lon="2.67629">
        <ele>504</ele>
        <time>2010-01-01T10:52:49Z</time>
      </trkpt>
      <trkpt lat="42.33225" lon="2.67646">
        <ele>499</ele>
        <time>2010-01-01T10:53:02Z</time>
      </trkpt>
      <trkpt lat="42.33228" lon="2.67646">
        <ele>497</ele>
        <time>2010-01-01T10:53:05Z</time>
      </trkpt>
      <trkpt lat="42.33234" lon="2.67639">
        <ele>495</ele>
        <time>2010-01-01T10:53:13Z</time>
      </trkpt>
      <trkpt lat="42.33237" lon="2.67637">
        <ele>493</ele>
        <time>2010-01-01T10:53:16Z</time>
      </trkpt>
      <trkpt lat="42.3324" lon="2.67635">
        <ele>493</ele>
        <time>2010-01-01T10:53:20Z</time>
      </trkpt>
      <trkpt lat="42.33246" lon="2.67632">
        <ele>489</ele>
        <time>2010-01-01T10:53:26Z</time>
      </trkpt>
      <trkpt lat="42.33249" lon="2.67632">
        <ele>488</ele>
        <time>2010-01-01T10:53:29Z</time>
      </trkpt>
      <trkpt lat="42.33247" lon="2.67632">
        <ele>488</ele>
        <time>2010-01-01T10:53:30Z</time>
      </trkpt>
      <trkpt lat="42.33249" lon="2.67632">
        <ele>487</ele>
        <time>2010-01-01T10:53:32Z</time>
      </trkpt>
      <trkpt lat="42.3325" lon="2.67633">
        <ele>486</ele>
        <time>2010-01-01T10:53:34Z</time>
      </trkpt>
      <trkpt lat="42.3326" lon="2.67625">
        <ele>484</ele>
        <time>2010-01-01T10:53:45Z</time>
      </trkpt>
      <trkpt lat="42.33263" lon="2.67621">
        <ele>483</ele>
        <time>2010-01-01T10:53:50Z</time>
      </trkpt>
      <trkpt lat="42.33265" lon="2.67615">
        <ele>484</ele>
        <time>2010-01-01T10:53:55Z</time>
      </trkpt>
      <trkpt lat="42.33276" lon="2.67606">
        <ele>480</ele>
        <time>2010-01-01T10:54:07Z</time>
      </trkpt>
      <trkpt lat="42.33282" lon="2.67601">
        <ele>479</ele>
        <time>2010-01-01T10:54:14Z</time>
      </trkpt>
      <trkpt lat="42.33293" lon="2.67594">
        <ele>476</ele>
        <time>2010-01-01T10:54:27Z</time>
      </trkpt>
      <trkpt lat="42.33295" lon="2.67594">
        <ele>475</ele>
        <time>2010-01-01T10:54:29Z</time>
      </trkpt>
      <trkpt lat="42.33301" lon="2.67589">
        <ele>475</ele>
        <time>2010-01-01T10:54:35Z</time>
      </trkpt>
      <trkpt lat="42.33307" lon="2.67588">
        <ele>473</ele>
        <time>2010-01-01T10:54:42Z</time>
      </trkpt>
      <trkpt lat="42.33319" lon="2.67577">
        <ele>471</ele>
        <time>2010-01-01T10:54:56Z</time>
      </trkpt>
      <trkpt lat="42.33324" lon="2.67578">
        <ele>468</ele>
        <time>2010-01-01T10:55:01Z</time>
      </trkpt>
      <trkpt lat="42.33327" lon="2.67575">
        <ele>468</ele>
        <time>2010-01-01T10:55:05Z</time>
      </trkpt>
      <trkpt lat="42.33328" lon="2.67576">
        <ele>467</ele>
        <time>2010-01-01T10:55:06Z</time>
      </trkpt>
      <trkpt lat="42.33329" lon="2.67578">
        <ele>466</ele>
        <time>2010-01-01T10:55:08Z</time>
      </trkpt>
      <trkpt lat="42.33336" lon="2.67579">
        <ele>462</ele>
        <time>2010-01-01T10:55:15Z</time>
      </trkpt>
      <trkpt lat="42.3334" lon="2.67577">
        <ele>461</ele>
        <time>2010-01-01T10:55:20Z</time>
      </trkpt>
      <trkpt lat="42.3335" lon="2.67575">
        <ele>457</ele>
        <time>2010-01-01T10:55:30Z</time>
      </trkpt>
      <trkpt lat="42.33362" lon="2.67575">
        <ele>452</ele>
        <time>2010-01-01T10:55:42Z</time>
      </trkpt>
      <trkpt lat="42.33367" lon="2.67572">
        <ele>451</ele>
        <time>2010-01-01T10:55:48Z</time>
      </trkpt>
      <trkpt lat="42.33372" lon="2.67572">
        <ele>449</ele>
        <time>2010-01-01T10:55:53Z</time>
      </trkpt>
      <trkpt lat="42.33373" lon="2.67569">
        <ele>449</ele>
        <time>2010-01-01T10:55:55Z</time>
      </trkpt>
      <trkpt lat="42.33383" lon="2.67559">
        <ele>448</ele>
        <time>2010-01-01T10:56:07Z</time>
      </trkpt>
      <trkpt lat="42.33385" lon="2.67564">
        <ele>446</ele>
        <time>2010-01-01T10:56:11Z</time>
      </trkpt>
      <trkpt lat="42.33394" lon="2.67571">
        <ele>441</ele>
        <time>2010-01-01T10:56:21Z</time>
      </trkpt>
      <trkpt lat="42.33398" lon="2.67573">
        <ele>439</ele>
        <time>2010-01-01T10:56:26Z</time>
      </trkpt>
      <trkpt lat="42.33404" lon="2.67578">
        <ele>436</ele>
        <time>2010-01-01T10:56:33Z</time>
      </trkpt>
      <trkpt lat="42.33407" lon="2.67586">
        <ele>434</ele>
        <time>2010-01-01T10:56:40Z</time>
      </trkpt>
      <trkpt lat="42.33419" lon="2.67596">
        <ele>429</ele>
        <time>2010-01-01T10:56:54Z</time>
      </trkpt>
      <trkpt lat="42.33423" lon="2.676">
        <ele>427</ele>
        <time>2010-01-01T10:56:59Z</time>
      </trkpt>
      <trkpt lat="42.33423" lon="2.67603">
        <ele>427</ele>
        <time>2010-01-01T10:57:01Z</time>
      </trkpt>
      <trkpt lat="42.33426" lon="2.67607">
        <ele>426</ele>
        <time>2010-01-01T10:57:05Z</time>
      </trkpt>
      <trkpt lat="42.3343" lon="2.6761">
        <ele>425</ele>
        <time>2010-01-01T10:57:09Z</time>
      </trkpt>
      <trkpt lat="42.33434" lon="2.67611">
        <ele>425</ele>
        <time>2010-01-01T10:57:13Z</time>
      </trkpt>
      <trkpt lat="42.33438" lon="2.67613">
        <ele>424</ele>
        <time>2010-01-01T10:57:18Z</time>
      </trkpt>
      <trkpt lat="42.33447" lon="2.67621">
        <ele>422</ele>
        <time>2010-01-01T10:57:28Z</time>
      </trkpt>
      <trkpt lat="42.33456" lon="2.67628">
        <ele>420</ele>
        <time>2010-01-01T10:57:39Z</time>
      </trkpt>
      <trkpt lat="42.33462" lon="2.6763">
        <ele>420</ele>
        <time>2010-01-01T10:57:46Z</time>
      </trkpt>
      <trkpt lat="42.33461" lon="2.67633">
        <ele>420</ele>
        <time>2010-01-01T10:57:48Z</time>
      </trkpt>
      <trkpt lat="42.33459" lon="2.67632">
        <ele>420</ele>
        <time>2010-01-01T10:57:50Z</time>
      </trkpt>
      <trkpt lat="42.33458" lon="2.67635">
        <ele>419</ele>
        <time>2010-01-01T10:57:52Z</time>
      </trkpt>
      <trkpt lat="42.33464" lon="2.67635">
        <ele>419</ele>
        <time>2010-01-01T10:57:58Z</time>
      </trkpt>
      <trkpt lat="42.33465" lon="2.67636">
        <ele>419</ele>
        <time>2010-01-01T10:58:00Z</time>
      </trkpt>
      <trkpt lat="42.3346" lon="2.67637">
        <ele>419</ele>
        <time>2010-01-01T10:58:05Z</time>
      </trkpt>
      <trkpt lat="42.33457" lon="2.67636">
        <ele>419</ele>
        <time>2010-01-01T10:58:08Z</time>
      </trkpt>
      <trkpt lat="42.33461" lon="2.67637">
        <ele>419</ele>
        <time>2010-01-01T10:58:11Z</time>
      </trkpt>
      <trkpt lat="42.33463" lon="2.67632">
        <ele>420</ele>
        <time>2010-01-01T10:58:16Z</time>
      </trkpt>
      <trkpt lat="42.33456" lon="2.6763">
        <ele>420</ele>
        <time>2010-01-01T10:58:23Z</time>
      </trkpt>
      <trkpt lat="42.33459" lon="2.67625">
        <ele>420</ele>
        <time>2010-01-01T10:58:28Z</time>
      </trkpt>
      <trkpt lat="42.33464" lon="2.67627">
        <ele>420</ele>
        <time>2010-01-01T10:58:33Z</time>
      </trkpt>
      <trkpt lat="42.33465" lon="2.67631">
        <ele>419</ele>
        <time>2010-01-01T10:58:36Z</time>
      </trkpt>
      <trkpt lat="42.33473" lon="2.67628">
        <ele>419</ele>
        <time>2010-01-01T10:58:45Z</time>
      </trkpt>
      <trkpt lat="42.33479" lon="2.6762">
        <ele>419</ele>
        <time>2010-01-01T10:58:53Z</time>
      </trkpt>
      <trkpt lat="42.33481" lon="2.6762">
        <ele>419</ele>
        <time>2010-01-01T10:58:55Z</time>
      </trkpt>
      <trkpt lat="42.33485" lon="2.67623">
        <ele>418</ele>
        <time>2010-01-01T10:59:00Z</time>
      </trkpt>
      <trkpt lat="42.33492" lon="2.67617">
        <ele>418</ele>
        <time>2010-01-01T10:59:07Z</time>
      </trkpt>
      <trkpt lat="42.33506" lon="2.67611">
        <ele>417</ele>
        <time>2010-01-01T10:59:22Z</time>
      </trkpt>
      <trkpt lat="42.3352" lon="2.67608">
        <ele>414</ele>
        <time>2010-01-01T10:59:37Z</time>
      </trkpt>
      <trkpt lat="42.33532" lon="2.67602">
        <ele>412</ele>
        <time>2010-01-01T10:59:49Z</time>
      </trkpt>
      <trkpt lat="42.33531" lon="2.67642">
        <ele>410</ele>
        <time>2010-01-01T11:00:19Z</time>
      </trkpt>
      <trkpt lat="42.33476" lon="2.67698">
        <ele>405</ele>
        <time>2010-01-01T11:01:28Z</time>
      </trkpt>
      <trkpt lat="42.33456" lon="2.67705">
        <ele>404</ele>
        <time>2010-01-01T11:01:48Z</time>
      </trkpt>
      <trkpt lat="42.33434" lon="2.67693">
        <ele>408</ele>
        <time>2010-01-01T11:02:11Z</time>
      </trkpt>
      <trkpt lat="42.33413" lon="2.67692">
        <ele>410</ele>
        <time>2010-01-01T11:02:33Z</time>
      </trkpt>
      <trkpt lat="42.33397" lon="2.67714">
        <ele>407</ele>
        <time>2010-01-01T11:02:55Z</time>
      </trkpt>
      <trkpt lat="42.334" lon="2.67779">
        <ele>396</ele>
        <time>2010-01-01T11:03:43Z</time>
      </trkpt>
      <trkpt lat="42.33367" lon="2.67807">
        <ele>395</ele>
        <time>2010-01-01T11:04:22Z</time>
      </trkpt>
      <trkpt lat="42.33337" lon="2.67835">
        <ele>392</ele>
        <time>2010-01-01T11:04:59Z</time>
      </trkpt>
      <trkpt lat="42.33328" lon="2.67839">
        <ele>392</ele>
        <time>2010-01-01T11:05:08Z</time>
      </trkpt>
      <trkpt lat="42.3331" lon="2.67844">
        <ele>393</ele>
        <time>2010-01-01T11:05:26Z</time>
      </trkpt>
      <trkpt lat="42.33318" lon="2.67853">
        <ele>391</ele>
        <time>2010-01-01T11:05:36Z</time>
      </trkpt>
      <trkpt lat="42.3331" lon="2.67852">
        <ele>392</ele>
        <time>2010-01-01T11:05:44Z</time>
      </trkpt>
      <trkpt lat="42.33314" lon="2.67852">
        <ele>391</ele>
        <time>2010-01-01T11:05:49Z</time>
      </trkpt>
      <trkpt lat="42.33309" lon="2.67852">
        <ele>392</ele>
        <time>2010-01-01T11:05:54Z</time>
      </trkpt>
      <trkpt lat="42.33311" lon="2.67852">
        <ele>392</ele>
        <time>2010-01-01T11:05:56Z</time>
      </trkpt>
      <trkpt lat="42.3332" lon="2.67851">
        <ele>391</ele>
        <time>2010-01-01T11:06:05Z</time>
      </trkpt>
      <trkpt lat="42.33331" lon="2.67856">
        <ele>390</ele>
        <time>2010-01-01T11:06:16Z</time>
      </trkpt>
      <trkpt lat="42.3334" lon="2.6786">
        <ele>389</ele>
        <time>2010-01-01T11:06:26Z</time>
      </trkpt>
      <trkpt lat="42.33348" lon="2.67861">
        <ele>388</ele>
        <time>2010-01-01T11:06:34Z</time>
      </trkpt>
      <trkpt lat="42.33357" lon="2.67865">
        <ele>387</ele>
        <time>2010-01-01T11:06:44Z</time>
      </trkpt>
      <trkpt lat="42.33363" lon="2.67875">
        <ele>385</ele>
        <time>2010-01-01T11:06:53Z</time>
      </trkpt>
      <trkpt lat="42.33366" lon="2.67887">
        <ele>383</ele>
        <time>2010-01-01T11:07:03Z</time>
      </trkpt>
      <trkpt lat="42.33368" lon="2.679">
        <ele>381</ele>
        <time>2010-01-01T11:07:12Z</time>
      </trkpt>
      <trkpt lat="42.33367" lon="2.67913">
        <ele>379</ele>
        <time>2010-01-01T11:07:22Z</time>
      </trkpt>
      <trkpt lat="42.33362" lon="2.67923">
        <ele>378</ele>
        <time>2010-01-01T11:07:31Z</time>
      </trkpt>
      <trkpt lat="42.3336" lon="2.67936">
        <ele>376</ele>
        <time>2010-01-01T11:07:41Z</time>
      </trkpt>
      <trkpt lat="42.33366" lon="2.67945">
        <ele>373</ele>
        <time>2010-01-01T11:07:50Z</time>
      </trkpt>
      <trkpt lat="42.33375" lon="2.67941">
        <ele>371</ele>
        <time>2010-01-01T11:07:59Z</time>
      </trkpt>
      <trkpt lat="42.33381" lon="2.67936">
        <ele>371</ele>
        <time>2010-01-01T11:08:07Z</time>
      </trkpt>
      <trkpt lat="42.3339" lon="2.67928">
        <ele>370</ele>
        <time>2010-01-01T11:08:17Z</time>
      </trkpt>
      <trkpt lat="42.334" lon="2.67925">
        <ele>369</ele>
        <time>2010-01-01T11:08:27Z</time>
      </trkpt>
      <trkpt lat="42.33409" lon="2.67921">
        <ele>369</ele>
        <time>2010-01-01T11:08:37Z</time>
      </trkpt>
      <trkpt lat="42.33418" lon="2.67918">
        <ele>368</ele>
        <time>2010-01-01T11:08:46Z</time>
      </trkpt>
      <trkpt lat="42.33428" lon="2.67921">
        <ele>365</ele>
        <time>2010-01-01T11:08:56Z</time>
      </trkpt>
      <trkpt lat="42.33428" lon="2.67933">
        <ele>363</ele>
        <time>2010-01-01T11:09:05Z</time>
      </trkpt>
      <trkpt lat="42.33423" lon="2.67942">
        <ele>362</ele>
        <time>2010-01-01T11:09:14Z</time>
      </trkpt>
      <trkpt lat="42.33417" lon="2.67953">
        <ele>360</ele>
        <time>2010-01-01T11:09:24Z</time>
      </trkpt>
      <trkpt lat="42.3341" lon="2.67963">
        <ele>360</ele>
        <time>2010-01-01T11:09:34Z</time>
      </trkpt>
      <trkpt lat="42.33406" lon="2.67974">
        <ele>360</ele>
        <time>2010-01-01T11:09:43Z</time>
      </trkpt>
      <trkpt lat="42.33401" lon="2.67984">
        <ele>359</ele>
        <time>2010-01-01T11:09:52Z</time>
      </trkpt>
      <trkpt lat="42.33396" lon="2.67996">
        <ele>359</ele>
        <time>2010-01-01T11:10:02Z</time>
      </trkpt>
      <trkpt lat="42.33391" lon="2.68007">
        <ele>358</ele>
        <time>2010-01-01T11:10:12Z</time>
      </trkpt>
      <trkpt lat="42.33389" lon="2.68019">
        <ele>357</ele>
        <time>2010-01-01T11:10:21Z</time>
      </trkpt>
      <trkpt lat="42.33391" lon="2.68033">
        <ele>356</ele>
        <time>2010-01-01T11:10:31Z</time>
      </trkpt>
      <trkpt lat="42.33396" lon="2.68044">
        <ele>355</ele>
        <time>2010-01-01T11:10:41Z</time>
      </trkpt>
      <trkpt lat="42.33401" lon="2.68055">
        <ele>353</ele>
        <time>2010-01-01T11:10:50Z</time>
      </trkpt>
      <trkpt lat="42.33404" lon="2.68067">
        <ele>352</ele>
        <time>2010-01-01T11:11:00Z</time>
      </trkpt>
      <trkpt lat="42.33405" lon="2.68081">
        <ele>351</ele>
        <time>2010-01-01T11:11:10Z</time>
      </trkpt>
      <trkpt lat="42.33402" lon="2.68093">
        <ele>352</ele>
        <time>2010-01-01T11:11:20Z</time>
      </trkpt>
      <trkpt lat="42.33404" lon="2.68106">
        <ele>352</ele>
        <time>2010-01-01T11:11:29Z</time>
      </trkpt>
      <trkpt lat="42.33406" lon="2.68118">
        <ele>352</ele>
        <time>2010-01-01T11:11:38Z</time>
      </trkpt>
      <trkpt lat="42.3341" lon="2.68129">
        <ele>353</ele>
        <time>2010-01-01T11:11:48Z</time>
      </trkpt>
      <trkpt lat="42.33413" lon="2.68141">
        <ele>353</ele>
        <time>2010-01-01T11:11:57Z</time>
      </trkpt>
      <trkpt lat="42.3342" lon="2.68149">
        <ele>353</ele>
        <time>2010-01-01T11:12:06Z</time>
      </trkpt>
      <trkpt lat="42.33427" lon="2.68153">
        <ele>352</ele>
        <time>2010-01-01T11:12:14Z</time>
      </trkpt>
      <trkpt lat="42.33437" lon="2.68153">
        <ele>351</ele>
        <time>2010-01-01T11:12:23Z</time>
      </trkpt>
      <trkpt lat="42.33446" lon="2.68155">
        <ele>349</ele>
        <time>2010-01-01T11:12:33Z</time>
      </trkpt>
      <trkpt lat="42.33456" lon="2.68159">
        <ele>349</ele>
        <time>2010-01-01T11:12:43Z</time>
      </trkpt>
      <trkpt lat="42.33463" lon="2.68165">
        <ele>349</ele>
        <time>2010-01-01T11:12:52Z</time>
      </trkpt>
      <trkpt lat="42.33472" lon="2.68171">
        <ele>349</ele>
        <time>2010-01-01T11:13:02Z</time>
      </trkpt>
      <trkpt lat="42.3348" lon="2.68178">
        <ele>351</ele>
        <time>2010-01-01T11:13:11Z</time>
      </trkpt>
      <trkpt lat="42.33488" lon="2.68186">
        <ele>353</ele>
        <time>2010-01-01T11:13:21Z</time>
      </trkpt>
      <trkpt lat="42.33492" lon="2.68197">
        <ele>353</ele>
        <time>2010-01-01T11:13:31Z</time>
      </trkpt>
      <trkpt lat="42.33494" lon="2.6821">
        <ele>354</ele>
        <time>2010-01-01T11:13:40Z</time>
      </trkpt>
      <trkpt lat="42.33497" lon="2.68222">
        <ele>354</ele>
        <time>2010-01-01T11:13:49Z</time>
      </trkpt>
      <trkpt lat="42.33499" lon="2.68234">
        <ele>354</ele>
        <time>2010-01-01T11:13:59Z</time>
      </trkpt>
      <trkpt lat="42.33501" lon="2.68247">
        <ele>354</ele>
        <time>2010-01-01T11:14:09Z</time>
      </trkpt>
      <trkpt lat="42.33504" lon="2.68254">
        <ele>355</ele>
        <time>2010-01-01T11:14:14Z</time>
      </trkpt>
      <trkpt lat="42.33505" lon="2.68255">
        <ele>355</ele>
        <time>2010-01-01T11:14:16Z</time>
      </trkpt>
      <trkpt lat="42.33506" lon="2.68262">
        <ele>356</ele>
        <time>2010-01-01T11:14:21Z</time>
      </trkpt>
      <trkpt lat="42.33503" lon="2.68269">
        <ele>355</ele>
        <time>2010-01-01T11:14:27Z</time>
      </trkpt>
      <trkpt lat="42.33503" lon="2.68275">
        <ele>355</ele>
        <time>2010-01-01T11:14:32Z</time>
      </trkpt>
      <trkpt lat="42.33499" lon="2.68279">
        <ele>353</ele>
        <time>2010-01-01T11:14:37Z</time>
      </trkpt>
      <trkpt lat="42.33498" lon="2.6828">
        <ele>353</ele>
        <time>2010-01-01T11:14:38Z</time>
      </trkpt>
      <trkpt lat="42.33506" lon="2.68286">
        <ele>356</ele>
        <time>2010-01-01T11:14:47Z</time>
      </trkpt>
      <trkpt lat="42.33511" lon="2.68289">
        <ele>358</ele>
        <time>2010-01-01T11:14:52Z</time>
      </trkpt>
      <trkpt lat="42.33507" lon="2.68289">
        <ele>356</ele>
        <time>2010-01-01T11:14:57Z</time>
      </trkpt>
      <trkpt lat="42.33507" lon="2.68291">
        <ele>356</ele>
        <time>2010-01-01T11:14:58Z</time>
      </trkpt>
      <trkpt lat="42.33503" lon="2.68296">
        <ele>355</ele>
        <time>2010-01-01T11:15:03Z</time>
      </trkpt>
      <trkpt lat="42.33505" lon="2.68307">
        <ele>356</ele>
        <time>2010-01-01T11:15:11Z</time>
      </trkpt>
      <trkpt lat="42.33506" lon="2.6832">
        <ele>355</ele>
        <time>2010-01-01T11:15:21Z</time>
      </trkpt>
      <trkpt lat="42.33508" lon="2.6833">
        <ele>356</ele>
        <time>2010-01-01T11:15:29Z</time>
      </trkpt>
      <trkpt lat="42.33509" lon="2.68338">
        <ele>355</ele>
        <time>2010-01-01T11:15:35Z</time>
      </trkpt>
      <trkpt lat="42.33512" lon="2.68347">
        <ele>356</ele>
        <time>2010-01-01T11:15:42Z</time>
      </trkpt>
      <trkpt lat="42.33514" lon="2.68357">
        <ele>356</ele>
        <time>2010-01-01T11:15:50Z</time>
      </trkpt>
      <trkpt lat="42.33517" lon="2.68371">
        <ele>355</ele>
        <time>2010-01-01T11:16:01Z</time>
      </trkpt>
      <trkpt lat="42.33519" lon="2.68383">
        <ele>355</ele>
        <time>2010-01-01T11:16:10Z</time>
      </trkpt>
      <trkpt lat="42.33521" lon="2.68395">
        <ele>356</ele>
        <time>2010-01-01T11:16:19Z</time>
      </trkpt>
      <trkpt lat="42.33524" lon="2.68408">
        <ele>357</ele>
        <time>2010-01-01T11:16:29Z</time>
      </trkpt>
      <trkpt lat="42.33525" lon="2.6842">
        <ele>357</ele>
        <time>2010-01-01T11:16:38Z</time>
      </trkpt>
      <trkpt lat="42.33527" lon="2.68434">
        <ele>357</ele>
        <time>2010-01-01T11:16:48Z</time>
      </trkpt>
      <trkpt lat="42.33529" lon="2.68447">
        <ele>356</ele>
        <time>2010-01-01T11:16:58Z</time>
      </trkpt>
      <trkpt lat="42.3353" lon="2.6846">
        <ele>355</ele>
        <time>2010-01-01T11:17:08Z</time>
      </trkpt>
      <trkpt lat="42.33534" lon="2.68472">
        <ele>354</ele>
        <time>2010-01-01T11:17:17Z</time>
      </trkpt>
      <trkpt lat="42.33537" lon="2.68484">
        <ele>354</ele>
        <time>2010-01-01T11:17:27Z</time>
      </trkpt>
      <trkpt lat="42.3354" lon="2.68495">
        <ele>354</ele>
        <time>2010-01-01T11:17:36Z</time>
      </trkpt>
      <trkpt lat="42.33543" lon="2.68508">
        <ele>353</ele>
        <time>2010-01-01T11:17:45Z</time>
      </trkpt>
      <trkpt lat="42.33544" lon="2.6852">
        <ele>353</ele>
        <time>2010-01-01T11:17:55Z</time>
      </trkpt>
      <trkpt lat="42.33549" lon="2.68532">
        <ele>352</ele>
        <time>2010-01-01T11:18:05Z</time>
      </trkpt>
      <trkpt lat="42.33557" lon="2.68541">
        <ele>353</ele>
        <time>2010-01-01T11:18:15Z</time>
      </trkpt>
      <trkpt lat="42.33565" lon="2.68549">
        <ele>354</ele>
        <time>2010-01-01T11:18:25Z</time>
      </trkpt>
      <trkpt lat="42.33574" lon="2.68555">
        <ele>355</ele>
        <time>2010-01-01T11:18:35Z</time>
      </trkpt>
      <trkpt lat="42.33581" lon="2.68565">
        <ele>354</ele>
        <time>2010-01-01T11:18:45Z</time>
      </trkpt>
      <trkpt lat="42.33588" lon="2.68573">
        <ele>354</ele>
        <time>2010-01-01T11:18:54Z</time>
      </trkpt>
      <trkpt lat="42.33598" lon="2.68575">
        <ele>355</ele>
        <time>2010-01-01T11:19:04Z</time>
      </trkpt>
      <trkpt lat="42.33607" lon="2.68571">
        <ele>357</ele>
        <time>2010-01-01T11:19:14Z</time>
      </trkpt>
      <trkpt lat="42.33616" lon="2.68569">
        <ele>358</ele>
        <time>2010-01-01T11:19:23Z</time>
      </trkpt>
      <trkpt lat="42.33626" lon="2.68565">
        <ele>358</ele>
        <time>2010-01-01T11:19:33Z</time>
      </trkpt>
      <trkpt lat="42.33635" lon="2.68562">
        <ele>359</ele>
        <time>2010-01-01T11:19:43Z</time>
      </trkpt>
      <trkpt lat="42.33643" lon="2.68556">
        <ele>360</ele>
        <time>2010-01-01T11:19:52Z</time>
      </trkpt>
      <trkpt lat="42.33651" lon="2.6855">
        <ele>360</ele>
        <time>2010-01-01T11:20:01Z</time>
      </trkpt>
      <trkpt lat="42.33657" lon="2.68544">
        <ele>360</ele>
        <time>2010-01-01T11:20:09Z</time>
      </trkpt>
      <trkpt lat="42.33665" lon="2.68541">
        <ele>359</ele>
        <time>2010-01-01T11:20:17Z</time>
      </trkpt>
      <trkpt lat="42.33673" lon="2.68534">
        <ele>360</ele>
        <time>2010-01-01T11:20:26Z</time>
      </trkpt>
      <trkpt lat="42.33681" lon="2.68529">
        <ele>359</ele>
        <time>2010-01-01T11:20:35Z</time>
      </trkpt>
      <trkpt lat="42.33689" lon="2.68522">
        <ele>360</ele>
        <time>2010-01-01T11:20:45Z</time>
      </trkpt>
      <trkpt lat="42.33697" lon="2.68515">
        <ele>359</ele>
        <time>2010-01-01T11:20:55Z</time>
      </trkpt>
      <trkpt lat="42.33706" lon="2.6851">
        <ele>359</ele>
        <time>2010-01-01T11:21:05Z</time>
      </trkpt>
      <trkpt lat="42.33714" lon="2.68504">
        <ele>359</ele>
        <time>2010-01-01T11:21:14Z</time>
      </trkpt>
      <trkpt lat="42.3372" lon="2.68495">
        <ele>360</ele>
        <time>2010-01-01T11:21:23Z</time>
      </trkpt>
      <trkpt lat="42.33729" lon="2.68493">
        <ele>360</ele>
        <time>2010-01-01T11:21:32Z</time>
      </trkpt>
      <trkpt lat="42.33733" lon="2.68495">
        <ele>359</ele>
        <time>2010-01-01T11:21:36Z</time>
      </trkpt>
      <trkpt lat="42.33733" lon="2.68508">
        <ele>357</ele>
        <time>2010-01-01T11:21:45Z</time>
      </trkpt>
      <trkpt lat="42.33728" lon="2.68508">
        <ele>357</ele>
        <time>2010-01-01T11:21:50Z</time>
      </trkpt>
      <trkpt lat="42.33721" lon="2.68513">
        <ele>356</ele>
        <time>2010-01-01T11:21:58Z</time>
      </trkpt>
      <trkpt lat="42.33714" lon="2.68522">
        <ele>356</ele>
        <time>2010-01-01T11:22:08Z</time>
      </trkpt>
      <trkpt lat="42.33713" lon="2.68535">
        <ele>355</ele>
        <time>2010-01-01T11:22:17Z</time>
      </trkpt>
      <trkpt lat="42.3372" lon="2.68542">
        <ele>354</ele>
        <time>2010-01-01T11:22:26Z</time>
      </trkpt>
      <trkpt lat="42.33727" lon="2.68535">
        <ele>354</ele>
        <time>2010-01-01T11:22:35Z</time>
      </trkpt>
      <trkpt lat="42.33733" lon="2.68525">
        <ele>355</ele>
        <time>2010-01-01T11:22:44Z</time>
      </trkpt>
      <trkpt lat="42.3374" lon="2.68517">
        <ele>356</ele>
        <time>2010-01-01T11:22:54Z</time>
      </trkpt>
      <trkpt lat="42.33748" lon="2.68509">
        <ele>357</ele>
        <time>2010-01-01T11:23:03Z</time>
      </trkpt>
      <trkpt lat="42.33756" lon="2.68505">
        <ele>359</ele>
        <time>2010-01-01T11:23:12Z</time>
      </trkpt>
      <trkpt lat="42.33766" lon="2.68506">
        <ele>361</ele>
        <time>2010-01-01T11:23:22Z</time>
      </trkpt>
      <trkpt lat="42.33772" lon="2.68516">
        <ele>363</ele>
        <time>2010-01-01T11:23:32Z</time>
      </trkpt>
      <trkpt lat="42.33772" lon="2.68529">
        <ele>364</ele>
        <time>2010-01-01T11:23:41Z</time>
      </trkpt>
      <trkpt lat="42.33768" lon="2.68542">
        <ele>364</ele>
        <time>2010-01-01T11:23:52Z</time>
      </trkpt>
      <trkpt lat="42.33764" lon="2.68547">
        <ele>363</ele>
        <time>2010-01-01T11:23:57Z</time>
      </trkpt>
      <trkpt lat="42.33762" lon="2.68558">
        <ele>364</ele>
        <time>2010-01-01T11:24:06Z</time>
      </trkpt>
      <trkpt lat="42.33757" lon="2.68569">
        <ele>364</ele>
        <time>2010-01-01T11:24:15Z</time>
      </trkpt>
      <trkpt lat="42.33754" lon="2.68582">
        <ele>365</ele>
        <time>2010-01-01T11:24:25Z</time>
      </trkpt>
      <trkpt lat="42.33756" lon="2.68595">
        <ele>369</ele>
        <time>2010-01-01T11:24:35Z</time>
      </trkpt>
      <trkpt lat="42.33755" lon="2.6861">
        <ele>372</ele>
        <time>2010-01-01T11:24:46Z</time>
      </trkpt>
      <trkpt lat="42.33752" lon="2.68622">
        <ele>372</ele>
        <time>2010-01-01T11:24:56Z</time>
      </trkpt>
      <trkpt lat="42.33746" lon="2.68634">
        <ele>370</ele>
        <time>2010-01-01T11:25:06Z</time>
      </trkpt>
      <trkpt lat="42.3374" lon="2.68643">
        <ele>369</ele>
        <time>2010-01-01T11:25:15Z</time>
      </trkpt>
      <trkpt lat="42.3374" lon="2.68656">
        <ele>372</ele>
        <time>2010-01-01T11:25:24Z</time>
      </trkpt>
      <trkpt lat="42.33741" lon="2.68669">
        <ele>374</ele>
        <time>2010-01-01T11:25:34Z</time>
      </trkpt>
      <trkpt lat="42.33739" lon="2.68682">
        <ele>376</ele>
        <time>2010-01-01T11:25:44Z</time>
      </trkpt>
      <trkpt lat="42.33732" lon="2.68691">
        <ele>375</ele>
        <time>2010-01-01T11:25:54Z</time>
      </trkpt>
      <trkpt lat="42.33723" lon="2.68695">
        <ele>373</ele>
        <time>2010-01-01T11:26:03Z</time>
      </trkpt>
      <trkpt lat="42.33717" lon="2.68704">
        <ele>371</ele>
        <time>2010-01-01T11:26:12Z</time>
      </trkpt>
      <trkpt lat="42.3372" lon="2.68717">
        <ele>373</ele>
        <time>2010-01-01T11:26:22Z</time>
      </trkpt>
      <trkpt lat="42.33723" lon="2.68728">
        <ele>375</ele>
        <time>2010-01-01T11:26:31Z</time>
      </trkpt>
      <trkpt lat="42.33725" lon="2.68738">
        <ele>376</ele>
        <time>2010-01-01T11:26:39Z</time>
      </trkpt>
      <trkpt lat="42.33728" lon="2.68743">
        <ele>377</ele>
        <time>2010-01-01T11:26:43Z</time>
      </trkpt>
      <trkpt lat="42.33732" lon="2.68746">
        <ele>378</ele>
        <time>2010-01-01T11:26:48Z</time>
      </trkpt>
      <trkpt lat="42.33736" lon="2.68745">
        <ele>379</ele>
        <time>2010-01-01T11:26:52Z</time>
      </trkpt>
      <trkpt lat="42.3374" lon="2.68735">
        <ele>380</ele>
        <time>2010-01-01T11:27:00Z</time>
      </trkpt>
      <trkpt lat="42.33742" lon="2.68729">
        <ele>380</ele>
        <time>2010-01-01T11:27:06Z</time>
      </trkpt>
      <trkpt lat="42.33747" lon="2.68725">
        <ele>382</ele>
        <time>2010-01-01T11:27:11Z</time>
      </trkpt>
      <trkpt lat="42.33748" lon="2.68718">
        <ele>382</ele>
        <time>2010-01-01T11:27:16Z</time>
      </trkpt>
      <trkpt lat="42.33753" lon="2.68706">
        <ele>382</ele>
        <time>2010-01-01T11:27:27Z</time>
      </trkpt>
      <trkpt lat="42.33755" lon="2.68702">
        <ele>383</ele>
        <time>2010-01-01T11:27:30Z</time>
      </trkpt>
      <trkpt lat="42.33757" lon="2.68695">
        <ele>383</ele>
        <time>2010-01-01T11:27:35Z</time>
      </trkpt>
      <trkpt lat="42.33763" lon="2.68686">
        <ele>385</ele>
        <time>2010-01-01T11:27:45Z</time>
      </trkpt>
      <trkpt lat="42.3377" lon="2.68677">
        <ele>388</ele>
        <time>2010-01-01T11:27:54Z</time>
      </trkpt>
      <trkpt lat="42.33775" lon="2.68667">
        <ele>390</ele>
        <time>2010-01-01T11:28:03Z</time>
      </trkpt>
      <trkpt lat="42.33777" lon="2.68654">
        <ele>390</ele>
        <time>2010-01-01T11:28:13Z</time>
      </trkpt>
      <trkpt lat="42.33776" lon="2.68646">
        <ele>389</ele>
        <time>2010-01-01T11:28:19Z</time>
      </trkpt>
      <trkpt lat="42.3378" lon="2.6864">
        <ele>390</ele>
        <time>2010-01-01T11:28:25Z</time>
      </trkpt>
      <trkpt lat="42.33783" lon="2.68633">
        <ele>391</ele>
        <time>2010-01-01T11:28:31Z</time>
      </trkpt>
      <trkpt lat="42.33783" lon="2.68625">
        <ele>390</ele>
        <time>2010-01-01T11:28:37Z</time>
      </trkpt>
      <trkpt lat="42.33785" lon="2.68614">
        <ele>389</ele>
        <time>2010-01-01T11:28:46Z</time>
      </trkpt>
      <trkpt lat="42.3379" lon="2.68607">
        <ele>390</ele>
        <time>2010-01-01T11:28:52Z</time>
      </trkpt>
      <trkpt lat="42.33797" lon="2.68599">
        <ele>391</ele>
        <time>2010-01-01T11:29:02Z</time>
      </trkpt>
      <trkpt lat="42.33801" lon="2.68595">
        <ele>392</ele>
        <time>2010-01-01T11:29:07Z</time>
      </trkpt>
      <trkpt lat="42.33805" lon="2.68583">
        <ele>391</ele>
        <time>2010-01-01T11:29:17Z</time>
      </trkpt>
      <trkpt lat="42.33806" lon="2.68572">
        <ele>388</ele>
        <time>2010-01-01T11:29:24Z</time>
      </trkpt>
      <trkpt lat="42.33813" lon="2.68563">
        <ele>388</ele>
        <time>2010-01-01T11:29:34Z</time>
      </trkpt>
      <trkpt lat="42.33817" lon="2.68558">
        <ele>388</ele>
        <time>2010-01-01T11:29:40Z</time>
      </trkpt>
      <trkpt lat="42.33819" lon="2.68552">
        <ele>387</ele>
        <time>2010-01-01T11:29:45Z</time>
      </trkpt>
      <trkpt lat="42.33821" lon="2.68546">
        <ele>386</ele>
        <time>2010-01-01T11:29:50Z</time>
      </trkpt>
      <trkpt lat="42.33821" lon="2.68546">
        <ele>386</ele>
        <time>2010-01-01T11:29:50Z</time>
      </trkpt>
      <trkpt lat="42.3383" lon="2.68542">
        <ele>388</ele>
        <time>2010-01-01T11:29:59Z</time>
      </trkpt>
      <trkpt lat="42.33837" lon="2.68537">
        <ele>389</ele>
        <time>2010-01-01T11:30:07Z</time>
      </trkpt>
      <trkpt lat="42.33845" lon="2.68524">
        <ele>390</ele>
        <time>2010-01-01T11:30:20Z</time>
      </trkpt>
      <trkpt lat="42.3385" lon="2.68519">
        <ele>392</ele>
        <time>2010-01-01T11:30:27Z</time>
      </trkpt>
      <trkpt lat="42.33855" lon="2.68513">
        <ele>393</ele>
        <time>2010-01-01T11:30:32Z</time>
      </trkpt>
      <trkpt lat="42.33861" lon="2.68505">
        <ele>393</ele>
        <time>2010-01-01T11:30:41Z</time>
      </trkpt>
      <trkpt lat="42.33869" lon="2.68493">
        <ele>394</ele>
        <time>2010-01-01T11:30:54Z</time>
      </trkpt>
      <trkpt lat="42.33875" lon="2.68488">
        <ele>395</ele>
        <time>2010-01-01T11:31:00Z</time>
      </trkpt>
      <trkpt lat="42.33881" lon="2.68483">
        <ele>397</ele>
        <time>2010-01-01T11:31:07Z</time>
      </trkpt>
      <trkpt lat="42.33887" lon="2.68487">
        <ele>401</ele>
        <time>2010-01-01T11:31:14Z</time>
      </trkpt>
      <trkpt lat="42.33891" lon="2.6849">
        <ele>404</ele>
        <time>2010-01-01T11:31:19Z</time>
      </trkpt>
      <trkpt lat="42.33895" lon="2.68494">
        <ele>406</ele>
        <time>2010-01-01T11:31:24Z</time>
      </trkpt>
      <trkpt lat="42.33899" lon="2.68494">
        <ele>407</ele>
        <time>2010-01-01T11:31:28Z</time>
      </trkpt>
      <trkpt lat="42.33908" lon="2.68497">
        <ele>410</ele>
        <time>2010-01-01T11:31:37Z</time>
      </trkpt>
      <trkpt lat="42.33913" lon="2.68494">
        <ele>410</ele>
        <time>2010-01-01T11:31:43Z</time>
      </trkpt>
      <trkpt lat="42.33919" lon="2.68489">
        <ele>410</ele>
        <time>2010-01-01T11:31:49Z</time>
      </trkpt>
      <trkpt lat="42.33923" lon="2.68488">
        <ele>411</ele>
        <time>2010-01-01T11:31:54Z</time>
      </trkpt>
      <trkpt lat="42.3393" lon="2.68486">
        <ele>411</ele>
        <time>2010-01-01T11:32:00Z</time>
      </trkpt>
      <trkpt lat="42.33935" lon="2.68484">
        <ele>411</ele>
        <time>2010-01-01T11:32:06Z</time>
      </trkpt>
      <trkpt lat="42.33941" lon="2.6848">
        <ele>411</ele>
        <time>2010-01-01T11:32:12Z</time>
      </trkpt>
      <trkpt lat="42.33951" lon="2.68479">
        <ele>412</ele>
        <time>2010-01-01T11:32:22Z</time>
      </trkpt>
      <trkpt lat="42.33956" lon="2.68479">
        <ele>412</ele>
        <time>2010-01-01T11:32:28Z</time>
      </trkpt>
      <trkpt lat="42.33963" lon="2.68482">
        <ele>413</ele>
        <time>2010-01-01T11:32:35Z</time>
      </trkpt>
      <trkpt lat="42.33967" lon="2.68489">
        <ele>416</ele>
        <time>2010-01-01T11:32:42Z</time>
      </trkpt>
      <trkpt lat="42.33974" lon="2.68493">
        <ele>417</ele>
        <time>2010-01-01T11:32:49Z</time>
      </trkpt>
      <trkpt lat="42.33982" lon="2.68499">
        <ele>417</ele>
        <time>2010-01-01T11:32:58Z</time>
      </trkpt>
      <trkpt lat="42.3399" lon="2.68505">
        <ele>418</ele>
        <time>2010-01-01T11:33:07Z</time>
      </trkpt>
      <trkpt lat="42.33998" lon="2.6851">
        <ele>418</ele>
        <time>2010-01-01T11:33:16Z</time>
      </trkpt>
      <trkpt lat="42.34004" lon="2.68516">
        <ele>419</ele>
        <time>2010-01-01T11:33:23Z</time>
      </trkpt>
      <trkpt lat="42.34009" lon="2.68517">
        <ele>418</ele>
        <time>2010-01-01T11:33:28Z</time>
      </trkpt>
      <trkpt lat="42.34018" lon="2.68514">
        <ele>415</ele>
        <time>2010-01-01T11:33:38Z</time>
      </trkpt>
      <trkpt lat="42.34026" lon="2.68518">
        <ele>415</ele>
        <time>2010-01-01T11:33:46Z</time>
      </trkpt>
      <trkpt lat="42.34033" lon="2.68517">
        <ele>415</ele>
        <time>2010-01-01T11:33:53Z</time>
      </trkpt>
      <trkpt lat="42.34041" lon="2.68519">
        <ele>418</ele>
        <time>2010-01-01T11:34:01Z</time>
      </trkpt>
      <trkpt lat="42.34046" lon="2.68523">
        <ele>421</ele>
        <time>2010-01-01T11:34:07Z</time>
      </trkpt>
      <trkpt lat="42.34046" lon="2.68522">
        <ele>421</ele>
        <time>2010-01-01T11:34:07Z</time>
      </trkpt>
      <trkpt lat="42.34053" lon="2.6853">
        <ele>428</ele>
        <time>2010-01-01T11:34:16Z</time>
      </trkpt>
      <trkpt lat="42.3406" lon="2.68527">
        <ele>429</ele>
        <time>2010-01-01T11:34:24Z</time>
      </trkpt>
      <trkpt lat="42.34068" lon="2.68523">
        <ele>430</ele>
        <time>2010-01-01T11:34:32Z</time>
      </trkpt>
      <trkpt lat="42.34075" lon="2.68521">
        <ele>433</ele>
        <time>2010-01-01T11:34:39Z</time>
      </trkpt>
      <trkpt lat="42.34084" lon="2.68518">
        <ele>436</ele>
        <time>2010-01-01T11:34:48Z</time>
      </trkpt>
      <trkpt lat="42.34089" lon="2.68519">
        <ele>440</ele>
        <time>2010-01-01T11:34:53Z</time>
      </trkpt>
      <trkpt lat="42.34097" lon="2.68511">
        <ele>439</ele>
        <time>2010-01-01T11:35:04Z</time>
      </trkpt>
      <trkpt lat="42.34101" lon="2.685">
        <ele>434</ele>
        <time>2010-01-01T11:35:13Z</time>
      </trkpt>
      <trkpt lat="42.34109" lon="2.68494">
        <ele>434</ele>
        <time>2010-01-01T11:35:21Z</time>
      </trkpt>
      <trkpt lat="42.34115" lon="2.6849">
        <ele>435</ele>
        <time>2010-01-01T11:35:28Z</time>
      </trkpt>
      <trkpt lat="42.34119" lon="2.68485">
        <ele>433</ele>
        <time>2010-01-01T11:35:34Z</time>
      </trkpt>
      <trkpt lat="42.34125" lon="2.68479">
        <ele>432</ele>
        <time>2010-01-01T11:35:41Z</time>
      </trkpt>
      <trkpt lat="42.3413" lon="2.68468">
        <ele>428</ele>
        <time>2010-01-01T11:35:51Z</time>
      </trkpt>
      <trkpt lat="42.34138" lon="2.68463">
        <ele>429</ele>
        <time>2010-01-01T11:36:00Z</time>
      </trkpt>
      <trkpt lat="42.34142" lon="2.68456">
        <ele>427</ele>
        <time>2010-01-01T11:36:07Z</time>
      </trkpt>
      <trkpt lat="42.34149" lon="2.68448">
        <ele>425</ele>
        <time>2010-01-01T11:36:16Z</time>
      </trkpt>
      <trkpt lat="42.34159" lon="2.68444">
        <ele>425</ele>
        <time>2010-01-01T11:36:26Z</time>
      </trkpt>
      <trkpt lat="42.34167" lon="2.68439">
        <ele>425</ele>
        <time>2010-01-01T11:36:34Z</time>
      </trkpt>
      <trkpt lat="42.34174" lon="2.68432">
        <ele>424</ele>
        <time>2010-01-01T11:36:44Z</time>
      </trkpt>
      <trkpt lat="42.34181" lon="2.68432">
        <ele>424</ele>
        <time>2010-01-01T11:36:50Z</time>
      </trkpt>
      <trkpt lat="42.34188" lon="2.6843">
        <ele>424</ele>
        <time>2010-01-01T11:36:57Z</time>
      </trkpt>
      <trkpt lat="42.34197" lon="2.68431">
        <ele>425</ele>
        <time>2010-01-01T11:37:07Z</time>
      </trkpt>
      <trkpt lat="42.34206" lon="2.68431">
        <ele>427</ele>
        <time>2010-01-01T11:37:16Z</time>
      </trkpt>
      <trkpt lat="42.34209" lon="2.68436">
        <ele>430</ele>
        <time>2010-01-01T11:37:21Z</time>
      </trkpt>
      <trkpt lat="42.3421" lon="2.6844">
        <ele>432</ele>
        <time>2010-01-01T11:37:24Z</time>
      </trkpt>
      <trkpt lat="42.34218" lon="2.68448">
        <ele>437</ele>
        <time>2010-01-01T11:37:34Z</time>
      </trkpt>
      <trkpt lat="42.34223" lon="2.68449">
        <ele>440</ele>
        <time>2010-01-01T11:37:39Z</time>
      </trkpt>
      <trkpt lat="42.34231" lon="2.68443">
        <ele>438</ele>
        <time>2010-01-01T11:37:48Z</time>
      </trkpt>
      <trkpt lat="42.34231" lon="2.68443">
        <ele>438</ele>
        <time>2010-01-01T11:37:48Z</time>
      </trkpt>
      <trkpt lat="42.34241" lon="2.68448">
        <ele>441</ele>
        <time>2010-01-01T11:37:59Z</time>
      </trkpt>
      <trkpt lat="42.34236" lon="2.6845">
        <ele>442</ele>
        <time>2010-01-01T11:38:04Z</time>
      </trkpt>
      <trkpt lat="42.3424" lon="2.68446">
        <ele>441</ele>
        <time>2010-01-01T11:38:09Z</time>
      </trkpt>
      <trkpt lat="42.34244" lon="2.68435">
        <ele>438</ele>
        <time>2010-01-01T11:38:19Z</time>
      </trkpt>
      <trkpt lat="42.34249" lon="2.68426">
        <ele>435</ele>
        <time>2010-01-01T11:38:27Z</time>
      </trkpt>
      <trkpt lat="42.34254" lon="2.68418">
        <ele>432</ele>
        <time>2010-01-01T11:38:35Z</time>
      </trkpt>
      <trkpt lat="42.3426" lon="2.68409">
        <ele>425</ele>
        <time>2010-01-01T11:38:44Z</time>
      </trkpt>
      <trkpt lat="42.34267" lon="2.68401">
        <ele>419</ele>
        <time>2010-01-01T11:38:53Z</time>
      </trkpt>
      <trkpt lat="42.34271" lon="2.68397">
        <ele>416</ele>
        <time>2010-01-01T11:38:58Z</time>
      </trkpt>
      <trkpt lat="42.34281" lon="2.68393">
        <ele>412</ele>
        <time>2010-01-01T11:39:09Z</time>
      </trkpt>
      <trkpt lat="42.3429" lon="2.68387">
        <ele>407</ele>
        <time>2010-01-01T11:39:18Z</time>
      </trkpt>
      <trkpt lat="42.34295" lon="2.68383">
        <ele>405</ele>
        <time>2010-01-01T11:39:24Z</time>
      </trkpt>
      <trkpt lat="42.343" lon="2.68374">
        <ele>401</ele>
        <time>2010-01-01T11:39:32Z</time>
      </trkpt>
      <trkpt lat="42.34306" lon="2.68369">
        <ele>398</ele>
        <time>2010-01-01T11:39:39Z</time>
      </trkpt>
      <trkpt lat="42.34311" lon="2.6836">
        <ele>396</ele>
        <time>2010-01-01T11:39:48Z</time>
      </trkpt>
      <trkpt lat="42.34318" lon="2.68351">
        <ele>395</ele>
        <time>2010-01-01T11:39:57Z</time>
      </trkpt>
      <trkpt lat="42.34321" lon="2.68342">
        <ele>394</ele>
        <time>2010-01-01T11:40:04Z</time>
      </trkpt>
      <trkpt lat="42.34328" lon="2.68334">
        <ele>394</ele>
        <time>2010-01-01T11:40:14Z</time>
      </trkpt>
      <trkpt lat="42.34336" lon="2.68328">
        <ele>395</ele>
        <time>2010-01-01T11:40:23Z</time>
      </trkpt>
      <trkpt lat="42.34342" lon="2.68319">
        <ele>396</ele>
        <time>2010-01-01T11:40:31Z</time>
      </trkpt>
      <trkpt lat="42.34351" lon="2.68308">
        <ele>397</ele>
        <time>2010-01-01T11:40:44Z</time>
      </trkpt>
      <trkpt lat="42.34357" lon="2.68301">
        <ele>399</ele>
        <time>2010-01-01T11:40:51Z</time>
      </trkpt>
      <trkpt lat="42.34367" lon="2.68297">
        <ele>404</ele>
        <time>2010-01-01T11:41:02Z</time>
      </trkpt>
      <trkpt lat="42.34378" lon="2.68297">
        <ele>410</ele>
        <time>2010-01-01T11:41:13Z</time>
      </trkpt>
      <trkpt lat="42.34388" lon="2.68297">
        <ele>416</ele>
        <time>2010-01-01T11:41:23Z</time>
      </trkpt>
      <trkpt lat="42.34398" lon="2.68293">
        <ele>420</ele>
        <time>2010-01-01T11:41:34Z</time>
      </trkpt>
      <trkpt lat="42.34407" lon="2.68289">
        <ele>423</ele>
        <time>2010-01-01T11:41:43Z</time>
      </trkpt>
      <trkpt lat="42.34415" lon="2.68284">
        <ele>426</ele>
        <time>2010-01-01T11:41:52Z</time>
      </trkpt>
      <trkpt lat="42.34422" lon="2.68284">
        <ele>428</ele>
        <time>2010-01-01T11:41:59Z</time>
      </trkpt>
      <trkpt lat="42.34432" lon="2.68283">
        <ele>430</ele>
        <time>2010-01-01T11:42:09Z</time>
      </trkpt>
      <trkpt lat="42.34437" lon="2.6828">
        <ele>430</ele>
        <time>2010-01-01T11:42:14Z</time>
      </trkpt>
      <trkpt lat="42.34445" lon="2.68279">
        <ele>432</ele>
        <time>2010-01-01T11:42:22Z</time>
      </trkpt>
      <trkpt lat="42.34451" lon="2.68284">
        <ele>436</ele>
        <time>2010-01-01T11:42:30Z</time>
      </trkpt>
      <trkpt lat="42.34462" lon="2.68289">
        <ele>442</ele>
        <time>2010-01-01T11:42:41Z</time>
      </trkpt>
      <trkpt lat="42.34467" lon="2.6829">
        <ele>444</ele>
        <time>2010-01-01T11:42:46Z</time>
      </trkpt>
      <trkpt lat="42.3447" lon="2.68295">
        <ele>447</ele>
        <time>2010-01-01T11:42:51Z</time>
      </trkpt>
      <trkpt lat="42.34476" lon="2.68301">
        <ele>450</ele>
        <time>2010-01-01T11:42:58Z</time>
      </trkpt>
      <trkpt lat="42.34487" lon="2.68304">
        <ele>454</ele>
        <time>2010-01-01T11:43:10Z</time>
      </trkpt>
      <trkpt lat="42.34491" lon="2.68307">
        <ele>455</ele>
        <time>2010-01-01T11:43:15Z</time>
      </trkpt>
      <trkpt lat="42.345" lon="2.68311">
        <ele>458</ele>
        <time>2010-01-01T11:43:24Z</time>
      </trkpt>
      <trkpt lat="42.34509" lon="2.68314">
        <ele>458</ele>
        <time>2010-01-01T11:43:33Z</time>
      </trkpt>
      <trkpt lat="42.34516" lon="2.68318">
        <ele>459</ele>
        <time>2010-01-01T11:43:41Z</time>
      </trkpt>
      <trkpt lat="42.34522" lon="2.68321">
        <ele>459</ele>
        <time>2010-01-01T11:43:47Z</time>
      </trkpt>
      <trkpt lat="42.34526" lon="2.6832">
        <ele>459</ele>
        <time>2010-01-01T11:43:51Z</time>
      </trkpt>
      <trkpt lat="42.34531" lon="2.68325">
        <ele>461</ele>
        <time>2010-01-01T11:43:57Z</time>
      </trkpt>
      <trkpt lat="42.34535" lon="2.68329">
        <ele>463</ele>
        <time>2010-01-01T11:44:02Z</time>
      </trkpt>
      <trkpt lat="42.3454" lon="2.68332">
        <ele>465</ele>
        <time>2010-01-01T11:44:08Z</time>
      </trkpt>
      <trkpt lat="42.34549" lon="2.68336">
        <ele>467</ele>
        <time>2010-01-01T11:44:17Z</time>
      </trkpt>
      <trkpt lat="42.34553" lon="2.68339">
        <ele>468</ele>
        <time>2010-01-01T11:44:22Z</time>
      </trkpt>
      <trkpt lat="42.34555" lon="2.68347">
        <ele>470</ele>
        <time>2010-01-01T11:44:28Z</time>
      </trkpt>
      <trkpt lat="42.34561" lon="2.68352">
        <ele>472</ele>
        <time>2010-01-01T11:44:35Z</time>
      </trkpt>
      <trkpt lat="42.34567" lon="2.68353">
        <ele>474</ele>
        <time>2010-01-01T11:44:41Z</time>
      </trkpt>
      <trkpt lat="42.34573" lon="2.68353">
        <ele>475</ele>
        <time>2010-01-01T11:44:47Z</time>
      </trkpt>
      <trkpt lat="42.34573" lon="2.68355">
        <ele>475</ele>
        <time>2010-01-01T11:44:48Z</time>
      </trkpt>
      <trkpt lat="42.34577" lon="2.68344">
        <ele>473</ele>
        <time>2010-01-01T11:44:57Z</time>
      </trkpt>
      <trkpt lat="42.34576" lon="2.68335">
        <ele>471</ele>
        <time>2010-01-01T11:45:04Z</time>
      </trkpt>
      <trkpt lat="42.34577" lon="2.68327">
        <ele>470</ele>
        <time>2010-01-01T11:45:10Z</time>
      </trkpt>
      <trkpt lat="42.34579" lon="2.68316">
        <ele>470</ele>
        <time>2010-01-01T11:45:18Z</time>
      </trkpt>
      <trkpt lat="42.34585" lon="2.68305">
        <ele>471</ele>
        <time>2010-01-01T11:45:28Z</time>
      </trkpt>
      <trkpt lat="42.34593" lon="2.68296">
        <ele>476</ele>
        <time>2010-01-01T11:45:39Z</time>
      </trkpt>
      <trkpt lat="42.34596" lon="2.68286">
        <ele>478</ele>
        <time>2010-01-01T11:45:47Z</time>
      </trkpt>
      <trkpt lat="42.34598" lon="2.68278">
        <ele>479</ele>
        <time>2010-01-01T11:45:53Z</time>
      </trkpt>
      <trkpt lat="42.34598" lon="2.68267">
        <ele>481</ele>
        <time>2010-01-01T11:46:01Z</time>
      </trkpt>
      <trkpt lat="42.34599" lon="2.68257">
        <ele>482</ele>
        <time>2010-01-01T11:46:09Z</time>
      </trkpt>
      <trkpt lat="42.34598" lon="2.68248">
        <ele>482</ele>
        <time>2010-01-01T11:46:16Z</time>
      </trkpt>
      <trkpt lat="42.34598" lon="2.68236">
        <ele>485</ele>
        <time>2010-01-01T11:46:24Z</time>
      </trkpt>
      <trkpt lat="42.34598" lon="2.68224">
        <ele>486</ele>
        <time>2010-01-01T11:46:33Z</time>
      </trkpt>
      <trkpt lat="42.34596" lon="2.68216">
        <ele>486</ele>
        <time>2010-01-01T11:46:40Z</time>
      </trkpt>
      <trkpt lat="42.3459" lon="2.68207">
        <ele>483</ele>
        <time>2010-01-01T11:46:49Z</time>
      </trkpt>
      <trkpt lat="42.34589" lon="2.68207">
        <ele>482</ele>
        <time>2010-01-01T11:46:50Z</time>
      </trkpt>
      <trkpt lat="42.34582" lon="2.68202">
        <ele>478</ele>
        <time>2010-01-01T11:46:58Z</time>
      </trkpt>
      <trkpt lat="42.34583" lon="2.68198">
        <ele>479</ele>
        <time>2010-01-01T11:47:01Z</time>
      </trkpt>
      <trkpt lat="42.34589" lon="2.68189">
        <ele>483</ele>
        <time>2010-01-01T11:47:10Z</time>
      </trkpt>
      <trkpt lat="42.34588" lon="2.68183">
        <ele>483</ele>
        <time>2010-01-01T11:47:14Z</time>
      </trkpt>
      <trkpt lat="42.34588" lon="2.68174">
        <ele>484</ele>
        <time>2010-01-01T11:47:21Z</time>
      </trkpt>
      <trkpt lat="42.34588" lon="2.68165">
        <ele>485</ele>
        <time>2010-01-01T11:47:27Z</time>
      </trkpt>
      <trkpt lat="42.34589" lon="2.68157">
        <ele>486</ele>
        <time>2010-01-01T11:47:34Z</time>
      </trkpt>
      <trkpt lat="42.34592" lon="2.68149">
        <ele>488</ele>
        <time>2010-01-01T11:47:40Z</time>
      </trkpt>
      <trkpt lat="42.34598" lon="2.68141">
        <ele>493</ele>
        <time>2010-01-01T11:47:49Z</time>
      </trkpt>
      <trkpt lat="42.34602" lon="2.68132">
        <ele>496</ele>
        <time>2010-01-01T11:47:57Z</time>
      </trkpt>
      <trkpt lat="42.34602" lon="2.68121">
        <ele>497</ele>
        <time>2010-01-01T11:48:05Z</time>
      </trkpt>
      <trkpt lat="42.34601" lon="2.68111">
        <ele>497</ele>
        <time>2010-01-01T11:48:13Z</time>
      </trkpt>
      <trkpt lat="42.34599" lon="2.68101">
        <ele>498</ele>
        <time>2010-01-01T11:48:20Z</time>
      </trkpt>
      <trkpt lat="42.346" lon="2.68095">
        <ele>499</ele>
        <time>2010-01-01T11:48:25Z</time>
      </trkpt>
      <trkpt lat="42.34602" lon="2.68086">
        <ele>501</ele>
        <time>2010-01-01T11:48:31Z</time>
      </trkpt>
      <trkpt lat="42.34608" lon="2.6808">
        <ele>504</ele>
        <time>2010-01-01T11:48:39Z</time>
      </trkpt>
      <trkpt lat="42.34614" lon="2.6808">
        <ele>506</ele>
        <time>2010-01-01T11:48:45Z</time>
      </trkpt>
      <trkpt lat="42.34621" lon="2.68075">
        <ele>508</ele>
        <time>2010-01-01T11:48:53Z</time>
      </trkpt>
      <trkpt lat="42.34627" lon="2.68071">
        <ele>509</ele>
        <time>2010-01-01T11:48:59Z</time>
      </trkpt>
      <trkpt lat="42.34629" lon="2.68071">
        <ele>510</ele>
        <time>2010-01-01T11:49:02Z</time>
      </trkpt>
      <trkpt lat="42.34635" lon="2.68081">
        <ele>511</ele>
        <time>2010-01-01T11:49:11Z</time>
      </trkpt>
      <trkpt lat="42.34636" lon="2.68081">
        <ele>511</ele>
        <time>2010-01-01T11:49:11Z</time>
      </trkpt>
      <trkpt lat="42.34631" lon="2.6807">
        <ele>510</ele>
        <time>2010-01-01T11:49:21Z</time>
      </trkpt>
      <trkpt lat="42.34625" lon="2.68067">
        <ele>509</ele>
        <time>2010-01-01T11:49:28Z</time>
      </trkpt>
      <trkpt lat="42.34625" lon="2.68058">
        <ele>510</ele>
        <time>2010-01-01T11:49:34Z</time>
      </trkpt>
      <trkpt lat="42.34629" lon="2.68053">
        <ele>510</ele>
        <time>2010-01-01T11:49:40Z</time>
      </trkpt>
      <trkpt lat="42.34629" lon="2.68062">
        <ele>510</ele>
        <time>2010-01-01T11:49:47Z</time>
      </trkpt>
      <trkpt lat="42.34634" lon="2.68078">
        <ele>510</ele>
        <time>2010-01-01T11:49:59Z</time>
      </trkpt>
      <trkpt lat="42.34641" lon="2.68078">
        <ele>512</ele>
        <time>2010-01-01T11:50:05Z</time>
      </trkpt>
      <trkpt lat="42.34647" lon="2.68076">
        <ele>513</ele>
        <time>2010-01-01T11:50:12Z</time>
      </trkpt>
      <trkpt lat="42.34658" lon="2.68087">
        <ele>514</ele>
        <time>2010-01-01T11:50:26Z</time>
      </trkpt>
      <trkpt lat="42.34664" lon="2.68092">
        <ele>515</ele>
        <time>2010-01-01T11:50:33Z</time>
      </trkpt>
      <trkpt lat="42.34673" lon="2.68091">
        <ele>517</ele>
        <time>2010-01-01T11:50:42Z</time>
      </trkpt>
      <trkpt lat="42.34681" lon="2.68099">
        <ele>519</ele>
        <time>2010-01-01T11:50:52Z</time>
      </trkpt>
      <trkpt lat="42.34689" lon="2.68106">
        <ele>520</ele>
        <time>2010-01-01T11:51:02Z</time>
      </trkpt>
      <trkpt lat="42.34692" lon="2.68111">
        <ele>521</ele>
        <time>2010-01-01T11:51:07Z</time>
      </trkpt>
      <trkpt lat="42.34701" lon="2.68116">
        <ele>524</ele>
        <time>2010-01-01T11:51:16Z</time>
      </trkpt>
      <trkpt lat="42.34711" lon="2.68116">
        <ele>527</ele>
        <time>2010-01-01T11:51:27Z</time>
      </trkpt>
      <trkpt lat="42.34718" lon="2.68125">
        <ele>529</ele>
        <time>2010-01-01T11:51:36Z</time>
      </trkpt>
      <trkpt lat="42.34725" lon="2.68129">
        <ele>532</ele>
        <time>2010-01-01T11:51:43Z</time>
      </trkpt>
      <trkpt lat="42.3473" lon="2.68127">
        <ele>535</ele>
        <time>2010-01-01T11:51:48Z</time>
      </trkpt>
      <trkpt lat="42.34735" lon="2.68129">
        <ele>539</ele>
        <time>2010-01-01T11:51:54Z</time>
      </trkpt>
      <trkpt lat="42.34743" lon="2.68134">
        <ele>544</ele>
        <time>2010-01-01T11:52:02Z</time>
      </trkpt>
      <trkpt lat="42.34746" lon="2.68142">
        <ele>547</ele>
        <time>2010-01-01T11:52:09Z</time>
      </trkpt>
      <trkpt lat="42.34752" lon="2.68147">
        <ele>551</ele>
        <time>2010-01-01T11:52:16Z</time>
      </trkpt>
      <trkpt lat="42.34755" lon="2.68153">
        <ele>554</ele>
        <time>2010-01-01T11:52:21Z</time>
      </trkpt>
      <trkpt lat="42.34762" lon="2.68155">
        <ele>558</ele>
        <time>2010-01-01T11:52:28Z</time>
      </trkpt>
      <trkpt lat="42.34768" lon="2.68154">
        <ele>562</ele>
        <time>2010-01-01T11:52:35Z</time>
      </trkpt>
      <trkpt lat="42.34773" lon="2.68152">
        <ele>564</ele>
        <time>2010-01-01T11:52:39Z</time>
      </trkpt>
      <trkpt lat="42.34777" lon="2.68149">
        <ele>567</ele>
        <time>2010-01-01T11:52:44Z</time>
      </trkpt>
      <trkpt lat="42.34782" lon="2.68152">
        <ele>569</ele>
        <time>2010-01-01T11:52:49Z</time>
      </trkpt>
      <trkpt lat="42.34787" lon="2.6815">
        <ele>571</ele>
        <time>2010-01-01T11:52:54Z</time>
      </trkpt>
      <trkpt lat="42.3479" lon="2.68144">
        <ele>572</ele>
        <time>2010-01-01T11:53:00Z</time>
      </trkpt>
      <trkpt lat="42.34794" lon="2.68134">
        <ele>573</ele>
        <time>2010-01-01T11:53:09Z</time>
      </trkpt>
      <trkpt lat="42.34799" lon="2.68131">
        <ele>574</ele>
        <time>2010-01-01T11:53:14Z</time>
      </trkpt>
      <trkpt lat="42.34804" lon="2.68135">
        <ele>577</ele>
        <time>2010-01-01T11:53:20Z</time>
      </trkpt>
      <trkpt lat="42.34808" lon="2.68139">
        <ele>579</ele>
        <time>2010-01-01T11:53:24Z</time>
      </trkpt>
      <trkpt lat="42.3481" lon="2.68147">
        <ele>580</ele>
        <time>2010-01-01T11:53:30Z</time>
      </trkpt>
      <trkpt lat="42.34813" lon="2.68152">
        <ele>582</ele>
        <time>2010-01-01T11:53:35Z</time>
      </trkpt>
      <trkpt lat="42.34817" lon="2.68149">
        <ele>583</ele>
        <time>2010-01-01T11:53:40Z</time>
      </trkpt>
      <trkpt lat="42.34818" lon="2.68141">
        <ele>583</ele>
        <time>2010-01-01T11:53:46Z</time>
      </trkpt>
      <trkpt lat="42.34818" lon="2.68134">
        <ele>584</ele>
        <time>2010-01-01T11:53:51Z</time>
      </trkpt>
      <trkpt lat="42.3482" lon="2.68126">
        <ele>585</ele>
        <time>2010-01-01T11:53:57Z</time>
      </trkpt>
      <trkpt lat="42.3482" lon="2.68119">
        <ele>585</ele>
        <time>2010-01-01T11:54:02Z</time>
      </trkpt>
      <trkpt lat="42.34828" lon="2.68126">
        <ele>588</ele>
        <time>2010-01-01T11:54:11Z</time>
      </trkpt>
      <trkpt lat="42.34832" lon="2.68126">
        <ele>591</ele>
        <time>2010-01-01T11:54:16Z</time>
      </trkpt>
      <trkpt lat="42.34835" lon="2.68123">
        <ele>592</ele>
        <time>2010-01-01T11:54:19Z</time>
      </trkpt>
      <trkpt lat="42.34836" lon="2.68117">
        <ele>594</ele>
        <time>2010-01-01T11:54:24Z</time>
      </trkpt>
      <trkpt lat="42.34836" lon="2.68117">
        <ele>594</ele>
        <time>2010-01-01T11:54:24Z</time>
      </trkpt>
      <trkpt lat="42.34842" lon="2.68107">
        <ele>598</ele>
        <time>2010-01-01T11:54:33Z</time>
      </trkpt>
      <trkpt lat="42.34842" lon="2.68107">
        <ele>598</ele>
        <time>2010-01-01T11:54:33Z</time>
      </trkpt>
      <trkpt lat="42.34851" lon="2.68108">
        <ele>604</ele>
        <time>2010-01-01T11:54:43Z</time>
      </trkpt>
      <trkpt lat="42.34857" lon="2.68106">
        <ele>607</ele>
        <time>2010-01-01T11:54:49Z</time>
      </trkpt>
      <trkpt lat="42.34864" lon="2.68108">
        <ele>611</ele>
        <time>2010-01-01T11:54:56Z</time>
      </trkpt>
      <trkpt lat="42.34863" lon="2.68105">
        <ele>611</ele>
        <time>2010-01-01T11:54:58Z</time>
      </trkpt>
      <trkpt lat="42.34868" lon="2.68103">
        <ele>614</ele>
        <time>2010-01-01T11:55:03Z</time>
      </trkpt>
      <trkpt lat="42.34874" lon="2.68102">
        <ele>617</ele>
        <time>2010-01-01T11:55:10Z</time>
      </trkpt>
      <trkpt lat="42.34878" lon="2.681">
        <ele>619</ele>
        <time>2010-01-01T11:55:14Z</time>
      </trkpt>
      <trkpt lat="42.34883" lon="2.68104">
        <ele>621</ele>
        <time>2010-01-01T11:55:19Z</time>
      </trkpt>
      <trkpt lat="42.34888" lon="2.68107">
        <ele>624</ele>
        <time>2010-01-01T11:55:24Z</time>
      </trkpt>
      <trkpt lat="42.3489" lon="2.68106">
        <ele>625</ele>
        <time>2010-01-01T11:55:27Z</time>
      </trkpt>
      <trkpt lat="42.34898" lon="2.68099">
        <ele>626</ele>
        <time>2010-01-01T11:55:36Z</time>
      </trkpt>
      <trkpt lat="42.34899" lon="2.68098">
        <ele>627</ele>
        <time>2010-01-01T11:55:38Z</time>
      </trkpt>
      <trkpt lat="42.34894" lon="2.68089">
        <ele>625</ele>
        <time>2010-01-01T11:55:47Z</time>
      </trkpt>
      <trkpt lat="42.34893" lon="2.68088">
        <ele>625</ele>
        <time>2010-01-01T11:55:47Z</time>
      </trkpt>
      <trkpt lat="42.34902" lon="2.68085">
        <ele>627</ele>
        <time>2010-01-01T11:55:57Z</time>
      </trkpt>
      <trkpt lat="42.34904" lon="2.68085">
        <ele>628</ele>
        <time>2010-01-01T11:55:58Z</time>
      </trkpt>
      <trkpt lat="42.34913" lon="2.6809">
        <ele>630</ele>
        <time>2010-01-01T11:56:08Z</time>
      </trkpt>
      <trkpt lat="42.34913" lon="2.6809">
        <ele>631</ele>
        <time>2010-01-01T11:56:09Z</time>
      </trkpt>
      <trkpt lat="42.34917" lon="2.68102">
        <ele>632</ele>
        <time>2010-01-01T11:56:18Z</time>
      </trkpt>
      <trkpt lat="42.34925" lon="2.68107">
        <ele>632</ele>
        <time>2010-01-01T11:56:27Z</time>
      </trkpt>
      <trkpt lat="42.34941" lon="2.68112">
        <ele>635</ele>
        <time>2010-01-01T11:56:44Z</time>
      </trkpt>
      <trkpt lat="42.34947" lon="2.68116">
        <ele>636</ele>
        <time>2010-01-01T11:56:50Z</time>
      </trkpt>
      <trkpt lat="42.34951" lon="2.68121">
        <ele>637</ele>
        <time>2010-01-01T11:56:56Z</time>
      </trkpt>
      <trkpt lat="42.34955" lon="2.68129">
        <ele>639</ele>
        <time>2010-01-01T11:57:03Z</time>
      </trkpt>
      <trkpt lat="42.34954" lon="2.6813">
        <ele>639</ele>
        <time>2010-01-01T11:57:03Z</time>
      </trkpt>
      <trkpt lat="42.3496" lon="2.68139">
        <ele>642</ele>
        <time>2010-01-01T11:57:12Z</time>
      </trkpt>
      <trkpt lat="42.34967" lon="2.68151">
        <ele>647</ele>
        <time>2010-01-01T11:57:24Z</time>
      </trkpt>
      <trkpt lat="42.34971" lon="2.68164">
        <ele>651</ele>
        <time>2010-01-01T11:57:34Z</time>
      </trkpt>
      <trkpt lat="42.34973" lon="2.68171">
        <ele>654</ele>
        <time>2010-01-01T11:57:39Z</time>
      </trkpt>
      <trkpt lat="42.34976" lon="2.68186">
        <ele>658</ele>
        <time>2010-01-01T11:57:51Z</time>
      </trkpt>
      <trkpt lat="42.34975" lon="2.68195">
        <ele>661</ele>
        <time>2010-01-01T11:57:58Z</time>
      </trkpt>
      <trkpt lat="42.34977" lon="2.68201">
        <ele>662</ele>
        <time>2010-01-01T11:58:02Z</time>
      </trkpt>
      <trkpt lat="42.34979" lon="2.68207">
        <ele>663</ele>
        <time>2010-01-01T11:58:07Z</time>
      </trkpt>
      <trkpt lat="42.34987" lon="2.68214">
        <ele>666</ele>
        <time>2010-01-01T11:58:17Z</time>
      </trkpt>
      <trkpt lat="42.34987" lon="2.68221">
        <ele>667</ele>
        <time>2010-01-01T11:58:21Z</time>
      </trkpt>
      <trkpt lat="42.34989" lon="2.68227">
        <ele>669</ele>
        <time>2010-01-01T11:58:27Z</time>
      </trkpt>
      <trkpt lat="42.34998" lon="2.68234">
        <ele>670</ele>
        <time>2010-01-01T11:58:36Z</time>
      </trkpt>
      <trkpt lat="42.35002" lon="2.68238">
        <ele>671</ele>
        <time>2010-01-01T11:58:41Z</time>
      </trkpt>
      <trkpt lat="42.35004" lon="2.68247">
        <ele>672</ele>
        <time>2010-01-01T11:58:48Z</time>
      </trkpt>
      <trkpt lat="42.35002" lon="2.68256">
        <ele>673</ele>
        <time>2010-01-01T11:58:55Z</time>
      </trkpt>
      <trkpt lat="42.35001" lon="2.68262">
        <ele>674</ele>
        <time>2010-01-01T11:58:59Z</time>
      </trkpt>
      <trkpt lat="42.34999" lon="2.68271">
        <ele>676</ele>
        <time>2010-01-01T11:59:07Z</time>
      </trkpt>
      <trkpt lat="42.34996" lon="2.68279">
        <ele>678</ele>
        <time>2010-01-01T11:59:13Z</time>
      </trkpt>
      <trkpt lat="42.34994" lon="2.68286">
        <ele>680</ele>
        <time>2010-01-01T11:59:18Z</time>
      </trkpt>
      <trkpt lat="42.34996" lon="2.68293">
        <ele>682</ele>
        <time>2010-01-01T11:59:24Z</time>
      </trkpt>
      <trkpt lat="42.34997" lon="2.68302">
        <ele>684</ele>
        <time>2010-01-01T11:59:31Z</time>
      </trkpt>
      <trkpt lat="42.34998" lon="2.68309">
        <ele>686</ele>
        <time>2010-01-01T11:59:36Z</time>
      </trkpt>
      <trkpt lat="42.35003" lon="2.6832">
        <ele>687</ele>
        <time>2010-01-01T11:59:46Z</time>
      </trkpt>
      <trkpt lat="42.35004" lon="2.68328">
        <ele>689</ele>
        <time>2010-01-01T11:59:52Z</time>
      </trkpt>
      <trkpt lat="42.3501" lon="2.68342">
        <ele>691</ele>
        <time>2010-01-01T12:00:03Z</time>
      </trkpt>
      <trkpt lat="42.35009" lon="2.68349">
        <ele>693</ele>
        <time>2010-01-01T12:00:09Z</time>
      </trkpt>
      <trkpt lat="42.35006" lon="2.68359">
        <ele>696</ele>
        <time>2010-01-01T12:00:17Z</time>
      </trkpt>
      <trkpt lat="42.35003" lon="2.68366">
        <ele>698</ele>
        <time>2010-01-01T12:00:23Z</time>
      </trkpt>
      <trkpt lat="42.35004" lon="2.68377">
        <ele>699</ele>
        <time>2010-01-01T12:00:32Z</time>
      </trkpt>
      <trkpt lat="42.35002" lon="2.68383">
        <ele>700</ele>
        <time>2010-01-01T12:00:37Z</time>
      </trkpt>
      <trkpt lat="42.35002" lon="2.68397">
        <ele>703</ele>
        <time>2010-01-01T12:00:47Z</time>
      </trkpt>
      <trkpt lat="42.35008" lon="2.68401">
        <ele>705</ele>
        <time>2010-01-01T12:00:53Z</time>
      </trkpt>
      <trkpt lat="42.35013" lon="2.68411">
        <ele>708</ele>
        <time>2010-01-01T12:01:02Z</time>
      </trkpt>
      <trkpt lat="42.35015" lon="2.68418">
        <ele>710</ele>
        <time>2010-01-01T12:01:07Z</time>
      </trkpt>
      <trkpt lat="42.35021" lon="2.68429">
        <ele>714</ele>
        <time>2010-01-01T12:01:18Z</time>
      </trkpt>
      <trkpt lat="42.35025" lon="2.68436">
        <ele>717</ele>
        <time>2010-01-01T12:01:24Z</time>
      </trkpt>
      <trkpt lat="42.35029" lon="2.68447">
        <ele>720</ele>
        <time>2010-01-01T12:01:34Z</time>
      </trkpt>
      <trkpt lat="42.3503" lon="2.68456">
        <ele>722</ele>
        <time>2010-01-01T12:01:40Z</time>
      </trkpt>
      <trkpt lat="42.35027" lon="2.68467">
        <ele>723</ele>
        <time>2010-01-01T12:01:49Z</time>
      </trkpt>
      <trkpt lat="42.35032" lon="2.68469">
        <ele>725</ele>
        <time>2010-01-01T12:01:54Z</time>
      </trkpt>
      <trkpt lat="42.35031" lon="2.6848">
        <ele>726</ele>
        <time>2010-01-01T12:02:01Z</time>
      </trkpt>
      <trkpt lat="42.35032" lon="2.68488">
        <ele>727</ele>
        <time>2010-01-01T12:02:07Z</time>
      </trkpt>
      <trkpt lat="42.35036" lon="2.68493">
        <ele>728</ele>
        <time>2010-01-01T12:02:13Z</time>
      </trkpt>
      <trkpt lat="42.35039" lon="2.68498">
        <ele>730</ele>
        <time>2010-01-01T12:02:18Z</time>
      </trkpt>
      <trkpt lat="42.35043" lon="2.68503">
        <ele>732</ele>
        <time>2010-01-01T12:02:23Z</time>
      </trkpt>
      <trkpt lat="42.35046" lon="2.68509">
        <ele>734</ele>
        <time>2010-01-01T12:02:29Z</time>
      </trkpt>
      <trkpt lat="42.35049" lon="2.68518">
        <ele>737</ele>
        <time>2010-01-01T12:02:36Z</time>
      </trkpt>
      <trkpt lat="42.35051" lon="2.68529">
        <ele>740</ele>
        <time>2010-01-01T12:02:44Z</time>
      </trkpt>
      <trkpt lat="42.35054" lon="2.68533">
        <ele>742</ele>
        <time>2010-01-01T12:02:48Z</time>
      </trkpt>
      <trkpt lat="42.35062" lon="2.68536">
        <ele>745</ele>
        <time>2010-01-01T12:02:57Z</time>
      </trkpt>
      <trkpt lat="42.3507" lon="2.68543">
        <ele>748</ele>
        <time>2010-01-01T12:03:06Z</time>
      </trkpt>
      <trkpt lat="42.35078" lon="2.68544">
        <ele>749</ele>
        <time>2010-01-01T12:03:14Z</time>
      </trkpt>
      <trkpt lat="42.35083" lon="2.68545">
        <ele>750</ele>
        <time>2010-01-01T12:03:19Z</time>
      </trkpt>
      <trkpt lat="42.35088" lon="2.68546">
        <ele>751</ele>
        <time>2010-01-01T12:03:25Z</time>
      </trkpt>
      <trkpt lat="42.35093" lon="2.6855">
        <ele>753</ele>
        <time>2010-01-01T12:03:30Z</time>
      </trkpt>
      <trkpt lat="42.35094" lon="2.68551">
        <ele>754</ele>
        <time>2010-01-01T12:03:32Z</time>
      </trkpt>
      <trkpt lat="42.35103" lon="2.68556">
        <ele>757</ele>
        <time>2010-01-01T12:03:41Z</time>
      </trkpt>
      <trkpt lat="42.35107" lon="2.68558">
        <ele>759</ele>
        <time>2010-01-01T12:03:46Z</time>
      </trkpt>
      <trkpt lat="42.35113" lon="2.6856">
        <ele>761</ele>
        <time>2010-01-01T12:03:51Z</time>
      </trkpt>
      <trkpt lat="42.35121" lon="2.68564">
        <ele>763</ele>
        <time>2010-01-01T12:04:00Z</time>
      </trkpt>
      <trkpt lat="42.35127" lon="2.68564">
        <ele>764</ele>
        <time>2010-01-01T12:04:07Z</time>
      </trkpt>
      <trkpt lat="42.35135" lon="2.6857">
        <ele>766</ele>
        <time>2010-01-01T12:04:16Z</time>
      </trkpt>
      <trkpt lat="42.3514" lon="2.68577">
        <ele>767</ele>
        <time>2010-01-01T12:04:23Z</time>
      </trkpt>
      <trkpt lat="42.35148" lon="2.68584">
        <ele>768</ele>
        <time>2010-01-01T12:04:32Z</time>
      </trkpt>
      <trkpt lat="42.35147" lon="2.68588">
        <ele>768</ele>
        <time>2010-01-01T12:04:35Z</time>
      </trkpt>
      <trkpt lat="42.35153" lon="2.68597">
        <ele>767</ele>
        <time>2010-01-01T12:04:44Z</time>
      </trkpt>
      <trkpt lat="42.35151" lon="2.6861">
        <ele>768</ele>
        <time>2010-01-01T12:04:54Z</time>
      </trkpt>
      <trkpt lat="42.35151" lon="2.68611">
        <ele>768</ele>
        <time>2010-01-01T12:04:54Z</time>
      </trkpt>
      <trkpt lat="42.35147" lon="2.68615">
        <ele>768</ele>
        <time>2010-01-01T12:04:59Z</time>
      </trkpt>
      <trkpt lat="42.35139" lon="2.68622">
        <ele>769</ele>
        <time>2010-01-01T12:05:08Z</time>
      </trkpt>
      <trkpt lat="42.35133" lon="2.68632">
        <ele>769</ele>
        <time>2010-01-01T12:05:18Z</time>
      </trkpt>
      <trkpt lat="42.35127" lon="2.68646">
        <ele>770</ele>
        <time>2010-01-01T12:05:30Z</time>
      </trkpt>
      <trkpt lat="42.35122" lon="2.68653">
        <ele>772</ele>
        <time>2010-01-01T12:05:37Z</time>
      </trkpt>
      <trkpt lat="42.35117" lon="2.68664">
        <ele>774</ele>
        <time>2010-01-01T12:05:47Z</time>
      </trkpt>
      <trkpt lat="42.35113" lon="2.68671">
        <ele>775</ele>
        <time>2010-01-01T12:05:53Z</time>
      </trkpt>
      <trkpt lat="42.35108" lon="2.68677">
        <ele>777</ele>
        <time>2010-01-01T12:06:00Z</time>
      </trkpt>
      <trkpt lat="42.35105" lon="2.68684">
        <ele>778</ele>
        <time>2010-01-01T12:06:06Z</time>
      </trkpt>
      <trkpt lat="42.35099" lon="2.68694">
        <ele>782</ele>
        <time>2010-01-01T12:06:15Z</time>
      </trkpt>
      <trkpt lat="42.35096" lon="2.68706">
        <ele>783</ele>
        <time>2010-01-01T12:06:25Z</time>
      </trkpt>
      <trkpt lat="42.35097" lon="2.68719">
        <ele>782</ele>
        <time>2010-01-01T12:06:35Z</time>
      </trkpt>
      <trkpt lat="42.35092" lon="2.68724">
        <ele>785</ele>
        <time>2010-01-01T12:06:41Z</time>
      </trkpt>
      <trkpt lat="42.35086" lon="2.6873">
        <ele>788</ele>
        <time>2010-01-01T12:06:48Z</time>
      </trkpt>
      <trkpt lat="42.3508" lon="2.68746">
        <ele>789</ele>
        <time>2010-01-01T12:07:01Z</time>
      </trkpt>
      <trkpt lat="42.35081" lon="2.68747">
        <ele>788</ele>
        <time>2010-01-01T12:07:03Z</time>
      </trkpt>
      <trkpt lat="42.3508" lon="2.68753">
        <ele>787</ele>
        <time>2010-01-01T12:07:07Z</time>
      </trkpt>
      <trkpt lat="42.35077" lon="2.6876">
        <ele>788</ele>
        <time>2010-01-01T12:07:13Z</time>
      </trkpt>
      <trkpt lat="42.35074" lon="2.68767">
        <ele>788</ele>
        <time>2010-01-01T12:07:19Z</time>
      </trkpt>
      <trkpt lat="42.35067" lon="2.68778">
        <ele>791</ele>
        <time>2010-01-01T12:07:30Z</time>
      </trkpt>
      <trkpt lat="42.35065" lon="2.6878">
        <ele>792</ele>
        <time>2010-01-01T12:07:32Z</time>
      </trkpt>
      <trkpt lat="42.35066" lon="2.68792">
        <ele>787</ele>
        <time>2010-01-01T12:07:41Z</time>
      </trkpt>
      <trkpt lat="42.35061" lon="2.68808">
        <ele>786</ele>
        <time>2010-01-01T12:07:54Z</time>
      </trkpt>
      <trkpt lat="42.35061" lon="2.68819">
        <ele>783</ele>
        <time>2010-01-01T12:08:02Z</time>
      </trkpt>
      <trkpt lat="42.35057" lon="2.68824">
        <ele>784</ele>
        <time>2010-01-01T12:08:07Z</time>
      </trkpt>
      <trkpt lat="42.35055" lon="2.68832">
        <ele>783</ele>
        <time>2010-01-01T12:08:13Z</time>
      </trkpt>
      <trkpt lat="42.35053" lon="2.6884">
        <ele>781</ele>
        <time>2010-01-01T12:08:20Z</time>
      </trkpt>
      <trkpt lat="42.35053" lon="2.68844">
        <ele>780</ele>
        <time>2010-01-01T12:08:22Z</time>
      </trkpt>
      <trkpt lat="42.35049" lon="2.68847">
        <ele>781</ele>
        <time>2010-01-01T12:08:27Z</time>
      </trkpt>
      <trkpt lat="42.35039" lon="2.68844">
        <ele>786</ele>
        <time>2010-01-01T12:08:37Z</time>
      </trkpt>
      <trkpt lat="42.3503" lon="2.68849">
        <ele>789</ele>
        <time>2010-01-01T12:08:46Z</time>
      </trkpt>
      <trkpt lat="42.35023" lon="2.68855">
        <ele>789</ele>
        <time>2010-01-01T12:08:55Z</time>
      </trkpt>
      <trkpt lat="42.35014" lon="2.68858">
        <ele>790</ele>
        <time>2010-01-01T12:09:04Z</time>
      </trkpt>
      <trkpt lat="42.35005" lon="2.68866">
        <ele>789</ele>
        <time>2010-01-01T12:09:14Z</time>
      </trkpt>
      <trkpt lat="42.34998" lon="2.68873">
        <ele>789</ele>
        <time>2010-01-01T12:09:24Z</time>
      </trkpt>
      <trkpt lat="42.34991" lon="2.68882">
        <ele>786</ele>
        <time>2010-01-01T12:09:33Z</time>
      </trkpt>
      <trkpt lat="42.34983" lon="2.68891">
        <ele>783</ele>
        <time>2010-01-01T12:09:44Z</time>
      </trkpt>
      <trkpt lat="42.34975" lon="2.68896">
        <ele>782</ele>
        <time>2010-01-01T12:09:53Z</time>
      </trkpt>
      <trkpt lat="42.3497" lon="2.68904">
        <ele>780</ele>
        <time>2010-01-01T12:10:00Z</time>
      </trkpt>
      <trkpt lat="42.34966" lon="2.68913">
        <ele>779</ele>
        <time>2010-01-01T12:10:08Z</time>
      </trkpt>
      <trkpt lat="42.34966" lon="2.6892">
        <ele>779</ele>
        <time>2010-01-01T12:10:13Z</time>
      </trkpt>
      <trkpt lat="42.34968" lon="2.68932">
        <ele>780</ele>
        <time>2010-01-01T12:10:22Z</time>
      </trkpt>
      <trkpt lat="42.34968" lon="2.68942">
        <ele>781</ele>
        <time>2010-01-01T12:10:29Z</time>
      </trkpt>
      <trkpt lat="42.34969" lon="2.68949">
        <ele>782</ele>
        <time>2010-01-01T12:10:35Z</time>
      </trkpt>
      <trkpt lat="42.34965" lon="2.68957">
        <ele>781</ele>
        <time>2010-01-01T12:10:42Z</time>
      </trkpt>
      <trkpt lat="42.3496" lon="2.68962">
        <ele>780</ele>
        <time>2010-01-01T12:10:48Z</time>
      </trkpt>
      <trkpt lat="42.34957" lon="2.68969">
        <ele>780</ele>
        <time>2010-01-01T12:10:54Z</time>
      </trkpt>
      <trkpt lat="42.34956" lon="2.6898">
        <ele>784</ele>
        <time>2010-01-01T12:11:02Z</time>
      </trkpt>
      <trkpt lat="42.34957" lon="2.68989">
        <ele>788</ele>
        <time>2010-01-01T12:11:09Z</time>
      </trkpt>
      <trkpt lat="42.34964" lon="2.68993">
        <ele>789</ele>
        <time>2010-01-01T12:11:17Z</time>
      </trkpt>
      <trkpt lat="42.34955" lon="2.69001">
        <ele>793</ele>
        <time>2010-01-01T12:11:28Z</time>
      </trkpt>
      <trkpt lat="42.34954" lon="2.69009">
        <ele>798</ele>
        <time>2010-01-01T12:11:34Z</time>
      </trkpt>
      <trkpt lat="42.34957" lon="2.69011">
        <ele>798</ele>
        <time>2010-01-01T12:11:37Z</time>
      </trkpt>
      <trkpt lat="42.34962" lon="2.69012">
        <ele>798</ele>
        <time>2010-01-01T12:11:42Z</time>
      </trkpt>
      <trkpt lat="42.34965" lon="2.69018">
        <ele>801</ele>
        <time>2010-01-01T12:11:47Z</time>
      </trkpt>
      <trkpt lat="42.34955" lon="2.69018">
        <ele>802</ele>
        <time>2010-01-01T12:11:57Z</time>
      </trkpt>
      <trkpt lat="42.34954" lon="2.69015">
        <ele>801</ele>
        <time>2010-01-01T12:11:59Z</time>
      </trkpt>
      <trkpt lat="42.34956" lon="2.69025">
        <ele>806</ele>
        <time>2010-01-01T12:12:06Z</time>
      </trkpt>
      <trkpt lat="42.34952" lon="2.69014">
        <ele>801</ele>
        <time>2010-01-01T12:12:15Z</time>
      </trkpt>
      <trkpt lat="42.34949" lon="2.69006">
        <ele>797</ele>
        <time>2010-01-01T12:12:22Z</time>
      </trkpt>
      <trkpt lat="42.34943" lon="2.69006">
        <ele>797</ele>
        <time>2010-01-01T12:12:27Z</time>
      </trkpt>
      <trkpt lat="42.34941" lon="2.68999">
        <ele>792</ele>
        <time>2010-01-01T12:12:33Z</time>
      </trkpt>
      <trkpt lat="42.34942" lon="2.68995">
        <ele>790</ele>
        <time>2010-01-01T12:12:36Z</time>
      </trkpt>
      <trkpt lat="42.34947" lon="2.68991">
        <ele>789</ele>
        <time>2010-01-01T12:12:42Z</time>
      </trkpt>
      <trkpt lat="42.34946" lon="2.68993">
        <ele>789</ele>
        <time>2010-01-01T12:12:43Z</time>
      </trkpt>
      <trkpt lat="42.34951" lon="2.6899">
        <ele>788</ele>
        <time>2010-01-01T12:12:48Z</time>
      </trkpt>
      <trkpt lat="42.34956" lon="2.68987">
        <ele>787</ele>
        <time>2010-01-01T12:12:53Z</time>
      </trkpt>
      <trkpt lat="42.3496" lon="2.68981">
        <ele>785</ele>
        <time>2010-01-01T12:12:59Z</time>
      </trkpt>
      <trkpt lat="42.34952" lon="2.68982">
        <ele>784</ele>
        <time>2010-01-01T12:13:07Z</time>
      </trkpt>
      <trkpt lat="42.34947" lon="2.68983">
        <ele>785</ele>
        <time>2010-01-01T12:13:13Z</time>
      </trkpt>
      <trkpt lat="42.34947" lon="2.68977">
        <ele>781</ele>
        <time>2010-01-01T12:13:17Z</time>
      </trkpt>
      <trkpt lat="42.34952" lon="2.68972">
        <ele>780</ele>
        <time>2010-01-01T12:13:24Z</time>
      </trkpt>
      <trkpt lat="42.34959" lon="2.68969">
        <ele>781</ele>
        <time>2010-01-01T12:13:31Z</time>
      </trkpt>
      <trkpt lat="42.3496" lon="2.68969">
        <ele>781</ele>
        <time>2010-01-01T12:13:31Z</time>
      </trkpt>
      <trkpt lat="42.34965" lon="2.68968">
        <ele>782</ele>
        <time>2010-01-01T12:13:37Z</time>
      </trkpt>
      <trkpt lat="42.3496" lon="2.68962">
        <ele>781</ele>
        <time>2010-01-01T12:13:43Z</time>
      </trkpt>
      <trkpt lat="42.34957" lon="2.68953">
        <ele>779</ele>
        <time>2010-01-01T12:13:50Z</time>
      </trkpt>
      <trkpt lat="42.3496" lon="2.68945">
        <ele>779</ele>
        <time>2010-01-01T12:13:57Z</time>
      </trkpt>
      <trkpt lat="42.34966" lon="2.68949">
        <ele>781</ele>
        <time>2010-01-01T12:14:03Z</time>
      </trkpt>
      <trkpt lat="42.3497" lon="2.68946">
        <ele>782</ele>
        <time>2010-01-01T12:14:08Z</time>
      </trkpt>
      <trkpt lat="42.3497" lon="2.68938">
        <ele>781</ele>
        <time>2010-01-01T12:14:14Z</time>
      </trkpt>
      <trkpt lat="42.34971" lon="2.68928">
        <ele>781</ele>
        <time>2010-01-01T12:14:21Z</time>
      </trkpt>
      <trkpt lat="42.34971" lon="2.68916">
        <ele>780</ele>
        <time>2010-01-01T12:14:30Z</time>
      </trkpt>
      <trkpt lat="42.34972" lon="2.68914">
        <ele>781</ele>
        <time>2010-01-01T12:14:32Z</time>
      </trkpt>
      <trkpt lat="42.3498" lon="2.68904">
        <ele>782</ele>
        <time>2010-01-01T12:14:43Z</time>
      </trkpt>
      <trkpt lat="42.34992" lon="2.68892">
        <ele>785</ele>
        <time>2010-01-01T12:14:58Z</time>
      </trkpt>
      <trkpt lat="42.35" lon="2.68883">
        <ele>788</ele>
        <time>2010-01-01T12:15:09Z</time>
      </trkpt>
      <trkpt lat="42.35009" lon="2.68875">
        <ele>786</ele>
        <time>2010-01-01T12:15:19Z</time>
      </trkpt>
      <trkpt lat="42.35018" lon="2.68866">
        <ele>786</ele>
        <time>2010-01-01T12:15:30Z</time>
      </trkpt>
      <trkpt lat="42.35028" lon="2.6886">
        <ele>786</ele>
        <time>2010-01-01T12:15:41Z</time>
      </trkpt>
      <trkpt lat="42.35035" lon="2.68852">
        <ele>785</ele>
        <time>2010-01-01T12:15:50Z</time>
      </trkpt>
      <trkpt lat="42.35044" lon="2.68845">
        <ele>784</ele>
        <time>2010-01-01T12:16:00Z</time>
      </trkpt>
      <trkpt lat="42.3505" lon="2.68835">
        <ele>784</ele>
        <time>2010-01-01T12:16:10Z</time>
      </trkpt>
      <trkpt lat="42.35052" lon="2.68827">
        <ele>786</ele>
        <time>2010-01-01T12:16:16Z</time>
      </trkpt>
      <trkpt lat="42.35055" lon="2.68819">
        <ele>788</ele>
        <time>2010-01-01T12:16:23Z</time>
      </trkpt>
      <trkpt lat="42.35055" lon="2.6881">
        <ele>791</ele>
        <time>2010-01-01T12:16:30Z</time>
      </trkpt>
      <trkpt lat="42.35058" lon="2.68804">
        <ele>791</ele>
        <time>2010-01-01T12:16:35Z</time>
      </trkpt>
      <trkpt lat="42.35064" lon="2.68793">
        <ele>789</ele>
        <time>2010-01-01T12:16:45Z</time>
      </trkpt>
      <trkpt lat="42.35069" lon="2.68782">
        <ele>788</ele>
        <time>2010-01-01T12:16:55Z</time>
      </trkpt>
      <trkpt lat="42.35073" lon="2.68769">
        <ele>789</ele>
        <time>2010-01-01T12:17:05Z</time>
      </trkpt>
      <trkpt lat="42.35079" lon="2.68759">
        <ele>787</ele>
        <time>2010-01-01T12:17:14Z</time>
      </trkpt>
      <trkpt lat="42.35085" lon="2.68749">
        <ele>784</ele>
        <time>2010-01-01T12:17:24Z</time>
      </trkpt>
      <trkpt lat="42.35092" lon="2.68743">
        <ele>781</ele>
        <time>2010-01-01T12:17:33Z</time>
      </trkpt>
      <trkpt lat="42.35095" lon="2.68734">
        <ele>781</ele>
        <time>2010-01-01T12:17:40Z</time>
      </trkpt>
      <trkpt lat="42.35099" lon="2.68725">
        <ele>779</ele>
        <time>2010-01-01T12:17:48Z</time>
      </trkpt>
      <trkpt lat="42.35102" lon="2.68713">
        <ele>778</ele>
        <time>2010-01-01T12:17:57Z</time>
      </trkpt>
      <trkpt lat="42.35107" lon="2.68703">
        <ele>775</ele>
        <time>2010-01-01T12:18:06Z</time>
      </trkpt>
      <trkpt lat="42.3511" lon="2.68688">
        <ele>774</ele>
        <time>2010-01-01T12:18:17Z</time>
      </trkpt>
      <trkpt lat="42.35117" lon="2.68678">
        <ele>772</ele>
        <time>2010-01-01T12:18:28Z</time>
      </trkpt>
      <trkpt lat="42.35123" lon="2.68668">
        <ele>771</ele>
        <time>2010-01-01T12:18:37Z</time>
      </trkpt>
      <trkpt lat="42.35126" lon="2.68657">
        <ele>770</ele>
        <time>2010-01-01T12:18:46Z</time>
      </trkpt>
      <trkpt lat="42.35131" lon="2.68648">
        <ele>769</ele>
        <time>2010-01-01T12:18:54Z</time>
      </trkpt>
      <trkpt lat="42.35131" lon="2.68636">
        <ele>769</ele>
        <time>2010-01-01T12:19:03Z</time>
      </trkpt>
      <trkpt lat="42.35135" lon="2.68624">
        <ele>769</ele>
        <time>2010-01-01T12:19:13Z</time>
      </trkpt>
      <trkpt lat="42.35141" lon="2.68619">
        <ele>769</ele>
        <time>2010-01-01T12:19:20Z</time>
      </trkpt>
      <trkpt lat="42.3515" lon="2.68615">
        <ele>768</ele>
        <time>2010-01-01T12:19:29Z</time>
      </trkpt>
      <trkpt lat="42.35155" lon="2.68614">
        <ele>767</ele>
        <time>2010-01-01T12:19:35Z</time>
      </trkpt>
      <trkpt lat="42.35164" lon="2.68616">
        <ele>765</ele>
        <time>2010-01-01T12:19:44Z</time>
      </trkpt>
      <trkpt lat="42.35173" lon="2.6862">
        <ele>765</ele>
        <time>2010-01-01T12:19:53Z</time>
      </trkpt>
      <trkpt lat="42.35182" lon="2.68622">
        <ele>766</ele>
        <time>2010-01-01T12:20:02Z</time>
      </trkpt>
      <trkpt lat="42.35188" lon="2.6863">
        <ele>766</ele>
        <time>2010-01-01T12:20:11Z</time>
      </trkpt>
      <trkpt lat="42.35194" lon="2.68639">
        <ele>765</ele>
        <time>2010-01-01T12:20:20Z</time>
      </trkpt>
      <trkpt lat="42.35203" lon="2.68643">
        <ele>766</ele>
        <time>2010-01-01T12:20:29Z</time>
      </trkpt>
      <trkpt lat="42.3521" lon="2.6865">
        <ele>766</ele>
        <time>2010-01-01T12:20:38Z</time>
      </trkpt>
      <trkpt lat="42.35217" lon="2.68658">
        <ele>767</ele>
        <time>2010-01-01T12:20:47Z</time>
      </trkpt>
      <trkpt lat="42.35225" lon="2.68665">
        <ele>768</ele>
        <time>2010-01-01T12:20:57Z</time>
      </trkpt>
      <trkpt lat="42.35231" lon="2.68675">
        <ele>768</ele>
        <time>2010-01-01T12:21:06Z</time>
      </trkpt>
      <trkpt lat="42.35239" lon="2.6868">
        <ele>770</ele>
        <time>2010-01-01T12:21:16Z</time>
      </trkpt>
      <trkpt lat="42.35244" lon="2.68692">
        <ele>769</ele>
        <time>2010-01-01T12:21:25Z</time>
      </trkpt>
      <trkpt lat="42.35249" lon="2.687">
        <ele>768</ele>
        <time>2010-01-01T12:21:34Z</time>
      </trkpt>
      <trkpt lat="42.35257" lon="2.68707">
        <ele>769</ele>
        <time>2010-01-01T12:21:43Z</time>
      </trkpt>
      <trkpt lat="42.35265" lon="2.68714">
        <ele>770</ele>
        <time>2010-01-01T12:21:52Z</time>
      </trkpt>
      <trkpt lat="42.35272" lon="2.68718">
        <ele>772</ele>
        <time>2010-01-01T12:22:00Z</time>
      </trkpt>
      <trkpt lat="42.35281" lon="2.68721">
        <ele>775</ele>
        <time>2010-01-01T12:22:09Z</time>
      </trkpt>
      <trkpt lat="42.3529" lon="2.68726">
        <ele>776</ele>
        <time>2010-01-01T12:22:19Z</time>
      </trkpt>
      <trkpt lat="42.35298" lon="2.68732">
        <ele>777</ele>
        <time>2010-01-01T12:22:28Z</time>
      </trkpt>
      <trkpt lat="42.35303" lon="2.68743">
        <ele>776</ele>
        <time>2010-01-01T12:22:37Z</time>
      </trkpt>
      <trkpt lat="42.35308" lon="2.68749">
        <ele>776</ele>
        <time>2010-01-01T12:22:44Z</time>
      </trkpt>
      <trkpt lat="42.35315" lon="2.68755">
        <ele>775</ele>
        <time>2010-01-01T12:22:52Z</time>
      </trkpt>
      <trkpt lat="42.3532" lon="2.68757">
        <ele>776</ele>
        <time>2010-01-01T12:22:58Z</time>
      </trkpt>
      <trkpt lat="42.35329" lon="2.68761">
        <ele>778</ele>
        <time>2010-01-01T12:23:07Z</time>
      </trkpt>
      <trkpt lat="42.35334" lon="2.68771">
        <ele>776</ele>
        <time>2010-01-01T12:23:16Z</time>
      </trkpt>
      <trkpt lat="42.3534" lon="2.68774">
        <ele>778</ele>
        <time>2010-01-01T12:23:22Z</time>
      </trkpt>
      <trkpt lat="42.35345" lon="2.68785">
        <ele>777</ele>
        <time>2010-01-01T12:23:31Z</time>
      </trkpt>
      <trkpt lat="42.35352" lon="2.68795">
        <ele>777</ele>
        <time>2010-01-01T12:23:42Z</time>
      </trkpt>
      <trkpt lat="42.35358" lon="2.688">
        <ele>779</ele>
        <time>2010-01-01T12:23:49Z</time>
      </trkpt>
      <trkpt lat="42.35362" lon="2.68808">
        <ele>778</ele>
        <time>2010-01-01T12:23:56Z</time>
      </trkpt>
      <trkpt lat="42.35371" lon="2.68813">
        <ele>780</ele>
        <time>2010-01-01T12:24:06Z</time>
      </trkpt>
      <trkpt lat="42.35379" lon="2.68817">
        <ele>783</ele>
        <time>2010-01-01T12:24:15Z</time>
      </trkpt>
      <trkpt lat="42.35388" lon="2.6882">
        <ele>785</ele>
        <time>2010-01-01T12:24:24Z</time>
      </trkpt>
      <trkpt lat="42.35396" lon="2.68828">
        <ele>784</ele>
        <time>2010-01-01T12:24:34Z</time>
      </trkpt>
      <trkpt lat="42.35407" lon="2.68832">
        <ele>786</ele>
        <time>2010-01-01T12:24:45Z</time>
      </trkpt>
      <trkpt lat="42.35414" lon="2.68839">
        <ele>785</ele>
        <time>2010-01-01T12:24:54Z</time>
      </trkpt>
      <trkpt lat="42.3542" lon="2.68845">
        <ele>784</ele>
        <time>2010-01-01T12:25:01Z</time>
      </trkpt>
      <trkpt lat="42.35429" lon="2.68847">
        <ele>785</ele>
        <time>2010-01-01T12:25:11Z</time>
      </trkpt>
      <trkpt lat="42.3544" lon="2.68849">
        <ele>786</ele>
        <time>2010-01-01T12:25:21Z</time>
      </trkpt>
      <trkpt lat="42.35449" lon="2.6885">
        <ele>787</ele>
        <time>2010-01-01T12:25:31Z</time>
      </trkpt>
      <trkpt lat="42.35459" lon="2.68853">
        <ele>788</ele>
        <time>2010-01-01T12:25:41Z</time>
      </trkpt>
      <trkpt lat="42.35468" lon="2.68857">
        <ele>788</ele>
        <time>2010-01-01T12:25:50Z</time>
      </trkpt>
      <trkpt lat="42.35476" lon="2.68863">
        <ele>788</ele>
        <time>2010-01-01T12:26:00Z</time>
      </trkpt>
      <trkpt lat="42.35484" lon="2.68869">
        <ele>787</ele>
        <time>2010-01-01T12:26:09Z</time>
      </trkpt>
      <trkpt lat="42.35491" lon="2.6887">
        <ele>788</ele>
        <time>2010-01-01T12:26:15Z</time>
      </trkpt>
      <trkpt lat="42.35498" lon="2.68868">
        <ele>790</ele>
        <time>2010-01-01T12:26:22Z</time>
      </trkpt>
      <trkpt lat="42.35503" lon="2.6887">
        <ele>790</ele>
        <time>2010-01-01T12:26:28Z</time>
      </trkpt>
      <trkpt lat="42.35512" lon="2.68873">
        <ele>790</ele>
        <time>2010-01-01T12:26:37Z</time>
      </trkpt>
      <trkpt lat="42.35519" lon="2.68878">
        <ele>790</ele>
        <time>2010-01-01T12:26:45Z</time>
      </trkpt>
      <trkpt lat="42.35527" lon="2.6888">
        <ele>790</ele>
        <time>2010-01-01T12:26:53Z</time>
      </trkpt>
      <trkpt lat="42.35534" lon="2.68882">
        <ele>790</ele>
        <time>2010-01-01T12:27:00Z</time>
      </trkpt>
      <trkpt lat="42.35542" lon="2.68883">
        <ele>792</ele>
        <time>2010-01-01T12:27:08Z</time>
      </trkpt>
      <trkpt lat="42.35551" lon="2.68886">
        <ele>792</ele>
        <time>2010-01-01T12:27:18Z</time>
      </trkpt>
      <trkpt lat="42.35559" lon="2.68892">
        <ele>792</ele>
        <time>2010-01-01T12:27:27Z</time>
      </trkpt>
      <trkpt lat="42.35565" lon="2.68896">
        <ele>791</ele>
        <time>2010-01-01T12:27:33Z</time>
      </trkpt>
      <trkpt lat="42.35569" lon="2.68895">
        <ele>792</ele>
        <time>2010-01-01T12:27:38Z</time>
      </trkpt>
      <trkpt lat="42.35576" lon="2.68891">
        <ele>794</ele>
        <time>2010-01-01T12:27:46Z</time>
      </trkpt>
      <trkpt lat="42.35582" lon="2.68891">
        <ele>795</ele>
        <time>2010-01-01T12:27:51Z</time>
      </trkpt>
      <trkpt lat="42.35592" lon="2.68889">
        <ele>796</ele>
        <time>2010-01-01T12:28:01Z</time>
      </trkpt>
      <trkpt lat="42.35598" lon="2.68891">
        <ele>795</ele>
        <time>2010-01-01T12:28:08Z</time>
      </trkpt>
      <trkpt lat="42.35606" lon="2.68891">
        <ele>796</ele>
        <time>2010-01-01T12:28:16Z</time>
      </trkpt>
      <trkpt lat="42.35617" lon="2.6889">
        <ele>796</ele>
        <time>2010-01-01T12:28:27Z</time>
      </trkpt>
      <trkpt lat="42.35627" lon="2.6889">
        <ele>795</ele>
        <time>2010-01-01T12:28:36Z</time>
      </trkpt>
      <trkpt lat="42.35636" lon="2.6889">
        <ele>795</ele>
        <time>2010-01-01T12:28:45Z</time>
      </trkpt>
      <trkpt lat="42.35645" lon="2.68891">
        <ele>795</ele>
        <time>2010-01-01T12:28:55Z</time>
      </trkpt>
      <trkpt lat="42.35655" lon="2.68894">
        <ele>795</ele>
        <time>2010-01-01T12:29:05Z</time>
      </trkpt>
      <trkpt lat="42.35664" lon="2.68891">
        <ele>796</ele>
        <time>2010-01-01T12:29:14Z</time>
      </trkpt>
      <trkpt lat="42.35671" lon="2.68882">
        <ele>796</ele>
        <time>2010-01-01T12:29:23Z</time>
      </trkpt>
      <trkpt lat="42.35676" lon="2.68881">
        <ele>796</ele>
        <time>2010-01-01T12:29:29Z</time>
      </trkpt>
      <trkpt lat="42.35679" lon="2.68876">
        <ele>796</ele>
        <time>2010-01-01T12:29:33Z</time>
      </trkpt>
      <trkpt lat="42.35685" lon="2.68877">
        <ele>796</ele>
        <time>2010-01-01T12:29:40Z</time>
      </trkpt>
      <trkpt lat="42.35687" lon="2.68884">
        <ele>797</ele>
        <time>2010-01-01T12:29:45Z</time>
      </trkpt>
      <trkpt lat="42.35687" lon="2.68898">
        <ele>797</ele>
        <time>2010-01-01T12:29:55Z</time>
      </trkpt>
      <trkpt lat="42.3569" lon="2.68904">
        <ele>798</ele>
        <time>2010-01-01T12:30:01Z</time>
      </trkpt>
      <trkpt lat="42.35699" lon="2.68911">
        <ele>800</ele>
        <time>2010-01-01T12:30:10Z</time>
      </trkpt>
      <trkpt lat="42.35703" lon="2.68915">
        <ele>802</ele>
        <time>2010-01-01T12:30:16Z</time>
      </trkpt>
      <trkpt lat="42.35706" lon="2.68914">
        <ele>803</ele>
        <time>2010-01-01T12:30:18Z</time>
      </trkpt>
      <trkpt lat="42.35702" lon="2.68923">
        <ele>801</ele>
        <time>2010-01-01T12:30:25Z</time>
      </trkpt>
      <trkpt lat="42.35704" lon="2.68926">
        <ele>801</ele>
        <time>2010-01-01T12:30:28Z</time>
      </trkpt>
      <trkpt lat="42.35705" lon="2.6892">
        <ele>802</ele>
        <time>2010-01-01T12:30:33Z</time>
      </trkpt>
      <trkpt lat="42.35708" lon="2.68912">
        <ele>803</ele>
        <time>2010-01-01T12:30:40Z</time>
      </trkpt>
      <trkpt lat="42.35712" lon="2.68908">
        <ele>804</ele>
        <time>2010-01-01T12:30:45Z</time>
      </trkpt>
      <trkpt lat="42.35718" lon="2.68906">
        <ele>806</ele>
        <time>2010-01-01T12:30:51Z</time>
      </trkpt>
      <trkpt lat="42.35725" lon="2.68904">
        <ele>808</ele>
        <time>2010-01-01T12:30:58Z</time>
      </trkpt>
      <trkpt lat="42.35731" lon="2.68904">
        <ele>810</ele>
        <time>2010-01-01T12:31:04Z</time>
      </trkpt>
      <trkpt lat="42.35736" lon="2.68908">
        <ele>811</ele>
        <time>2010-01-01T12:31:10Z</time>
      </trkpt>
      <trkpt lat="42.35741" lon="2.68908">
        <ele>813</ele>
        <time>2010-01-01T12:31:15Z</time>
      </trkpt>
      <trkpt lat="42.35743" lon="2.68915">
        <ele>814</ele>
        <time>2010-01-01T12:31:20Z</time>
      </trkpt>
      <trkpt lat="42.35745" lon="2.68921">
        <ele>815</ele>
        <time>2010-01-01T12:31:25Z</time>
      </trkpt>
      <trkpt lat="42.35748" lon="2.68927">
        <ele>816</ele>
        <time>2010-01-01T12:31:30Z</time>
      </trkpt>
      <trkpt lat="42.35755" lon="2.68931">
        <ele>819</ele>
        <time>2010-01-01T12:31:37Z</time>
      </trkpt>
      <trkpt lat="42.35761" lon="2.6893">
        <ele>821</ele>
        <time>2010-01-01T12:31:44Z</time>
      </trkpt>
      <trkpt lat="42.35766" lon="2.68928">
        <ele>823</ele>
        <time>2010-01-01T12:31:49Z</time>
      </trkpt>
      <trkpt lat="42.35774" lon="2.68927">
        <ele>826</ele>
        <time>2010-01-01T12:31:57Z</time>
      </trkpt>
      <trkpt lat="42.35783" lon="2.6893">
        <ele>830</ele>
        <time>2010-01-01T12:32:06Z</time>
      </trkpt>
      <trkpt lat="42.35788" lon="2.68928">
        <ele>831</ele>
        <time>2010-01-01T12:32:11Z</time>
      </trkpt>
      <trkpt lat="42.35793" lon="2.68925">
        <ele>833</ele>
        <time>2010-01-01T12:32:17Z</time>
      </trkpt>
      <trkpt lat="42.35798" lon="2.68927">
        <ele>835</ele>
        <time>2010-01-01T12:32:22Z</time>
      </trkpt>
      <trkpt lat="42.35801" lon="2.68932">
        <ele>837</ele>
        <time>2010-01-01T12:32:27Z</time>
      </trkpt>
      <trkpt lat="42.35806" lon="2.68934">
        <ele>839</ele>
        <time>2010-01-01T12:32:32Z</time>
      </trkpt>
      <trkpt lat="42.35812" lon="2.68936">
        <ele>841</ele>
        <time>2010-01-01T12:32:38Z</time>
      </trkpt>
      <trkpt lat="42.35818" lon="2.6894">
        <ele>843</ele>
        <time>2010-01-01T12:32:45Z</time>
      </trkpt>
      <trkpt lat="42.35824" lon="2.68941">
        <ele>846</ele>
        <time>2010-01-01T12:32:51Z</time>
      </trkpt>
      <trkpt lat="42.35829" lon="2.68942">
        <ele>847</ele>
        <time>2010-01-01T12:32:56Z</time>
      </trkpt>
      <trkpt lat="42.35834" lon="2.68944">
        <ele>849</ele>
        <time>2010-01-01T12:33:01Z</time>
      </trkpt>
      <trkpt lat="42.35839" lon="2.68947">
        <ele>851</ele>
        <time>2010-01-01T12:33:07Z</time>
      </trkpt>
      <trkpt lat="42.35842" lon="2.68955">
        <ele>853</ele>
        <time>2010-01-01T12:33:13Z</time>
      </trkpt>
      <trkpt lat="42.35847" lon="2.68966">
        <ele>857</ele>
        <time>2010-01-01T12:33:22Z</time>
      </trkpt>
      <trkpt lat="42.35848" lon="2.68972">
        <ele>859</ele>
        <time>2010-01-01T12:33:27Z</time>
      </trkpt>
      <trkpt lat="42.35848" lon="2.68973">
        <ele>859</ele>
        <time>2010-01-01T12:33:28Z</time>
      </trkpt>
      <trkpt lat="42.3585" lon="2.68979">
        <ele>862</ele>
        <time>2010-01-01T12:33:33Z</time>
      </trkpt>
      <trkpt lat="42.35851" lon="2.68989">
        <ele>864</ele>
        <time>2010-01-01T12:33:41Z</time>
      </trkpt>
      <trkpt lat="42.35851" lon="2.68998">
        <ele>865</ele>
        <time>2010-01-01T12:33:47Z</time>
      </trkpt>
      <trkpt lat="42.35859" lon="2.6901">
        <ele>872</ele>
        <time>2010-01-01T12:33:59Z</time>
      </trkpt>
      <trkpt lat="42.35865" lon="2.69015">
        <ele>876</ele>
        <time>2010-01-01T12:34:06Z</time>
      </trkpt>
      <trkpt lat="42.3587" lon="2.69025">
        <ele>881</ele>
        <time>2010-01-01T12:34:15Z</time>
      </trkpt>
      <trkpt lat="42.35873" lon="2.69037">
        <ele>885</ele>
        <time>2010-01-01T12:34:25Z</time>
      </trkpt>
      <trkpt lat="42.35871" lon="2.69046">
        <ele>885</ele>
        <time>2010-01-01T12:34:31Z</time>
      </trkpt>
      <trkpt lat="42.35871" lon="2.69056">
        <ele>887</ele>
        <time>2010-01-01T12:34:39Z</time>
      </trkpt>
      <trkpt lat="42.35872" lon="2.69065">
        <ele>888</ele>
        <time>2010-01-01T12:34:46Z</time>
      </trkpt>
      <trkpt lat="42.35872" lon="2.69072">
        <ele>888</ele>
        <time>2010-01-01T12:34:51Z</time>
      </trkpt>
      <trkpt lat="42.35873" lon="2.69084">
        <ele>889</ele>
        <time>2010-01-01T12:35:00Z</time>
      </trkpt>
      <trkpt lat="42.35874" lon="2.69085">
        <ele>889</ele>
        <time>2010-01-01T12:35:00Z</time>
      </trkpt>
      <trkpt lat="42.35878" lon="2.69089">
        <ele>891</ele>
        <time>2010-01-01T12:35:06Z</time>
      </trkpt>
      <trkpt lat="42.35881" lon="2.69099">
        <ele>893</ele>
        <time>2010-01-01T12:35:14Z</time>
      </trkpt>
      <trkpt lat="42.35879" lon="2.69109">
        <ele>892</ele>
        <time>2010-01-01T12:35:21Z</time>
      </trkpt>
      <trkpt lat="42.35882" lon="2.69117">
        <ele>894</ele>
        <time>2010-01-01T12:35:28Z</time>
      </trkpt>
      <trkpt lat="42.35884" lon="2.6913">
        <ele>895</ele>
        <time>2010-01-01T12:35:37Z</time>
      </trkpt>
      <trkpt lat="42.35884" lon="2.69141">
        <ele>895</ele>
        <time>2010-01-01T12:35:45Z</time>
      </trkpt>
      <trkpt lat="42.35887" lon="2.69145">
        <ele>897</ele>
        <time>2010-01-01T12:35:50Z</time>
      </trkpt>
      <trkpt lat="42.35892" lon="2.69151">
        <ele>899</ele>
        <time>2010-01-01T12:35:57Z</time>
      </trkpt>
      <trkpt lat="42.35899" lon="2.69158">
        <ele>902</ele>
        <time>2010-01-01T12:36:05Z</time>
      </trkpt>
      <trkpt lat="42.35903" lon="2.69167">
        <ele>904</ele>
        <time>2010-01-01T12:36:13Z</time>
      </trkpt>
      <trkpt lat="42.35906" lon="2.6918">
        <ele>903</ele>
        <time>2010-01-01T12:36:23Z</time>
      </trkpt>
      <trkpt lat="42.3591" lon="2.6919">
        <ele>904</ele>
        <time>2010-01-01T12:36:32Z</time>
      </trkpt>
      <trkpt lat="42.35915" lon="2.69202">
        <ele>905</ele>
        <time>2010-01-01T12:36:41Z</time>
      </trkpt>
      <trkpt lat="42.3592" lon="2.69209">
        <ele>907</ele>
        <time>2010-01-01T12:36:49Z</time>
      </trkpt>
      <trkpt lat="42.35922" lon="2.69219">
        <ele>908</ele>
        <time>2010-01-01T12:36:57Z</time>
      </trkpt>
      <trkpt lat="42.35924" lon="2.69228">
        <ele>909</ele>
        <time>2010-01-01T12:37:03Z</time>
      </trkpt>
      <trkpt lat="42.35927" lon="2.69241">
        <ele>910</ele>
        <time>2010-01-01T12:37:13Z</time>
      </trkpt>
      <trkpt lat="42.35929" lon="2.6925">
        <ele>911</ele>
        <time>2010-01-01T12:37:20Z</time>
      </trkpt>
      <trkpt lat="42.35928" lon="2.69262">
        <ele>910</ele>
        <time>2010-01-01T12:37:30Z</time>
      </trkpt>
      <trkpt lat="42.35929" lon="2.69264">
        <ele>911</ele>
        <time>2010-01-01T12:37:31Z</time>
      </trkpt>
      <trkpt lat="42.35923" lon="2.6927">
        <ele>906</ele>
        <time>2010-01-01T12:37:38Z</time>
      </trkpt>
      <trkpt lat="42.3592" lon="2.6928">
        <ele>905</ele>
        <time>2010-01-01T12:37:47Z</time>
      </trkpt>
      <trkpt lat="42.35916" lon="2.69288">
        <ele>903</ele>
        <time>2010-01-01T12:37:53Z</time>
      </trkpt>
      <trkpt lat="42.35915" lon="2.69298">
        <ele>904</ele>
        <time>2010-01-01T12:38:01Z</time>
      </trkpt>
      <trkpt lat="42.35908" lon="2.69306">
        <ele>903</ele>
        <time>2010-01-01T12:38:10Z</time>
      </trkpt>
      <trkpt lat="42.35901" lon="2.69317">
        <ele>905</ele>
        <time>2010-01-01T12:38:21Z</time>
      </trkpt>
      <trkpt lat="42.35893" lon="2.69321">
        <ele>905</ele>
        <time>2010-01-01T12:38:29Z</time>
      </trkpt>
      <trkpt lat="42.35884" lon="2.69323">
        <ele>903</ele>
        <time>2010-01-01T12:38:39Z</time>
      </trkpt>
      <trkpt lat="42.35875" lon="2.69324">
        <ele>901</ele>
        <time>2010-01-01T12:38:48Z</time>
      </trkpt>
      <trkpt lat="42.35866" lon="2.69327">
        <ele>900</ele>
        <time>2010-01-01T12:38:57Z</time>
      </trkpt>
      <trkpt lat="42.35859" lon="2.69326">
        <ele>898</ele>
        <time>2010-01-01T12:39:04Z</time>
      </trkpt>
      <trkpt lat="42.35849" lon="2.69326">
        <ele>893</ele>
        <time>2010-01-01T12:39:14Z</time>
      </trkpt>
      <trkpt lat="42.3584" lon="2.69328">
        <ele>891</ele>
        <time>2010-01-01T12:39:23Z</time>
      </trkpt>
      <trkpt lat="42.35834" lon="2.69331">
        <ele>891</ele>
        <time>2010-01-01T12:39:30Z</time>
      </trkpt>
      <trkpt lat="42.35829" lon="2.69334">
        <ele>892</ele>
        <time>2010-01-01T12:39:35Z</time>
      </trkpt>
      <trkpt lat="42.35822" lon="2.69342">
        <ele>898</ele>
        <time>2010-01-01T12:39:45Z</time>
      </trkpt>
      <trkpt lat="42.35813" lon="2.69347">
        <ele>899</ele>
        <time>2010-01-01T12:39:54Z</time>
      </trkpt>
      <trkpt lat="42.35803" lon="2.69349">
        <ele>900</ele>
        <time>2010-01-01T12:40:04Z</time>
      </trkpt>
      <trkpt lat="42.35794" lon="2.6935">
        <ele>898</ele>
        <time>2010-01-01T12:40:13Z</time>
      </trkpt>
      <trkpt lat="42.35784" lon="2.69352">
        <ele>898</ele>
        <time>2010-01-01T12:40:23Z</time>
      </trkpt>
      <trkpt lat="42.35774" lon="2.69354">
        <ele>897</ele>
        <time>2010-01-01T12:40:33Z</time>
      </trkpt>
      <trkpt lat="42.35767" lon="2.69358">
        <ele>898</ele>
        <time>2010-01-01T12:40:41Z</time>
      </trkpt>
      <trkpt lat="42.35761" lon="2.69363">
        <ele>899</ele>
        <time>2010-01-01T12:40:48Z</time>
      </trkpt>
      <trkpt lat="42.35752" lon="2.69364">
        <ele>898</ele>
        <time>2010-01-01T12:40:57Z</time>
      </trkpt>
      <trkpt lat="42.35749" lon="2.6937">
        <ele>899</ele>
        <time>2010-01-01T12:41:02Z</time>
      </trkpt>
      <trkpt lat="42.35743" lon="2.69379">
        <ele>902</ele>
        <time>2010-01-01T12:41:11Z</time>
      </trkpt>
      <trkpt lat="42.35738" lon="2.6939">
        <ele>905</ele>
        <time>2010-01-01T12:41:21Z</time>
      </trkpt>
      <trkpt lat="42.35733" lon="2.69397">
        <ele>904</ele>
        <time>2010-01-01T12:41:28Z</time>
      </trkpt>
      <trkpt lat="42.35731" lon="2.69403">
        <ele>904</ele>
        <time>2010-01-01T12:41:33Z</time>
      </trkpt>
      <trkpt lat="42.35723" lon="2.69409">
        <ele>901</ele>
        <time>2010-01-01T12:41:42Z</time>
      </trkpt>
      <trkpt lat="42.35718" lon="2.69417">
        <ele>901</ele>
        <time>2010-01-01T12:41:50Z</time>
      </trkpt>
      <trkpt lat="42.35719" lon="2.69423">
        <ele>901</ele>
        <time>2010-01-01T12:41:54Z</time>
      </trkpt>
      <trkpt lat="42.3572" lon="2.69431">
        <ele>901</ele>
        <time>2010-01-01T12:42:01Z</time>
      </trkpt>
      <trkpt lat="42.35725" lon="2.69442">
        <ele>903</ele>
        <time>2010-01-01T12:42:10Z</time>
      </trkpt>
      <trkpt lat="42.35732" lon="2.6945">
        <ele>904</ele>
        <time>2010-01-01T12:42:19Z</time>
      </trkpt>
      <trkpt lat="42.35736" lon="2.69458">
        <ele>903</ele>
        <time>2010-01-01T12:42:27Z</time>
      </trkpt>
      <trkpt lat="42.35742" lon="2.69468">
        <ele>902</ele>
        <time>2010-01-01T12:42:36Z</time>
      </trkpt>
      <trkpt lat="42.35746" lon="2.69479">
        <ele>900</ele>
        <time>2010-01-01T12:42:45Z</time>
      </trkpt>
      <trkpt lat="42.35752" lon="2.69486">
        <ele>899</ele>
        <time>2010-01-01T12:42:53Z</time>
      </trkpt>
      <trkpt lat="42.3576" lon="2.69492">
        <ele>898</ele>
        <time>2010-01-01T12:43:02Z</time>
      </trkpt>
      <trkpt lat="42.35763" lon="2.69498">
        <ele>896</ele>
        <time>2010-01-01T12:43:08Z</time>
      </trkpt>
      <trkpt lat="42.35767" lon="2.69498">
        <ele>897</ele>
        <time>2010-01-01T12:43:12Z</time>
      </trkpt>
      <trkpt lat="42.35776" lon="2.69502">
        <ele>897</ele>
        <time>2010-01-01T12:43:21Z</time>
      </trkpt>
      <trkpt lat="42.35776" lon="2.69501">
        <ele>897</ele>
        <time>2010-01-01T12:43:21Z</time>
      </trkpt>
      <trkpt lat="42.3578" lon="2.69507">
        <ele>896</ele>
        <time>2010-01-01T12:43:28Z</time>
      </trkpt>
      <trkpt lat="42.35784" lon="2.69504">
        <ele>898</ele>
        <time>2010-01-01T12:43:32Z</time>
      </trkpt>
      <trkpt lat="42.35789" lon="2.69502">
        <ele>900</ele>
        <time>2010-01-01T12:43:37Z</time>
      </trkpt>
      <trkpt lat="42.35793" lon="2.69501">
        <ele>902</ele>
        <time>2010-01-01T12:43:42Z</time>
      </trkpt>
      <trkpt lat="42.35799" lon="2.69501">
        <ele>904</ele>
        <time>2010-01-01T12:43:47Z</time>
      </trkpt>
      <trkpt lat="42.35804" lon="2.69499">
        <ele>906</ele>
        <time>2010-01-01T12:43:52Z</time>
      </trkpt>
      <trkpt lat="42.35806" lon="2.69493">
        <ele>909</ele>
        <time>2010-01-01T12:43:57Z</time>
      </trkpt>
      <trkpt lat="42.35808" lon="2.69489">
        <ele>911</ele>
        <time>2010-01-01T12:44:01Z</time>
      </trkpt>
      <trkpt lat="42.35812" lon="2.69478">
        <ele>915</ele>
        <time>2010-01-01T12:44:10Z</time>
      </trkpt>
      <trkpt lat="42.35815" lon="2.69472">
        <ele>918</ele>
        <time>2010-01-01T12:44:16Z</time>
      </trkpt>
      <trkpt lat="42.35817" lon="2.69464">
        <ele>921</ele>
        <time>2010-01-01T12:44:22Z</time>
      </trkpt>
      <trkpt lat="42.35817" lon="2.69464">
        <ele>921</ele>
        <time>2010-01-01T12:44:22Z</time>
      </trkpt>
      <trkpt lat="42.35822" lon="2.69453">
        <ele>925</ele>
        <time>2010-01-01T12:44:31Z</time>
      </trkpt>
      <trkpt lat="42.35823" lon="2.69443">
        <ele>928</ele>
        <time>2010-01-01T12:44:39Z</time>
      </trkpt>
      <trkpt lat="42.35828" lon="2.69444">
        <ele>929</ele>
        <time>2010-01-01T12:44:45Z</time>
      </trkpt>
      <trkpt lat="42.35837" lon="2.69453">
        <ele>929</ele>
        <time>2010-01-01T12:44:55Z</time>
      </trkpt>
      <trkpt lat="42.35843" lon="2.69456">
        <ele>931</ele>
        <time>2010-01-01T12:45:02Z</time>
      </trkpt>
      <trkpt lat="42.35847" lon="2.69462">
        <ele>932</ele>
        <time>2010-01-01T12:45:08Z</time>
      </trkpt>
      <trkpt lat="42.35849" lon="2.69465">
        <ele>932</ele>
        <time>2010-01-01T12:45:11Z</time>
      </trkpt>
      <trkpt lat="42.35855" lon="2.6946">
        <ele>934</ele>
        <time>2010-01-01T12:45:18Z</time>
      </trkpt>
      <trkpt lat="42.35857" lon="2.69452">
        <ele>934</ele>
        <time>2010-01-01T12:45:24Z</time>
      </trkpt>
      <trkpt lat="42.3586" lon="2.69447">
        <ele>935</ele>
        <time>2010-01-01T12:45:29Z</time>
      </trkpt>
      <trkpt lat="42.35865" lon="2.69445">
        <ele>936</ele>
        <time>2010-01-01T12:45:34Z</time>
      </trkpt>
      <trkpt lat="42.35868" lon="2.69439">
        <ele>936</ele>
        <time>2010-01-01T12:45:40Z</time>
      </trkpt>
      <trkpt lat="42.35873" lon="2.69438">
        <ele>937</ele>
        <time>2010-01-01T12:45:45Z</time>
      </trkpt>
      <trkpt lat="42.35879" lon="2.69439">
        <ele>939</ele>
        <time>2010-01-01T12:45:51Z</time>
      </trkpt>
      <trkpt lat="42.35883" lon="2.69435">
        <ele>939</ele>
        <time>2010-01-01T12:45:56Z</time>
      </trkpt>
      <trkpt lat="42.35884" lon="2.69434">
        <ele>938</ele>
        <time>2010-01-01T12:45:57Z</time>
      </trkpt>
      <trkpt lat="42.35889" lon="2.69432">
        <ele>939</ele>
        <time>2010-01-01T12:46:02Z</time>
      </trkpt>
      <trkpt lat="42.35895" lon="2.69437">
        <ele>942</ele>
        <time>2010-01-01T12:46:09Z</time>
      </trkpt>
      <trkpt lat="42.35897" lon="2.69442">
        <ele>945</ele>
        <time>2010-01-01T12:46:14Z</time>
      </trkpt>
      <trkpt lat="42.35901" lon="2.69447">
        <ele>947</ele>
        <time>2010-01-01T12:46:19Z</time>
      </trkpt>
      <trkpt lat="42.35903" lon="2.69449">
        <ele>948</ele>
        <time>2010-01-01T12:46:21Z</time>
      </trkpt>
      <trkpt lat="42.35912" lon="2.69451">
        <ele>951</ele>
        <time>2010-01-01T12:46:30Z</time>
      </trkpt>
      <trkpt lat="42.35914" lon="2.69457">
        <ele>954</ele>
        <time>2010-01-01T12:46:35Z</time>
      </trkpt>
      <trkpt lat="42.35912" lon="2.69459">
        <ele>954</ele>
        <time>2010-01-01T12:46:37Z</time>
      </trkpt>
      <trkpt lat="42.35911" lon="2.69466">
        <ele>956</ele>
        <time>2010-01-01T12:46:43Z</time>
      </trkpt>
      <trkpt lat="42.35913" lon="2.69471">
        <ele>959</ele>
        <time>2010-01-01T12:46:48Z</time>
      </trkpt>
      <trkpt lat="42.35917" lon="2.69474">
        <ele>962</ele>
        <time>2010-01-01T12:46:52Z</time>
      </trkpt>
      <trkpt lat="42.35919" lon="2.69474">
        <ele>963</ele>
        <time>2010-01-01T12:46:54Z</time>
      </trkpt>
      <trkpt lat="42.35923" lon="2.69478">
        <ele>966</ele>
        <time>2010-01-01T12:46:59Z</time>
      </trkpt>
      <trkpt lat="42.35924" lon="2.69484">
        <ele>969</ele>
        <time>2010-01-01T12:47:03Z</time>
      </trkpt>
      <trkpt lat="42.35926" lon="2.6949">
        <ele>972</ele>
        <time>2010-01-01T12:47:08Z</time>
      </trkpt>
      <trkpt lat="42.35927" lon="2.69493">
        <ele>974</ele>
        <time>2010-01-01T12:47:10Z</time>
      </trkpt>
      <trkpt lat="42.35928" lon="2.69499">
        <ele>977</ele>
        <time>2010-01-01T12:47:15Z</time>
      </trkpt>
      <trkpt lat="42.35931" lon="2.69505">
        <ele>980</ele>
        <time>2010-01-01T12:47:20Z</time>
      </trkpt>
      <trkpt lat="42.35933" lon="2.6951">
        <ele>983</ele>
        <time>2010-01-01T12:47:25Z</time>
      </trkpt>
      <trkpt lat="42.35934" lon="2.69511">
        <ele>983</ele>
        <time>2010-01-01T12:47:26Z</time>
      </trkpt>
      <trkpt lat="42.35939" lon="2.69516">
        <ele>988</ele>
        <time>2010-01-01T12:47:32Z</time>
      </trkpt>
      <trkpt lat="42.35942" lon="2.6952">
        <ele>992</ele>
        <time>2010-01-01T12:47:37Z</time>
      </trkpt>
      <trkpt lat="42.35946" lon="2.69525">
        <ele>995</ele>
        <time>2010-01-01T12:47:41Z</time>
      </trkpt>
      <trkpt lat="42.35952" lon="2.69527">
        <ele>999</ele>
        <time>2010-01-01T12:47:48Z</time>
      </trkpt>
      <trkpt lat="42.35956" lon="2.6953">
        <ele>1002</ele>
        <time>2010-01-01T12:47:53Z</time>
      </trkpt>
      <trkpt lat="42.35959" lon="2.69533">
        <ele>1003</ele>
        <time>2010-01-01T12:47:56Z</time>
      </trkpt>
      <trkpt lat="42.35968" lon="2.69535">
        <ele>1008</ele>
        <time>2010-01-01T12:48:05Z</time>
      </trkpt>
      <trkpt lat="42.35977" lon="2.69535">
        <ele>1012</ele>
        <time>2010-01-01T12:48:14Z</time>
      </trkpt>
      <trkpt lat="42.35978" lon="2.69537">
        <ele>1013</ele>
        <time>2010-01-01T12:48:15Z</time>
      </trkpt>
      <trkpt lat="42.35984" lon="2.6954">
        <ele>1016</ele>
        <time>2010-01-01T12:48:22Z</time>
      </trkpt>
      <trkpt lat="42.35985" lon="2.69543">
        <ele>1017</ele>
        <time>2010-01-01T12:48:24Z</time>
      </trkpt>
      <trkpt lat="42.3599" lon="2.69535">
        <ele>1019</ele>
        <time>2010-01-01T12:48:31Z</time>
      </trkpt>
      <trkpt lat="42.3599" lon="2.69534">
        <ele>1019</ele>
        <time>2010-01-01T12:48:33Z</time>
      </trkpt>
      <trkpt lat="42.35995" lon="2.69528">
        <ele>1021</ele>
        <time>2010-01-01T12:48:39Z</time>
      </trkpt>
      <trkpt lat="42.36" lon="2.69531">
        <ele>1024</ele>
        <time>2010-01-01T12:48:44Z</time>
      </trkpt>
      <trkpt lat="42.36004" lon="2.69535">
        <ele>1025</ele>
        <time>2010-01-01T12:48:49Z</time>
      </trkpt>
      <trkpt lat="42.36009" lon="2.69536">
        <ele>1026</ele>
        <time>2010-01-01T12:48:55Z</time>
      </trkpt>
      <trkpt lat="42.36015" lon="2.69537">
        <ele>1027</ele>
        <time>2010-01-01T12:49:00Z</time>
      </trkpt>
      <trkpt lat="42.36019" lon="2.69541">
        <ele>1028</ele>
        <time>2010-01-01T12:49:06Z</time>
      </trkpt>
      <trkpt lat="42.3602" lon="2.69541">
        <ele>1028</ele>
        <time>2010-01-01T12:49:06Z</time>
      </trkpt>
      <trkpt lat="42.36023" lon="2.69545">
        <ele>1029</ele>
        <time>2010-01-01T12:49:10Z</time>
      </trkpt>
      <trkpt lat="42.36026" lon="2.69554">
        <ele>1032</ele>
        <time>2010-01-01T12:49:18Z</time>
      </trkpt>
      <trkpt lat="42.3603" lon="2.69564">
        <ele>1032</ele>
        <time>2010-01-01T12:49:26Z</time>
      </trkpt>
      <trkpt lat="42.36031" lon="2.69573">
        <ele>1033</ele>
        <time>2010-01-01T12:49:33Z</time>
      </trkpt>
      <trkpt lat="42.36032" lon="2.69583">
        <ele>1033</ele>
        <time>2010-01-01T12:49:40Z</time>
      </trkpt>
      <trkpt lat="42.36033" lon="2.69593">
        <ele>1034</ele>
        <time>2010-01-01T12:49:48Z</time>
      </trkpt>
      <trkpt lat="42.36038" lon="2.696">
        <ele>1033</ele>
        <time>2010-01-01T12:49:55Z</time>
      </trkpt>
      <trkpt lat="42.36042" lon="2.69605">
        <ele>1033</ele>
        <time>2010-01-01T12:50:00Z</time>
      </trkpt>
      <trkpt lat="42.36043" lon="2.69613">
        <ele>1033</ele>
        <time>2010-01-01T12:50:06Z</time>
      </trkpt>
      <trkpt lat="42.36044" lon="2.69619">
        <ele>1034</ele>
        <time>2010-01-01T12:50:11Z</time>
      </trkpt>
      <trkpt lat="42.36049" lon="2.69631">
        <ele>1034</ele>
        <time>2010-01-01T12:50:21Z</time>
      </trkpt>
      <trkpt lat="42.36054" lon="2.6964">
        <ele>1036</ele>
        <time>2010-01-01T12:50:29Z</time>
      </trkpt>
      <trkpt lat="42.36053" lon="2.69647">
        <ele>1036</ele>
        <time>2010-01-01T12:50:35Z</time>
      </trkpt>
      <trkpt lat="42.36058" lon="2.69655">
        <ele>1037</ele>
        <time>2010-01-01T12:50:42Z</time>
      </trkpt>
      <trkpt lat="42.36062" lon="2.69666">
        <ele>1037</ele>
        <time>2010-01-01T12:50:51Z</time>
      </trkpt>
      <trkpt lat="42.36068" lon="2.69676">
        <ele>1037</ele>
        <time>2010-01-01T12:51:00Z</time>
      </trkpt>
      <trkpt lat="42.36073" lon="2.69683">
        <ele>1037</ele>
        <time>2010-01-01T12:51:08Z</time>
      </trkpt>
      <trkpt lat="42.36074" lon="2.69684">
        <ele>1037</ele>
        <time>2010-01-01T12:51:09Z</time>
      </trkpt>
      <trkpt lat="42.36071" lon="2.69685">
        <ele>1037</ele>
        <time>2010-01-01T12:51:12Z</time>
      </trkpt>
      <trkpt lat="42.36069" lon="2.69689">
        <ele>1037</ele>
        <time>2010-01-01T12:51:17Z</time>
      </trkpt>
      <trkpt lat="42.36064" lon="2.69695">
        <ele>1037</ele>
        <time>2010-01-01T12:51:23Z</time>
      </trkpt>
      <trkpt lat="42.36062" lon="2.69705">
        <ele>1036</ele>
        <time>2010-01-01T12:51:30Z</time>
      </trkpt>
      <trkpt lat="42.36057" lon="2.69714">
        <ele>1035</ele>
        <time>2010-01-01T12:51:39Z</time>
      </trkpt>
      <trkpt lat="42.36056" lon="2.69724">
        <ele>1034</ele>
        <time>2010-01-01T12:51:46Z</time>
      </trkpt>
      <trkpt lat="42.3605" lon="2.69735">
        <ele>1032</ele>
        <time>2010-01-01T12:51:56Z</time>
      </trkpt>
      <trkpt lat="42.36047" lon="2.69748">
        <ele>1030</ele>
        <time>2010-01-01T12:52:06Z</time>
      </trkpt>
      <trkpt lat="42.36045" lon="2.6976">
        <ele>1027</ele>
        <time>2010-01-01T12:52:15Z</time>
      </trkpt>
      <trkpt lat="42.36041" lon="2.69772">
        <ele>1023</ele>
        <time>2010-01-01T12:52:25Z</time>
      </trkpt>
      <trkpt lat="42.36035" lon="2.6978">
        <ele>1019</ele>
        <time>2010-01-01T12:52:34Z</time>
      </trkpt>
      <trkpt lat="42.36029" lon="2.69782">
        <ele>1016</ele>
        <time>2010-01-01T12:52:40Z</time>
      </trkpt>
      <trkpt lat="42.36024" lon="2.69792">
        <ele>1011</ele>
        <time>2010-01-01T12:52:49Z</time>
      </trkpt>
      <trkpt lat="42.36022" lon="2.698">
        <ele>1008</ele>
        <time>2010-01-01T12:52:55Z</time>
      </trkpt>
      <trkpt lat="42.36025" lon="2.69811">
        <ele>1007</ele>
        <time>2010-01-01T12:53:04Z</time>
      </trkpt>
      <trkpt lat="42.36032" lon="2.6982">
        <ele>1008</ele>
        <time>2010-01-01T12:53:14Z</time>
      </trkpt>
      <trkpt lat="42.3604" lon="2.69827">
        <ele>1008</ele>
        <time>2010-01-01T12:53:23Z</time>
      </trkpt>
      <trkpt lat="42.36045" lon="2.69839">
        <ele>1006</ele>
        <time>2010-01-01T12:53:33Z</time>
      </trkpt>
      <trkpt lat="42.3605" lon="2.69849">
        <ele>1004</ele>
        <time>2010-01-01T12:53:42Z</time>
      </trkpt>
      <trkpt lat="42.36046" lon="2.6986">
        <ele>1000</ele>
        <time>2010-01-01T12:53:51Z</time>
      </trkpt>
      <trkpt lat="42.36055" lon="2.69865">
        <ele>1000</ele>
        <time>2010-01-01T12:54:01Z</time>
      </trkpt>
      <trkpt lat="42.36064" lon="2.69873">
        <ele>998</ele>
        <time>2010-01-01T12:54:11Z</time>
      </trkpt>
      <trkpt lat="42.36069" lon="2.69885">
        <ele>995</ele>
        <time>2010-01-01T12:54:21Z</time>
      </trkpt>
      <trkpt lat="42.36072" lon="2.69896">
        <ele>993</ele>
        <time>2010-01-01T12:54:30Z</time>
      </trkpt>
      <trkpt lat="42.36072" lon="2.69908">
        <ele>992</ele>
        <time>2010-01-01T12:54:39Z</time>
      </trkpt>
      <trkpt lat="42.36074" lon="2.69922">
        <ele>991</ele>
        <time>2010-01-01T12:54:49Z</time>
      </trkpt>
      <trkpt lat="42.36076" lon="2.69934">
        <ele>989</ele>
        <time>2010-01-01T12:54:59Z</time>
      </trkpt>
      <trkpt lat="42.36078" lon="2.69946">
        <ele>987</ele>
        <time>2010-01-01T12:55:08Z</time>
      </trkpt>
      <trkpt lat="42.36078" lon="2.6996">
        <ele>986</ele>
        <time>2010-01-01T12:55:18Z</time>
      </trkpt>
      <trkpt lat="42.36076" lon="2.69972">
        <ele>984</ele>
        <time>2010-01-01T12:55:27Z</time>
      </trkpt>
      <trkpt lat="42.36077" lon="2.69981">
        <ele>984</ele>
        <time>2010-01-01T12:55:34Z</time>
      </trkpt>
      <trkpt lat="42.36082" lon="2.69992">
        <ele>984</ele>
        <time>2010-01-01T12:55:43Z</time>
      </trkpt>
      <trkpt lat="42.36084" lon="2.70004">
        <ele>983</ele>
        <time>2010-01-01T12:55:52Z</time>
      </trkpt>
      <trkpt lat="42.36084" lon="2.70017">
        <ele>983</ele>
        <time>2010-01-01T12:56:01Z</time>
      </trkpt>
      <trkpt lat="42.36081" lon="2.70029">
        <ele>983</ele>
        <time>2010-01-01T12:56:11Z</time>
      </trkpt>
      <trkpt lat="42.36076" lon="2.7004">
        <ele>981</ele>
        <time>2010-01-01T12:56:20Z</time>
      </trkpt>
      <trkpt lat="42.36071" lon="2.70053">
        <ele>979</ele>
        <time>2010-01-01T12:56:31Z</time>
      </trkpt>
      <trkpt lat="42.36066" lon="2.70065">
        <ele>978</ele>
        <time>2010-01-01T12:56:41Z</time>
      </trkpt>
      <trkpt lat="42.36059" lon="2.70075">
        <ele>977</ele>
        <time>2010-01-01T12:56:52Z</time>
      </trkpt>
      <trkpt lat="42.36053" lon="2.70085">
        <ele>975</ele>
        <time>2010-01-01T12:57:01Z</time>
      </trkpt>
      <trkpt lat="42.36047" lon="2.70095">
        <ele>973</ele>
        <time>2010-01-01T12:57:11Z</time>
      </trkpt>
      <trkpt lat="42.36044" lon="2.70107">
        <ele>973</ele>
        <time>2010-01-01T12:57:20Z</time>
      </trkpt>
      <trkpt lat="42.36043" lon="2.7012">
        <ele>973</ele>
        <time>2010-01-01T12:57:30Z</time>
      </trkpt>
      <trkpt lat="42.36042" lon="2.70132">
        <ele>972</ele>
        <time>2010-01-01T12:57:39Z</time>
      </trkpt>
      <trkpt lat="42.3604" lon="2.70145">
        <ele>972</ele>
        <time>2010-01-01T12:57:48Z</time>
      </trkpt>
      <trkpt lat="42.36038" lon="2.70157">
        <ele>971</ele>
        <time>2010-01-01T12:57:58Z</time>
      </trkpt>
      <trkpt lat="42.36037" lon="2.70168">
        <ele>970</ele>
        <time>2010-01-01T12:58:06Z</time>
      </trkpt>
      <trkpt lat="42.36034" lon="2.7018">
        <ele>969</ele>
        <time>2010-01-01T12:58:16Z</time>
      </trkpt>
      <trkpt lat="42.3603" lon="2.70187">
        <ele>969</ele>
        <time>2010-01-01T12:58:22Z</time>
      </trkpt>
      <trkpt lat="42.36026" lon="2.70198">
        <ele>969</ele>
        <time>2010-01-01T12:58:31Z</time>
      </trkpt>
      <trkpt lat="42.36023" lon="2.7021">
        <ele>971</ele>
        <time>2010-01-01T12:58:40Z</time>
      </trkpt>
      <trkpt lat="42.36021" lon="2.70219">
        <ele>972</ele>
        <time>2010-01-01T12:58:48Z</time>
      </trkpt>
      <trkpt lat="42.3602" lon="2.70226">
        <ele>972</ele>
        <time>2010-01-01T12:58:53Z</time>
      </trkpt>
      <trkpt lat="42.36019" lon="2.70238">
        <ele>972</ele>
        <time>2010-01-01T12:59:01Z</time>
      </trkpt>
      <trkpt lat="42.36019" lon="2.70245">
        <ele>973</ele>
        <time>2010-01-01T12:59:07Z</time>
      </trkpt>
      <trkpt lat="42.36022" lon="2.70254">
        <ele>974</ele>
        <time>2010-01-01T12:59:14Z</time>
      </trkpt>
      <trkpt lat="42.36026" lon="2.70255">
        <ele>976</ele>
        <time>2010-01-01T12:59:19Z</time>
      </trkpt>
      <trkpt lat="42.36027" lon="2.70262">
        <ele>976</ele>
        <time>2010-01-01T12:59:24Z</time>
      </trkpt>
      <trkpt lat="42.36029" lon="2.70269">
        <ele>976</ele>
        <time>2010-01-01T12:59:29Z</time>
      </trkpt>
      <trkpt lat="42.36029" lon="2.70274">
        <ele>976</ele>
        <time>2010-01-01T12:59:33Z</time>
      </trkpt>
      <trkpt lat="42.36032" lon="2.70286">
        <ele>976</ele>
        <time>2010-01-01T12:59:43Z</time>
      </trkpt>
      <trkpt lat="42.36032" lon="2.70293">
        <ele>975</ele>
        <time>2010-01-01T12:59:48Z</time>
      </trkpt>
      <trkpt lat="42.36029" lon="2.70299">
        <ele>976</ele>
        <time>2010-01-01T12:59:53Z</time>
      </trkpt>
      <trkpt lat="42.36027" lon="2.70304">
        <ele>976</ele>
        <time>2010-01-01T12:59:57Z</time>
      </trkpt>
      <trkpt lat="42.36021" lon="2.70313">
        <ele>975</ele>
        <time>2010-01-01T13:00:07Z</time>
      </trkpt>
      <trkpt lat="42.36015" lon="2.70324">
        <ele>975</ele>
        <time>2010-01-01T13:00:17Z</time>
      </trkpt>
      <trkpt lat="42.36014" lon="2.70331">
        <ele>976</ele>
        <time>2010-01-01T13:00:22Z</time>
      </trkpt>
      <trkpt lat="42.3601" lon="2.70337">
        <ele>976</ele>
        <time>2010-01-01T13:00:27Z</time>
      </trkpt>
      <trkpt lat="42.36012" lon="2.70349">
        <ele>978</ele>
        <time>2010-01-01T13:00:36Z</time>
      </trkpt>
      <trkpt lat="42.36011" lon="2.70351">
        <ele>979</ele>
        <time>2010-01-01T13:00:38Z</time>
      </trkpt>
      <trkpt lat="42.3601" lon="2.70349">
        <ele>978</ele>
        <time>2010-01-01T13:00:39Z</time>
      </trkpt>
      <trkpt lat="42.36012" lon="2.70355">
        <ele>980</ele>
        <time>2010-01-01T13:00:44Z</time>
      </trkpt>
      <trkpt lat="42.36011" lon="2.70369">
        <ele>982</ele>
        <time>2010-01-01T13:00:55Z</time>
      </trkpt>
      <trkpt lat="42.36009" lon="2.70371">
        <ele>982</ele>
        <time>2010-01-01T13:00:57Z</time>
      </trkpt>
      <trkpt lat="42.36013" lon="2.70369">
        <ele>982</ele>
        <time>2010-01-01T13:01:01Z</time>
      </trkpt>
      <trkpt lat="42.36014" lon="2.70377">
        <ele>984</ele>
        <time>2010-01-01T13:01:07Z</time>
      </trkpt>
      <trkpt lat="42.36012" lon="2.70387">
        <ele>987</ele>
        <time>2010-01-01T13:01:15Z</time>
      </trkpt>
      <trkpt lat="42.3601" lon="2.704">
        <ele>987</ele>
        <time>2010-01-01T13:01:25Z</time>
      </trkpt>
      <trkpt lat="42.3601" lon="2.7041">
        <ele>987</ele>
        <time>2010-01-01T13:01:32Z</time>
      </trkpt>
      <trkpt lat="42.36007" lon="2.70415">
        <ele>988</ele>
        <time>2010-01-01T13:01:37Z</time>
      </trkpt>
      <trkpt lat="42.36004" lon="2.7042">
        <ele>989</ele>
        <time>2010-01-01T13:01:42Z</time>
      </trkpt>
      <trkpt lat="42.36" lon="2.70428">
        <ele>990</ele>
        <time>2010-01-01T13:01:49Z</time>
      </trkpt>
      <trkpt lat="42.35998" lon="2.70437">
        <ele>989</ele>
        <time>2010-01-01T13:01:56Z</time>
      </trkpt>
      <trkpt lat="42.35995" lon="2.70444">
        <ele>989</ele>
        <time>2010-01-01T13:02:02Z</time>
      </trkpt>
      <trkpt lat="42.35993" lon="2.70454">
        <ele>988</ele>
        <time>2010-01-01T13:02:09Z</time>
      </trkpt>
      <trkpt lat="42.3599" lon="2.70464">
        <ele>987</ele>
        <time>2010-01-01T13:02:18Z</time>
      </trkpt>
      <trkpt lat="42.35986" lon="2.70475">
        <ele>986</ele>
        <time>2010-01-01T13:02:27Z</time>
      </trkpt>
      <trkpt lat="42.35985" lon="2.70487">
        <ele>984</ele>
        <time>2010-01-01T13:02:35Z</time>
      </trkpt>
      <trkpt lat="42.35984" lon="2.70499">
        <ele>983</ele>
        <time>2010-01-01T13:02:45Z</time>
      </trkpt>
      <trkpt lat="42.35984" lon="2.70513">
        <ele>982</ele>
        <time>2010-01-01T13:02:55Z</time>
      </trkpt>
      <trkpt lat="42.35982" lon="2.70525">
        <ele>980</ele>
        <time>2010-01-01T13:03:04Z</time>
      </trkpt>
      <trkpt lat="42.35978" lon="2.70539">
        <ele>979</ele>
        <time>2010-01-01T13:03:15Z</time>
      </trkpt>
      <trkpt lat="42.35976" lon="2.70551">
        <ele>978</ele>
        <time>2010-01-01T13:03:24Z</time>
      </trkpt>
      <trkpt lat="42.35977" lon="2.70564">
        <ele>977</ele>
        <time>2010-01-01T13:03:34Z</time>
      </trkpt>
      <trkpt lat="42.35976" lon="2.70576">
        <ele>976</ele>
        <time>2010-01-01T13:03:43Z</time>
      </trkpt>
      <trkpt lat="42.35975" lon="2.70589">
        <ele>975</ele>
        <time>2010-01-01T13:03:53Z</time>
      </trkpt>
      <trkpt lat="42.3597" lon="2.70602">
        <ele>974</ele>
        <time>2010-01-01T13:04:03Z</time>
      </trkpt>
      <trkpt lat="42.35965" lon="2.70611">
        <ele>972</ele>
        <time>2010-01-01T13:04:12Z</time>
      </trkpt>
      <trkpt lat="42.3596" lon="2.70623">
        <ele>970</ele>
        <time>2010-01-01T13:04:22Z</time>
      </trkpt>
      <trkpt lat="42.35956" lon="2.70633">
        <ele>969</ele>
        <time>2010-01-01T13:04:31Z</time>
      </trkpt>
      <trkpt lat="42.35952" lon="2.70645">
        <ele>968</ele>
        <time>2010-01-01T13:04:40Z</time>
      </trkpt>
      <trkpt lat="42.35948" lon="2.70656">
        <ele>967</ele>
        <time>2010-01-01T13:04:50Z</time>
      </trkpt>
      <trkpt lat="42.35945" lon="2.70671">
        <ele>966</ele>
        <time>2010-01-01T13:05:01Z</time>
      </trkpt>
      <trkpt lat="42.35944" lon="2.70681">
        <ele>965</ele>
        <time>2010-01-01T13:05:08Z</time>
      </trkpt>
      <trkpt lat="42.35942" lon="2.70693">
        <ele>964</ele>
        <time>2010-01-01T13:05:18Z</time>
      </trkpt>
      <trkpt lat="42.35938" lon="2.70705">
        <ele>962</ele>
        <time>2010-01-01T13:05:27Z</time>
      </trkpt>
      <trkpt lat="42.35934" lon="2.70716">
        <ele>961</ele>
        <time>2010-01-01T13:05:36Z</time>
      </trkpt>
      <trkpt lat="42.3593" lon="2.70729">
        <ele>960</ele>
        <time>2010-01-01T13:05:46Z</time>
      </trkpt>
      <trkpt lat="42.35925" lon="2.70739">
        <ele>960</ele>
        <time>2010-01-01T13:05:56Z</time>
      </trkpt>
      <trkpt lat="42.35921" lon="2.70751">
        <ele>960</ele>
        <time>2010-01-01T13:06:05Z</time>
      </trkpt>
      <trkpt lat="42.35919" lon="2.70761">
        <ele>961</ele>
        <time>2010-01-01T13:06:13Z</time>
      </trkpt>
      <trkpt lat="42.35915" lon="2.70772">
        <ele>963</ele>
        <time>2010-01-01T13:06:22Z</time>
      </trkpt>
      <trkpt lat="42.3591" lon="2.70782">
        <ele>962</ele>
        <time>2010-01-01T13:06:31Z</time>
      </trkpt>
      <trkpt lat="42.35906" lon="2.70793">
        <ele>962</ele>
        <time>2010-01-01T13:06:40Z</time>
      </trkpt>
      <trkpt lat="42.35902" lon="2.70804">
        <ele>961</ele>
        <time>2010-01-01T13:06:49Z</time>
      </trkpt>
      <trkpt lat="42.35899" lon="2.70814">
        <ele>961</ele>
        <time>2010-01-01T13:06:57Z</time>
      </trkpt>
      <trkpt lat="42.35895" lon="2.70825">
        <ele>961</ele>
        <time>2010-01-01T13:07:06Z</time>
      </trkpt>
      <trkpt lat="42.35892" lon="2.70836">
        <ele>961</ele>
        <time>2010-01-01T13:07:15Z</time>
      </trkpt>
      <trkpt lat="42.35889" lon="2.70847">
        <ele>960</ele>
        <time>2010-01-01T13:07:24Z</time>
      </trkpt>
      <trkpt lat="42.35884" lon="2.70855">
        <ele>959</ele>
        <time>2010-01-01T13:07:31Z</time>
      </trkpt>
      <trkpt lat="42.3588" lon="2.70866">
        <ele>958</ele>
        <time>2010-01-01T13:07:40Z</time>
      </trkpt>
      <trkpt lat="42.35876" lon="2.70878">
        <ele>957</ele>
        <time>2010-01-01T13:07:50Z</time>
      </trkpt>
      <trkpt lat="42.35875" lon="2.70886">
        <ele>957</ele>
        <time>2010-01-01T13:07:56Z</time>
      </trkpt>
      <trkpt lat="42.35878" lon="2.70898">
        <ele>955</ele>
        <time>2010-01-01T13:08:05Z</time>
      </trkpt>
      <trkpt lat="42.3587" lon="2.70902">
        <ele>956</ele>
        <time>2010-01-01T13:08:13Z</time>
      </trkpt>
      <trkpt lat="42.35866" lon="2.70905">
        <ele>956</ele>
        <time>2010-01-01T13:08:18Z</time>
      </trkpt>
      <trkpt lat="42.35865" lon="2.70912">
        <ele>956</ele>
        <time>2010-01-01T13:08:24Z</time>
      </trkpt>
      <trkpt lat="42.35861" lon="2.70921">
        <ele>956</ele>
        <time>2010-01-01T13:08:31Z</time>
      </trkpt>
      <trkpt lat="42.35857" lon="2.70929">
        <ele>954</ele>
        <time>2010-01-01T13:08:38Z</time>
      </trkpt>
      <trkpt lat="42.35855" lon="2.70938">
        <ele>953</ele>
        <time>2010-01-01T13:08:45Z</time>
      </trkpt>
      <trkpt lat="42.35849" lon="2.70948">
        <ele>952</ele>
        <time>2010-01-01T13:08:55Z</time>
      </trkpt>
      <trkpt lat="42.35843" lon="2.70959">
        <ele>951</ele>
        <time>2010-01-01T13:09:05Z</time>
      </trkpt>
      <trkpt lat="42.35839" lon="2.70972">
        <ele>950</ele>
        <time>2010-01-01T13:09:15Z</time>
      </trkpt>
      <trkpt lat="42.35831" lon="2.70983">
        <ele>950</ele>
        <time>2010-01-01T13:09:27Z</time>
      </trkpt>
      <trkpt lat="42.35828" lon="2.70989">
        <ele>949</ele>
        <time>2010-01-01T13:09:32Z</time>
      </trkpt>
      <trkpt lat="42.35822" lon="2.70998">
        <ele>948</ele>
        <time>2010-01-01T13:09:41Z</time>
      </trkpt>
      <trkpt lat="42.35818" lon="2.71006">
        <ele>948</ele>
        <time>2010-01-01T13:09:48Z</time>
      </trkpt>
      <trkpt lat="42.35814" lon="2.71013">
        <ele>949</ele>
        <time>2010-01-01T13:09:55Z</time>
      </trkpt>
      <trkpt lat="42.35809" lon="2.71023">
        <ele>950</ele>
        <time>2010-01-01T13:10:04Z</time>
      </trkpt>
      <trkpt lat="42.35804" lon="2.7103">
        <ele>951</ele>
        <time>2010-01-01T13:10:11Z</time>
      </trkpt>
      <trkpt lat="42.35799" lon="2.7104">
        <ele>951</ele>
        <time>2010-01-01T13:10:20Z</time>
      </trkpt>
      <trkpt lat="42.35792" lon="2.71048">
        <ele>952</ele>
        <time>2010-01-01T13:10:29Z</time>
      </trkpt>
      <trkpt lat="42.35792" lon="2.71049">
        <ele>952</ele>
        <time>2010-01-01T13:10:30Z</time>
      </trkpt>
      <trkpt lat="42.35789" lon="2.71056">
        <ele>952</ele>
        <time>2010-01-01T13:10:36Z</time>
      </trkpt>
      <trkpt lat="42.35785" lon="2.71068">
        <ele>951</ele>
        <time>2010-01-01T13:10:46Z</time>
      </trkpt>
      <trkpt lat="42.35781" lon="2.71081">
        <ele>950</ele>
        <time>2010-01-01T13:10:56Z</time>
      </trkpt>
      <trkpt lat="42.35778" lon="2.71089">
        <ele>949</ele>
        <time>2010-01-01T13:11:03Z</time>
      </trkpt>
      <trkpt lat="42.35774" lon="2.71098">
        <ele>948</ele>
        <time>2010-01-01T13:11:10Z</time>
      </trkpt>
      <trkpt lat="42.35772" lon="2.71105">
        <ele>946</ele>
        <time>2010-01-01T13:11:16Z</time>
      </trkpt>
      <trkpt lat="42.35765" lon="2.71114">
        <ele>944</ele>
        <time>2010-01-01T13:11:25Z</time>
      </trkpt>
      <trkpt lat="42.35765" lon="2.71117">
        <ele>944</ele>
        <time>2010-01-01T13:11:27Z</time>
      </trkpt>
      <trkpt lat="42.35767" lon="2.71129">
        <ele>941</ele>
        <time>2010-01-01T13:11:36Z</time>
      </trkpt>
      <trkpt lat="42.35769" lon="2.71142">
        <ele>938</ele>
        <time>2010-01-01T13:11:46Z</time>
      </trkpt>
      <trkpt lat="42.35767" lon="2.71156">
        <ele>936</ele>
        <time>2010-01-01T13:11:57Z</time>
      </trkpt>
      <trkpt lat="42.35766" lon="2.71158">
        <ele>935</ele>
        <time>2010-01-01T13:11:58Z</time>
      </trkpt>
      <trkpt lat="42.35758" lon="2.71165">
        <ele>936</ele>
        <time>2010-01-01T13:12:07Z</time>
      </trkpt>
      <trkpt lat="42.35758" lon="2.71165">
        <ele>936</ele>
        <time>2010-01-01T13:12:08Z</time>
      </trkpt>
      <trkpt lat="42.35749" lon="2.71167">
        <ele>937</ele>
        <time>2010-01-01T13:12:17Z</time>
      </trkpt>
      <trkpt lat="42.35748" lon="2.71166">
        <ele>937</ele>
        <time>2010-01-01T13:12:18Z</time>
      </trkpt>
      <trkpt lat="42.35741" lon="2.71174">
        <ele>936</ele>
        <time>2010-01-01T13:12:27Z</time>
      </trkpt>
      <trkpt lat="42.35741" lon="2.71175">
        <ele>936</ele>
        <time>2010-01-01T13:12:28Z</time>
      </trkpt>
      <trkpt lat="42.35736" lon="2.71181">
        <ele>935</ele>
        <time>2010-01-01T13:12:35Z</time>
      </trkpt>
      <trkpt lat="42.35731" lon="2.71182">
        <ele>935</ele>
        <time>2010-01-01T13:12:39Z</time>
      </trkpt>
      <trkpt lat="42.35732" lon="2.71182">
        <ele>935</ele>
        <time>2010-01-01T13:12:40Z</time>
      </trkpt>
      <trkpt lat="42.35731" lon="2.71194">
        <ele>934</ele>
        <time>2010-01-01T13:12:49Z</time>
      </trkpt>
      <trkpt lat="42.35732" lon="2.71194">
        <ele>934</ele>
        <time>2010-01-01T13:12:50Z</time>
      </trkpt>
      <trkpt lat="42.35729" lon="2.71202">
        <ele>933</ele>
        <time>2010-01-01T13:12:57Z</time>
      </trkpt>
      <trkpt lat="42.35732" lon="2.71207">
        <ele>933</ele>
        <time>2010-01-01T13:13:02Z</time>
      </trkpt>
      <trkpt lat="42.35733" lon="2.71216">
        <ele>932</ele>
        <time>2010-01-01T13:13:09Z</time>
      </trkpt>
      <trkpt lat="42.35732" lon="2.71225">
        <ele>931</ele>
        <time>2010-01-01T13:13:15Z</time>
      </trkpt>
      <trkpt lat="42.35728" lon="2.71231">
        <ele>931</ele>
        <time>2010-01-01T13:13:21Z</time>
      </trkpt>
      <trkpt lat="42.35724" lon="2.7124">
        <ele>931</ele>
        <time>2010-01-01T13:13:29Z</time>
      </trkpt>
      <trkpt lat="42.3572" lon="2.71253">
        <ele>930</ele>
        <time>2010-01-01T13:13:39Z</time>
      </trkpt>
      <trkpt lat="42.35716" lon="2.71264">
        <ele>928</ele>
        <time>2010-01-01T13:13:49Z</time>
      </trkpt>
      <trkpt lat="42.35714" lon="2.71267">
        <ele>928</ele>
        <time>2010-01-01T13:13:51Z</time>
      </trkpt>
      <trkpt lat="42.35707" lon="2.71274">
        <ele>929</ele>
        <time>2010-01-01T13:14:00Z</time>
      </trkpt>
      <trkpt lat="42.35702" lon="2.71285">
        <ele>930</ele>
        <time>2010-01-01T13:14:10Z</time>
      </trkpt>
      <trkpt lat="42.35695" lon="2.71294">
        <ele>932</ele>
        <time>2010-01-01T13:14:19Z</time>
      </trkpt>
      <trkpt lat="42.35689" lon="2.71303">
        <ele>932</ele>
        <time>2010-01-01T13:14:29Z</time>
      </trkpt>
      <trkpt lat="42.35685" lon="2.71312">
        <ele>932</ele>
        <time>2010-01-01T13:14:36Z</time>
      </trkpt>
      <trkpt lat="42.35683" lon="2.71318">
        <ele>933</ele>
        <time>2010-01-01T13:14:41Z</time>
      </trkpt>
      <trkpt lat="42.35677" lon="2.71325">
        <ele>934</ele>
        <time>2010-01-01T13:14:49Z</time>
      </trkpt>
      <trkpt lat="42.3567" lon="2.71332">
        <ele>936</ele>
        <time>2010-01-01T13:14:57Z</time>
      </trkpt>
      <trkpt lat="42.35667" lon="2.71339">
        <ele>937</ele>
        <time>2010-01-01T13:15:04Z</time>
      </trkpt>
      <trkpt lat="42.35664" lon="2.71348">
        <ele>939</ele>
        <time>2010-01-01T13:15:11Z</time>
      </trkpt>
      <trkpt lat="42.3566" lon="2.71359">
        <ele>942</ele>
        <time>2010-01-01T13:15:20Z</time>
      </trkpt>
      <trkpt lat="42.35654" lon="2.71366">
        <ele>944</ele>
        <time>2010-01-01T13:15:27Z</time>
      </trkpt>
      <trkpt lat="42.35648" lon="2.71373">
        <ele>946</ele>
        <time>2010-01-01T13:15:36Z</time>
      </trkpt>
      <trkpt lat="42.35644" lon="2.71384">
        <ele>949</ele>
        <time>2010-01-01T13:15:44Z</time>
      </trkpt>
      <trkpt lat="42.35637" lon="2.71391">
        <ele>950</ele>
        <time>2010-01-01T13:15:53Z</time>
      </trkpt>
      <trkpt lat="42.35631" lon="2.71401">
        <ele>950</ele>
        <time>2010-01-01T13:16:03Z</time>
      </trkpt>
      <trkpt lat="42.35625" lon="2.71408">
        <ele>951</ele>
        <time>2010-01-01T13:16:11Z</time>
      </trkpt>
      <trkpt lat="42.35622" lon="2.71417">
        <ele>952</ele>
        <time>2010-01-01T13:16:18Z</time>
      </trkpt>
      <trkpt lat="42.35623" lon="2.71425">
        <ele>951</ele>
        <time>2010-01-01T13:16:24Z</time>
      </trkpt>
      <trkpt lat="42.35624" lon="2.71432">
        <ele>949</ele>
        <time>2010-01-01T13:16:29Z</time>
      </trkpt>
      <trkpt lat="42.35621" lon="2.71437">
        <ele>949</ele>
        <time>2010-01-01T13:16:34Z</time>
      </trkpt>
      <trkpt lat="42.35616" lon="2.71434">
        <ele>950</ele>
        <time>2010-01-01T13:16:39Z</time>
      </trkpt>
      <trkpt lat="42.35617" lon="2.71435">
        <ele>950</ele>
        <time>2010-01-01T13:16:40Z</time>
      </trkpt>
      <trkpt lat="42.35619" lon="2.71441">
        <ele>949</ele>
        <time>2010-01-01T13:16:45Z</time>
      </trkpt>
      <trkpt lat="42.35617" lon="2.71448">
        <ele>949</ele>
        <time>2010-01-01T13:16:51Z</time>
      </trkpt>
      <trkpt lat="42.35616" lon="2.71449">
        <ele>949</ele>
        <time>2010-01-01T13:16:52Z</time>
      </trkpt>
      <trkpt lat="42.3561" lon="2.71453">
        <ele>950</ele>
        <time>2010-01-01T13:16:58Z</time>
      </trkpt>
      <trkpt lat="42.35609" lon="2.71446">
        <ele>950</ele>
        <time>2010-01-01T13:17:04Z</time>
      </trkpt>
      <trkpt lat="42.35604" lon="2.71452">
        <ele>950</ele>
        <time>2010-01-01T13:17:10Z</time>
      </trkpt>
      <trkpt lat="42.35602" lon="2.71456">
        <ele>949</ele>
        <time>2010-01-01T13:17:14Z</time>
      </trkpt>
      <trkpt lat="42.35605" lon="2.71468">
        <ele>948</ele>
        <time>2010-01-01T13:17:23Z</time>
      </trkpt>
      <trkpt lat="42.3561" lon="2.71479">
        <ele>945</ele>
        <time>2010-01-01T13:17:33Z</time>
      </trkpt>
      <trkpt lat="42.35605" lon="2.71468">
        <ele>948</ele>
        <time>2010-01-01T13:17:42Z</time>
      </trkpt>
      <trkpt lat="42.35601" lon="2.71453">
        <ele>949</ele>
        <time>2010-01-01T13:17:54Z</time>
      </trkpt>
      <trkpt lat="42.35599" lon="2.71455">
        <ele>949</ele>
        <time>2010-01-01T13:17:56Z</time>
      </trkpt>
      <trkpt lat="42.35603" lon="2.71466">
        <ele>948</ele>
        <time>2010-01-01T13:18:06Z</time>
      </trkpt>
      <trkpt lat="42.35609" lon="2.71471">
        <ele>948</ele>
        <time>2010-01-01T13:18:13Z</time>
      </trkpt>
      <trkpt lat="42.35605" lon="2.71467">
        <ele>948</ele>
        <time>2010-01-01T13:18:18Z</time>
      </trkpt>
      <trkpt lat="42.35603" lon="2.71472">
        <ele>948</ele>
        <time>2010-01-01T13:18:22Z</time>
      </trkpt>
      <trkpt lat="42.35603" lon="2.7148">
        <ele>945</ele>
        <time>2010-01-01T13:18:28Z</time>
      </trkpt>
      <trkpt lat="42.35605" lon="2.71461">
        <ele>949</ele>
        <time>2010-01-01T13:18:42Z</time>
      </trkpt>
      <trkpt lat="42.35601" lon="2.71453">
        <ele>949</ele>
        <time>2010-01-01T13:18:49Z</time>
      </trkpt>
      <trkpt lat="42.35598" lon="2.71465">
        <ele>949</ele>
        <time>2010-01-01T13:18:58Z</time>
      </trkpt>
      <trkpt lat="42.35594" lon="2.7147">
        <ele>948</ele>
        <time>2010-01-01T13:19:03Z</time>
      </trkpt>
      <trkpt lat="42.35594" lon="2.71478">
        <ele>947</ele>
        <time>2010-01-01T13:19:09Z</time>
      </trkpt>
      <trkpt lat="42.35594" lon="2.7148">
        <ele>946</ele>
        <time>2010-01-01T13:19:11Z</time>
      </trkpt>
      <trkpt lat="42.35586" lon="2.71485">
        <ele>946</ele>
        <time>2010-01-01T13:19:20Z</time>
      </trkpt>
      <trkpt lat="42.35583" lon="2.71479">
        <ele>947</ele>
        <time>2010-01-01T13:19:24Z</time>
      </trkpt>
      <trkpt lat="42.3558" lon="2.71468">
        <ele>948</ele>
        <time>2010-01-01T13:19:33Z</time>
      </trkpt>
      <trkpt lat="42.3558" lon="2.71459">
        <ele>948</ele>
        <time>2010-01-01T13:19:40Z</time>
      </trkpt>
      <trkpt lat="42.35578" lon="2.71441">
        <ele>948</ele>
        <time>2010-01-01T13:19:53Z</time>
      </trkpt>
      <trkpt lat="42.35575" lon="2.71429">
        <ele>946</ele>
        <time>2010-01-01T13:20:02Z</time>
      </trkpt>
      <trkpt lat="42.35575" lon="2.71419">
        <ele>945</ele>
        <time>2010-01-01T13:20:10Z</time>
      </trkpt>
      <trkpt lat="42.35566" lon="2.71421">
        <ele>944</ele>
        <time>2010-01-01T13:20:19Z</time>
      </trkpt>
      <trkpt lat="42.3556" lon="2.71418">
        <ele>942</ele>
        <time>2010-01-01T13:20:25Z</time>
      </trkpt>
      <trkpt lat="42.35551" lon="2.71421">
        <ele>940</ele>
        <time>2010-01-01T13:20:34Z</time>
      </trkpt>
      <trkpt lat="42.35545" lon="2.71427">
        <ele>939</ele>
        <time>2010-01-01T13:20:42Z</time>
      </trkpt>
      <trkpt lat="42.35537" lon="2.71429">
        <ele>937</ele>
        <time>2010-01-01T13:20:50Z</time>
      </trkpt>
      <trkpt lat="42.35536" lon="2.71436">
        <ele>936</ele>
        <time>2010-01-01T13:20:55Z</time>
      </trkpt>
      <trkpt lat="42.35535" lon="2.71443">
        <ele>936</ele>
        <time>2010-01-01T13:21:00Z</time>
      </trkpt>
      <trkpt lat="42.35541" lon="2.71456">
        <ele>937</ele>
        <time>2010-01-01T13:21:11Z</time>
      </trkpt>
      <trkpt lat="42.35541" lon="2.71464">
        <ele>936</ele>
        <time>2010-01-01T13:21:17Z</time>
      </trkpt>
      <trkpt lat="42.35541" lon="2.71465">
        <ele>936</ele>
        <time>2010-01-01T13:21:18Z</time>
      </trkpt>
      <trkpt lat="42.35541" lon="2.71472">
        <ele>936</ele>
        <time>2010-01-01T13:21:23Z</time>
      </trkpt>
      <trkpt lat="42.35535" lon="2.71477">
        <ele>933</ele>
        <time>2010-01-01T13:21:31Z</time>
      </trkpt>
      <trkpt lat="42.35532" lon="2.71485">
        <ele>931</ele>
        <time>2010-01-01T13:21:37Z</time>
      </trkpt>
      <trkpt lat="42.3553" lon="2.71492">
        <ele>929</ele>
        <time>2010-01-01T13:21:43Z</time>
      </trkpt>
      <trkpt lat="42.35528" lon="2.71499">
        <ele>928</ele>
        <time>2010-01-01T13:21:48Z</time>
      </trkpt>
      <trkpt lat="42.35519" lon="2.715">
        <ele>923</ele>
        <time>2010-01-01T13:21:57Z</time>
      </trkpt>
      <trkpt lat="42.35518" lon="2.71502">
        <ele>922</ele>
        <time>2010-01-01T13:21:59Z</time>
      </trkpt>
      <trkpt lat="42.35513" lon="2.7151">
        <ele>918</ele>
        <time>2010-01-01T13:22:07Z</time>
      </trkpt>
      <trkpt lat="42.35507" lon="2.71502">
        <ele>917</ele>
        <time>2010-01-01T13:22:15Z</time>
      </trkpt>
      <trkpt lat="42.35503" lon="2.71485">
        <ele>918</ele>
        <time>2010-01-01T13:22:28Z</time>
      </trkpt>
      <trkpt lat="42.35502" lon="2.71471">
        <ele>919</ele>
        <time>2010-01-01T13:22:38Z</time>
      </trkpt>
      <trkpt lat="42.35503" lon="2.71467">
        <ele>920</ele>
        <time>2010-01-01T13:22:41Z</time>
      </trkpt>
      <trkpt lat="42.35498" lon="2.71456">
        <ele>919</ele>
        <time>2010-01-01T13:22:51Z</time>
      </trkpt>
      <trkpt lat="42.35499" lon="2.71455">
        <ele>919</ele>
        <time>2010-01-01T13:22:52Z</time>
      </trkpt>
      <trkpt lat="42.35493" lon="2.71446">
        <ele>917</ele>
        <time>2010-01-01T13:23:02Z</time>
      </trkpt>
      <trkpt lat="42.35493" lon="2.71445">
        <ele>917</ele>
        <time>2010-01-01T13:23:02Z</time>
      </trkpt>
      <trkpt lat="42.35488" lon="2.71435">
        <ele>916</ele>
        <time>2010-01-01T13:23:11Z</time>
      </trkpt>
      <trkpt lat="42.35489" lon="2.71423">
        <ele>918</ele>
        <time>2010-01-01T13:23:20Z</time>
      </trkpt>
      <trkpt lat="42.35488" lon="2.71408">
        <ele>918</ele>
        <time>2010-01-01T13:23:31Z</time>
      </trkpt>
      <trkpt lat="42.35482" lon="2.71395">
        <ele>917</ele>
        <time>2010-01-01T13:23:43Z</time>
      </trkpt>
      <trkpt lat="42.35482" lon="2.71394">
        <ele>917</ele>
        <time>2010-01-01T13:23:44Z</time>
      </trkpt>
      <trkpt lat="42.35477" lon="2.71383">
        <ele>916</ele>
        <time>2010-01-01T13:23:53Z</time>
      </trkpt>
      <trkpt lat="42.35475" lon="2.7138">
        <ele>916</ele>
        <time>2010-01-01T13:23:56Z</time>
      </trkpt>
      <trkpt lat="42.35468" lon="2.71374">
        <ele>913</ele>
        <time>2010-01-01T13:24:05Z</time>
      </trkpt>
      <trkpt lat="42.35467" lon="2.71372">
        <ele>913</ele>
        <time>2010-01-01T13:24:06Z</time>
      </trkpt>
      <trkpt lat="42.35461" lon="2.71362">
        <ele>911</ele>
        <time>2010-01-01T13:24:16Z</time>
      </trkpt>
      <trkpt lat="42.35453" lon="2.71358">
        <ele>907</ele>
        <time>2010-01-01T13:24:24Z</time>
      </trkpt>
      <trkpt lat="42.35446" lon="2.71353">
        <ele>903</ele>
        <time>2010-01-01T13:24:32Z</time>
      </trkpt>
      <trkpt lat="42.35439" lon="2.71351">
        <ele>901</ele>
        <time>2010-01-01T13:24:40Z</time>
      </trkpt>
      <trkpt lat="42.35433" lon="2.71353">
        <ele>899</ele>
        <time>2010-01-01T13:24:46Z</time>
      </trkpt>
      <trkpt lat="42.3543" lon="2.71354">
        <ele>898</ele>
        <time>2010-01-01T13:24:48Z</time>
      </trkpt>
      <trkpt lat="42.35423" lon="2.71357">
        <ele>897</ele>
        <time>2010-01-01T13:24:55Z</time>
      </trkpt>
      <trkpt lat="42.35417" lon="2.71363">
        <ele>896</ele>
        <time>2010-01-01T13:25:03Z</time>
      </trkpt>
      <trkpt lat="42.35412" lon="2.71364">
        <ele>894</ele>
        <time>2010-01-01T13:25:08Z</time>
      </trkpt>
      <trkpt lat="42.35405" lon="2.71373">
        <ele>892</ele>
        <time>2010-01-01T13:25:17Z</time>
      </trkpt>
      <trkpt lat="42.35399" lon="2.71378">
        <ele>890</ele>
        <time>2010-01-01T13:25:25Z</time>
      </trkpt>
      <trkpt lat="42.3539" lon="2.71382">
        <ele>887</ele>
        <time>2010-01-01T13:25:34Z</time>
      </trkpt>
      <trkpt lat="42.35382" lon="2.71386">
        <ele>886</ele>
        <time>2010-01-01T13:25:43Z</time>
      </trkpt>
      <trkpt lat="42.35378" lon="2.71396">
        <ele>884</ele>
        <time>2010-01-01T13:25:51Z</time>
      </trkpt>
      <trkpt lat="42.35373" lon="2.71404">
        <ele>881</ele>
        <time>2010-01-01T13:25:59Z</time>
      </trkpt>
      <trkpt lat="42.35364" lon="2.71413">
        <ele>878</ele>
        <time>2010-01-01T13:26:10Z</time>
      </trkpt>
      <trkpt lat="42.35357" lon="2.71422">
        <ele>875</ele>
        <time>2010-01-01T13:26:20Z</time>
      </trkpt>
      <trkpt lat="42.35357" lon="2.71428">
        <ele>873</ele>
        <time>2010-01-01T13:26:24Z</time>
      </trkpt>
      <trkpt lat="42.35353" lon="2.71436">
        <ele>871</ele>
        <time>2010-01-01T13:26:31Z</time>
      </trkpt>
      <trkpt lat="42.35347" lon="2.71441">
        <ele>870</ele>
        <time>2010-01-01T13:26:37Z</time>
      </trkpt>
      <trkpt lat="42.35342" lon="2.71442">
        <ele>869</ele>
        <time>2010-01-01T13:26:43Z</time>
      </trkpt>
      <trkpt lat="42.35336" lon="2.71449">
        <ele>867</ele>
        <time>2010-01-01T13:26:51Z</time>
      </trkpt>
      <trkpt lat="42.35329" lon="2.71455">
        <ele>865</ele>
        <time>2010-01-01T13:26:59Z</time>
      </trkpt>
      <trkpt lat="42.35326" lon="2.71464">
        <ele>863</ele>
        <time>2010-01-01T13:27:06Z</time>
      </trkpt>
      <trkpt lat="42.3532" lon="2.71474">
        <ele>860</ele>
        <time>2010-01-01T13:27:16Z</time>
      </trkpt>
      <trkpt lat="42.35314" lon="2.7148">
        <ele>858</ele>
        <time>2010-01-01T13:27:23Z</time>
      </trkpt>
      <trkpt lat="42.35306" lon="2.71486">
        <ele>857</ele>
        <time>2010-01-01T13:27:32Z</time>
      </trkpt>
      <trkpt lat="42.35298" lon="2.7149">
        <ele>855</ele>
        <time>2010-01-01T13:27:41Z</time>
      </trkpt>
      <trkpt lat="42.35289" lon="2.7149">
        <ele>855</ele>
        <time>2010-01-01T13:27:50Z</time>
      </trkpt>
      <trkpt lat="42.35282" lon="2.71492">
        <ele>855</ele>
        <time>2010-01-01T13:27:58Z</time>
      </trkpt>
      <trkpt lat="42.35273" lon="2.71489">
        <ele>854</ele>
        <time>2010-01-01T13:28:07Z</time>
      </trkpt>
      <trkpt lat="42.35264" lon="2.71484">
        <ele>853</ele>
        <time>2010-01-01T13:28:16Z</time>
      </trkpt>
      <trkpt lat="42.35257" lon="2.71475">
        <ele>852</ele>
        <time>2010-01-01T13:28:25Z</time>
      </trkpt>
      <trkpt lat="42.35249" lon="2.7147">
        <ele>850</ele>
        <time>2010-01-01T13:28:35Z</time>
      </trkpt>
      <trkpt lat="42.35244" lon="2.71459">
        <ele>850</ele>
        <time>2010-01-01T13:28:44Z</time>
      </trkpt>
      <trkpt lat="42.35241" lon="2.71449">
        <ele>850</ele>
        <time>2010-01-01T13:28:52Z</time>
      </trkpt>
      <trkpt lat="42.35236" lon="2.71437">
        <ele>848</ele>
        <time>2010-01-01T13:29:02Z</time>
      </trkpt>
      <trkpt lat="42.35232" lon="2.7143">
        <ele>846</ele>
        <time>2010-01-01T13:29:09Z</time>
      </trkpt>
      <trkpt lat="42.35227" lon="2.71425">
        <ele>843</ele>
        <time>2010-01-01T13:29:15Z</time>
      </trkpt>
      <trkpt lat="42.35218" lon="2.71424">
        <ele>839</ele>
        <time>2010-01-01T13:29:25Z</time>
      </trkpt>
      <trkpt lat="42.35209" lon="2.71427">
        <ele>835</ele>
        <time>2010-01-01T13:29:34Z</time>
      </trkpt>
      <trkpt lat="42.35202" lon="2.71433">
        <ele>833</ele>
        <time>2010-01-01T13:29:42Z</time>
      </trkpt>
      <trkpt lat="42.35195" lon="2.71436">
        <ele>830</ele>
        <time>2010-01-01T13:29:50Z</time>
      </trkpt>
      <trkpt lat="42.35189" lon="2.71439">
        <ele>828</ele>
        <time>2010-01-01T13:29:56Z</time>
      </trkpt>
      <trkpt lat="42.35181" lon="2.71446">
        <ele>825</ele>
        <time>2010-01-01T13:30:05Z</time>
      </trkpt>
      <trkpt lat="42.35178" lon="2.71452">
        <ele>823</ele>
        <time>2010-01-01T13:30:11Z</time>
      </trkpt>
      <trkpt lat="42.35171" lon="2.71459">
        <ele>819</ele>
        <time>2010-01-01T13:30:19Z</time>
      </trkpt>
      <trkpt lat="42.35164" lon="2.71463">
        <ele>816</ele>
        <time>2010-01-01T13:30:27Z</time>
      </trkpt>
      <trkpt lat="42.35157" lon="2.71465">
        <ele>814</ele>
        <time>2010-01-01T13:30:34Z</time>
      </trkpt>
      <trkpt lat="42.35151" lon="2.71473">
        <ele>812</ele>
        <time>2010-01-01T13:30:42Z</time>
      </trkpt>
      <trkpt lat="42.35145" lon="2.7148">
        <ele>809</ele>
        <time>2010-01-01T13:30:50Z</time>
      </trkpt>
      <trkpt lat="42.35137" lon="2.71484">
        <ele>807</ele>
        <time>2010-01-01T13:30:59Z</time>
      </trkpt>
      <trkpt lat="42.35128" lon="2.71488">
        <ele>806</ele>
        <time>2010-01-01T13:31:08Z</time>
      </trkpt>
      <trkpt lat="42.3512" lon="2.71494">
        <ele>804</ele>
        <time>2010-01-01T13:31:17Z</time>
      </trkpt>
      <trkpt lat="42.35111" lon="2.71498">
        <ele>803</ele>
        <time>2010-01-01T13:31:27Z</time>
      </trkpt>
      <trkpt lat="42.35103" lon="2.71503">
        <ele>802</ele>
        <time>2010-01-01T13:31:36Z</time>
      </trkpt>
      <trkpt lat="42.35094" lon="2.71506">
        <ele>800</ele>
        <time>2010-01-01T13:31:45Z</time>
      </trkpt>
      <trkpt lat="42.35086" lon="2.71512">
        <ele>799</ele>
        <time>2010-01-01T13:31:54Z</time>
      </trkpt>
      <trkpt lat="42.35078" lon="2.71519">
        <ele>797</ele>
        <time>2010-01-01T13:32:03Z</time>
      </trkpt>
      <trkpt lat="42.3507" lon="2.71525">
        <ele>796</ele>
        <time>2010-01-01T13:32:13Z</time>
      </trkpt>
      <trkpt lat="42.35061" lon="2.7153">
        <ele>795</ele>
        <time>2010-01-01T13:32:22Z</time>
      </trkpt>
      <trkpt lat="42.35054" lon="2.71536">
        <ele>794</ele>
        <time>2010-01-01T13:32:31Z</time>
      </trkpt>
      <trkpt lat="42.35046" lon="2.71541">
        <ele>793</ele>
        <time>2010-01-01T13:32:40Z</time>
      </trkpt>
      <trkpt lat="42.35037" lon="2.71549">
        <ele>791</ele>
        <time>2010-01-01T13:32:50Z</time>
      </trkpt>
      <trkpt lat="42.35028" lon="2.71554">
        <ele>790</ele>
        <time>2010-01-01T13:33:00Z</time>
      </trkpt>
      <trkpt lat="42.35019" lon="2.71559">
        <ele>787</ele>
        <time>2010-01-01T13:33:09Z</time>
      </trkpt>
      <trkpt lat="42.3501" lon="2.71558">
        <ele>786</ele>
        <time>2010-01-01T13:33:19Z</time>
      </trkpt>
      <trkpt lat="42.35001" lon="2.71554">
        <ele>786</ele>
        <time>2010-01-01T13:33:28Z</time>
      </trkpt>
      <trkpt lat="42.34993" lon="2.71556">
        <ele>783</ele>
        <time>2010-01-01T13:33:37Z</time>
      </trkpt>
      <trkpt lat="42.34989" lon="2.71545">
        <ele>784</ele>
        <time>2010-01-01T13:33:45Z</time>
      </trkpt>
      <trkpt lat="42.34985" lon="2.71535">
        <ele>784</ele>
        <time>2010-01-01T13:33:54Z</time>
      </trkpt>
      <trkpt lat="42.34981" lon="2.71528">
        <ele>784</ele>
        <time>2010-01-01T13:34:01Z</time>
      </trkpt>
      <trkpt lat="42.34972" lon="2.71524">
        <ele>782</ele>
        <time>2010-01-01T13:34:10Z</time>
      </trkpt>
      <trkpt lat="42.34964" lon="2.71518">
        <ele>780</ele>
        <time>2010-01-01T13:34:19Z</time>
      </trkpt>
      <trkpt lat="42.34955" lon="2.71514">
        <ele>777</ele>
        <time>2010-01-01T13:34:29Z</time>
      </trkpt>
      <trkpt lat="42.34945" lon="2.71513">
        <ele>775</ele>
        <time>2010-01-01T13:34:38Z</time>
      </trkpt>
      <trkpt lat="42.34937" lon="2.71512">
        <ele>774</ele>
        <time>2010-01-01T13:34:47Z</time>
      </trkpt>
      <trkpt lat="42.34927" lon="2.71511">
        <ele>773</ele>
        <time>2010-01-01T13:34:57Z</time>
      </trkpt>
      <trkpt lat="42.34918" lon="2.71514">
        <ele>771</ele>
        <time>2010-01-01T13:35:06Z</time>
      </trkpt>
      <trkpt lat="42.34909" lon="2.71512">
        <ele>771</ele>
        <time>2010-01-01T13:35:15Z</time>
      </trkpt>
      <trkpt lat="42.34901" lon="2.71518">
        <ele>770</ele>
        <time>2010-01-01T13:35:24Z</time>
      </trkpt>
      <trkpt lat="42.34894" lon="2.71525">
        <ele>770</ele>
        <time>2010-01-01T13:35:33Z</time>
      </trkpt>
      <trkpt lat="42.34887" lon="2.71529">
        <ele>769</ele>
        <time>2010-01-01T13:35:41Z</time>
      </trkpt>
      <trkpt lat="42.34878" lon="2.71533">
        <ele>769</ele>
        <time>2010-01-01T13:35:50Z</time>
      </trkpt>
      <trkpt lat="42.34868" lon="2.71539">
        <ele>768</ele>
        <time>2010-01-01T13:36:01Z</time>
      </trkpt>
      <trkpt lat="42.3486" lon="2.71546">
        <ele>766</ele>
        <time>2010-01-01T13:36:10Z</time>
      </trkpt>
      <trkpt lat="42.34852" lon="2.71553">
        <ele>766</ele>
        <time>2010-01-01T13:36:20Z</time>
      </trkpt>
      <trkpt lat="42.34843" lon="2.71558">
        <ele>767</ele>
        <time>2010-01-01T13:36:30Z</time>
      </trkpt>
      <trkpt lat="42.34834" lon="2.71562">
        <ele>768</ele>
        <time>2010-01-01T13:36:40Z</time>
      </trkpt>
      <trkpt lat="42.34826" lon="2.71569">
        <ele>768</ele>
        <time>2010-01-01T13:36:49Z</time>
      </trkpt>
      <trkpt lat="42.34818" lon="2.71575">
        <ele>768</ele>
        <time>2010-01-01T13:36:58Z</time>
      </trkpt>
      <trkpt lat="42.34809" lon="2.71581">
        <ele>767</ele>
        <time>2010-01-01T13:37:08Z</time>
      </trkpt>
      <trkpt lat="42.34801" lon="2.71587">
        <ele>768</ele>
        <time>2010-01-01T13:37:17Z</time>
      </trkpt>
      <trkpt lat="42.34793" lon="2.71594">
        <ele>769</ele>
        <time>2010-01-01T13:37:27Z</time>
      </trkpt>
      <trkpt lat="42.34785" lon="2.71602">
        <ele>769</ele>
        <time>2010-01-01T13:37:37Z</time>
      </trkpt>
      <trkpt lat="42.34777" lon="2.7161">
        <ele>770</ele>
        <time>2010-01-01T13:37:47Z</time>
      </trkpt>
      <trkpt lat="42.34769" lon="2.71618">
        <ele>770</ele>
        <time>2010-01-01T13:37:57Z</time>
      </trkpt>
      <trkpt lat="42.34764" lon="2.71623">
        <ele>770</ele>
        <time>2010-01-01T13:38:03Z</time>
      </trkpt>
      <trkpt lat="42.34756" lon="2.71632">
        <ele>770</ele>
        <time>2010-01-01T13:38:13Z</time>
      </trkpt>
      <trkpt lat="42.34749" lon="2.71639">
        <ele>770</ele>
        <time>2010-01-01T13:38:22Z</time>
      </trkpt>
      <trkpt lat="42.34741" lon="2.71647">
        <ele>769</ele>
        <time>2010-01-01T13:38:32Z</time>
      </trkpt>
      <trkpt lat="42.34735" lon="2.71656">
        <ele>768</ele>
        <time>2010-01-01T13:38:41Z</time>
      </trkpt>
      <trkpt lat="42.34729" lon="2.71667">
        <ele>766</ele>
        <time>2010-01-01T13:38:51Z</time>
      </trkpt>
      <trkpt lat="42.34723" lon="2.71677">
        <ele>765</ele>
        <time>2010-01-01T13:39:01Z</time>
      </trkpt>
      <trkpt lat="42.34716" lon="2.71685">
        <ele>764</ele>
        <time>2010-01-01T13:39:10Z</time>
      </trkpt>
      <trkpt lat="42.34711" lon="2.71693">
        <ele>762</ele>
        <time>2010-01-01T13:39:17Z</time>
      </trkpt>
      <trkpt lat="42.34703" lon="2.71701">
        <ele>761</ele>
        <time>2010-01-01T13:39:27Z</time>
      </trkpt>
      <trkpt lat="42.34696" lon="2.71709">
        <ele>760</ele>
        <time>2010-01-01T13:39:37Z</time>
      </trkpt>
      <trkpt lat="42.34687" lon="2.71714">
        <ele>758</ele>
        <time>2010-01-01T13:39:47Z</time>
      </trkpt>
      <trkpt lat="42.3468" lon="2.71721">
        <ele>756</ele>
        <time>2010-01-01T13:39:55Z</time>
      </trkpt>
      <trkpt lat="42.34672" lon="2.71729">
        <ele>753</ele>
        <time>2010-01-01T13:40:05Z</time>
      </trkpt>
      <trkpt lat="42.34668" lon="2.71733">
        <ele>753</ele>
        <time>2010-01-01T13:40:10Z</time>
      </trkpt>
      <trkpt lat="42.34659" lon="2.71734">
        <ele>751</ele>
        <time>2010-01-01T13:40:19Z</time>
      </trkpt>
      <trkpt lat="42.34649" lon="2.71734">
        <ele>750</ele>
        <time>2010-01-01T13:40:29Z</time>
      </trkpt>
      <trkpt lat="42.34641" lon="2.71731">
        <ele>749</ele>
        <time>2010-01-01T13:40:37Z</time>
      </trkpt>
      <trkpt lat="42.34635" lon="2.7173">
        <ele>748</ele>
        <time>2010-01-01T13:40:43Z</time>
      </trkpt>
      <trkpt lat="42.34628" lon="2.71729">
        <ele>746</ele>
        <time>2010-01-01T13:40:51Z</time>
      </trkpt>
      <trkpt lat="42.34617" lon="2.71726">
        <ele>744</ele>
        <time>2010-01-01T13:41:02Z</time>
      </trkpt>
      <trkpt lat="42.34606" lon="2.71723">
        <ele>741</ele>
        <time>2010-01-01T13:41:13Z</time>
      </trkpt>
      <trkpt lat="42.34594" lon="2.7172">
        <ele>737</ele>
        <time>2010-01-01T13:41:25Z</time>
      </trkpt>
      <trkpt lat="42.34589" lon="2.7172">
        <ele>735</ele>
        <time>2010-01-01T13:41:30Z</time>
      </trkpt>
      <trkpt lat="42.34584" lon="2.71717">
        <ele>733</ele>
        <time>2010-01-01T13:41:36Z</time>
      </trkpt>
      <trkpt lat="42.34578" lon="2.71713">
        <ele>732</ele>
        <time>2010-01-01T13:41:42Z</time>
      </trkpt>
      <trkpt lat="42.34569" lon="2.71712">
        <ele>728</ele>
        <time>2010-01-01T13:41:52Z</time>
      </trkpt>
      <trkpt lat="42.34561" lon="2.71709">
        <ele>725</ele>
        <time>2010-01-01T13:42:00Z</time>
      </trkpt>
      <trkpt lat="42.34554" lon="2.71705">
        <ele>723</ele>
        <time>2010-01-01T13:42:08Z</time>
      </trkpt>
      <trkpt lat="42.34548" lon="2.71703">
        <ele>721</ele>
        <time>2010-01-01T13:42:13Z</time>
      </trkpt>
      <trkpt lat="42.34537" lon="2.71703">
        <ele>718</ele>
        <time>2010-01-01T13:42:24Z</time>
      </trkpt>
      <trkpt lat="42.34531" lon="2.71701">
        <ele>716</ele>
        <time>2010-01-01T13:42:31Z</time>
      </trkpt>
      <trkpt lat="42.34522" lon="2.71705">
        <ele>712</ele>
        <time>2010-01-01T13:42:40Z</time>
      </trkpt>
      <trkpt lat="42.34513" lon="2.71704">
        <ele>710</ele>
        <time>2010-01-01T13:42:50Z</time>
      </trkpt>
      <trkpt lat="42.34503" lon="2.71705">
        <ele>707</ele>
        <time>2010-01-01T13:42:59Z</time>
      </trkpt>
      <trkpt lat="42.34497" lon="2.71694">
        <ele>707</ele>
        <time>2010-01-01T13:43:09Z</time>
      </trkpt>
      <trkpt lat="42.34491" lon="2.71682">
        <ele>707</ele>
        <time>2010-01-01T13:43:20Z</time>
      </trkpt>
      <trkpt lat="42.34483" lon="2.71675">
        <ele>707</ele>
        <time>2010-01-01T13:43:29Z</time>
      </trkpt>
      <trkpt lat="42.34474" lon="2.7167">
        <ele>705</ele>
        <time>2010-01-01T13:43:39Z</time>
      </trkpt>
      <trkpt lat="42.34468" lon="2.7167">
        <ele>704</ele>
        <time>2010-01-01T13:43:45Z</time>
      </trkpt>
      <trkpt lat="42.34462" lon="2.71673">
        <ele>702</ele>
        <time>2010-01-01T13:43:52Z</time>
      </trkpt>
      <trkpt lat="42.34462" lon="2.71674">
        <ele>702</ele>
        <time>2010-01-01T13:43:52Z</time>
      </trkpt>
      <trkpt lat="42.34458" lon="2.7167">
        <ele>702</ele>
        <time>2010-01-01T13:43:57Z</time>
      </trkpt>
      <trkpt lat="42.34456" lon="2.71667">
        <ele>701</ele>
        <time>2010-01-01T13:44:00Z</time>
      </trkpt>
      <trkpt lat="42.34455" lon="2.71661">
        <ele>701</ele>
        <time>2010-01-01T13:44:04Z</time>
      </trkpt>
      <trkpt lat="42.34453" lon="2.71656">
        <ele>701</ele>
        <time>2010-01-01T13:44:09Z</time>
      </trkpt>
      <trkpt lat="42.34452" lon="2.71643">
        <ele>701</ele>
        <time>2010-01-01T13:44:18Z</time>
      </trkpt>
      <trkpt lat="42.34423" lon="2.7167">
        <ele>695</ele>
        <time>2010-01-01T13:44:53Z</time>
      </trkpt>
      <trkpt lat="42.34416" lon="2.71662">
        <ele>694</ele>
        <time>2010-01-01T13:45:02Z</time>
      </trkpt>
      <trkpt lat="42.34408" lon="2.71656">
        <ele>693</ele>
        <time>2010-01-01T13:45:11Z</time>
      </trkpt>
      <trkpt lat="42.344" lon="2.71653">
        <ele>693</ele>
        <time>2010-01-01T13:45:19Z</time>
      </trkpt>
      <trkpt lat="42.34391" lon="2.71653">
        <ele>693</ele>
        <time>2010-01-01T13:45:28Z</time>
      </trkpt>
      <trkpt lat="42.34382" lon="2.7166">
        <ele>692</ele>
        <time>2010-01-01T13:45:39Z</time>
      </trkpt>
      <trkpt lat="42.34377" lon="2.71671">
        <ele>692</ele>
        <time>2010-01-01T13:45:48Z</time>
      </trkpt>
      <trkpt lat="42.34374" lon="2.71683">
        <ele>691</ele>
        <time>2010-01-01T13:45:58Z</time>
      </trkpt>
      <trkpt lat="42.34369" lon="2.71694">
        <ele>690</ele>
        <time>2010-01-01T13:46:07Z</time>
      </trkpt>
      <trkpt lat="42.34364" lon="2.71705">
        <ele>689</ele>
        <time>2010-01-01T13:46:17Z</time>
      </trkpt>
      <trkpt lat="42.34359" lon="2.71717">
        <ele>688</ele>
        <time>2010-01-01T13:46:27Z</time>
      </trkpt>
      <trkpt lat="42.34354" lon="2.7173">
        <ele>688</ele>
        <time>2010-01-01T13:46:38Z</time>
      </trkpt>
      <trkpt lat="42.34351" lon="2.71743">
        <ele>686</ele>
        <time>2010-01-01T13:46:48Z</time>
      </trkpt>
      <trkpt lat="42.34348" lon="2.71755">
        <ele>685</ele>
        <time>2010-01-01T13:46:57Z</time>
      </trkpt>
      <trkpt lat="42.34344" lon="2.71769">
        <ele>685</ele>
        <time>2010-01-01T13:47:08Z</time>
      </trkpt>
      <trkpt lat="42.34339" lon="2.71782">
        <ele>685</ele>
        <time>2010-01-01T13:47:19Z</time>
      </trkpt>
      <trkpt lat="42.34334" lon="2.71794">
        <ele>686</ele>
        <time>2010-01-01T13:47:30Z</time>
      </trkpt>
      <trkpt lat="42.34327" lon="2.71806">
        <ele>687</ele>
        <time>2010-01-01T13:47:41Z</time>
      </trkpt>
      <trkpt lat="42.3432" lon="2.71819">
        <ele>686</ele>
        <time>2010-01-01T13:47:52Z</time>
      </trkpt>
      <trkpt lat="42.34313" lon="2.7183">
        <ele>684</ele>
        <time>2010-01-01T13:48:04Z</time>
      </trkpt>
      <trkpt lat="42.34305" lon="2.7184">
        <ele>684</ele>
        <time>2010-01-01T13:48:14Z</time>
      </trkpt>
      <trkpt lat="42.34296" lon="2.71849">
        <ele>685</ele>
        <time>2010-01-01T13:48:26Z</time>
      </trkpt>
      <trkpt lat="42.34285" lon="2.71859">
        <ele>686</ele>
        <time>2010-01-01T13:48:38Z</time>
      </trkpt>
      <trkpt lat="42.34274" lon="2.71868">
        <ele>687</ele>
        <time>2010-01-01T13:48:52Z</time>
      </trkpt>
      <trkpt lat="42.34263" lon="2.71875">
        <ele>687</ele>
        <time>2010-01-01T13:49:03Z</time>
      </trkpt>
      <trkpt lat="42.34255" lon="2.71882">
        <ele>686</ele>
        <time>2010-01-01T13:49:14Z</time>
      </trkpt>
      <trkpt lat="42.34245" lon="2.71889">
        <ele>684</ele>
        <time>2010-01-01T13:49:24Z</time>
      </trkpt>
      <trkpt lat="42.34237" lon="2.71896">
        <ele>682</ele>
        <time>2010-01-01T13:49:34Z</time>
      </trkpt>
      <trkpt lat="42.34228" lon="2.71899">
        <ele>681</ele>
        <time>2010-01-01T13:49:43Z</time>
      </trkpt>
      <trkpt lat="42.34216" lon="2.71898">
        <ele>680</ele>
        <time>2010-01-01T13:49:56Z</time>
      </trkpt>
      <trkpt lat="42.34205" lon="2.71896">
        <ele>680</ele>
        <time>2010-01-01T13:50:06Z</time>
      </trkpt>
      <trkpt lat="42.34194" lon="2.71893">
        <ele>679</ele>
        <time>2010-01-01T13:50:18Z</time>
      </trkpt>
      <trkpt lat="42.34183" lon="2.7189">
        <ele>680</ele>
        <time>2010-01-01T13:50:29Z</time>
      </trkpt>
      <trkpt lat="42.34171" lon="2.71885">
        <ele>681</ele>
        <time>2010-01-01T13:50:41Z</time>
      </trkpt>
      <trkpt lat="42.34158" lon="2.71885">
        <ele>681</ele>
        <time>2010-01-01T13:50:54Z</time>
      </trkpt>
      <trkpt lat="42.34146" lon="2.71886">
        <ele>682</ele>
        <time>2010-01-01T13:51:06Z</time>
      </trkpt>
      <trkpt lat="42.34134" lon="2.71887">
        <ele>682</ele>
        <time>2010-01-01T13:51:18Z</time>
      </trkpt>
      <trkpt lat="42.34125" lon="2.71893">
        <ele>681</ele>
        <time>2010-01-01T13:51:29Z</time>
      </trkpt>
      <trkpt lat="42.34111" lon="2.71902">
        <ele>679</ele>
        <time>2010-01-01T13:51:44Z</time>
      </trkpt>
      <trkpt lat="42.34094" lon="2.71913">
        <ele>679</ele>
        <time>2010-01-01T13:52:02Z</time>
      </trkpt>
      <trkpt lat="42.34082" lon="2.71923">
        <ele>680</ele>
        <time>2010-01-01T13:52:16Z</time>
      </trkpt>
      <trkpt lat="42.34068" lon="2.71933">
        <ele>679</ele>
        <time>2010-01-01T13:52:33Z</time>
      </trkpt>
      <trkpt lat="42.34059" lon="2.71946">
        <ele>676</ele>
        <time>2010-01-01T13:52:46Z</time>
      </trkpt>
      <trkpt lat="42.34051" lon="2.71958">
        <ele>674</ele>
        <time>2010-01-01T13:52:58Z</time>
      </trkpt>
      <trkpt lat="42.34042" lon="2.71968">
        <ele>672</ele>
        <time>2010-01-01T13:53:09Z</time>
      </trkpt>
      <trkpt lat="42.34033" lon="2.71978">
        <ele>669</ele>
        <time>2010-01-01T13:53:21Z</time>
      </trkpt>
      <trkpt lat="42.34025" lon="2.71988">
        <ele>666</ele>
        <time>2010-01-01T13:53:32Z</time>
      </trkpt>
      <trkpt lat="42.34016" lon="2.71998">
        <ele>662</ele>
        <time>2010-01-01T13:53:43Z</time>
      </trkpt>
      <trkpt lat="42.34003" lon="2.71998">
        <ele>661</ele>
        <time>2010-01-01T13:53:56Z</time>
      </trkpt>
      <trkpt lat="42.3399" lon="2.71993">
        <ele>661</ele>
        <time>2010-01-01T13:54:10Z</time>
      </trkpt>
      <trkpt lat="42.33981" lon="2.71987">
        <ele>660</ele>
        <time>2010-01-01T13:54:20Z</time>
      </trkpt>
      <trkpt lat="42.3397" lon="2.71981">
        <ele>660</ele>
        <time>2010-01-01T13:54:32Z</time>
      </trkpt>
      <trkpt lat="42.3396" lon="2.7198">
        <ele>657</ele>
        <time>2010-01-01T13:54:42Z</time>
      </trkpt>
      <trkpt lat="42.33961" lon="2.71996">
        <ele>654</ele>
        <time>2010-01-01T13:54:55Z</time>
      </trkpt>
      <trkpt lat="42.33966" lon="2.72015">
        <ele>650</ele>
        <time>2010-01-01T13:55:10Z</time>
      </trkpt>
      <trkpt lat="42.33974" lon="2.72024">
        <ele>650</ele>
        <time>2010-01-01T13:55:20Z</time>
      </trkpt>
      <trkpt lat="42.33986" lon="2.72034">
        <ele>649</ele>
        <time>2010-01-01T13:55:34Z</time>
      </trkpt>
      <trkpt lat="42.33999" lon="2.72044">
        <ele>648</ele>
        <time>2010-01-01T13:55:50Z</time>
      </trkpt>
      <trkpt lat="42.34011" lon="2.72046">
        <ele>647</ele>
        <time>2010-01-01T13:56:01Z</time>
      </trkpt>
      <trkpt lat="42.34018" lon="2.72047">
        <ele>647</ele>
        <time>2010-01-01T13:56:09Z</time>
      </trkpt>
      <trkpt lat="42.3402" lon="2.72058">
        <ele>644</ele>
        <time>2010-01-01T13:56:17Z</time>
      </trkpt>
      <trkpt lat="42.34006" lon="2.72057">
        <ele>644</ele>
        <time>2010-01-01T13:56:31Z</time>
      </trkpt>
      <trkpt lat="42.33994" lon="2.72054">
        <ele>644</ele>
        <time>2010-01-01T13:56:44Z</time>
      </trkpt>
      <trkpt lat="42.33981" lon="2.72051">
        <ele>643</ele>
        <time>2010-01-01T13:56:57Z</time>
      </trkpt>
      <trkpt lat="42.33971" lon="2.72045">
        <ele>643</ele>
        <time>2010-01-01T13:57:08Z</time>
      </trkpt>
      <trkpt lat="42.3396" lon="2.72035">
        <ele>644</ele>
        <time>2010-01-01T13:57:20Z</time>
      </trkpt>
      <trkpt lat="42.3395" lon="2.7203">
        <ele>643</ele>
        <time>2010-01-01T13:57:31Z</time>
      </trkpt>
      <trkpt lat="42.33941" lon="2.72023">
        <ele>643</ele>
        <time>2010-01-01T13:57:42Z</time>
      </trkpt>
      <trkpt lat="42.33931" lon="2.72014">
        <ele>642</ele>
        <time>2010-01-01T13:57:54Z</time>
      </trkpt>
      <trkpt lat="42.33924" lon="2.72005">
        <ele>642</ele>
        <time>2010-01-01T13:58:04Z</time>
      </trkpt>
      <trkpt lat="42.33918" lon="2.71995">
        <ele>642</ele>
        <time>2010-01-01T13:58:14Z</time>
      </trkpt>
      <trkpt lat="42.33912" lon="2.7198">
        <ele>643</ele>
        <time>2010-01-01T13:58:25Z</time>
      </trkpt>
      <trkpt lat="42.33907" lon="2.71969">
        <ele>643</ele>
        <time>2010-01-01T13:58:35Z</time>
      </trkpt>
      <trkpt lat="42.33901" lon="2.71956">
        <ele>643</ele>
        <time>2010-01-01T13:58:47Z</time>
      </trkpt>
      <trkpt lat="42.33894" lon="2.71946">
        <ele>643</ele>
        <time>2010-01-01T13:58:57Z</time>
      </trkpt>
      <trkpt lat="42.33891" lon="2.71932">
        <ele>644</ele>
        <time>2010-01-01T13:59:08Z</time>
      </trkpt>
      <trkpt lat="42.3389" lon="2.71916">
        <ele>647</ele>
        <time>2010-01-01T13:59:19Z</time>
      </trkpt>
      <trkpt lat="42.33884" lon="2.71905">
        <ele>646</ele>
        <time>2010-01-01T13:59:30Z</time>
      </trkpt>
      <trkpt lat="42.33874" lon="2.719">
        <ele>642</ele>
        <time>2010-01-01T13:59:40Z</time>
      </trkpt>
      <trkpt lat="42.33864" lon="2.71899">
        <ele>638</ele>
        <time>2010-01-01T13:59:50Z</time>
      </trkpt>
      <trkpt lat="42.33854" lon="2.71896">
        <ele>636</ele>
        <time>2010-01-01T14:00:00Z</time>
      </trkpt>
      <trkpt lat="42.33846" lon="2.71889">
        <ele>635</ele>
        <time>2010-01-01T14:00:10Z</time>
      </trkpt>
      <trkpt lat="42.33839" lon="2.71879">
        <ele>634</ele>
        <time>2010-01-01T14:00:20Z</time>
      </trkpt>
      <trkpt lat="42.33833" lon="2.71869">
        <ele>634</ele>
        <time>2010-01-01T14:00:29Z</time>
      </trkpt>
      <trkpt lat="42.33828" lon="2.71857">
        <ele>635</ele>
        <time>2010-01-01T14:00:39Z</time>
      </trkpt>
      <trkpt lat="42.33823" lon="2.71846">
        <ele>635</ele>
        <time>2010-01-01T14:00:50Z</time>
      </trkpt>
      <trkpt lat="42.3382" lon="2.71833">
        <ele>636</ele>
        <time>2010-01-01T14:00:59Z</time>
      </trkpt>
      <trkpt lat="42.33821" lon="2.71832">
        <ele>636</ele>
        <time>2010-01-01T14:01:00Z</time>
      </trkpt>
      <trkpt lat="42.33812" lon="2.71839">
        <ele>634</ele>
        <time>2010-01-01T14:01:10Z</time>
      </trkpt>
      <trkpt lat="42.33804" lon="2.71846">
        <ele>633</ele>
        <time>2010-01-01T14:01:20Z</time>
      </trkpt>
      <trkpt lat="42.33797" lon="2.71858">
        <ele>633</ele>
        <time>2010-01-01T14:01:31Z</time>
      </trkpt>
      <trkpt lat="42.33789" lon="2.71866">
        <ele>633</ele>
        <time>2010-01-01T14:01:41Z</time>
      </trkpt>
      <trkpt lat="42.33773" lon="2.71862">
        <ele>633</ele>
        <time>2010-01-01T14:01:57Z</time>
      </trkpt>
      <trkpt lat="42.33761" lon="2.71868">
        <ele>636</ele>
        <time>2010-01-01T14:02:10Z</time>
      </trkpt>
      <trkpt lat="42.33753" lon="2.71887">
        <ele>640</ele>
        <time>2010-01-01T14:02:26Z</time>
      </trkpt>
      <trkpt lat="42.33758" lon="2.71912">
        <ele>641</ele>
        <time>2010-01-01T14:02:45Z</time>
      </trkpt>
      <trkpt lat="42.33752" lon="2.71932">
        <ele>642</ele>
        <time>2010-01-01T14:03:01Z</time>
      </trkpt>
      <trkpt lat="42.33745" lon="2.7195">
        <ele>642</ele>
        <time>2010-01-01T14:03:16Z</time>
      </trkpt>
      <trkpt lat="42.33741" lon="2.71964">
        <ele>643</ele>
        <time>2010-01-01T14:03:28Z</time>
      </trkpt>
      <trkpt lat="42.33731" lon="2.71977">
        <ele>647</ele>
        <time>2010-01-01T14:03:41Z</time>
      </trkpt>
      <trkpt lat="42.33723" lon="2.71992">
        <ele>650</ele>
        <time>2010-01-01T14:03:55Z</time>
      </trkpt>
      <trkpt lat="42.33712" lon="2.72003">
        <ele>654</ele>
        <time>2010-01-01T14:04:09Z</time>
      </trkpt>
      <trkpt lat="42.33715" lon="2.72021">
        <ele>652</ele>
        <time>2010-01-01T14:04:23Z</time>
      </trkpt>
      <trkpt lat="42.3372" lon="2.72035">
        <ele>650</ele>
        <time>2010-01-01T14:04:34Z</time>
      </trkpt>
      <trkpt lat="42.33724" lon="2.72047">
        <ele>648</ele>
        <time>2010-01-01T14:04:44Z</time>
      </trkpt>
      <trkpt lat="42.33728" lon="2.72061">
        <ele>645</ele>
        <time>2010-01-01T14:04:55Z</time>
      </trkpt>
      <trkpt lat="42.33731" lon="2.72077">
        <ele>642</ele>
        <time>2010-01-01T14:05:07Z</time>
      </trkpt>
      <trkpt lat="42.33733" lon="2.72092">
        <ele>639</ele>
        <time>2010-01-01T14:05:18Z</time>
      </trkpt>
      <trkpt lat="42.33725" lon="2.72102">
        <ele>639</ele>
        <time>2010-01-01T14:05:29Z</time>
      </trkpt>
      <trkpt lat="42.33715" lon="2.72105">
        <ele>642</ele>
        <time>2010-01-01T14:05:40Z</time>
      </trkpt>
      <trkpt lat="42.337" lon="2.72109">
        <ele>647</ele>
        <time>2010-01-01T14:05:55Z</time>
      </trkpt>
      <trkpt lat="42.33687" lon="2.72115">
        <ele>650</ele>
        <time>2010-01-01T14:06:09Z</time>
      </trkpt>
      <trkpt lat="42.33677" lon="2.72126">
        <ele>651</ele>
        <time>2010-01-01T14:06:22Z</time>
      </trkpt>
      <trkpt lat="42.33668" lon="2.72141">
        <ele>651</ele>
        <time>2010-01-01T14:06:36Z</time>
      </trkpt>
      <trkpt lat="42.33662" lon="2.72154">
        <ele>648</ele>
        <time>2010-01-01T14:06:48Z</time>
      </trkpt>
      <trkpt lat="42.33661" lon="2.72167">
        <ele>644</ele>
        <time>2010-01-01T14:06:57Z</time>
      </trkpt>
      <trkpt lat="42.33659" lon="2.72181">
        <ele>641</ele>
        <time>2010-01-01T14:07:08Z</time>
      </trkpt>
      <trkpt lat="42.33652" lon="2.72189">
        <ele>639</ele>
        <time>2010-01-01T14:07:17Z</time>
      </trkpt>
      <trkpt lat="42.33641" lon="2.72191">
        <ele>639</ele>
        <time>2010-01-01T14:07:28Z</time>
      </trkpt>
      <trkpt lat="42.3363" lon="2.7219">
        <ele>640</ele>
        <time>2010-01-01T14:07:39Z</time>
      </trkpt>
      <trkpt lat="42.3362" lon="2.72186">
        <ele>641</ele>
        <time>2010-01-01T14:07:49Z</time>
      </trkpt>
      <trkpt lat="42.33611" lon="2.72182">
        <ele>642</ele>
        <time>2010-01-01T14:07:59Z</time>
      </trkpt>
      <trkpt lat="42.336" lon="2.72178">
        <ele>643</ele>
        <time>2010-01-01T14:08:10Z</time>
      </trkpt>
      <trkpt lat="42.3359" lon="2.72172">
        <ele>644</ele>
        <time>2010-01-01T14:08:22Z</time>
      </trkpt>
      <trkpt lat="42.33579" lon="2.72167">
        <ele>646</ele>
        <time>2010-01-01T14:08:33Z</time>
      </trkpt>
      <trkpt lat="42.33569" lon="2.72166">
        <ele>646</ele>
        <time>2010-01-01T14:08:43Z</time>
      </trkpt>
      <trkpt lat="42.33559" lon="2.72175">
        <ele>645</ele>
        <time>2010-01-01T14:08:55Z</time>
      </trkpt>
      <trkpt lat="42.33555" lon="2.72194">
        <ele>642</ele>
        <time>2010-01-01T14:09:09Z</time>
      </trkpt>
      <trkpt lat="42.33558" lon="2.72212">
        <ele>642</ele>
        <time>2010-01-01T14:09:23Z</time>
      </trkpt>
      <trkpt lat="42.33562" lon="2.72234">
        <ele>644</ele>
        <time>2010-01-01T14:09:40Z</time>
      </trkpt>
      <trkpt lat="42.33569" lon="2.72246">
        <ele>643</ele>
        <time>2010-01-01T14:09:51Z</time>
      </trkpt>
      <trkpt lat="42.33572" lon="2.72263">
        <ele>644</ele>
        <time>2010-01-01T14:10:04Z</time>
      </trkpt>
      <trkpt lat="42.33577" lon="2.72281">
        <ele>644</ele>
        <time>2010-01-01T14:10:18Z</time>
      </trkpt>
      <trkpt lat="42.33579" lon="2.72301">
        <ele>645</ele>
        <time>2010-01-01T14:10:33Z</time>
      </trkpt>
      <trkpt lat="42.33585" lon="2.72318">
        <ele>644</ele>
        <time>2010-01-01T14:10:47Z</time>
      </trkpt>
      <trkpt lat="42.33593" lon="2.72334">
        <ele>644</ele>
        <time>2010-01-01T14:11:02Z</time>
      </trkpt>
      <trkpt lat="42.33601" lon="2.72347">
        <ele>642</ele>
        <time>2010-01-01T14:11:13Z</time>
      </trkpt>
      <trkpt lat="42.33608" lon="2.72362">
        <ele>640</ele>
        <time>2010-01-01T14:11:27Z</time>
      </trkpt>
      <trkpt lat="42.33608" lon="2.72377">
        <ele>641</ele>
        <time>2010-01-01T14:11:38Z</time>
      </trkpt>
      <trkpt lat="42.3362" lon="2.72371">
        <ele>639</ele>
        <time>2010-01-01T14:11:51Z</time>
      </trkpt>
      <trkpt lat="42.33631" lon="2.72369">
        <ele>638</ele>
        <time>2010-01-01T14:12:02Z</time>
      </trkpt>
      <trkpt lat="42.33635" lon="2.72369">
        <ele>637</ele>
        <time>2010-01-01T14:12:07Z</time>
      </trkpt>
      <trkpt lat="42.33643" lon="2.72368">
        <ele>637</ele>
        <time>2010-01-01T14:12:15Z</time>
      </trkpt>
      <trkpt lat="42.3365" lon="2.72366">
        <ele>636</ele>
        <time>2010-01-01T14:12:22Z</time>
      </trkpt>
      <trkpt lat="42.33641" lon="2.72367">
        <ele>637</ele>
        <time>2010-01-01T14:12:31Z</time>
      </trkpt>
      <trkpt lat="42.33629" lon="2.72367">
        <ele>638</ele>
        <time>2010-01-01T14:12:43Z</time>
      </trkpt>
      <trkpt lat="42.33618" lon="2.72372">
        <ele>639</ele>
        <time>2010-01-01T14:12:55Z</time>
      </trkpt>
      <trkpt lat="42.33609" lon="2.72379">
        <ele>641</ele>
        <time>2010-01-01T14:13:06Z</time>
      </trkpt>
      <trkpt lat="42.336" lon="2.72392">
        <ele>643</ele>
        <time>2010-01-01T14:13:18Z</time>
      </trkpt>
      <trkpt lat="42.33598" lon="2.72411">
        <ele>641</ele>
        <time>2010-01-01T14:13:33Z</time>
      </trkpt>
      <trkpt lat="42.336" lon="2.72429">
        <ele>638</ele>
        <time>2010-01-01T14:13:46Z</time>
      </trkpt>
      <trkpt lat="42.33603" lon="2.72445">
        <ele>636</ele>
        <time>2010-01-01T14:13:58Z</time>
      </trkpt>
      <trkpt lat="42.33605" lon="2.72459">
        <ele>634</ele>
        <time>2010-01-01T14:14:09Z</time>
      </trkpt>
      <trkpt lat="42.33605" lon="2.72473">
        <ele>632</ele>
        <time>2010-01-01T14:14:19Z</time>
      </trkpt>
      <trkpt lat="42.33604" lon="2.72489">
        <ele>631</ele>
        <time>2010-01-01T14:14:31Z</time>
      </trkpt>
      <trkpt lat="42.33604" lon="2.72502">
        <ele>630</ele>
        <time>2010-01-01T14:14:41Z</time>
      </trkpt>
      <trkpt lat="42.33603" lon="2.72515">
        <ele>628</ele>
        <time>2010-01-01T14:14:51Z</time>
      </trkpt>
      <trkpt lat="42.336" lon="2.72528">
        <ele>627</ele>
        <time>2010-01-01T14:15:01Z</time>
      </trkpt>
      <trkpt lat="42.33598" lon="2.72542">
        <ele>626</ele>
        <time>2010-01-01T14:15:11Z</time>
      </trkpt>
      <trkpt lat="42.33597" lon="2.72556">
        <ele>623</ele>
        <time>2010-01-01T14:15:21Z</time>
      </trkpt>
      <trkpt lat="42.33601" lon="2.7257">
        <ele>617</ele>
        <time>2010-01-01T14:15:32Z</time>
      </trkpt>
      <trkpt lat="42.33602" lon="2.72584">
        <ele>612</ele>
        <time>2010-01-01T14:15:43Z</time>
      </trkpt>
      <trkpt lat="42.33602" lon="2.72593">
        <ele>609</ele>
        <time>2010-01-01T14:15:50Z</time>
      </trkpt>
      <trkpt lat="42.33603" lon="2.72607">
        <ele>605</ele>
        <time>2010-01-01T14:16:00Z</time>
      </trkpt>
      <trkpt lat="42.33597" lon="2.72618">
        <ele>603</ele>
        <time>2010-01-01T14:16:10Z</time>
      </trkpt>
      <trkpt lat="42.33588" lon="2.72624">
        <ele>603</ele>
        <time>2010-01-01T14:16:20Z</time>
      </trkpt>
      <trkpt lat="42.33581" lon="2.72635">
        <ele>600</ele>
        <time>2010-01-01T14:16:31Z</time>
      </trkpt>
      <trkpt lat="42.33575" lon="2.72643">
        <ele>596</ele>
        <time>2010-01-01T14:16:39Z</time>
      </trkpt>
      <trkpt lat="42.33564" lon="2.72645">
        <ele>594</ele>
        <time>2010-01-01T14:16:50Z</time>
      </trkpt>
      <trkpt lat="42.33555" lon="2.72647">
        <ele>592</ele>
        <time>2010-01-01T14:17:00Z</time>
      </trkpt>
      <trkpt lat="42.33545" lon="2.72646">
        <ele>593</ele>
        <time>2010-01-01T14:17:10Z</time>
      </trkpt>
      <trkpt lat="42.33535" lon="2.72644">
        <ele>593</ele>
        <time>2010-01-01T14:17:20Z</time>
      </trkpt>
      <trkpt lat="42.33525" lon="2.72642">
        <ele>593</ele>
        <time>2010-01-01T14:17:30Z</time>
      </trkpt>
      <trkpt lat="42.33514" lon="2.72641">
        <ele>592</ele>
        <time>2010-01-01T14:17:40Z</time>
      </trkpt>
      <trkpt lat="42.33505" lon="2.72636">
        <ele>593</ele>
        <time>2010-01-01T14:17:50Z</time>
      </trkpt>
      <trkpt lat="42.33502" lon="2.72624">
        <ele>598</ele>
        <time>2010-01-01T14:18:00Z</time>
      </trkpt>
      <trkpt lat="42.33498" lon="2.72611">
        <ele>603</ele>
        <time>2010-01-01T14:18:10Z</time>
      </trkpt>
      <trkpt lat="42.33489" lon="2.72602">
        <ele>604</ele>
        <time>2010-01-01T14:18:21Z</time>
      </trkpt>
      <trkpt lat="42.33479" lon="2.72599">
        <ele>601</ele>
        <time>2010-01-01T14:18:32Z</time>
      </trkpt>
      <trkpt lat="42.3347" lon="2.72595">
        <ele>599</ele>
        <time>2010-01-01T14:18:41Z</time>
      </trkpt>
      <trkpt lat="42.33462" lon="2.72586">
        <ele>600</ele>
        <time>2010-01-01T14:18:51Z</time>
      </trkpt>
      <trkpt lat="42.33454" lon="2.72577">
        <ele>601</ele>
        <time>2010-01-01T14:19:01Z</time>
      </trkpt>
      <trkpt lat="42.33447" lon="2.72569">
        <ele>602</ele>
        <time>2010-01-01T14:19:11Z</time>
      </trkpt>
      <trkpt lat="42.3344" lon="2.72559">
        <ele>604</ele>
        <time>2010-01-01T14:19:21Z</time>
      </trkpt>
      <trkpt lat="42.33433" lon="2.72551">
        <ele>604</ele>
        <time>2010-01-01T14:19:31Z</time>
      </trkpt>
      <trkpt lat="42.33422" lon="2.72547">
        <ele>602</ele>
        <time>2010-01-01T14:19:42Z</time>
      </trkpt>
      <trkpt lat="42.33406" lon="2.72546">
        <ele>596</ele>
        <time>2010-01-01T14:19:58Z</time>
      </trkpt>
      <trkpt lat="42.33392" lon="2.72548">
        <ele>590</ele>
        <time>2010-01-01T14:20:11Z</time>
      </trkpt>
      <trkpt lat="42.3338" lon="2.72548">
        <ele>585</ele>
        <time>2010-01-01T14:20:24Z</time>
      </trkpt>
      <trkpt lat="42.33368" lon="2.72546">
        <ele>581</ele>
        <time>2010-01-01T14:20:36Z</time>
      </trkpt>
      <trkpt lat="42.33366" lon="2.72549">
        <ele>579</ele>
        <time>2010-01-01T14:20:39Z</time>
      </trkpt>
      <trkpt lat="42.33352" lon="2.72548">
        <ele>577</ele>
        <time>2010-01-01T14:20:53Z</time>
      </trkpt>
      <trkpt lat="42.33341" lon="2.72548">
        <ele>575</ele>
        <time>2010-01-01T14:21:04Z</time>
      </trkpt>
      <trkpt lat="42.33334" lon="2.72547">
        <ele>575</ele>
        <time>2010-01-01T14:21:11Z</time>
      </trkpt>
      <trkpt lat="42.33324" lon="2.72546">
        <ele>574</ele>
        <time>2010-01-01T14:21:22Z</time>
      </trkpt>
      <trkpt lat="42.33313" lon="2.72543">
        <ele>573</ele>
        <time>2010-01-01T14:21:33Z</time>
      </trkpt>
      <trkpt lat="42.33302" lon="2.72543">
        <ele>571</ele>
        <time>2010-01-01T14:21:44Z</time>
      </trkpt>
      <trkpt lat="42.33292" lon="2.72548">
        <ele>569</ele>
        <time>2010-01-01T14:21:55Z</time>
      </trkpt>
      <trkpt lat="42.33286" lon="2.72559">
        <ele>569</ele>
        <time>2010-01-01T14:22:05Z</time>
      </trkpt>
      <trkpt lat="42.33278" lon="2.72572">
        <ele>568</ele>
        <time>2010-01-01T14:22:18Z</time>
      </trkpt>
      <trkpt lat="42.33269" lon="2.72585">
        <ele>567</ele>
        <time>2010-01-01T14:22:30Z</time>
      </trkpt>
      <trkpt lat="42.33259" lon="2.72597">
        <ele>565</ele>
        <time>2010-01-01T14:22:44Z</time>
      </trkpt>
      <trkpt lat="42.33249" lon="2.72606">
        <ele>564</ele>
        <time>2010-01-01T14:22:56Z</time>
      </trkpt>
      <trkpt lat="42.33239" lon="2.72611">
        <ele>563</ele>
        <time>2010-01-01T14:23:06Z</time>
      </trkpt>
      <trkpt lat="42.33228" lon="2.72612">
        <ele>562</ele>
        <time>2010-01-01T14:23:17Z</time>
      </trkpt>
      <trkpt lat="42.33218" lon="2.7261">
        <ele>562</ele>
        <time>2010-01-01T14:23:28Z</time>
      </trkpt>
      <trkpt lat="42.33209" lon="2.72605">
        <ele>562</ele>
        <time>2010-01-01T14:23:38Z</time>
      </trkpt>
      <trkpt lat="42.33195" lon="2.72601">
        <ele>562</ele>
        <time>2010-01-01T14:23:51Z</time>
      </trkpt>
      <trkpt lat="42.33182" lon="2.72597">
        <ele>562</ele>
        <time>2010-01-01T14:24:05Z</time>
      </trkpt>
      <trkpt lat="42.33165" lon="2.72603">
        <ele>563</ele>
        <time>2010-01-01T14:24:23Z</time>
      </trkpt>
      <trkpt lat="42.33152" lon="2.72621">
        <ele>563</ele>
        <time>2010-01-01T14:24:40Z</time>
      </trkpt>
      <trkpt lat="42.33146" lon="2.72639">
        <ele>563</ele>
        <time>2010-01-01T14:24:56Z</time>
      </trkpt>
      <trkpt lat="42.33147" lon="2.72658">
        <ele>563</ele>
        <time>2010-01-01T14:25:09Z</time>
      </trkpt>
      <trkpt lat="42.33147" lon="2.72678">
        <ele>561</ele>
        <time>2010-01-01T14:25:24Z</time>
      </trkpt>
      <trkpt lat="42.3315" lon="2.72696">
        <ele>557</ele>
        <time>2010-01-01T14:25:38Z</time>
      </trkpt>
      <trkpt lat="42.33149" lon="2.7271">
        <ele>554</ele>
        <time>2010-01-01T14:25:49Z</time>
      </trkpt>
      <trkpt lat="42.33141" lon="2.72721">
        <ele>552</ele>
        <time>2010-01-01T14:26:00Z</time>
      </trkpt>
      <trkpt lat="42.33133" lon="2.7273">
        <ele>552</ele>
        <time>2010-01-01T14:26:10Z</time>
      </trkpt>
      <trkpt lat="42.33125" lon="2.7274">
        <ele>551</ele>
        <time>2010-01-01T14:26:21Z</time>
      </trkpt>
      <trkpt lat="42.33119" lon="2.72751">
        <ele>550</ele>
        <time>2010-01-01T14:26:31Z</time>
      </trkpt>
      <trkpt lat="42.33111" lon="2.72758">
        <ele>550</ele>
        <time>2010-01-01T14:26:41Z</time>
      </trkpt>
      <trkpt lat="42.33103" lon="2.72767">
        <ele>550</ele>
        <time>2010-01-01T14:26:52Z</time>
      </trkpt>
      <trkpt lat="42.33094" lon="2.72773">
        <ele>551</ele>
        <time>2010-01-01T14:27:01Z</time>
      </trkpt>
      <trkpt lat="42.33083" lon="2.72782">
        <ele>553</ele>
        <time>2010-01-01T14:27:14Z</time>
      </trkpt>
      <trkpt lat="42.33073" lon="2.72789">
        <ele>553</ele>
        <time>2010-01-01T14:27:26Z</time>
      </trkpt>
      <trkpt lat="42.33062" lon="2.72795">
        <ele>554</ele>
        <time>2010-01-01T14:27:38Z</time>
      </trkpt>
      <trkpt lat="42.33048" lon="2.72797">
        <ele>554</ele>
        <time>2010-01-01T14:27:51Z</time>
      </trkpt>
      <trkpt lat="42.33037" lon="2.72799">
        <ele>553</ele>
        <time>2010-01-01T14:28:03Z</time>
      </trkpt>
      <trkpt lat="42.33027" lon="2.72802">
        <ele>553</ele>
        <time>2010-01-01T14:28:13Z</time>
      </trkpt>
      <trkpt lat="42.3302" lon="2.72814">
        <ele>554</ele>
        <time>2010-01-01T14:28:23Z</time>
      </trkpt>
      <trkpt lat="42.33012" lon="2.72823">
        <ele>554</ele>
        <time>2010-01-01T14:28:34Z</time>
      </trkpt>
      <trkpt lat="42.33006" lon="2.72825">
        <ele>553</ele>
        <time>2010-01-01T14:28:41Z</time>
      </trkpt>
      <trkpt lat="42.32999" lon="2.72834">
        <ele>554</ele>
        <time>2010-01-01T14:28:50Z</time>
      </trkpt>
      <trkpt lat="42.3299" lon="2.72843">
        <ele>556</ele>
        <time>2010-01-01T14:29:02Z</time>
      </trkpt>
      <trkpt lat="42.3298" lon="2.7285">
        <ele>557</ele>
        <time>2010-01-01T14:29:13Z</time>
      </trkpt>
      <trkpt lat="42.32969" lon="2.72858">
        <ele>559</ele>
        <time>2010-01-01T14:29:25Z</time>
      </trkpt>
      <trkpt lat="42.32959" lon="2.7287">
        <ele>562</ele>
        <time>2010-01-01T14:29:39Z</time>
      </trkpt>
      <trkpt lat="42.32946" lon="2.72878">
        <ele>563</ele>
        <time>2010-01-01T14:29:53Z</time>
      </trkpt>
      <trkpt lat="42.32931" lon="2.72879">
        <ele>563</ele>
        <time>2010-01-01T14:30:07Z</time>
      </trkpt>
      <trkpt lat="42.3292" lon="2.72878">
        <ele>563</ele>
        <time>2010-01-01T14:30:18Z</time>
      </trkpt>
      <trkpt lat="42.3291" lon="2.72874">
        <ele>563</ele>
        <time>2010-01-01T14:30:30Z</time>
      </trkpt>
      <trkpt lat="42.329" lon="2.72872">
        <ele>564</ele>
        <time>2010-01-01T14:30:40Z</time>
      </trkpt>
      <trkpt lat="42.32889" lon="2.72867">
        <ele>563</ele>
        <time>2010-01-01T14:30:51Z</time>
      </trkpt>
      <trkpt lat="42.32878" lon="2.72862">
        <ele>565</ele>
        <time>2010-01-01T14:31:02Z</time>
      </trkpt>
      <trkpt lat="42.32867" lon="2.7286">
        <ele>568</ele>
        <time>2010-01-01T14:31:13Z</time>
      </trkpt>
      <trkpt lat="42.32853" lon="2.72857">
        <ele>572</ele>
        <time>2010-01-01T14:31:28Z</time>
      </trkpt>
      <trkpt lat="42.32842" lon="2.72852">
        <ele>573</ele>
        <time>2010-01-01T14:31:40Z</time>
      </trkpt>
      <trkpt lat="42.3283" lon="2.72842">
        <ele>574</ele>
        <time>2010-01-01T14:31:54Z</time>
      </trkpt>
      <trkpt lat="42.32817" lon="2.72831">
        <ele>575</ele>
        <time>2010-01-01T14:32:09Z</time>
      </trkpt>
      <trkpt lat="42.32804" lon="2.72822">
        <ele>576</ele>
        <time>2010-01-01T14:32:24Z</time>
      </trkpt>
      <trkpt lat="42.32795" lon="2.72815">
        <ele>576</ele>
        <time>2010-01-01T14:32:34Z</time>
      </trkpt>
      <trkpt lat="42.32787" lon="2.72808">
        <ele>575</ele>
        <time>2010-01-01T14:32:44Z</time>
      </trkpt>
      <trkpt lat="42.32778" lon="2.72804">
        <ele>575</ele>
        <time>2010-01-01T14:32:53Z</time>
      </trkpt>
      <trkpt lat="42.32778" lon="2.72816">
        <ele>578</ele>
        <time>2010-01-01T14:33:02Z</time>
      </trkpt>
      <trkpt lat="42.32788" lon="2.72819">
        <ele>578</ele>
        <time>2010-01-01T14:33:13Z</time>
      </trkpt>
      <trkpt lat="42.32799" lon="2.7283">
        <ele>580</ele>
        <time>2010-01-01T14:33:27Z</time>
      </trkpt>
      <trkpt lat="42.3281" lon="2.72843">
        <ele>581</ele>
        <time>2010-01-01T14:33:41Z</time>
      </trkpt>
      <trkpt lat="42.3282" lon="2.72857">
        <ele>582</ele>
        <time>2010-01-01T14:33:56Z</time>
      </trkpt>
      <trkpt lat="42.32829" lon="2.72869">
        <ele>583</ele>
        <time>2010-01-01T14:34:09Z</time>
      </trkpt>
      <trkpt lat="42.32838" lon="2.7288">
        <ele>584</ele>
        <time>2010-01-01T14:34:20Z</time>
      </trkpt>
      <trkpt lat="42.32848" lon="2.72893">
        <ele>584</ele>
        <time>2010-01-01T14:34:35Z</time>
      </trkpt>
      <trkpt lat="42.32858" lon="2.72904">
        <ele>583</ele>
        <time>2010-01-01T14:34:47Z</time>
      </trkpt>
      <trkpt lat="42.32869" lon="2.72909">
        <ele>580</ele>
        <time>2010-01-01T14:34:59Z</time>
      </trkpt>
      <trkpt lat="42.32879" lon="2.72919">
        <ele>579</ele>
        <time>2010-01-01T14:35:11Z</time>
      </trkpt>
      <trkpt lat="42.3288" lon="2.72933">
        <ele>579</ele>
        <time>2010-01-01T14:35:22Z</time>
      </trkpt>
      <trkpt lat="42.32874" lon="2.72951">
        <ele>581</ele>
        <time>2010-01-01T14:35:36Z</time>
      </trkpt>
      <trkpt lat="42.32864" lon="2.72967">
        <ele>584</ele>
        <time>2010-01-01T14:35:52Z</time>
      </trkpt>
      <trkpt lat="42.32852" lon="2.72982">
        <ele>586</ele>
        <time>2010-01-01T14:36:08Z</time>
      </trkpt>
      <trkpt lat="42.32841" lon="2.72993">
        <ele>588</ele>
        <time>2010-01-01T14:36:22Z</time>
      </trkpt>
      <trkpt lat="42.32831" lon="2.73005">
        <ele>590</ele>
        <time>2010-01-01T14:36:35Z</time>
      </trkpt>
      <trkpt lat="42.32821" lon="2.73016">
        <ele>592</ele>
        <time>2010-01-01T14:36:48Z</time>
      </trkpt>
      <trkpt lat="42.32811" lon="2.7303">
        <ele>592</ele>
        <time>2010-01-01T14:37:02Z</time>
      </trkpt>
      <trkpt lat="42.32804" lon="2.73045">
        <ele>592</ele>
        <time>2010-01-01T14:37:16Z</time>
      </trkpt>
      <trkpt lat="42.32801" lon="2.73061">
        <ele>591</ele>
        <time>2010-01-01T14:37:28Z</time>
      </trkpt>
      <trkpt lat="42.32794" lon="2.73075">
        <ele>591</ele>
        <time>2010-01-01T14:37:41Z</time>
      </trkpt>
      <trkpt lat="42.32788" lon="2.73089">
        <ele>590</ele>
        <time>2010-01-01T14:37:52Z</time>
      </trkpt>
      <trkpt lat="42.32781" lon="2.73101">
        <ele>589</ele>
        <time>2010-01-01T14:38:03Z</time>
      </trkpt>
      <trkpt lat="42.32771" lon="2.73105">
        <ele>590</ele>
        <time>2010-01-01T14:38:14Z</time>
      </trkpt>
      <trkpt lat="42.32758" lon="2.7311">
        <ele>590</ele>
        <time>2010-01-01T14:38:27Z</time>
      </trkpt>
      <trkpt lat="42.32747" lon="2.73114">
        <ele>590</ele>
        <time>2010-01-01T14:38:39Z</time>
      </trkpt>
      <trkpt lat="42.32736" lon="2.73112">
        <ele>591</ele>
        <time>2010-01-01T14:38:50Z</time>
      </trkpt>
      <trkpt lat="42.32725" lon="2.73108">
        <ele>593</ele>
        <time>2010-01-01T14:39:01Z</time>
      </trkpt>
      <trkpt lat="42.32714" lon="2.73106">
        <ele>595</ele>
        <time>2010-01-01T14:39:12Z</time>
      </trkpt>
      <trkpt lat="42.32703" lon="2.73098">
        <ele>597</ele>
        <time>2010-01-01T14:39:25Z</time>
      </trkpt>
      <trkpt lat="42.32689" lon="2.7309">
        <ele>597</ele>
        <time>2010-01-01T14:39:40Z</time>
      </trkpt>
      <trkpt lat="42.32672" lon="2.73089">
        <ele>598</ele>
        <time>2010-01-01T14:39:57Z</time>
      </trkpt>
      <trkpt lat="42.32659" lon="2.73091">
        <ele>598</ele>
        <time>2010-01-01T14:40:10Z</time>
      </trkpt>
      <trkpt lat="42.32641" lon="2.73097">
        <ele>597</ele>
        <time>2010-01-01T14:40:28Z</time>
      </trkpt>
      <trkpt lat="42.32623" lon="2.731">
        <ele>596</ele>
        <time>2010-01-01T14:40:46Z</time>
      </trkpt>
      <trkpt lat="42.32601" lon="2.73098">
        <ele>597</ele>
        <time>2010-01-01T14:41:09Z</time>
      </trkpt>
      <trkpt lat="42.32579" lon="2.73093">
        <ele>598</ele>
        <time>2010-01-01T14:41:31Z</time>
      </trkpt>
      <trkpt lat="42.32566" lon="2.73089">
        <ele>598</ele>
        <time>2010-01-01T14:41:44Z</time>
      </trkpt>
      <trkpt lat="42.32553" lon="2.73081">
        <ele>598</ele>
        <time>2010-01-01T14:41:59Z</time>
      </trkpt>
      <trkpt lat="42.32537" lon="2.73076">
        <ele>599</ele>
        <time>2010-01-01T14:42:15Z</time>
      </trkpt>
      <trkpt lat="42.32524" lon="2.73067">
        <ele>599</ele>
        <time>2010-01-01T14:42:30Z</time>
      </trkpt>
      <trkpt lat="42.32512" lon="2.73058">
        <ele>598</ele>
        <time>2010-01-01T14:42:43Z</time>
      </trkpt>
      <trkpt lat="42.325" lon="2.73046">
        <ele>596</ele>
        <time>2010-01-01T14:42:59Z</time>
      </trkpt>
      <trkpt lat="42.32489" lon="2.73036">
        <ele>596</ele>
        <time>2010-01-01T14:43:11Z</time>
      </trkpt>
      <trkpt lat="42.32479" lon="2.73023">
        <ele>595</ele>
        <time>2010-01-01T14:43:26Z</time>
      </trkpt>
      <trkpt lat="42.32471" lon="2.7301">
        <ele>594</ele>
        <time>2010-01-01T14:43:38Z</time>
      </trkpt>
      <trkpt lat="42.32463" lon="2.72998">
        <ele>594</ele>
        <time>2010-01-01T14:43:49Z</time>
      </trkpt>
      <trkpt lat="42.32455" lon="2.72985">
        <ele>593</ele>
        <time>2010-01-01T14:44:02Z</time>
      </trkpt>
      <trkpt lat="42.32446" lon="2.72974">
        <ele>593</ele>
        <time>2010-01-01T14:44:15Z</time>
      </trkpt>
      <trkpt lat="42.32434" lon="2.72964">
        <ele>590</ele>
        <time>2010-01-01T14:44:28Z</time>
      </trkpt>
      <trkpt lat="42.32418" lon="2.72954">
        <ele>587</ele>
        <time>2010-01-01T14:44:46Z</time>
      </trkpt>
      <trkpt lat="42.32404" lon="2.72947">
        <ele>586</ele>
        <time>2010-01-01T14:45:01Z</time>
      </trkpt>
      <trkpt lat="42.32385" lon="2.7294">
        <ele>587</ele>
        <time>2010-01-01T14:45:21Z</time>
      </trkpt>
      <trkpt lat="42.32368" lon="2.72933">
        <ele>586</ele>
        <time>2010-01-01T14:45:39Z</time>
      </trkpt>
      <trkpt lat="42.32348" lon="2.72928">
        <ele>586</ele>
        <time>2010-01-01T14:45:59Z</time>
      </trkpt>
      <trkpt lat="42.32332" lon="2.72923">
        <ele>585</ele>
        <time>2010-01-01T14:46:16Z</time>
      </trkpt>
      <trkpt lat="42.32311" lon="2.72917">
        <ele>583</ele>
        <time>2010-01-01T14:46:37Z</time>
      </trkpt>
      <trkpt lat="42.3229" lon="2.72913">
        <ele>581</ele>
        <time>2010-01-01T14:46:58Z</time>
      </trkpt>
      <trkpt lat="42.32268" lon="2.72909">
        <ele>582</ele>
        <time>2010-01-01T14:47:21Z</time>
      </trkpt>
      <trkpt lat="42.32249" lon="2.72899">
        <ele>580</ele>
        <time>2010-01-01T14:47:41Z</time>
      </trkpt>
      <trkpt lat="42.32234" lon="2.7289">
        <ele>578</ele>
        <time>2010-01-01T14:47:57Z</time>
      </trkpt>
      <trkpt lat="42.32221" lon="2.72886">
        <ele>577</ele>
        <time>2010-01-01T14:48:11Z</time>
      </trkpt>
      <trkpt lat="42.32208" lon="2.72879">
        <ele>575</ele>
        <time>2010-01-01T14:48:24Z</time>
      </trkpt>
      <trkpt lat="42.32194" lon="2.72875">
        <ele>575</ele>
        <time>2010-01-01T14:48:39Z</time>
      </trkpt>
      <trkpt lat="42.32179" lon="2.72872">
        <ele>575</ele>
        <time>2010-01-01T14:48:54Z</time>
      </trkpt>
      <trkpt lat="42.32162" lon="2.72868">
        <ele>575</ele>
        <time>2010-01-01T14:49:11Z</time>
      </trkpt>
      <trkpt lat="42.32149" lon="2.7286">
        <ele>575</ele>
        <time>2010-01-01T14:49:26Z</time>
      </trkpt>
      <trkpt lat="42.32139" lon="2.72851">
        <ele>574</ele>
        <time>2010-01-01T14:49:38Z</time>
      </trkpt>
      <trkpt lat="42.32129" lon="2.72839">
        <ele>575</ele>
        <time>2010-01-01T14:49:51Z</time>
      </trkpt>
      <trkpt lat="42.32119" lon="2.7283">
        <ele>575</ele>
        <time>2010-01-01T14:50:03Z</time>
      </trkpt>
      <trkpt lat="42.32108" lon="2.72823">
        <ele>576</ele>
        <time>2010-01-01T14:50:15Z</time>
      </trkpt>
      <trkpt lat="42.32093" lon="2.72811">
        <ele>577</ele>
        <time>2010-01-01T14:50:33Z</time>
      </trkpt>
      <trkpt lat="42.32084" lon="2.72795">
        <ele>577</ele>
        <time>2010-01-01T14:50:47Z</time>
      </trkpt>
      <trkpt lat="42.32079" lon="2.72777">
        <ele>576</ele>
        <time>2010-01-01T14:51:02Z</time>
      </trkpt>
      <trkpt lat="42.32075" lon="2.72755">
        <ele>576</ele>
        <time>2010-01-01T14:51:19Z</time>
      </trkpt>
      <trkpt lat="42.32067" lon="2.72733">
        <ele>576</ele>
        <time>2010-01-01T14:51:37Z</time>
      </trkpt>
      <trkpt lat="42.32063" lon="2.72712">
        <ele>576</ele>
        <time>2010-01-01T14:51:53Z</time>
      </trkpt>
      <trkpt lat="42.32064" lon="2.72687">
        <ele>575</ele>
        <time>2010-01-01T14:52:12Z</time>
      </trkpt>
      <trkpt lat="42.32065" lon="2.72661">
        <ele>572</ele>
        <time>2010-01-01T14:52:31Z</time>
      </trkpt>
      <trkpt lat="42.3206" lon="2.72644">
        <ele>571</ele>
        <time>2010-01-01T14:52:44Z</time>
      </trkpt>
      <trkpt lat="42.32051" lon="2.72632">
        <ele>571</ele>
        <time>2010-01-01T14:52:56Z</time>
      </trkpt>
      <trkpt lat="42.32044" lon="2.72621">
        <ele>571</ele>
        <time>2010-01-01T14:53:07Z</time>
      </trkpt>
      <trkpt lat="42.32036" lon="2.72613">
        <ele>572</ele>
        <time>2010-01-01T14:53:17Z</time>
      </trkpt>
      <trkpt lat="42.32028" lon="2.72606">
        <ele>573</ele>
        <time>2010-01-01T14:53:27Z</time>
      </trkpt>
      <trkpt lat="42.32019" lon="2.72599">
        <ele>572</ele>
        <time>2010-01-01T14:53:37Z</time>
      </trkpt>
      <trkpt lat="42.32004" lon="2.72597">
        <ele>571</ele>
        <time>2010-01-01T14:53:52Z</time>
      </trkpt>
      <trkpt lat="42.31995" lon="2.7261">
        <ele>569</ele>
        <time>2010-01-01T14:54:05Z</time>
      </trkpt>
      <trkpt lat="42.31986" lon="2.72621">
        <ele>568</ele>
        <time>2010-01-01T14:54:17Z</time>
      </trkpt>
      <trkpt lat="42.31967" lon="2.72631">
        <ele>564</ele>
        <time>2010-01-01T14:54:38Z</time>
      </trkpt>
      <trkpt lat="42.31956" lon="2.72644">
        <ele>561</ele>
        <time>2010-01-01T14:54:52Z</time>
      </trkpt>
      <trkpt lat="42.31946" lon="2.72653">
        <ele>559</ele>
        <time>2010-01-01T14:55:04Z</time>
      </trkpt>
      <trkpt lat="42.31936" lon="2.72667">
        <ele>556</ele>
        <time>2010-01-01T14:55:19Z</time>
      </trkpt>
      <trkpt lat="42.3193" lon="2.72681">
        <ele>555</ele>
        <time>2010-01-01T14:55:31Z</time>
      </trkpt>
      <trkpt lat="42.3192" lon="2.72691">
        <ele>550</ele>
        <time>2010-01-01T14:55:43Z</time>
      </trkpt>
      <trkpt lat="42.31916" lon="2.72677">
        <ele>547</ele>
        <time>2010-01-01T14:55:54Z</time>
      </trkpt>
      <trkpt lat="42.3192" lon="2.72666">
        <ele>549</ele>
        <time>2010-01-01T14:56:03Z</time>
      </trkpt>
      <trkpt lat="42.31925" lon="2.72653">
        <ele>549</ele>
        <time>2010-01-01T14:56:14Z</time>
      </trkpt>
      <trkpt lat="42.3193" lon="2.7264">
        <ele>549</ele>
        <time>2010-01-01T14:56:25Z</time>
      </trkpt>
      <trkpt lat="42.31937" lon="2.7263">
        <ele>552</ele>
        <time>2010-01-01T14:56:35Z</time>
      </trkpt>
      <trkpt lat="42.31941" lon="2.72615">
        <ele>553</ele>
        <time>2010-01-01T14:56:47Z</time>
      </trkpt>
      <trkpt lat="42.31936" lon="2.72603">
        <ele>549</ele>
        <time>2010-01-01T14:56:57Z</time>
      </trkpt>
      <trkpt lat="42.31929" lon="2.72589">
        <ele>546</ele>
        <time>2010-01-01T14:57:09Z</time>
      </trkpt>
      <trkpt lat="42.31924" lon="2.72567">
        <ele>544</ele>
        <time>2010-01-01T14:57:27Z</time>
      </trkpt>
      <trkpt lat="42.31918" lon="2.72551">
        <ele>543</ele>
        <time>2010-01-01T14:57:40Z</time>
      </trkpt>
      <trkpt lat="42.31911" lon="2.72538">
        <ele>541</ele>
        <time>2010-01-01T14:57:52Z</time>
      </trkpt>
      <trkpt lat="42.31903" lon="2.72524">
        <ele>540</ele>
        <time>2010-01-01T14:58:05Z</time>
      </trkpt>
      <trkpt lat="42.31895" lon="2.72503">
        <ele>538</ele>
        <time>2010-01-01T14:58:22Z</time>
      </trkpt>
      <trkpt lat="42.31891" lon="2.72488">
        <ele>536</ele>
        <time>2010-01-01T14:58:33Z</time>
      </trkpt>
      <trkpt lat="42.31888" lon="2.72474">
        <ele>534</ele>
        <time>2010-01-01T14:58:44Z</time>
      </trkpt>
      <trkpt lat="42.31887" lon="2.72461">
        <ele>535</ele>
        <time>2010-01-01T14:58:54Z</time>
      </trkpt>
      <trkpt lat="42.31886" lon="2.72446">
        <ele>536</ele>
        <time>2010-01-01T14:59:05Z</time>
      </trkpt>
      <trkpt lat="42.31878" lon="2.72435">
        <ele>534</ele>
        <time>2010-01-01T14:59:17Z</time>
      </trkpt>
      <trkpt lat="42.31867" lon="2.7243">
        <ele>532</ele>
        <time>2010-01-01T14:59:29Z</time>
      </trkpt>
      <trkpt lat="42.31852" lon="2.72438">
        <ele>527</ele>
        <time>2010-01-01T14:59:45Z</time>
      </trkpt>
      <trkpt lat="42.31841" lon="2.72447">
        <ele>523</ele>
        <time>2010-01-01T14:59:58Z</time>
      </trkpt>
      <trkpt lat="42.31827" lon="2.72459">
        <ele>517</ele>
        <time>2010-01-01T15:00:14Z</time>
      </trkpt>
      <trkpt lat="42.31818" lon="2.72454">
        <ele>515</ele>
        <time>2010-01-01T15:00:24Z</time>
      </trkpt>
      <trkpt lat="42.31809" lon="2.72448">
        <ele>514</ele>
        <time>2010-01-01T15:00:34Z</time>
      </trkpt>
      <trkpt lat="42.31798" lon="2.72441">
        <ele>513</ele>
        <time>2010-01-01T15:00:46Z</time>
      </trkpt>
      <trkpt lat="42.31787" lon="2.72436">
        <ele>512</ele>
        <time>2010-01-01T15:00:58Z</time>
      </trkpt>
      <trkpt lat="42.31773" lon="2.72432">
        <ele>509</ele>
        <time>2010-01-01T15:01:12Z</time>
      </trkpt>
      <trkpt lat="42.31761" lon="2.72431">
        <ele>506</ele>
        <time>2010-01-01T15:01:24Z</time>
      </trkpt>
      <trkpt lat="42.31749" lon="2.7243">
        <ele>502</ele>
        <time>2010-01-01T15:01:36Z</time>
      </trkpt>
      <trkpt lat="42.31737" lon="2.72428">
        <ele>499</ele>
        <time>2010-01-01T15:01:48Z</time>
      </trkpt>
      <trkpt lat="42.31726" lon="2.72422">
        <ele>497</ele>
        <time>2010-01-01T15:02:00Z</time>
      </trkpt>
      <trkpt lat="42.31721" lon="2.72405">
        <ele>496</ele>
        <time>2010-01-01T15:02:13Z</time>
      </trkpt>
      <trkpt lat="42.31719" lon="2.72385">
        <ele>494</ele>
        <time>2010-01-01T15:02:28Z</time>
      </trkpt>
      <trkpt lat="42.3172" lon="2.72367">
        <ele>492</ele>
        <time>2010-01-01T15:02:41Z</time>
      </trkpt>
      <trkpt lat="42.31723" lon="2.72348">
        <ele>489</ele>
        <time>2010-01-01T15:02:56Z</time>
      </trkpt>
      <trkpt lat="42.31727" lon="2.72329">
        <ele>488</ele>
        <time>2010-01-01T15:03:11Z</time>
      </trkpt>
      <trkpt lat="42.31734" lon="2.72314">
        <ele>487</ele>
        <time>2010-01-01T15:03:23Z</time>
      </trkpt>
      <trkpt lat="42.31745" lon="2.72302">
        <ele>489</ele>
        <time>2010-01-01T15:03:38Z</time>
      </trkpt>
      <trkpt lat="42.3176" lon="2.72291">
        <ele>491</ele>
        <time>2010-01-01T15:03:55Z</time>
      </trkpt>
      <trkpt lat="42.31764" lon="2.72275">
        <ele>487</ele>
        <time>2010-01-01T15:04:07Z</time>
      </trkpt>
      <trkpt lat="42.3177" lon="2.72262">
        <ele>484</ele>
        <time>2010-01-01T15:04:19Z</time>
      </trkpt>
      <trkpt lat="42.31781" lon="2.72246">
        <ele>482</ele>
        <time>2010-01-01T15:04:35Z</time>
      </trkpt>
      <trkpt lat="42.31783" lon="2.72228">
        <ele>478</ele>
        <time>2010-01-01T15:04:48Z</time>
      </trkpt>
      <trkpt lat="42.31764" lon="2.72242">
        <ele>476</ele>
        <time>2010-01-01T15:05:10Z</time>
      </trkpt>
      <trkpt lat="42.3173" lon="2.72264">
        <ele>472</ele>
        <time>2010-01-01T15:05:48Z</time>
      </trkpt>
      <trkpt lat="42.317" lon="2.72278">
        <ele>469</ele>
        <time>2010-01-01T15:06:19Z</time>
      </trkpt>
      <trkpt lat="42.31683" lon="2.72273">
        <ele>461</ele>
        <time>2010-01-01T15:06:37Z</time>
      </trkpt>
      <trkpt lat="42.31671" lon="2.72271">
        <ele>455</ele>
        <time>2010-01-01T15:06:49Z</time>
      </trkpt>
      <trkpt lat="42.3166" lon="2.72273">
        <ele>451</ele>
        <time>2010-01-01T15:07:00Z</time>
      </trkpt>
      <trkpt lat="42.3166" lon="2.7229">
        <ele>454</ele>
        <time>2010-01-01T15:07:13Z</time>
      </trkpt>
      <trkpt lat="42.3166" lon="2.72305">
        <ele>456</ele>
        <time>2010-01-01T15:07:24Z</time>
      </trkpt>
      <trkpt lat="42.3166" lon="2.7232">
        <ele>458</ele>
        <time>2010-01-01T15:07:35Z</time>
      </trkpt>
      <trkpt lat="42.31658" lon="2.72339">
        <ele>459</ele>
        <time>2010-01-01T15:07:49Z</time>
      </trkpt>
      <trkpt lat="42.31653" lon="2.72355">
        <ele>460</ele>
        <time>2010-01-01T15:08:02Z</time>
      </trkpt>
      <trkpt lat="42.31646" lon="2.72369">
        <ele>460</ele>
        <time>2010-01-01T15:08:15Z</time>
      </trkpt>
      <trkpt lat="42.31641" lon="2.72383">
        <ele>462</ele>
        <time>2010-01-01T15:08:26Z</time>
      </trkpt>
      <trkpt lat="42.31619" lon="2.72404">
        <ele>458</ele>
        <time>2010-01-01T15:08:53Z</time>
      </trkpt>
      <trkpt lat="42.31595" lon="2.72411">
        <ele>450</ele>
        <time>2010-01-01T15:09:18Z</time>
      </trkpt>
      <trkpt lat="42.31575" lon="2.72423">
        <ele>446</ele>
        <time>2010-01-01T15:09:40Z</time>
      </trkpt>
      <trkpt lat="42.31563" lon="2.72432">
        <ele>443</ele>
        <time>2010-01-01T15:09:53Z</time>
      </trkpt>
      <trkpt lat="42.31554" lon="2.72445">
        <ele>442</ele>
        <time>2010-01-01T15:10:07Z</time>
      </trkpt>
      <trkpt lat="42.31545" lon="2.72457">
        <ele>438</ele>
        <time>2010-01-01T15:10:19Z</time>
      </trkpt>
      <trkpt lat="42.31534" lon="2.72467">
        <ele>434</ele>
        <time>2010-01-01T15:10:33Z</time>
      </trkpt>
      <trkpt lat="42.31523" lon="2.72466">
        <ele>432</ele>
        <time>2010-01-01T15:10:43Z</time>
      </trkpt>
      <trkpt lat="42.31514" lon="2.72462">
        <ele>431</ele>
        <time>2010-01-01T15:10:53Z</time>
      </trkpt>
      <trkpt lat="42.31503" lon="2.7246">
        <ele>430</ele>
        <time>2010-01-01T15:11:04Z</time>
      </trkpt>
      <trkpt lat="42.31491" lon="2.72455">
        <ele>429</ele>
        <time>2010-01-01T15:11:17Z</time>
      </trkpt>
      <trkpt lat="42.31481" lon="2.72455">
        <ele>428</ele>
        <time>2010-01-01T15:11:27Z</time>
      </trkpt>
      <trkpt lat="42.31472" lon="2.72452">
        <ele>429</ele>
        <time>2010-01-01T15:11:36Z</time>
      </trkpt>
      <trkpt lat="42.31464" lon="2.72445">
        <ele>429</ele>
        <time>2010-01-01T15:11:45Z</time>
      </trkpt>
      <trkpt lat="42.31453" lon="2.72434">
        <ele>425</ele>
        <time>2010-01-01T15:11:59Z</time>
      </trkpt>
      <trkpt lat="42.31447" lon="2.72414">
        <ele>420</ele>
        <time>2010-01-01T15:12:15Z</time>
      </trkpt>
      <trkpt lat="42.31449" lon="2.72394">
        <ele>417</ele>
        <time>2010-01-01T15:12:30Z</time>
      </trkpt>
      <trkpt lat="42.31443" lon="2.72375">
        <ele>413</ele>
        <time>2010-01-01T15:12:45Z</time>
      </trkpt>
      <trkpt lat="42.31442" lon="2.72355">
        <ele>409</ele>
        <time>2010-01-01T15:13:00Z</time>
      </trkpt>
      <trkpt lat="42.3144" lon="2.72337">
        <ele>406</ele>
        <time>2010-01-01T15:13:14Z</time>
      </trkpt>
      <trkpt lat="42.31442" lon="2.72318">
        <ele>402</ele>
        <time>2010-01-01T15:13:27Z</time>
      </trkpt>
      <trkpt lat="42.31428" lon="2.72312">
        <ele>398</ele>
        <time>2010-01-01T15:13:43Z</time>
      </trkpt>
      <trkpt lat="42.31417" lon="2.72308">
        <ele>396</ele>
        <time>2010-01-01T15:13:54Z</time>
      </trkpt>
      <trkpt lat="42.31409" lon="2.72296">
        <ele>393</ele>
        <time>2010-01-01T15:14:06Z</time>
      </trkpt>
      <trkpt lat="42.31399" lon="2.72284">
        <ele>390</ele>
        <time>2010-01-01T15:14:19Z</time>
      </trkpt>
      <trkpt lat="42.31387" lon="2.72278">
        <ele>388</ele>
        <time>2010-01-01T15:14:32Z</time>
      </trkpt>
      <trkpt lat="42.31371" lon="2.72269">
        <ele>384</ele>
        <time>2010-01-01T15:14:50Z</time>
      </trkpt>
      <trkpt lat="42.31352" lon="2.72269">
        <ele>376</ele>
        <time>2010-01-01T15:15:08Z</time>
      </trkpt>
      <trkpt lat="42.31341" lon="2.72266">
        <ele>372</ele>
        <time>2010-01-01T15:15:19Z</time>
      </trkpt>
      <trkpt lat="42.31325" lon="2.72264">
        <ele>366</ele>
        <time>2010-01-01T15:15:36Z</time>
      </trkpt>
      <trkpt lat="42.31316" lon="2.72258">
        <ele>364</ele>
        <time>2010-01-01T15:15:46Z</time>
      </trkpt>
      <trkpt lat="42.31305" lon="2.72251">
        <ele>361</ele>
        <time>2010-01-01T15:15:58Z</time>
      </trkpt>
      <trkpt lat="42.31299" lon="2.72246">
        <ele>361</ele>
        <time>2010-01-01T15:16:05Z</time>
      </trkpt>
      <trkpt lat="42.31287" lon="2.72238">
        <ele>359</ele>
        <time>2010-01-01T15:16:18Z</time>
      </trkpt>
      <trkpt lat="42.31278" lon="2.72235">
        <ele>357</ele>
        <time>2010-01-01T15:16:28Z</time>
      </trkpt>
      <trkpt lat="42.31268" lon="2.72229">
        <ele>355</ele>
        <time>2010-01-01T15:16:39Z</time>
      </trkpt>
      <trkpt lat="42.31259" lon="2.72223">
        <ele>353</ele>
        <time>2010-01-01T15:16:48Z</time>
      </trkpt>
      <trkpt lat="42.3125" lon="2.72215">
        <ele>353</ele>
        <time>2010-01-01T15:17:00Z</time>
      </trkpt>
      <trkpt lat="42.31244" lon="2.72204">
        <ele>354</ele>
        <time>2010-01-01T15:17:09Z</time>
      </trkpt>
      <trkpt lat="42.31231" lon="2.72208">
        <ele>348</ele>
        <time>2010-01-01T15:17:22Z</time>
      </trkpt>
      <trkpt lat="42.3122" lon="2.722">
        <ele>346</ele>
        <time>2010-01-01T15:17:35Z</time>
      </trkpt>
      <trkpt lat="42.31196" lon="2.72195">
        <ele>335</ele>
        <time>2010-01-01T15:17:59Z</time>
      </trkpt>
      <trkpt lat="42.31181" lon="2.72183">
        <ele>330</ele>
        <time>2010-01-01T15:18:17Z</time>
      </trkpt>
      <trkpt lat="42.31163" lon="2.72176">
        <ele>322</ele>
        <time>2010-01-01T15:18:36Z</time>
      </trkpt>
      <trkpt lat="42.31159" lon="2.7216">
        <ele>322</ele>
        <time>2010-01-01T15:18:48Z</time>
      </trkpt>
      <trkpt lat="42.31141" lon="2.72152">
        <ele>311</ele>
        <time>2010-01-01T15:19:07Z</time>
      </trkpt>
      <trkpt lat="42.3113" lon="2.72146">
        <ele>306</ele>
        <time>2010-01-01T15:19:19Z</time>
      </trkpt>
      <trkpt lat="42.31114" lon="2.72132">
        <ele>300</ele>
        <time>2010-01-01T15:19:38Z</time>
      </trkpt>
      <trkpt lat="42.31099" lon="2.72122">
        <ele>296</ele>
        <time>2010-01-01T15:19:55Z</time>
      </trkpt>
      <trkpt lat="42.31086" lon="2.72121">
        <ele>292</ele>
        <time>2010-01-01T15:20:08Z</time>
      </trkpt>
      <trkpt lat="42.31072" lon="2.72124">
        <ele>290</ele>
        <time>2010-01-01T15:20:22Z</time>
      </trkpt>
      <trkpt lat="42.31057" lon="2.72121">
        <ele>288</ele>
        <time>2010-01-01T15:20:37Z</time>
      </trkpt>
      <trkpt lat="42.31044" lon="2.72121">
        <ele>287</ele>
        <time>2010-01-01T15:20:50Z</time>
      </trkpt>
      <trkpt lat="42.31032" lon="2.72121">
        <ele>286</ele>
        <time>2010-01-01T15:21:02Z</time>
      </trkpt>
      <trkpt lat="42.31018" lon="2.72118">
        <ele>285</ele>
        <time>2010-01-01T15:21:16Z</time>
      </trkpt>
      <trkpt lat="42.31003" lon="2.72115">
        <ele>283</ele>
        <time>2010-01-01T15:21:32Z</time>
      </trkpt>
      <trkpt lat="42.30983" lon="2.72113">
        <ele>282</ele>
        <time>2010-01-01T15:21:51Z</time>
      </trkpt>
      <trkpt lat="42.30968" lon="2.72118">
        <ele>280</ele>
        <time>2010-01-01T15:22:07Z</time>
      </trkpt>
      <trkpt lat="42.30944" lon="2.72125">
        <ele>279</ele>
        <time>2010-01-01T15:22:31Z</time>
      </trkpt>
      <trkpt lat="42.30929" lon="2.72126">
        <ele>278</ele>
        <time>2010-01-01T15:22:46Z</time>
      </trkpt>
      <trkpt lat="42.30917" lon="2.72127">
        <ele>277</ele>
        <time>2010-01-01T15:22:58Z</time>
      </trkpt>
      <trkpt lat="42.30906" lon="2.72128">
        <ele>276</ele>
        <time>2010-01-01T15:23:10Z</time>
      </trkpt>
      <trkpt lat="42.30883" lon="2.72141">
        <ele>272</ele>
        <time>2010-01-01T15:23:35Z</time>
      </trkpt>
      <trkpt lat="42.30867" lon="2.72148">
        <ele>271</ele>
        <time>2010-01-01T15:23:51Z</time>
      </trkpt>
      <trkpt lat="42.30852" lon="2.72147">
        <ele>270</ele>
        <time>2010-01-01T15:24:06Z</time>
      </trkpt>
      <trkpt lat="42.3084" lon="2.72146">
        <ele>270</ele>
        <time>2010-01-01T15:24:18Z</time>
      </trkpt>
      <trkpt lat="42.3083" lon="2.72146">
        <ele>270</ele>
        <time>2010-01-01T15:24:28Z</time>
      </trkpt>
      <trkpt lat="42.3082" lon="2.72142">
        <ele>268</ele>
        <time>2010-01-01T15:24:39Z</time>
      </trkpt>
      <trkpt lat="42.30801" lon="2.72125">
        <ele>268</ele>
        <time>2010-01-01T15:25:02Z</time>
      </trkpt>
      <trkpt lat="42.30793" lon="2.72118">
        <ele>268</ele>
        <time>2010-01-01T15:25:12Z</time>
      </trkpt>
      <trkpt lat="42.30781" lon="2.72116">
        <ele>266</ele>
        <time>2010-01-01T15:25:23Z</time>
      </trkpt>
      <trkpt lat="42.30767" lon="2.72114">
        <ele>264</ele>
        <time>2010-01-01T15:25:37Z</time>
      </trkpt>
      <trkpt lat="42.30758" lon="2.72118">
        <ele>263</ele>
        <time>2010-01-01T15:25:47Z</time>
      </trkpt>
      <trkpt lat="42.30749" lon="2.72122">
        <ele>261</ele>
        <time>2010-01-01T15:25:57Z</time>
      </trkpt>
      <trkpt lat="42.30735" lon="2.72126">
        <ele>261</ele>
        <time>2010-01-01T15:26:11Z</time>
      </trkpt>
      <trkpt lat="42.30721" lon="2.72129">
        <ele>260</ele>
        <time>2010-01-01T15:26:25Z</time>
      </trkpt>
      <trkpt lat="42.3071" lon="2.72132">
        <ele>259</ele>
        <time>2010-01-01T15:26:37Z</time>
      </trkpt>
      <trkpt lat="42.30694" lon="2.72135">
        <ele>258</ele>
        <time>2010-01-01T15:26:52Z</time>
      </trkpt>
      <trkpt lat="42.30683" lon="2.72143">
        <ele>257</ele>
        <time>2010-01-01T15:27:05Z</time>
      </trkpt>
      <trkpt lat="42.30669" lon="2.72148">
        <ele>255</ele>
        <time>2010-01-01T15:27:19Z</time>
      </trkpt>
      <trkpt lat="42.30637" lon="2.72156">
        <ele>249</ele>
        <time>2010-01-01T15:27:52Z</time>
      </trkpt>
      <trkpt lat="42.30626" lon="2.72163">
        <ele>244</ele>
        <time>2010-01-01T15:28:04Z</time>
      </trkpt>
      <trkpt lat="42.30613" lon="2.72165">
        <ele>240</ele>
        <time>2010-01-01T15:28:17Z</time>
      </trkpt>
      <trkpt lat="42.30605" lon="2.72168">
        <ele>239</ele>
        <time>2010-01-01T15:28:26Z</time>
      </trkpt>
      <trkpt lat="42.30603" lon="2.72181">
        <ele>238</ele>
        <time>2010-01-01T15:28:36Z</time>
      </trkpt>
      <trkpt lat="42.30603" lon="2.72197">
        <ele>238</ele>
        <time>2010-01-01T15:28:48Z</time>
      </trkpt>
      <trkpt lat="42.30605" lon="2.72211">
        <ele>239</ele>
        <time>2010-01-01T15:28:58Z</time>
      </trkpt>
      <trkpt lat="42.30552" lon="2.72102">
        <ele>239</ele>
        <time>2010-01-01T15:30:35Z</time>
      </trkpt>
      <trkpt lat="42.30554" lon="2.72088">
        <ele>240</ele>
        <time>2010-01-01T15:30:46Z</time>
      </trkpt>
      <trkpt lat="42.30554" lon="2.72088">
        <ele>240</ele>
        <time>2010-01-01T15:30:47Z</time>
      </trkpt>
      <trkpt lat="42.30554" lon="2.72088">
        <ele>240</ele>
        <time>2010-01-01T15:30:47Z</time>
      </trkpt>
      <trkpt lat="42.30554" lon="2.72088">
        <ele>240</ele>
        <time>2010-01-01T15:30:47Z</time>
      </trkpt>
      <trkpt lat="42.30555" lon="2.72084">
        <ele>240</ele>
        <time>2010-01-01T15:30:50Z</time>
      </trkpt>
      <trkpt lat="42.30554" lon="2.72057">
        <ele>241</ele>
        <time>2010-01-01T15:31:10Z</time>
      </trkpt>
      <trkpt lat="42.30558" lon="2.72035">
        <ele>244</ele>
        <time>2010-01-01T15:31:26Z</time>
      </trkpt>
      <trkpt lat="42.30557" lon="2.72025">
        <ele>244</ele>
        <time>2010-01-01T15:31:34Z</time>
      </trkpt>
      <trkpt lat="42.30554" lon="2.72018">
        <ele>243</ele>
        <time>2010-01-01T15:31:40Z</time>
      </trkpt>
      <trkpt lat="42.30549" lon="2.72009">
        <ele>243</ele>
        <time>2010-01-01T15:31:48Z</time>
      </trkpt>
      <trkpt lat="42.30542" lon="2.72006">
        <ele>241</ele>
        <time>2010-01-01T15:31:56Z</time>
      </trkpt>
      <trkpt lat="42.30539" lon="2.72002">
        <ele>241</ele>
        <time>2010-01-01T15:31:59Z</time>
      </trkpt>
      <trkpt lat="42.30529" lon="2.72003">
        <ele>239</ele>
        <time>2010-01-01T15:32:10Z</time>
      </trkpt>
      <trkpt lat="42.30514" lon="2.7201">
        <ele>237</ele>
        <time>2010-01-01T15:32:26Z</time>
      </trkpt>
      <trkpt lat="42.30507" lon="2.72016">
        <ele>236</ele>
        <time>2010-01-01T15:32:34Z</time>
      </trkpt>
      <trkpt lat="42.30499" lon="2.72007">
        <ele>235</ele>
        <time>2010-01-01T15:32:44Z</time>
      </trkpt>
      <trkpt lat="42.30495" lon="2.72">
        <ele>235</ele>
        <time>2010-01-01T15:32:51Z</time>
      </trkpt>
      <trkpt lat="42.3049" lon="2.72001">
        <ele>235</ele>
        <time>2010-01-01T15:32:56Z</time>
      </trkpt>
      <trkpt lat="42.30474" lon="2.72007">
        <ele>235</ele>
        <time>2010-01-01T15:33:13Z</time>
      </trkpt>
      <trkpt lat="42.30458" lon="2.72002">
        <ele>233</ele>
        <time>2010-01-01T15:33:29Z</time>
      </trkpt>
      <trkpt lat="42.30462" lon="2.71983">
        <ele>233</ele>
        <time>2010-01-01T15:33:44Z</time>
      </trkpt>
      <trkpt lat="42.30457" lon="2.71984">
        <ele>232</ele>
        <time>2010-01-01T15:33:49Z</time>
      </trkpt>
      <trkpt lat="42.3046" lon="2.72007">
        <ele>233</ele>
        <time>2010-01-01T15:34:07Z</time>
      </trkpt>
      <trkpt lat="42.30461" lon="2.72011">
        <ele>234</ele>
        <time>2010-01-01T15:34:10Z</time>
      </trkpt>
      <trkpt lat="42.30453" lon="2.72018">
        <ele>233</ele>
        <time>2010-01-01T15:34:20Z</time>
      </trkpt>
      <trkpt lat="42.30452" lon="2.72019">
        <ele>233</ele>
        <time>2010-01-01T15:34:21Z</time>
      </trkpt>
      <trkpt lat="42.30438" lon="2.72022">
        <ele>232</ele>
        <time>2010-01-01T15:34:35Z</time>
      </trkpt>
      <trkpt lat="42.30426" lon="2.71992">
        <ele>228</ele>
        <time>2010-01-01T15:35:00Z</time>
      </trkpt>
      <trkpt lat="42.30426" lon="2.71982">
        <ele>228</ele>
        <time>2010-01-01T15:35:07Z</time>
      </trkpt>
      <trkpt lat="42.30427" lon="2.71979">
        <ele>228</ele>
        <time>2010-01-01T15:35:09Z</time>
      </trkpt>
      <trkpt lat="42.30435" lon="2.71979">
        <ele>229</ele>
        <time>2010-01-01T15:35:18Z</time>
      </trkpt>
      <trkpt lat="42.30437" lon="2.71978">
        <ele>229</ele>
        <time>2010-01-01T15:35:20Z</time>
      </trkpt>
      <trkpt lat="42.30439" lon="2.71971">
        <ele>230</ele>
        <time>2010-01-01T15:35:25Z</time>
      </trkpt>
      <trkpt lat="42.30444" lon="2.7197">
        <ele>230</ele>
        <time>2010-01-01T15:35:31Z</time>
      </trkpt>
      <trkpt lat="42.30446" lon="2.71978">
        <ele>231</ele>
        <time>2010-01-01T15:35:37Z</time>
      </trkpt>
      <trkpt lat="42.30457" lon="2.71981">
        <ele>232</ele>
        <time>2010-01-01T15:35:48Z</time>
      </trkpt>
      <trkpt lat="42.30463" lon="2.7198">
        <ele>233</ele>
        <time>2010-01-01T15:35:54Z</time>
      </trkpt>
      <trkpt lat="42.30486" lon="2.71969">
        <ele>235</ele>
        <time>2010-01-01T15:36:18Z</time>
      </trkpt>
      <trkpt lat="42.30487" lon="2.71948">
        <ele>235</ele>
        <time>2010-01-01T15:36:34Z</time>
      </trkpt>
      <trkpt lat="42.3048" lon="2.71919">
        <ele>234</ele>
        <time>2010-01-01T15:36:57Z</time>
      </trkpt>
      <trkpt lat="42.3048" lon="2.71913">
        <ele>235</ele>
        <time>2010-01-01T15:37:01Z</time>
      </trkpt>
      <trkpt lat="42.30491" lon="2.71898">
        <ele>236</ele>
        <time>2010-01-01T15:37:17Z</time>
      </trkpt>
      <trkpt lat="42.30507" lon="2.71895">
        <ele>238</ele>
        <time>2010-01-01T15:37:33Z</time>
      </trkpt>
      <trkpt lat="42.30516" lon="2.71892">
        <ele>239</ele>
        <time>2010-01-01T15:37:42Z</time>
      </trkpt>
      <trkpt lat="42.30533" lon="2.71889">
        <ele>241</ele>
        <time>2010-01-01T15:37:59Z</time>
      </trkpt>
      <trkpt lat="42.30535" lon="2.71889">
        <ele>242</ele>
        <time>2010-01-01T15:38:01Z</time>
      </trkpt>
      <trkpt lat="42.30535" lon="2.71874">
        <ele>242</ele>
        <time>2010-01-01T15:38:12Z</time>
      </trkpt>
      <trkpt lat="42.30537" lon="2.71851">
        <ele>242</ele>
        <time>2010-01-01T15:38:29Z</time>
      </trkpt>
      <trkpt lat="42.30537" lon="2.71836">
        <ele>243</ele>
        <time>2010-01-01T15:38:41Z</time>
      </trkpt>
      <trkpt lat="42.30538" lon="2.71833">
        <ele>243</ele>
        <time>2010-01-01T15:38:44Z</time>
      </trkpt>
      <trkpt lat="42.30538" lon="2.71822">
        <ele>243</ele>
        <time>2010-01-01T15:38:52Z</time>
      </trkpt>
      <trkpt lat="42.3054" lon="2.71802">
        <ele>243</ele>
        <time>2010-01-01T15:39:06Z</time>
      </trkpt>
      <trkpt lat="42.3054" lon="2.71783">
        <ele>241</ele>
        <time>2010-01-01T15:39:20Z</time>
      </trkpt>
      <trkpt lat="42.30541" lon="2.71771">
        <ele>240</ele>
        <time>2010-01-01T15:39:29Z</time>
      </trkpt>
      <trkpt lat="42.30547" lon="2.71751">
        <ele>239</ele>
        <time>2010-01-01T15:39:45Z</time>
      </trkpt>
      <trkpt lat="42.30555" lon="2.7173">
        <ele>236</ele>
        <time>2010-01-01T15:40:03Z</time>
      </trkpt>
      <trkpt lat="42.30566" lon="2.71713">
        <ele>236</ele>
        <time>2010-01-01T15:40:19Z</time>
      </trkpt>
      <trkpt lat="42.30571" lon="2.71705">
        <ele>235</ele>
        <time>2010-01-01T15:40:27Z</time>
      </trkpt>
      <trkpt lat="42.30583" lon="2.71697">
        <ele>235</ele>
        <time>2010-01-01T15:40:40Z</time>
      </trkpt>
      <trkpt lat="42.3058" lon="2.71693">
        <ele>233</ele>
        <time>2010-01-01T15:40:44Z</time>
      </trkpt>
      <trkpt lat="42.30591" lon="2.71677">
        <ele>231</ele>
        <time>2010-01-01T15:41:00Z</time>
      </trkpt>
      <trkpt lat="42.30591" lon="2.71676">
        <ele>231</ele>
        <time>2010-01-01T15:41:01Z</time>
      </trkpt>
      <trkpt lat="42.30605" lon="2.71661">
        <ele>231</ele>
        <time>2010-01-01T15:41:19Z</time>
      </trkpt>
      <trkpt lat="42.30611" lon="2.71655">
        <ele>232</ele>
        <time>2010-01-01T15:41:27Z</time>
      </trkpt>
      <trkpt lat="42.30611" lon="2.71652">
        <ele>232</ele>
        <time>2010-01-01T15:41:28Z</time>
      </trkpt>
      <trkpt lat="42.30613" lon="2.71648">
        <ele>232</ele>
        <time>2010-01-01T15:41:32Z</time>
      </trkpt>
      <trkpt lat="42.3061" lon="2.71628">
        <ele>230</ele>
        <time>2010-01-01T15:41:47Z</time>
      </trkpt>
      <trkpt lat="42.30604" lon="2.71611">
        <ele>230</ele>
        <time>2010-01-01T15:42:01Z</time>
      </trkpt>
      <trkpt lat="42.30605" lon="2.7159">
        <ele>232</ele>
        <time>2010-01-01T15:42:16Z</time>
      </trkpt>
      <trkpt lat="42.30606" lon="2.71577">
        <ele>234</ele>
        <time>2010-01-01T15:42:26Z</time>
      </trkpt>
      <trkpt lat="42.30607" lon="2.71572">
        <ele>234</ele>
        <time>2010-01-01T15:42:30Z</time>
      </trkpt>
      <trkpt lat="42.30605" lon="2.71558">
        <ele>237</ele>
        <time>2010-01-01T15:42:41Z</time>
      </trkpt>
      <trkpt lat="42.30603" lon="2.71554">
        <ele>237</ele>
        <time>2010-01-01T15:42:44Z</time>
      </trkpt>
      <trkpt lat="42.306" lon="2.71546">
        <ele>239</ele>
        <time>2010-01-01T15:42:51Z</time>
      </trkpt>
      <trkpt lat="42.30602" lon="2.71537">
        <ele>240</ele>
        <time>2010-01-01T15:42:57Z</time>
      </trkpt>
      <trkpt lat="42.30601" lon="2.71529">
        <ele>242</ele>
        <time>2010-01-01T15:43:04Z</time>
      </trkpt>
      <trkpt lat="42.30603" lon="2.7152">
        <ele>244</ele>
        <time>2010-01-01T15:43:11Z</time>
      </trkpt>
      <trkpt lat="42.30604" lon="2.71506">
        <ele>247</ele>
        <time>2010-01-01T15:43:20Z</time>
      </trkpt>
      <trkpt lat="42.30601" lon="2.71498">
        <ele>249</ele>
        <time>2010-01-01T15:43:28Z</time>
      </trkpt>
      <trkpt lat="42.30593" lon="2.7148">
        <ele>252</ele>
        <time>2010-01-01T15:43:43Z</time>
      </trkpt>
      <trkpt lat="42.30587" lon="2.71471">
        <ele>253</ele>
        <time>2010-01-01T15:43:52Z</time>
      </trkpt>
      <trkpt lat="42.30586" lon="2.71458">
        <ele>256</ele>
        <time>2010-01-01T15:44:02Z</time>
      </trkpt>
      <trkpt lat="42.30574" lon="2.71431">
        <ele>260</ele>
        <time>2010-01-01T15:44:25Z</time>
      </trkpt>
      <trkpt lat="42.30568" lon="2.71422">
        <ele>260</ele>
        <time>2010-01-01T15:44:34Z</time>
      </trkpt>
      <trkpt lat="42.30567" lon="2.71414">
        <ele>262</ele>
        <time>2010-01-01T15:44:40Z</time>
      </trkpt>
      <trkpt lat="42.30561" lon="2.71385">
        <ele>269</ele>
        <time>2010-01-01T15:45:02Z</time>
      </trkpt>
      <trkpt lat="42.30561" lon="2.71385">
        <ele>269</ele>
        <time>2010-01-01T15:45:02Z</time>
      </trkpt>
      <trkpt lat="42.30557" lon="2.71371">
        <ele>273</ele>
        <time>2010-01-01T15:45:13Z</time>
      </trkpt>
      <trkpt lat="42.30554" lon="2.71361">
        <ele>276</ele>
        <time>2010-01-01T15:45:21Z</time>
      </trkpt>
      <trkpt lat="42.30549" lon="2.71344">
        <ele>281</ele>
        <time>2010-01-01T15:45:35Z</time>
      </trkpt>
      <trkpt lat="42.30546" lon="2.71336">
        <ele>284</ele>
        <time>2010-01-01T15:45:42Z</time>
      </trkpt>
      <trkpt lat="42.30534" lon="2.71329">
        <ele>285</ele>
        <time>2010-01-01T15:45:55Z</time>
      </trkpt>
      <trkpt lat="42.30533" lon="2.71322">
        <ele>288</ele>
        <time>2010-01-01T15:46:00Z</time>
      </trkpt>
      <trkpt lat="42.30529" lon="2.71311">
        <ele>292</ele>
        <time>2010-01-01T15:46:10Z</time>
      </trkpt>
      <trkpt lat="42.30526" lon="2.713">
        <ele>296</ele>
        <time>2010-01-01T15:46:18Z</time>
      </trkpt>
      <trkpt lat="42.30526" lon="2.71289">
        <ele>301</ele>
        <time>2010-01-01T15:46:26Z</time>
      </trkpt>
      <trkpt lat="42.30512" lon="2.71274">
        <ele>303</ele>
        <time>2010-01-01T15:46:43Z</time>
      </trkpt>
      <trkpt lat="42.30503" lon="2.71263">
        <ele>305</ele>
        <time>2010-01-01T15:46:56Z</time>
      </trkpt>
      <trkpt lat="42.30504" lon="2.7125">
        <ele>310</ele>
        <time>2010-01-01T15:47:06Z</time>
      </trkpt>
      <trkpt lat="42.30493" lon="2.71242">
        <ele>311</ele>
        <time>2010-01-01T15:47:18Z</time>
      </trkpt>
      <trkpt lat="42.30485" lon="2.71232">
        <ele>313</ele>
        <time>2010-01-01T15:47:29Z</time>
      </trkpt>
      <trkpt lat="42.30481" lon="2.71229">
        <ele>314</ele>
        <time>2010-01-01T15:47:34Z</time>
      </trkpt>
      <trkpt lat="42.3047" lon="2.71225">
        <ele>314</ele>
        <time>2010-01-01T15:47:45Z</time>
      </trkpt>
      <trkpt lat="42.30462" lon="2.71221">
        <ele>314</ele>
        <time>2010-01-01T15:47:53Z</time>
      </trkpt>
      <trkpt lat="42.30452" lon="2.7121">
        <ele>318</ele>
        <time>2010-01-01T15:48:06Z</time>
      </trkpt>
      <trkpt lat="42.30439" lon="2.71194">
        <ele>322</ele>
        <time>2010-01-01T15:48:24Z</time>
      </trkpt>
      <trkpt lat="42.30429" lon="2.71178">
        <ele>324</ele>
        <time>2010-01-01T15:48:40Z</time>
      </trkpt>
      <trkpt lat="42.30416" lon="2.71162">
        <ele>324</ele>
        <time>2010-01-01T15:48:57Z</time>
      </trkpt>
      <trkpt lat="42.30403" lon="2.71136">
        <ele>324</ele>
        <time>2010-01-01T15:49:20Z</time>
      </trkpt>
      <trkpt lat="42.30371" lon="2.71063">
        <ele>324</ele>
        <time>2010-01-01T15:50:23Z</time>
      </trkpt>
      <trkpt lat="42.3037" lon="2.71054">
        <ele>324</ele>
        <time>2010-01-01T15:50:30Z</time>
      </trkpt>
      <trkpt lat="42.30368" lon="2.71043">
        <ele>324</ele>
        <time>2010-01-01T15:50:38Z</time>
      </trkpt>
      <trkpt lat="42.30365" lon="2.71042">
        <ele>324</ele>
        <time>2010-01-01T15:50:41Z</time>
      </trkpt>
      <trkpt lat="42.30347" lon="2.7102">
        <ele>326</ele>
        <time>2010-01-01T15:51:06Z</time>
      </trkpt>
      <trkpt lat="42.30338" lon="2.71004">
        <ele>329</ele>
        <time>2010-01-01T15:51:20Z</time>
      </trkpt>
      <trkpt lat="42.30335" lon="2.70994">
        <ele>331</ele>
        <time>2010-01-01T15:51:29Z</time>
      </trkpt>
      <trkpt lat="42.30327" lon="2.70985">
        <ele>333</ele>
        <time>2010-01-01T15:51:39Z</time>
      </trkpt>
      <trkpt lat="42.30312" lon="2.70972">
        <ele>339</ele>
        <time>2010-01-01T15:51:56Z</time>
      </trkpt>
      <trkpt lat="42.303" lon="2.70962">
        <ele>343</ele>
        <time>2010-01-01T15:52:11Z</time>
      </trkpt>
      <trkpt lat="42.30286" lon="2.70947">
        <ele>348</ele>
        <time>2010-01-01T15:52:29Z</time>
      </trkpt>
      <trkpt lat="42.30275" lon="2.70936">
        <ele>351</ele>
        <time>2010-01-01T15:52:42Z</time>
      </trkpt>
      <trkpt lat="42.30264" lon="2.70921">
        <ele>355</ele>
        <time>2010-01-01T15:52:58Z</time>
      </trkpt>
      <trkpt lat="42.30249" lon="2.70902">
        <ele>359</ele>
        <time>2010-01-01T15:53:19Z</time>
      </trkpt>
      <trkpt lat="42.30242" lon="2.70896">
        <ele>361</ele>
        <time>2010-01-01T15:53:27Z</time>
      </trkpt>
      <trkpt lat="42.30224" lon="2.70896">
        <ele>365</ele>
        <time>2010-01-01T15:53:45Z</time>
      </trkpt>
      <trkpt lat="42.30219" lon="2.70892">
        <ele>365</ele>
        <time>2010-01-01T15:53:50Z</time>
      </trkpt>
      <trkpt lat="42.30212" lon="2.70881">
        <ele>367</ele>
        <time>2010-01-01T15:54:01Z</time>
      </trkpt>
      <trkpt lat="42.30196" lon="2.70871">
        <ele>370</ele>
        <time>2010-01-01T15:54:19Z</time>
      </trkpt>
      <trkpt lat="42.30189" lon="2.7086">
        <ele>372</ele>
        <time>2010-01-01T15:54:29Z</time>
      </trkpt>
      <trkpt lat="42.30181" lon="2.70837">
        <ele>375</ele>
        <time>2010-01-01T15:54:48Z</time>
      </trkpt>
      <trkpt lat="42.30161" lon="2.70818">
        <ele>381</ele>
        <time>2010-01-01T15:55:13Z</time>
      </trkpt>
      <trkpt lat="42.30154" lon="2.708">
        <ele>385</ele>
        <time>2010-01-01T15:55:28Z</time>
      </trkpt>
      <trkpt lat="42.30146" lon="2.70789">
        <ele>389</ele>
        <time>2010-01-01T15:55:39Z</time>
      </trkpt>
      <trkpt lat="42.3013" lon="2.70753">
        <ele>397</ele>
        <time>2010-01-01T15:56:11Z</time>
      </trkpt>
      <trkpt lat="42.30121" lon="2.70726">
        <ele>399</ele>
        <time>2010-01-01T15:56:32Z</time>
      </trkpt>
      <trkpt lat="42.3012" lon="2.7073">
        <ele>399</ele>
        <time>2010-01-01T15:56:35Z</time>
      </trkpt>
      <trkpt lat="42.30121" lon="2.70727">
        <ele>399</ele>
        <time>2010-01-01T15:56:37Z</time>
      </trkpt>
      <trkpt lat="42.30121" lon="2.70741">
        <ele>398</ele>
        <time>2010-01-01T15:56:47Z</time>
      </trkpt>
      <trkpt lat="42.30124" lon="2.70744">
        <ele>398</ele>
        <time>2010-01-01T15:56:52Z</time>
      </trkpt>
      <trkpt lat="42.30124" lon="2.70744">
        <ele>398</ele>
        <time>2010-01-01T15:56:52Z</time>
      </trkpt>
      <trkpt lat="42.30118" lon="2.70717">
        <ele>399</ele>
        <time>2010-01-01T15:57:13Z</time>
      </trkpt>
      <trkpt lat="42.30113" lon="2.70708">
        <ele>400</ele>
        <time>2010-01-01T15:57:22Z</time>
      </trkpt>
      <trkpt lat="42.30094" lon="2.70685">
        <ele>407</ele>
        <time>2010-01-01T15:57:47Z</time>
      </trkpt>
      <trkpt lat="42.30092" lon="2.70694">
        <ele>407</ele>
        <time>2010-01-01T15:57:54Z</time>
      </trkpt>
      <trkpt lat="42.30096" lon="2.70687">
        <ele>406</ele>
        <time>2010-01-01T15:58:02Z</time>
      </trkpt>
      <trkpt lat="42.30084" lon="2.70668">
        <ele>411</ele>
        <time>2010-01-01T15:58:20Z</time>
      </trkpt>
      <trkpt lat="42.30071" lon="2.70667">
        <ele>415</ele>
        <time>2010-01-01T15:58:33Z</time>
      </trkpt>
      <trkpt lat="42.30058" lon="2.70667">
        <ele>418</ele>
        <time>2010-01-01T15:58:46Z</time>
      </trkpt>
      <trkpt lat="42.30054" lon="2.70661">
        <ele>420</ele>
        <time>2010-01-01T15:58:52Z</time>
      </trkpt>
      <trkpt lat="42.30049" lon="2.70658">
        <ele>421</ele>
        <time>2010-01-01T15:58:58Z</time>
      </trkpt>
      <trkpt lat="42.30034" lon="2.70646">
        <ele>426</ele>
        <time>2010-01-01T15:59:15Z</time>
      </trkpt>
      <trkpt lat="42.30029" lon="2.70641">
        <ele>428</ele>
        <time>2010-01-01T15:59:21Z</time>
      </trkpt>
      <trkpt lat="42.30028" lon="2.70634">
        <ele>430</ele>
        <time>2010-01-01T15:59:26Z</time>
      </trkpt>
      <trkpt lat="42.30034" lon="2.70618">
        <ele>433</ele>
        <time>2010-01-01T15:59:40Z</time>
      </trkpt>
      <trkpt lat="42.30026" lon="2.70605">
        <ele>438</ele>
        <time>2010-01-01T15:59:52Z</time>
      </trkpt>
      <trkpt lat="42.30022" lon="2.706">
        <ele>440</ele>
        <time>2010-01-01T15:59:58Z</time>
      </trkpt>
      <trkpt lat="42.30023" lon="2.70584">
        <ele>443</ele>
        <time>2010-01-01T16:00:10Z</time>
      </trkpt>
      <trkpt lat="42.30022" lon="2.7058">
        <ele>444</ele>
        <time>2010-01-01T16:00:13Z</time>
      </trkpt>
      <trkpt lat="42.30012" lon="2.70577">
        <ele>445</ele>
        <time>2010-01-01T16:00:24Z</time>
      </trkpt>
      <trkpt lat="42.29998" lon="2.70574">
        <ele>446</ele>
        <time>2010-01-01T16:00:38Z</time>
      </trkpt>
      <trkpt lat="42.2999" lon="2.70574">
        <ele>447</ele>
        <time>2010-01-01T16:00:46Z</time>
      </trkpt>
      <trkpt lat="42.29977" lon="2.7055">
        <ele>453</ele>
        <time>2010-01-01T16:01:08Z</time>
      </trkpt>
      <trkpt lat="42.29986" lon="2.70536">
        <ele>456</ele>
        <time>2010-01-01T16:01:21Z</time>
      </trkpt>
      <trkpt lat="42.29995" lon="2.7054">
        <ele>454</ele>
        <time>2010-01-01T16:01:30Z</time>
      </trkpt>
      <trkpt lat="42.30009" lon="2.70544">
        <ele>452</ele>
        <time>2010-01-01T16:01:45Z</time>
      </trkpt>
      <trkpt lat="42.30008" lon="2.70538">
        <ele>454</ele>
        <time>2010-01-01T16:01:49Z</time>
      </trkpt>
      <trkpt lat="42.30011" lon="2.70532">
        <ele>455</ele>
        <time>2010-01-01T16:01:55Z</time>
      </trkpt>
      <trkpt lat="42.29994" lon="2.70527">
        <ele>457</ele>
        <time>2010-01-01T16:02:12Z</time>
      </trkpt>
      <trkpt lat="42.29985" lon="2.70521">
        <ele>459</ele>
        <time>2010-01-01T16:02:22Z</time>
      </trkpt>
      <trkpt lat="42.29968" lon="2.7052">
        <ele>461</ele>
        <time>2010-01-01T16:02:39Z</time>
      </trkpt>
      <trkpt lat="42.29967" lon="2.70516">
        <ele>462</ele>
        <time>2010-01-01T16:02:41Z</time>
      </trkpt>
      <trkpt lat="42.29957" lon="2.70513">
        <ele>466</ele>
        <time>2010-01-01T16:02:51Z</time>
      </trkpt>
      <trkpt lat="42.29941" lon="2.70522">
        <ele>470</ele>
        <time>2010-01-01T16:03:09Z</time>
      </trkpt>
      <trkpt lat="42.29939" lon="2.7052">
        <ele>471</ele>
        <time>2010-01-01T16:03:11Z</time>
      </trkpt>
      <trkpt lat="42.29931" lon="2.70515">
        <ele>476</ele>
        <time>2010-01-01T16:03:20Z</time>
      </trkpt>
      <trkpt lat="42.29923" lon="2.70529">
        <ele>477</ele>
        <time>2010-01-01T16:03:33Z</time>
      </trkpt>
      <trkpt lat="42.29916" lon="2.7054">
        <ele>477</ele>
        <time>2010-01-01T16:03:44Z</time>
      </trkpt>
      <trkpt lat="42.29914" lon="2.70528">
        <ele>482</ele>
        <time>2010-01-01T16:03:53Z</time>
      </trkpt>
      <trkpt lat="42.29905" lon="2.70526">
        <ele>487</ele>
        <time>2010-01-01T16:04:02Z</time>
      </trkpt>
      <trkpt lat="42.29901" lon="2.70531">
        <ele>487</ele>
        <time>2010-01-01T16:04:07Z</time>
      </trkpt>
      <trkpt lat="42.29891" lon="2.7055">
        <ele>486</ele>
        <time>2010-01-01T16:04:25Z</time>
      </trkpt>
      <trkpt lat="42.29872" lon="2.70563">
        <ele>490</ele>
        <time>2010-01-01T16:04:46Z</time>
      </trkpt>
      <trkpt lat="42.29863" lon="2.70564">
        <ele>494</ele>
        <time>2010-01-01T16:04:55Z</time>
      </trkpt>
      <trkpt lat="42.29861" lon="2.70561">
        <ele>497</ele>
        <time>2010-01-01T16:04:58Z</time>
      </trkpt>
      <trkpt lat="42.29869" lon="2.7055">
        <ele>496</ele>
        <time>2010-01-01T16:05:10Z</time>
      </trkpt>
      <trkpt lat="42.29867" lon="2.70547">
        <ele>499</ele>
        <time>2010-01-01T16:05:13Z</time>
      </trkpt>
      <trkpt lat="42.29856" lon="2.70551">
        <ele>502</ele>
        <time>2010-01-01T16:05:24Z</time>
      </trkpt>
      <trkpt lat="42.29854" lon="2.70553">
        <ele>502</ele>
        <time>2010-01-01T16:05:27Z</time>
      </trkpt>
      <trkpt lat="42.29852" lon="2.70563">
        <ele>500</ele>
        <time>2010-01-01T16:05:34Z</time>
      </trkpt>
      <trkpt lat="42.29852" lon="2.70563">
        <ele>499</ele>
        <time>2010-01-01T16:05:34Z</time>
      </trkpt>
      <trkpt lat="42.2985" lon="2.70558">
        <ele>502</ele>
        <time>2010-01-01T16:05:39Z</time>
      </trkpt>
      <trkpt lat="42.29848" lon="2.70562">
        <ele>502</ele>
        <time>2010-01-01T16:05:42Z</time>
      </trkpt>
      <trkpt lat="42.29831" lon="2.70573">
        <ele>505</ele>
        <time>2010-01-01T16:06:01Z</time>
      </trkpt>
      <trkpt lat="42.29831" lon="2.70571">
        <ele>505</ele>
        <time>2010-01-01T16:06:03Z</time>
      </trkpt>
      <trkpt lat="42.29833" lon="2.70569">
        <ele>505</ele>
        <time>2010-01-01T16:06:04Z</time>
      </trkpt>
      <trkpt lat="42.29835" lon="2.70566">
        <ele>505</ele>
        <time>2010-01-01T16:06:08Z</time>
      </trkpt>
      <trkpt lat="42.29826" lon="2.70564">
        <ele>509</ele>
        <time>2010-01-01T16:06:16Z</time>
      </trkpt>
      <trkpt lat="42.2982" lon="2.70567">
        <ele>511</ele>
        <time>2010-01-01T16:06:23Z</time>
      </trkpt>
      <trkpt lat="42.2981" lon="2.70572">
        <ele>513</ele>
        <time>2010-01-01T16:06:34Z</time>
      </trkpt>
      <trkpt lat="42.29801" lon="2.70571">
        <ele>516</ele>
        <time>2010-01-01T16:06:43Z</time>
      </trkpt>
      <trkpt lat="42.29794" lon="2.70571">
        <ele>518</ele>
        <time>2010-01-01T16:06:50Z</time>
      </trkpt>
      <trkpt lat="42.29782" lon="2.70562">
        <ele>523</ele>
        <time>2010-01-01T16:07:03Z</time>
      </trkpt>
      <trkpt lat="42.29768" lon="2.70564">
        <ele>529</ele>
        <time>2010-01-01T16:07:17Z</time>
      </trkpt>
      <trkpt lat="42.29758" lon="2.70559">
        <ele>535</ele>
        <time>2010-01-01T16:07:28Z</time>
      </trkpt>
      <trkpt lat="42.29748" lon="2.70563">
        <ele>539</ele>
        <time>2010-01-01T16:07:38Z</time>
      </trkpt>
      <trkpt lat="42.2973" lon="2.7057">
        <ele>544</ele>
        <time>2010-01-01T16:07:58Z</time>
      </trkpt>
      <trkpt lat="42.29718" lon="2.70573">
        <ele>548</ele>
        <time>2010-01-01T16:08:10Z</time>
      </trkpt>
      <trkpt lat="42.29717" lon="2.70573">
        <ele>548</ele>
        <time>2010-01-01T16:08:10Z</time>
      </trkpt>
      <trkpt lat="42.29717" lon="2.70572">
        <ele>549</ele>
        <time>2010-01-01T16:08:11Z</time>
      </trkpt>
      <trkpt lat="42.29715" lon="2.70564">
        <ele>552</ele>
        <time>2010-01-01T16:08:18Z</time>
      </trkpt>
      <trkpt lat="42.29714" lon="2.70547">
        <ele>557</ele>
        <time>2010-01-01T16:08:30Z</time>
      </trkpt>
      <trkpt lat="42.29713" lon="2.70551">
        <ele>556</ele>
        <time>2010-01-01T16:08:33Z</time>
      </trkpt>
      <trkpt lat="42.29713" lon="2.70547">
        <ele>557</ele>
        <time>2010-01-01T16:08:36Z</time>
      </trkpt>
      <trkpt lat="42.29709" lon="2.70532">
        <ele>564</ele>
        <time>2010-01-01T16:08:47Z</time>
      </trkpt>
      <trkpt lat="42.29706" lon="2.70514">
        <ele>572</ele>
        <time>2010-01-01T16:09:01Z</time>
      </trkpt>
      <trkpt lat="42.29706" lon="2.70503">
        <ele>576</ele>
        <time>2010-01-01T16:09:10Z</time>
      </trkpt>
      <trkpt lat="42.29704" lon="2.70505">
        <ele>576</ele>
        <time>2010-01-01T16:09:12Z</time>
      </trkpt>
      <trkpt lat="42.29704" lon="2.705">
        <ele>578</ele>
        <time>2010-01-01T16:09:16Z</time>
      </trkpt>
      <trkpt lat="42.29704" lon="2.70486">
        <ele>583</ele>
        <time>2010-01-01T16:09:26Z</time>
      </trkpt>
      <trkpt lat="42.29703" lon="2.70483">
        <ele>584</ele>
        <time>2010-01-01T16:09:29Z</time>
      </trkpt>
      <trkpt lat="42.29703" lon="2.70483">
        <ele>584</ele>
        <time>2010-01-01T16:09:29Z</time>
      </trkpt>
      <trkpt lat="42.29703" lon="2.70485">
        <ele>584</ele>
        <time>2010-01-01T16:09:30Z</time>
      </trkpt>
      <trkpt lat="42.29706" lon="2.70484">
        <ele>583</ele>
        <time>2010-01-01T16:09:34Z</time>
      </trkpt>
      <trkpt lat="42.29708" lon="2.70484">
        <ele>582</ele>
        <time>2010-01-01T16:09:36Z</time>
      </trkpt>
      <trkpt lat="42.29706" lon="2.70477">
        <ele>585</ele>
        <time>2010-01-01T16:09:41Z</time>
      </trkpt>
      <trkpt lat="42.29708" lon="2.70476">
        <ele>585</ele>
        <time>2010-01-01T16:09:44Z</time>
      </trkpt>
      <trkpt lat="42.29711" lon="2.70475">
        <ele>584</ele>
        <time>2010-01-01T16:09:47Z</time>
      </trkpt>
      <trkpt lat="42.29714" lon="2.7048">
        <ele>581</ele>
        <time>2010-01-01T16:09:52Z</time>
      </trkpt>
      <trkpt lat="42.29711" lon="2.70483">
        <ele>581</ele>
        <time>2010-01-01T16:09:56Z</time>
      </trkpt>
      <trkpt lat="42.29711" lon="2.70485">
        <ele>580</ele>
        <time>2010-01-01T16:09:58Z</time>
      </trkpt>
      <trkpt lat="42.29706" lon="2.70502">
        <ele>576</ele>
        <time>2010-01-01T16:10:11Z</time>
      </trkpt>
      <trkpt lat="42.29703" lon="2.70509">
        <ele>575</ele>
        <time>2010-01-01T16:10:17Z</time>
      </trkpt>
      <trkpt lat="42.297" lon="2.70515">
        <ele>574</ele>
        <time>2010-01-01T16:10:22Z</time>
      </trkpt>
      <trkpt lat="42.29703" lon="2.70513">
        <ele>574</ele>
        <time>2010-01-01T16:10:26Z</time>
      </trkpt>
      <trkpt lat="42.29696" lon="2.70518">
        <ele>575</ele>
        <time>2010-01-01T16:10:33Z</time>
      </trkpt>
      <trkpt lat="42.29694" lon="2.70509">
        <ele>579</ele>
        <time>2010-01-01T16:10:40Z</time>
      </trkpt>
      <trkpt lat="42.29691" lon="2.70502">
        <ele>585</ele>
        <time>2010-01-01T16:10:46Z</time>
      </trkpt>
      <trkpt lat="42.29687" lon="2.70498">
        <ele>589</ele>
        <time>2010-01-01T16:10:51Z</time>
      </trkpt>
      <trkpt lat="42.29688" lon="2.70485">
        <ele>592</ele>
        <time>2010-01-01T16:11:01Z</time>
      </trkpt>
      <trkpt lat="42.29683" lon="2.70482">
        <ele>597</ele>
        <time>2010-01-01T16:11:06Z</time>
      </trkpt>
      <trkpt lat="42.29683" lon="2.7048">
        <ele>597</ele>
        <time>2010-01-01T16:11:08Z</time>
      </trkpt>
      <trkpt lat="42.2968" lon="2.70478">
        <ele>601</ele>
        <time>2010-01-01T16:11:11Z</time>
      </trkpt>
      <trkpt lat="42.29682" lon="2.70469">
        <ele>602</ele>
        <time>2010-01-01T16:11:18Z</time>
      </trkpt>
      <trkpt lat="42.29675" lon="2.70465">
        <ele>609</ele>
        <time>2010-01-01T16:11:26Z</time>
      </trkpt>
      <trkpt lat="42.29673" lon="2.7046">
        <ele>612</ele>
        <time>2010-01-01T16:11:29Z</time>
      </trkpt>
      <trkpt lat="42.29667" lon="2.70485">
        <ele>609</ele>
        <time>2010-01-01T16:11:48Z</time>
      </trkpt>
      <trkpt lat="42.29665" lon="2.70477">
        <ele>614</ele>
        <time>2010-01-01T16:11:55Z</time>
      </trkpt>
      <trkpt lat="42.29666" lon="2.70471">
        <ele>614</ele>
        <time>2010-01-01T16:12:00Z</time>
      </trkpt>
      <trkpt lat="42.29667" lon="2.70457">
        <ele>617</ele>
        <time>2010-01-01T16:12:10Z</time>
      </trkpt>
      <trkpt lat="42.29672" lon="2.70437">
        <ele>621</ele>
        <time>2010-01-01T16:12:25Z</time>
      </trkpt>
      <trkpt lat="42.29673" lon="2.70426">
        <ele>625</ele>
        <time>2010-01-01T16:12:34Z</time>
      </trkpt>
      <trkpt lat="42.29674" lon="2.70418">
        <ele>628</ele>
        <time>2010-01-01T16:12:40Z</time>
      </trkpt>
      <trkpt lat="42.29678" lon="2.70406">
        <ele>631</ele>
        <time>2010-01-01T16:12:49Z</time>
      </trkpt>
      <trkpt lat="42.29669" lon="2.70404">
        <ele>636</ele>
        <time>2010-01-01T16:12:58Z</time>
      </trkpt>
      <trkpt lat="42.29657" lon="2.70406">
        <ele>640</ele>
        <time>2010-01-01T16:13:10Z</time>
      </trkpt>
      <trkpt lat="42.2965" lon="2.70412">
        <ele>642</ele>
        <time>2010-01-01T16:13:19Z</time>
      </trkpt>
      <trkpt lat="42.29648" lon="2.70428">
        <ele>639</ele>
        <time>2010-01-01T16:13:31Z</time>
      </trkpt>
      <trkpt lat="42.29647" lon="2.70433">
        <ele>638</ele>
        <time>2010-01-01T16:13:34Z</time>
      </trkpt>
      <trkpt lat="42.29642" lon="2.70435">
        <ele>641</ele>
        <time>2010-01-01T16:13:39Z</time>
      </trkpt>
      <trkpt lat="42.29637" lon="2.70418">
        <ele>647</ele>
        <time>2010-01-01T16:13:52Z</time>
      </trkpt>
      <trkpt lat="42.29637" lon="2.70395">
        <ele>653</ele>
        <time>2010-01-01T16:14:10Z</time>
      </trkpt>
      <trkpt lat="42.29645" lon="2.70385">
        <ele>654</ele>
        <time>2010-01-01T16:14:21Z</time>
      </trkpt>
      <trkpt lat="42.2965" lon="2.70381">
        <ele>653</ele>
        <time>2010-01-01T16:14:27Z</time>
      </trkpt>
      <trkpt lat="42.29654" lon="2.7038">
        <ele>652</ele>
        <time>2010-01-01T16:14:30Z</time>
      </trkpt>
      <trkpt lat="42.29637" lon="2.70377">
        <ele>659</ele>
        <time>2010-01-01T16:14:47Z</time>
      </trkpt>
      <trkpt lat="42.29627" lon="2.70385">
        <ele>660</ele>
        <time>2010-01-01T16:14:58Z</time>
      </trkpt>
      <trkpt lat="42.29618" lon="2.70389">
        <ele>661</ele>
        <time>2010-01-01T16:15:08Z</time>
      </trkpt>
      <trkpt lat="42.29615" lon="2.7039">
        <ele>662</ele>
        <time>2010-01-01T16:15:12Z</time>
      </trkpt>
      <trkpt lat="42.29614" lon="2.7039">
        <ele>662</ele>
        <time>2010-01-01T16:15:12Z</time>
      </trkpt>
      <trkpt lat="42.29615" lon="2.70377">
        <ele>667</ele>
        <time>2010-01-01T16:15:22Z</time>
      </trkpt>
      <trkpt lat="42.29603" lon="2.70393">
        <ele>666</ele>
        <time>2010-01-01T16:15:39Z</time>
      </trkpt>
      <trkpt lat="42.29594" lon="2.70413">
        <ele>667</ele>
        <time>2010-01-01T16:15:56Z</time>
      </trkpt>
      <trkpt lat="42.29592" lon="2.70414">
        <ele>668</ele>
        <time>2010-01-01T16:15:57Z</time>
      </trkpt>
      <trkpt lat="42.29582" lon="2.70389">
        <ele>675</ele>
        <time>2010-01-01T16:16:18Z</time>
      </trkpt>
      <trkpt lat="42.29576" lon="2.70394">
        <ele>675</ele>
        <time>2010-01-01T16:16:25Z</time>
      </trkpt>
      <trkpt lat="42.29573" lon="2.70394">
        <ele>676</ele>
        <time>2010-01-01T16:16:28Z</time>
      </trkpt>
      <trkpt lat="42.29569" lon="2.70392">
        <ele>677</ele>
        <time>2010-01-01T16:16:32Z</time>
      </trkpt>
      <trkpt lat="42.29567" lon="2.70393">
        <ele>677</ele>
        <time>2010-01-01T16:16:34Z</time>
      </trkpt>
      <trkpt lat="42.29563" lon="2.70399">
        <ele>677</ele>
        <time>2010-01-01T16:16:40Z</time>
      </trkpt>
      <trkpt lat="42.2955" lon="2.70392">
        <ele>679</ele>
        <time>2010-01-01T16:16:54Z</time>
      </trkpt>
      <trkpt lat="42.29538" lon="2.70374">
        <ele>682</ele>
        <time>2010-01-01T16:17:12Z</time>
      </trkpt>
      <trkpt lat="42.29525" lon="2.70358">
        <ele>684</ele>
        <time>2010-01-01T16:17:29Z</time>
      </trkpt>
      <trkpt lat="42.2952" lon="2.70338">
        <ele>687</ele>
        <time>2010-01-01T16:17:45Z</time>
      </trkpt>
      <trkpt lat="42.29519" lon="2.70332">
        <ele>687</ele>
        <time>2010-01-01T16:17:49Z</time>
      </trkpt>
      <trkpt lat="42.29517" lon="2.7032">
        <ele>688</ele>
        <time>2010-01-01T16:17:59Z</time>
      </trkpt>
      <trkpt lat="42.29495" lon="2.70297">
        <ele>693</ele>
        <time>2010-01-01T16:18:26Z</time>
      </trkpt>
      <trkpt lat="42.2949" lon="2.7029">
        <ele>694</ele>
        <time>2010-01-01T16:18:34Z</time>
      </trkpt>
      <trkpt lat="42.29481" lon="2.70279">
        <ele>696</ele>
        <time>2010-01-01T16:18:46Z</time>
      </trkpt>
      <trkpt lat="42.29481" lon="2.70272">
        <ele>697</ele>
        <time>2010-01-01T16:18:51Z</time>
      </trkpt>
      <trkpt lat="42.29468" lon="2.7025">
        <ele>701</ele>
        <time>2010-01-01T16:19:12Z</time>
      </trkpt>
      <trkpt lat="42.2945" lon="2.70227">
        <ele>702</ele>
        <time>2010-01-01T16:19:36Z</time>
      </trkpt>
      <trkpt lat="42.29446" lon="2.70211">
        <ele>704</ele>
        <time>2010-01-01T16:19:49Z</time>
      </trkpt>
      <trkpt lat="42.29439" lon="2.70201">
        <ele>706</ele>
        <time>2010-01-01T16:19:59Z</time>
      </trkpt>
      <trkpt lat="42.29438" lon="2.70198">
        <ele>707</ele>
        <time>2010-01-01T16:20:02Z</time>
      </trkpt>
      <trkpt lat="42.29434" lon="2.70188">
        <ele>709</ele>
        <time>2010-01-01T16:20:10Z</time>
      </trkpt>
      <trkpt lat="42.29433" lon="2.70178">
        <ele>710</ele>
        <time>2010-01-01T16:20:18Z</time>
      </trkpt>
      <trkpt lat="42.29442" lon="2.70175">
        <ele>710</ele>
        <time>2010-01-01T16:20:27Z</time>
      </trkpt>
      <trkpt lat="42.29442" lon="2.70173">
        <ele>710</ele>
        <time>2010-01-01T16:20:28Z</time>
      </trkpt>
      <trkpt lat="42.29437" lon="2.7017">
        <ele>711</ele>
        <time>2010-01-01T16:20:33Z</time>
      </trkpt>
      <trkpt lat="42.29436" lon="2.70163">
        <ele>712</ele>
        <time>2010-01-01T16:20:38Z</time>
      </trkpt>
      <trkpt lat="42.29431" lon="2.7015">
        <ele>715</ele>
        <time>2010-01-01T16:20:50Z</time>
      </trkpt>
      <trkpt lat="42.29429" lon="2.70146">
        <ele>716</ele>
        <time>2010-01-01T16:20:53Z</time>
      </trkpt>
      <trkpt lat="42.29424" lon="2.70148">
        <ele>716</ele>
        <time>2010-01-01T16:20:58Z</time>
      </trkpt>
      <trkpt lat="42.2942" lon="2.70154">
        <ele>716</ele>
        <time>2010-01-01T16:21:04Z</time>
      </trkpt>
      <trkpt lat="42.2941" lon="2.70145">
        <ele>719</ele>
        <time>2010-01-01T16:21:15Z</time>
      </trkpt>
      <trkpt lat="42.29408" lon="2.70144">
        <ele>720</ele>
        <time>2010-01-01T16:21:18Z</time>
      </trkpt>
      <trkpt lat="42.29401" lon="2.70135">
        <ele>723</ele>
        <time>2010-01-01T16:21:28Z</time>
      </trkpt>
      <trkpt lat="42.29398" lon="2.70133">
        <ele>723</ele>
        <time>2010-01-01T16:21:31Z</time>
      </trkpt>
      <trkpt lat="42.29388" lon="2.70128">
        <ele>726</ele>
        <time>2010-01-01T16:21:42Z</time>
      </trkpt>
      <trkpt lat="42.29378" lon="2.7012">
        <ele>729</ele>
        <time>2010-01-01T16:21:53Z</time>
      </trkpt>
      <trkpt lat="42.29374" lon="2.70114">
        <ele>731</ele>
        <time>2010-01-01T16:21:59Z</time>
      </trkpt>
      <trkpt lat="42.29373" lon="2.70105">
        <ele>732</ele>
        <time>2010-01-01T16:22:06Z</time>
      </trkpt>
      <trkpt lat="42.29352" lon="2.70092">
        <ele>738</ele>
        <time>2010-01-01T16:22:28Z</time>
      </trkpt>
      <trkpt lat="42.29365" lon="2.70076">
        <ele>736</ele>
        <time>2010-01-01T16:22:45Z</time>
      </trkpt>
      <trkpt lat="42.29372" lon="2.70065">
        <ele>737</ele>
        <time>2010-01-01T16:22:56Z</time>
      </trkpt>
      <trkpt lat="42.29383" lon="2.70054">
        <ele>739</ele>
        <time>2010-01-01T16:23:09Z</time>
      </trkpt>
      <trkpt lat="42.29388" lon="2.70053">
        <ele>739</ele>
        <time>2010-01-01T16:23:15Z</time>
      </trkpt>
      <trkpt lat="42.29406" lon="2.70048">
        <ele>741</ele>
        <time>2010-01-01T16:23:33Z</time>
      </trkpt>
      <trkpt lat="42.29408" lon="2.70045">
        <ele>742</ele>
        <time>2010-01-01T16:23:36Z</time>
      </trkpt>
      <trkpt lat="42.29423" lon="2.70037">
        <ele>744</ele>
        <time>2010-01-01T16:23:52Z</time>
      </trkpt>
      <trkpt lat="42.29448" lon="2.70033">
        <ele>745</ele>
        <time>2010-01-01T16:24:17Z</time>
      </trkpt>
      <trkpt lat="42.29461" lon="2.70032">
        <ele>745</ele>
        <time>2010-01-01T16:24:31Z</time>
      </trkpt>
      <trkpt lat="42.29479" lon="2.70015">
        <ele>749</ele>
        <time>2010-01-01T16:24:53Z</time>
      </trkpt>
      <trkpt lat="42.29531" lon="2.69977">
        <ele>749</ele>
        <time>2010-01-01T16:25:52Z</time>
      </trkpt>
      <trkpt lat="42.29544" lon="2.69956">
        <ele>750</ele>
        <time>2010-01-01T16:26:12Z</time>
      </trkpt>
      <trkpt lat="42.29562" lon="2.69927">
        <ele>750</ele>
        <time>2010-01-01T16:26:41Z</time>
      </trkpt>
      <trkpt lat="42.29568" lon="2.69911">
        <ele>750</ele>
        <time>2010-01-01T16:26:54Z</time>
      </trkpt>
      <trkpt lat="42.29573" lon="2.69902">
        <ele>750</ele>
        <time>2010-01-01T16:27:02Z</time>
      </trkpt>
      <trkpt lat="42.29577" lon="2.69892">
        <ele>750</ele>
        <time>2010-01-01T16:27:11Z</time>
      </trkpt>
      <trkpt lat="42.29581" lon="2.69878">
        <ele>749</ele>
        <time>2010-01-01T16:27:21Z</time>
      </trkpt>
      <trkpt lat="42.29579" lon="2.69843">
        <ele>749</ele>
        <time>2010-01-01T16:27:47Z</time>
      </trkpt>
      <trkpt lat="42.29574" lon="2.69828">
        <ele>751</ele>
        <time>2010-01-01T16:28:00Z</time>
      </trkpt>
      <trkpt lat="42.29569" lon="2.69797">
        <ele>751</ele>
        <time>2010-01-01T16:28:23Z</time>
      </trkpt>
      <trkpt lat="42.29553" lon="2.69769">
        <ele>753</ele>
        <time>2010-01-01T16:28:49Z</time>
      </trkpt>
      <trkpt lat="42.2954" lon="2.69753">
        <ele>755</ele>
        <time>2010-01-01T16:29:07Z</time>
      </trkpt>
      <trkpt lat="42.29527" lon="2.6974">
        <ele>757</ele>
        <time>2010-01-01T16:29:23Z</time>
      </trkpt>
      <trkpt lat="42.29504" lon="2.69729">
        <ele>761</ele>
        <time>2010-01-01T16:29:48Z</time>
      </trkpt>
      <trkpt lat="42.29496" lon="2.69722">
        <ele>761</ele>
        <time>2010-01-01T16:29:57Z</time>
      </trkpt>
      <trkpt lat="42.29489" lon="2.69719">
        <ele>762</ele>
        <time>2010-01-01T16:30:04Z</time>
      </trkpt>
      <trkpt lat="42.29488" lon="2.69721">
        <ele>762</ele>
        <time>2010-01-01T16:30:06Z</time>
      </trkpt>
      <trkpt lat="42.29484" lon="2.69717">
        <ele>762</ele>
        <time>2010-01-01T16:30:10Z</time>
      </trkpt>
      <trkpt lat="42.29471" lon="2.6971">
        <ele>764</ele>
        <time>2010-01-01T16:30:25Z</time>
      </trkpt>
      <trkpt lat="42.29462" lon="2.69699">
        <ele>765</ele>
        <time>2010-01-01T16:30:37Z</time>
      </trkpt>
      <trkpt lat="42.29453" lon="2.69687">
        <ele>767</ele>
        <time>2010-01-01T16:30:49Z</time>
      </trkpt>
      <trkpt lat="42.29446" lon="2.69671">
        <ele>769</ele>
        <time>2010-01-01T16:31:03Z</time>
      </trkpt>
      <trkpt lat="42.29443" lon="2.69669">
        <ele>770</ele>
        <time>2010-01-01T16:31:06Z</time>
      </trkpt>
      <trkpt lat="42.29439" lon="2.69662">
        <ele>770</ele>
        <time>2010-01-01T16:31:13Z</time>
      </trkpt>
      <trkpt lat="42.29435" lon="2.69658">
        <ele>770</ele>
        <time>2010-01-01T16:31:17Z</time>
      </trkpt>
      <trkpt lat="42.2943" lon="2.69656">
        <ele>771</ele>
        <time>2010-01-01T16:31:23Z</time>
      </trkpt>
      <trkpt lat="42.29427" lon="2.69648">
        <ele>771</ele>
        <time>2010-01-01T16:31:29Z</time>
      </trkpt>
      <trkpt lat="42.29426" lon="2.69647">
        <ele>772</ele>
        <time>2010-01-01T16:31:31Z</time>
      </trkpt>
      <trkpt lat="42.29422" lon="2.69636">
        <ele>772</ele>
        <time>2010-01-01T16:31:40Z</time>
      </trkpt>
      <trkpt lat="42.29408" lon="2.69632">
        <ele>772</ele>
        <time>2010-01-01T16:31:54Z</time>
      </trkpt>
      <trkpt lat="42.29406" lon="2.69631">
        <ele>772</ele>
        <time>2010-01-01T16:31:56Z</time>
      </trkpt>
      <trkpt lat="42.29392" lon="2.69635">
        <ele>771</ele>
        <time>2010-01-01T16:32:10Z</time>
      </trkpt>
      <trkpt lat="42.29381" lon="2.69622">
        <ele>770</ele>
        <time>2010-01-01T16:32:25Z</time>
      </trkpt>
      <trkpt lat="42.29375" lon="2.69613">
        <ele>769</ele>
        <time>2010-01-01T16:32:34Z</time>
      </trkpt>
      <trkpt lat="42.29371" lon="2.696">
        <ele>770</ele>
        <time>2010-01-01T16:32:44Z</time>
      </trkpt>
      <trkpt lat="42.29369" lon="2.69594">
        <ele>770</ele>
        <time>2010-01-01T16:32:49Z</time>
      </trkpt>
      <trkpt lat="42.29369" lon="2.69593">
        <ele>771</ele>
        <time>2010-01-01T16:32:50Z</time>
      </trkpt>
      <trkpt lat="42.29367" lon="2.69581">
        <ele>772</ele>
        <time>2010-01-01T16:32:59Z</time>
      </trkpt>
      <trkpt lat="42.29364" lon="2.69569">
        <ele>774</ele>
        <time>2010-01-01T16:33:08Z</time>
      </trkpt>
      <trkpt lat="42.29361" lon="2.69548">
        <ele>777</ele>
        <time>2010-01-01T16:33:24Z</time>
      </trkpt>
      <trkpt lat="42.29351" lon="2.69528">
        <ele>778</ele>
        <time>2010-01-01T16:33:42Z</time>
      </trkpt>
      <trkpt lat="42.2934" lon="2.69509">
        <ele>779</ele>
        <time>2010-01-01T16:34:00Z</time>
      </trkpt>
      <trkpt lat="42.29336" lon="2.69502">
        <ele>780</ele>
        <time>2010-01-01T16:34:07Z</time>
      </trkpt>
      <trkpt lat="42.29337" lon="2.69501">
        <ele>781</ele>
        <time>2010-01-01T16:34:08Z</time>
      </trkpt>
      <trkpt lat="42.29337" lon="2.69501">
        <ele>781</ele>
        <time>2010-01-01T16:34:08Z</time>
      </trkpt>
      <trkpt lat="42.29335" lon="2.69501">
        <ele>781</ele>
        <time>2010-01-01T16:34:10Z</time>
      </trkpt>
      <trkpt lat="42.29328" lon="2.69477">
        <ele>780</ele>
        <time>2010-01-01T16:34:29Z</time>
      </trkpt>
      <trkpt lat="42.29327" lon="2.69468">
        <ele>781</ele>
        <time>2010-01-01T16:34:35Z</time>
      </trkpt>
      <trkpt lat="42.29329" lon="2.69449">
        <ele>782</ele>
        <time>2010-01-01T16:34:50Z</time>
      </trkpt>
      <trkpt lat="42.29333" lon="2.69434">
        <ele>784</ele>
        <time>2010-01-01T16:35:01Z</time>
      </trkpt>
      <trkpt lat="42.29335" lon="2.69421">
        <ele>785</ele>
        <time>2010-01-01T16:35:11Z</time>
      </trkpt>
      <trkpt lat="42.29334" lon="2.69403">
        <ele>786</ele>
        <time>2010-01-01T16:35:25Z</time>
      </trkpt>
      <trkpt lat="42.29332" lon="2.69398">
        <ele>786</ele>
        <time>2010-01-01T16:35:29Z</time>
      </trkpt>
      <trkpt lat="42.29332" lon="2.69391">
        <ele>787</ele>
        <time>2010-01-01T16:35:34Z</time>
      </trkpt>
      <trkpt lat="42.2933" lon="2.69379">
        <ele>787</ele>
        <time>2010-01-01T16:35:44Z</time>
      </trkpt>
      <trkpt lat="42.29327" lon="2.69353">
        <ele>787</ele>
        <time>2010-01-01T16:36:03Z</time>
      </trkpt>
      <trkpt lat="42.29325" lon="2.69299">
        <ele>791</ele>
        <time>2010-01-01T16:36:43Z</time>
      </trkpt>
      <trkpt lat="42.29318" lon="2.69293">
        <ele>791</ele>
        <time>2010-01-01T16:36:52Z</time>
      </trkpt>
      <trkpt lat="42.29319" lon="2.69276">
        <ele>793</ele>
        <time>2010-01-01T16:37:04Z</time>
      </trkpt>
      <trkpt lat="42.293" lon="2.69277">
        <ele>792</ele>
        <time>2010-01-01T16:37:23Z</time>
      </trkpt>
      <trkpt lat="42.29285" lon="2.69281">
        <ele>791</ele>
        <time>2010-01-01T16:37:38Z</time>
      </trkpt>
      <trkpt lat="42.29271" lon="2.69292">
        <ele>789</ele>
        <time>2010-01-01T16:37:54Z</time>
      </trkpt>
      <trkpt lat="42.2926" lon="2.69299">
        <ele>789</ele>
        <time>2010-01-01T16:38:07Z</time>
      </trkpt>
      <trkpt lat="42.29245" lon="2.69312">
        <ele>788</ele>
        <time>2010-01-01T16:38:25Z</time>
      </trkpt>
      <trkpt lat="42.29243" lon="2.69314">
        <ele>788</ele>
        <time>2010-01-01T16:38:27Z</time>
      </trkpt>
      <trkpt lat="42.29233" lon="2.6932">
        <ele>788</ele>
        <time>2010-01-01T16:38:38Z</time>
      </trkpt>
      <trkpt lat="42.29231" lon="2.69321">
        <ele>788</ele>
        <time>2010-01-01T16:38:40Z</time>
      </trkpt>
      <trkpt lat="42.29229" lon="2.69325">
        <ele>788</ele>
        <time>2010-01-01T16:38:44Z</time>
      </trkpt>
      <trkpt lat="42.29223" lon="2.69332">
        <ele>788</ele>
        <time>2010-01-01T16:38:52Z</time>
      </trkpt>
      <trkpt lat="42.29214" lon="2.69341">
        <ele>787</ele>
        <time>2010-01-01T16:39:03Z</time>
      </trkpt>
      <trkpt lat="42.29205" lon="2.6935">
        <ele>786</ele>
        <time>2010-01-01T16:39:14Z</time>
      </trkpt>
      <trkpt lat="42.29204" lon="2.69352">
        <ele>785</ele>
        <time>2010-01-01T16:39:16Z</time>
      </trkpt>
      <trkpt lat="42.292" lon="2.69357">
        <ele>785</ele>
        <time>2010-01-01T16:39:21Z</time>
      </trkpt>
      <trkpt lat="42.29195" lon="2.69365">
        <ele>784</ele>
        <time>2010-01-01T16:39:29Z</time>
      </trkpt>
      <trkpt lat="42.29187" lon="2.69374">
        <ele>783</ele>
        <time>2010-01-01T16:39:39Z</time>
      </trkpt>
      <trkpt lat="42.29184" lon="2.6938">
        <ele>782</ele>
        <time>2010-01-01T16:39:45Z</time>
      </trkpt>
      <trkpt lat="42.29177" lon="2.69391">
        <ele>782</ele>
        <time>2010-01-01T16:39:56Z</time>
      </trkpt>
      <trkpt lat="42.29164" lon="2.69408">
        <ele>782</ele>
        <time>2010-01-01T16:40:13Z</time>
      </trkpt>
      <trkpt lat="42.2916" lon="2.69413">
        <ele>783</ele>
        <time>2010-01-01T16:40:19Z</time>
      </trkpt>
      <trkpt lat="42.29144" lon="2.69424">
        <ele>784</ele>
        <time>2010-01-01T16:40:37Z</time>
      </trkpt>
      <trkpt lat="42.29141" lon="2.69425">
        <ele>784</ele>
        <time>2010-01-01T16:40:40Z</time>
      </trkpt>
      <trkpt lat="42.29123" lon="2.6943">
        <ele>784</ele>
        <time>2010-01-01T16:40:59Z</time>
      </trkpt>
      <trkpt lat="42.29117" lon="2.69431">
        <ele>784</ele>
        <time>2010-01-01T16:41:05Z</time>
      </trkpt>
      <trkpt lat="42.29113" lon="2.69428">
        <ele>785</ele>
        <time>2010-01-01T16:41:09Z</time>
      </trkpt>
      <trkpt lat="42.291" lon="2.69428">
        <ele>784</ele>
        <time>2010-01-01T16:41:23Z</time>
      </trkpt>
      <trkpt lat="42.29082" lon="2.69427">
        <ele>784</ele>
        <time>2010-01-01T16:41:40Z</time>
      </trkpt>
      <trkpt lat="42.29069" lon="2.6943">
        <ele>782</ele>
        <time>2010-01-01T16:41:54Z</time>
      </trkpt>
      <trkpt lat="42.29061" lon="2.69424">
        <ele>781</ele>
        <time>2010-01-01T16:42:03Z</time>
      </trkpt>
      <trkpt lat="42.2904" lon="2.69414">
        <ele>781</ele>
        <time>2010-01-01T16:42:25Z</time>
      </trkpt>
      <trkpt lat="42.29033" lon="2.69409">
        <ele>780</ele>
        <time>2010-01-01T16:42:32Z</time>
      </trkpt>
      <trkpt lat="42.29026" lon="2.69409">
        <ele>779</ele>
        <time>2010-01-01T16:42:40Z</time>
      </trkpt>
      <trkpt lat="42.29009" lon="2.69404">
        <ele>777</ele>
        <time>2010-01-01T16:42:56Z</time>
      </trkpt>
      <trkpt lat="42.29006" lon="2.69402">
        <ele>776</ele>
        <time>2010-01-01T16:43:00Z</time>
      </trkpt>
      <trkpt lat="42.28994" lon="2.69381">
        <ele>774</ele>
        <time>2010-01-01T16:43:20Z</time>
      </trkpt>
      <trkpt lat="42.28984" lon="2.69374">
        <ele>772</ele>
        <time>2010-01-01T16:43:31Z</time>
      </trkpt>
      <trkpt lat="42.28979" lon="2.69369">
        <ele>771</ele>
        <time>2010-01-01T16:43:37Z</time>
      </trkpt>
      <trkpt lat="42.2897" lon="2.69361">
        <ele>769</ele>
        <time>2010-01-01T16:43:48Z</time>
      </trkpt>
      <trkpt lat="42.28952" lon="2.69344">
        <ele>768</ele>
        <time>2010-01-01T16:44:10Z</time>
      </trkpt>
      <trkpt lat="42.28949" lon="2.69341">
        <ele>768</ele>
        <time>2010-01-01T16:44:14Z</time>
      </trkpt>
      <trkpt lat="42.28937" lon="2.6934">
        <ele>767</ele>
        <time>2010-01-01T16:44:26Z</time>
      </trkpt>
      <trkpt lat="42.28935" lon="2.6934">
        <ele>767</ele>
        <time>2010-01-01T16:44:28Z</time>
      </trkpt>
      <trkpt lat="42.2893" lon="2.69338">
        <ele>767</ele>
        <time>2010-01-01T16:44:34Z</time>
      </trkpt>
      <trkpt lat="42.28918" lon="2.69327">
        <ele>765</ele>
        <time>2010-01-01T16:44:47Z</time>
      </trkpt>
      <trkpt lat="42.28915" lon="2.69324">
        <ele>765</ele>
        <time>2010-01-01T16:44:51Z</time>
      </trkpt>
      <trkpt lat="42.28909" lon="2.69312">
        <ele>764</ele>
        <time>2010-01-01T16:45:02Z</time>
      </trkpt>
      <trkpt lat="42.28899" lon="2.69287">
        <ele>760</ele>
        <time>2010-01-01T16:45:23Z</time>
      </trkpt>
      <trkpt lat="42.28898" lon="2.69281">
        <ele>759</ele>
        <time>2010-01-01T16:45:28Z</time>
      </trkpt>
      <trkpt lat="42.28897" lon="2.69284">
        <ele>759</ele>
        <time>2010-01-01T16:45:30Z</time>
      </trkpt>
      <trkpt lat="42.289" lon="2.6929">
        <ele>760</ele>
        <time>2010-01-01T16:45:35Z</time>
      </trkpt>
      <trkpt lat="42.28898" lon="2.69287">
        <ele>760</ele>
        <time>2010-01-01T16:45:38Z</time>
      </trkpt>
      <trkpt lat="42.28885" lon="2.69273">
        <ele>757</ele>
        <time>2010-01-01T16:45:54Z</time>
      </trkpt>
      <trkpt lat="42.28876" lon="2.69269">
        <ele>755</ele>
        <time>2010-01-01T16:46:03Z</time>
      </trkpt>
      <trkpt lat="42.28862" lon="2.69265">
        <ele>753</ele>
        <time>2010-01-01T16:46:18Z</time>
      </trkpt>
      <trkpt lat="42.28858" lon="2.69266">
        <ele>753</ele>
        <time>2010-01-01T16:46:22Z</time>
      </trkpt>
      <trkpt lat="42.28855" lon="2.69267">
        <ele>753</ele>
        <time>2010-01-01T16:46:25Z</time>
      </trkpt>
      <trkpt lat="42.28848" lon="2.69251">
        <ele>751</ele>
        <time>2010-01-01T16:46:38Z</time>
      </trkpt>
      <trkpt lat="42.28836" lon="2.6924">
        <ele>751</ele>
        <time>2010-01-01T16:46:53Z</time>
      </trkpt>
      <trkpt lat="42.28828" lon="2.69231">
        <ele>751</ele>
        <time>2010-01-01T16:47:04Z</time>
      </trkpt>
      <trkpt lat="42.28817" lon="2.69217">
        <ele>751</ele>
        <time>2010-01-01T16:47:19Z</time>
      </trkpt>
      <trkpt lat="42.28805" lon="2.692">
        <ele>751</ele>
        <time>2010-01-01T16:47:36Z</time>
      </trkpt>
      <trkpt lat="42.28802" lon="2.69194">
        <ele>751</ele>
        <time>2010-01-01T16:47:42Z</time>
      </trkpt>
      <trkpt lat="42.288" lon="2.69191">
        <ele>751</ele>
        <time>2010-01-01T16:47:44Z</time>
      </trkpt>
      <trkpt lat="42.28791" lon="2.69177">
        <ele>750</ele>
        <time>2010-01-01T16:47:58Z</time>
      </trkpt>
      <trkpt lat="42.2878" lon="2.69155">
        <ele>750</ele>
        <time>2010-01-01T16:48:18Z</time>
      </trkpt>
      <trkpt lat="42.28763" lon="2.69136">
        <ele>751</ele>
        <time>2010-01-01T16:48:40Z</time>
      </trkpt>
      <trkpt lat="42.28758" lon="2.69134">
        <ele>751</ele>
        <time>2010-01-01T16:48:45Z</time>
      </trkpt>
      <trkpt lat="42.28752" lon="2.69131">
        <ele>751</ele>
        <time>2010-01-01T16:48:51Z</time>
      </trkpt>
      <trkpt lat="42.2874" lon="2.69131">
        <ele>752</ele>
        <time>2010-01-01T16:49:04Z</time>
      </trkpt>
      <trkpt lat="42.28738" lon="2.69131">
        <ele>752</ele>
        <time>2010-01-01T16:49:05Z</time>
      </trkpt>
      <trkpt lat="42.28722" lon="2.69131">
        <ele>752</ele>
        <time>2010-01-01T16:49:22Z</time>
      </trkpt>
      <trkpt lat="42.28703" lon="2.69128">
        <ele>754</ele>
        <time>2010-01-01T16:49:41Z</time>
      </trkpt>
      <trkpt lat="42.28699" lon="2.69128">
        <ele>755</ele>
        <time>2010-01-01T16:49:44Z</time>
      </trkpt>
      <trkpt lat="42.28683" lon="2.69131">
        <ele>756</ele>
        <time>2010-01-01T16:50:00Z</time>
      </trkpt>
      <trkpt lat="42.28676" lon="2.69135">
        <ele>757</ele>
        <time>2010-01-01T16:50:08Z</time>
      </trkpt>
      <trkpt lat="42.28661" lon="2.6914">
        <ele>757</ele>
        <time>2010-01-01T16:50:23Z</time>
      </trkpt>
      <trkpt lat="42.28646" lon="2.69148">
        <ele>758</ele>
        <time>2010-01-01T16:50:40Z</time>
      </trkpt>
      <trkpt lat="42.28635" lon="2.69155">
        <ele>758</ele>
        <time>2010-01-01T16:50:52Z</time>
      </trkpt>
      <trkpt lat="42.28613" lon="2.69162">
        <ele>757</ele>
        <time>2010-01-01T16:51:14Z</time>
      </trkpt>
      <trkpt lat="42.28611" lon="2.69162">
        <ele>757</ele>
        <time>2010-01-01T16:51:16Z</time>
      </trkpt>
      <trkpt lat="42.28588" lon="2.69163">
        <ele>754</ele>
        <time>2010-01-01T16:51:39Z</time>
      </trkpt>
      <trkpt lat="42.28579" lon="2.69172">
        <ele>754</ele>
        <time>2010-01-01T16:51:50Z</time>
      </trkpt>
      <trkpt lat="42.28578" lon="2.69175">
        <ele>755</ele>
        <time>2010-01-01T16:51:53Z</time>
      </trkpt>
      <trkpt lat="42.28571" lon="2.69178">
        <ele>754</ele>
        <time>2010-01-01T16:52:00Z</time>
      </trkpt>
      <trkpt lat="42.28568" lon="2.69179">
        <ele>754</ele>
        <time>2010-01-01T16:52:03Z</time>
      </trkpt>
      <trkpt lat="42.28558" lon="2.69189">
        <ele>753</ele>
        <time>2010-01-01T16:52:16Z</time>
      </trkpt>
      <trkpt lat="42.28557" lon="2.69191">
        <ele>753</ele>
        <time>2010-01-01T16:52:17Z</time>
      </trkpt>
      <trkpt lat="42.28543" lon="2.69204">
        <ele>751</ele>
        <time>2010-01-01T16:52:35Z</time>
      </trkpt>
      <trkpt lat="42.28531" lon="2.69212">
        <ele>749</ele>
        <time>2010-01-01T16:52:48Z</time>
      </trkpt>
      <trkpt lat="42.28517" lon="2.69219">
        <ele>748</ele>
        <time>2010-01-01T16:53:03Z</time>
      </trkpt>
      <trkpt lat="42.28503" lon="2.69226">
        <ele>748</ele>
        <time>2010-01-01T16:53:18Z</time>
      </trkpt>
      <trkpt lat="42.28476" lon="2.69236">
        <ele>749</ele>
        <time>2010-01-01T16:53:45Z</time>
      </trkpt>
      <trkpt lat="42.28458" lon="2.69231">
        <ele>748</ele>
        <time>2010-01-01T16:54:04Z</time>
      </trkpt>
      <trkpt lat="42.28443" lon="2.69228">
        <ele>748</ele>
        <time>2010-01-01T16:54:19Z</time>
      </trkpt>
      <trkpt lat="42.28424" lon="2.69223">
        <ele>749</ele>
        <time>2010-01-01T16:54:39Z</time>
      </trkpt>
      <trkpt lat="42.28407" lon="2.69223">
        <ele>749</ele>
        <time>2010-01-01T16:54:56Z</time>
      </trkpt>
      <trkpt lat="42.28371" lon="2.69212">
        <ele>747</ele>
        <time>2010-01-01T16:55:33Z</time>
      </trkpt>
      <trkpt lat="42.28364" lon="2.69211">
        <ele>747</ele>
        <time>2010-01-01T16:55:39Z</time>
      </trkpt>
      <trkpt lat="42.28351" lon="2.69209">
        <ele>747</ele>
        <time>2010-01-01T16:55:53Z</time>
      </trkpt>
      <trkpt lat="42.2834" lon="2.69205">
        <ele>748</ele>
        <time>2010-01-01T16:56:04Z</time>
      </trkpt>
      <trkpt lat="42.28339" lon="2.69205">
        <ele>748</ele>
        <time>2010-01-01T16:56:05Z</time>
      </trkpt>
      <trkpt lat="42.28327" lon="2.69202">
        <ele>748</ele>
        <time>2010-01-01T16:56:18Z</time>
      </trkpt>
      <trkpt lat="42.28316" lon="2.69202">
        <ele>748</ele>
        <time>2010-01-01T16:56:28Z</time>
      </trkpt>
      <trkpt lat="42.28308" lon="2.69198">
        <ele>749</ele>
        <time>2010-01-01T16:56:36Z</time>
      </trkpt>
      <trkpt lat="42.28305" lon="2.69181">
        <ele>752</ele>
        <time>2010-01-01T16:56:50Z</time>
      </trkpt>
      <trkpt lat="42.28302" lon="2.69161">
        <ele>756</ele>
        <time>2010-01-01T16:57:05Z</time>
      </trkpt>
      <trkpt lat="42.283" lon="2.69129">
        <ele>763</ele>
        <time>2010-01-01T16:57:28Z</time>
      </trkpt>
      <trkpt lat="42.28308" lon="2.69084">
        <ele>772</ele>
        <time>2010-01-01T16:58:03Z</time>
      </trkpt>
      <trkpt lat="42.28325" lon="2.69063">
        <ele>772</ele>
        <time>2010-01-01T16:58:26Z</time>
      </trkpt>
      <trkpt lat="42.28346" lon="2.69034">
        <ele>771</ele>
        <time>2010-01-01T16:58:56Z</time>
      </trkpt>
      <trkpt lat="42.28347" lon="2.69033">
        <ele>771</ele>
        <time>2010-01-01T16:58:57Z</time>
      </trkpt>
      <trkpt lat="42.28348" lon="2.69033">
        <ele>771</ele>
        <time>2010-01-01T16:58:58Z</time>
      </trkpt>
      <trkpt lat="42.28348" lon="2.69033">
        <ele>771</ele>
        <time>2010-01-01T16:58:58Z</time>
      </trkpt>
      <trkpt lat="42.28348" lon="2.69027">
        <ele>771</ele>
        <time>2010-01-01T16:59:02Z</time>
      </trkpt>
      <trkpt lat="42.28349" lon="2.6901">
        <ele>773</ele>
        <time>2010-01-01T16:59:15Z</time>
      </trkpt>
      <trkpt lat="42.28343" lon="2.68994">
        <ele>775</ele>
        <time>2010-01-01T16:59:29Z</time>
      </trkpt>
      <trkpt lat="42.28316" lon="2.6898">
        <ele>779</ele>
        <time>2010-01-01T16:59:57Z</time>
      </trkpt>
      <trkpt lat="42.283" lon="2.68974">
        <ele>781</ele>
        <time>2010-01-01T17:00:14Z</time>
      </trkpt>
      <trkpt lat="42.28271" lon="2.68981">
        <ele>781</ele>
        <time>2010-01-01T17:00:43Z</time>
      </trkpt>
      <trkpt lat="42.28262" lon="2.68996">
        <ele>783</ele>
        <time>2010-01-01T17:00:57Z</time>
      </trkpt>
      <trkpt lat="42.28258" lon="2.69002">
        <ele>783</ele>
        <time>2010-01-01T17:01:03Z</time>
      </trkpt>
      <trkpt lat="42.28245" lon="2.69014">
        <ele>785</ele>
        <time>2010-01-01T17:01:19Z</time>
      </trkpt>
      <trkpt lat="42.28234" lon="2.69">
        <ele>786</ele>
        <time>2010-01-01T17:01:35Z</time>
      </trkpt>
      <trkpt lat="42.28231" lon="2.68998">
        <ele>786</ele>
        <time>2010-01-01T17:01:38Z</time>
      </trkpt>
      <trkpt lat="42.28224" lon="2.68983">
        <ele>785</ele>
        <time>2010-01-01T17:01:51Z</time>
      </trkpt>
      <trkpt lat="42.28208" lon="2.68967">
        <ele>787</ele>
        <time>2010-01-01T17:02:11Z</time>
      </trkpt>
      <trkpt lat="42.28197" lon="2.68957">
        <ele>788</ele>
        <time>2010-01-01T17:02:24Z</time>
      </trkpt>
      <trkpt lat="42.28188" lon="2.68951">
        <ele>789</ele>
        <time>2010-01-01T17:02:34Z</time>
      </trkpt>
      <trkpt lat="42.28167" lon="2.68943">
        <ele>790</ele>
        <time>2010-01-01T17:02:57Z</time>
      </trkpt>
      <trkpt lat="42.28154" lon="2.68941">
        <ele>795</ele>
        <time>2010-01-01T17:03:10Z</time>
      </trkpt>
      <trkpt lat="42.28139" lon="2.68929">
        <ele>797</ele>
        <time>2010-01-01T17:03:27Z</time>
      </trkpt>
      <trkpt lat="42.28133" lon="2.68919">
        <ele>797</ele>
        <time>2010-01-01T17:03:37Z</time>
      </trkpt>
      <trkpt lat="42.2812" lon="2.68907">
        <ele>799</ele>
        <time>2010-01-01T17:03:52Z</time>
      </trkpt>
      <trkpt lat="42.28115" lon="2.68902">
        <ele>799</ele>
        <time>2010-01-01T17:03:59Z</time>
      </trkpt>
      <trkpt lat="42.28111" lon="2.68897">
        <ele>799</ele>
        <time>2010-01-01T17:04:04Z</time>
      </trkpt>
      <trkpt lat="42.28106" lon="2.68892">
        <ele>798</ele>
        <time>2010-01-01T17:04:10Z</time>
      </trkpt>
      <trkpt lat="42.28101" lon="2.68883">
        <ele>797</ele>
        <time>2010-01-01T17:04:18Z</time>
      </trkpt>
      <trkpt lat="42.28085" lon="2.68874">
        <ele>797</ele>
        <time>2010-01-01T17:04:36Z</time>
      </trkpt>
      <trkpt lat="42.28066" lon="2.68873">
        <ele>801</ele>
        <time>2010-01-01T17:04:56Z</time>
      </trkpt>
      <trkpt lat="42.28048" lon="2.68866">
        <ele>803</ele>
        <time>2010-01-01T17:05:13Z</time>
      </trkpt>
      <trkpt lat="42.28028" lon="2.68855">
        <ele>805</ele>
        <time>2010-01-01T17:05:35Z</time>
      </trkpt>
      <trkpt lat="42.28016" lon="2.68855">
        <ele>810</ele>
        <time>2010-01-01T17:05:47Z</time>
      </trkpt>
      <trkpt lat="42.28011" lon="2.68857">
        <ele>812</ele>
        <time>2010-01-01T17:05:52Z</time>
      </trkpt>
      <trkpt lat="42.28007" lon="2.68858">
        <ele>814</ele>
        <time>2010-01-01T17:05:56Z</time>
      </trkpt>
      <trkpt lat="42.28025" lon="2.68768">
        <ele>813</ele>
        <time>2010-01-01T17:07:05Z</time>
      </trkpt>
      <trkpt lat="42.2804" lon="2.6874">
        <ele>813</ele>
        <time>2010-01-01T17:07:31Z</time>
      </trkpt>
      <trkpt lat="42.28045" lon="2.68719">
        <ele>815</ele>
        <time>2010-01-01T17:07:47Z</time>
      </trkpt>
      <trkpt lat="42.28049" lon="2.68702">
        <ele>816</ele>
        <time>2010-01-01T17:08:00Z</time>
      </trkpt>
      <trkpt lat="42.28046" lon="2.6869">
        <ele>819</ele>
        <time>2010-01-01T17:08:10Z</time>
      </trkpt>
      <trkpt lat="42.2804" lon="2.68676">
        <ele>824</ele>
        <time>2010-01-01T17:08:21Z</time>
      </trkpt>
      <trkpt lat="42.28032" lon="2.68655">
        <ele>828</ele>
        <time>2010-01-01T17:08:39Z</time>
      </trkpt>
      <trkpt lat="42.28026" lon="2.68631">
        <ele>831</ele>
        <time>2010-01-01T17:08:58Z</time>
      </trkpt>
      <trkpt lat="42.28024" lon="2.6862">
        <ele>833</ele>
        <time>2010-01-01T17:09:06Z</time>
      </trkpt>
      <trkpt lat="42.2802" lon="2.68603">
        <ele>833</ele>
        <time>2010-01-01T17:09:19Z</time>
      </trkpt>
      <trkpt lat="42.2802" lon="2.68604">
        <ele>833</ele>
        <time>2010-01-01T17:09:19Z</time>
      </trkpt>
      <trkpt lat="42.2802" lon="2.68604">
        <ele>833</ele>
        <time>2010-01-01T17:09:20Z</time>
      </trkpt>
      <trkpt lat="42.28014" lon="2.68603">
        <ele>834</ele>
        <time>2010-01-01T17:09:27Z</time>
      </trkpt>
      <trkpt lat="42.27994" lon="2.68618">
        <ele>837</ele>
        <time>2010-01-01T17:09:49Z</time>
      </trkpt>
      <trkpt lat="42.27976" lon="2.68624">
        <ele>839</ele>
        <time>2010-01-01T17:10:07Z</time>
      </trkpt>
      <trkpt lat="42.27967" lon="2.68629">
        <ele>839</ele>
        <time>2010-01-01T17:10:18Z</time>
      </trkpt>
      <trkpt lat="42.27962" lon="2.68637">
        <ele>840</ele>
        <time>2010-01-01T17:10:25Z</time>
      </trkpt>
      <trkpt lat="42.27962" lon="2.68639">
        <ele>840</ele>
        <time>2010-01-01T17:10:27Z</time>
      </trkpt>
      <trkpt lat="42.2795" lon="2.68652">
        <ele>843</ele>
        <time>2010-01-01T17:10:41Z</time>
      </trkpt>
      <trkpt lat="42.27938" lon="2.68673">
        <ele>848</ele>
        <time>2010-01-01T17:11:01Z</time>
      </trkpt>
      <trkpt lat="42.27933" lon="2.68682">
        <ele>849</ele>
        <time>2010-01-01T17:11:09Z</time>
      </trkpt>
      <trkpt lat="42.27924" lon="2.68692">
        <ele>852</ele>
        <time>2010-01-01T17:11:21Z</time>
      </trkpt>
      <trkpt lat="42.27903" lon="2.68711">
        <ele>857</ele>
        <time>2010-01-01T17:11:47Z</time>
      </trkpt>
      <trkpt lat="42.27896" lon="2.68725">
        <ele>859</ele>
        <time>2010-01-01T17:11:59Z</time>
      </trkpt>
      <trkpt lat="42.27893" lon="2.68734">
        <ele>861</ele>
        <time>2010-01-01T17:12:06Z</time>
      </trkpt>
      <trkpt lat="42.27889" lon="2.68746">
        <ele>865</ele>
        <time>2010-01-01T17:12:16Z</time>
      </trkpt>
      <trkpt lat="42.27887" lon="2.68764">
        <ele>867</ele>
        <time>2010-01-01T17:12:30Z</time>
      </trkpt>
      <trkpt lat="42.27888" lon="2.68772">
        <ele>868</ele>
        <time>2010-01-01T17:12:36Z</time>
      </trkpt>
      <trkpt lat="42.27889" lon="2.68775">
        <ele>868</ele>
        <time>2010-01-01T17:12:38Z</time>
      </trkpt>
      <trkpt lat="42.27893" lon="2.68791">
        <ele>867</ele>
        <time>2010-01-01T17:12:50Z</time>
      </trkpt>
      <trkpt lat="42.27888" lon="2.68813">
        <ele>868</ele>
        <time>2010-01-01T17:13:07Z</time>
      </trkpt>
      <trkpt lat="42.27887" lon="2.68816">
        <ele>868</ele>
        <time>2010-01-01T17:13:10Z</time>
      </trkpt>
      <trkpt lat="42.27883" lon="2.68829">
        <ele>867</ele>
        <time>2010-01-01T17:13:21Z</time>
      </trkpt>
      <trkpt lat="42.27878" lon="2.68847">
        <ele>868</ele>
        <time>2010-01-01T17:13:35Z</time>
      </trkpt>
      <trkpt lat="42.27874" lon="2.68861">
        <ele>869</ele>
        <time>2010-01-01T17:13:46Z</time>
      </trkpt>
      <trkpt lat="42.27863" lon="2.68876">
        <ele>873</ele>
        <time>2010-01-01T17:14:01Z</time>
      </trkpt>
      <trkpt lat="42.27855" lon="2.68891">
        <ele>875</ele>
        <time>2010-01-01T17:14:16Z</time>
      </trkpt>
      <trkpt lat="42.27853" lon="2.68896">
        <ele>876</ele>
        <time>2010-01-01T17:14:20Z</time>
      </trkpt>
      <trkpt lat="42.27853" lon="2.68923">
        <ele>880</ele>
        <time>2010-01-01T17:14:40Z</time>
      </trkpt>
      <trkpt lat="42.27856" lon="2.68941">
        <ele>882</ele>
        <time>2010-01-01T17:14:53Z</time>
      </trkpt>
      <trkpt lat="42.27856" lon="2.68942">
        <ele>883</ele>
        <time>2010-01-01T17:14:54Z</time>
      </trkpt>
      <trkpt lat="42.2786" lon="2.68953">
        <ele>885</ele>
        <time>2010-01-01T17:15:03Z</time>
      </trkpt>
      <trkpt lat="42.27865" lon="2.68978">
        <ele>889</ele>
        <time>2010-01-01T17:15:22Z</time>
      </trkpt>
      <trkpt lat="42.27866" lon="2.68993">
        <ele>892</ele>
        <time>2010-01-01T17:15:33Z</time>
      </trkpt>
      <trkpt lat="42.27869" lon="2.69005">
        <ele>893</ele>
        <time>2010-01-01T17:15:43Z</time>
      </trkpt>
      <trkpt lat="42.27873" lon="2.69013">
        <ele>894</ele>
        <time>2010-01-01T17:15:50Z</time>
      </trkpt>
      <trkpt lat="42.27875" lon="2.69018">
        <ele>894</ele>
        <time>2010-01-01T17:15:53Z</time>
      </trkpt>
      <trkpt lat="42.27875" lon="2.69021">
        <ele>894</ele>
        <time>2010-01-01T17:15:56Z</time>
      </trkpt>
      <trkpt lat="42.27875" lon="2.6903">
        <ele>895</ele>
        <time>2010-01-01T17:16:02Z</time>
      </trkpt>
      <trkpt lat="42.27854" lon="2.69055">
        <ele>900</ele>
        <time>2010-01-01T17:16:30Z</time>
      </trkpt>
      <trkpt lat="42.27836" lon="2.69059">
        <ele>902</ele>
        <time>2010-01-01T17:16:48Z</time>
      </trkpt>
      <trkpt lat="42.27821" lon="2.69071">
        <ele>902</ele>
        <time>2010-01-01T17:17:06Z</time>
      </trkpt>
      <trkpt lat="42.27811" lon="2.6908">
        <ele>905</ele>
        <time>2010-01-01T17:17:17Z</time>
      </trkpt>
      <trkpt lat="42.27795" lon="2.69093">
        <ele>907</ele>
        <time>2010-01-01T17:17:36Z</time>
      </trkpt>
      <trkpt lat="42.27793" lon="2.69095">
        <ele>907</ele>
        <time>2010-01-01T17:17:39Z</time>
      </trkpt>
      <trkpt lat="42.27781" lon="2.69104">
        <ele>908</ele>
        <time>2010-01-01T17:17:53Z</time>
      </trkpt>
      <trkpt lat="42.27768" lon="2.69117">
        <ele>909</ele>
        <time>2010-01-01T17:18:09Z</time>
      </trkpt>
      <trkpt lat="42.27763" lon="2.69122">
        <ele>909</ele>
        <time>2010-01-01T17:18:15Z</time>
      </trkpt>
      <trkpt lat="42.2775" lon="2.69138">
        <ele>911</ele>
        <time>2010-01-01T17:18:33Z</time>
      </trkpt>
      <trkpt lat="42.27748" lon="2.69151">
        <ele>914</ele>
        <time>2010-01-01T17:18:43Z</time>
      </trkpt>
      <trkpt lat="42.2773" lon="2.6917">
        <ele>920</ele>
        <time>2010-01-01T17:19:05Z</time>
      </trkpt>
      <trkpt lat="42.27729" lon="2.69178">
        <ele>922</ele>
        <time>2010-01-01T17:19:12Z</time>
      </trkpt>
      <trkpt lat="42.2773" lon="2.69179">
        <ele>922</ele>
        <time>2010-01-01T17:19:13Z</time>
      </trkpt>
      <trkpt lat="42.2773" lon="2.6918">
        <ele>922</ele>
        <time>2010-01-01T17:19:14Z</time>
      </trkpt>
      <trkpt lat="42.27726" lon="2.69182">
        <ele>923</ele>
        <time>2010-01-01T17:19:19Z</time>
      </trkpt>
      <trkpt lat="42.27715" lon="2.69191">
        <ele>927</ele>
        <time>2010-01-01T17:19:31Z</time>
      </trkpt>
      <trkpt lat="42.277" lon="2.69217">
        <ele>934</ele>
        <time>2010-01-01T17:19:56Z</time>
      </trkpt>
      <trkpt lat="42.277" lon="2.69217">
        <ele>934</ele>
        <time>2010-01-01T17:19:56Z</time>
      </trkpt>
      <trkpt lat="42.27687" lon="2.69227">
        <ele>937</ele>
        <time>2010-01-01T17:20:11Z</time>
      </trkpt>
      <trkpt lat="42.27676" lon="2.69239">
        <ele>940</ele>
        <time>2010-01-01T17:20:25Z</time>
      </trkpt>
      <trkpt lat="42.27669" lon="2.6925">
        <ele>943</ele>
        <time>2010-01-01T17:20:36Z</time>
      </trkpt>
      <trkpt lat="42.27669" lon="2.69251">
        <ele>943</ele>
        <time>2010-01-01T17:20:37Z</time>
      </trkpt>
      <trkpt lat="42.27663" lon="2.69251">
        <ele>945</ele>
        <time>2010-01-01T17:20:43Z</time>
      </trkpt>
      <trkpt lat="42.27649" lon="2.69237">
        <ele>949</ele>
        <time>2010-01-01T17:21:00Z</time>
      </trkpt>
      <trkpt lat="42.2764" lon="2.69233">
        <ele>952</ele>
        <time>2010-01-01T17:21:10Z</time>
      </trkpt>
      <trkpt lat="42.27639" lon="2.69234">
        <ele>952</ele>
        <time>2010-01-01T17:21:11Z</time>
      </trkpt>
      <trkpt lat="42.27634" lon="2.69238">
        <ele>953</ele>
        <time>2010-01-01T17:21:16Z</time>
      </trkpt>
      <trkpt lat="42.27633" lon="2.69238">
        <ele>953</ele>
        <time>2010-01-01T17:21:17Z</time>
      </trkpt>
      <trkpt lat="42.2763" lon="2.69244">
        <ele>954</ele>
        <time>2010-01-01T17:21:23Z</time>
      </trkpt>
      <trkpt lat="42.27622" lon="2.69248">
        <ele>955</ele>
        <time>2010-01-01T17:21:31Z</time>
      </trkpt>
      <trkpt lat="42.27599" lon="2.69266">
        <ele>960</ele>
        <time>2010-01-01T17:21:58Z</time>
      </trkpt>
      <trkpt lat="42.27589" lon="2.69286">
        <ele>964</ele>
        <time>2010-01-01T17:22:16Z</time>
      </trkpt>
      <trkpt lat="42.27583" lon="2.69299">
        <ele>966</ele>
        <time>2010-01-01T17:22:27Z</time>
      </trkpt>
      <trkpt lat="42.2757" lon="2.69315">
        <ele>973</ele>
        <time>2010-01-01T17:22:44Z</time>
      </trkpt>
      <trkpt lat="42.27558" lon="2.69341">
        <ele>978</ele>
        <time>2010-01-01T17:23:07Z</time>
      </trkpt>
      <trkpt lat="42.27554" lon="2.69345">
        <ele>980</ele>
        <time>2010-01-01T17:23:13Z</time>
      </trkpt>
      <trkpt lat="42.27552" lon="2.69349">
        <ele>981</ele>
        <time>2010-01-01T17:23:16Z</time>
      </trkpt>
      <trkpt lat="42.27548" lon="2.69357">
        <ele>983</ele>
        <time>2010-01-01T17:23:23Z</time>
      </trkpt>
      <trkpt lat="42.27543" lon="2.69376">
        <ele>986</ele>
        <time>2010-01-01T17:23:38Z</time>
      </trkpt>
      <trkpt lat="42.27541" lon="2.69383">
        <ele>988</ele>
        <time>2010-01-01T17:23:44Z</time>
      </trkpt>
      <trkpt lat="42.27539" lon="2.69386">
        <ele>989</ele>
        <time>2010-01-01T17:23:47Z</time>
      </trkpt>
      <trkpt lat="42.27538" lon="2.69399">
        <ele>989</ele>
        <time>2010-01-01T17:23:56Z</time>
      </trkpt>
      <trkpt lat="42.27538" lon="2.69405">
        <ele>988</ele>
        <time>2010-01-01T17:24:01Z</time>
      </trkpt>
      <trkpt lat="42.27537" lon="2.69407">
        <ele>989</ele>
        <time>2010-01-01T17:24:02Z</time>
      </trkpt>
      <trkpt lat="42.2753" lon="2.69423">
        <ele>991</ele>
        <time>2010-01-01T17:24:16Z</time>
      </trkpt>
      <trkpt lat="42.2753" lon="2.69424">
        <ele>991</ele>
        <time>2010-01-01T17:24:17Z</time>
      </trkpt>
      <trkpt lat="42.27522" lon="2.69436">
        <ele>993</ele>
        <time>2010-01-01T17:24:29Z</time>
      </trkpt>
      <trkpt lat="42.27516" lon="2.69444">
        <ele>995</ele>
        <time>2010-01-01T17:24:37Z</time>
      </trkpt>
      <trkpt lat="42.27514" lon="2.69447">
        <ele>996</ele>
        <time>2010-01-01T17:24:41Z</time>
      </trkpt>
      <trkpt lat="42.27506" lon="2.69454">
        <ele>999</ele>
        <time>2010-01-01T17:24:50Z</time>
      </trkpt>
      <trkpt lat="42.27495" lon="2.69458">
        <ele>1003</ele>
        <time>2010-01-01T17:25:01Z</time>
      </trkpt>
      <trkpt lat="42.27492" lon="2.6946">
        <ele>1005</ele>
        <time>2010-01-01T17:25:05Z</time>
      </trkpt>
      <trkpt lat="42.27488" lon="2.6946">
        <ele>1007</ele>
        <time>2010-01-01T17:25:09Z</time>
      </trkpt>
      <trkpt lat="42.27484" lon="2.69461">
        <ele>1009</ele>
        <time>2010-01-01T17:25:12Z</time>
      </trkpt>
      <trkpt lat="42.27485" lon="2.69462">
        <ele>1008</ele>
        <time>2010-01-01T17:25:14Z</time>
      </trkpt>
      <trkpt lat="42.27483" lon="2.69472">
        <ele>1008</ele>
        <time>2010-01-01T17:25:21Z</time>
      </trkpt>
      <trkpt lat="42.27485" lon="2.69483">
        <ele>1006</ele>
        <time>2010-01-01T17:25:30Z</time>
      </trkpt>
      <trkpt lat="42.27484" lon="2.69493">
        <ele>1007</ele>
        <time>2010-01-01T17:25:37Z</time>
      </trkpt>
      <trkpt lat="42.2748" lon="2.695">
        <ele>1008</ele>
        <time>2010-01-01T17:25:43Z</time>
      </trkpt>
      <trkpt lat="42.27479" lon="2.69505">
        <ele>1008</ele>
        <time>2010-01-01T17:25:47Z</time>
      </trkpt>
      <trkpt lat="42.27483" lon="2.69504">
        <ele>1007</ele>
        <time>2010-01-01T17:25:52Z</time>
      </trkpt>
      <trkpt lat="42.27479" lon="2.69509">
        <ele>1008</ele>
        <time>2010-01-01T17:25:57Z</time>
      </trkpt>
      <trkpt lat="42.2748" lon="2.69512">
        <ele>1008</ele>
        <time>2010-01-01T17:25:59Z</time>
      </trkpt>
      <trkpt lat="42.27467" lon="2.69507">
        <ele>1012</ele>
        <time>2010-01-01T17:26:12Z</time>
      </trkpt>
      <trkpt lat="42.27453" lon="2.6951">
        <ele>1015</ele>
        <time>2010-01-01T17:26:27Z</time>
      </trkpt>
      <trkpt lat="42.27462" lon="2.69485">
        <ele>1016</ele>
        <time>2010-01-01T17:26:48Z</time>
      </trkpt>
      <trkpt lat="42.27446" lon="2.69493">
        <ele>1020</ele>
        <time>2010-01-01T17:27:05Z</time>
      </trkpt>
      <trkpt lat="42.27432" lon="2.69511">
        <ele>1019</ele>
        <time>2010-01-01T17:27:24Z</time>
      </trkpt>
      <trkpt lat="42.27431" lon="2.69524">
        <ele>1018</ele>
        <time>2010-01-01T17:27:34Z</time>
      </trkpt>
      <trkpt lat="42.2742" lon="2.69531">
        <ele>1020</ele>
        <time>2010-01-01T17:27:46Z</time>
      </trkpt>
      <trkpt lat="42.27414" lon="2.69531">
        <ele>1020</ele>
        <time>2010-01-01T17:27:52Z</time>
      </trkpt>
      <trkpt lat="42.27405" lon="2.69524">
        <ele>1020</ele>
        <time>2010-01-01T17:28:02Z</time>
      </trkpt>
      <trkpt lat="42.27408" lon="2.69502">
        <ele>1022</ele>
        <time>2010-01-01T17:28:18Z</time>
      </trkpt>
      <trkpt lat="42.2741" lon="2.69499">
        <ele>1022</ele>
        <time>2010-01-01T17:28:21Z</time>
      </trkpt>
      <trkpt lat="42.27409" lon="2.69483">
        <ele>1027</ele>
        <time>2010-01-01T17:28:33Z</time>
      </trkpt>
      <trkpt lat="42.27413" lon="2.69466">
        <ele>1032</ele>
        <time>2010-01-01T17:28:47Z</time>
      </trkpt>
      <trkpt lat="42.27426" lon="2.69435">
        <ele>1037</ele>
        <time>2010-01-01T17:29:13Z</time>
      </trkpt>
      <trkpt lat="42.27427" lon="2.69429">
        <ele>1037</ele>
        <time>2010-01-01T17:29:17Z</time>
      </trkpt>
      <trkpt lat="42.27428" lon="2.69417">
        <ele>1038</ele>
        <time>2010-01-01T17:29:26Z</time>
      </trkpt>
      <trkpt lat="42.27429" lon="2.69396">
        <ele>1039</ele>
        <time>2010-01-01T17:29:42Z</time>
      </trkpt>
      <trkpt lat="42.27417" lon="2.69392">
        <ele>1043</ele>
        <time>2010-01-01T17:29:54Z</time>
      </trkpt>
      <trkpt lat="42.27412" lon="2.69391">
        <ele>1045</ele>
        <time>2010-01-01T17:30:00Z</time>
      </trkpt>
      <trkpt lat="42.27405" lon="2.694">
        <ele>1046</ele>
        <time>2010-01-01T17:30:09Z</time>
      </trkpt>
      <trkpt lat="42.27401" lon="2.69403">
        <ele>1047</ele>
        <time>2010-01-01T17:30:14Z</time>
      </trkpt>
      <trkpt lat="42.27396" lon="2.69406">
        <ele>1048</ele>
        <time>2010-01-01T17:30:20Z</time>
      </trkpt>
      <trkpt lat="42.27382" lon="2.69401">
        <ele>1049</ele>
        <time>2010-01-01T17:30:34Z</time>
      </trkpt>
      <trkpt lat="42.27383" lon="2.69399">
        <ele>1050</ele>
        <time>2010-01-01T17:30:35Z</time>
      </trkpt>
      <trkpt lat="42.27383" lon="2.6938">
        <ele>1053</ele>
        <time>2010-01-01T17:30:49Z</time>
      </trkpt>
      <trkpt lat="42.2738" lon="2.69365">
        <ele>1056</ele>
        <time>2010-01-01T17:31:00Z</time>
      </trkpt>
      <trkpt lat="42.27379" lon="2.69359">
        <ele>1057</ele>
        <time>2010-01-01T17:31:05Z</time>
      </trkpt>
      <trkpt lat="42.27372" lon="2.69356">
        <ele>1059</ele>
        <time>2010-01-01T17:31:12Z</time>
      </trkpt>
      <trkpt lat="42.27364" lon="2.69343">
        <ele>1065</ele>
        <time>2010-01-01T17:31:26Z</time>
      </trkpt>
      <trkpt lat="42.2736" lon="2.6934">
        <ele>1066</ele>
        <time>2010-01-01T17:31:30Z</time>
      </trkpt>
      <trkpt lat="42.27354" lon="2.69334">
        <ele>1067</ele>
        <time>2010-01-01T17:31:38Z</time>
      </trkpt>
      <trkpt lat="42.27349" lon="2.69323">
        <ele>1066</ele>
        <time>2010-01-01T17:31:47Z</time>
      </trkpt>
      <trkpt lat="42.2735" lon="2.69301">
        <ele>1065</ele>
        <time>2010-01-01T17:32:04Z</time>
      </trkpt>
      <trkpt lat="42.27353" lon="2.69285">
        <ele>1063</ele>
        <time>2010-01-01T17:32:16Z</time>
      </trkpt>
      <trkpt lat="42.27355" lon="2.69275">
        <ele>1062</ele>
        <time>2010-01-01T17:32:23Z</time>
      </trkpt>
      <trkpt lat="42.27354" lon="2.69274">
        <ele>1061</ele>
        <time>2010-01-01T17:32:24Z</time>
      </trkpt>
      <trkpt lat="42.27353" lon="2.69273">
        <ele>1061</ele>
        <time>2010-01-01T17:32:26Z</time>
      </trkpt>
      <trkpt lat="42.27353" lon="2.69273">
        <ele>1061</ele>
        <time>2010-01-01T17:32:26Z</time>
      </trkpt>
      <trkpt lat="42.27352" lon="2.69273">
        <ele>1060</ele>
        <time>2010-01-01T17:32:26Z</time>
      </trkpt>
      <trkpt lat="42.27352" lon="2.69273">
        <ele>1060</ele>
        <time>2010-01-01T17:32:26Z</time>
      </trkpt>
      <trkpt lat="42.27361" lon="2.69274">
        <ele>1064</ele>
        <time>2010-01-01T17:32:35Z</time>
      </trkpt>
      <trkpt lat="42.2736" lon="2.69274">
        <ele>1063</ele>
        <time>2010-01-01T17:32:36Z</time>
      </trkpt>
      <trkpt lat="42.2736" lon="2.69274">
        <ele>1063</ele>
        <time>2010-01-01T17:32:36Z</time>
      </trkpt>
      <trkpt lat="42.2736" lon="2.69274">
        <ele>1063</ele>
        <time>2010-01-01T17:32:36Z</time>
      </trkpt>
      <trkpt lat="42.2736" lon="2.69273">
        <ele>1063</ele>
        <time>2010-01-01T17:32:36Z</time>
      </trkpt>
      <trkpt lat="42.2736" lon="2.69273">
        <ele>1063</ele>
        <time>2010-01-01T17:32:37Z</time>
      </trkpt>
      <trkpt lat="42.27353" lon="2.6927">
        <ele>1060</ele>
        <time>2010-01-01T17:32:44Z</time>
      </trkpt>
      <trkpt lat="42.27353" lon="2.6927">
        <ele>1060</ele>
        <time>2010-01-01T17:32:44Z</time>
      </trkpt>
      <trkpt lat="42.27356" lon="2.69272">
        <ele>1062</ele>
        <time>2010-01-01T17:32:48Z</time>
      </trkpt>
      <trkpt lat="42.27358" lon="2.69272">
        <ele>1062</ele>
        <time>2010-01-01T17:32:49Z</time>
      </trkpt>
      <trkpt lat="42.27357" lon="2.69272">
        <ele>1062</ele>
        <time>2010-01-01T17:32:50Z</time>
      </trkpt>
      <trkpt lat="42.27358" lon="2.69273">
        <ele>1062</ele>
        <time>2010-01-01T17:32:50Z</time>
      </trkpt>
      <trkpt lat="42.27358" lon="2.69273">
        <ele>1063</ele>
        <time>2010-01-01T17:32:50Z</time>
      </trkpt>
      <trkpt lat="42.27359" lon="2.69274">
        <ele>1063</ele>
        <time>2010-01-01T17:32:51Z</time>
      </trkpt>
      <trkpt lat="42.27362" lon="2.69277">
        <ele>1064</ele>
        <time>2010-01-01T17:32:55Z</time>
      </trkpt>
      <trkpt lat="42.27361" lon="2.69278">
        <ele>1064</ele>
        <time>2010-01-01T17:32:56Z</time>
      </trkpt>
      <trkpt lat="42.27359" lon="2.69278">
        <ele>1064</ele>
        <time>2010-01-01T17:32:58Z</time>
      </trkpt>
      <trkpt lat="42.27355" lon="2.69279">
        <ele>1063</ele>
        <time>2010-01-01T17:33:02Z</time>
      </trkpt>
      <trkpt lat="42.27351" lon="2.69277">
        <ele>1061</ele>
        <time>2010-01-01T17:33:06Z</time>
      </trkpt>
      <trkpt lat="42.27352" lon="2.69277">
        <ele>1061</ele>
        <time>2010-01-01T17:33:07Z</time>
      </trkpt>
      <trkpt lat="42.27354" lon="2.69277">
        <ele>1062</ele>
        <time>2010-01-01T17:33:09Z</time>
      </trkpt>
      <trkpt lat="42.27355" lon="2.69279">
        <ele>1062</ele>
        <time>2010-01-01T17:33:11Z</time>
      </trkpt>
      <trkpt lat="42.27353" lon="2.69276">
        <ele>1061</ele>
        <time>2010-01-01T17:33:13Z</time>
      </trkpt>
      <trkpt lat="42.27352" lon="2.6928">
        <ele>1062</ele>
        <time>2010-01-01T17:33:17Z</time>
      </trkpt>
      <trkpt lat="42.27347" lon="2.69285">
        <ele>1061</ele>
        <time>2010-01-01T17:33:23Z</time>
      </trkpt>
      <trkpt lat="42.27349" lon="2.69282">
        <ele>1061</ele>
        <time>2010-01-01T17:33:26Z</time>
      </trkpt>
      <trkpt lat="42.27345" lon="2.69283">
        <ele>1060</ele>
        <time>2010-01-01T17:33:31Z</time>
      </trkpt>
      <trkpt lat="42.27341" lon="2.69288">
        <ele>1060</ele>
        <time>2010-01-01T17:33:36Z</time>
      </trkpt>
      <trkpt lat="42.27342" lon="2.69288">
        <ele>1060</ele>
        <time>2010-01-01T17:33:37Z</time>
      </trkpt>
      <trkpt lat="42.27354" lon="2.69278">
        <ele>1062</ele>
        <time>2010-01-01T17:33:51Z</time>
      </trkpt>
      <trkpt lat="42.27357" lon="2.69279">
        <ele>1063</ele>
        <time>2010-01-01T17:33:54Z</time>
      </trkpt>
      <trkpt lat="42.27364" lon="2.69296">
        <ele>1066</ele>
        <time>2010-01-01T17:34:09Z</time>
      </trkpt>
      <trkpt lat="42.27364" lon="2.69297">
        <ele>1066</ele>
        <time>2010-01-01T17:34:09Z</time>
      </trkpt>
      <trkpt lat="42.27367" lon="2.69304">
        <ele>1066</ele>
        <time>2010-01-01T17:34:15Z</time>
      </trkpt>
      <trkpt lat="42.2737" lon="2.69313">
        <ele>1066</ele>
        <time>2010-01-01T17:34:22Z</time>
      </trkpt>
      <trkpt lat="42.27373" lon="2.69323">
        <ele>1065</ele>
        <time>2010-01-01T17:34:30Z</time>
      </trkpt>
      <trkpt lat="42.27384" lon="2.6934">
        <ele>1060</ele>
        <time>2010-01-01T17:34:47Z</time>
      </trkpt>
      <trkpt lat="42.27384" lon="2.69339">
        <ele>1060</ele>
        <time>2010-01-01T17:34:47Z</time>
      </trkpt>
      <trkpt lat="42.27393" lon="2.6935">
        <ele>1056</ele>
        <time>2010-01-01T17:34:59Z</time>
      </trkpt>
      <trkpt lat="42.27393" lon="2.6935">
        <ele>1056</ele>
        <time>2010-01-01T17:34:59Z</time>
      </trkpt>
      <trkpt lat="42.27391" lon="2.69369">
        <ele>1054</ele>
        <time>2010-01-01T17:35:13Z</time>
      </trkpt>
      <trkpt lat="42.27397" lon="2.69393">
        <ele>1049</ele>
        <time>2010-01-01T17:35:32Z</time>
      </trkpt>
      <trkpt lat="42.27405" lon="2.69389">
        <ele>1047</ele>
        <time>2010-01-01T17:35:40Z</time>
      </trkpt>
      <trkpt lat="42.27413" lon="2.6938">
        <ele>1046</ele>
        <time>2010-01-01T17:35:51Z</time>
      </trkpt>
      <trkpt lat="42.27418" lon="2.69375">
        <ele>1045</ele>
        <time>2010-01-01T17:35:57Z</time>
      </trkpt>
      <trkpt lat="42.27422" lon="2.69371">
        <ele>1045</ele>
        <time>2010-01-01T17:36:02Z</time>
      </trkpt>
      <trkpt lat="42.27424" lon="2.69373">
        <ele>1044</ele>
        <time>2010-01-01T17:36:04Z</time>
      </trkpt>
      <trkpt lat="42.27427" lon="2.694">
        <ele>1040</ele>
        <time>2010-01-01T17:36:24Z</time>
      </trkpt>
      <trkpt lat="42.27431" lon="2.69418">
        <ele>1037</ele>
        <time>2010-01-01T17:36:38Z</time>
      </trkpt>
      <trkpt lat="42.27427" lon="2.69433">
        <ele>1037</ele>
        <time>2010-01-01T17:36:50Z</time>
      </trkpt>
      <trkpt lat="42.27421" lon="2.69443">
        <ele>1037</ele>
        <time>2010-01-01T17:36:59Z</time>
      </trkpt>
      <trkpt lat="42.27411" lon="2.69467">
        <ele>1032</ele>
        <time>2010-01-01T17:37:19Z</time>
      </trkpt>
      <trkpt lat="42.27411" lon="2.69467">
        <ele>1032</ele>
        <time>2010-01-01T17:37:20Z</time>
      </trkpt>
      <trkpt lat="42.27409" lon="2.69484">
        <ele>1027</ele>
        <time>2010-01-01T17:37:32Z</time>
      </trkpt>
      <trkpt lat="42.27406" lon="2.69496">
        <ele>1023</ele>
        <time>2010-01-01T17:37:41Z</time>
      </trkpt>
      <trkpt lat="42.27401" lon="2.6951">
        <ele>1021</ele>
        <time>2010-01-01T17:37:53Z</time>
      </trkpt>
      <trkpt lat="42.27393" lon="2.69552">
        <ele>1017</ele>
        <time>2010-01-01T17:38:25Z</time>
      </trkpt>
      <trkpt lat="42.2739" lon="2.69569">
        <ele>1015</ele>
        <time>2010-01-01T17:38:38Z</time>
      </trkpt>
      <trkpt lat="42.27386" lon="2.69592">
        <ele>1015</ele>
        <time>2010-01-01T17:38:55Z</time>
      </trkpt>
      <trkpt lat="42.27385" lon="2.69607">
        <ele>1017</ele>
        <time>2010-01-01T17:39:07Z</time>
      </trkpt>
      <trkpt lat="42.2738" lon="2.6963">
        <ele>1019</ele>
        <time>2010-01-01T17:39:24Z</time>
      </trkpt>
      <trkpt lat="42.2737" lon="2.69641">
        <ele>1016</ele>
        <time>2010-01-01T17:39:38Z</time>
      </trkpt>
      <trkpt lat="42.2737" lon="2.69639">
        <ele>1016</ele>
        <time>2010-01-01T17:39:39Z</time>
      </trkpt>
      <trkpt lat="42.27368" lon="2.69646">
        <ele>1016</ele>
        <time>2010-01-01T17:39:44Z</time>
      </trkpt>
      <trkpt lat="42.27364" lon="2.6966">
        <ele>1019</ele>
        <time>2010-01-01T17:39:56Z</time>
      </trkpt>
      <trkpt lat="42.27354" lon="2.69673">
        <ele>1017</ele>
        <time>2010-01-01T17:40:09Z</time>
      </trkpt>
      <trkpt lat="42.2736" lon="2.6968">
        <ele>1023</ele>
        <time>2010-01-01T17:40:17Z</time>
      </trkpt>
      <trkpt lat="42.2736" lon="2.69687">
        <ele>1024</ele>
        <time>2010-01-01T17:40:23Z</time>
      </trkpt>
      <trkpt lat="42.27352" lon="2.69704">
        <ele>1024</ele>
        <time>2010-01-01T17:40:37Z</time>
      </trkpt>
      <trkpt lat="42.27346" lon="2.69721">
        <ele>1024</ele>
        <time>2010-01-01T17:40:52Z</time>
      </trkpt>
      <trkpt lat="42.27344" lon="2.69726">
        <ele>1024</ele>
        <time>2010-01-01T17:40:55Z</time>
      </trkpt>
      <trkpt lat="42.27342" lon="2.69737">
        <ele>1024</ele>
        <time>2010-01-01T17:41:04Z</time>
      </trkpt>
      <trkpt lat="42.27338" lon="2.69745">
        <ele>1024</ele>
        <time>2010-01-01T17:41:11Z</time>
      </trkpt>
      <trkpt lat="42.27332" lon="2.69758">
        <ele>1023</ele>
        <time>2010-01-01T17:41:22Z</time>
      </trkpt>
      <trkpt lat="42.27335" lon="2.6977">
        <ele>1025</ele>
        <time>2010-01-01T17:41:32Z</time>
      </trkpt>
      <trkpt lat="42.27311" lon="2.69819">
        <ele>1024</ele>
        <time>2010-01-01T17:42:15Z</time>
      </trkpt>
      <trkpt lat="42.27303" lon="2.69833">
        <ele>1024</ele>
        <time>2010-01-01T17:42:28Z</time>
      </trkpt>
      <trkpt lat="42.27299" lon="2.69845">
        <ele>1023</ele>
        <time>2010-01-01T17:42:37Z</time>
      </trkpt>
      <trkpt lat="42.27296" lon="2.69851">
        <ele>1023</ele>
        <time>2010-01-01T17:42:43Z</time>
      </trkpt>
      <trkpt lat="42.27285" lon="2.69872">
        <ele>1022</ele>
        <time>2010-01-01T17:43:02Z</time>
      </trkpt>
      <trkpt lat="42.27274" lon="2.69879">
        <ele>1022</ele>
        <time>2010-01-01T17:43:14Z</time>
      </trkpt>
      <trkpt lat="42.27273" lon="2.69884">
        <ele>1023</ele>
        <time>2010-01-01T17:43:18Z</time>
      </trkpt>
      <trkpt lat="42.27269" lon="2.69903">
        <ele>1024</ele>
        <time>2010-01-01T17:43:33Z</time>
      </trkpt>
      <trkpt lat="42.27254" lon="2.69913">
        <ele>1026</ele>
        <time>2010-01-01T17:43:49Z</time>
      </trkpt>
      <trkpt lat="42.2725" lon="2.69918">
        <ele>1026</ele>
        <time>2010-01-01T17:43:55Z</time>
      </trkpt>
      <trkpt lat="42.27242" lon="2.69927">
        <ele>1025</ele>
        <time>2010-01-01T17:44:05Z</time>
      </trkpt>
      <trkpt lat="42.27234" lon="2.69938">
        <ele>1023</ele>
        <time>2010-01-01T17:44:16Z</time>
      </trkpt>
      <trkpt lat="42.27222" lon="2.69954">
        <ele>1023</ele>
        <time>2010-01-01T17:44:33Z</time>
      </trkpt>
      <trkpt lat="42.27221" lon="2.69961">
        <ele>1024</ele>
        <time>2010-01-01T17:44:39Z</time>
      </trkpt>
      <trkpt lat="42.27213" lon="2.69985">
        <ele>1024</ele>
        <time>2010-01-01T17:44:58Z</time>
      </trkpt>
      <trkpt lat="42.27209" lon="2.70004">
        <ele>1026</ele>
        <time>2010-01-01T17:45:13Z</time>
      </trkpt>
      <trkpt lat="42.27208" lon="2.70012">
        <ele>1027</ele>
        <time>2010-01-01T17:45:19Z</time>
      </trkpt>
      <trkpt lat="42.27204" lon="2.70043">
        <ele>1033</ele>
        <time>2010-01-01T17:45:42Z</time>
      </trkpt>
      <trkpt lat="42.27202" lon="2.70075">
        <ele>1038</ele>
        <time>2010-01-01T17:46:06Z</time>
      </trkpt>
      <trkpt lat="42.27193" lon="2.70094">
        <ele>1040</ele>
        <time>2010-01-01T17:46:23Z</time>
      </trkpt>
      <trkpt lat="42.27184" lon="2.70103">
        <ele>1042</ele>
        <time>2010-01-01T17:46:34Z</time>
      </trkpt>
      <trkpt lat="42.27181" lon="2.70115">
        <ele>1042</ele>
        <time>2010-01-01T17:46:43Z</time>
      </trkpt>
      <trkpt lat="42.27174" lon="2.7014">
        <ele>1041</ele>
        <time>2010-01-01T17:47:03Z</time>
      </trkpt>
      <trkpt lat="42.27161" lon="2.70175">
        <ele>1037</ele>
        <time>2010-01-01T17:47:32Z</time>
      </trkpt>
      <trkpt lat="42.27155" lon="2.70186">
        <ele>1036</ele>
        <time>2010-01-01T17:47:42Z</time>
      </trkpt>
      <trkpt lat="42.27151" lon="2.70203">
        <ele>1033</ele>
        <time>2010-01-01T17:47:55Z</time>
      </trkpt>
      <trkpt lat="42.27151" lon="2.70205">
        <ele>1033</ele>
        <time>2010-01-01T17:47:57Z</time>
      </trkpt>
      <trkpt lat="42.27143" lon="2.70213">
        <ele>1033</ele>
        <time>2010-01-01T17:48:07Z</time>
      </trkpt>
      <trkpt lat="42.27141" lon="2.70216">
        <ele>1033</ele>
        <time>2010-01-01T17:48:10Z</time>
      </trkpt>
      <trkpt lat="42.27139" lon="2.70216">
        <ele>1033</ele>
        <time>2010-01-01T17:48:12Z</time>
      </trkpt>
      <trkpt lat="42.27135" lon="2.70223">
        <ele>1032</ele>
        <time>2010-01-01T17:48:19Z</time>
      </trkpt>
      <trkpt lat="42.27125" lon="2.70231">
        <ele>1030</ele>
        <time>2010-01-01T17:48:30Z</time>
      </trkpt>
      <trkpt lat="42.27118" lon="2.70236">
        <ele>1031</ele>
        <time>2010-01-01T17:48:39Z</time>
      </trkpt>
      <trkpt lat="42.27113" lon="2.70239">
        <ele>1031</ele>
        <time>2010-01-01T17:48:44Z</time>
      </trkpt>
      <trkpt lat="42.27099" lon="2.70257">
        <ele>1030</ele>
        <time>2010-01-01T17:49:03Z</time>
      </trkpt>
      <trkpt lat="42.27092" lon="2.70264">
        <ele>1029</ele>
        <time>2010-01-01T17:49:12Z</time>
      </trkpt>
      <trkpt lat="42.2708" lon="2.7028">
        <ele>1029</ele>
        <time>2010-01-01T17:49:29Z</time>
      </trkpt>
      <trkpt lat="42.27072" lon="2.70293">
        <ele>1028</ele>
        <time>2010-01-01T17:49:42Z</time>
      </trkpt>
      <trkpt lat="42.27061" lon="2.70323">
        <ele>1026</ele>
        <time>2010-01-01T17:50:06Z</time>
      </trkpt>
      <trkpt lat="42.27056" lon="2.70322">
        <ele>1025</ele>
        <time>2010-01-01T17:50:12Z</time>
      </trkpt>
      <trkpt lat="42.27046" lon="2.70337">
        <ele>1025</ele>
        <time>2010-01-01T17:50:27Z</time>
      </trkpt>
      <trkpt lat="42.27041" lon="2.7034">
        <ele>1024</ele>
        <time>2010-01-01T17:50:32Z</time>
      </trkpt>
      <trkpt lat="42.27042" lon="2.70339">
        <ele>1024</ele>
        <time>2010-01-01T17:50:34Z</time>
      </trkpt>
      <trkpt lat="42.27035" lon="2.70352">
        <ele>1025</ele>
        <time>2010-01-01T17:50:45Z</time>
      </trkpt>
      <trkpt lat="42.27031" lon="2.7036">
        <ele>1026</ele>
        <time>2010-01-01T17:50:53Z</time>
      </trkpt>
      <trkpt lat="42.27032" lon="2.7037">
        <ele>1028</ele>
        <time>2010-01-01T17:51:00Z</time>
      </trkpt>
      <trkpt lat="42.27032" lon="2.70375">
        <ele>1028</ele>
        <time>2010-01-01T17:51:04Z</time>
      </trkpt>
      <trkpt lat="42.27024" lon="2.7039">
        <ele>1030</ele>
        <time>2010-01-01T17:51:19Z</time>
      </trkpt>
      <trkpt lat="42.27017" lon="2.70397">
        <ele>1031</ele>
        <time>2010-01-01T17:51:27Z</time>
      </trkpt>
      <trkpt lat="42.27017" lon="2.70397">
        <ele>1031</ele>
        <time>2010-01-01T17:51:27Z</time>
      </trkpt>
      <trkpt lat="42.27007" lon="2.70411">
        <ele>1033</ele>
        <time>2010-01-01T17:51:41Z</time>
      </trkpt>
      <trkpt lat="42.27001" lon="2.70419">
        <ele>1035</ele>
        <time>2010-01-01T17:51:50Z</time>
      </trkpt>
      <trkpt lat="42.26992" lon="2.70427">
        <ele>1036</ele>
        <time>2010-01-01T17:52:01Z</time>
      </trkpt>
      <trkpt lat="42.26983" lon="2.70428">
        <ele>1037</ele>
        <time>2010-01-01T17:52:10Z</time>
      </trkpt>
      <trkpt lat="42.26965" lon="2.70429">
        <ele>1038</ele>
        <time>2010-01-01T17:52:27Z</time>
      </trkpt>
      <trkpt lat="42.26955" lon="2.7043">
        <ele>1039</ele>
        <time>2010-01-01T17:52:38Z</time>
      </trkpt>
      <trkpt lat="42.26945" lon="2.70434">
        <ele>1040</ele>
        <time>2010-01-01T17:52:49Z</time>
      </trkpt>
      <trkpt lat="42.26932" lon="2.70438">
        <ele>1041</ele>
        <time>2010-01-01T17:53:01Z</time>
      </trkpt>
      <trkpt lat="42.26931" lon="2.70438">
        <ele>1042</ele>
        <time>2010-01-01T17:53:02Z</time>
      </trkpt>
      <trkpt lat="42.26917" lon="2.70434">
        <ele>1040</ele>
        <time>2010-01-01T17:53:17Z</time>
      </trkpt>
      <trkpt lat="42.26903" lon="2.70449">
        <ele>1046</ele>
        <time>2010-01-01T17:53:35Z</time>
      </trkpt>
      <trkpt lat="42.26901" lon="2.70452">
        <ele>1047</ele>
        <time>2010-01-01T17:53:38Z</time>
      </trkpt>
      <trkpt lat="42.26886" lon="2.70466">
        <ele>1047</ele>
        <time>2010-01-01T17:53:57Z</time>
      </trkpt>
      <trkpt lat="42.26869" lon="2.70476">
        <ele>1046</ele>
        <time>2010-01-01T17:54:15Z</time>
      </trkpt>
      <trkpt lat="42.26842" lon="2.70487">
        <ele>1042</ele>
        <time>2010-01-01T17:54:43Z</time>
      </trkpt>
      <trkpt lat="42.26834" lon="2.70491">
        <ele>1041</ele>
        <time>2010-01-01T17:54:51Z</time>
      </trkpt>
      <trkpt lat="42.26824" lon="2.70494">
        <ele>1035</ele>
        <time>2010-01-01T17:55:02Z</time>
      </trkpt>
      <trkpt lat="42.26824" lon="2.70512">
        <ele>1036</ele>
        <time>2010-01-01T17:55:15Z</time>
      </trkpt>
      <trkpt lat="42.26823" lon="2.70526">
        <ele>1035</ele>
        <time>2010-01-01T17:55:26Z</time>
      </trkpt>
      <trkpt lat="42.26823" lon="2.70528">
        <ele>1035</ele>
        <time>2010-01-01T17:55:27Z</time>
      </trkpt>
      <trkpt lat="42.26824" lon="2.70547">
        <ele>1038</ele>
        <time>2010-01-01T17:55:41Z</time>
      </trkpt>
      <trkpt lat="42.26832" lon="2.70565">
        <ele>1042</ele>
        <time>2010-01-01T17:55:56Z</time>
      </trkpt>
      <trkpt lat="42.26833" lon="2.70571">
        <ele>1042</ele>
        <time>2010-01-01T17:56:01Z</time>
      </trkpt>
      <trkpt lat="42.26833" lon="2.70572">
        <ele>1042</ele>
        <time>2010-01-01T17:56:02Z</time>
      </trkpt>
      <trkpt lat="42.26833" lon="2.70582">
        <ele>1041</ele>
        <time>2010-01-01T17:56:10Z</time>
      </trkpt>
      <trkpt lat="42.26834" lon="2.70587">
        <ele>1042</ele>
        <time>2010-01-01T17:56:13Z</time>
      </trkpt>
      <trkpt lat="42.26828" lon="2.70614">
        <ele>1041</ele>
        <time>2010-01-01T17:56:34Z</time>
      </trkpt>
      <trkpt lat="42.26825" lon="2.70617">
        <ele>1040</ele>
        <time>2010-01-01T17:56:38Z</time>
      </trkpt>
      <trkpt lat="42.26811" lon="2.70621">
        <ele>1035</ele>
        <time>2010-01-01T17:56:53Z</time>
      </trkpt>
      <trkpt lat="42.26816" lon="2.70641">
        <ele>1037</ele>
        <time>2010-01-01T17:57:09Z</time>
      </trkpt>
      <trkpt lat="42.26803" lon="2.7068">
        <ele>1032</ele>
        <time>2010-01-01T17:57:40Z</time>
      </trkpt>
      <trkpt lat="42.26797" lon="2.70674">
        <ele>1029</ele>
        <time>2010-01-01T17:57:48Z</time>
      </trkpt>
      <trkpt lat="42.26797" lon="2.70674">
        <ele>1029</ele>
        <time>2010-01-01T17:57:48Z</time>
      </trkpt>
      <trkpt lat="42.26795" lon="2.70675">
        <ele>1028</ele>
        <time>2010-01-01T17:57:51Z</time>
      </trkpt>
      <trkpt lat="42.26784" lon="2.70664">
        <ele>1022</ele>
        <time>2010-01-01T17:58:04Z</time>
      </trkpt>
      <trkpt lat="42.26784" lon="2.70674">
        <ele>1023</ele>
        <time>2010-01-01T17:58:11Z</time>
      </trkpt>
      <trkpt lat="42.2678" lon="2.70686">
        <ele>1021</ele>
        <time>2010-01-01T17:58:21Z</time>
      </trkpt>
      <trkpt lat="42.26772" lon="2.70677">
        <ele>1016</ele>
        <time>2010-01-01T17:58:31Z</time>
      </trkpt>
      <trkpt lat="42.26766" lon="2.70683">
        <ele>1013</ele>
        <time>2010-01-01T17:58:39Z</time>
      </trkpt>
      <trkpt lat="42.26767" lon="2.70689">
        <ele>1014</ele>
        <time>2010-01-01T17:58:43Z</time>
      </trkpt>
      <trkpt lat="42.26766" lon="2.70695">
        <ele>1014</ele>
        <time>2010-01-01T17:58:47Z</time>
      </trkpt>
      <trkpt lat="42.26765" lon="2.70703">
        <ele>1015</ele>
        <time>2010-01-01T17:58:54Z</time>
      </trkpt>
      <trkpt lat="42.26752" lon="2.70709">
        <ele>1011</ele>
        <time>2010-01-01T17:59:07Z</time>
      </trkpt>
      <trkpt lat="42.26746" lon="2.70714">
        <ele>1009</ele>
        <time>2010-01-01T17:59:14Z</time>
      </trkpt>
      <trkpt lat="42.26736" lon="2.70717">
        <ele>1005</ele>
        <time>2010-01-01T17:59:24Z</time>
      </trkpt>
      <trkpt lat="42.26729" lon="2.7072">
        <ele>1002</ele>
        <time>2010-01-01T17:59:32Z</time>
      </trkpt>
      <trkpt lat="42.2672" lon="2.70722">
        <ele>998</ele>
        <time>2010-01-01T17:59:40Z</time>
      </trkpt>
      <trkpt lat="42.26708" lon="2.70744">
        <ele>1001</ele>
        <time>2010-01-01T18:00:01Z</time>
      </trkpt>
      <trkpt lat="42.26701" lon="2.70752">
        <ele>1001</ele>
        <time>2010-01-01T18:00:10Z</time>
      </trkpt>
      <trkpt lat="42.26689" lon="2.70763">
        <ele>999</ele>
        <time>2010-01-01T18:00:24Z</time>
      </trkpt>
      <trkpt lat="42.26682" lon="2.70762">
        <ele>995</ele>
        <time>2010-01-01T18:00:32Z</time>
      </trkpt>
      <trkpt lat="42.26681" lon="2.70763">
        <ele>995</ele>
        <time>2010-01-01T18:00:33Z</time>
      </trkpt>
      <trkpt lat="42.26671" lon="2.70768">
        <ele>992</ele>
        <time>2010-01-01T18:00:44Z</time>
      </trkpt>
      <trkpt lat="42.2667" lon="2.70766">
        <ele>991</ele>
        <time>2010-01-01T18:00:46Z</time>
      </trkpt>
      <trkpt lat="42.26659" lon="2.70765">
        <ele>983</ele>
        <time>2010-01-01T18:00:57Z</time>
      </trkpt>
      <trkpt lat="42.2665" lon="2.70774">
        <ele>980</ele>
        <time>2010-01-01T18:01:08Z</time>
      </trkpt>
      <trkpt lat="42.26636" lon="2.70766">
        <ele>967</ele>
        <time>2010-01-01T18:01:23Z</time>
      </trkpt>
      <trkpt lat="42.26624" lon="2.70774">
        <ele>965</ele>
        <time>2010-01-01T18:01:36Z</time>
      </trkpt>
      <trkpt lat="42.26624" lon="2.70774">
        <ele>965</ele>
        <time>2010-01-01T18:01:36Z</time>
      </trkpt>
      <trkpt lat="42.2662" lon="2.70775">
        <ele>963</ele>
        <time>2010-01-01T18:01:41Z</time>
      </trkpt>
      <trkpt lat="42.26612" lon="2.70782">
        <ele>961</ele>
        <time>2010-01-01T18:01:50Z</time>
      </trkpt>
      <trkpt lat="42.26611" lon="2.70782">
        <ele>961</ele>
        <time>2010-01-01T18:01:51Z</time>
      </trkpt>
      <trkpt lat="42.26607" lon="2.70785">
        <ele>960</ele>
        <time>2010-01-01T18:01:56Z</time>
      </trkpt>
      <trkpt lat="42.26591" lon="2.70793">
        <ele>958</ele>
        <time>2010-01-01T18:02:13Z</time>
      </trkpt>
      <trkpt lat="42.26588" lon="2.70795">
        <ele>958</ele>
        <time>2010-01-01T18:02:16Z</time>
      </trkpt>
      <trkpt lat="42.26577" lon="2.70793">
        <ele>954</ele>
        <time>2010-01-01T18:02:27Z</time>
      </trkpt>
      <trkpt lat="42.2655" lon="2.70792">
        <ele>947</ele>
        <time>2010-01-01T18:02:54Z</time>
      </trkpt>
      <trkpt lat="42.26522" lon="2.7078">
        <ele>940</ele>
        <time>2010-01-01T18:03:24Z</time>
      </trkpt>
      <trkpt lat="42.26486" lon="2.70781">
        <ele>935</ele>
        <time>2010-01-01T18:04:00Z</time>
      </trkpt>
      <trkpt lat="42.26468" lon="2.7078">
        <ele>931</ele>
        <time>2010-01-01T18:04:18Z</time>
      </trkpt>
      <trkpt lat="42.26462" lon="2.70778">
        <ele>930</ele>
        <time>2010-01-01T18:04:24Z</time>
      </trkpt>
      <trkpt lat="42.26447" lon="2.70786">
        <ele>926</ele>
        <time>2010-01-01T18:04:40Z</time>
      </trkpt>
      <trkpt lat="42.26433" lon="2.70789">
        <ele>922</ele>
        <time>2010-01-01T18:04:54Z</time>
      </trkpt>
      <trkpt lat="42.26433" lon="2.70789">
        <ele>922</ele>
        <time>2010-01-01T18:04:54Z</time>
      </trkpt>
      <trkpt lat="42.26433" lon="2.70788">
        <ele>922</ele>
        <time>2010-01-01T18:04:55Z</time>
      </trkpt>
      <trkpt lat="42.26428" lon="2.70791">
        <ele>921</ele>
        <time>2010-01-01T18:05:00Z</time>
      </trkpt>
      <trkpt lat="42.26412" lon="2.70797">
        <ele>917</ele>
        <time>2010-01-01T18:05:16Z</time>
      </trkpt>
      <trkpt lat="42.26393" lon="2.70799">
        <ele>914</ele>
        <time>2010-01-01T18:05:36Z</time>
      </trkpt>
      <trkpt lat="42.2637" lon="2.70792">
        <ele>914</ele>
        <time>2010-01-01T18:05:59Z</time>
      </trkpt>
      <trkpt lat="42.26361" lon="2.70782">
        <ele>915</ele>
        <time>2010-01-01T18:06:11Z</time>
      </trkpt>
      <trkpt lat="42.26363" lon="2.70782">
        <ele>915</ele>
        <time>2010-01-01T18:06:13Z</time>
      </trkpt>
      <trkpt lat="42.26363" lon="2.70785">
        <ele>915</ele>
        <time>2010-01-01T18:06:16Z</time>
      </trkpt>
      <trkpt lat="42.26356" lon="2.70779">
        <ele>916</ele>
        <time>2010-01-01T18:06:24Z</time>
      </trkpt>
      <trkpt lat="42.26342" lon="2.70757">
        <ele>919</ele>
        <time>2010-01-01T18:06:46Z</time>
      </trkpt>
      <trkpt lat="42.26336" lon="2.70743">
        <ele>920</ele>
        <time>2010-01-01T18:06:58Z</time>
      </trkpt>
      <trkpt lat="42.26325" lon="2.7073">
        <ele>922</ele>
        <time>2010-01-01T18:07:13Z</time>
      </trkpt>
      <trkpt lat="42.2631" lon="2.70721">
        <ele>926</ele>
        <time>2010-01-01T18:07:28Z</time>
      </trkpt>
      <trkpt lat="42.26305" lon="2.70721">
        <ele>928</ele>
        <time>2010-01-01T18:07:34Z</time>
      </trkpt>
      <trkpt lat="42.26304" lon="2.70722">
        <ele>928</ele>
        <time>2010-01-01T18:07:35Z</time>
      </trkpt>
      <trkpt lat="42.26292" lon="2.70724">
        <ele>932</ele>
        <time>2010-01-01T18:07:47Z</time>
      </trkpt>
      <trkpt lat="42.26282" lon="2.70723">
        <ele>936</ele>
        <time>2010-01-01T18:07:57Z</time>
      </trkpt>
      <trkpt lat="42.26276" lon="2.70733">
        <ele>938</ele>
        <time>2010-01-01T18:08:07Z</time>
      </trkpt>
      <trkpt lat="42.26278" lon="2.70734">
        <ele>937</ele>
        <time>2010-01-01T18:08:09Z</time>
      </trkpt>
      <trkpt lat="42.26278" lon="2.70734">
        <ele>937</ele>
        <time>2010-01-01T18:08:09Z</time>
      </trkpt>
      <trkpt lat="42.26266" lon="2.70733">
        <ele>942</ele>
        <time>2010-01-01T18:08:21Z</time>
      </trkpt>
      <trkpt lat="42.26254" lon="2.70733">
        <ele>946</ele>
        <time>2010-01-01T18:08:33Z</time>
      </trkpt>
      <trkpt lat="42.26248" lon="2.70736">
        <ele>949</ele>
        <time>2010-01-01T18:08:40Z</time>
      </trkpt>
      <trkpt lat="42.26238" lon="2.70727">
        <ele>953</ele>
        <time>2010-01-01T18:08:52Z</time>
      </trkpt>
      <trkpt lat="42.26235" lon="2.70717">
        <ele>954</ele>
        <time>2010-01-01T18:09:00Z</time>
      </trkpt>
      <trkpt lat="42.26231" lon="2.707">
        <ele>954</ele>
        <time>2010-01-01T18:09:13Z</time>
      </trkpt>
      <trkpt lat="42.26223" lon="2.70691">
        <ele>957</ele>
        <time>2010-01-01T18:09:23Z</time>
      </trkpt>
      <trkpt lat="42.26216" lon="2.70694">
        <ele>960</ele>
        <time>2010-01-01T18:09:30Z</time>
      </trkpt>
      <trkpt lat="42.26216" lon="2.70695">
        <ele>960</ele>
        <time>2010-01-01T18:09:31Z</time>
      </trkpt>
      <trkpt lat="42.26214" lon="2.70699">
        <ele>962</ele>
        <time>2010-01-01T18:09:35Z</time>
      </trkpt>
      <trkpt lat="42.26208" lon="2.7071">
        <ele>966</ele>
        <time>2010-01-01T18:09:45Z</time>
      </trkpt>
      <trkpt lat="42.26201" lon="2.70716">
        <ele>969</ele>
        <time>2010-01-01T18:09:53Z</time>
      </trkpt>
      <trkpt lat="42.26189" lon="2.70719">
        <ele>975</ele>
        <time>2010-01-01T18:10:05Z</time>
      </trkpt>
      <trkpt lat="42.2619" lon="2.70719">
        <ele>974</ele>
        <time>2010-01-01T18:10:07Z</time>
      </trkpt>
      <trkpt lat="42.26183" lon="2.70723">
        <ele>978</ele>
        <time>2010-01-01T18:10:15Z</time>
      </trkpt>
      <trkpt lat="42.26168" lon="2.70725">
        <ele>984</ele>
        <time>2010-01-01T18:10:30Z</time>
      </trkpt>
      <trkpt lat="42.26161" lon="2.70726">
        <ele>988</ele>
        <time>2010-01-01T18:10:37Z</time>
      </trkpt>
      <trkpt lat="42.26148" lon="2.70738">
        <ele>993</ele>
        <time>2010-01-01T18:10:53Z</time>
      </trkpt>
      <trkpt lat="42.26147" lon="2.7074">
        <ele>993</ele>
        <time>2010-01-01T18:10:55Z</time>
      </trkpt>
      <trkpt lat="42.26146" lon="2.70729">
        <ele>995</ele>
        <time>2010-01-01T18:11:03Z</time>
      </trkpt>
      <trkpt lat="42.26145" lon="2.70709">
        <ele>995</ele>
        <time>2010-01-01T18:11:17Z</time>
      </trkpt>
      <trkpt lat="42.26145" lon="2.70699">
        <ele>994</ele>
        <time>2010-01-01T18:11:25Z</time>
      </trkpt>
      <trkpt lat="42.26141" lon="2.70696">
        <ele>996</ele>
        <time>2010-01-01T18:11:29Z</time>
      </trkpt>
      <trkpt lat="42.26138" lon="2.70702">
        <ele>998</ele>
        <time>2010-01-01T18:11:34Z</time>
      </trkpt>
      <trkpt lat="42.26135" lon="2.70712">
        <ele>1000</ele>
        <time>2010-01-01T18:11:42Z</time>
      </trkpt>
      <trkpt lat="42.26124" lon="2.70726">
        <ele>1004</ele>
        <time>2010-01-01T18:11:58Z</time>
      </trkpt>
      <trkpt lat="42.2612" lon="2.7073">
        <ele>1005</ele>
        <time>2010-01-01T18:12:03Z</time>
      </trkpt>
      <trkpt lat="42.26116" lon="2.7073">
        <ele>1006</ele>
        <time>2010-01-01T18:12:07Z</time>
      </trkpt>
      <trkpt lat="42.26111" lon="2.70737">
        <ele>1008</ele>
        <time>2010-01-01T18:12:14Z</time>
      </trkpt>
      <trkpt lat="42.26108" lon="2.70739">
        <ele>1008</ele>
        <time>2010-01-01T18:12:17Z</time>
      </trkpt>
      <trkpt lat="42.26096" lon="2.70751">
        <ele>1011</ele>
        <time>2010-01-01T18:12:32Z</time>
      </trkpt>
      <trkpt lat="42.26086" lon="2.70752">
        <ele>1014</ele>
        <time>2010-01-01T18:12:42Z</time>
      </trkpt>
      <trkpt lat="42.26083" lon="2.70751">
        <ele>1016</ele>
        <time>2010-01-01T18:12:45Z</time>
      </trkpt>
      <trkpt lat="42.26083" lon="2.70754">
        <ele>1014</ele>
        <time>2010-01-01T18:12:48Z</time>
      </trkpt>
      <trkpt lat="42.26086" lon="2.7075">
        <ele>1014</ele>
        <time>2010-01-01T18:12:52Z</time>
      </trkpt>
      <trkpt lat="42.26087" lon="2.70746">
        <ele>1015</ele>
        <time>2010-01-01T18:12:55Z</time>
      </trkpt>
      <trkpt lat="42.26086" lon="2.70743">
        <ele>1016</ele>
        <time>2010-01-01T18:12:58Z</time>
      </trkpt>
      <trkpt lat="42.26089" lon="2.70728">
        <ele>1017</ele>
        <time>2010-01-01T18:13:10Z</time>
      </trkpt>
      <trkpt lat="42.26091" lon="2.70717">
        <ele>1017</ele>
        <time>2010-01-01T18:13:18Z</time>
      </trkpt>
      <trkpt lat="42.26095" lon="2.70698">
        <ele>1016</ele>
        <time>2010-01-01T18:13:32Z</time>
      </trkpt>
      <trkpt lat="42.26098" lon="2.70695">
        <ele>1014</ele>
        <time>2010-01-01T18:13:36Z</time>
      </trkpt>
      <trkpt lat="42.26099" lon="2.70693">
        <ele>1014</ele>
        <time>2010-01-01T18:13:38Z</time>
      </trkpt>
      <trkpt lat="42.26093" lon="2.70695">
        <ele>1017</ele>
        <time>2010-01-01T18:13:44Z</time>
      </trkpt>
      <trkpt lat="42.26087" lon="2.70697">
        <ele>1020</ele>
        <time>2010-01-01T18:13:50Z</time>
      </trkpt>
      <trkpt lat="42.26071" lon="2.7071">
        <ele>1027</ele>
        <time>2010-01-01T18:14:09Z</time>
      </trkpt>
      <trkpt lat="42.26067" lon="2.70712">
        <ele>1028</ele>
        <time>2010-01-01T18:14:13Z</time>
      </trkpt>
      <trkpt lat="42.26058" lon="2.70718">
        <ele>1031</ele>
        <time>2010-01-01T18:14:23Z</time>
      </trkpt>
      <trkpt lat="42.26041" lon="2.70732">
        <ele>1037</ele>
        <time>2010-01-01T18:14:43Z</time>
      </trkpt>
      <trkpt lat="42.26035" lon="2.70733">
        <ele>1039</ele>
        <time>2010-01-01T18:14:49Z</time>
      </trkpt>
      <trkpt lat="42.26032" lon="2.70735">
        <ele>1039</ele>
        <time>2010-01-01T18:14:52Z</time>
      </trkpt>
      <trkpt lat="42.26021" lon="2.70746">
        <ele>1040</ele>
        <time>2010-01-01T18:15:06Z</time>
      </trkpt>
      <trkpt lat="42.26022" lon="2.7074">
        <ele>1042</ele>
        <time>2010-01-01T18:15:10Z</time>
      </trkpt>
      <trkpt lat="42.26026" lon="2.7073">
        <ele>1043</ele>
        <time>2010-01-01T18:15:18Z</time>
      </trkpt>
      <trkpt lat="42.26025" lon="2.70711">
        <ele>1046</ele>
        <time>2010-01-01T18:15:33Z</time>
      </trkpt>
      <trkpt lat="42.26025" lon="2.70698">
        <ele>1047</ele>
        <time>2010-01-01T18:15:42Z</time>
      </trkpt>
      <trkpt lat="42.26026" lon="2.70688">
        <ele>1047</ele>
        <time>2010-01-01T18:15:50Z</time>
      </trkpt>
      <trkpt lat="42.26026" lon="2.70688">
        <ele>1048</ele>
        <time>2010-01-01T18:15:51Z</time>
      </trkpt>
      <trkpt lat="42.2602" lon="2.70685">
        <ele>1050</ele>
        <time>2010-01-01T18:15:57Z</time>
      </trkpt>
      <trkpt lat="42.26018" lon="2.70686">
        <ele>1051</ele>
        <time>2010-01-01T18:15:59Z</time>
      </trkpt>
      <trkpt lat="42.2601" lon="2.70689">
        <ele>1054</ele>
        <time>2010-01-01T18:16:07Z</time>
      </trkpt>
      <trkpt lat="42.26007" lon="2.7069">
        <ele>1055</ele>
        <time>2010-01-01T18:16:10Z</time>
      </trkpt>
      <trkpt lat="42.25995" lon="2.70698">
        <ele>1059</ele>
        <time>2010-01-01T18:16:23Z</time>
      </trkpt>
      <trkpt lat="42.25994" lon="2.70701">
        <ele>1059</ele>
        <time>2010-01-01T18:16:26Z</time>
      </trkpt>
      <trkpt lat="42.2599" lon="2.70702">
        <ele>1061</ele>
        <time>2010-01-01T18:16:30Z</time>
      </trkpt>
      <trkpt lat="42.2599" lon="2.70703">
        <ele>1061</ele>
        <time>2010-01-01T18:16:31Z</time>
      </trkpt>
      <trkpt lat="42.25974" lon="2.70715">
        <ele>1064</ele>
        <time>2010-01-01T18:16:49Z</time>
      </trkpt>
      <trkpt lat="42.25972" lon="2.70721">
        <ele>1063</ele>
        <time>2010-01-01T18:16:54Z</time>
      </trkpt>
      <trkpt lat="42.25966" lon="2.70725">
        <ele>1065</ele>
        <time>2010-01-01T18:17:00Z</time>
      </trkpt>
      <trkpt lat="42.25961" lon="2.70729">
        <ele>1066</ele>
        <time>2010-01-01T18:17:06Z</time>
      </trkpt>
      <trkpt lat="42.2596" lon="2.70729">
        <ele>1066</ele>
        <time>2010-01-01T18:17:07Z</time>
      </trkpt>
      <trkpt lat="42.25941" lon="2.70744">
        <ele>1070</ele>
        <time>2010-01-01T18:17:29Z</time>
      </trkpt>
      <trkpt lat="42.25933" lon="2.70746">
        <ele>1073</ele>
        <time>2010-01-01T18:17:37Z</time>
      </trkpt>
      <trkpt lat="42.25914" lon="2.70755">
        <ele>1079</ele>
        <time>2010-01-01T18:17:57Z</time>
      </trkpt>
      <trkpt lat="42.25905" lon="2.70765">
        <ele>1080</ele>
        <time>2010-01-01T18:18:09Z</time>
      </trkpt>
      <trkpt lat="42.25902" lon="2.70758">
        <ele>1083</ele>
        <time>2010-01-01T18:18:15Z</time>
      </trkpt>
      <trkpt lat="42.2589" lon="2.70775">
        <ele>1083</ele>
        <time>2010-01-01T18:18:32Z</time>
      </trkpt>
      <trkpt lat="42.25887" lon="2.70777">
        <ele>1084</ele>
        <time>2010-01-01T18:18:35Z</time>
      </trkpt>
      <trkpt lat="42.25885" lon="2.70771">
        <ele>1087</ele>
        <time>2010-01-01T18:18:40Z</time>
      </trkpt>
      <trkpt lat="42.25884" lon="2.70759">
        <ele>1090</ele>
        <time>2010-01-01T18:18:49Z</time>
      </trkpt>
      <trkpt lat="42.25883" lon="2.70755">
        <ele>1092</ele>
        <time>2010-01-01T18:18:52Z</time>
      </trkpt>
      <trkpt lat="42.25876" lon="2.70769">
        <ele>1094</ele>
        <time>2010-01-01T18:19:04Z</time>
      </trkpt>
      <trkpt lat="42.25872" lon="2.70775">
        <ele>1096</ele>
        <time>2010-01-01T18:19:11Z</time>
      </trkpt>
      <trkpt lat="42.25866" lon="2.70793">
        <ele>1097</ele>
        <time>2010-01-01T18:19:25Z</time>
      </trkpt>
      <trkpt lat="42.25862" lon="2.70783">
        <ele>1102</ele>
        <time>2010-01-01T18:19:33Z</time>
      </trkpt>
      <trkpt lat="42.25859" lon="2.70772">
        <ele>1104</ele>
        <time>2010-01-01T18:19:41Z</time>
      </trkpt>
      <trkpt lat="42.25863" lon="2.70753">
        <ele>1105</ele>
        <time>2010-01-01T18:19:56Z</time>
      </trkpt>
      <trkpt lat="42.25868" lon="2.70734">
        <ele>1104</ele>
        <time>2010-01-01T18:20:11Z</time>
      </trkpt>
      <trkpt lat="42.25855" lon="2.70748">
        <ele>1108</ele>
        <time>2010-01-01T18:20:28Z</time>
      </trkpt>
      <trkpt lat="42.25852" lon="2.70754">
        <ele>1108</ele>
        <time>2010-01-01T18:20:33Z</time>
      </trkpt>
      <trkpt lat="42.25848" lon="2.70762">
        <ele>1108</ele>
        <time>2010-01-01T18:20:40Z</time>
      </trkpt>
      <trkpt lat="42.25847" lon="2.70765">
        <ele>1108</ele>
        <time>2010-01-01T18:20:43Z</time>
      </trkpt>
      <trkpt lat="42.25846" lon="2.70767">
        <ele>1108</ele>
        <time>2010-01-01T18:20:44Z</time>
      </trkpt>
      <trkpt lat="42.25837" lon="2.70795">
        <ele>1108</ele>
        <time>2010-01-01T18:21:07Z</time>
      </trkpt>
      <trkpt lat="42.25835" lon="2.70802">
        <ele>1108</ele>
        <time>2010-01-01T18:21:12Z</time>
      </trkpt>
      <trkpt lat="42.25837" lon="2.70811">
        <ele>1106</ele>
        <time>2010-01-01T18:21:20Z</time>
      </trkpt>
      <trkpt lat="42.25837" lon="2.70817">
        <ele>1106</ele>
        <time>2010-01-01T18:21:24Z</time>
      </trkpt>
      <trkpt lat="42.25836" lon="2.70819">
        <ele>1105</ele>
        <time>2010-01-01T18:21:25Z</time>
      </trkpt>
      <trkpt lat="42.25835" lon="2.70816">
        <ele>1106</ele>
        <time>2010-01-01T18:21:28Z</time>
      </trkpt>
      <trkpt lat="42.25842" lon="2.70794">
        <ele>1107</ele>
        <time>2010-01-01T18:21:46Z</time>
      </trkpt>
      <trkpt lat="42.25843" lon="2.70774">
        <ele>1108</ele>
        <time>2010-01-01T18:22:01Z</time>
      </trkpt>
      <trkpt lat="42.2585" lon="2.70753">
        <ele>1108</ele>
        <time>2010-01-01T18:22:18Z</time>
      </trkpt>
      <trkpt lat="42.25858" lon="2.70727">
        <ele>1108</ele>
        <time>2010-01-01T18:22:39Z</time>
      </trkpt>
      <trkpt lat="42.25861" lon="2.7072">
        <ele>1108</ele>
        <time>2010-01-01T18:22:44Z</time>
      </trkpt>
      <trkpt lat="42.25863" lon="2.70716">
        <ele>1108</ele>
        <time>2010-01-01T18:22:48Z</time>
      </trkpt>
      <trkpt lat="42.25865" lon="2.70712">
        <ele>1107</ele>
        <time>2010-01-01T18:22:52Z</time>
      </trkpt>
      <trkpt lat="42.25872" lon="2.70693">
        <ele>1106</ele>
        <time>2010-01-01T18:23:07Z</time>
      </trkpt>
      <trkpt lat="42.25872" lon="2.7069">
        <ele>1106</ele>
        <time>2010-01-01T18:23:10Z</time>
      </trkpt>
      <trkpt lat="42.25874" lon="2.70674">
        <ele>1107</ele>
        <time>2010-01-01T18:23:21Z</time>
      </trkpt>
      <trkpt lat="42.25879" lon="2.70653">
        <ele>1109</ele>
        <time>2010-01-01T18:23:38Z</time>
      </trkpt>
      <trkpt lat="42.25879" lon="2.70653">
        <ele>1109</ele>
        <time>2010-01-01T18:23:38Z</time>
      </trkpt>
      <trkpt lat="42.25879" lon="2.70651">
        <ele>1109</ele>
        <time>2010-01-01T18:23:39Z</time>
      </trkpt>
      <trkpt lat="42.25881" lon="2.70644">
        <ele>1110</ele>
        <time>2010-01-01T18:23:45Z</time>
      </trkpt>
      <trkpt lat="42.25882" lon="2.70643">
        <ele>1110</ele>
        <time>2010-01-01T18:23:46Z</time>
      </trkpt>
      <trkpt lat="42.25885" lon="2.70633">
        <ele>1111</ele>
        <time>2010-01-01T18:23:54Z</time>
      </trkpt>
      <trkpt lat="42.25887" lon="2.70631">
        <ele>1112</ele>
        <time>2010-01-01T18:23:57Z</time>
      </trkpt>
      <trkpt lat="42.25888" lon="2.7063">
        <ele>1112</ele>
        <time>2010-01-01T18:23:58Z</time>
      </trkpt>
      <trkpt lat="42.2589" lon="2.70629">
        <ele>1112</ele>
        <time>2010-01-01T18:24:00Z</time>
      </trkpt>
      <trkpt lat="42.25891" lon="2.70628">
        <ele>1112</ele>
        <time>2010-01-01T18:24:01Z</time>
      </trkpt>
      <trkpt lat="42.25888" lon="2.70631">
        <ele>1112</ele>
        <time>2010-01-01T18:24:04Z</time>
      </trkpt>
      <trkpt lat="42.25888" lon="2.70631">
        <ele>1112</ele>
        <time>2010-01-01T18:24:04Z</time>
      </trkpt>
      <trkpt lat="42.25888" lon="2.70632">
        <ele>1112</ele>
        <time>2010-01-01T18:24:05Z</time>
      </trkpt>
      <trkpt lat="42.25888" lon="2.70631">
        <ele>1112</ele>
        <time>2010-01-01T18:24:05Z</time>
      </trkpt>
      <trkpt lat="42.25888" lon="2.70631">
        <ele>1112</ele>
        <time>2010-01-01T18:24:06Z</time>
      </trkpt>
      <trkpt lat="42.25888" lon="2.7063">
        <ele>1112</ele>
        <time>2010-01-01T18:24:06Z</time>
      </trkpt>
      <trkpt lat="42.25887" lon="2.70629">
        <ele>1112</ele>
        <time>2010-01-01T18:24:08Z</time>
      </trkpt>
      <trkpt lat="42.25885" lon="2.70629">
        <ele>1111</ele>
        <time>2010-01-01T18:24:09Z</time>
      </trkpt>
      <trkpt lat="42.25884" lon="2.7063">
        <ele>1111</ele>
        <time>2010-01-01T18:24:10Z</time>
      </trkpt>
      <trkpt lat="42.25884" lon="2.7063">
        <ele>1111</ele>
        <time>2010-01-01T18:24:11Z</time>
      </trkpt>
      <trkpt lat="42.25884" lon="2.70631">
        <ele>1111</ele>
        <time>2010-01-01T18:24:11Z</time>
      </trkpt>
      <trkpt lat="42.25885" lon="2.70631">
        <ele>1111</ele>
        <time>2010-01-01T18:24:13Z</time>
      </trkpt>
      <trkpt lat="42.25885" lon="2.70632">
        <ele>1111</ele>
        <time>2010-01-01T18:24:13Z</time>
      </trkpt>
      <trkpt lat="42.25885" lon="2.70632">
        <ele>1111</ele>
        <time>2010-01-01T18:24:13Z</time>
      </trkpt>
      <trkpt lat="42.25885" lon="2.70632">
        <ele>1111</ele>
        <time>2010-01-01T18:24:14Z</time>
      </trkpt>
      <trkpt lat="42.2588" lon="2.70642">
        <ele>1110</ele>
        <time>2010-01-01T18:24:23Z</time>
      </trkpt>
      <trkpt lat="42.25879" lon="2.70643">
        <ele>1110</ele>
        <time>2010-01-01T18:24:24Z</time>
      </trkpt>
      <trkpt lat="42.25879" lon="2.70645">
        <ele>1110</ele>
        <time>2010-01-01T18:24:25Z</time>
      </trkpt>
      <trkpt lat="42.25873" lon="2.70653">
        <ele>1108</ele>
        <time>2010-01-01T18:24:33Z</time>
      </trkpt>
      <trkpt lat="42.25874" lon="2.70655">
        <ele>1108</ele>
        <time>2010-01-01T18:24:34Z</time>
      </trkpt>
      <trkpt lat="42.25872" lon="2.70663">
        <ele>1108</ele>
        <time>2010-01-01T18:24:41Z</time>
      </trkpt>
      <trkpt lat="42.25873" lon="2.70675">
        <ele>1107</ele>
        <time>2010-01-01T18:24:49Z</time>
      </trkpt>
      <trkpt lat="42.25863" lon="2.70718">
        <ele>1108</ele>
        <time>2010-01-01T18:25:23Z</time>
      </trkpt>
      <trkpt lat="42.25862" lon="2.70719">
        <ele>1108</ele>
        <time>2010-01-01T18:25:24Z</time>
      </trkpt>
      <trkpt lat="42.25855" lon="2.70728">
        <ele>1108</ele>
        <time>2010-01-01T18:25:34Z</time>
      </trkpt>
      <trkpt lat="42.25849" lon="2.70746">
        <ele>1108</ele>
        <time>2010-01-01T18:25:49Z</time>
      </trkpt>
      <trkpt lat="42.25842" lon="2.7076">
        <ele>1109</ele>
        <time>2010-01-01T18:26:01Z</time>
      </trkpt>
      <trkpt lat="42.25846" lon="2.70766">
        <ele>1108</ele>
        <time>2010-01-01T18:26:08Z</time>
      </trkpt>
      <trkpt lat="42.25852" lon="2.70754">
        <ele>1107</ele>
        <time>2010-01-01T18:26:19Z</time>
      </trkpt>
      <trkpt lat="42.25858" lon="2.70739">
        <ele>1108</ele>
        <time>2010-01-01T18:26:31Z</time>
      </trkpt>
      <trkpt lat="42.25861" lon="2.70732">
        <ele>1108</ele>
        <time>2010-01-01T18:26:38Z</time>
      </trkpt>
      <trkpt lat="42.25865" lon="2.70731">
        <ele>1106</ele>
        <time>2010-01-01T18:26:43Z</time>
      </trkpt>
      <trkpt lat="42.25867" lon="2.70734">
        <ele>1105</ele>
        <time>2010-01-01T18:26:45Z</time>
      </trkpt>
      <trkpt lat="42.25862" lon="2.70751">
        <ele>1106</ele>
        <time>2010-01-01T18:26:58Z</time>
      </trkpt>
      <trkpt lat="42.25855" lon="2.70765">
        <ele>1106</ele>
        <time>2010-01-01T18:27:11Z</time>
      </trkpt>
      <trkpt lat="42.2586" lon="2.70776">
        <ele>1104</ele>
        <time>2010-01-01T18:27:20Z</time>
      </trkpt>
      <trkpt lat="42.2586" lon="2.70776">
        <ele>1104</ele>
        <time>2010-01-01T18:27:21Z</time>
      </trkpt>
      <trkpt lat="42.25863" lon="2.70781">
        <ele>1102</ele>
        <time>2010-01-01T18:27:25Z</time>
      </trkpt>
      <trkpt lat="42.25864" lon="2.70813">
        <ele>1095</ele>
        <time>2010-01-01T18:27:49Z</time>
      </trkpt>
      <trkpt lat="42.25864" lon="2.70844">
        <ele>1086</ele>
        <time>2010-01-01T18:28:12Z</time>
      </trkpt>
      <trkpt lat="42.25863" lon="2.70863">
        <ele>1080</ele>
        <time>2010-01-01T18:28:26Z</time>
      </trkpt>
      <trkpt lat="42.25852" lon="2.70878">
        <ele>1080</ele>
        <time>2010-01-01T18:28:42Z</time>
      </trkpt>
      <trkpt lat="42.25845" lon="2.70886">
        <ele>1081</ele>
        <time>2010-01-01T18:28:50Z</time>
      </trkpt>
      <trkpt lat="42.25836" lon="2.70896">
        <ele>1083</ele>
        <time>2010-01-01T18:29:02Z</time>
      </trkpt>
      <trkpt lat="42.2583" lon="2.70904">
        <ele>1082</ele>
        <time>2010-01-01T18:29:10Z</time>
      </trkpt>
      <trkpt lat="42.25827" lon="2.70907">
        <ele>1081</ele>
        <time>2010-01-01T18:29:14Z</time>
      </trkpt>
      <trkpt lat="42.2583" lon="2.70909">
        <ele>1080</ele>
        <time>2010-01-01T18:29:17Z</time>
      </trkpt>
      <trkpt lat="42.25835" lon="2.70913">
        <ele>1078</ele>
        <time>2010-01-01T18:29:23Z</time>
      </trkpt>
      <trkpt lat="42.25838" lon="2.70919">
        <ele>1074</ele>
        <time>2010-01-01T18:29:28Z</time>
      </trkpt>
      <trkpt lat="42.25841" lon="2.70923">
        <ele>1070</ele>
        <time>2010-01-01T18:29:32Z</time>
      </trkpt>
      <trkpt lat="42.25817" lon="2.70952">
        <ele>1068</ele>
        <time>2010-01-01T18:30:04Z</time>
      </trkpt>
      <trkpt lat="42.25816" lon="2.70957">
        <ele>1067</ele>
        <time>2010-01-01T18:30:08Z</time>
      </trkpt>
      <trkpt lat="42.25812" lon="2.70961">
        <ele>1067</ele>
        <time>2010-01-01T18:30:13Z</time>
      </trkpt>
      <trkpt lat="42.25811" lon="2.70963">
        <ele>1067</ele>
        <time>2010-01-01T18:30:15Z</time>
      </trkpt>
      <trkpt lat="42.25802" lon="2.70988">
        <ele>1062</ele>
        <time>2010-01-01T18:30:35Z</time>
      </trkpt>
      <trkpt lat="42.25784" lon="2.71021">
        <ele>1050</ele>
        <time>2010-01-01T18:31:06Z</time>
      </trkpt>
      <trkpt lat="42.25771" lon="2.71046">
        <ele>1043</ele>
        <time>2010-01-01T18:31:28Z</time>
      </trkpt>
      <trkpt lat="42.25769" lon="2.71047">
        <ele>1042</ele>
        <time>2010-01-01T18:31:31Z</time>
      </trkpt>
      <trkpt lat="42.25769" lon="2.71047">
        <ele>1042</ele>
        <time>2010-01-01T18:31:31Z</time>
      </trkpt>
      <trkpt lat="42.25769" lon="2.71047">
        <ele>1042</ele>
        <time>2010-01-01T18:31:31Z</time>
      </trkpt>
      <trkpt lat="42.25765" lon="2.71068">
        <ele>1039</ele>
        <time>2010-01-01T18:31:47Z</time>
      </trkpt>
      <trkpt lat="42.25763" lon="2.71073">
        <ele>1038</ele>
        <time>2010-01-01T18:31:51Z</time>
      </trkpt>
      <trkpt lat="42.25755" lon="2.7107">
        <ele>1036</ele>
        <time>2010-01-01T18:31:59Z</time>
      </trkpt>
      <trkpt lat="42.25753" lon="2.71068">
        <ele>1035</ele>
        <time>2010-01-01T18:32:02Z</time>
      </trkpt>
      <trkpt lat="42.25751" lon="2.71069">
        <ele>1035</ele>
        <time>2010-01-01T18:32:05Z</time>
      </trkpt>
      <trkpt lat="42.25747" lon="2.7107">
        <ele>1033</ele>
        <time>2010-01-01T18:32:08Z</time>
      </trkpt>
      <trkpt lat="42.25743" lon="2.71068">
        <ele>1031</ele>
        <time>2010-01-01T18:32:13Z</time>
      </trkpt>
      <trkpt lat="42.25738" lon="2.7106">
        <ele>1030</ele>
        <time>2010-01-01T18:32:20Z</time>
      </trkpt>
      <trkpt lat="42.2573" lon="2.71045">
        <ele>1028</ele>
        <time>2010-01-01T18:32:34Z</time>
      </trkpt>
      <trkpt lat="42.25729" lon="2.71043">
        <ele>1028</ele>
        <time>2010-01-01T18:32:36Z</time>
      </trkpt>
      <trkpt lat="42.25727" lon="2.71036">
        <ele>1028</ele>
        <time>2010-01-01T18:32:41Z</time>
      </trkpt>
      <trkpt lat="42.25725" lon="2.71028">
        <ele>1028</ele>
        <time>2010-01-01T18:32:48Z</time>
      </trkpt>
      <trkpt lat="42.25719" lon="2.71008">
        <ele>1026</ele>
        <time>2010-01-01T18:33:04Z</time>
      </trkpt>
      <trkpt lat="42.25718" lon="2.71006">
        <ele>1026</ele>
        <time>2010-01-01T18:33:05Z</time>
      </trkpt>
      <trkpt lat="42.2571" lon="2.70991">
        <ele>1023</ele>
        <time>2010-01-01T18:33:19Z</time>
      </trkpt>
      <trkpt lat="42.2571" lon="2.70991">
        <ele>1023</ele>
        <time>2010-01-01T18:33:19Z</time>
      </trkpt>
      <trkpt lat="42.2571" lon="2.70991">
        <ele>1023</ele>
        <time>2010-01-01T18:33:19Z</time>
      </trkpt>
      <trkpt lat="42.25708" lon="2.70983">
        <ele>1022</ele>
        <time>2010-01-01T18:33:26Z</time>
      </trkpt>
      <trkpt lat="42.25709" lon="2.70992">
        <ele>1022</ele>
        <time>2010-01-01T18:33:33Z</time>
      </trkpt>
      <trkpt lat="42.25709" lon="2.70993">
        <ele>1022</ele>
        <time>2010-01-01T18:33:34Z</time>
      </trkpt>
      <trkpt lat="42.25712" lon="2.71006">
        <ele>1023</ele>
        <time>2010-01-01T18:33:44Z</time>
      </trkpt>
      <trkpt lat="42.25713" lon="2.71006">
        <ele>1023</ele>
        <time>2010-01-01T18:33:45Z</time>
      </trkpt>
      <trkpt lat="42.25717" lon="2.71011">
        <ele>1025</ele>
        <time>2010-01-01T18:33:50Z</time>
      </trkpt>
      <trkpt lat="42.25717" lon="2.71015">
        <ele>1024</ele>
        <time>2010-01-01T18:33:53Z</time>
      </trkpt>
      <trkpt lat="42.25715" lon="2.71028">
        <ele>1023</ele>
        <time>2010-01-01T18:34:03Z</time>
      </trkpt>
      <trkpt lat="42.25708" lon="2.71046">
        <ele>1017</ele>
        <time>2010-01-01T18:34:18Z</time>
      </trkpt>
      <trkpt lat="42.25707" lon="2.71045">
        <ele>1017</ele>
        <time>2010-01-01T18:34:18Z</time>
      </trkpt>
      <trkpt lat="42.25705" lon="2.71041">
        <ele>1017</ele>
        <time>2010-01-01T18:34:22Z</time>
      </trkpt>
      <trkpt lat="42.25704" lon="2.71034">
        <ele>1016</ele>
        <time>2010-01-01T18:34:27Z</time>
      </trkpt>
      <trkpt lat="42.25702" lon="2.71032">
        <ele>1015</ele>
        <time>2010-01-01T18:34:30Z</time>
      </trkpt>
      <trkpt lat="42.25702" lon="2.71031">
        <ele>1016</ele>
        <time>2010-01-01T18:34:31Z</time>
      </trkpt>
      <trkpt lat="42.25703" lon="2.71029">
        <ele>1016</ele>
        <time>2010-01-01T18:34:32Z</time>
      </trkpt>
      <trkpt lat="42.25699" lon="2.71024">
        <ele>1014</ele>
        <time>2010-01-01T18:34:37Z</time>
      </trkpt>
      <trkpt lat="42.25689" lon="2.71017">
        <ele>1009</ele>
        <time>2010-01-01T18:34:48Z</time>
      </trkpt>
      <trkpt lat="42.25689" lon="2.71015">
        <ele>1009</ele>
        <time>2010-01-01T18:34:50Z</time>
      </trkpt>
      <trkpt lat="42.25686" lon="2.71012">
        <ele>1008</ele>
        <time>2010-01-01T18:34:53Z</time>
      </trkpt>
      <trkpt lat="42.25681" lon="2.71011">
        <ele>1005</ele>
        <time>2010-01-01T18:34:58Z</time>
      </trkpt>
      <trkpt lat="42.25676" lon="2.71017">
        <ele>1001</ele>
        <time>2010-01-01T18:35:05Z</time>
      </trkpt>
      <trkpt lat="42.2567" lon="2.71023">
        <ele>998</ele>
        <time>2010-01-01T18:35:12Z</time>
      </trkpt>
      <trkpt lat="42.25662" lon="2.71022">
        <ele>994</ele>
        <time>2010-01-01T18:35:20Z</time>
      </trkpt>
      <trkpt lat="42.25657" lon="2.71026">
        <ele>991</ele>
        <time>2010-01-01T18:35:26Z</time>
      </trkpt>
      <trkpt lat="42.25654" lon="2.71027">
        <ele>990</ele>
        <time>2010-01-01T18:35:30Z</time>
      </trkpt>
      <trkpt lat="42.25654" lon="2.71026">
        <ele>990</ele>
        <time>2010-01-01T18:35:30Z</time>
      </trkpt>
      <trkpt lat="42.25654" lon="2.71016">
        <ele>990</ele>
        <time>2010-01-01T18:35:37Z</time>
      </trkpt>
      <trkpt lat="42.25653" lon="2.71008">
        <ele>989</ele>
        <time>2010-01-01T18:35:43Z</time>
      </trkpt>
      <trkpt lat="42.25651" lon="2.71008">
        <ele>988</ele>
        <time>2010-01-01T18:35:45Z</time>
      </trkpt>
      <trkpt lat="42.25651" lon="2.71008">
        <ele>988</ele>
        <time>2010-01-01T18:35:46Z</time>
      </trkpt>
      <trkpt lat="42.25647" lon="2.7102">
        <ele>986</ele>
        <time>2010-01-01T18:35:55Z</time>
      </trkpt>
      <trkpt lat="42.25645" lon="2.71032">
        <ele>985</ele>
        <time>2010-01-01T18:36:04Z</time>
      </trkpt>
      <trkpt lat="42.25646" lon="2.71047">
        <ele>985</ele>
        <time>2010-01-01T18:36:16Z</time>
      </trkpt>
      <trkpt lat="42.25645" lon="2.71048">
        <ele>984</ele>
        <time>2010-01-01T18:36:17Z</time>
      </trkpt>
      <trkpt lat="42.25629" lon="2.71075">
        <ele>978</ele>
        <time>2010-01-01T18:36:42Z</time>
      </trkpt>
      <trkpt lat="42.25623" lon="2.71088">
        <ele>976</ele>
        <time>2010-01-01T18:36:54Z</time>
      </trkpt>
      <trkpt lat="42.25628" lon="2.71106">
        <ele>975</ele>
        <time>2010-01-01T18:37:08Z</time>
      </trkpt>
      <trkpt lat="42.25633" lon="2.71115">
        <ele>974</ele>
        <time>2010-01-01T18:37:16Z</time>
      </trkpt>
      <trkpt lat="42.25646" lon="2.7112">
        <ele>976</ele>
        <time>2010-01-01T18:37:30Z</time>
      </trkpt>
      <trkpt lat="42.25641" lon="2.71127">
        <ele>973</ele>
        <time>2010-01-01T18:37:38Z</time>
      </trkpt>
      <trkpt lat="42.2564" lon="2.71134">
        <ele>972</ele>
        <time>2010-01-01T18:37:43Z</time>
      </trkpt>
      <trkpt lat="42.25639" lon="2.7114">
        <ele>970</ele>
        <time>2010-01-01T18:37:48Z</time>
      </trkpt>
      <trkpt lat="42.25632" lon="2.71152">
        <ele>967</ele>
        <time>2010-01-01T18:37:59Z</time>
      </trkpt>
      <trkpt lat="42.25625" lon="2.71155">
        <ele>965</ele>
        <time>2010-01-01T18:38:06Z</time>
      </trkpt>
      <trkpt lat="42.25625" lon="2.71158">
        <ele>964</ele>
        <time>2010-01-01T18:38:09Z</time>
      </trkpt>
      <trkpt lat="42.25634" lon="2.71176">
        <ele>962</ele>
        <time>2010-01-01T18:38:25Z</time>
      </trkpt>
      <trkpt lat="42.25631" lon="2.7119">
        <ele>959</ele>
        <time>2010-01-01T18:38:35Z</time>
      </trkpt>
      <trkpt lat="42.2563" lon="2.71207">
        <ele>955</ele>
        <time>2010-01-01T18:38:48Z</time>
      </trkpt>
      <trkpt lat="42.25627" lon="2.71224">
        <ele>951</ele>
        <time>2010-01-01T18:39:01Z</time>
      </trkpt>
      <trkpt lat="42.25624" lon="2.71239">
        <ele>947</ele>
        <time>2010-01-01T18:39:12Z</time>
      </trkpt>
      <trkpt lat="42.25622" lon="2.71254">
        <ele>944</ele>
        <time>2010-01-01T18:39:24Z</time>
      </trkpt>
      <trkpt lat="42.25619" lon="2.71272">
        <ele>939</ele>
        <time>2010-01-01T18:39:38Z</time>
      </trkpt>
      <trkpt lat="42.25621" lon="2.71289">
        <ele>937</ele>
        <time>2010-01-01T18:39:50Z</time>
      </trkpt>
      <trkpt lat="42.25622" lon="2.71302">
        <ele>935</ele>
        <time>2010-01-01T18:40:00Z</time>
      </trkpt>
      <trkpt lat="42.25623" lon="2.71307">
        <ele>935</ele>
        <time>2010-01-01T18:40:04Z</time>
      </trkpt>
      <trkpt lat="42.25624" lon="2.71323">
        <ele>934</ele>
        <time>2010-01-01T18:40:15Z</time>
      </trkpt>
      <trkpt lat="42.25626" lon="2.71327">
        <ele>934</ele>
        <time>2010-01-01T18:40:19Z</time>
      </trkpt>
      <trkpt lat="42.25627" lon="2.71333">
        <ele>934</ele>
        <time>2010-01-01T18:40:24Z</time>
      </trkpt>
      <trkpt lat="42.25625" lon="2.71338">
        <ele>933</ele>
        <time>2010-01-01T18:40:28Z</time>
      </trkpt>
      <trkpt lat="42.25619" lon="2.71354">
        <ele>928</ele>
        <time>2010-01-01T18:40:41Z</time>
      </trkpt>
      <trkpt lat="42.25619" lon="2.71353">
        <ele>928</ele>
        <time>2010-01-01T18:40:41Z</time>
      </trkpt>
      <trkpt lat="42.25617" lon="2.7136">
        <ele>926</ele>
        <time>2010-01-01T18:40:47Z</time>
      </trkpt>
      <trkpt lat="42.25615" lon="2.71376">
        <ele>923</ele>
        <time>2010-01-01T18:40:59Z</time>
      </trkpt>
      <trkpt lat="42.25614" lon="2.71386">
        <ele>922</ele>
        <time>2010-01-01T18:41:06Z</time>
      </trkpt>
      <trkpt lat="42.25615" lon="2.71385">
        <ele>922</ele>
        <time>2010-01-01T18:41:07Z</time>
      </trkpt>
      <trkpt lat="42.25605" lon="2.71383">
        <ele>918</ele>
        <time>2010-01-01T18:41:17Z</time>
      </trkpt>
      <trkpt lat="42.25605" lon="2.71394">
        <ele>916</ele>
        <time>2010-01-01T18:41:26Z</time>
      </trkpt>
      <trkpt lat="42.25605" lon="2.71394">
        <ele>916</ele>
        <time>2010-01-01T18:41:26Z</time>
      </trkpt>
      <trkpt lat="42.25596" lon="2.71389">
        <ele>913</ele>
        <time>2010-01-01T18:41:36Z</time>
      </trkpt>
      <trkpt lat="42.25596" lon="2.71388">
        <ele>914</ele>
        <time>2010-01-01T18:41:37Z</time>
      </trkpt>
      <trkpt lat="42.25594" lon="2.71381">
        <ele>914</ele>
        <time>2010-01-01T18:41:42Z</time>
      </trkpt>
      <trkpt lat="42.25584" lon="2.71374">
        <ele>910</ele>
        <time>2010-01-01T18:41:53Z</time>
      </trkpt>
      <trkpt lat="42.25575" lon="2.71367">
        <ele>910</ele>
        <time>2010-01-01T18:42:04Z</time>
      </trkpt>
      <trkpt lat="42.25576" lon="2.71363">
        <ele>910</ele>
        <time>2010-01-01T18:42:07Z</time>
      </trkpt>
      <trkpt lat="42.25581" lon="2.71349">
        <ele>914</ele>
        <time>2010-01-01T18:42:18Z</time>
      </trkpt>
      <trkpt lat="42.25576" lon="2.71342">
        <ele>916</ele>
        <time>2010-01-01T18:42:26Z</time>
      </trkpt>
      <trkpt lat="42.25571" lon="2.71351">
        <ele>913</ele>
        <time>2010-01-01T18:42:34Z</time>
      </trkpt>
      <trkpt lat="42.25567" lon="2.71359">
        <ele>910</ele>
        <time>2010-01-01T18:42:41Z</time>
      </trkpt>
      <trkpt lat="42.2556" lon="2.71371">
        <ele>907</ele>
        <time>2010-01-01T18:42:52Z</time>
      </trkpt>
      <trkpt lat="42.25553" lon="2.71357">
        <ele>910</ele>
        <time>2010-01-01T18:43:05Z</time>
      </trkpt>
      <trkpt lat="42.25549" lon="2.71355">
        <ele>911</ele>
        <time>2010-01-01T18:43:08Z</time>
      </trkpt>
      <trkpt lat="42.25547" lon="2.71355">
        <ele>911</ele>
        <time>2010-01-01T18:43:10Z</time>
      </trkpt>
      <trkpt lat="42.25545" lon="2.71359">
        <ele>909</ele>
        <time>2010-01-01T18:43:15Z</time>
      </trkpt>
      <trkpt lat="42.25543" lon="2.71372">
        <ele>905</ele>
        <time>2010-01-01T18:43:24Z</time>
      </trkpt>
      <trkpt lat="42.25532" lon="2.71392">
        <ele>899</ele>
        <time>2010-01-01T18:43:43Z</time>
      </trkpt>
      <trkpt lat="42.25519" lon="2.71411">
        <ele>892</ele>
        <time>2010-01-01T18:44:01Z</time>
      </trkpt>
      <trkpt lat="42.25514" lon="2.71416">
        <ele>890</ele>
        <time>2010-01-01T18:44:08Z</time>
      </trkpt>
      <trkpt lat="42.25502" lon="2.71428">
        <ele>884</ele>
        <time>2010-01-01T18:44:23Z</time>
      </trkpt>
      <trkpt lat="42.25505" lon="2.7143">
        <ele>884</ele>
        <time>2010-01-01T18:44:26Z</time>
      </trkpt>
      <trkpt lat="42.25517" lon="2.71452">
        <ele>881</ele>
        <time>2010-01-01T18:44:46Z</time>
      </trkpt>
      <trkpt lat="42.25529" lon="2.71464">
        <ele>880</ele>
        <time>2010-01-01T18:45:01Z</time>
      </trkpt>
      <trkpt lat="42.25528" lon="2.71467">
        <ele>880</ele>
        <time>2010-01-01T18:45:03Z</time>
      </trkpt>
      <trkpt lat="42.25529" lon="2.71479">
        <ele>878</ele>
        <time>2010-01-01T18:45:12Z</time>
      </trkpt>
      <trkpt lat="42.25526" lon="2.7149">
        <ele>876</ele>
        <time>2010-01-01T18:45:20Z</time>
      </trkpt>
      <trkpt lat="42.2552" lon="2.715">
        <ele>873</ele>
        <time>2010-01-01T18:45:30Z</time>
      </trkpt>
      <trkpt lat="42.25515" lon="2.715">
        <ele>871</ele>
        <time>2010-01-01T18:45:35Z</time>
      </trkpt>
      <trkpt lat="42.25507" lon="2.7149">
        <ele>870</ele>
        <time>2010-01-01T18:45:46Z</time>
      </trkpt>
      <trkpt lat="42.25489" lon="2.71472">
        <ele>870</ele>
        <time>2010-01-01T18:46:08Z</time>
      </trkpt>
      <trkpt lat="42.25476" lon="2.71463">
        <ele>870</ele>
        <time>2010-01-01T18:46:23Z</time>
      </trkpt>
      <trkpt lat="42.25471" lon="2.7149">
        <ele>863</ele>
        <time>2010-01-01T18:46:44Z</time>
      </trkpt>
      <trkpt lat="42.25474" lon="2.71484">
        <ele>865</ele>
        <time>2010-01-01T18:46:49Z</time>
      </trkpt>
      <trkpt lat="42.25485" lon="2.71493">
        <ele>865</ele>
        <time>2010-01-01T18:47:01Z</time>
      </trkpt>
      <trkpt lat="42.25476" lon="2.71506">
        <ele>862</ele>
        <time>2010-01-01T18:47:14Z</time>
      </trkpt>
      <trkpt lat="42.25465" lon="2.71498">
        <ele>861</ele>
        <time>2010-01-01T18:47:26Z</time>
      </trkpt>
      <trkpt lat="42.25465" lon="2.71496">
        <ele>861</ele>
        <time>2010-01-01T18:47:28Z</time>
      </trkpt>
      <trkpt lat="42.25483" lon="2.7148">
        <ele>867</ele>
        <time>2010-01-01T18:47:50Z</time>
      </trkpt>
      <trkpt lat="42.25485" lon="2.7148">
        <ele>867</ele>
        <time>2010-01-01T18:47:52Z</time>
      </trkpt>
      <trkpt lat="42.25492" lon="2.71485">
        <ele>868</ele>
        <time>2010-01-01T18:48:00Z</time>
      </trkpt>
      <trkpt lat="42.25503" lon="2.7151">
        <ele>867</ele>
        <time>2010-01-01T18:48:21Z</time>
      </trkpt>
      <trkpt lat="42.25498" lon="2.71523">
        <ele>865</ele>
        <time>2010-01-01T18:48:31Z</time>
      </trkpt>
      <trkpt lat="42.25498" lon="2.71543">
        <ele>866</ele>
        <time>2010-01-01T18:48:47Z</time>
      </trkpt>
      <trkpt lat="42.25492" lon="2.71576">
        <ele>866</ele>
        <time>2010-01-01T18:49:12Z</time>
      </trkpt>
      <trkpt lat="42.25486" lon="2.71598">
        <ele>864</ele>
        <time>2010-01-01T18:49:29Z</time>
      </trkpt>
      <trkpt lat="42.25485" lon="2.716">
        <ele>864</ele>
        <time>2010-01-01T18:49:31Z</time>
      </trkpt>
      <trkpt lat="42.25476" lon="2.71619">
        <ele>862</ele>
        <time>2010-01-01T18:49:47Z</time>
      </trkpt>
      <trkpt lat="42.25471" lon="2.71632">
        <ele>861</ele>
        <time>2010-01-01T18:49:58Z</time>
      </trkpt>
      <trkpt lat="42.25469" lon="2.71634">
        <ele>861</ele>
        <time>2010-01-01T18:50:01Z</time>
      </trkpt>
      <trkpt lat="42.25467" lon="2.71639">
        <ele>862</ele>
        <time>2010-01-01T18:50:05Z</time>
      </trkpt>
      <trkpt lat="42.25462" lon="2.71657">
        <ele>862</ele>
        <time>2010-01-01T18:50:19Z</time>
      </trkpt>
      <trkpt lat="42.25456" lon="2.7167">
        <ele>862</ele>
        <time>2010-01-01T18:50:30Z</time>
      </trkpt>
      <trkpt lat="42.25454" lon="2.71675">
        <ele>862</ele>
        <time>2010-01-01T18:50:34Z</time>
      </trkpt>
      <trkpt lat="42.25451" lon="2.71683">
        <ele>862</ele>
        <time>2010-01-01T18:50:41Z</time>
      </trkpt>
      <trkpt lat="42.25446" lon="2.71692">
        <ele>862</ele>
        <time>2010-01-01T18:50:49Z</time>
      </trkpt>
      <trkpt lat="42.25443" lon="2.71697">
        <ele>861</ele>
        <time>2010-01-01T18:50:54Z</time>
      </trkpt>
      <trkpt lat="42.25432" lon="2.71711">
        <ele>860</ele>
        <time>2010-01-01T18:51:10Z</time>
      </trkpt>
      <trkpt lat="42.2543" lon="2.71713">
        <ele>860</ele>
        <time>2010-01-01T18:51:12Z</time>
      </trkpt>
      <trkpt lat="42.25423" lon="2.71723">
        <ele>859</ele>
        <time>2010-01-01T18:51:22Z</time>
      </trkpt>
      <trkpt lat="42.25415" lon="2.71734">
        <ele>859</ele>
        <time>2010-01-01T18:51:34Z</time>
      </trkpt>
      <trkpt lat="42.25408" lon="2.71742">
        <ele>858</ele>
        <time>2010-01-01T18:51:42Z</time>
      </trkpt>
      <trkpt lat="42.25401" lon="2.71752">
        <ele>858</ele>
        <time>2010-01-01T18:51:53Z</time>
      </trkpt>
      <trkpt lat="42.25388" lon="2.71769">
        <ele>855</ele>
        <time>2010-01-01T18:52:11Z</time>
      </trkpt>
      <trkpt lat="42.25379" lon="2.71786">
        <ele>854</ele>
        <time>2010-01-01T18:52:26Z</time>
      </trkpt>
      <trkpt lat="42.25371" lon="2.71804">
        <ele>850</ele>
        <time>2010-01-01T18:52:42Z</time>
      </trkpt>
      <trkpt lat="42.25369" lon="2.71807">
        <ele>850</ele>
        <time>2010-01-01T18:52:45Z</time>
      </trkpt>
      <trkpt lat="42.25366" lon="2.71826">
        <ele>847</ele>
        <time>2010-01-01T18:53:00Z</time>
      </trkpt>
      <trkpt lat="42.25362" lon="2.71842">
        <ele>845</ele>
        <time>2010-01-01T18:53:12Z</time>
      </trkpt>
      <trkpt lat="42.2536" lon="2.71853">
        <ele>844</ele>
        <time>2010-01-01T18:53:20Z</time>
      </trkpt>
      <trkpt lat="42.25358" lon="2.71866">
        <ele>844</ele>
        <time>2010-01-01T18:53:30Z</time>
      </trkpt>
      <trkpt lat="42.25359" lon="2.71901">
        <ele>846</ele>
        <time>2010-01-01T18:53:56Z</time>
      </trkpt>
      <trkpt lat="42.25357" lon="2.7192">
        <ele>846</ele>
        <time>2010-01-01T18:54:10Z</time>
      </trkpt>
      <trkpt lat="42.25354" lon="2.71936">
        <ele>845</ele>
        <time>2010-01-01T18:54:22Z</time>
      </trkpt>
      <trkpt lat="42.25351" lon="2.71952">
        <ele>844</ele>
        <time>2010-01-01T18:54:35Z</time>
      </trkpt>
      <trkpt lat="42.25347" lon="2.71966">
        <ele>844</ele>
        <time>2010-01-01T18:54:46Z</time>
      </trkpt>
      <trkpt lat="42.25346" lon="2.71979">
        <ele>845</ele>
        <time>2010-01-01T18:54:55Z</time>
      </trkpt>
      <trkpt lat="42.25351" lon="2.71989">
        <ele>849</ele>
        <time>2010-01-01T18:55:04Z</time>
      </trkpt>
      <trkpt lat="42.25355" lon="2.7201">
        <ele>857</ele>
        <time>2010-01-01T18:55:20Z</time>
      </trkpt>
      <trkpt lat="42.25353" lon="2.72018">
        <ele>858</ele>
        <time>2010-01-01T18:55:27Z</time>
      </trkpt>
      <trkpt lat="42.25343" lon="2.72039">
        <ele>859</ele>
        <time>2010-01-01T18:55:44Z</time>
      </trkpt>
      <trkpt lat="42.25331" lon="2.72052">
        <ele>858</ele>
        <time>2010-01-01T18:56:00Z</time>
      </trkpt>
      <trkpt lat="42.25323" lon="2.72061">
        <ele>857</ele>
        <time>2010-01-01T18:56:10Z</time>
      </trkpt>
      <trkpt lat="42.25313" lon="2.72076">
        <ele>861</ele>
        <time>2010-01-01T18:56:26Z</time>
      </trkpt>
      <trkpt lat="42.2531" lon="2.72082">
        <ele>863</ele>
        <time>2010-01-01T18:56:31Z</time>
      </trkpt>
      <trkpt lat="42.25304" lon="2.72093">
        <ele>868</ele>
        <time>2010-01-01T18:56:41Z</time>
      </trkpt>
      <trkpt lat="42.25292" lon="2.72104">
        <ele>872</ele>
        <time>2010-01-01T18:56:55Z</time>
      </trkpt>
      <trkpt lat="42.25278" lon="2.72111">
        <ele>873</ele>
        <time>2010-01-01T18:57:11Z</time>
      </trkpt>
      <trkpt lat="42.25263" lon="2.72119">
        <ele>864</ele>
        <time>2010-01-01T18:57:26Z</time>
      </trkpt>
      <trkpt lat="42.25246" lon="2.72134">
        <ele>859</ele>
        <time>2010-01-01T18:57:47Z</time>
      </trkpt>
      <trkpt lat="42.25231" lon="2.72141">
        <ele>852</ele>
        <time>2010-01-01T18:58:03Z</time>
      </trkpt>
      <trkpt lat="42.25205" lon="2.72147">
        <ele>837</ele>
        <time>2010-01-01T18:58:29Z</time>
      </trkpt>
      <trkpt lat="42.2519" lon="2.72153">
        <ele>831</ele>
        <time>2010-01-01T18:58:44Z</time>
      </trkpt>
      <trkpt lat="42.25185" lon="2.72155">
        <ele>829</ele>
        <time>2010-01-01T18:58:49Z</time>
      </trkpt>
      <trkpt lat="42.25177" lon="2.72162">
        <ele>828</ele>
        <time>2010-01-01T18:59:00Z</time>
      </trkpt>
      <trkpt lat="42.25168" lon="2.72169">
        <ele>825</ele>
        <time>2010-01-01T18:59:10Z</time>
      </trkpt>
      <trkpt lat="42.25157" lon="2.72178">
        <ele>826</ele>
        <time>2010-01-01T18:59:22Z</time>
      </trkpt>
      <trkpt lat="42.25148" lon="2.72184">
        <ele>825</ele>
        <time>2010-01-01T18:59:33Z</time>
      </trkpt>
      <trkpt lat="42.25126" lon="2.72184">
        <ele>818</ele>
        <time>2010-01-01T18:59:55Z</time>
      </trkpt>
      <trkpt lat="42.25113" lon="2.72194">
        <ele>821</ele>
        <time>2010-01-01T19:00:10Z</time>
      </trkpt>
      <trkpt lat="42.25098" lon="2.72206">
        <ele>823</ele>
        <time>2010-01-01T19:00:27Z</time>
      </trkpt>
      <trkpt lat="42.25082" lon="2.72221">
        <ele>824</ele>
        <time>2010-01-01T19:00:47Z</time>
      </trkpt>
      <trkpt lat="42.2506" lon="2.72237">
        <ele>819</ele>
        <time>2010-01-01T19:01:12Z</time>
      </trkpt>
      <trkpt lat="42.25059" lon="2.72237">
        <ele>819</ele>
        <time>2010-01-01T19:01:13Z</time>
      </trkpt>
      <trkpt lat="42.25049" lon="2.72246">
        <ele>817</ele>
        <time>2010-01-01T19:01:25Z</time>
      </trkpt>
      <trkpt lat="42.2503" lon="2.72242">
        <ele>811</ele>
        <time>2010-01-01T19:01:44Z</time>
      </trkpt>
      <trkpt lat="42.2502" lon="2.72237">
        <ele>808</ele>
        <time>2010-01-01T19:01:55Z</time>
      </trkpt>
      <trkpt lat="42.25018" lon="2.72233">
        <ele>806</ele>
        <time>2010-01-01T19:01:58Z</time>
      </trkpt>
      <trkpt lat="42.25017" lon="2.72233">
        <ele>806</ele>
        <time>2010-01-01T19:01:59Z</time>
      </trkpt>
      <trkpt lat="42.25017" lon="2.72232">
        <ele>806</ele>
        <time>2010-01-01T19:02:00Z</time>
      </trkpt>
      <trkpt lat="42.25015" lon="2.72229">
        <ele>805</ele>
        <time>2010-01-01T19:02:03Z</time>
      </trkpt>
      <trkpt lat="42.25021" lon="2.72227">
        <ele>806</ele>
        <time>2010-01-01T19:02:09Z</time>
      </trkpt>
      <trkpt lat="42.25021" lon="2.72226">
        <ele>806</ele>
        <time>2010-01-01T19:02:09Z</time>
      </trkpt>
      <trkpt lat="42.25027" lon="2.72228">
        <ele>808</ele>
        <time>2010-01-01T19:02:16Z</time>
      </trkpt>
      <trkpt lat="42.25031" lon="2.72226">
        <ele>809</ele>
        <time>2010-01-01T19:02:21Z</time>
      </trkpt>
      <trkpt lat="42.2504" lon="2.72221">
        <ele>810</ele>
        <time>2010-01-01T19:02:30Z</time>
      </trkpt>
      <trkpt lat="42.25044" lon="2.72215">
        <ele>809</ele>
        <time>2010-01-01T19:02:36Z</time>
      </trkpt>
      <trkpt lat="42.25046" lon="2.72214">
        <ele>809</ele>
        <time>2010-01-01T19:02:38Z</time>
      </trkpt>
      <trkpt lat="42.25054" lon="2.72211">
        <ele>810</ele>
        <time>2010-01-01T19:02:46Z</time>
      </trkpt>
      <trkpt lat="42.25059" lon="2.7221">
        <ele>811</ele>
        <time>2010-01-01T19:02:51Z</time>
      </trkpt>
      <trkpt lat="42.25045" lon="2.72204">
        <ele>806</ele>
        <time>2010-01-01T19:03:05Z</time>
      </trkpt>
      <trkpt lat="42.25047" lon="2.72202">
        <ele>806</ele>
        <time>2010-01-01T19:03:08Z</time>
      </trkpt>
      <trkpt lat="42.25058" lon="2.722">
        <ele>808</ele>
        <time>2010-01-01T19:03:19Z</time>
      </trkpt>
      <trkpt lat="42.25073" lon="2.72196">
        <ele>811</ele>
        <time>2010-01-01T19:03:35Z</time>
      </trkpt>
      <trkpt lat="42.25087" lon="2.72184">
        <ele>808</ele>
        <time>2010-01-01T19:03:51Z</time>
      </trkpt>
      <trkpt lat="42.25097" lon="2.72173">
        <ele>803</ele>
        <time>2010-01-01T19:04:04Z</time>
      </trkpt>
      <trkpt lat="42.25086" lon="2.72175">
        <ele>803</ele>
        <time>2010-01-01T19:04:15Z</time>
      </trkpt>
      <trkpt lat="42.25078" lon="2.72179">
        <ele>803</ele>
        <time>2010-01-01T19:04:23Z</time>
      </trkpt>
      <trkpt lat="42.25078" lon="2.72179">
        <ele>803</ele>
        <time>2010-01-01T19:04:23Z</time>
      </trkpt>
      <trkpt lat="42.25071" lon="2.72184">
        <ele>804</ele>
        <time>2010-01-01T19:04:32Z</time>
      </trkpt>
      <trkpt lat="42.25065" lon="2.72182">
        <ele>801</ele>
        <time>2010-01-01T19:04:38Z</time>
      </trkpt>
      <trkpt lat="42.25054" lon="2.72178">
        <ele>796</ele>
        <time>2010-01-01T19:04:49Z</time>
      </trkpt>
      <trkpt lat="42.2505" lon="2.72175">
        <ele>794</ele>
        <time>2010-01-01T19:04:54Z</time>
      </trkpt>
      <trkpt lat="42.25043" lon="2.72172">
        <ele>792</ele>
        <time>2010-01-01T19:05:01Z</time>
      </trkpt>
      <trkpt lat="42.25026" lon="2.72153">
        <ele>778</ele>
        <time>2010-01-01T19:05:23Z</time>
      </trkpt>
      <trkpt lat="42.25028" lon="2.72148">
        <ele>775</ele>
        <time>2010-01-01T19:05:26Z</time>
      </trkpt>
      <trkpt lat="42.25045" lon="2.72142">
        <ele>771</ele>
        <time>2010-01-01T19:05:44Z</time>
      </trkpt>
      <trkpt lat="42.25057" lon="2.72135">
        <ele>767</ele>
        <time>2010-01-01T19:05:57Z</time>
      </trkpt>
      <trkpt lat="42.25068" lon="2.72123">
        <ele>764</ele>
        <time>2010-01-01T19:06:11Z</time>
      </trkpt>
      <trkpt lat="42.2507" lon="2.72121">
        <ele>763</ele>
        <time>2010-01-01T19:06:14Z</time>
      </trkpt>
      <trkpt lat="42.25074" lon="2.72119">
        <ele>763</ele>
        <time>2010-01-01T19:06:18Z</time>
      </trkpt>
      <trkpt lat="42.25078" lon="2.72118">
        <ele>763</ele>
        <time>2010-01-01T19:06:22Z</time>
      </trkpt>
      <trkpt lat="42.25076" lon="2.72104">
        <ele>756</ele>
        <time>2010-01-01T19:06:32Z</time>
      </trkpt>
      <trkpt lat="42.25075" lon="2.72096">
        <ele>752</ele>
        <time>2010-01-01T19:06:38Z</time>
      </trkpt>
      <trkpt lat="42.25074" lon="2.72088">
        <ele>748</ele>
        <time>2010-01-01T19:06:44Z</time>
      </trkpt>
      <trkpt lat="42.25064" lon="2.72091">
        <ele>747</ele>
        <time>2010-01-01T19:06:54Z</time>
      </trkpt>
      <trkpt lat="42.25061" lon="2.72092">
        <ele>747</ele>
        <time>2010-01-01T19:06:57Z</time>
      </trkpt>
      <trkpt lat="42.25058" lon="2.72093">
        <ele>746</ele>
        <time>2010-01-01T19:07:01Z</time>
      </trkpt>
      <trkpt lat="42.25051" lon="2.7209">
        <ele>744</ele>
        <time>2010-01-01T19:07:08Z</time>
      </trkpt>
      <trkpt lat="42.25039" lon="2.72084">
        <ele>739</ele>
        <time>2010-01-01T19:07:21Z</time>
      </trkpt>
      <trkpt lat="42.25038" lon="2.72084">
        <ele>739</ele>
        <time>2010-01-01T19:07:22Z</time>
      </trkpt>
      <trkpt lat="42.25015" lon="2.72078">
        <ele>733</ele>
        <time>2010-01-01T19:07:45Z</time>
      </trkpt>
      <trkpt lat="42.25008" lon="2.72072">
        <ele>729</ele>
        <time>2010-01-01T19:07:54Z</time>
      </trkpt>
      <trkpt lat="42.25008" lon="2.72069">
        <ele>728</ele>
        <time>2010-01-01T19:07:56Z</time>
      </trkpt>
      <trkpt lat="42.25019" lon="2.72065">
        <ele>727</ele>
        <time>2010-01-01T19:08:08Z</time>
      </trkpt>
      <trkpt lat="42.25021" lon="2.72064">
        <ele>727</ele>
        <time>2010-01-01T19:08:09Z</time>
      </trkpt>
      <trkpt lat="42.24996" lon="2.72053">
        <ele>717</ele>
        <time>2010-01-01T19:08:35Z</time>
      </trkpt>
      <trkpt lat="42.24996" lon="2.72052">
        <ele>717</ele>
        <time>2010-01-01T19:08:36Z</time>
      </trkpt>
      <trkpt lat="42.24996" lon="2.72051">
        <ele>717</ele>
        <time>2010-01-01T19:08:36Z</time>
      </trkpt>
      <trkpt lat="42.24982" lon="2.7205">
        <ele>713</ele>
        <time>2010-01-01T19:08:50Z</time>
      </trkpt>
      <trkpt lat="42.24961" lon="2.72048">
        <ele>706</ele>
        <time>2010-01-01T19:09:11Z</time>
      </trkpt>
      <trkpt lat="42.24958" lon="2.7205">
        <ele>706</ele>
        <time>2010-01-01T19:09:15Z</time>
      </trkpt>
      <trkpt lat="42.24944" lon="2.7206">
        <ele>708</ele>
        <time>2010-01-01T19:09:31Z</time>
      </trkpt>
      <trkpt lat="42.2492" lon="2.72065">
        <ele>710</ele>
        <time>2010-01-01T19:09:55Z</time>
      </trkpt>
      <trkpt lat="42.24911" lon="2.72064">
        <ele>709</ele>
        <time>2010-01-01T19:10:04Z</time>
      </trkpt>
      <trkpt lat="42.24895" lon="2.72059">
        <ele>705</ele>
        <time>2010-01-01T19:10:20Z</time>
      </trkpt>
      <trkpt lat="42.24892" lon="2.72055">
        <ele>703</ele>
        <time>2010-01-01T19:10:24Z</time>
      </trkpt>
      <trkpt lat="42.24892" lon="2.72054">
        <ele>703</ele>
        <time>2010-01-01T19:10:25Z</time>
      </trkpt>
      <trkpt lat="42.24875" lon="2.72053">
        <ele>701</ele>
        <time>2010-01-01T19:10:43Z</time>
      </trkpt>
      <trkpt lat="42.2486" lon="2.72046">
        <ele>695</ele>
        <time>2010-01-01T19:10:58Z</time>
      </trkpt>
      <trkpt lat="42.24859" lon="2.72046">
        <ele>695</ele>
        <time>2010-01-01T19:10:59Z</time>
      </trkpt>
      <trkpt lat="42.24844" lon="2.72042">
        <ele>688</ele>
        <time>2010-01-01T19:11:15Z</time>
      </trkpt>
      <trkpt lat="42.2483" lon="2.72039">
        <ele>683</ele>
        <time>2010-01-01T19:11:29Z</time>
      </trkpt>
      <trkpt lat="42.24824" lon="2.72035">
        <ele>680</ele>
        <time>2010-01-01T19:11:36Z</time>
      </trkpt>
      <trkpt lat="42.24793" lon="2.72049">
        <ele>677</ele>
        <time>2010-01-01T19:12:08Z</time>
      </trkpt>
      <trkpt lat="42.24782" lon="2.72062">
        <ele>676</ele>
        <time>2010-01-01T19:12:23Z</time>
      </trkpt>
      <trkpt lat="42.24768" lon="2.72075">
        <ele>672</ele>
        <time>2010-01-01T19:12:40Z</time>
      </trkpt>
      <trkpt lat="42.24767" lon="2.72075">
        <ele>672</ele>
        <time>2010-01-01T19:12:41Z</time>
      </trkpt>
      <trkpt lat="42.24767" lon="2.72074">
        <ele>672</ele>
        <time>2010-01-01T19:12:41Z</time>
      </trkpt>
      <trkpt lat="42.24767" lon="2.72075">
        <ele>671</ele>
        <time>2010-01-01T19:12:41Z</time>
      </trkpt>
      <trkpt lat="42.24767" lon="2.72074">
        <ele>671</ele>
        <time>2010-01-01T19:12:42Z</time>
      </trkpt>
      <trkpt lat="42.24762" lon="2.72052">
        <ele>663</ele>
        <time>2010-01-01T19:12:58Z</time>
      </trkpt>
      <trkpt lat="42.24759" lon="2.7206">
        <ele>663</ele>
        <time>2010-01-01T19:13:05Z</time>
      </trkpt>
      <trkpt lat="42.24739" lon="2.72064">
        <ele>653</ele>
        <time>2010-01-01T19:13:25Z</time>
      </trkpt>
      <trkpt lat="42.24733" lon="2.72065">
        <ele>650</ele>
        <time>2010-01-01T19:13:32Z</time>
      </trkpt>
      <trkpt lat="42.24733" lon="2.72065">
        <ele>651</ele>
        <time>2010-01-01T19:13:32Z</time>
      </trkpt>
      <trkpt lat="42.24732" lon="2.72066">
        <ele>651</ele>
        <time>2010-01-01T19:13:33Z</time>
      </trkpt>
      <trkpt lat="42.24731" lon="2.72067">
        <ele>650</ele>
        <time>2010-01-01T19:13:34Z</time>
      </trkpt>
      <trkpt lat="42.24729" lon="2.72074">
        <ele>652</ele>
        <time>2010-01-01T19:13:40Z</time>
      </trkpt>
      <trkpt lat="42.2473" lon="2.72077">
        <ele>653</ele>
        <time>2010-01-01T19:13:42Z</time>
      </trkpt>
      <trkpt lat="42.2473" lon="2.72079">
        <ele>653</ele>
        <time>2010-01-01T19:13:44Z</time>
      </trkpt>
      <trkpt lat="42.24726" lon="2.72081">
        <ele>652</ele>
        <time>2010-01-01T19:13:48Z</time>
      </trkpt>
      <trkpt lat="42.24725" lon="2.72083">
        <ele>653</ele>
        <time>2010-01-01T19:13:50Z</time>
      </trkpt>
      <trkpt lat="42.24726" lon="2.72087">
        <ele>655</ele>
        <time>2010-01-01T19:13:53Z</time>
      </trkpt>
      <trkpt lat="42.24727" lon="2.7209">
        <ele>656</ele>
        <time>2010-01-01T19:13:56Z</time>
      </trkpt>
      <trkpt lat="42.2473" lon="2.72094">
        <ele>659</ele>
        <time>2010-01-01T19:13:59Z</time>
      </trkpt>
      <trkpt lat="42.24729" lon="2.72093">
        <ele>658</ele>
        <time>2010-01-01T19:14:00Z</time>
      </trkpt>
      <trkpt lat="42.2473" lon="2.72091">
        <ele>658</ele>
        <time>2010-01-01T19:14:01Z</time>
      </trkpt>
      <trkpt lat="42.24726" lon="2.72084">
        <ele>653</ele>
        <time>2010-01-01T19:14:08Z</time>
      </trkpt>
      <trkpt lat="42.24727" lon="2.72086">
        <ele>655</ele>
        <time>2010-01-01T19:14:10Z</time>
      </trkpt>
      <trkpt lat="42.2473" lon="2.72085">
        <ele>655</ele>
        <time>2010-01-01T19:14:12Z</time>
      </trkpt>
      <trkpt lat="42.24728" lon="2.72082">
        <ele>653</ele>
        <time>2010-01-01T19:14:15Z</time>
      </trkpt>
      <trkpt lat="42.24728" lon="2.72079">
        <ele>653</ele>
        <time>2010-01-01T19:14:17Z</time>
      </trkpt>
      <trkpt lat="42.2473" lon="2.72083">
        <ele>655</ele>
        <time>2010-01-01T19:14:21Z</time>
      </trkpt>
      <trkpt lat="42.2473" lon="2.72091">
        <ele>658</ele>
        <time>2010-01-01T19:14:27Z</time>
      </trkpt>
      <trkpt lat="42.2474" lon="2.72116">
        <ele>672</ele>
        <time>2010-01-01T19:14:48Z</time>
      </trkpt>
      <trkpt lat="42.2474" lon="2.72116">
        <ele>671</ele>
        <time>2010-01-01T19:14:49Z</time>
      </trkpt>
      <trkpt lat="42.24742" lon="2.72125">
        <ele>677</ele>
        <time>2010-01-01T19:14:55Z</time>
      </trkpt>
      <trkpt lat="42.24741" lon="2.72125">
        <ele>676</ele>
        <time>2010-01-01T19:14:57Z</time>
      </trkpt>
      <trkpt lat="42.2474" lon="2.72126">
        <ele>677</ele>
        <time>2010-01-01T19:14:58Z</time>
      </trkpt>
      <trkpt lat="42.2474" lon="2.72127">
        <ele>677</ele>
        <time>2010-01-01T19:14:59Z</time>
      </trkpt>
      <trkpt lat="42.24742" lon="2.72126">
        <ele>677</ele>
        <time>2010-01-01T19:15:00Z</time>
      </trkpt>
      <trkpt lat="42.24742" lon="2.72127">
        <ele>678</ele>
        <time>2010-01-01T19:15:00Z</time>
      </trkpt>
      <trkpt lat="42.24747" lon="2.72135">
        <ele>684</ele>
        <time>2010-01-01T19:15:08Z</time>
      </trkpt>
      <trkpt lat="42.24747" lon="2.72139">
        <ele>686</ele>
        <time>2010-01-01T19:15:12Z</time>
      </trkpt>
      <trkpt lat="42.24741" lon="2.72141">
        <ele>685</ele>
        <time>2010-01-01T19:15:17Z</time>
      </trkpt>
      <trkpt lat="42.24736" lon="2.72142">
        <ele>684</ele>
        <time>2010-01-01T19:15:22Z</time>
      </trkpt>
      <trkpt lat="42.24723" lon="2.72141">
        <ele>678</ele>
        <time>2010-01-01T19:15:36Z</time>
      </trkpt>
      <trkpt lat="42.24718" lon="2.72136">
        <ele>673</ele>
        <time>2010-01-01T19:15:42Z</time>
      </trkpt>
      <trkpt lat="42.24718" lon="2.72134">
        <ele>672</ele>
        <time>2010-01-01T19:15:43Z</time>
      </trkpt>
      <trkpt lat="42.24714" lon="2.72125">
        <ele>666</ele>
        <time>2010-01-01T19:15:51Z</time>
      </trkpt>
      <trkpt lat="42.24718" lon="2.72123">
        <ele>667</ele>
        <time>2010-01-01T19:15:56Z</time>
      </trkpt>
      <trkpt lat="42.24715" lon="2.72115">
        <ele>661</ele>
        <time>2010-01-01T19:16:03Z</time>
      </trkpt>
      <trkpt lat="42.24708" lon="2.72111">
        <ele>657</ele>
        <time>2010-01-01T19:16:10Z</time>
      </trkpt>
      <trkpt lat="42.24699" lon="2.72105">
        <ele>652</ele>
        <time>2010-01-01T19:16:20Z</time>
      </trkpt>
      <trkpt lat="42.24696" lon="2.72101">
        <ele>649</ele>
        <time>2010-01-01T19:16:24Z</time>
      </trkpt>
      <trkpt lat="42.24695" lon="2.72101">
        <ele>649</ele>
        <time>2010-01-01T19:16:25Z</time>
      </trkpt>
      <trkpt lat="42.24692" lon="2.721">
        <ele>648</ele>
        <time>2010-01-01T19:16:29Z</time>
      </trkpt>
      <trkpt lat="42.24688" lon="2.72097">
        <ele>646</ele>
        <time>2010-01-01T19:16:33Z</time>
      </trkpt>
      <trkpt lat="42.24688" lon="2.72097">
        <ele>646</ele>
        <time>2010-01-01T19:16:33Z</time>
      </trkpt>
      <trkpt lat="42.24687" lon="2.72102">
        <ele>648</ele>
        <time>2010-01-01T19:16:37Z</time>
      </trkpt>
      <trkpt lat="42.24686" lon="2.72102">
        <ele>648</ele>
        <time>2010-01-01T19:16:38Z</time>
      </trkpt>
      <trkpt lat="42.24684" lon="2.72106">
        <ele>649</ele>
        <time>2010-01-01T19:16:41Z</time>
      </trkpt>
      <trkpt lat="42.24676" lon="2.72096">
        <ele>643</ele>
        <time>2010-01-01T19:16:53Z</time>
      </trkpt>
      <trkpt lat="42.24674" lon="2.72098">
        <ele>644</ele>
        <time>2010-01-01T19:16:55Z</time>
      </trkpt>
      <trkpt lat="42.24673" lon="2.72093">
        <ele>642</ele>
        <time>2010-01-01T19:17:00Z</time>
      </trkpt>
      <trkpt lat="42.24672" lon="2.72089">
        <ele>640</ele>
        <time>2010-01-01T19:17:03Z</time>
      </trkpt>
      <trkpt lat="42.24669" lon="2.72072">
        <ele>633</ele>
        <time>2010-01-01T19:17:15Z</time>
      </trkpt>
      <trkpt lat="42.24672" lon="2.72072">
        <ele>634</ele>
        <time>2010-01-01T19:17:18Z</time>
      </trkpt>
      <trkpt lat="42.24671" lon="2.7207">
        <ele>633</ele>
        <time>2010-01-01T19:17:20Z</time>
      </trkpt>
      <trkpt lat="42.24671" lon="2.7207">
        <ele>633</ele>
        <time>2010-01-01T19:17:20Z</time>
      </trkpt>
      <trkpt lat="42.24676" lon="2.7207">
        <ele>634</ele>
        <time>2010-01-01T19:17:25Z</time>
      </trkpt>
      <trkpt lat="42.2467" lon="2.72058">
        <ele>628</ele>
        <time>2010-01-01T19:17:35Z</time>
      </trkpt>
      <trkpt lat="42.24672" lon="2.72059">
        <ele>629</ele>
        <time>2010-01-01T19:17:37Z</time>
      </trkpt>
      <trkpt lat="42.24649" lon="2.72049">
        <ele>621</ele>
        <time>2010-01-01T19:18:00Z</time>
      </trkpt>
      <trkpt lat="42.24647" lon="2.72048">
        <ele>621</ele>
        <time>2010-01-01T19:18:02Z</time>
      </trkpt>
      <trkpt lat="42.24649" lon="2.72054">
        <ele>623</ele>
        <time>2010-01-01T19:18:07Z</time>
      </trkpt>
      <trkpt lat="42.24634" lon="2.72043">
        <ele>616</ele>
        <time>2010-01-01T19:18:25Z</time>
      </trkpt>
      <trkpt lat="42.24593" lon="2.72024">
        <ele>604</ele>
        <time>2010-01-01T19:19:07Z</time>
      </trkpt>
      <trkpt lat="42.2458" lon="2.72026">
        <ele>602</ele>
        <time>2010-01-01T19:19:21Z</time>
      </trkpt>
      <trkpt lat="42.24577" lon="2.7203">
        <ele>602</ele>
        <time>2010-01-01T19:19:25Z</time>
      </trkpt>
      <trkpt lat="42.24577" lon="2.7203">
        <ele>602</ele>
        <time>2010-01-01T19:19:26Z</time>
      </trkpt>
      <trkpt lat="42.24561" lon="2.72019">
        <ele>594</ele>
        <time>2010-01-01T19:19:44Z</time>
      </trkpt>
      <trkpt lat="42.24568" lon="2.71995">
        <ele>591</ele>
        <time>2010-01-01T19:20:03Z</time>
      </trkpt>
      <trkpt lat="42.24569" lon="2.71989">
        <ele>590</ele>
        <time>2010-01-01T19:20:08Z</time>
      </trkpt>
      <trkpt lat="42.24572" lon="2.7197">
        <ele>587</ele>
        <time>2010-01-01T19:20:22Z</time>
      </trkpt>
      <trkpt lat="42.24562" lon="2.7195">
        <ele>582</ele>
        <time>2010-01-01T19:20:40Z</time>
      </trkpt>
      <trkpt lat="42.24553" lon="2.71955">
        <ele>581</ele>
        <time>2010-01-01T19:20:50Z</time>
      </trkpt>
      <trkpt lat="42.24544" lon="2.71976">
        <ele>579</ele>
        <time>2010-01-01T19:21:08Z</time>
      </trkpt>
      <trkpt lat="42.2454" lon="2.71981">
        <ele>578</ele>
        <time>2010-01-01T19:21:13Z</time>
      </trkpt>
      <trkpt lat="42.24539" lon="2.71982">
        <ele>578</ele>
        <time>2010-01-01T19:21:14Z</time>
      </trkpt>
      <trkpt lat="42.24535" lon="2.71977">
        <ele>576</ele>
        <time>2010-01-01T19:21:20Z</time>
      </trkpt>
      <trkpt lat="42.24539" lon="2.71958">
        <ele>576</ele>
        <time>2010-01-01T19:21:35Z</time>
      </trkpt>
      <trkpt lat="42.2454" lon="2.71956">
        <ele>576</ele>
        <time>2010-01-01T19:21:36Z</time>
      </trkpt>
      <trkpt lat="42.24539" lon="2.71943">
        <ele>574</ele>
        <time>2010-01-01T19:21:46Z</time>
      </trkpt>
      <trkpt lat="42.24533" lon="2.71918">
        <ele>568</ele>
        <time>2010-01-01T19:22:05Z</time>
      </trkpt>
      <trkpt lat="42.24532" lon="2.71895">
        <ele>564</ele>
        <time>2010-01-01T19:22:22Z</time>
      </trkpt>
      <trkpt lat="42.2453" lon="2.71882">
        <ele>562</ele>
        <time>2010-01-01T19:22:32Z</time>
      </trkpt>
      <trkpt lat="42.2453" lon="2.71862">
        <ele>560</ele>
        <time>2010-01-01T19:22:47Z</time>
      </trkpt>
      <trkpt lat="42.24529" lon="2.71861">
        <ele>560</ele>
        <time>2010-01-01T19:22:48Z</time>
      </trkpt>
      <trkpt lat="42.24529" lon="2.71851">
        <ele>558</ele>
        <time>2010-01-01T19:22:55Z</time>
      </trkpt>
      <trkpt lat="42.24525" lon="2.7183">
        <ele>554</ele>
        <time>2010-01-01T19:23:11Z</time>
      </trkpt>
      <trkpt lat="42.24514" lon="2.71812">
        <ele>549</ele>
        <time>2010-01-01T19:23:29Z</time>
      </trkpt>
      <trkpt lat="42.24513" lon="2.71811">
        <ele>549</ele>
        <time>2010-01-01T19:23:30Z</time>
      </trkpt>
      <trkpt lat="42.24501" lon="2.71797">
        <ele>545</ele>
        <time>2010-01-01T19:23:46Z</time>
      </trkpt>
      <trkpt lat="42.24486" lon="2.71782">
        <ele>539</ele>
        <time>2010-01-01T19:24:04Z</time>
      </trkpt>
      <trkpt lat="42.24484" lon="2.71778">
        <ele>539</ele>
        <time>2010-01-01T19:24:08Z</time>
      </trkpt>
      <trkpt lat="42.24479" lon="2.71767">
        <ele>536</ele>
        <time>2010-01-01T19:24:18Z</time>
      </trkpt>
      <trkpt lat="42.24478" lon="2.71762">
        <ele>535</ele>
        <time>2010-01-01T19:24:22Z</time>
      </trkpt>
      <trkpt lat="42.24474" lon="2.7176">
        <ele>534</ele>
        <time>2010-01-01T19:24:26Z</time>
      </trkpt>
      <trkpt lat="42.24471" lon="2.71756">
        <ele>534</ele>
        <time>2010-01-01T19:24:30Z</time>
      </trkpt>
      <trkpt lat="42.24469" lon="2.71749">
        <ele>533</ele>
        <time>2010-01-01T19:24:36Z</time>
      </trkpt>
      <trkpt lat="42.24464" lon="2.71747">
        <ele>531</ele>
        <time>2010-01-01T19:24:41Z</time>
      </trkpt>
      <trkpt lat="42.24461" lon="2.71738">
        <ele>530</ele>
        <time>2010-01-01T19:24:47Z</time>
      </trkpt>
      <trkpt lat="42.24457" lon="2.71727">
        <ele>529</ele>
        <time>2010-01-01T19:24:57Z</time>
      </trkpt>
      <trkpt lat="42.24455" lon="2.71719">
        <ele>528</ele>
        <time>2010-01-01T19:25:03Z</time>
      </trkpt>
      <trkpt lat="42.24455" lon="2.71714">
        <ele>526</ele>
        <time>2010-01-01T19:25:06Z</time>
      </trkpt>
      <trkpt lat="42.24449" lon="2.7172">
        <ele>527</ele>
        <time>2010-01-01T19:25:14Z</time>
      </trkpt>
      <trkpt lat="42.24441" lon="2.71714">
        <ele>523</ele>
        <time>2010-01-01T19:25:23Z</time>
      </trkpt>
      <trkpt lat="42.24425" lon="2.71706">
        <ele>517</ele>
        <time>2010-01-01T19:25:39Z</time>
      </trkpt>
      <trkpt lat="42.24422" lon="2.71706">
        <ele>516</ele>
        <time>2010-01-01T19:25:43Z</time>
      </trkpt>
      <trkpt lat="42.2442" lon="2.71714">
        <ele>517</ele>
        <time>2010-01-01T19:25:49Z</time>
      </trkpt>
      <trkpt lat="42.24424" lon="2.71726">
        <ele>519</ele>
        <time>2010-01-01T19:25:59Z</time>
      </trkpt>
      <trkpt lat="42.24425" lon="2.71732">
        <ele>519</ele>
        <time>2010-01-01T19:26:04Z</time>
      </trkpt>
      <trkpt lat="42.24427" lon="2.71743">
        <ele>520</ele>
        <time>2010-01-01T19:26:12Z</time>
      </trkpt>
      <trkpt lat="42.2443" lon="2.71761">
        <ele>519</ele>
        <time>2010-01-01T19:26:25Z</time>
      </trkpt>
      <trkpt lat="42.24435" lon="2.71784">
        <ele>517</ele>
        <time>2010-01-01T19:26:43Z</time>
      </trkpt>
      <trkpt lat="42.2442" lon="2.71767">
        <ele>513</ele>
        <time>2010-01-01T19:27:03Z</time>
      </trkpt>
      <trkpt lat="42.24411" lon="2.71757">
        <ele>510</ele>
        <time>2010-01-01T19:27:14Z</time>
      </trkpt>
      <trkpt lat="42.24408" lon="2.71752">
        <ele>509</ele>
        <time>2010-01-01T19:27:19Z</time>
      </trkpt>
      <trkpt lat="42.24406" lon="2.71749">
        <ele>508</ele>
        <time>2010-01-01T19:27:22Z</time>
      </trkpt>
      <trkpt lat="42.24402" lon="2.71747">
        <ele>506</ele>
        <time>2010-01-01T19:27:26Z</time>
      </trkpt>
      <trkpt lat="42.24403" lon="2.71748">
        <ele>506</ele>
        <time>2010-01-01T19:27:27Z</time>
      </trkpt>
      <trkpt lat="42.24409" lon="2.71757">
        <ele>509</ele>
        <time>2010-01-01T19:27:36Z</time>
      </trkpt>
      <trkpt lat="42.24409" lon="2.71758">
        <ele>509</ele>
        <time>2010-01-01T19:27:37Z</time>
      </trkpt>
      <trkpt lat="42.24416" lon="2.71764">
        <ele>512</ele>
        <time>2010-01-01T19:27:45Z</time>
      </trkpt>
      <trkpt lat="42.24414" lon="2.71766">
        <ele>510</ele>
        <time>2010-01-01T19:27:48Z</time>
      </trkpt>
      <trkpt lat="42.24413" lon="2.71785">
        <ele>506</ele>
        <time>2010-01-01T19:28:02Z</time>
      </trkpt>
      <trkpt lat="42.24409" lon="2.7178">
        <ele>505</ele>
        <time>2010-01-01T19:28:06Z</time>
      </trkpt>
      <trkpt lat="42.24412" lon="2.71779">
        <ele>507</ele>
        <time>2010-01-01T19:28:10Z</time>
      </trkpt>
      <trkpt lat="42.24409" lon="2.71786">
        <ele>504</ele>
        <time>2010-01-01T19:28:16Z</time>
      </trkpt>
      <trkpt lat="42.2441" lon="2.7179">
        <ele>504</ele>
        <time>2010-01-01T19:28:19Z</time>
      </trkpt>
      <trkpt lat="42.24411" lon="2.718">
        <ele>503</ele>
        <time>2010-01-01T19:28:26Z</time>
      </trkpt>
      <trkpt lat="42.24412" lon="2.71803">
        <ele>503</ele>
        <time>2010-01-01T19:28:29Z</time>
      </trkpt>
      <trkpt lat="42.24412" lon="2.71803">
        <ele>504</ele>
        <time>2010-01-01T19:28:30Z</time>
      </trkpt>
      <trkpt lat="42.24402" lon="2.71807">
        <ele>499</ele>
        <time>2010-01-01T19:28:40Z</time>
      </trkpt>
      <trkpt lat="42.24393" lon="2.718">
        <ele>495</ele>
        <time>2010-01-01T19:28:50Z</time>
      </trkpt>
      <trkpt lat="42.24391" lon="2.71793">
        <ele>494</ele>
        <time>2010-01-01T19:28:56Z</time>
      </trkpt>
      <trkpt lat="42.24386" lon="2.71789">
        <ele>492</ele>
        <time>2010-01-01T19:29:02Z</time>
      </trkpt>
      <trkpt lat="42.24378" lon="2.71774">
        <ele>489</ele>
        <time>2010-01-01T19:29:16Z</time>
      </trkpt>
      <trkpt lat="42.2437" lon="2.7176">
        <ele>486</ele>
        <time>2010-01-01T19:29:29Z</time>
      </trkpt>
      <trkpt lat="42.24363" lon="2.7175">
        <ele>484</ele>
        <time>2010-01-01T19:29:39Z</time>
      </trkpt>
      <trkpt lat="42.24351" lon="2.71736">
        <ele>480</ele>
        <time>2010-01-01T19:29:55Z</time>
      </trkpt>
      <trkpt lat="42.2435" lon="2.71736">
        <ele>480</ele>
        <time>2010-01-01T19:29:55Z</time>
      </trkpt>
      <trkpt lat="42.24338" lon="2.71721">
        <ele>476</ele>
        <time>2010-01-01T19:30:12Z</time>
      </trkpt>
      <trkpt lat="42.24323" lon="2.71724">
        <ele>471</ele>
        <time>2010-01-01T19:30:27Z</time>
      </trkpt>
      <trkpt lat="42.24319" lon="2.71727">
        <ele>469</ele>
        <time>2010-01-01T19:30:32Z</time>
      </trkpt>
      <trkpt lat="42.24317" lon="2.71728">
        <ele>468</ele>
        <time>2010-01-01T19:30:34Z</time>
      </trkpt>
      <trkpt lat="42.24306" lon="2.71725">
        <ele>464</ele>
        <time>2010-01-01T19:30:46Z</time>
      </trkpt>
      <trkpt lat="42.24306" lon="2.71718">
        <ele>465</ele>
        <time>2010-01-01T19:30:51Z</time>
      </trkpt>
      <trkpt lat="42.24309" lon="2.71706">
        <ele>465</ele>
        <time>2010-01-01T19:31:00Z</time>
      </trkpt>
      <trkpt lat="42.24311" lon="2.71692">
        <ele>465</ele>
        <time>2010-01-01T19:31:10Z</time>
      </trkpt>
      <trkpt lat="42.24309" lon="2.71689">
        <ele>464</ele>
        <time>2010-01-01T19:31:13Z</time>
      </trkpt>
      <trkpt lat="42.24296" lon="2.7169">
        <ele>459</ele>
        <time>2010-01-01T19:31:27Z</time>
      </trkpt>
      <trkpt lat="42.2428" lon="2.71705">
        <ele>455</ele>
        <time>2010-01-01T19:31:46Z</time>
      </trkpt>
      <trkpt lat="42.24271" lon="2.71744">
        <ele>452</ele>
        <time>2010-01-01T19:32:16Z</time>
      </trkpt>
      <trkpt lat="42.24269" lon="2.71754">
        <ele>450</ele>
        <time>2010-01-01T19:32:24Z</time>
      </trkpt>
      <trkpt lat="42.24262" lon="2.71762">
        <ele>446</ele>
        <time>2010-01-01T19:32:33Z</time>
      </trkpt>
      <trkpt lat="42.24257" lon="2.71754">
        <ele>445</ele>
        <time>2010-01-01T19:32:41Z</time>
      </trkpt>
      <trkpt lat="42.24255" lon="2.71744">
        <ele>445</ele>
        <time>2010-01-01T19:32:48Z</time>
      </trkpt>
      <trkpt lat="42.2425" lon="2.71729">
        <ele>443</ele>
        <time>2010-01-01T19:33:01Z</time>
      </trkpt>
      <trkpt lat="42.24241" lon="2.71722">
        <ele>440</ele>
        <time>2010-01-01T19:33:11Z</time>
      </trkpt>
      <trkpt lat="42.24236" lon="2.7174">
        <ele>438</ele>
        <time>2010-01-01T19:33:25Z</time>
      </trkpt>
      <trkpt lat="42.24237" lon="2.71763">
        <ele>437</ele>
        <time>2010-01-01T19:33:43Z</time>
      </trkpt>
      <trkpt lat="42.2423" lon="2.71785">
        <ele>432</ele>
        <time>2010-01-01T19:34:00Z</time>
      </trkpt>
      <trkpt lat="42.24222" lon="2.71765">
        <ele>432</ele>
        <time>2010-01-01T19:34:17Z</time>
      </trkpt>
      <trkpt lat="42.24217" lon="2.71748">
        <ele>431</ele>
        <time>2010-01-01T19:34:31Z</time>
      </trkpt>
      <trkpt lat="42.24212" lon="2.71725">
        <ele>427</ele>
        <time>2010-01-01T19:34:48Z</time>
      </trkpt>
      <trkpt lat="42.24212" lon="2.71719">
        <ele>427</ele>
        <time>2010-01-01T19:34:53Z</time>
      </trkpt>
      <trkpt lat="42.24212" lon="2.71703">
        <ele>427</ele>
        <time>2010-01-01T19:35:05Z</time>
      </trkpt>
      <trkpt lat="42.24216" lon="2.7169">
        <ele>427</ele>
        <time>2010-01-01T19:35:16Z</time>
      </trkpt>
      <trkpt lat="42.24217" lon="2.71687">
        <ele>427</ele>
        <time>2010-01-01T19:35:18Z</time>
      </trkpt>
      <trkpt lat="42.24215" lon="2.71675">
        <ele>424</ele>
        <time>2010-01-01T19:35:27Z</time>
      </trkpt>
      <trkpt lat="42.2422" lon="2.71664">
        <ele>425</ele>
        <time>2010-01-01T19:35:37Z</time>
      </trkpt>
      <trkpt lat="42.24227" lon="2.71654">
        <ele>426</ele>
        <time>2010-01-01T19:35:47Z</time>
      </trkpt>
      <trkpt lat="42.24227" lon="2.71654">
        <ele>426</ele>
        <time>2010-01-01T19:35:47Z</time>
      </trkpt>
      <trkpt lat="42.24231" lon="2.71638">
        <ele>424</ele>
        <time>2010-01-01T19:36:00Z</time>
      </trkpt>
      <trkpt lat="42.24233" lon="2.71626">
        <ele>422</ele>
        <time>2010-01-01T19:36:08Z</time>
      </trkpt>
      <trkpt lat="42.24235" lon="2.71623">
        <ele>422</ele>
        <time>2010-01-01T19:36:12Z</time>
      </trkpt>
      <trkpt lat="42.24238" lon="2.71614">
        <ele>421</ele>
        <time>2010-01-01T19:36:19Z</time>
      </trkpt>
      <trkpt lat="42.24238" lon="2.71613">
        <ele>420</ele>
        <time>2010-01-01T19:36:19Z</time>
      </trkpt>
      <trkpt lat="42.24243" lon="2.71599">
        <ele>418</ele>
        <time>2010-01-01T19:36:31Z</time>
      </trkpt>
      <trkpt lat="42.24244" lon="2.71596">
        <ele>418</ele>
        <time>2010-01-01T19:36:33Z</time>
      </trkpt>
      <trkpt lat="42.24242" lon="2.71582">
        <ele>413</ele>
        <time>2010-01-01T19:36:44Z</time>
      </trkpt>
      <trkpt lat="42.24247" lon="2.71582">
        <ele>415</ele>
        <time>2010-01-01T19:36:49Z</time>
      </trkpt>
      <trkpt lat="42.24246" lon="2.71582">
        <ele>415</ele>
        <time>2010-01-01T19:36:50Z</time>
      </trkpt>
      <trkpt lat="42.24244" lon="2.71586">
        <ele>415</ele>
        <time>2010-01-01T19:36:54Z</time>
      </trkpt>
      <trkpt lat="42.24245" lon="2.71594">
        <ele>418</ele>
        <time>2010-01-01T19:37:00Z</time>
      </trkpt>
      <trkpt lat="42.24244" lon="2.71591">
        <ele>417</ele>
        <time>2010-01-01T19:37:02Z</time>
      </trkpt>
      <trkpt lat="42.24241" lon="2.71583">
        <ele>413</ele>
        <time>2010-01-01T19:37:09Z</time>
      </trkpt>
      <trkpt lat="42.24239" lon="2.71572">
        <ele>410</ele>
        <time>2010-01-01T19:37:17Z</time>
      </trkpt>
      <trkpt lat="42.24239" lon="2.71562">
        <ele>408</ele>
        <time>2010-01-01T19:37:24Z</time>
      </trkpt>
      <trkpt lat="42.24238" lon="2.71562">
        <ele>407</ele>
        <time>2010-01-01T19:37:25Z</time>
      </trkpt>
      <trkpt lat="42.24237" lon="2.71554">
        <ele>405</ele>
        <time>2010-01-01T19:37:31Z</time>
      </trkpt>
      <trkpt lat="42.2424" lon="2.71544">
        <ele>404</ele>
        <time>2010-01-01T19:37:39Z</time>
      </trkpt>
      <trkpt lat="42.24232" lon="2.71539">
        <ele>401</ele>
        <time>2010-01-01T19:37:48Z</time>
      </trkpt>
      <trkpt lat="42.2423" lon="2.71541">
        <ele>401</ele>
        <time>2010-01-01T19:37:50Z</time>
      </trkpt>
      <trkpt lat="42.24231" lon="2.71543">
        <ele>402</ele>
        <time>2010-01-01T19:37:52Z</time>
      </trkpt>
      <trkpt lat="42.24232" lon="2.71543">
        <ele>402</ele>
        <time>2010-01-01T19:37:53Z</time>
      </trkpt>
      <trkpt lat="42.24217" lon="2.71541">
        <ele>399</ele>
        <time>2010-01-01T19:38:08Z</time>
      </trkpt>
      <trkpt lat="42.24215" lon="2.7154">
        <ele>398</ele>
        <time>2010-01-01T19:38:09Z</time>
      </trkpt>
      <trkpt lat="42.24191" lon="2.71533">
        <ele>395</ele>
        <time>2010-01-01T19:38:34Z</time>
      </trkpt>
      <trkpt lat="42.2416" lon="2.71524">
        <ele>389</ele>
        <time>2010-01-01T19:39:06Z</time>
      </trkpt>
      <trkpt lat="42.24159" lon="2.71521">
        <ele>389</ele>
        <time>2010-01-01T19:39:08Z</time>
      </trkpt>
      <trkpt lat="42.24158" lon="2.71512">
        <ele>388</ele>
        <time>2010-01-01T19:39:15Z</time>
      </trkpt>
      <trkpt lat="42.24153" lon="2.71497">
        <ele>387</ele>
        <time>2010-01-01T19:39:27Z</time>
      </trkpt>
      <trkpt lat="42.24146" lon="2.71484">
        <ele>386</ele>
        <time>2010-01-01T19:39:39Z</time>
      </trkpt>
      <trkpt lat="42.24141" lon="2.71466">
        <ele>384</ele>
        <time>2010-01-01T19:39:54Z</time>
      </trkpt>
      <trkpt lat="42.2414" lon="2.71464">
        <ele>383</ele>
        <time>2010-01-01T19:39:56Z</time>
      </trkpt>
      <trkpt lat="42.24115" lon="2.71452">
        <ele>382</ele>
        <time>2010-01-01T19:40:21Z</time>
      </trkpt>
      <trkpt lat="42.24111" lon="2.71451">
        <ele>382</ele>
        <time>2010-01-01T19:40:26Z</time>
      </trkpt>
      <trkpt lat="42.24105" lon="2.71465">
        <ele>383</ele>
        <time>2010-01-01T19:40:38Z</time>
      </trkpt>
      <trkpt lat="42.24104" lon="2.7147">
        <ele>383</ele>
        <time>2010-01-01T19:40:42Z</time>
      </trkpt>
      <trkpt lat="42.24098" lon="2.71483">
        <ele>383</ele>
        <time>2010-01-01T19:40:53Z</time>
      </trkpt>
      <trkpt lat="42.24093" lon="2.71493">
        <ele>382</ele>
        <time>2010-01-01T19:41:02Z</time>
      </trkpt>
      <trkpt lat="42.24072" lon="2.71501">
        <ele>381</ele>
        <time>2010-01-01T19:41:24Z</time>
      </trkpt>
      <trkpt lat="42.24065" lon="2.715">
        <ele>380</ele>
        <time>2010-01-01T19:41:31Z</time>
      </trkpt>
      <trkpt lat="42.24055" lon="2.71495">
        <ele>379</ele>
        <time>2010-01-01T19:41:42Z</time>
      </trkpt>
      <trkpt lat="42.24054" lon="2.71494">
        <ele>379</ele>
        <time>2010-01-01T19:41:43Z</time>
      </trkpt>
      <trkpt lat="42.24028" lon="2.71493">
        <ele>375</ele>
        <time>2010-01-01T19:42:09Z</time>
      </trkpt>
      <trkpt lat="42.24015" lon="2.71503">
        <ele>372</ele>
        <time>2010-01-01T19:42:24Z</time>
      </trkpt>
      <trkpt lat="42.23998" lon="2.71513">
        <ele>367</ele>
        <time>2010-01-01T19:42:43Z</time>
      </trkpt>
      <trkpt lat="42.23986" lon="2.71504">
        <ele>364</ele>
        <time>2010-01-01T19:42:57Z</time>
      </trkpt>
      <trkpt lat="42.23986" lon="2.71504">
        <ele>364</ele>
        <time>2010-01-01T19:42:57Z</time>
      </trkpt>
      <trkpt lat="42.23986" lon="2.71503">
        <ele>364</ele>
        <time>2010-01-01T19:42:57Z</time>
      </trkpt>
      <trkpt lat="42.23979" lon="2.7149">
        <ele>362</ele>
        <time>2010-01-01T19:43:09Z</time>
      </trkpt>
      <trkpt lat="42.23976" lon="2.71487">
        <ele>361</ele>
        <time>2010-01-01T19:43:13Z</time>
      </trkpt>
      <trkpt lat="42.23974" lon="2.71475">
        <ele>360</ele>
        <time>2010-01-01T19:43:22Z</time>
      </trkpt>
      <trkpt lat="42.23976" lon="2.7146">
        <ele>361</ele>
        <time>2010-01-01T19:43:33Z</time>
      </trkpt>
      <trkpt lat="42.23977" lon="2.71457">
        <ele>361</ele>
        <time>2010-01-01T19:43:35Z</time>
      </trkpt>
      <trkpt lat="42.23988" lon="2.71446">
        <ele>363</ele>
        <time>2010-01-01T19:43:49Z</time>
      </trkpt>
      <trkpt lat="42.24008" lon="2.71433">
        <ele>367</ele>
        <time>2010-01-01T19:44:11Z</time>
      </trkpt>
      <trkpt lat="42.24008" lon="2.71432">
        <ele>367</ele>
        <time>2010-01-01T19:44:12Z</time>
      </trkpt>
      <trkpt lat="42.24019" lon="2.7142">
        <ele>368</ele>
        <time>2010-01-01T19:44:26Z</time>
      </trkpt>
      <trkpt lat="42.2402" lon="2.7141">
        <ele>368</ele>
        <time>2010-01-01T19:44:33Z</time>
      </trkpt>
      <trkpt lat="42.24016" lon="2.71401">
        <ele>367</ele>
        <time>2010-01-01T19:44:41Z</time>
      </trkpt>
      <trkpt lat="42.24006" lon="2.71377">
        <ele>364</ele>
        <time>2010-01-01T19:45:02Z</time>
      </trkpt>
      <trkpt lat="42.24001" lon="2.71363">
        <ele>363</ele>
        <time>2010-01-01T19:45:13Z</time>
      </trkpt>
      <trkpt lat="42.23997" lon="2.71343">
        <ele>363</ele>
        <time>2010-01-01T19:45:29Z</time>
      </trkpt>
      <trkpt lat="42.23989" lon="2.71322">
        <ele>363</ele>
        <time>2010-01-01T19:45:46Z</time>
      </trkpt>
      <trkpt lat="42.23971" lon="2.71307">
        <ele>360</ele>
        <time>2010-01-01T19:46:08Z</time>
      </trkpt>
      <trkpt lat="42.23962" lon="2.71305">
        <ele>360</ele>
        <time>2010-01-01T19:46:17Z</time>
      </trkpt>
      <trkpt lat="42.23952" lon="2.71299">
        <ele>359</ele>
        <time>2010-01-01T19:46:27Z</time>
      </trkpt>
      <trkpt lat="42.23951" lon="2.71299">
        <ele>359</ele>
        <time>2010-01-01T19:46:29Z</time>
      </trkpt>
      <trkpt lat="42.23941" lon="2.71291">
        <ele>358</ele>
        <time>2010-01-01T19:46:41Z</time>
      </trkpt>
      <trkpt lat="42.23927" lon="2.7128">
        <ele>358</ele>
        <time>2010-01-01T19:46:57Z</time>
      </trkpt>
      <trkpt lat="42.23917" lon="2.71278">
        <ele>358</ele>
        <time>2010-01-01T19:47:06Z</time>
      </trkpt>
      <trkpt lat="42.23915" lon="2.71278">
        <ele>357</ele>
        <time>2010-01-01T19:47:09Z</time>
      </trkpt>
      <trkpt lat="42.2391" lon="2.71278">
        <ele>357</ele>
        <time>2010-01-01T19:47:14Z</time>
      </trkpt>
      <trkpt lat="42.23907" lon="2.71278">
        <ele>356</ele>
        <time>2010-01-01T19:47:17Z</time>
      </trkpt>
      <trkpt lat="42.239" lon="2.71277">
        <ele>356</ele>
        <time>2010-01-01T19:47:23Z</time>
      </trkpt>
      <trkpt lat="42.23893" lon="2.71277">
        <ele>355</ele>
        <time>2010-01-01T19:47:31Z</time>
      </trkpt>
      <trkpt lat="42.2388" lon="2.7127">
        <ele>352</ele>
        <time>2010-01-01T19:47:45Z</time>
      </trkpt>
      <trkpt lat="42.23877" lon="2.71263">
        <ele>352</ele>
        <time>2010-01-01T19:47:51Z</time>
      </trkpt>
      <trkpt lat="42.23878" lon="2.71256">
        <ele>351</ele>
        <time>2010-01-01T19:47:56Z</time>
      </trkpt>
      <trkpt lat="42.23884" lon="2.71253">
        <ele>352</ele>
        <time>2010-01-01T19:48:04Z</time>
      </trkpt>
      <trkpt lat="42.2389" lon="2.71252">
        <ele>353</ele>
        <time>2010-01-01T19:48:10Z</time>
      </trkpt>
      <trkpt lat="42.23909" lon="2.7125">
        <ele>354</ele>
        <time>2010-01-01T19:48:28Z</time>
      </trkpt>
      <trkpt lat="42.23926" lon="2.71247">
        <ele>355</ele>
        <time>2010-01-01T19:48:45Z</time>
      </trkpt>
      <trkpt lat="42.23934" lon="2.71244">
        <ele>356</ele>
        <time>2010-01-01T19:48:54Z</time>
      </trkpt>
      <trkpt lat="42.23947" lon="2.71245">
        <ele>358</ele>
        <time>2010-01-01T19:49:07Z</time>
      </trkpt>
      <trkpt lat="42.23968" lon="2.71233">
        <ele>360</ele>
        <time>2010-01-01T19:49:29Z</time>
      </trkpt>
      <trkpt lat="42.23968" lon="2.71221">
        <ele>360</ele>
        <time>2010-01-01T19:49:38Z</time>
      </trkpt>
      <trkpt lat="42.2395" lon="2.71213">
        <ele>358</ele>
        <time>2010-01-01T19:49:58Z</time>
      </trkpt>
      <trkpt lat="42.23932" lon="2.71204">
        <ele>356</ele>
        <time>2010-01-01T19:50:16Z</time>
      </trkpt>
      <trkpt lat="42.23918" lon="2.71189">
        <ele>354</ele>
        <time>2010-01-01T19:50:34Z</time>
      </trkpt>
      <trkpt lat="42.239" lon="2.71167">
        <ele>353</ele>
        <time>2010-01-01T19:50:58Z</time>
      </trkpt>
      <trkpt lat="42.23894" lon="2.7116">
        <ele>352</ele>
        <time>2010-01-01T19:51:06Z</time>
      </trkpt>
      <trkpt lat="42.23893" lon="2.71159">
        <ele>352</ele>
        <time>2010-01-01T19:51:08Z</time>
      </trkpt>
      <trkpt lat="42.23879" lon="2.71148">
        <ele>350</ele>
        <time>2010-01-01T19:51:24Z</time>
      </trkpt>
      <trkpt lat="42.23865" lon="2.71137">
        <ele>348</ele>
        <time>2010-01-01T19:51:40Z</time>
      </trkpt>
      <trkpt lat="42.23863" lon="2.71137">
        <ele>347</ele>
        <time>2010-01-01T19:51:42Z</time>
      </trkpt>
      <trkpt lat="42.23861" lon="2.71136">
        <ele>347</ele>
        <time>2010-01-01T19:51:44Z</time>
      </trkpt>
      <trkpt lat="42.23838" lon="2.7112">
        <ele>344</ele>
        <time>2010-01-01T19:52:10Z</time>
      </trkpt>
      <trkpt lat="42.23815" lon="2.71098">
        <ele>339</ele>
        <time>2010-01-01T19:52:38Z</time>
      </trkpt>
      <trkpt lat="42.23803" lon="2.71079">
        <ele>337</ele>
        <time>2010-01-01T19:52:56Z</time>
      </trkpt>
      <trkpt lat="42.23786" lon="2.71062">
        <ele>335</ele>
        <time>2010-01-01T19:53:18Z</time>
      </trkpt>
      <trkpt lat="42.23773" lon="2.71047">
        <ele>334</ele>
        <time>2010-01-01T19:53:35Z</time>
      </trkpt>
      <trkpt lat="42.23758" lon="2.71029">
        <ele>335</ele>
        <time>2010-01-01T19:53:55Z</time>
      </trkpt>
      <trkpt lat="42.23746" lon="2.71019">
        <ele>335</ele>
        <time>2010-01-01T19:54:09Z</time>
      </trkpt>
      <trkpt lat="42.23731" lon="2.71007">
        <ele>335</ele>
        <time>2010-01-01T19:54:26Z</time>
      </trkpt>
      <trkpt lat="42.23718" lon="2.70992">
        <ele>335</ele>
        <time>2010-01-01T19:54:44Z</time>
      </trkpt>
      <trkpt lat="42.2371" lon="2.7093">
        <ele>337</ele>
        <time>2010-01-01T19:55:31Z</time>
      </trkpt>
      <trkpt lat="42.23712" lon="2.70936">
        <ele>337</ele>
        <time>2010-01-01T19:55:35Z</time>
      </trkpt>
      <trkpt lat="42.23708" lon="2.70929">
        <ele>336</ele>
        <time>2010-01-01T19:55:41Z</time>
      </trkpt>
      <trkpt lat="42.23705" lon="2.70923">
        <ele>336</ele>
        <time>2010-01-01T19:55:46Z</time>
      </trkpt>
      <trkpt lat="42.23701" lon="2.70915">
        <ele>335</ele>
        <time>2010-01-01T19:55:54Z</time>
      </trkpt>
      <trkpt lat="42.23696" lon="2.70911">
        <ele>334</ele>
        <time>2010-01-01T19:56:00Z</time>
      </trkpt>
      <trkpt lat="42.23692" lon="2.70905">
        <ele>333</ele>
        <time>2010-01-01T19:56:05Z</time>
      </trkpt>
      <trkpt lat="42.23684" lon="2.70901">
        <ele>331</ele>
        <time>2010-01-01T19:56:14Z</time>
      </trkpt>
      <trkpt lat="42.23696" lon="2.70929">
        <ele>335</ele>
        <time>2010-01-01T19:56:38Z</time>
      </trkpt>
      <trkpt lat="42.23698" lon="2.70917">
        <ele>335</ele>
        <time>2010-01-01T19:56:47Z</time>
      </trkpt>
      <trkpt lat="42.23699" lon="2.70905">
        <ele>334</ele>
        <time>2010-01-01T19:56:56Z</time>
      </trkpt>
      <trkpt lat="42.237" lon="2.70892">
        <ele>333</ele>
        <time>2010-01-01T19:57:05Z</time>
      </trkpt>
      <trkpt lat="42.23705" lon="2.70881">
        <ele>333</ele>
        <time>2010-01-01T19:57:15Z</time>
      </trkpt>
      <trkpt lat="42.23714" lon="2.70876">
        <ele>333</ele>
        <time>2010-01-01T19:57:25Z</time>
      </trkpt>
      <trkpt lat="42.23724" lon="2.70878">
        <ele>333</ele>
        <time>2010-01-01T19:57:36Z</time>
      </trkpt>
      <trkpt lat="42.23732" lon="2.70884">
        <ele>335</ele>
        <time>2010-01-01T19:57:45Z</time>
      </trkpt>
      <trkpt lat="42.23742" lon="2.70887">
        <ele>335</ele>
        <time>2010-01-01T19:57:54Z</time>
      </trkpt>
      <trkpt lat="42.23751" lon="2.70887">
        <ele>335</ele>
        <time>2010-01-01T19:58:04Z</time>
      </trkpt>
      <trkpt lat="42.23761" lon="2.70887">
        <ele>334</ele>
        <time>2010-01-01T19:58:14Z</time>
      </trkpt>
      <trkpt lat="42.23771" lon="2.70883">
        <ele>333</ele>
        <time>2010-01-01T19:58:24Z</time>
      </trkpt>
      <trkpt lat="42.23779" lon="2.70878">
        <ele>331</ele>
        <time>2010-01-01T19:58:33Z</time>
      </trkpt>
      <trkpt lat="42.23788" lon="2.70874">
        <ele>331</ele>
        <time>2010-01-01T19:58:43Z</time>
      </trkpt>
      <trkpt lat="42.23798" lon="2.70867">
        <ele>331</ele>
        <time>2010-01-01T19:58:54Z</time>
      </trkpt>
      <trkpt lat="42.23802" lon="2.70856">
        <ele>331</ele>
        <time>2010-01-01T19:59:03Z</time>
      </trkpt>
      <trkpt lat="42.23808" lon="2.70846">
        <ele>331</ele>
        <time>2010-01-01T19:59:12Z</time>
      </trkpt>
      <trkpt lat="42.23812" lon="2.70836">
        <ele>331</ele>
        <time>2010-01-01T19:59:21Z</time>
      </trkpt>
      <trkpt lat="42.23819" lon="2.70825">
        <ele>331</ele>
        <time>2010-01-01T19:59:31Z</time>
      </trkpt>
      <trkpt lat="42.23826" lon="2.70817">
        <ele>330</ele>
        <time>2010-01-01T19:59:41Z</time>
      </trkpt>
      <trkpt lat="42.23833" lon="2.7081">
        <ele>331</ele>
        <time>2010-01-01T19:59:50Z</time>
      </trkpt>
      <trkpt lat="42.23841" lon="2.70803">
        <ele>331</ele>
        <time>2010-01-01T19:59:59Z</time>
      </trkpt>
      <trkpt lat="42.23851" lon="2.70806">
        <ele>331</ele>
        <time>2010-01-01T20:00:09Z</time>
      </trkpt>
      <trkpt lat="42.23861" lon="2.70808">
        <ele>332</ele>
        <time>2010-01-01T20:00:20Z</time>
      </trkpt>
      <trkpt lat="42.23871" lon="2.70808">
        <ele>333</ele>
        <time>2010-01-01T20:00:30Z</time>
      </trkpt>
      <trkpt lat="42.23881" lon="2.70806">
        <ele>334</ele>
        <time>2010-01-01T20:00:39Z</time>
      </trkpt>
      <trkpt lat="42.23891" lon="2.70806">
        <ele>336</ele>
        <time>2010-01-01T20:00:50Z</time>
      </trkpt>
      <trkpt lat="42.23901" lon="2.70805">
        <ele>338</ele>
        <time>2010-01-01T20:01:00Z</time>
      </trkpt>
      <trkpt lat="42.23911" lon="2.70802">
        <ele>339</ele>
        <time>2010-01-01T20:01:10Z</time>
      </trkpt>
      <trkpt lat="42.2392" lon="2.70802">
        <ele>341</ele>
        <time>2010-01-01T20:01:19Z</time>
      </trkpt>
      <trkpt lat="42.23929" lon="2.70807">
        <ele>342</ele>
        <time>2010-01-01T20:01:29Z</time>
      </trkpt>
      <trkpt lat="42.23937" lon="2.70802">
        <ele>344</ele>
        <time>2010-01-01T20:01:38Z</time>
      </trkpt>
      <trkpt lat="42.23936" lon="2.70789">
        <ele>344</ele>
        <time>2010-01-01T20:01:48Z</time>
      </trkpt>
      <trkpt lat="42.23931" lon="2.70778">
        <ele>344</ele>
        <time>2010-01-01T20:01:57Z</time>
      </trkpt>
      <trkpt lat="42.2393" lon="2.70762">
        <ele>344</ele>
        <time>2010-01-01T20:02:10Z</time>
      </trkpt>
      <trkpt lat="42.2393" lon="2.70748">
        <ele>345</ele>
        <time>2010-01-01T20:02:20Z</time>
      </trkpt>
      <trkpt lat="42.23931" lon="2.70734">
        <ele>346</ele>
        <time>2010-01-01T20:02:30Z</time>
      </trkpt>
      <trkpt lat="42.23931" lon="2.70721">
        <ele>346</ele>
        <time>2010-01-01T20:02:40Z</time>
      </trkpt>
      <trkpt lat="42.23931" lon="2.70708">
        <ele>347</ele>
        <time>2010-01-01T20:02:50Z</time>
      </trkpt>
      <trkpt lat="42.23929" lon="2.70694">
        <ele>347</ele>
        <time>2010-01-01T20:03:00Z</time>
      </trkpt>
      <trkpt lat="42.23929" lon="2.70679">
        <ele>347</ele>
        <time>2010-01-01T20:03:11Z</time>
      </trkpt>
      <trkpt lat="42.23929" lon="2.70665">
        <ele>347</ele>
        <time>2010-01-01T20:03:21Z</time>
      </trkpt>
      <trkpt lat="42.23929" lon="2.70652">
        <ele>348</ele>
        <time>2010-01-01T20:03:31Z</time>
      </trkpt>
      <trkpt lat="42.23929" lon="2.70638">
        <ele>348</ele>
        <time>2010-01-01T20:03:41Z</time>
      </trkpt>
      <trkpt lat="42.2393" lon="2.70624">
        <ele>348</ele>
        <time>2010-01-01T20:03:52Z</time>
      </trkpt>
      <trkpt lat="42.23933" lon="2.70611">
        <ele>348</ele>
        <time>2010-01-01T20:04:02Z</time>
      </trkpt>
      <trkpt lat="42.2394" lon="2.70601">
        <ele>348</ele>
        <time>2010-01-01T20:04:12Z</time>
      </trkpt>
      <trkpt lat="42.23947" lon="2.70593">
        <ele>349</ele>
        <time>2010-01-01T20:04:21Z</time>
      </trkpt>
      <trkpt lat="42.23954" lon="2.70585">
        <ele>350</ele>
        <time>2010-01-01T20:04:30Z</time>
      </trkpt>
      <trkpt lat="42.23961" lon="2.70576">
        <ele>352</ele>
        <time>2010-01-01T20:04:40Z</time>
      </trkpt>
      <trkpt lat="42.23956" lon="2.70566">
        <ele>351</ele>
        <time>2010-01-01T20:04:50Z</time>
      </trkpt>
      <trkpt lat="42.23949" lon="2.70556">
        <ele>350</ele>
        <time>2010-01-01T20:04:59Z</time>
      </trkpt>
      <trkpt lat="42.23945" lon="2.70543">
        <ele>351</ele>
        <time>2010-01-01T20:05:10Z</time>
      </trkpt>
      <trkpt lat="42.23941" lon="2.70531">
        <ele>350</ele>
        <time>2010-01-01T20:05:20Z</time>
      </trkpt>
      <trkpt lat="42.23939" lon="2.70519">
        <ele>350</ele>
        <time>2010-01-01T20:05:29Z</time>
      </trkpt>
      <trkpt lat="42.23937" lon="2.70504">
        <ele>349</ele>
        <time>2010-01-01T20:05:40Z</time>
      </trkpt>
      <trkpt lat="42.23938" lon="2.70491">
        <ele>348</ele>
        <time>2010-01-01T20:05:50Z</time>
      </trkpt>
      <trkpt lat="42.23941" lon="2.70479">
        <ele>348</ele>
        <time>2010-01-01T20:06:00Z</time>
      </trkpt>
      <trkpt lat="42.23945" lon="2.70465">
        <ele>348</ele>
        <time>2010-01-01T20:06:10Z</time>
      </trkpt>
      <trkpt lat="42.23949" lon="2.70455">
        <ele>348</ele>
        <time>2010-01-01T20:06:19Z</time>
      </trkpt>
      <trkpt lat="42.23949" lon="2.70442">
        <ele>348</ele>
        <time>2010-01-01T20:06:28Z</time>
      </trkpt>
      <trkpt lat="42.2394" lon="2.70439">
        <ele>346</ele>
        <time>2010-01-01T20:06:37Z</time>
      </trkpt>
      <trkpt lat="42.2393" lon="2.70439">
        <ele>344</ele>
        <time>2010-01-01T20:06:48Z</time>
      </trkpt>
      <trkpt lat="42.2392" lon="2.70438">
        <ele>343</ele>
        <time>2010-01-01T20:06:57Z</time>
      </trkpt>
      <trkpt lat="42.23911" lon="2.70436">
        <ele>342</ele>
        <time>2010-01-01T20:07:07Z</time>
      </trkpt>
      <trkpt lat="42.23903" lon="2.7043">
        <ele>341</ele>
        <time>2010-01-01T20:07:16Z</time>
      </trkpt>
      <trkpt lat="42.23902" lon="2.70418">
        <ele>341</ele>
        <time>2010-01-01T20:07:25Z</time>
      </trkpt>
      <trkpt lat="42.2391" lon="2.7041">
        <ele>343</ele>
        <time>2010-01-01T20:07:34Z</time>
      </trkpt>
      <trkpt lat="42.2392" lon="2.70408">
        <ele>344</ele>
        <time>2010-01-01T20:07:44Z</time>
      </trkpt>
      <trkpt lat="42.2393" lon="2.70404">
        <ele>345</ele>
        <time>2010-01-01T20:07:55Z</time>
      </trkpt>
      <trkpt lat="42.23938" lon="2.70398">
        <ele>346</ele>
        <time>2010-01-01T20:08:04Z</time>
      </trkpt>
      <trkpt lat="42.23945" lon="2.70389">
        <ele>348</ele>
        <time>2010-01-01T20:08:14Z</time>
      </trkpt>
      <trkpt lat="42.23949" lon="2.70375">
        <ele>349</ele>
        <time>2010-01-01T20:08:25Z</time>
      </trkpt>
      <trkpt lat="42.23951" lon="2.70363">
        <ele>350</ele>
        <time>2010-01-01T20:08:34Z</time>
      </trkpt>
      <trkpt lat="42.23956" lon="2.7035">
        <ele>351</ele>
        <time>2010-01-01T20:08:45Z</time>
      </trkpt>
      <trkpt lat="42.2396" lon="2.70336">
        <ele>352</ele>
        <time>2010-01-01T20:08:56Z</time>
      </trkpt>
      <trkpt lat="42.23962" lon="2.7033">
        <ele>353</ele>
        <time>2010-01-01T20:09:01Z</time>
      </trkpt>
      <trkpt lat="42.23965" lon="2.70325">
        <ele>353</ele>
        <time>2010-01-01T20:09:06Z</time>
      </trkpt>
      <trkpt lat="42.23969" lon="2.70312">
        <ele>355</ele>
        <time>2010-01-01T20:09:16Z</time>
      </trkpt>
      <trkpt lat="42.23972" lon="2.70301">
        <ele>356</ele>
        <time>2010-01-01T20:09:25Z</time>
      </trkpt>
      <trkpt lat="42.23974" lon="2.70288">
        <ele>358</ele>
        <time>2010-01-01T20:09:34Z</time>
      </trkpt>
      <trkpt lat="42.23977" lon="2.70277">
        <ele>360</ele>
        <time>2010-01-01T20:09:43Z</time>
      </trkpt>
      <trkpt lat="42.23978" lon="2.70264">
        <ele>362</ele>
        <time>2010-01-01T20:09:53Z</time>
      </trkpt>
      <trkpt lat="42.23976" lon="2.70252">
        <ele>364</ele>
        <time>2010-01-01T20:10:02Z</time>
      </trkpt>
      <trkpt lat="42.23976" lon="2.70245">
        <ele>365</ele>
        <time>2010-01-01T20:10:08Z</time>
      </trkpt>
      <trkpt lat="42.23975" lon="2.70233">
        <ele>366</ele>
        <time>2010-01-01T20:10:16Z</time>
      </trkpt>
      <trkpt lat="42.23973" lon="2.7022">
        <ele>367</ele>
        <time>2010-01-01T20:10:26Z</time>
      </trkpt>
      <trkpt lat="42.23968" lon="2.7021">
        <ele>367</ele>
        <time>2010-01-01T20:10:35Z</time>
      </trkpt>
      <trkpt lat="42.23961" lon="2.702">
        <ele>366</ele>
        <time>2010-01-01T20:10:45Z</time>
      </trkpt>
      <trkpt lat="42.23958" lon="2.70188">
        <ele>367</ele>
        <time>2010-01-01T20:10:55Z</time>
      </trkpt>
      <trkpt lat="42.23956" lon="2.70175">
        <ele>368</ele>
        <time>2010-01-01T20:11:04Z</time>
      </trkpt>
      <trkpt lat="42.23955" lon="2.70162">
        <ele>369</ele>
        <time>2010-01-01T20:11:14Z</time>
      </trkpt>
      <trkpt lat="42.23952" lon="2.70149">
        <ele>369</ele>
        <time>2010-01-01T20:11:24Z</time>
      </trkpt>
      <trkpt lat="42.2395" lon="2.70137">
        <ele>370</ele>
        <time>2010-01-01T20:11:33Z</time>
      </trkpt>
      <trkpt lat="42.23946" lon="2.70123">
        <ele>369</ele>
        <time>2010-01-01T20:11:44Z</time>
      </trkpt>
      <trkpt lat="42.23947" lon="2.7011">
        <ele>369</ele>
        <time>2010-01-01T20:11:54Z</time>
      </trkpt>
      <trkpt lat="42.23946" lon="2.70097">
        <ele>368</ele>
        <time>2010-01-01T20:12:03Z</time>
      </trkpt>
      <trkpt lat="42.23946" lon="2.70085">
        <ele>368</ele>
        <time>2010-01-01T20:12:13Z</time>
      </trkpt>
      <trkpt lat="42.23947" lon="2.70072">
        <ele>368</ele>
        <time>2010-01-01T20:12:22Z</time>
      </trkpt>
      <trkpt lat="42.23947" lon="2.70058">
        <ele>369</ele>
        <time>2010-01-01T20:12:32Z</time>
      </trkpt>
      <trkpt lat="42.23944" lon="2.70045">
        <ele>369</ele>
        <time>2010-01-01T20:12:42Z</time>
      </trkpt>
      <trkpt lat="42.23939" lon="2.70034">
        <ele>369</ele>
        <time>2010-01-01T20:12:52Z</time>
      </trkpt>
      <trkpt lat="42.23937" lon="2.70022">
        <ele>369</ele>
        <time>2010-01-01T20:13:01Z</time>
      </trkpt>
      <trkpt lat="42.23938" lon="2.70008">
        <ele>370</ele>
        <time>2010-01-01T20:13:11Z</time>
      </trkpt>
      <trkpt lat="42.2394" lon="2.69996">
        <ele>370</ele>
        <time>2010-01-01T20:13:21Z</time>
      </trkpt>
      <trkpt lat="42.23942" lon="2.69983">
        <ele>370</ele>
        <time>2010-01-01T20:13:31Z</time>
      </trkpt>
      <trkpt lat="42.23942" lon="2.6997">
        <ele>370</ele>
        <time>2010-01-01T20:13:40Z</time>
      </trkpt>
      <trkpt lat="42.23938" lon="2.69956">
        <ele>370</ele>
        <time>2010-01-01T20:13:51Z</time>
      </trkpt>
      <trkpt lat="42.23936" lon="2.69944">
        <ele>370</ele>
        <time>2010-01-01T20:14:00Z</time>
      </trkpt>
      <trkpt lat="42.23934" lon="2.69931">
        <ele>370</ele>
        <time>2010-01-01T20:14:10Z</time>
      </trkpt>
      <trkpt lat="42.23935" lon="2.69919">
        <ele>370</ele>
        <time>2010-01-01T20:14:19Z</time>
      </trkpt>
      <trkpt lat="42.2394" lon="2.69908">
        <ele>370</ele>
        <time>2010-01-01T20:14:29Z</time>
      </trkpt>
      <trkpt lat="42.23946" lon="2.69897">
        <ele>371</ele>
        <time>2010-01-01T20:14:38Z</time>
      </trkpt>
      <trkpt lat="42.23949" lon="2.69884">
        <ele>371</ele>
        <time>2010-01-01T20:14:48Z</time>
      </trkpt>
      <trkpt lat="42.23952" lon="2.69871">
        <ele>371</ele>
        <time>2010-01-01T20:14:59Z</time>
      </trkpt>
      <trkpt lat="42.23955" lon="2.69859">
        <ele>371</ele>
        <time>2010-01-01T20:15:08Z</time>
      </trkpt>
      <trkpt lat="42.23962" lon="2.69849">
        <ele>370</ele>
        <time>2010-01-01T20:15:18Z</time>
      </trkpt>
      <trkpt lat="42.23965" lon="2.69836">
        <ele>369</ele>
        <time>2010-01-01T20:15:28Z</time>
      </trkpt>
      <trkpt lat="42.2397" lon="2.69825">
        <ele>368</ele>
        <time>2010-01-01T20:15:38Z</time>
      </trkpt>
      <trkpt lat="42.23977" lon="2.69816">
        <ele>367</ele>
        <time>2010-01-01T20:15:47Z</time>
      </trkpt>
      <trkpt lat="42.23983" lon="2.69806">
        <ele>366</ele>
        <time>2010-01-01T20:15:56Z</time>
      </trkpt>
      <trkpt lat="42.23989" lon="2.69795">
        <ele>366</ele>
        <time>2010-01-01T20:16:07Z</time>
      </trkpt>
      <trkpt lat="42.23994" lon="2.69784">
        <ele>366</ele>
        <time>2010-01-01T20:16:17Z</time>
      </trkpt>
      <trkpt lat="42.24003" lon="2.69779">
        <ele>367</ele>
        <time>2010-01-01T20:16:26Z</time>
      </trkpt>
      <trkpt lat="42.24012" lon="2.69779">
        <ele>367</ele>
        <time>2010-01-01T20:16:36Z</time>
      </trkpt>
      <trkpt lat="42.2402" lon="2.69773">
        <ele>367</ele>
        <time>2010-01-01T20:16:45Z</time>
      </trkpt>
      <trkpt lat="42.24019" lon="2.69761">
        <ele>367</ele>
        <time>2010-01-01T20:16:54Z</time>
      </trkpt>
      <trkpt lat="42.24017" lon="2.69749">
        <ele>366</ele>
        <time>2010-01-01T20:17:03Z</time>
      </trkpt>
      <trkpt lat="42.24015" lon="2.69737">
        <ele>366</ele>
        <time>2010-01-01T20:17:12Z</time>
      </trkpt>
      <trkpt lat="42.24016" lon="2.69723">
        <ele>365</ele>
        <time>2010-01-01T20:17:23Z</time>
      </trkpt>
      <trkpt lat="42.24018" lon="2.6971">
        <ele>365</ele>
        <time>2010-01-01T20:17:33Z</time>
      </trkpt>
      <trkpt lat="42.24019" lon="2.69698">
        <ele>364</ele>
        <time>2010-01-01T20:17:42Z</time>
      </trkpt>
      <trkpt lat="42.24021" lon="2.69684">
        <ele>364</ele>
        <time>2010-01-01T20:17:52Z</time>
      </trkpt>
      <trkpt lat="42.24024" lon="2.69671">
        <ele>365</ele>
        <time>2010-01-01T20:18:02Z</time>
      </trkpt>
      <trkpt lat="42.24025" lon="2.69658">
        <ele>365</ele>
        <time>2010-01-01T20:18:12Z</time>
      </trkpt>
      <trkpt lat="42.24026" lon="2.69646">
        <ele>366</ele>
        <time>2010-01-01T20:18:21Z</time>
      </trkpt>
      <trkpt lat="42.24026" lon="2.69634">
        <ele>366</ele>
        <time>2010-01-01T20:18:30Z</time>
      </trkpt>
      <trkpt lat="42.24027" lon="2.6962">
        <ele>367</ele>
        <time>2010-01-01T20:18:40Z</time>
      </trkpt>
      <trkpt lat="42.24025" lon="2.69607">
        <ele>367</ele>
        <time>2010-01-01T20:18:50Z</time>
      </trkpt>
      <trkpt lat="42.24019" lon="2.69595">
        <ele>367</ele>
        <time>2010-01-01T20:19:01Z</time>
      </trkpt>
      <trkpt lat="42.24013" lon="2.69585">
        <ele>367</ele>
        <time>2010-01-01T20:19:10Z</time>
      </trkpt>
      <trkpt lat="42.24007" lon="2.69575">
        <ele>366</ele>
        <time>2010-01-01T20:19:20Z</time>
      </trkpt>
      <trkpt lat="42.24" lon="2.69567">
        <ele>365</ele>
        <time>2010-01-01T20:19:29Z</time>
      </trkpt>
      <trkpt lat="42.23996" lon="2.6956">
        <ele>365</ele>
        <time>2010-01-01T20:19:36Z</time>
      </trkpt>
      <trkpt lat="42.2399" lon="2.69549">
        <ele>364</ele>
        <time>2010-01-01T20:19:46Z</time>
      </trkpt>
      <trkpt lat="42.23987" lon="2.69537">
        <ele>364</ele>
        <time>2010-01-01T20:19:56Z</time>
      </trkpt>
      <trkpt lat="42.23989" lon="2.69524">
        <ele>364</ele>
        <time>2010-01-01T20:20:06Z</time>
      </trkpt>
      <trkpt lat="42.23985" lon="2.69511">
        <ele>363</ele>
        <time>2010-01-01T20:20:16Z</time>
      </trkpt>
      <trkpt lat="42.23981" lon="2.69499">
        <ele>362</ele>
        <time>2010-01-01T20:20:25Z</time>
      </trkpt>
      <trkpt lat="42.2398" lon="2.69487">
        <ele>362</ele>
        <time>2010-01-01T20:20:34Z</time>
      </trkpt>
      <trkpt lat="42.23974" lon="2.69477">
        <ele>362</ele>
        <time>2010-01-01T20:20:44Z</time>
      </trkpt>
      <trkpt lat="42.23971" lon="2.69466">
        <ele>362</ele>
        <time>2010-01-01T20:20:53Z</time>
      </trkpt>
      <trkpt lat="42.23965" lon="2.69455">
        <ele>362</ele>
        <time>2010-01-01T20:21:03Z</time>
      </trkpt>
      <trkpt lat="42.23958" lon="2.69445">
        <ele>363</ele>
        <time>2010-01-01T20:21:13Z</time>
      </trkpt>
      <trkpt lat="42.23949" lon="2.6944">
        <ele>363</ele>
        <time>2010-01-01T20:21:23Z</time>
      </trkpt>
      <trkpt lat="42.23939" lon="2.69437">
        <ele>363</ele>
        <time>2010-01-01T20:21:33Z</time>
      </trkpt>
      <trkpt lat="42.23929" lon="2.69436">
        <ele>362</ele>
        <time>2010-01-01T20:21:43Z</time>
      </trkpt>
      <trkpt lat="42.23921" lon="2.69442">
        <ele>361</ele>
        <time>2010-01-01T20:21:52Z</time>
      </trkpt>
      <trkpt lat="42.23912" lon="2.69444">
        <ele>360</ele>
        <time>2010-01-01T20:22:01Z</time>
      </trkpt>
      <trkpt lat="42.23902" lon="2.69448">
        <ele>358</ele>
        <time>2010-01-01T20:22:11Z</time>
      </trkpt>
      <trkpt lat="42.23894" lon="2.69452">
        <ele>356</ele>
        <time>2010-01-01T20:22:21Z</time>
      </trkpt>
      <trkpt lat="42.23884" lon="2.69456">
        <ele>354</ele>
        <time>2010-01-01T20:22:31Z</time>
      </trkpt>
      <trkpt lat="42.23874" lon="2.69459">
        <ele>352</ele>
        <time>2010-01-01T20:22:41Z</time>
      </trkpt>
      <trkpt lat="42.23864" lon="2.69463">
        <ele>350</ele>
        <time>2010-01-01T20:22:51Z</time>
      </trkpt>
      <trkpt lat="42.23857" lon="2.6946">
        <ele>349</ele>
        <time>2010-01-01T20:22:59Z</time>
      </trkpt>
      <trkpt lat="42.2385" lon="2.6945">
        <ele>348</ele>
        <time>2010-01-01T20:23:09Z</time>
      </trkpt>
      <trkpt lat="42.23842" lon="2.69441">
        <ele>348</ele>
        <time>2010-01-01T20:23:19Z</time>
      </trkpt>
      <trkpt lat="42.23839" lon="2.69429">
        <ele>349</ele>
        <time>2010-01-01T20:23:29Z</time>
      </trkpt>
      <trkpt lat="42.23836" lon="2.69414">
        <ele>349</ele>
        <time>2010-01-01T20:23:40Z</time>
      </trkpt>
      <trkpt lat="42.23832" lon="2.69403">
        <ele>350</ele>
        <time>2010-01-01T20:23:49Z</time>
      </trkpt>
      <trkpt lat="42.23825" lon="2.69393">
        <ele>349</ele>
        <time>2010-01-01T20:23:59Z</time>
      </trkpt>
      <trkpt lat="42.23821" lon="2.69382">
        <ele>349</ele>
        <time>2010-01-01T20:24:09Z</time>
      </trkpt>
      <trkpt lat="42.23817" lon="2.69369">
        <ele>350</ele>
        <time>2010-01-01T20:24:19Z</time>
      </trkpt>
      <trkpt lat="42.23813" lon="2.69358">
        <ele>350</ele>
        <time>2010-01-01T20:24:28Z</time>
      </trkpt>
      <trkpt lat="42.23807" lon="2.69348">
        <ele>349</ele>
        <time>2010-01-01T20:24:37Z</time>
      </trkpt>
      <trkpt lat="42.23801" lon="2.69337">
        <ele>349</ele>
        <time>2010-01-01T20:24:48Z</time>
      </trkpt>
      <trkpt lat="42.23795" lon="2.69327">
        <ele>349</ele>
        <time>2010-01-01T20:24:57Z</time>
      </trkpt>
      <trkpt lat="42.2379" lon="2.69316">
        <ele>349</ele>
        <time>2010-01-01T20:25:07Z</time>
      </trkpt>
      <trkpt lat="42.23782" lon="2.69308">
        <ele>349</ele>
        <time>2010-01-01T20:25:17Z</time>
      </trkpt>
      <trkpt lat="42.23775" lon="2.69298">
        <ele>349</ele>
        <time>2010-01-01T20:25:27Z</time>
      </trkpt>
      <trkpt lat="42.23768" lon="2.6929">
        <ele>348</ele>
        <time>2010-01-01T20:25:36Z</time>
      </trkpt>
      <trkpt lat="42.23762" lon="2.6928">
        <ele>348</ele>
        <time>2010-01-01T20:25:45Z</time>
      </trkpt>
      <trkpt lat="42.23759" lon="2.69268">
        <ele>349</ele>
        <time>2010-01-01T20:25:55Z</time>
      </trkpt>
      <trkpt lat="42.23757" lon="2.69254">
        <ele>350</ele>
        <time>2010-01-01T20:26:05Z</time>
      </trkpt>
      <trkpt lat="42.23753" lon="2.69243">
        <ele>350</ele>
        <time>2010-01-01T20:26:14Z</time>
      </trkpt>
      <trkpt lat="42.2375" lon="2.69231">
        <ele>351</ele>
        <time>2010-01-01T20:26:24Z</time>
      </trkpt>
      <trkpt lat="42.23748" lon="2.69219">
        <ele>351</ele>
        <time>2010-01-01T20:26:33Z</time>
      </trkpt>
      <trkpt lat="42.23745" lon="2.69208">
        <ele>351</ele>
        <time>2010-01-01T20:26:42Z</time>
      </trkpt>
      <trkpt lat="42.23745" lon="2.69195">
        <ele>352</ele>
        <time>2010-01-01T20:26:51Z</time>
      </trkpt>
      <trkpt lat="42.23745" lon="2.69182">
        <ele>353</ele>
        <time>2010-01-01T20:27:01Z</time>
      </trkpt>
      <trkpt lat="42.23747" lon="2.6917">
        <ele>354</ele>
        <time>2010-01-01T20:27:10Z</time>
      </trkpt>
      <trkpt lat="42.23746" lon="2.69157">
        <ele>353</ele>
        <time>2010-01-01T20:27:20Z</time>
      </trkpt>
      <trkpt lat="42.23746" lon="2.69144">
        <ele>352</ele>
        <time>2010-01-01T20:27:29Z</time>
      </trkpt>
      <trkpt lat="42.23744" lon="2.69132">
        <ele>351</ele>
        <time>2010-01-01T20:27:39Z</time>
      </trkpt>
      <trkpt lat="42.23744" lon="2.69118">
        <ele>350</ele>
        <time>2010-01-01T20:27:49Z</time>
      </trkpt>
      <trkpt lat="42.2374" lon="2.69105">
        <ele>348</ele>
        <time>2010-01-01T20:27:59Z</time>
      </trkpt>
      <trkpt lat="42.23734" lon="2.69094">
        <ele>346</ele>
        <time>2010-01-01T20:28:09Z</time>
      </trkpt>
      <trkpt lat="42.23726" lon="2.69083">
        <ele>344</ele>
        <time>2010-01-01T20:28:21Z</time>
      </trkpt>
      <trkpt lat="42.23719" lon="2.69072">
        <ele>342</ele>
        <time>2010-01-01T20:28:32Z</time>
      </trkpt>
      <trkpt lat="42.23709" lon="2.69066">
        <ele>341</ele>
        <time>2010-01-01T20:28:42Z</time>
      </trkpt>
      <trkpt lat="42.23705" lon="2.69054">
        <ele>341</ele>
        <time>2010-01-01T20:28:53Z</time>
      </trkpt>
      <trkpt lat="42.237" lon="2.69042">
        <ele>341</ele>
        <time>2010-01-01T20:29:02Z</time>
      </trkpt>
      <trkpt lat="42.23705" lon="2.69031">
        <ele>341</ele>
        <time>2010-01-01T20:29:12Z</time>
      </trkpt>
      <trkpt lat="42.2371" lon="2.6902">
        <ele>340</ele>
        <time>2010-01-01T20:29:22Z</time>
      </trkpt>
      <trkpt lat="42.23707" lon="2.69009">
        <ele>338</ele>
        <time>2010-01-01T20:29:31Z</time>
      </trkpt>
      <trkpt lat="42.23701" lon="2.68998">
        <ele>337</ele>
        <time>2010-01-01T20:29:41Z</time>
      </trkpt>
      <trkpt lat="42.23693" lon="2.6899">
        <ele>337</ele>
        <time>2010-01-01T20:29:51Z</time>
      </trkpt>
      <trkpt lat="42.23686" lon="2.68981">
        <ele>336</ele>
        <time>2010-01-01T20:30:01Z</time>
      </trkpt>
      <trkpt lat="42.23679" lon="2.68973">
        <ele>336</ele>
        <time>2010-01-01T20:30:10Z</time>
      </trkpt>
      <trkpt lat="42.2367" lon="2.68968">
        <ele>336</ele>
        <time>2010-01-01T20:30:20Z</time>
      </trkpt>
      <trkpt lat="42.23668" lon="2.68956">
        <ele>334</ele>
        <time>2010-01-01T20:30:29Z</time>
      </trkpt>
      <trkpt lat="42.23667" lon="2.68946">
        <ele>332</ele>
        <time>2010-01-01T20:30:36Z</time>
      </trkpt>
      <trkpt lat="42.23677" lon="2.68946">
        <ele>332</ele>
        <time>2010-01-01T20:30:46Z</time>
      </trkpt>
      <trkpt lat="42.23687" lon="2.68944">
        <ele>331</ele>
        <time>2010-01-01T20:30:57Z</time>
      </trkpt>
      <trkpt lat="42.23698" lon="2.68941">
        <ele>331</ele>
        <time>2010-01-01T20:31:08Z</time>
      </trkpt>
      <trkpt lat="42.23706" lon="2.68947">
        <ele>332</ele>
        <time>2010-01-01T20:31:17Z</time>
      </trkpt>
      <trkpt lat="42.23716" lon="2.6895">
        <ele>333</ele>
        <time>2010-01-01T20:31:27Z</time>
      </trkpt>
      <trkpt lat="42.23724" lon="2.68955">
        <ele>333</ele>
        <time>2010-01-01T20:31:36Z</time>
      </trkpt>
      <trkpt lat="42.23733" lon="2.6896">
        <ele>333</ele>
        <time>2010-01-01T20:31:45Z</time>
      </trkpt>
      <trkpt lat="42.23741" lon="2.68964">
        <ele>333</ele>
        <time>2010-01-01T20:31:55Z</time>
      </trkpt>
      <trkpt lat="42.2374" lon="2.68958">
        <ele>332</ele>
        <time>2010-01-01T20:31:59Z</time>
      </trkpt>
      <trkpt lat="42.23733" lon="2.6895">
        <ele>332</ele>
        <time>2010-01-01T20:32:09Z</time>
      </trkpt>
      <trkpt lat="42.23727" lon="2.6894">
        <ele>331</ele>
        <time>2010-01-01T20:32:18Z</time>
      </trkpt>
      <trkpt lat="42.23722" lon="2.68929">
        <ele>330</ele>
        <time>2010-01-01T20:32:28Z</time>
      </trkpt>
      <trkpt lat="42.23723" lon="2.68918">
        <ele>328</ele>
        <time>2010-01-01T20:32:36Z</time>
      </trkpt>
      <trkpt lat="42.23724" lon="2.68905">
        <ele>324</ele>
        <time>2010-01-01T20:32:46Z</time>
      </trkpt>
      <trkpt lat="42.23716" lon="2.68894">
        <ele>322</ele>
        <time>2010-01-01T20:32:57Z</time>
      </trkpt>
      <trkpt lat="42.23707" lon="2.6889">
        <ele>321</ele>
        <time>2010-01-01T20:33:06Z</time>
      </trkpt>
      <trkpt lat="42.23698" lon="2.6889">
        <ele>321</ele>
        <time>2010-01-01T20:33:16Z</time>
      </trkpt>
      <trkpt lat="42.23688" lon="2.68891">
        <ele>320</ele>
        <time>2010-01-01T20:33:26Z</time>
      </trkpt>
      <trkpt lat="42.23687" lon="2.68878">
        <ele>317</ele>
        <time>2010-01-01T20:33:35Z</time>
      </trkpt>
      <trkpt lat="42.23695" lon="2.68873">
        <ele>317</ele>
        <time>2010-01-01T20:33:44Z</time>
      </trkpt>
      <trkpt lat="42.23704" lon="2.68869">
        <ele>316</ele>
        <time>2010-01-01T20:33:54Z</time>
      </trkpt>
      <trkpt lat="42.23712" lon="2.68862">
        <ele>314</ele>
        <time>2010-01-01T20:34:03Z</time>
      </trkpt>
      <trkpt lat="42.23716" lon="2.68854">
        <ele>313</ele>
        <time>2010-01-01T20:34:11Z</time>
      </trkpt>
      <trkpt lat="42.23709" lon="2.68846">
        <ele>312</ele>
        <time>2010-01-01T20:34:20Z</time>
      </trkpt>
      <trkpt lat="42.23701" lon="2.6884">
        <ele>311</ele>
        <time>2010-01-01T20:34:29Z</time>
      </trkpt>
      <trkpt lat="42.23692" lon="2.68836">
        <ele>311</ele>
        <time>2010-01-01T20:34:39Z</time>
      </trkpt>
      <trkpt lat="42.23683" lon="2.68836">
        <ele>311</ele>
        <time>2010-01-01T20:34:48Z</time>
      </trkpt>
      <trkpt lat="42.23674" lon="2.68836">
        <ele>311</ele>
        <time>2010-01-01T20:34:57Z</time>
      </trkpt>
      <trkpt lat="42.23665" lon="2.6884">
        <ele>311</ele>
        <time>2010-01-01T20:35:06Z</time>
      </trkpt>
      <trkpt lat="42.23656" lon="2.68841">
        <ele>310</ele>
        <time>2010-01-01T20:35:16Z</time>
      </trkpt>
      <trkpt lat="42.23647" lon="2.68834">
        <ele>309</ele>
        <time>2010-01-01T20:35:26Z</time>
      </trkpt>
      <trkpt lat="42.2364" lon="2.68825">
        <ele>310</ele>
        <time>2010-01-01T20:35:36Z</time>
      </trkpt>
      <trkpt lat="42.23632" lon="2.68816">
        <ele>311</ele>
        <time>2010-01-01T20:35:46Z</time>
      </trkpt>
      <trkpt lat="42.23624" lon="2.68809">
        <ele>312</ele>
        <time>2010-01-01T20:35:56Z</time>
      </trkpt>
      <trkpt lat="42.23619" lon="2.68798">
        <ele>315</ele>
        <time>2010-01-01T20:36:05Z</time>
      </trkpt>
      <trkpt lat="42.23612" lon="2.68791">
        <ele>316</ele>
        <time>2010-01-01T20:36:14Z</time>
      </trkpt>
      <trkpt lat="42.23604" lon="2.68782">
        <ele>316</ele>
        <time>2010-01-01T20:36:24Z</time>
      </trkpt>
      <trkpt lat="42.23597" lon="2.68774">
        <ele>317</ele>
        <time>2010-01-01T20:36:33Z</time>
      </trkpt>
      <trkpt lat="42.23591" lon="2.68764">
        <ele>318</ele>
        <time>2010-01-01T20:36:43Z</time>
      </trkpt>
      <trkpt lat="42.23583" lon="2.68758">
        <ele>319</ele>
        <time>2010-01-01T20:36:52Z</time>
      </trkpt>
      <trkpt lat="42.23575" lon="2.68747">
        <ele>320</ele>
        <time>2010-01-01T20:37:04Z</time>
      </trkpt>
      <trkpt lat="42.2357" lon="2.68736">
        <ele>322</ele>
        <time>2010-01-01T20:37:13Z</time>
      </trkpt>
      <trkpt lat="42.23568" lon="2.68723">
        <ele>325</ele>
        <time>2010-01-01T20:37:23Z</time>
      </trkpt>
      <trkpt lat="42.2356" lon="2.68717">
        <ele>324</ele>
        <time>2010-01-01T20:37:32Z</time>
      </trkpt>
      <trkpt lat="42.23551" lon="2.68712">
        <ele>323</ele>
        <time>2010-01-01T20:37:42Z</time>
      </trkpt>
      <trkpt lat="42.23542" lon="2.68704">
        <ele>322</ele>
        <time>2010-01-01T20:37:52Z</time>
      </trkpt>
      <trkpt lat="42.23534" lon="2.687">
        <ele>320</ele>
        <time>2010-01-01T20:38:01Z</time>
      </trkpt>
      <trkpt lat="42.23528" lon="2.68699">
        <ele>319</ele>
        <time>2010-01-01T20:38:08Z</time>
      </trkpt>
      <trkpt lat="42.23522" lon="2.68695">
        <ele>318</ele>
        <time>2010-01-01T20:38:14Z</time>
      </trkpt>
      <trkpt lat="42.23517" lon="2.68686">
        <ele>318</ele>
        <time>2010-01-01T20:38:22Z</time>
      </trkpt>
      <trkpt lat="42.23515" lon="2.68672">
        <ele>319</ele>
        <time>2010-01-01T20:38:33Z</time>
      </trkpt>
      <trkpt lat="42.23517" lon="2.68659">
        <ele>321</ele>
        <time>2010-01-01T20:38:43Z</time>
      </trkpt>
      <trkpt lat="42.23517" lon="2.68647">
        <ele>322</ele>
        <time>2010-01-01T20:38:52Z</time>
      </trkpt>
      <trkpt lat="42.23519" lon="2.68634">
        <ele>323</ele>
        <time>2010-01-01T20:39:02Z</time>
      </trkpt>
      <trkpt lat="42.23523" lon="2.68621">
        <ele>324</ele>
        <time>2010-01-01T20:39:12Z</time>
      </trkpt>
      <trkpt lat="42.23525" lon="2.68609">
        <ele>325</ele>
        <time>2010-01-01T20:39:22Z</time>
      </trkpt>
      <trkpt lat="42.23526" lon="2.68596">
        <ele>326</ele>
        <time>2010-01-01T20:39:31Z</time>
      </trkpt>
      <trkpt lat="42.23518" lon="2.68588">
        <ele>325</ele>
        <time>2010-01-01T20:39:41Z</time>
      </trkpt>
      <trkpt lat="42.23509" lon="2.68583">
        <ele>323</ele>
        <time>2010-01-01T20:39:52Z</time>
      </trkpt>
      <trkpt lat="42.23501" lon="2.68576">
        <ele>323</ele>
        <time>2010-01-01T20:40:01Z</time>
      </trkpt>
      <trkpt lat="42.23494" lon="2.68567">
        <ele>323</ele>
        <time>2010-01-01T20:40:10Z</time>
      </trkpt>
      <trkpt lat="42.23487" lon="2.68555">
        <ele>324</ele>
        <time>2010-01-01T20:40:22Z</time>
      </trkpt>
      <trkpt lat="42.23482" lon="2.68544">
        <ele>325</ele>
        <time>2010-01-01T20:40:31Z</time>
      </trkpt>
      <trkpt lat="42.2348" lon="2.68532">
        <ele>327</ele>
        <time>2010-01-01T20:40:41Z</time>
      </trkpt>
      <trkpt lat="42.23476" lon="2.68521">
        <ele>329</ele>
        <time>2010-01-01T20:40:50Z</time>
      </trkpt>
      <trkpt lat="42.23469" lon="2.68511">
        <ele>330</ele>
        <time>2010-01-01T20:41:00Z</time>
      </trkpt>
      <trkpt lat="42.23461" lon="2.68504">
        <ele>330</ele>
        <time>2010-01-01T20:41:09Z</time>
      </trkpt>
      <trkpt lat="42.23452" lon="2.68499">
        <ele>329</ele>
        <time>2010-01-01T20:41:19Z</time>
      </trkpt>
      <trkpt lat="42.23443" lon="2.68492">
        <ele>328</ele>
        <time>2010-01-01T20:41:29Z</time>
      </trkpt>
      <trkpt lat="42.23438" lon="2.68482">
        <ele>329</ele>
        <time>2010-01-01T20:41:38Z</time>
      </trkpt>
      <trkpt lat="42.2343" lon="2.68472">
        <ele>329</ele>
        <time>2010-01-01T20:41:49Z</time>
      </trkpt>
      <trkpt lat="42.23426" lon="2.68462">
        <ele>330</ele>
        <time>2010-01-01T20:41:58Z</time>
      </trkpt>
      <trkpt lat="42.23421" lon="2.6845">
        <ele>331</ele>
        <time>2010-01-01T20:42:08Z</time>
      </trkpt>
      <trkpt lat="42.23416" lon="2.68439">
        <ele>332</ele>
        <time>2010-01-01T20:42:18Z</time>
      </trkpt>
      <trkpt lat="42.23411" lon="2.68426">
        <ele>333</ele>
        <time>2010-01-01T20:42:28Z</time>
      </trkpt>
      <trkpt lat="42.23404" lon="2.68418">
        <ele>333</ele>
        <time>2010-01-01T20:42:37Z</time>
      </trkpt>
      <trkpt lat="42.23398" lon="2.68409">
        <ele>333</ele>
        <time>2010-01-01T20:42:47Z</time>
      </trkpt>
      <trkpt lat="42.23394" lon="2.68397">
        <ele>334</ele>
        <time>2010-01-01T20:42:56Z</time>
      </trkpt>
      <trkpt lat="42.23389" lon="2.68384">
        <ele>335</ele>
        <time>2010-01-01T20:43:06Z</time>
      </trkpt>
      <trkpt lat="42.23388" lon="2.68371">
        <ele>337</ele>
        <time>2010-01-01T20:43:17Z</time>
      </trkpt>
      <trkpt lat="42.23389" lon="2.68356">
        <ele>338</ele>
        <time>2010-01-01T20:43:27Z</time>
      </trkpt>
      <trkpt lat="42.2339" lon="2.68342">
        <ele>338</ele>
        <time>2010-01-01T20:43:38Z</time>
      </trkpt>
      <trkpt lat="42.23388" lon="2.68329">
        <ele>337</ele>
        <time>2010-01-01T20:43:47Z</time>
      </trkpt>
      <trkpt lat="42.23387" lon="2.68317">
        <ele>337</ele>
        <time>2010-01-01T20:43:57Z</time>
      </trkpt>
      <trkpt lat="42.23386" lon="2.68305">
        <ele>336</ele>
        <time>2010-01-01T20:44:06Z</time>
      </trkpt>
      <trkpt lat="42.23382" lon="2.68293">
        <ele>335</ele>
        <time>2010-01-01T20:44:16Z</time>
      </trkpt>
      <trkpt lat="42.23378" lon="2.68281">
        <ele>334</ele>
        <time>2010-01-01T20:44:25Z</time>
      </trkpt>
      <trkpt lat="42.23382" lon="2.68275">
        <ele>335</ele>
        <time>2010-01-01T20:44:31Z</time>
      </trkpt>
      <trkpt lat="42.23385" lon="2.68263">
        <ele>335</ele>
        <time>2010-01-01T20:44:40Z</time>
      </trkpt>
      <trkpt lat="42.23379" lon="2.68252">
        <ele>334</ele>
        <time>2010-01-01T20:44:50Z</time>
      </trkpt>
      <trkpt lat="42.23376" lon="2.6824">
        <ele>334</ele>
        <time>2010-01-01T20:45:00Z</time>
      </trkpt>
      <trkpt lat="42.23371" lon="2.68227">
        <ele>333</ele>
        <time>2010-01-01T20:45:10Z</time>
      </trkpt>
      <trkpt lat="42.2337" lon="2.68215">
        <ele>333</ele>
        <time>2010-01-01T20:45:19Z</time>
      </trkpt>
      <trkpt lat="42.23371" lon="2.68201">
        <ele>332</ele>
        <time>2010-01-01T20:45:30Z</time>
      </trkpt>
      <trkpt lat="42.23371" lon="2.6819">
        <ele>331</ele>
        <time>2010-01-01T20:45:38Z</time>
      </trkpt>
      <trkpt lat="42.23372" lon="2.68178">
        <ele>330</ele>
        <time>2010-01-01T20:45:47Z</time>
      </trkpt>
      <trkpt lat="42.23374" lon="2.68166">
        <ele>329</ele>
        <time>2010-01-01T20:45:56Z</time>
      </trkpt>
      <trkpt lat="42.23378" lon="2.68158">
        <ele>327</ele>
        <time>2010-01-01T20:46:04Z</time>
      </trkpt>
      <trkpt lat="42.23387" lon="2.68158">
        <ele>326</ele>
        <time>2010-01-01T20:46:12Z</time>
      </trkpt>
      <trkpt lat="42.23395" lon="2.68157">
        <ele>324</ele>
        <time>2010-01-01T20:46:20Z</time>
      </trkpt>
      <trkpt lat="42.23403" lon="2.68151">
        <ele>323</ele>
        <time>2010-01-01T20:46:30Z</time>
      </trkpt>
      <trkpt lat="42.23411" lon="2.68145">
        <ele>321</ele>
        <time>2010-01-01T20:46:39Z</time>
      </trkpt>
      <trkpt lat="42.23419" lon="2.68137">
        <ele>319</ele>
        <time>2010-01-01T20:46:49Z</time>
      </trkpt>
      <trkpt lat="42.2343" lon="2.68133">
        <ele>319</ele>
        <time>2010-01-01T20:47:00Z</time>
      </trkpt>
      <trkpt lat="42.23439" lon="2.68126">
        <ele>319</ele>
        <time>2010-01-01T20:47:10Z</time>
      </trkpt>
      <trkpt lat="42.23447" lon="2.6812">
        <ele>319</ele>
        <time>2010-01-01T20:47:20Z</time>
      </trkpt>
      <trkpt lat="42.23453" lon="2.68112">
        <ele>319</ele>
        <time>2010-01-01T20:47:28Z</time>
      </trkpt>
      <trkpt lat="42.23451" lon="2.68099">
        <ele>319</ele>
        <time>2010-01-01T20:47:38Z</time>
      </trkpt>
      <trkpt lat="42.2345" lon="2.68087">
        <ele>319</ele>
        <time>2010-01-01T20:47:47Z</time>
      </trkpt>
      <trkpt lat="42.2345" lon="2.68074">
        <ele>319</ele>
        <time>2010-01-01T20:47:57Z</time>
      </trkpt>
      <trkpt lat="42.23451" lon="2.68059">
        <ele>319</ele>
        <time>2010-01-01T20:48:08Z</time>
      </trkpt>
      <trkpt lat="42.2345" lon="2.68041">
        <ele>319</ele>
        <time>2010-01-01T20:48:21Z</time>
      </trkpt>
      <trkpt lat="42.23453" lon="2.68029">
        <ele>319</ele>
        <time>2010-01-01T20:48:31Z</time>
      </trkpt>
      <trkpt lat="42.23458" lon="2.68019">
        <ele>319</ele>
        <time>2010-01-01T20:48:40Z</time>
      </trkpt>
      <trkpt lat="42.23463" lon="2.68008">
        <ele>320</ele>
        <time>2010-01-01T20:48:49Z</time>
      </trkpt>
      <trkpt lat="42.23463" lon="2.67997">
        <ele>320</ele>
        <time>2010-01-01T20:48:57Z</time>
      </trkpt>
      <trkpt lat="42.23459" lon="2.67985">
        <ele>319</ele>
        <time>2010-01-01T20:49:07Z</time>
      </trkpt>
      <trkpt lat="42.23457" lon="2.67972">
        <ele>318</ele>
        <time>2010-01-01T20:49:17Z</time>
      </trkpt>
      <trkpt lat="42.23455" lon="2.6796">
        <ele>317</ele>
        <time>2010-01-01T20:49:26Z</time>
      </trkpt>
      <trkpt lat="42.23461" lon="2.6795">
        <ele>319</ele>
        <time>2010-01-01T20:49:35Z</time>
      </trkpt>
      <trkpt lat="42.23463" lon="2.67937">
        <ele>319</ele>
        <time>2010-01-01T20:49:45Z</time>
      </trkpt>
      <trkpt lat="42.23463" lon="2.67923">
        <ele>318</ele>
        <time>2010-01-01T20:49:55Z</time>
      </trkpt>
      <trkpt lat="42.23464" lon="2.67911">
        <ele>318</ele>
        <time>2010-01-01T20:50:04Z</time>
      </trkpt>
      <trkpt lat="42.23462" lon="2.67899">
        <ele>317</ele>
        <time>2010-01-01T20:50:14Z</time>
      </trkpt>
      <trkpt lat="42.23462" lon="2.67887">
        <ele>316</ele>
        <time>2010-01-01T20:50:23Z</time>
      </trkpt>
      <trkpt lat="42.23466" lon="2.67875">
        <ele>316</ele>
        <time>2010-01-01T20:50:32Z</time>
      </trkpt>
      <trkpt lat="42.2347" lon="2.67862">
        <ele>315</ele>
        <time>2010-01-01T20:50:43Z</time>
      </trkpt>
      <trkpt lat="42.23473" lon="2.67851">
        <ele>315</ele>
        <time>2010-01-01T20:50:52Z</time>
      </trkpt>
      <trkpt lat="42.23479" lon="2.6784">
        <ele>315</ele>
        <time>2010-01-01T20:51:02Z</time>
      </trkpt>
      <trkpt lat="42.23484" lon="2.6783">
        <ele>315</ele>
        <time>2010-01-01T20:51:11Z</time>
      </trkpt>
      <trkpt lat="42.23489" lon="2.67818">
        <ele>315</ele>
        <time>2010-01-01T20:51:21Z</time>
      </trkpt>
      <trkpt lat="42.23491" lon="2.67804">
        <ele>314</ele>
        <time>2010-01-01T20:51:31Z</time>
      </trkpt>
      <trkpt lat="42.23496" lon="2.67793">
        <ele>313</ele>
        <time>2010-01-01T20:51:41Z</time>
      </trkpt>
      <trkpt lat="42.23503" lon="2.67785">
        <ele>313</ele>
        <time>2010-01-01T20:51:50Z</time>
      </trkpt>
      <trkpt lat="42.23507" lon="2.67776">
        <ele>312</ele>
        <time>2010-01-01T20:51:58Z</time>
      </trkpt>
      <trkpt lat="42.23512" lon="2.67764">
        <ele>311</ele>
        <time>2010-01-01T20:52:08Z</time>
      </trkpt>
      <trkpt lat="42.23516" lon="2.67751">
        <ele>310</ele>
        <time>2010-01-01T20:52:18Z</time>
      </trkpt>
      <trkpt lat="42.23519" lon="2.6774">
        <ele>310</ele>
        <time>2010-01-01T20:52:27Z</time>
      </trkpt>
      <trkpt lat="42.23525" lon="2.67728">
        <ele>312</ele>
        <time>2010-01-01T20:52:38Z</time>
      </trkpt>
      <trkpt lat="42.23529" lon="2.67724">
        <ele>312</ele>
        <time>2010-01-01T20:52:42Z</time>
      </trkpt>
      <trkpt lat="42.23533" lon="2.67713">
        <ele>312</ele>
        <time>2010-01-01T20:52:52Z</time>
      </trkpt>
      <trkpt lat="42.23539" lon="2.67703">
        <ele>312</ele>
        <time>2010-01-01T20:53:01Z</time>
      </trkpt>
      <trkpt lat="42.23547" lon="2.67697">
        <ele>312</ele>
        <time>2010-01-01T20:53:10Z</time>
      </trkpt>
      <trkpt lat="42.23556" lon="2.67691">
        <ele>311</ele>
        <time>2010-01-01T20:53:21Z</time>
      </trkpt>
      <trkpt lat="42.23565" lon="2.67684">
        <ele>310</ele>
        <time>2010-01-01T20:53:31Z</time>
      </trkpt>
      <trkpt lat="42.23569" lon="2.67671">
        <ele>309</ele>
        <time>2010-01-01T20:53:41Z</time>
      </trkpt>
      <trkpt lat="42.23568" lon="2.67662">
        <ele>309</ele>
        <time>2010-01-01T20:53:48Z</time>
      </trkpt>
      <trkpt lat="42.23571" lon="2.67651">
        <ele>308</ele>
        <time>2010-01-01T20:53:57Z</time>
      </trkpt>
      <trkpt lat="42.23577" lon="2.6764">
        <ele>307</ele>
        <time>2010-01-01T20:54:07Z</time>
      </trkpt>
      <trkpt lat="42.2358" lon="2.67634">
        <ele>306</ele>
        <time>2010-01-01T20:54:12Z</time>
      </trkpt>
      <trkpt lat="42.23587" lon="2.67629">
        <ele>304</ele>
        <time>2010-01-01T20:54:20Z</time>
      </trkpt>
      <trkpt lat="42.23592" lon="2.67621">
        <ele>302</ele>
        <time>2010-01-01T20:54:28Z</time>
      </trkpt>
      <trkpt lat="42.23597" lon="2.6761">
        <ele>300</ele>
        <time>2010-01-01T20:54:37Z</time>
      </trkpt>
      <trkpt lat="42.23605" lon="2.67604">
        <ele>297</ele>
        <time>2010-01-01T20:54:47Z</time>
      </trkpt>
      <trkpt lat="42.23611" lon="2.67595">
        <ele>294</ele>
        <time>2010-01-01T20:54:56Z</time>
      </trkpt>
      <trkpt lat="42.23619" lon="2.67586">
        <ele>292</ele>
        <time>2010-01-01T20:55:06Z</time>
      </trkpt>
      <trkpt lat="42.23623" lon="2.67582">
        <ele>291</ele>
        <time>2010-01-01T20:55:11Z</time>
      </trkpt>
      <trkpt lat="42.23624" lon="2.6757">
        <ele>290</ele>
        <time>2010-01-01T20:55:20Z</time>
      </trkpt>
      <trkpt lat="42.23622" lon="2.67561">
        <ele>288</ele>
        <time>2010-01-01T20:55:27Z</time>
      </trkpt>
      <trkpt lat="42.23618" lon="2.67549">
        <ele>288</ele>
        <time>2010-01-01T20:55:37Z</time>
      </trkpt>
      <trkpt lat="42.23613" lon="2.67537">
        <ele>288</ele>
        <time>2010-01-01T20:55:47Z</time>
      </trkpt>
      <trkpt lat="42.23608" lon="2.67526">
        <ele>289</ele>
        <time>2010-01-01T20:55:57Z</time>
      </trkpt>
      <trkpt lat="42.23602" lon="2.67516">
        <ele>289</ele>
        <time>2010-01-01T20:56:06Z</time>
      </trkpt>
      <trkpt lat="42.23601" lon="2.67503">
        <ele>289</ele>
        <time>2010-01-01T20:56:16Z</time>
      </trkpt>
      <trkpt lat="42.23597" lon="2.67491">
        <ele>289</ele>
        <time>2010-01-01T20:56:25Z</time>
      </trkpt>
      <trkpt lat="42.23596" lon="2.67479">
        <ele>288</ele>
        <time>2010-01-01T20:56:34Z</time>
      </trkpt>
      <trkpt lat="42.23591" lon="2.67468">
        <ele>287</ele>
        <time>2010-01-01T20:56:44Z</time>
      </trkpt>
      <trkpt lat="42.23593" lon="2.6746">
        <ele>287</ele>
        <time>2010-01-01T20:56:50Z</time>
      </trkpt>
      <trkpt lat="42.23593" lon="2.6745">
        <ele>287</ele>
        <time>2010-01-01T20:56:57Z</time>
      </trkpt>
      <trkpt lat="42.23587" lon="2.67441">
        <ele>286</ele>
        <time>2010-01-01T20:57:07Z</time>
      </trkpt>
      <trkpt lat="42.23583" lon="2.67429">
        <ele>286</ele>
        <time>2010-01-01T20:57:16Z</time>
      </trkpt>
      <trkpt lat="42.2358" lon="2.67417">
        <ele>287</ele>
        <time>2010-01-01T20:57:26Z</time>
      </trkpt>
      <trkpt lat="42.23579" lon="2.67404">
        <ele>288</ele>
        <time>2010-01-01T20:57:35Z</time>
      </trkpt>
      <trkpt lat="42.23576" lon="2.67392">
        <ele>288</ele>
        <time>2010-01-01T20:57:45Z</time>
      </trkpt>
      <trkpt lat="42.23567" lon="2.67386">
        <ele>287</ele>
        <time>2010-01-01T20:57:55Z</time>
      </trkpt>
      <trkpt lat="42.23565" lon="2.67374">
        <ele>287</ele>
        <time>2010-01-01T20:58:04Z</time>
      </trkpt>
      <trkpt lat="42.23562" lon="2.67361">
        <ele>287</ele>
        <time>2010-01-01T20:58:14Z</time>
      </trkpt>
      <trkpt lat="42.23565" lon="2.67349">
        <ele>289</ele>
        <time>2010-01-01T20:58:23Z</time>
      </trkpt>
      <trkpt lat="42.2356" lon="2.67338">
        <ele>290</ele>
        <time>2010-01-01T20:58:33Z</time>
      </trkpt>
      <trkpt lat="42.23557" lon="2.67326">
        <ele>290</ele>
        <time>2010-01-01T20:58:42Z</time>
      </trkpt>
      <trkpt lat="42.23551" lon="2.67315">
        <ele>290</ele>
        <time>2010-01-01T20:58:52Z</time>
      </trkpt>
      <trkpt lat="42.23548" lon="2.67304">
        <ele>290</ele>
        <time>2010-01-01T20:59:01Z</time>
      </trkpt>
      <trkpt lat="42.23546" lon="2.67292">
        <ele>290</ele>
        <time>2010-01-01T20:59:10Z</time>
      </trkpt>
      <trkpt lat="42.23545" lon="2.67286">
        <ele>290</ele>
        <time>2010-01-01T20:59:15Z</time>
      </trkpt>
      <trkpt lat="42.23544" lon="2.67273">
        <ele>290</ele>
        <time>2010-01-01T20:59:24Z</time>
      </trkpt>
      <trkpt lat="42.23549" lon="2.6726">
        <ele>292</ele>
        <time>2010-01-01T20:59:35Z</time>
      </trkpt>
      <trkpt lat="42.23544" lon="2.67257">
        <ele>292</ele>
        <time>2010-01-01T20:59:40Z</time>
      </trkpt>
      <trkpt lat="42.23544" lon="2.67247">
        <ele>292</ele>
        <time>2010-01-01T20:59:47Z</time>
      </trkpt>
      <trkpt lat="42.23543" lon="2.67235">
        <ele>293</ele>
        <time>2010-01-01T20:59:56Z</time>
      </trkpt>
      <trkpt lat="42.2354" lon="2.67223">
        <ele>293</ele>
        <time>2010-01-01T21:00:06Z</time>
      </trkpt>
      <trkpt lat="42.23539" lon="2.67209">
        <ele>292</ele>
        <time>2010-01-01T21:00:16Z</time>
      </trkpt>
      <trkpt lat="42.23534" lon="2.67198">
        <ele>292</ele>
        <time>2010-01-01T21:00:25Z</time>
      </trkpt>
      <trkpt lat="42.2353" lon="2.67186">
        <ele>291</ele>
        <time>2010-01-01T21:00:35Z</time>
      </trkpt>
      <trkpt lat="42.23531" lon="2.67173">
        <ele>291</ele>
        <time>2010-01-01T21:00:45Z</time>
      </trkpt>
      <trkpt lat="42.23531" lon="2.67161">
        <ele>291</ele>
        <time>2010-01-01T21:00:54Z</time>
      </trkpt>
      <trkpt lat="42.23531" lon="2.67146">
        <ele>291</ele>
        <time>2010-01-01T21:01:05Z</time>
      </trkpt>
      <trkpt lat="42.23533" lon="2.67133">
        <ele>291</ele>
        <time>2010-01-01T21:01:15Z</time>
      </trkpt>
      <trkpt lat="42.23533" lon="2.67119">
        <ele>290</ele>
        <time>2010-01-01T21:01:25Z</time>
      </trkpt>
      <trkpt lat="42.23532" lon="2.67105">
        <ele>289</ele>
        <time>2010-01-01T21:01:35Z</time>
      </trkpt>
      <trkpt lat="42.23536" lon="2.67095">
        <ele>289</ele>
        <time>2010-01-01T21:01:44Z</time>
      </trkpt>
      <trkpt lat="42.23534" lon="2.67083">
        <ele>288</ele>
        <time>2010-01-01T21:01:53Z</time>
      </trkpt>
      <trkpt lat="42.23532" lon="2.6707">
        <ele>287</ele>
        <time>2010-01-01T21:02:03Z</time>
      </trkpt>
      <trkpt lat="42.23534" lon="2.67058">
        <ele>286</ele>
        <time>2010-01-01T21:02:12Z</time>
      </trkpt>
      <trkpt lat="42.23532" lon="2.67045">
        <ele>285</ele>
        <time>2010-01-01T21:02:22Z</time>
      </trkpt>
      <trkpt lat="42.23533" lon="2.67029">
        <ele>285</ele>
        <time>2010-01-01T21:02:34Z</time>
      </trkpt>
      <trkpt lat="42.23537" lon="2.67017">
        <ele>285</ele>
        <time>2010-01-01T21:02:44Z</time>
      </trkpt>
      <trkpt lat="42.23537" lon="2.67006">
        <ele>285</ele>
        <time>2010-01-01T21:02:51Z</time>
      </trkpt>
      <trkpt lat="42.23537" lon="2.66997">
        <ele>285</ele>
        <time>2010-01-01T21:02:58Z</time>
      </trkpt>
      <trkpt lat="42.23539" lon="2.66984">
        <ele>284</ele>
        <time>2010-01-01T21:03:08Z</time>
      </trkpt>
      <trkpt lat="42.23538" lon="2.6697">
        <ele>283</ele>
        <time>2010-01-01T21:03:18Z</time>
      </trkpt>
      <trkpt lat="42.23539" lon="2.66959">
        <ele>282</ele>
        <time>2010-01-01T21:03:27Z</time>
      </trkpt>
      <trkpt lat="42.23537" lon="2.66945">
        <ele>281</ele>
        <time>2010-01-01T21:03:37Z</time>
      </trkpt>
      <trkpt lat="42.23534" lon="2.66933">
        <ele>279</ele>
        <time>2010-01-01T21:03:47Z</time>
      </trkpt>
      <trkpt lat="42.23535" lon="2.6692">
        <ele>279</ele>
        <time>2010-01-01T21:03:57Z</time>
      </trkpt>
      <trkpt lat="42.23543" lon="2.66912">
        <ele>279</ele>
        <time>2010-01-01T21:04:06Z</time>
      </trkpt>
      <trkpt lat="42.2355" lon="2.66905">
        <ele>279</ele>
        <time>2010-01-01T21:04:15Z</time>
      </trkpt>
      <trkpt lat="42.23559" lon="2.66895">
        <ele>278</ele>
        <time>2010-01-01T21:04:27Z</time>
      </trkpt>
      <trkpt lat="42.2356" lon="2.66888">
        <ele>277</ele>
        <time>2010-01-01T21:04:32Z</time>
      </trkpt>
      <trkpt lat="42.23564" lon="2.6688">
        <ele>276</ele>
        <time>2010-01-01T21:04:39Z</time>
      </trkpt>
      <trkpt lat="42.23563" lon="2.66866">
        <ele>274</ele>
        <time>2010-01-01T21:04:50Z</time>
      </trkpt>
      <trkpt lat="42.23555" lon="2.66859">
        <ele>272</ele>
        <time>2010-01-01T21:04:59Z</time>
      </trkpt>
      <trkpt lat="42.2355" lon="2.66846">
        <ele>271</ele>
        <time>2010-01-01T21:05:10Z</time>
      </trkpt>
      <trkpt lat="42.2355" lon="2.66834">
        <ele>269</ele>
        <time>2010-01-01T21:05:19Z</time>
      </trkpt>
      <trkpt lat="42.23549" lon="2.66822">
        <ele>268</ele>
        <time>2010-01-01T21:05:28Z</time>
      </trkpt>
      <trkpt lat="42.23548" lon="2.66812">
        <ele>266</ele>
        <time>2010-01-01T21:05:36Z</time>
      </trkpt>
      <trkpt lat="42.23554" lon="2.66801">
        <ele>266</ele>
        <time>2010-01-01T21:05:45Z</time>
      </trkpt>
      <trkpt lat="42.23559" lon="2.66791">
        <ele>266</ele>
        <time>2010-01-01T21:05:54Z</time>
      </trkpt>
      <trkpt lat="42.23559" lon="2.66783">
        <ele>265</ele>
        <time>2010-01-01T21:06:01Z</time>
      </trkpt>
      <trkpt lat="42.23565" lon="2.66769">
        <ele>265</ele>
        <time>2010-01-01T21:06:12Z</time>
      </trkpt>
      <trkpt lat="42.23562" lon="2.66763">
        <ele>264</ele>
        <time>2010-01-01T21:06:18Z</time>
      </trkpt>
      <trkpt lat="42.23561" lon="2.6675">
        <ele>262</ele>
        <time>2010-01-01T21:06:28Z</time>
      </trkpt>
      <trkpt lat="42.23563" lon="2.66737">
        <ele>262</ele>
        <time>2010-01-01T21:06:37Z</time>
      </trkpt>
      <trkpt lat="42.23565" lon="2.66729">
        <ele>262</ele>
        <time>2010-01-01T21:06:44Z</time>
      </trkpt>
      <trkpt lat="42.23568" lon="2.66715">
        <ele>263</ele>
        <time>2010-01-01T21:06:54Z</time>
      </trkpt>
      <trkpt lat="42.23571" lon="2.66703">
        <ele>264</ele>
        <time>2010-01-01T21:07:03Z</time>
      </trkpt>
      <trkpt lat="42.23576" lon="2.6669">
        <ele>266</ele>
        <time>2010-01-01T21:07:14Z</time>
      </trkpt>
      <trkpt lat="42.23584" lon="2.66683">
        <ele>268</ele>
        <time>2010-01-01T21:07:24Z</time>
      </trkpt>
      <trkpt lat="42.23591" lon="2.66674">
        <ele>270</ele>
        <time>2010-01-01T21:07:34Z</time>
      </trkpt>
      <trkpt lat="42.23592" lon="2.66661">
        <ele>271</ele>
        <time>2010-01-01T21:07:43Z</time>
      </trkpt>
      <trkpt lat="42.2359" lon="2.66649">
        <ele>272</ele>
        <time>2010-01-01T21:07:52Z</time>
      </trkpt>
      <trkpt lat="42.23596" lon="2.66638">
        <ele>273</ele>
        <time>2010-01-01T21:08:02Z</time>
      </trkpt>
      <trkpt lat="42.23593" lon="2.66626">
        <ele>273</ele>
        <time>2010-01-01T21:08:11Z</time>
      </trkpt>
      <trkpt lat="42.23597" lon="2.66615">
        <ele>274</ele>
        <time>2010-01-01T21:08:21Z</time>
      </trkpt>
      <trkpt lat="42.23598" lon="2.66602">
        <ele>274</ele>
        <time>2010-01-01T21:08:30Z</time>
      </trkpt>
      <trkpt lat="42.23596" lon="2.66589">
        <ele>273</ele>
        <time>2010-01-01T21:08:40Z</time>
      </trkpt>
      <trkpt lat="42.23594" lon="2.66578">
        <ele>273</ele>
        <time>2010-01-01T21:08:48Z</time>
      </trkpt>
      <trkpt lat="42.23593" lon="2.66565">
        <ele>273</ele>
        <time>2010-01-01T21:08:58Z</time>
      </trkpt>
      <trkpt lat="42.23591" lon="2.66553">
        <ele>273</ele>
        <time>2010-01-01T21:09:07Z</time>
      </trkpt>
      <trkpt lat="42.2359" lon="2.66545">
        <ele>273</ele>
        <time>2010-01-01T21:09:13Z</time>
      </trkpt>
      <trkpt lat="42.23592" lon="2.66533">
        <ele>273</ele>
        <time>2010-01-01T21:09:22Z</time>
      </trkpt>
      <trkpt lat="42.23597" lon="2.66522">
        <ele>273</ele>
        <time>2010-01-01T21:09:32Z</time>
      </trkpt>
      <trkpt lat="42.236" lon="2.66509">
        <ele>272</ele>
        <time>2010-01-01T21:09:42Z</time>
      </trkpt>
      <trkpt lat="42.23607" lon="2.66497">
        <ele>271</ele>
        <time>2010-01-01T21:09:53Z</time>
      </trkpt>
      <trkpt lat="42.2361" lon="2.66483">
        <ele>270</ele>
        <time>2010-01-01T21:10:04Z</time>
      </trkpt>
      <trkpt lat="42.23615" lon="2.66472">
        <ele>269</ele>
        <time>2010-01-01T21:10:14Z</time>
      </trkpt>
      <trkpt lat="42.23623" lon="2.66466">
        <ele>267</ele>
        <time>2010-01-01T21:10:23Z</time>
      </trkpt>
      <trkpt lat="42.23632" lon="2.66461">
        <ele>264</ele>
        <time>2010-01-01T21:10:33Z</time>
      </trkpt>
      <trkpt lat="42.23638" lon="2.66454">
        <ele>263</ele>
        <time>2010-01-01T21:10:40Z</time>
      </trkpt>
      <trkpt lat="42.2364" lon="2.66442">
        <ele>262</ele>
        <time>2010-01-01T21:10:49Z</time>
      </trkpt>
      <trkpt lat="42.23637" lon="2.66429">
        <ele>263</ele>
        <time>2010-01-01T21:10:59Z</time>
      </trkpt>
      <trkpt lat="42.23637" lon="2.66422">
        <ele>263</ele>
        <time>2010-01-01T21:11:05Z</time>
      </trkpt>
      <trkpt lat="42.23642" lon="2.66416">
        <ele>262</ele>
        <time>2010-01-01T21:11:11Z</time>
      </trkpt>
      <trkpt lat="42.2364" lon="2.66409">
        <ele>262</ele>
        <time>2010-01-01T21:11:17Z</time>
      </trkpt>
      <trkpt lat="42.23639" lon="2.66398">
        <ele>262</ele>
        <time>2010-01-01T21:11:25Z</time>
      </trkpt>
      <trkpt lat="42.2364" lon="2.66385">
        <ele>261</ele>
        <time>2010-01-01T21:11:35Z</time>
      </trkpt>
      <trkpt lat="42.23639" lon="2.66372">
        <ele>261</ele>
        <time>2010-01-01T21:11:44Z</time>
      </trkpt>
      <trkpt lat="42.23632" lon="2.66364">
        <ele>261</ele>
        <time>2010-01-01T21:11:54Z</time>
      </trkpt>
      <trkpt lat="42.23627" lon="2.66353">
        <ele>261</ele>
        <time>2010-01-01T21:12:03Z</time>
      </trkpt>
      <trkpt lat="42.23624" lon="2.66341">
        <ele>259</ele>
        <time>2010-01-01T21:12:13Z</time>
      </trkpt>
      <trkpt lat="42.23621" lon="2.6633">
        <ele>258</ele>
        <time>2010-01-01T21:12:22Z</time>
      </trkpt>
      <trkpt lat="42.23615" lon="2.66319">
        <ele>257</ele>
        <time>2010-01-01T21:12:31Z</time>
      </trkpt>
      <trkpt lat="42.23607" lon="2.66307">
        <ele>256</ele>
        <time>2010-01-01T21:12:43Z</time>
      </trkpt>
      <trkpt lat="42.23601" lon="2.66298">
        <ele>255</ele>
        <time>2010-01-01T21:12:52Z</time>
      </trkpt>
      <trkpt lat="42.23593" lon="2.66291">
        <ele>254</ele>
        <time>2010-01-01T21:13:02Z</time>
      </trkpt>
      <trkpt lat="42.23586" lon="2.66281">
        <ele>253</ele>
        <time>2010-01-01T21:13:12Z</time>
      </trkpt>
      <trkpt lat="42.23579" lon="2.66274">
        <ele>252</ele>
        <time>2010-01-01T21:13:21Z</time>
      </trkpt>
      <trkpt lat="42.23573" lon="2.66263">
        <ele>250</ele>
        <time>2010-01-01T21:13:30Z</time>
      </trkpt>
      <trkpt lat="42.23575" lon="2.66251">
        <ele>248</ele>
        <time>2010-01-01T21:13:40Z</time>
      </trkpt>
      <trkpt lat="42.23572" lon="2.66237">
        <ele>246</ele>
        <time>2010-01-01T21:13:50Z</time>
      </trkpt>
      <trkpt lat="42.23571" lon="2.66223">
        <ele>245</ele>
        <time>2010-01-01T21:14:01Z</time>
      </trkpt>
      <trkpt lat="42.23569" lon="2.6621">
        <ele>243</ele>
        <time>2010-01-01T21:14:10Z</time>
      </trkpt>
      <trkpt lat="42.23571" lon="2.66198">
        <ele>242</ele>
        <time>2010-01-01T21:14:20Z</time>
      </trkpt>
      <trkpt lat="42.23571" lon="2.66184">
        <ele>241</ele>
        <time>2010-01-01T21:14:30Z</time>
      </trkpt>
      <trkpt lat="42.23571" lon="2.66175">
        <ele>240</ele>
        <time>2010-01-01T21:14:37Z</time>
      </trkpt>
      <trkpt lat="42.23574" lon="2.66163">
        <ele>239</ele>
        <time>2010-01-01T21:14:46Z</time>
      </trkpt>
      <trkpt lat="42.23569" lon="2.66152">
        <ele>237</ele>
        <time>2010-01-01T21:14:56Z</time>
      </trkpt>
      <trkpt lat="42.23564" lon="2.6614">
        <ele>236</ele>
        <time>2010-01-01T21:15:06Z</time>
      </trkpt>
      <trkpt lat="42.23565" lon="2.66129">
        <ele>234</ele>
        <time>2010-01-01T21:15:14Z</time>
      </trkpt>
      <trkpt lat="42.23568" lon="2.66117">
        <ele>231</ele>
        <time>2010-01-01T21:15:24Z</time>
      </trkpt>
      <trkpt lat="42.23565" lon="2.66105">
        <ele>229</ele>
        <time>2010-01-01T21:15:33Z</time>
      </trkpt>
      <trkpt lat="42.23564" lon="2.66092">
        <ele>226</ele>
        <time>2010-01-01T21:15:43Z</time>
      </trkpt>
      <trkpt lat="42.23563" lon="2.66079">
        <ele>224</ele>
        <time>2010-01-01T21:15:52Z</time>
      </trkpt>
      <trkpt lat="42.23555" lon="2.66073">
        <ele>223</ele>
        <time>2010-01-01T21:16:02Z</time>
      </trkpt>
      <trkpt lat="42.23548" lon="2.66082">
        <ele>224</ele>
        <time>2010-01-01T21:16:11Z</time>
      </trkpt>
      <trkpt lat="42.23545" lon="2.66096">
        <ele>226</ele>
        <time>2010-01-01T21:16:21Z</time>
      </trkpt>
      <trkpt lat="42.23544" lon="2.66109">
        <ele>228</ele>
        <time>2010-01-01T21:16:31Z</time>
      </trkpt>
      <trkpt lat="42.23537" lon="2.66118">
        <ele>229</ele>
        <time>2010-01-01T21:16:41Z</time>
      </trkpt>
      <trkpt lat="42.23529" lon="2.66127">
        <ele>228</ele>
        <time>2010-01-01T21:16:50Z</time>
      </trkpt>
      <trkpt lat="42.23522" lon="2.66132">
        <ele>228</ele>
        <time>2010-01-01T21:16:59Z</time>
      </trkpt>
      <trkpt lat="42.23512" lon="2.66134">
        <ele>226</ele>
        <time>2010-01-01T21:17:09Z</time>
      </trkpt>
      <trkpt lat="42.23506" lon="2.66126">
        <ele>224</ele>
        <time>2010-01-01T21:17:18Z</time>
      </trkpt>
      <trkpt lat="42.23504" lon="2.66112">
        <ele>222</ele>
        <time>2010-01-01T21:17:28Z</time>
      </trkpt>
      <trkpt lat="42.23505" lon="2.66099">
        <ele>221</ele>
        <time>2010-01-01T21:17:38Z</time>
      </trkpt>
      <trkpt lat="42.23508" lon="2.66087">
        <ele>221</ele>
        <time>2010-01-01T21:17:48Z</time>
      </trkpt>
      <trkpt lat="42.23511" lon="2.66075">
        <ele>221</ele>
        <time>2010-01-01T21:17:57Z</time>
      </trkpt>
      <trkpt lat="42.23518" lon="2.66066">
        <ele>221</ele>
        <time>2010-01-01T21:18:06Z</time>
      </trkpt>
      <trkpt lat="42.23526" lon="2.66063">
        <ele>222</ele>
        <time>2010-01-01T21:18:15Z</time>
      </trkpt>
      <trkpt lat="42.23533" lon="2.66054">
        <ele>221</ele>
        <time>2010-01-01T21:18:24Z</time>
      </trkpt>
      <trkpt lat="42.23541" lon="2.66051">
        <ele>221</ele>
        <time>2010-01-01T21:18:33Z</time>
      </trkpt>
      <trkpt lat="42.23552" lon="2.66051">
        <ele>221</ele>
        <time>2010-01-01T21:18:44Z</time>
      </trkpt>
      <trkpt lat="42.23562" lon="2.66045">
        <ele>221</ele>
        <time>2010-01-01T21:18:55Z</time>
      </trkpt>
      <trkpt lat="42.2357" lon="2.6604">
        <ele>220</ele>
        <time>2010-01-01T21:19:04Z</time>
      </trkpt>
      <trkpt lat="42.23576" lon="2.66044">
        <ele>220</ele>
        <time>2010-01-01T21:19:11Z</time>
      </trkpt>
      <trkpt lat="42.23585" lon="2.66042">
        <ele>220</ele>
        <time>2010-01-01T21:19:20Z</time>
      </trkpt>
      <trkpt lat="42.23591" lon="2.66045">
        <ele>220</ele>
        <time>2010-01-01T21:19:26Z</time>
      </trkpt>
      <trkpt lat="42.23599" lon="2.6605">
        <ele>220</ele>
        <time>2010-01-01T21:19:36Z</time>
      </trkpt>
      <trkpt lat="42.23605" lon="2.6604">
        <ele>221</ele>
        <time>2010-01-01T21:19:45Z</time>
      </trkpt>
      <trkpt lat="42.23612" lon="2.66032">
        <ele>222</ele>
        <time>2010-01-01T21:19:54Z</time>
      </trkpt>
      <trkpt lat="42.23622" lon="2.66029">
        <ele>224</ele>
        <time>2010-01-01T21:20:04Z</time>
      </trkpt>
      <trkpt lat="42.23631" lon="2.66028">
        <ele>226</ele>
        <time>2010-01-01T21:20:14Z</time>
      </trkpt>
      <trkpt lat="42.23641" lon="2.66027">
        <ele>228</ele>
        <time>2010-01-01T21:20:24Z</time>
      </trkpt>
      <trkpt lat="42.23648" lon="2.66019">
        <ele>231</ele>
        <time>2010-01-01T21:20:33Z</time>
      </trkpt>
      <trkpt lat="42.23654" lon="2.66009">
        <ele>235</ele>
        <time>2010-01-01T21:20:42Z</time>
      </trkpt>
      <trkpt lat="42.23663" lon="2.66007">
        <ele>237</ele>
        <time>2010-01-01T21:20:52Z</time>
      </trkpt>
      <trkpt lat="42.23668" lon="2.66006">
        <ele>238</ele>
        <time>2010-01-01T21:20:56Z</time>
      </trkpt>
      <trkpt lat="42.23672" lon="2.66003">
        <ele>239</ele>
        <time>2010-01-01T21:21:02Z</time>
      </trkpt>
      <trkpt lat="42.23677" lon="2.66002">
        <ele>239</ele>
        <time>2010-01-01T21:21:07Z</time>
      </trkpt>
      <trkpt lat="42.23674" lon="2.65996">
        <ele>240</ele>
        <time>2010-01-01T21:21:13Z</time>
      </trkpt>
      <trkpt lat="42.23665" lon="2.6599">
        <ele>242</ele>
        <time>2010-01-01T21:21:23Z</time>
      </trkpt>
      <trkpt lat="42.23662" lon="2.65976">
        <ele>244</ele>
        <time>2010-01-01T21:21:33Z</time>
      </trkpt>
      <trkpt lat="42.23667" lon="2.65962">
        <ele>248</ele>
        <time>2010-01-01T21:21:44Z</time>
      </trkpt>
      <trkpt lat="42.23672" lon="2.65951">
        <ele>251</ele>
        <time>2010-01-01T21:21:54Z</time>
      </trkpt>
      <trkpt lat="42.23678" lon="2.65946">
        <ele>251</ele>
        <time>2010-01-01T21:22:01Z</time>
      </trkpt>
      <trkpt lat="42.23685" lon="2.65942">
        <ele>252</ele>
        <time>2010-01-01T21:22:08Z</time>
      </trkpt>
      <trkpt lat="42.23689" lon="2.65931">
        <ele>254</ele>
        <time>2010-01-01T21:22:17Z</time>
      </trkpt>
      <trkpt lat="42.23692" lon="2.65919">
        <ele>256</ele>
        <time>2010-01-01T21:22:27Z</time>
      </trkpt>
      <trkpt lat="42.23694" lon="2.65909">
        <ele>258</ele>
        <time>2010-01-01T21:22:35Z</time>
      </trkpt>
      <trkpt lat="42.237" lon="2.65899">
        <ele>259</ele>
        <time>2010-01-01T21:22:44Z</time>
      </trkpt>
      <trkpt lat="42.2371" lon="2.65892">
        <ele>260</ele>
        <time>2010-01-01T21:22:55Z</time>
      </trkpt>
      <trkpt lat="42.23716" lon="2.65882">
        <ele>261</ele>
        <time>2010-01-01T21:23:04Z</time>
      </trkpt>
      <trkpt lat="42.23721" lon="2.6587">
        <ele>263</ele>
        <time>2010-01-01T21:23:15Z</time>
      </trkpt>
      <trkpt lat="42.23724" lon="2.65864">
        <ele>264</ele>
        <time>2010-01-01T21:23:20Z</time>
      </trkpt>
      <trkpt lat="42.23716" lon="2.65862">
        <ele>265</ele>
        <time>2010-01-01T21:23:28Z</time>
      </trkpt>
      <trkpt lat="42.23705" lon="2.65862">
        <ele>266</ele>
        <time>2010-01-01T21:23:38Z</time>
      </trkpt>
      <trkpt lat="42.23696" lon="2.6586">
        <ele>267</ele>
        <time>2010-01-01T21:23:48Z</time>
      </trkpt>
      <trkpt lat="42.23683" lon="2.65857">
        <ele>268</ele>
        <time>2010-01-01T21:24:01Z</time>
      </trkpt>
      <trkpt lat="42.23673" lon="2.65853">
        <ele>269</ele>
        <time>2010-01-01T21:24:12Z</time>
      </trkpt>
      <trkpt lat="42.23664" lon="2.65841">
        <ele>270</ele>
        <time>2010-01-01T21:24:24Z</time>
      </trkpt>
      <trkpt lat="42.23658" lon="2.65832">
        <ele>269</ele>
        <time>2010-01-01T21:24:33Z</time>
      </trkpt>
      <trkpt lat="42.2375" lon="2.65858">
        <ele>261</ele>
        <time>2010-01-01T21:26:08Z</time>
      </trkpt>
      <trkpt lat="42.23787" lon="2.65851">
        <ele>258</ele>
        <time>2010-01-01T21:26:45Z</time>
      </trkpt>
      <trkpt lat="42.23817" lon="2.65832">
        <ele>257</ele>
        <time>2010-01-01T21:27:19Z</time>
      </trkpt>
      <trkpt lat="42.23867" lon="2.65837">
        <ele>252</ele>
        <time>2010-01-01T21:28:08Z</time>
      </trkpt>
      <trkpt lat="42.23902" lon="2.6585">
        <ele>248</ele>
        <time>2010-01-01T21:28:44Z</time>
      </trkpt>
      <trkpt lat="42.23965" lon="2.65905">
        <ele>240</ele>
        <time>2010-01-01T21:30:00Z</time>
      </trkpt>
      <trkpt lat="42.2398" lon="2.6592">
        <ele>238</ele>
        <time>2010-01-01T21:30:18Z</time>
      </trkpt>
      <trkpt lat="42.24004" lon="2.65928">
        <ele>239</ele>
        <time>2010-01-01T21:30:44Z</time>
      </trkpt>
      <trkpt lat="42.24051" lon="2.65944">
        <ele>240</ele>
        <time>2010-01-01T21:31:32Z</time>
      </trkpt>
      <trkpt lat="42.24081" lon="2.6595">
        <ele>240</ele>
        <time>2010-01-01T21:32:02Z</time>
      </trkpt>
      <trkpt lat="42.241" lon="2.65963">
        <ele>240</ele>
        <time>2010-01-01T21:32:23Z</time>
      </trkpt>
      <trkpt lat="42.24152" lon="2.66001">
        <ele>238</ele>
        <time>2010-01-01T21:33:22Z</time>
      </trkpt>
      <trkpt lat="42.24172" lon="2.66001">
        <ele>239</ele>
        <time>2010-01-01T21:33:43Z</time>
      </trkpt>
      <trkpt lat="42.24199" lon="2.66003">
        <ele>242</ele>
        <time>2010-01-01T21:34:10Z</time>
      </trkpt>
      <trkpt lat="42.24216" lon="2.66012">
        <ele>243</ele>
        <time>2010-01-01T21:34:28Z</time>
      </trkpt>
      <trkpt lat="42.24242" lon="2.66019">
        <ele>246</ele>
        <time>2010-01-01T21:34:54Z</time>
      </trkpt>
      <trkpt lat="42.24267" lon="2.66021">
        <ele>247</ele>
        <time>2010-01-01T21:35:19Z</time>
      </trkpt>
      <trkpt lat="42.24292" lon="2.66031">
        <ele>244</ele>
        <time>2010-01-01T21:35:45Z</time>
      </trkpt>
      <trkpt lat="42.24323" lon="2.66037">
        <ele>242</ele>
        <time>2010-01-01T21:36:17Z</time>
      </trkpt>
      <trkpt lat="42.244" lon="2.66026">
        <ele>245</ele>
        <time>2010-01-01T21:37:34Z</time>
      </trkpt>
      <trkpt lat="42.24418" lon="2.6602">
        <ele>247</ele>
        <time>2010-01-01T21:37:53Z</time>
      </trkpt>
      <trkpt lat="42.24439" lon="2.66013">
        <ele>249</ele>
        <time>2010-01-01T21:38:14Z</time>
      </trkpt>
      <trkpt lat="42.24468" lon="2.66008">
        <ele>250</ele>
        <time>2010-01-01T21:38:44Z</time>
      </trkpt>
      <trkpt lat="42.24486" lon="2.66003">
        <ele>249</ele>
        <time>2010-01-01T21:39:03Z</time>
      </trkpt>
      <trkpt lat="42.24495" lon="2.65995">
        <ele>250</ele>
        <time>2010-01-01T21:39:13Z</time>
      </trkpt>
      <trkpt lat="42.24452" lon="2.65974">
        <ele>257</ele>
        <time>2010-01-01T21:39:59Z</time>
      </trkpt>
      <trkpt lat="42.24468" lon="2.65973">
        <ele>257</ele>
        <time>2010-01-01T21:40:14Z</time>
      </trkpt>
      <trkpt lat="42.24477" lon="2.65972">
        <ele>257</ele>
        <time>2010-01-01T21:40:23Z</time>
      </trkpt>
      <trkpt lat="42.24489" lon="2.65975">
        <ele>255</ele>
        <time>2010-01-01T21:40:36Z</time>
      </trkpt>
      <trkpt lat="42.24501" lon="2.65974">
        <ele>253</ele>
        <time>2010-01-01T21:40:48Z</time>
      </trkpt>
      <trkpt lat="42.2451" lon="2.6597">
        <ele>252</ele>
        <time>2010-01-01T21:40:58Z</time>
      </trkpt>
      <trkpt lat="42.24517" lon="2.65967">
        <ele>252</ele>
        <time>2010-01-01T21:41:05Z</time>
      </trkpt>
      <trkpt lat="42.24528" lon="2.65958">
        <ele>252</ele>
        <time>2010-01-01T21:41:17Z</time>
      </trkpt>
      <trkpt lat="42.24532" lon="2.6595">
        <ele>252</ele>
        <time>2010-01-01T21:41:25Z</time>
      </trkpt>
      <trkpt lat="42.24539" lon="2.65939">
        <ele>251</ele>
        <time>2010-01-01T21:41:35Z</time>
      </trkpt>
      <trkpt lat="42.24543" lon="2.65929">
        <ele>250</ele>
        <time>2010-01-01T21:41:44Z</time>
      </trkpt>
      <trkpt lat="42.24551" lon="2.6591">
        <ele>248</ele>
        <time>2010-01-01T21:42:00Z</time>
      </trkpt>
      <trkpt lat="42.24556" lon="2.65898">
        <ele>247</ele>
        <time>2010-01-01T21:42:10Z</time>
      </trkpt>
      <trkpt lat="42.24562" lon="2.65884">
        <ele>246</ele>
        <time>2010-01-01T21:42:22Z</time>
      </trkpt>
      <trkpt lat="42.24567" lon="2.65868">
        <ele>246</ele>
        <time>2010-01-01T21:42:35Z</time>
      </trkpt>
      <trkpt lat="42.24568" lon="2.65859">
        <ele>245</ele>
        <time>2010-01-01T21:42:42Z</time>
      </trkpt>
      <trkpt lat="42.24564" lon="2.6585">
        <ele>246</ele>
        <time>2010-01-01T21:42:49Z</time>
      </trkpt>
      <trkpt lat="42.24566" lon="2.6584">
        <ele>246</ele>
        <time>2010-01-01T21:42:57Z</time>
      </trkpt>
      <trkpt lat="42.24567" lon="2.65825">
        <ele>245</ele>
        <time>2010-01-01T21:43:08Z</time>
      </trkpt>
      <trkpt lat="42.2457" lon="2.65811">
        <ele>244</ele>
        <time>2010-01-01T21:43:19Z</time>
      </trkpt>
      <trkpt lat="42.24578" lon="2.6579">
        <ele>243</ele>
        <time>2010-01-01T21:43:36Z</time>
      </trkpt>
      <trkpt lat="42.2458" lon="2.65783">
        <ele>243</ele>
        <time>2010-01-01T21:43:42Z</time>
      </trkpt>
      <trkpt lat="42.2459" lon="2.6577">
        <ele>243</ele>
        <time>2010-01-01T21:43:55Z</time>
      </trkpt>
      <trkpt lat="42.24594" lon="2.65766">
        <ele>244</ele>
        <time>2010-01-01T21:44:01Z</time>
      </trkpt>
      <trkpt lat="42.24609" lon="2.65762">
        <ele>244</ele>
        <time>2010-01-01T21:44:16Z</time>
      </trkpt>
      <trkpt lat="42.2462" lon="2.65767">
        <ele>244</ele>
        <time>2010-01-01T21:44:28Z</time>
      </trkpt>
      <trkpt lat="42.24625" lon="2.65771">
        <ele>244</ele>
        <time>2010-01-01T21:44:33Z</time>
      </trkpt>
      <trkpt lat="42.24642" lon="2.65776">
        <ele>245</ele>
        <time>2010-01-01T21:44:50Z</time>
      </trkpt>
      <trkpt lat="42.24654" lon="2.65784">
        <ele>245</ele>
        <time>2010-01-01T21:45:04Z</time>
      </trkpt>
      <trkpt lat="42.24661" lon="2.65785">
        <ele>245</ele>
        <time>2010-01-01T21:45:11Z</time>
      </trkpt>
      <trkpt lat="42.24668" lon="2.65792">
        <ele>246</ele>
        <time>2010-01-01T21:45:20Z</time>
      </trkpt>
      <trkpt lat="42.24679" lon="2.65805">
        <ele>246</ele>
        <time>2010-01-01T21:45:35Z</time>
      </trkpt>
      <trkpt lat="42.24685" lon="2.65811">
        <ele>247</ele>
        <time>2010-01-01T21:45:41Z</time>
      </trkpt>
      <trkpt lat="42.24696" lon="2.65823">
        <ele>248</ele>
        <time>2010-01-01T21:45:56Z</time>
      </trkpt>
      <trkpt lat="42.24706" lon="2.65832">
        <ele>250</ele>
        <time>2010-01-01T21:46:08Z</time>
      </trkpt>
      <trkpt lat="42.24708" lon="2.65841">
        <ele>251</ele>
        <time>2010-01-01T21:46:15Z</time>
      </trkpt>
      <trkpt lat="42.24715" lon="2.65855">
        <ele>253</ele>
        <time>2010-01-01T21:46:27Z</time>
      </trkpt>
      <trkpt lat="42.24719" lon="2.65859">
        <ele>255</ele>
        <time>2010-01-01T21:46:33Z</time>
      </trkpt>
      <trkpt lat="42.24723" lon="2.6587">
        <ele>257</ele>
        <time>2010-01-01T21:46:41Z</time>
      </trkpt>
      <trkpt lat="42.24727" lon="2.65875">
        <ele>258</ele>
        <time>2010-01-01T21:46:47Z</time>
      </trkpt>
      <trkpt lat="42.2473" lon="2.6589">
        <ele>261</ele>
        <time>2010-01-01T21:46:58Z</time>
      </trkpt>
      <trkpt lat="42.24729" lon="2.65904">
        <ele>263</ele>
        <time>2010-01-01T21:47:09Z</time>
      </trkpt>
      <trkpt lat="42.24735" lon="2.65925">
        <ele>268</ele>
        <time>2010-01-01T21:47:25Z</time>
      </trkpt>
      <trkpt lat="42.24736" lon="2.65929">
        <ele>268</ele>
        <time>2010-01-01T21:47:29Z</time>
      </trkpt>
      <trkpt lat="42.24729" lon="2.65944">
        <ele>269</ele>
        <time>2010-01-01T21:47:42Z</time>
      </trkpt>
      <trkpt lat="42.24725" lon="2.65957">
        <ele>271</ele>
        <time>2010-01-01T21:47:52Z</time>
      </trkpt>
      <trkpt lat="42.2472" lon="2.65972">
        <ele>272</ele>
        <time>2010-01-01T21:48:04Z</time>
      </trkpt>
      <trkpt lat="42.24718" lon="2.65988">
        <ele>274</ele>
        <time>2010-01-01T21:48:16Z</time>
      </trkpt>
      <trkpt lat="42.24713" lon="2.66008">
        <ele>276</ele>
        <time>2010-01-01T21:48:32Z</time>
      </trkpt>
      <trkpt lat="42.24713" lon="2.6601">
        <ele>276</ele>
        <time>2010-01-01T21:48:33Z</time>
      </trkpt>
      <trkpt lat="42.2471" lon="2.6603">
        <ele>277</ele>
        <time>2010-01-01T21:48:48Z</time>
      </trkpt>
      <trkpt lat="42.24712" lon="2.66043">
        <ele>279</ele>
        <time>2010-01-01T21:48:58Z</time>
      </trkpt>
      <trkpt lat="42.24717" lon="2.66049">
        <ele>281</ele>
        <time>2010-01-01T21:49:05Z</time>
      </trkpt>
      <trkpt lat="42.24729" lon="2.66058">
        <ele>283</ele>
        <time>2010-01-01T21:49:18Z</time>
      </trkpt>
      <trkpt lat="42.24744" lon="2.66067">
        <ele>285</ele>
        <time>2010-01-01T21:49:35Z</time>
      </trkpt>
      <trkpt lat="42.24747" lon="2.66069">
        <ele>286</ele>
        <time>2010-01-01T21:49:38Z</time>
      </trkpt>
      <trkpt lat="42.24762" lon="2.66077">
        <ele>288</ele>
        <time>2010-01-01T21:49:54Z</time>
      </trkpt>
      <trkpt lat="42.24769" lon="2.66079">
        <ele>290</ele>
        <time>2010-01-01T21:50:01Z</time>
      </trkpt>
      <trkpt lat="42.24781" lon="2.66085">
        <ele>292</ele>
        <time>2010-01-01T21:50:14Z</time>
      </trkpt>
      <trkpt lat="42.2479" lon="2.66092">
        <ele>295</ele>
        <time>2010-01-01T21:50:25Z</time>
      </trkpt>
      <trkpt lat="42.24805" lon="2.66103">
        <ele>299</ele>
        <time>2010-01-01T21:50:42Z</time>
      </trkpt>
      <trkpt lat="42.24812" lon="2.66111">
        <ele>301</ele>
        <time>2010-01-01T21:50:51Z</time>
      </trkpt>
      <trkpt lat="42.24816" lon="2.6612">
        <ele>303</ele>
        <time>2010-01-01T21:50:58Z</time>
      </trkpt>
      <trkpt lat="42.24821" lon="2.66131">
        <ele>305</ele>
        <time>2010-01-01T21:51:08Z</time>
      </trkpt>
      <trkpt lat="42.24829" lon="2.66154">
        <ele>308</ele>
        <time>2010-01-01T21:51:27Z</time>
      </trkpt>
      <trkpt lat="42.24831" lon="2.66167">
        <ele>309</ele>
        <time>2010-01-01T21:51:37Z</time>
      </trkpt>
      <trkpt lat="42.24837" lon="2.66188">
        <ele>311</ele>
        <time>2010-01-01T21:51:54Z</time>
      </trkpt>
      <trkpt lat="42.24838" lon="2.66191">
        <ele>311</ele>
        <time>2010-01-01T21:51:56Z</time>
      </trkpt>
      <trkpt lat="42.24843" lon="2.66212">
        <ele>313</ele>
        <time>2010-01-01T21:52:12Z</time>
      </trkpt>
      <trkpt lat="42.24847" lon="2.66236">
        <ele>314</ele>
        <time>2010-01-01T21:52:31Z</time>
      </trkpt>
      <trkpt lat="42.24851" lon="2.66252">
        <ele>315</ele>
        <time>2010-01-01T21:52:43Z</time>
      </trkpt>
      <trkpt lat="42.24854" lon="2.66265">
        <ele>315</ele>
        <time>2010-01-01T21:52:53Z</time>
      </trkpt>
      <trkpt lat="42.24855" lon="2.66276">
        <ele>315</ele>
        <time>2010-01-01T21:53:02Z</time>
      </trkpt>
      <trkpt lat="42.24859" lon="2.66295">
        <ele>317</ele>
        <time>2010-01-01T21:53:16Z</time>
      </trkpt>
      <trkpt lat="42.24862" lon="2.66302">
        <ele>318</ele>
        <time>2010-01-01T21:53:22Z</time>
      </trkpt>
      <trkpt lat="42.24866" lon="2.66319">
        <ele>320</ele>
        <time>2010-01-01T21:53:35Z</time>
      </trkpt>
      <trkpt lat="42.24871" lon="2.66333">
        <ele>322</ele>
        <time>2010-01-01T21:53:47Z</time>
      </trkpt>
      <trkpt lat="42.24871" lon="2.66349">
        <ele>322</ele>
        <time>2010-01-01T21:53:59Z</time>
      </trkpt>
      <trkpt lat="42.24877" lon="2.66372">
        <ele>325</ele>
        <time>2010-01-01T21:54:17Z</time>
      </trkpt>
      <trkpt lat="42.2488" lon="2.66394">
        <ele>326</ele>
        <time>2010-01-01T21:54:34Z</time>
      </trkpt>
      <trkpt lat="42.24881" lon="2.66408">
        <ele>327</ele>
        <time>2010-01-01T21:54:44Z</time>
      </trkpt>
      <trkpt lat="42.24883" lon="2.66425">
        <ele>328</ele>
        <time>2010-01-01T21:54:56Z</time>
      </trkpt>
      <trkpt lat="42.24888" lon="2.66437">
        <ele>328</ele>
        <time>2010-01-01T21:55:07Z</time>
      </trkpt>
      <trkpt lat="42.24896" lon="2.66445">
        <ele>330</ele>
        <time>2010-01-01T21:55:17Z</time>
      </trkpt>
      <trkpt lat="42.24904" lon="2.66454">
        <ele>332</ele>
        <time>2010-01-01T21:55:27Z</time>
      </trkpt>
      <trkpt lat="42.24909" lon="2.66462">
        <ele>333</ele>
        <time>2010-01-01T21:55:35Z</time>
      </trkpt>
      <trkpt lat="42.24916" lon="2.66461">
        <ele>334</ele>
        <time>2010-01-01T21:55:42Z</time>
      </trkpt>
      <trkpt lat="42.2491" lon="2.66448">
        <ele>333</ele>
        <time>2010-01-01T21:55:53Z</time>
      </trkpt>
      <trkpt lat="42.24906" lon="2.66438">
        <ele>332</ele>
        <time>2010-01-01T21:56:02Z</time>
      </trkpt>
      <trkpt lat="42.24905" lon="2.66424">
        <ele>332</ele>
        <time>2010-01-01T21:56:12Z</time>
      </trkpt>
      <trkpt lat="42.24909" lon="2.66413">
        <ele>332</ele>
        <time>2010-01-01T21:56:21Z</time>
      </trkpt>
      <trkpt lat="42.24918" lon="2.66397">
        <ele>334</ele>
        <time>2010-01-01T21:56:36Z</time>
      </trkpt>
      <trkpt lat="42.24924" lon="2.6639">
        <ele>335</ele>
        <time>2010-01-01T21:56:44Z</time>
      </trkpt>
      <trkpt lat="42.24936" lon="2.6638">
        <ele>338</ele>
        <time>2010-01-01T21:56:58Z</time>
      </trkpt>
      <trkpt lat="42.24943" lon="2.66372">
        <ele>340</ele>
        <time>2010-01-01T21:57:08Z</time>
      </trkpt>
      <trkpt lat="42.24951" lon="2.66365">
        <ele>341</ele>
        <time>2010-01-01T21:57:17Z</time>
      </trkpt>
      <trkpt lat="42.2496" lon="2.66364">
        <ele>343</ele>
        <time>2010-01-01T21:57:25Z</time>
      </trkpt>
      <trkpt lat="42.24967" lon="2.66357">
        <ele>345</ele>
        <time>2010-01-01T21:57:34Z</time>
      </trkpt>
      <trkpt lat="42.2498" lon="2.66344">
        <ele>347</ele>
        <time>2010-01-01T21:57:51Z</time>
      </trkpt>
      <trkpt lat="42.24985" lon="2.6634">
        <ele>348</ele>
        <time>2010-01-01T21:57:57Z</time>
      </trkpt>
      <trkpt lat="42.24997" lon="2.66328">
        <ele>350</ele>
        <time>2010-01-01T21:58:12Z</time>
      </trkpt>
      <trkpt lat="42.25003" lon="2.66316">
        <ele>349</ele>
        <time>2010-01-01T21:58:22Z</time>
      </trkpt>
      <trkpt lat="42.25013" lon="2.66308">
        <ele>350</ele>
        <time>2010-01-01T21:58:34Z</time>
      </trkpt>
      <trkpt lat="42.25021" lon="2.66296">
        <ele>350</ele>
        <time>2010-01-01T21:58:45Z</time>
      </trkpt>
      <trkpt lat="42.25031" lon="2.66286">
        <ele>351</ele>
        <time>2010-01-01T21:58:58Z</time>
      </trkpt>
      <trkpt lat="42.25033" lon="2.66282">
        <ele>351</ele>
        <time>2010-01-01T21:59:02Z</time>
      </trkpt>
      <trkpt lat="42.2504" lon="2.6627">
        <ele>352</ele>
        <time>2010-01-01T21:59:13Z</time>
      </trkpt>
      <trkpt lat="42.25043" lon="2.6626">
        <ele>352</ele>
        <time>2010-01-01T21:59:21Z</time>
      </trkpt>
      <trkpt lat="42.25047" lon="2.66255">
        <ele>352</ele>
        <time>2010-01-01T21:59:26Z</time>
      </trkpt>
      <trkpt lat="42.25051" lon="2.66252">
        <ele>354</ele>
        <time>2010-01-01T21:59:31Z</time>
      </trkpt>
      <trkpt lat="42.25053" lon="2.66251">
        <ele>355</ele>
        <time>2010-01-01T21:59:33Z</time>
      </trkpt>
      <trkpt lat="42.25063" lon="2.66254">
        <ele>360</ele>
        <time>2010-01-01T21:59:44Z</time>
      </trkpt>
      <trkpt lat="42.25069" lon="2.66249">
        <ele>363</ele>
        <time>2010-01-01T21:59:50Z</time>
      </trkpt>
      <trkpt lat="42.25078" lon="2.66241">
        <ele>367</ele>
        <time>2010-01-01T22:00:01Z</time>
      </trkpt>
      <trkpt lat="42.25083" lon="2.66236">
        <ele>369</ele>
        <time>2010-01-01T22:00:07Z</time>
      </trkpt>
      <trkpt lat="42.25084" lon="2.66219">
        <ele>368</ele>
        <time>2010-01-01T22:00:19Z</time>
      </trkpt>
      <trkpt lat="42.25085" lon="2.66211">
        <ele>367</ele>
        <time>2010-01-01T22:00:26Z</time>
      </trkpt>
      <trkpt lat="42.2509" lon="2.66198">
        <ele>366</ele>
        <time>2010-01-01T22:00:37Z</time>
      </trkpt>
      <trkpt lat="42.25093" lon="2.66192">
        <ele>367</ele>
        <time>2010-01-01T22:00:42Z</time>
      </trkpt>
      <trkpt lat="42.25097" lon="2.66181">
        <ele>366</ele>
        <time>2010-01-01T22:00:51Z</time>
      </trkpt>
      <trkpt lat="42.25098" lon="2.66161">
        <ele>362</ele>
        <time>2010-01-01T22:01:06Z</time>
      </trkpt>
      <trkpt lat="42.25103" lon="2.66143">
        <ele>359</ele>
        <time>2010-01-01T22:01:20Z</time>
      </trkpt>
      <trkpt lat="42.25109" lon="2.66135">
        <ele>358</ele>
        <time>2010-01-01T22:01:29Z</time>
      </trkpt>
      <trkpt lat="42.25117" lon="2.66138">
        <ele>359</ele>
        <time>2010-01-01T22:01:37Z</time>
      </trkpt>
      <trkpt lat="42.25125" lon="2.6614">
        <ele>359</ele>
        <time>2010-01-01T22:01:44Z</time>
      </trkpt>
      <trkpt lat="42.25133" lon="2.66145">
        <ele>361</ele>
        <time>2010-01-01T22:01:54Z</time>
      </trkpt>
      <trkpt lat="42.25144" lon="2.66153">
        <ele>364</ele>
        <time>2010-01-01T22:02:06Z</time>
      </trkpt>
      <trkpt lat="42.25154" lon="2.66165">
        <ele>369</ele>
        <time>2010-01-01T22:02:20Z</time>
      </trkpt>
      <trkpt lat="42.25164" lon="2.66172">
        <ele>370</ele>
        <time>2010-01-01T22:02:31Z</time>
      </trkpt>
      <trkpt lat="42.25172" lon="2.66183">
        <ele>371</ele>
        <time>2010-01-01T22:02:42Z</time>
      </trkpt>
      <trkpt lat="42.25179" lon="2.66189">
        <ele>371</ele>
        <time>2010-01-01T22:02:50Z</time>
      </trkpt>
      <trkpt lat="42.25185" lon="2.66204">
        <ele>374</ele>
        <time>2010-01-01T22:03:03Z</time>
      </trkpt>
      <trkpt lat="42.25194" lon="2.66206">
        <ele>371</ele>
        <time>2010-01-01T22:03:12Z</time>
      </trkpt>
      <trkpt lat="42.25208" lon="2.66211">
        <ele>368</ele>
        <time>2010-01-01T22:03:26Z</time>
      </trkpt>
      <trkpt lat="42.25217" lon="2.66214">
        <ele>366</ele>
        <time>2010-01-01T22:03:35Z</time>
      </trkpt>
      <trkpt lat="42.25224" lon="2.66218">
        <ele>365</ele>
        <time>2010-01-01T22:03:43Z</time>
      </trkpt>
      <trkpt lat="42.25235" lon="2.66223">
        <ele>362</ele>
        <time>2010-01-01T22:03:55Z</time>
      </trkpt>
      <trkpt lat="42.25243" lon="2.66223">
        <ele>359</ele>
        <time>2010-01-01T22:04:03Z</time>
      </trkpt>
      <trkpt lat="42.25249" lon="2.66228">
        <ele>358</ele>
        <time>2010-01-01T22:04:10Z</time>
      </trkpt>
      <trkpt lat="42.25255" lon="2.66235">
        <ele>360</ele>
        <time>2010-01-01T22:04:18Z</time>
      </trkpt>
      <trkpt lat="42.25264" lon="2.66239">
        <ele>357</ele>
        <time>2010-01-01T22:04:27Z</time>
      </trkpt>
      <trkpt lat="42.25273" lon="2.66242">
        <ele>355</ele>
        <time>2010-01-01T22:04:36Z</time>
      </trkpt>
      <trkpt lat="42.25282" lon="2.66245">
        <ele>352</ele>
        <time>2010-01-01T22:04:46Z</time>
      </trkpt>
      <trkpt lat="42.25296" lon="2.66249">
        <ele>349</ele>
        <time>2010-01-01T22:05:00Z</time>
      </trkpt>
      <trkpt lat="42.25301" lon="2.66253">
        <ele>349</ele>
        <time>2010-01-01T22:05:06Z</time>
      </trkpt>
      <trkpt lat="42.25311" lon="2.66252">
        <ele>346</ele>
        <time>2010-01-01T22:05:16Z</time>
      </trkpt>
      <trkpt lat="42.25321" lon="2.66254">
        <ele>347</ele>
        <time>2010-01-01T22:05:27Z</time>
      </trkpt>
      <trkpt lat="42.25333" lon="2.66258">
        <ele>349</ele>
        <time>2010-01-01T22:05:39Z</time>
      </trkpt>
      <trkpt lat="42.25341" lon="2.66254">
        <ele>348</ele>
        <time>2010-01-01T22:05:47Z</time>
      </trkpt>
      <trkpt lat="42.25348" lon="2.66257">
        <ele>350</ele>
        <time>2010-01-01T22:05:55Z</time>
      </trkpt>
      <trkpt lat="42.2536" lon="2.66258">
        <ele>352</ele>
        <time>2010-01-01T22:06:06Z</time>
      </trkpt>
      <trkpt lat="42.25368" lon="2.66261">
        <ele>353</ele>
        <time>2010-01-01T22:06:15Z</time>
      </trkpt>
      <trkpt lat="42.25376" lon="2.66256">
        <ele>350</ele>
        <time>2010-01-01T22:06:24Z</time>
      </trkpt>
      <trkpt lat="42.25383" lon="2.66254">
        <ele>348</ele>
        <time>2010-01-01T22:06:31Z</time>
      </trkpt>
      <trkpt lat="42.25399" lon="2.66252">
        <ele>346</ele>
        <time>2010-01-01T22:06:48Z</time>
      </trkpt>
      <trkpt lat="42.25404" lon="2.66253">
        <ele>347</ele>
        <time>2010-01-01T22:06:53Z</time>
      </trkpt>
      <trkpt lat="42.25418" lon="2.66253">
        <ele>346</ele>
        <time>2010-01-01T22:07:06Z</time>
      </trkpt>
      <trkpt lat="42.25429" lon="2.66253">
        <ele>346</ele>
        <time>2010-01-01T22:07:17Z</time>
      </trkpt>
      <trkpt lat="42.25436" lon="2.66253">
        <ele>346</ele>
        <time>2010-01-01T22:07:24Z</time>
      </trkpt>
      <trkpt lat="42.25447" lon="2.6626">
        <ele>349</ele>
        <time>2010-01-01T22:07:36Z</time>
      </trkpt>
      <trkpt lat="42.25452" lon="2.66267">
        <ele>351</ele>
        <time>2010-01-01T22:07:44Z</time>
      </trkpt>
      <trkpt lat="42.25458" lon="2.66272">
        <ele>353</ele>
        <time>2010-01-01T22:07:50Z</time>
      </trkpt>
      <trkpt lat="42.25465" lon="2.66272">
        <ele>353</ele>
        <time>2010-01-01T22:07:58Z</time>
      </trkpt>
      <trkpt lat="42.25469" lon="2.66267">
        <ele>350</ele>
        <time>2010-01-01T22:08:03Z</time>
      </trkpt>
      <trkpt lat="42.2548" lon="2.66266">
        <ele>350</ele>
        <time>2010-01-01T22:08:15Z</time>
      </trkpt>
      <trkpt lat="42.25486" lon="2.66258">
        <ele>348</ele>
        <time>2010-01-01T22:08:23Z</time>
      </trkpt>
      <trkpt lat="42.25499" lon="2.66253">
        <ele>348</ele>
        <time>2010-01-01T22:08:36Z</time>
      </trkpt>
      <trkpt lat="42.25504" lon="2.66252">
        <ele>348</ele>
        <time>2010-01-01T22:08:41Z</time>
      </trkpt>
      <trkpt lat="42.25517" lon="2.66253">
        <ele>348</ele>
        <time>2010-01-01T22:08:54Z</time>
      </trkpt>
      <trkpt lat="42.25523" lon="2.66257">
        <ele>350</ele>
        <time>2010-01-01T22:09:01Z</time>
      </trkpt>
      <trkpt lat="42.25535" lon="2.66256">
        <ele>349</ele>
        <time>2010-01-01T22:09:13Z</time>
      </trkpt>
      <trkpt lat="42.25541" lon="2.66259">
        <ele>350</ele>
        <time>2010-01-01T22:09:19Z</time>
      </trkpt>
      <trkpt lat="42.25549" lon="2.66266">
        <ele>353</ele>
        <time>2010-01-01T22:09:29Z</time>
      </trkpt>
      <trkpt lat="42.2556" lon="2.66266">
        <ele>353</ele>
        <time>2010-01-01T22:09:40Z</time>
      </trkpt>
      <trkpt lat="42.25564" lon="2.66263">
        <ele>353</ele>
        <time>2010-01-01T22:09:44Z</time>
      </trkpt>
      <trkpt lat="42.2557" lon="2.66261">
        <ele>353</ele>
        <time>2010-01-01T22:09:51Z</time>
      </trkpt>
      <trkpt lat="42.25579" lon="2.6626">
        <ele>353</ele>
        <time>2010-01-01T22:09:59Z</time>
      </trkpt>
      <trkpt lat="42.25587" lon="2.66257">
        <ele>353</ele>
        <time>2010-01-01T22:10:08Z</time>
      </trkpt>
      <trkpt lat="42.25598" lon="2.66256">
        <ele>353</ele>
        <time>2010-01-01T22:10:19Z</time>
      </trkpt>
      <trkpt lat="42.25605" lon="2.66257">
        <ele>354</ele>
        <time>2010-01-01T22:10:26Z</time>
      </trkpt>
      <trkpt lat="42.25616" lon="2.66261">
        <ele>357</ele>
        <time>2010-01-01T22:10:37Z</time>
      </trkpt>
      <trkpt lat="42.25628" lon="2.6626">
        <ele>358</ele>
        <time>2010-01-01T22:10:49Z</time>
      </trkpt>
      <trkpt lat="42.2564" lon="2.66258">
        <ele>359</ele>
        <time>2010-01-01T22:11:02Z</time>
      </trkpt>
      <trkpt lat="42.25648" lon="2.66253">
        <ele>359</ele>
        <time>2010-01-01T22:11:10Z</time>
      </trkpt>
      <trkpt lat="42.25663" lon="2.6625">
        <ele>361</ele>
        <time>2010-01-01T22:11:26Z</time>
      </trkpt>
      <trkpt lat="42.25669" lon="2.66249">
        <ele>362</ele>
        <time>2010-01-01T22:11:32Z</time>
      </trkpt>
      <trkpt lat="42.25683" lon="2.66253">
        <ele>366</ele>
        <time>2010-01-01T22:11:46Z</time>
      </trkpt>
      <trkpt lat="42.25692" lon="2.66252">
        <ele>367</ele>
        <time>2010-01-01T22:11:55Z</time>
      </trkpt>
      <trkpt lat="42.25695" lon="2.66247">
        <ele>367</ele>
        <time>2010-01-01T22:12:00Z</time>
      </trkpt>
      <trkpt lat="42.25697" lon="2.6623">
        <ele>362</ele>
        <time>2010-01-01T22:12:13Z</time>
      </trkpt>
      <trkpt lat="42.25711" lon="2.66213">
        <ele>357</ele>
        <time>2010-01-01T22:12:32Z</time>
      </trkpt>
      <trkpt lat="42.25718" lon="2.6621">
        <ele>357</ele>
        <time>2010-01-01T22:12:39Z</time>
      </trkpt>
      <trkpt lat="42.25735" lon="2.66206">
        <ele>356</ele>
        <time>2010-01-01T22:12:56Z</time>
      </trkpt>
      <trkpt lat="42.25749" lon="2.66211">
        <ele>357</ele>
        <time>2010-01-01T22:13:10Z</time>
      </trkpt>
      <trkpt lat="42.25761" lon="2.66213">
        <ele>360</ele>
        <time>2010-01-01T22:13:23Z</time>
      </trkpt>
      <trkpt lat="42.25773" lon="2.6621">
        <ele>359</ele>
        <time>2010-01-01T22:13:35Z</time>
      </trkpt>
      <trkpt lat="42.25784" lon="2.66217">
        <ele>364</ele>
        <time>2010-01-01T22:13:47Z</time>
      </trkpt>
      <trkpt lat="42.25791" lon="2.66218">
        <ele>364</ele>
        <time>2010-01-01T22:13:54Z</time>
      </trkpt>
      <trkpt lat="42.25802" lon="2.66223">
        <ele>367</ele>
        <time>2010-01-01T22:14:06Z</time>
      </trkpt>
      <trkpt lat="42.25809" lon="2.66224">
        <ele>366</ele>
        <time>2010-01-01T22:14:13Z</time>
      </trkpt>
      <trkpt lat="42.25811" lon="2.66224">
        <ele>365</ele>
        <time>2010-01-01T22:14:15Z</time>
      </trkpt>
      <trkpt lat="42.25814" lon="2.66228">
        <ele>365</ele>
        <time>2010-01-01T22:14:19Z</time>
      </trkpt>
      <trkpt lat="42.2582" lon="2.66223">
        <ele>361</ele>
        <time>2010-01-01T22:14:25Z</time>
      </trkpt>
      <trkpt lat="42.25821" lon="2.66223">
        <ele>361</ele>
        <time>2010-01-01T22:14:26Z</time>
      </trkpt>
      <trkpt lat="42.25819" lon="2.66239">
        <ele>367</ele>
        <time>2010-01-01T22:14:38Z</time>
      </trkpt>
      <trkpt lat="42.25818" lon="2.66256">
        <ele>374</ele>
        <time>2010-01-01T22:14:51Z</time>
      </trkpt>
      <trkpt lat="42.25815" lon="2.66268">
        <ele>380</ele>
        <time>2010-01-01T22:15:00Z</time>
      </trkpt>
      <trkpt lat="42.25803" lon="2.66274">
        <ele>387</ele>
        <time>2010-01-01T22:15:13Z</time>
      </trkpt>
      <trkpt lat="42.25796" lon="2.66285">
        <ele>392</ele>
        <time>2010-01-01T22:15:24Z</time>
      </trkpt>
      <trkpt lat="42.2579" lon="2.663">
        <ele>399</ele>
        <time>2010-01-01T22:15:37Z</time>
      </trkpt>
      <trkpt lat="42.25786" lon="2.66313">
        <ele>403</ele>
        <time>2010-01-01T22:15:48Z</time>
      </trkpt>
      <trkpt lat="42.25781" lon="2.66322">
        <ele>405</ele>
        <time>2010-01-01T22:15:55Z</time>
      </trkpt>
      <trkpt lat="42.25774" lon="2.66318">
        <ele>404</ele>
        <time>2010-01-01T22:16:03Z</time>
      </trkpt>
      <trkpt lat="42.25775" lon="2.66332">
        <ele>407</ele>
        <time>2010-01-01T22:16:12Z</time>
      </trkpt>
      <trkpt lat="42.25774" lon="2.66341">
        <ele>409</ele>
        <time>2010-01-01T22:16:20Z</time>
      </trkpt>
      <trkpt lat="42.25771" lon="2.66349">
        <ele>411</ele>
        <time>2010-01-01T22:16:26Z</time>
      </trkpt>
      <trkpt lat="42.25765" lon="2.66357">
        <ele>413</ele>
        <time>2010-01-01T22:16:34Z</time>
      </trkpt>
      <trkpt lat="42.25765" lon="2.66366">
        <ele>415</ele>
        <time>2010-01-01T22:16:41Z</time>
      </trkpt>
      <trkpt lat="42.25762" lon="2.66377">
        <ele>417</ele>
        <time>2010-01-01T22:16:49Z</time>
      </trkpt>
      <trkpt lat="42.25762" lon="2.66387">
        <ele>419</ele>
        <time>2010-01-01T22:16:57Z</time>
      </trkpt>
      <trkpt lat="42.25761" lon="2.66397">
        <ele>421</ele>
        <time>2010-01-01T22:17:05Z</time>
      </trkpt>
      <trkpt lat="42.25761" lon="2.66406">
        <ele>423</ele>
        <time>2010-01-01T22:17:11Z</time>
      </trkpt>
      <trkpt lat="42.25759" lon="2.66403">
        <ele>423</ele>
        <time>2010-01-01T22:17:15Z</time>
      </trkpt>
      <trkpt lat="42.25761" lon="2.66402">
        <ele>422</ele>
        <time>2010-01-01T22:17:17Z</time>
      </trkpt>
      <trkpt lat="42.25751" lon="2.66408">
        <ele>424</ele>
        <time>2010-01-01T22:17:29Z</time>
      </trkpt>
      <trkpt lat="42.25759" lon="2.66419">
        <ele>427</ele>
        <time>2010-01-01T22:17:40Z</time>
      </trkpt>
      <trkpt lat="42.25764" lon="2.66432">
        <ele>429</ele>
        <time>2010-01-01T22:17:52Z</time>
      </trkpt>
      <trkpt lat="42.25766" lon="2.66439">
        <ele>430</ele>
        <time>2010-01-01T22:17:57Z</time>
      </trkpt>
      <trkpt lat="42.25772" lon="2.66444">
        <ele>431</ele>
        <time>2010-01-01T22:18:04Z</time>
      </trkpt>
      <trkpt lat="42.25778" lon="2.66457">
        <ele>434</ele>
        <time>2010-01-01T22:18:15Z</time>
      </trkpt>
      <trkpt lat="42.25788" lon="2.66467">
        <ele>433</ele>
        <time>2010-01-01T22:18:27Z</time>
      </trkpt>
      <trkpt lat="42.25792" lon="2.66471">
        <ele>432</ele>
        <time>2010-01-01T22:18:32Z</time>
      </trkpt>
      <trkpt lat="42.258" lon="2.6648">
        <ele>431</ele>
        <time>2010-01-01T22:18:43Z</time>
      </trkpt>
      <trkpt lat="42.25809" lon="2.66492">
        <ele>430</ele>
        <time>2010-01-01T22:18:56Z</time>
      </trkpt>
      <trkpt lat="42.25814" lon="2.66502">
        <ele>430</ele>
        <time>2010-01-01T22:19:05Z</time>
      </trkpt>
      <trkpt lat="42.2582" lon="2.66512">
        <ele>431</ele>
        <time>2010-01-01T22:19:14Z</time>
      </trkpt>
      <trkpt lat="42.25826" lon="2.66522">
        <ele>432</ele>
        <time>2010-01-01T22:19:24Z</time>
      </trkpt>
      <trkpt lat="42.25831" lon="2.66529">
        <ele>433</ele>
        <time>2010-01-01T22:19:31Z</time>
      </trkpt>
      <trkpt lat="42.25839" lon="2.66536">
        <ele>432</ele>
        <time>2010-01-01T22:19:40Z</time>
      </trkpt>
      <trkpt lat="42.25844" lon="2.66548">
        <ele>434</ele>
        <time>2010-01-01T22:19:50Z</time>
      </trkpt>
      <trkpt lat="42.25847" lon="2.66558">
        <ele>436</ele>
        <time>2010-01-01T22:19:58Z</time>
      </trkpt>
      <trkpt lat="42.25851" lon="2.6657">
        <ele>436</ele>
        <time>2010-01-01T22:20:08Z</time>
      </trkpt>
      <trkpt lat="42.2585" lon="2.66568">
        <ele>436</ele>
        <time>2010-01-01T22:20:10Z</time>
      </trkpt>
      <trkpt lat="42.25857" lon="2.66573">
        <ele>433</ele>
        <time>2010-01-01T22:20:18Z</time>
      </trkpt>
      <trkpt lat="42.25861" lon="2.66579">
        <ele>432</ele>
        <time>2010-01-01T22:20:23Z</time>
      </trkpt>
      <trkpt lat="42.25859" lon="2.66579">
        <ele>433</ele>
        <time>2010-01-01T22:20:25Z</time>
      </trkpt>
      <trkpt lat="42.25864" lon="2.66586">
        <ele>431</ele>
        <time>2010-01-01T22:20:32Z</time>
      </trkpt>
      <trkpt lat="42.25864" lon="2.66592">
        <ele>431</ele>
        <time>2010-01-01T22:20:36Z</time>
      </trkpt>
      <trkpt lat="42.2587" lon="2.66597">
        <ele>427</ele>
        <time>2010-01-01T22:20:43Z</time>
      </trkpt>
      <trkpt lat="42.25874" lon="2.66604">
        <ele>423</ele>
        <time>2010-01-01T22:20:50Z</time>
      </trkpt>
      <trkpt lat="42.2588" lon="2.66618">
        <ele>419</ele>
        <time>2010-01-01T22:21:02Z</time>
      </trkpt>
      <trkpt lat="42.25886" lon="2.66632">
        <ele>416</ele>
        <time>2010-01-01T22:21:14Z</time>
      </trkpt>
      <trkpt lat="42.2589" lon="2.66642">
        <ele>416</ele>
        <time>2010-01-01T22:21:22Z</time>
      </trkpt>
      <trkpt lat="42.25895" lon="2.66652">
        <ele>417</ele>
        <time>2010-01-01T22:21:31Z</time>
      </trkpt>
      <trkpt lat="42.25896" lon="2.6667">
        <ele>422</ele>
        <time>2010-01-01T22:21:44Z</time>
      </trkpt>
      <trkpt lat="42.25907" lon="2.6668">
        <ele>419</ele>
        <time>2010-01-01T22:21:57Z</time>
      </trkpt>
      <trkpt lat="42.25918" lon="2.66689">
        <ele>416</ele>
        <time>2010-01-01T22:22:10Z</time>
      </trkpt>
      <trkpt lat="42.25919" lon="2.66692">
        <ele>417</ele>
        <time>2010-01-01T22:22:13Z</time>
      </trkpt>
      <trkpt lat="42.25927" lon="2.66707">
        <ele>416</ele>
        <time>2010-01-01T22:22:27Z</time>
      </trkpt>
      <trkpt lat="42.25929" lon="2.66712">
        <ele>416</ele>
        <time>2010-01-01T22:22:31Z</time>
      </trkpt>
      <trkpt lat="42.25936" lon="2.6672">
        <ele>414</ele>
        <time>2010-01-01T22:22:40Z</time>
      </trkpt>
      <trkpt lat="42.25948" lon="2.66724">
        <ele>411</ele>
        <time>2010-01-01T22:22:52Z</time>
      </trkpt>
      <trkpt lat="42.25955" lon="2.66734">
        <ele>412</ele>
        <time>2010-01-01T22:23:03Z</time>
      </trkpt>
      <trkpt lat="42.25962" lon="2.66745">
        <ele>413</ele>
        <time>2010-01-01T22:23:13Z</time>
      </trkpt>
      <trkpt lat="42.25965" lon="2.66759">
        <ele>415</ele>
        <time>2010-01-01T22:23:24Z</time>
      </trkpt>
      <trkpt lat="42.25968" lon="2.66771">
        <ele>417</ele>
        <time>2010-01-01T22:23:34Z</time>
      </trkpt>
      <trkpt lat="42.25975" lon="2.66777">
        <ele>417</ele>
        <time>2010-01-01T22:23:42Z</time>
      </trkpt>
      <trkpt lat="42.25979" lon="2.66782">
        <ele>420</ele>
        <time>2010-01-01T22:23:48Z</time>
      </trkpt>
      <trkpt lat="42.25985" lon="2.66768">
        <ele>419</ele>
        <time>2010-01-01T22:24:00Z</time>
      </trkpt>
      <trkpt lat="42.25993" lon="2.66756">
        <ele>420</ele>
        <time>2010-01-01T22:24:12Z</time>
      </trkpt>
      <trkpt lat="42.26001" lon="2.66747">
        <ele>422</ele>
        <time>2010-01-01T22:24:22Z</time>
      </trkpt>
      <trkpt lat="42.26002" lon="2.66734">
        <ele>421</ele>
        <time>2010-01-01T22:24:31Z</time>
      </trkpt>
      <trkpt lat="42.26006" lon="2.66722">
        <ele>422</ele>
        <time>2010-01-01T22:24:41Z</time>
      </trkpt>
      <trkpt lat="42.26007" lon="2.66702">
        <ele>421</ele>
        <time>2010-01-01T22:24:56Z</time>
      </trkpt>
      <trkpt lat="42.26009" lon="2.66696">
        <ele>422</ele>
        <time>2010-01-01T22:25:01Z</time>
      </trkpt>
      <trkpt lat="42.2601" lon="2.66684">
        <ele>421</ele>
        <time>2010-01-01T22:25:10Z</time>
      </trkpt>
      <trkpt lat="42.26014" lon="2.66677">
        <ele>423</ele>
        <time>2010-01-01T22:25:17Z</time>
      </trkpt>
      <trkpt lat="42.26013" lon="2.6666">
        <ele>422</ele>
        <time>2010-01-01T22:25:29Z</time>
      </trkpt>
      <trkpt lat="42.26012" lon="2.66648">
        <ele>421</ele>
        <time>2010-01-01T22:25:38Z</time>
      </trkpt>
      <trkpt lat="42.26009" lon="2.66636">
        <ele>420</ele>
        <time>2010-01-01T22:25:48Z</time>
      </trkpt>
      <trkpt lat="42.26007" lon="2.66625">
        <ele>420</ele>
        <time>2010-01-01T22:25:56Z</time>
      </trkpt>
      <trkpt lat="42.26007" lon="2.66619">
        <ele>419</ele>
        <time>2010-01-01T22:26:01Z</time>
      </trkpt>
      <trkpt lat="42.26011" lon="2.66614">
        <ele>421</ele>
        <time>2010-01-01T22:26:06Z</time>
      </trkpt>
      <trkpt lat="42.26014" lon="2.66608">
        <ele>422</ele>
        <time>2010-01-01T22:26:12Z</time>
      </trkpt>
      <trkpt lat="42.26023" lon="2.666">
        <ele>424</ele>
        <time>2010-01-01T22:26:22Z</time>
      </trkpt>
      <trkpt lat="42.26029" lon="2.66597">
        <ele>426</ele>
        <time>2010-01-01T22:26:29Z</time>
      </trkpt>
      <trkpt lat="42.26047" lon="2.66592">
        <ele>428</ele>
        <time>2010-01-01T22:26:47Z</time>
      </trkpt>
      <trkpt lat="42.26053" lon="2.66588">
        <ele>428</ele>
        <time>2010-01-01T22:26:54Z</time>
      </trkpt>
      <trkpt lat="42.26065" lon="2.66584">
        <ele>428</ele>
        <time>2010-01-01T22:27:06Z</time>
      </trkpt>
      <trkpt lat="42.26073" lon="2.66579">
        <ele>427</ele>
        <time>2010-01-01T22:27:16Z</time>
      </trkpt>
      <trkpt lat="42.26084" lon="2.66573">
        <ele>427</ele>
        <time>2010-01-01T22:27:27Z</time>
      </trkpt>
      <trkpt lat="42.26096" lon="2.66563">
        <ele>425</ele>
        <time>2010-01-01T22:27:42Z</time>
      </trkpt>
      <trkpt lat="42.26102" lon="2.66557">
        <ele>423</ele>
        <time>2010-01-01T22:27:49Z</time>
      </trkpt>
      <trkpt lat="42.2611" lon="2.66551">
        <ele>422</ele>
        <time>2010-01-01T22:27:58Z</time>
      </trkpt>
      <trkpt lat="42.26106" lon="2.6655">
        <ele>421</ele>
        <time>2010-01-01T22:28:01Z</time>
      </trkpt>
      <trkpt lat="42.26105" lon="2.66555">
        <ele>423</ele>
        <time>2010-01-01T22:28:05Z</time>
      </trkpt>
      <trkpt lat="42.26115" lon="2.66562">
        <ele>426</ele>
        <time>2010-01-01T22:28:16Z</time>
      </trkpt>
      <trkpt lat="42.26124" lon="2.66573">
        <ele>429</ele>
        <time>2010-01-01T22:28:28Z</time>
      </trkpt>
      <trkpt lat="42.26132" lon="2.6658">
        <ele>432</ele>
        <time>2010-01-01T22:28:38Z</time>
      </trkpt>
      <trkpt lat="42.26138" lon="2.66587">
        <ele>434</ele>
        <time>2010-01-01T22:28:46Z</time>
      </trkpt>
      <trkpt lat="42.26148" lon="2.66592">
        <ele>434</ele>
        <time>2010-01-01T22:28:56Z</time>
      </trkpt>
      <trkpt lat="42.26159" lon="2.66599">
        <ele>436</ele>
        <time>2010-01-01T22:29:08Z</time>
      </trkpt>
      <trkpt lat="42.26167" lon="2.666">
        <ele>435</ele>
        <time>2010-01-01T22:29:16Z</time>
      </trkpt>
      <trkpt lat="42.26179" lon="2.66595">
        <ele>433</ele>
        <time>2010-01-01T22:29:29Z</time>
      </trkpt>
      <trkpt lat="42.26182" lon="2.66591">
        <ele>431</ele>
        <time>2010-01-01T22:29:33Z</time>
      </trkpt>
      <trkpt lat="42.26195" lon="2.66584">
        <ele>428</ele>
        <time>2010-01-01T22:29:47Z</time>
      </trkpt>
      <trkpt lat="42.26206" lon="2.66577">
        <ele>425</ele>
        <time>2010-01-01T22:30:00Z</time>
      </trkpt>
      <trkpt lat="42.26214" lon="2.66575">
        <ele>425</ele>
        <time>2010-01-01T22:30:08Z</time>
      </trkpt>
      <trkpt lat="42.26223" lon="2.6657">
        <ele>423</ele>
        <time>2010-01-01T22:30:17Z</time>
      </trkpt>
      <trkpt lat="42.2623" lon="2.66566">
        <ele>422</ele>
        <time>2010-01-01T22:30:25Z</time>
      </trkpt>
      <trkpt lat="42.2624" lon="2.66559">
        <ele>420</ele>
        <time>2010-01-01T22:30:36Z</time>
      </trkpt>
      <trkpt lat="42.26244" lon="2.66558">
        <ele>420</ele>
        <time>2010-01-01T22:30:40Z</time>
      </trkpt>
      <trkpt lat="42.26255" lon="2.66554">
        <ele>420</ele>
        <time>2010-01-01T22:30:52Z</time>
      </trkpt>
      <trkpt lat="42.2626" lon="2.66555">
        <ele>421</ele>
        <time>2010-01-01T22:30:57Z</time>
      </trkpt>
      <trkpt lat="42.2627" lon="2.66554">
        <ele>421</ele>
        <time>2010-01-01T22:31:07Z</time>
      </trkpt>
      <trkpt lat="42.26274" lon="2.66555">
        <ele>421</ele>
        <time>2010-01-01T22:31:10Z</time>
      </trkpt>
      <trkpt lat="42.26281" lon="2.66568">
        <ele>426</ele>
        <time>2010-01-01T22:31:22Z</time>
      </trkpt>
      <trkpt lat="42.26286" lon="2.66582">
        <ele>430</ele>
        <time>2010-01-01T22:31:34Z</time>
      </trkpt>
      <trkpt lat="42.26276" lon="2.6658">
        <ele>431</ele>
        <time>2010-01-01T22:31:43Z</time>
      </trkpt>
      <trkpt lat="42.26279" lon="2.66583">
        <ele>432</ele>
        <time>2010-01-01T22:31:47Z</time>
      </trkpt>
      <trkpt lat="42.2629" lon="2.66592">
        <ele>433</ele>
        <time>2010-01-01T22:31:59Z</time>
      </trkpt>
      <trkpt lat="42.26298" lon="2.66608">
        <ele>438</ele>
        <time>2010-01-01T22:32:14Z</time>
      </trkpt>
      <trkpt lat="42.2631" lon="2.66617">
        <ele>442</ele>
        <time>2010-01-01T22:32:27Z</time>
      </trkpt>
      <trkpt lat="42.26319" lon="2.66627">
        <ele>446</ele>
        <time>2010-01-01T22:32:39Z</time>
      </trkpt>
      <trkpt lat="42.26324" lon="2.66634">
        <ele>448</ele>
        <time>2010-01-01T22:32:46Z</time>
      </trkpt>
      <trkpt lat="42.26326" lon="2.66645">
        <ele>451</ele>
        <time>2010-01-01T22:32:55Z</time>
      </trkpt>
      <trkpt lat="42.26328" lon="2.66659">
        <ele>456</ele>
        <time>2010-01-01T22:33:05Z</time>
      </trkpt>
      <trkpt lat="42.26331" lon="2.66668">
        <ele>459</ele>
        <time>2010-01-01T22:33:13Z</time>
      </trkpt>
      <trkpt lat="42.26336" lon="2.66682">
        <ele>461</ele>
        <time>2010-01-01T22:33:24Z</time>
      </trkpt>
      <trkpt lat="42.2634" lon="2.6669">
        <ele>461</ele>
        <time>2010-01-01T22:33:32Z</time>
      </trkpt>
      <trkpt lat="42.26341" lon="2.66703">
        <ele>464</ele>
        <time>2010-01-01T22:33:41Z</time>
      </trkpt>
      <trkpt lat="42.26344" lon="2.66715">
        <ele>466</ele>
        <time>2010-01-01T22:33:50Z</time>
      </trkpt>
      <trkpt lat="42.26345" lon="2.66727">
        <ele>468</ele>
        <time>2010-01-01T22:33:59Z</time>
      </trkpt>
      <trkpt lat="42.26345" lon="2.66738">
        <ele>470</ele>
        <time>2010-01-01T22:34:07Z</time>
      </trkpt>
      <trkpt lat="42.26334" lon="2.66742">
        <ele>478</ele>
        <time>2010-01-01T22:34:18Z</time>
      </trkpt>
      <trkpt lat="42.26337" lon="2.66756">
        <ele>479</ele>
        <time>2010-01-01T22:34:29Z</time>
      </trkpt>
      <trkpt lat="42.26337" lon="2.66761">
        <ele>480</ele>
        <time>2010-01-01T22:34:33Z</time>
      </trkpt>
      <trkpt lat="42.2634" lon="2.66771">
        <ele>479</ele>
        <time>2010-01-01T22:34:41Z</time>
      </trkpt>
      <trkpt lat="42.26346" lon="2.66785">
        <ele>479</ele>
        <time>2010-01-01T22:34:53Z</time>
      </trkpt>
      <trkpt lat="42.26355" lon="2.66784">
        <ele>470</ele>
        <time>2010-01-01T22:35:02Z</time>
      </trkpt>
      <trkpt lat="42.2636" lon="2.66794">
        <ele>470</ele>
        <time>2010-01-01T22:35:11Z</time>
      </trkpt>
      <trkpt lat="42.2636" lon="2.66802">
        <ele>473</ele>
        <time>2010-01-01T22:35:17Z</time>
      </trkpt>
      <trkpt lat="42.26365" lon="2.66817">
        <ele>478</ele>
        <time>2010-01-01T22:35:29Z</time>
      </trkpt>
      <trkpt lat="42.26368" lon="2.66825">
        <ele>480</ele>
        <time>2010-01-01T22:35:36Z</time>
      </trkpt>
      <trkpt lat="42.26364" lon="2.66831">
        <ele>485</ele>
        <time>2010-01-01T22:35:43Z</time>
      </trkpt>
      <trkpt lat="42.26367" lon="2.6684">
        <ele>488</ele>
        <time>2010-01-01T22:35:50Z</time>
      </trkpt>
      <trkpt lat="42.26371" lon="2.6685">
        <ele>490</ele>
        <time>2010-01-01T22:35:58Z</time>
      </trkpt>
      <trkpt lat="42.2638" lon="2.66861">
        <ele>490</ele>
        <time>2010-01-01T22:36:11Z</time>
      </trkpt>
      <trkpt lat="42.26388" lon="2.66869">
        <ele>490</ele>
        <time>2010-01-01T22:36:21Z</time>
      </trkpt>
      <trkpt lat="42.264" lon="2.6687">
        <ele>494</ele>
        <time>2010-01-01T22:36:33Z</time>
      </trkpt>
      <trkpt lat="42.26404" lon="2.66876">
        <ele>499</ele>
        <time>2010-01-01T22:36:39Z</time>
      </trkpt>
      <trkpt lat="42.26414" lon="2.66867">
        <ele>497</ele>
        <time>2010-01-01T22:36:50Z</time>
      </trkpt>
      <trkpt lat="42.2642" lon="2.66865">
        <ele>498</ele>
        <time>2010-01-01T22:36:56Z</time>
      </trkpt>
      <trkpt lat="42.26428" lon="2.66857">
        <ele>499</ele>
        <time>2010-01-01T22:37:06Z</time>
      </trkpt>
      <trkpt lat="42.26434" lon="2.66846">
        <ele>498</ele>
        <time>2010-01-01T22:37:17Z</time>
      </trkpt>
      <trkpt lat="42.26443" lon="2.66842">
        <ele>502</ele>
        <time>2010-01-01T22:37:26Z</time>
      </trkpt>
      <trkpt lat="42.26452" lon="2.66832">
        <ele>502</ele>
        <time>2010-01-01T22:37:37Z</time>
      </trkpt>
      <trkpt lat="42.26464" lon="2.66825">
        <ele>502</ele>
        <time>2010-01-01T22:37:50Z</time>
      </trkpt>
      <trkpt lat="42.26471" lon="2.66819">
        <ele>501</ele>
        <time>2010-01-01T22:37:59Z</time>
      </trkpt>
      <trkpt lat="42.26481" lon="2.66812">
        <ele>501</ele>
        <time>2010-01-01T22:38:10Z</time>
      </trkpt>
      <trkpt lat="42.26486" lon="2.66807">
        <ele>501</ele>
        <time>2010-01-01T22:38:16Z</time>
      </trkpt>
      <trkpt lat="42.26487" lon="2.66814">
        <ele>504</ele>
        <time>2010-01-01T22:38:21Z</time>
      </trkpt>
      <trkpt lat="42.26489" lon="2.66819">
        <ele>508</ele>
        <time>2010-01-01T22:38:26Z</time>
      </trkpt>
      <trkpt lat="42.26495" lon="2.66814">
        <ele>508</ele>
        <time>2010-01-01T22:38:33Z</time>
      </trkpt>
      <trkpt lat="42.26507" lon="2.668">
        <ele>507</ele>
        <time>2010-01-01T22:38:49Z</time>
      </trkpt>
      <trkpt lat="42.2651" lon="2.66806">
        <ele>511</ele>
        <time>2010-01-01T22:38:54Z</time>
      </trkpt>
      <trkpt lat="42.26506" lon="2.66813">
        <ele>512</ele>
        <time>2010-01-01T22:39:01Z</time>
      </trkpt>
      <trkpt lat="42.26506" lon="2.66823">
        <ele>517</ele>
        <time>2010-01-01T22:39:09Z</time>
      </trkpt>
      <trkpt lat="42.2651" lon="2.66823">
        <ele>519</ele>
        <time>2010-01-01T22:39:12Z</time>
      </trkpt>
      <trkpt lat="42.26517" lon="2.66818">
        <ele>520</ele>
        <time>2010-01-01T22:39:20Z</time>
      </trkpt>
      <trkpt lat="42.26521" lon="2.66807">
        <ele>517</ele>
        <time>2010-01-01T22:39:29Z</time>
      </trkpt>
      <trkpt lat="42.26526" lon="2.66795">
        <ele>515</ele>
        <time>2010-01-01T22:39:40Z</time>
      </trkpt>
      <trkpt lat="42.26534" lon="2.66788">
        <ele>517</ele>
        <time>2010-01-01T22:39:49Z</time>
      </trkpt>
      <trkpt lat="42.26541" lon="2.66781">
        <ele>519</ele>
        <time>2010-01-01T22:39:58Z</time>
      </trkpt>
      <trkpt lat="42.26545" lon="2.66787">
        <ele>524</ele>
        <time>2010-01-01T22:40:04Z</time>
      </trkpt>
      <trkpt lat="42.26544" lon="2.66799">
        <ele>527</ele>
        <time>2010-01-01T22:40:13Z</time>
      </trkpt>
      <trkpt lat="42.26552" lon="2.66792">
        <ele>530</ele>
        <time>2010-01-01T22:40:22Z</time>
      </trkpt>
      <trkpt lat="42.26562" lon="2.66783">
        <ele>532</ele>
        <time>2010-01-01T22:40:35Z</time>
      </trkpt>
      <trkpt lat="42.26559" lon="2.66781">
        <ele>530</ele>
        <time>2010-01-01T22:40:38Z</time>
      </trkpt>
      <trkpt lat="42.26563" lon="2.66782">
        <ele>532</ele>
        <time>2010-01-01T22:40:42Z</time>
      </trkpt>
      <trkpt lat="42.26565" lon="2.66786">
        <ele>534</ele>
        <time>2010-01-01T22:40:46Z</time>
      </trkpt>
      <trkpt lat="42.26571" lon="2.66783">
        <ele>535</ele>
        <time>2010-01-01T22:40:52Z</time>
      </trkpt>
      <trkpt lat="42.26583" lon="2.66776">
        <ele>536</ele>
        <time>2010-01-01T22:41:05Z</time>
      </trkpt>
      <trkpt lat="42.26591" lon="2.66769">
        <ele>535</ele>
        <time>2010-01-01T22:41:15Z</time>
      </trkpt>
      <trkpt lat="42.266" lon="2.66758">
        <ele>533</ele>
        <time>2010-01-01T22:41:27Z</time>
      </trkpt>
      <trkpt lat="42.266" lon="2.66762">
        <ele>534</ele>
        <time>2010-01-01T22:41:29Z</time>
      </trkpt>
      <trkpt lat="42.26606" lon="2.66764">
        <ele>535</ele>
        <time>2010-01-01T22:41:36Z</time>
      </trkpt>
      <trkpt lat="42.26612" lon="2.66771">
        <ele>539</ele>
        <time>2010-01-01T22:41:44Z</time>
      </trkpt>
      <trkpt lat="42.26616" lon="2.66775">
        <ele>539</ele>
        <time>2010-01-01T22:41:48Z</time>
      </trkpt>
      <trkpt lat="42.26622" lon="2.66789">
        <ele>543</ele>
        <time>2010-01-01T22:42:01Z</time>
      </trkpt>
      <trkpt lat="42.26632" lon="2.66802">
        <ele>547</ele>
        <time>2010-01-01T22:42:15Z</time>
      </trkpt>
      <trkpt lat="42.26637" lon="2.66815">
        <ele>551</ele>
        <time>2010-01-01T22:42:25Z</time>
      </trkpt>
      <trkpt lat="42.26643" lon="2.66826">
        <ele>552</ele>
        <time>2010-01-01T22:42:35Z</time>
      </trkpt>
      <trkpt lat="42.26653" lon="2.66842">
        <ele>552</ele>
        <time>2010-01-01T22:42:50Z</time>
      </trkpt>
      <trkpt lat="42.26659" lon="2.66854">
        <ele>551</ele>
        <time>2010-01-01T22:43:01Z</time>
      </trkpt>
      <trkpt lat="42.26664" lon="2.66865">
        <ele>552</ele>
        <time>2010-01-01T22:43:11Z</time>
      </trkpt>
      <trkpt lat="42.2667" lon="2.66873">
        <ele>549</ele>
        <time>2010-01-01T22:43:19Z</time>
      </trkpt>
      <trkpt lat="42.26674" lon="2.66888">
        <ele>548</ele>
        <time>2010-01-01T22:43:31Z</time>
      </trkpt>
      <trkpt lat="42.26678" lon="2.66901">
        <ele>548</ele>
        <time>2010-01-01T22:43:42Z</time>
      </trkpt>
      <trkpt lat="42.26683" lon="2.66917">
        <ele>549</ele>
        <time>2010-01-01T22:43:55Z</time>
      </trkpt>
      <trkpt lat="42.26688" lon="2.66918">
        <ele>546</ele>
        <time>2010-01-01T22:44:00Z</time>
      </trkpt>
      <trkpt lat="42.26697" lon="2.66925">
        <ele>544</ele>
        <time>2010-01-01T22:44:10Z</time>
      </trkpt>
      <trkpt lat="42.26703" lon="2.66939">
        <ele>545</ele>
        <time>2010-01-01T22:44:21Z</time>
      </trkpt>
      <trkpt lat="42.26708" lon="2.66945">
        <ele>545</ele>
        <time>2010-01-01T22:44:28Z</time>
      </trkpt>
      <trkpt lat="42.26705" lon="2.66955">
        <ele>549</ele>
        <time>2010-01-01T22:44:36Z</time>
      </trkpt>
      <trkpt lat="42.26711" lon="2.66965">
        <ele>548</ele>
        <time>2010-01-01T22:44:45Z</time>
      </trkpt>
      <trkpt lat="42.26719" lon="2.66975">
        <ele>546</ele>
        <time>2010-01-01T22:44:56Z</time>
      </trkpt>
      <trkpt lat="42.26724" lon="2.66988">
        <ele>545</ele>
        <time>2010-01-01T22:45:07Z</time>
      </trkpt>
      <trkpt lat="42.26725" lon="2.67006">
        <ele>548</ele>
        <time>2010-01-01T22:45:20Z</time>
      </trkpt>
      <trkpt lat="42.26727" lon="2.67014">
        <ele>549</ele>
        <time>2010-01-01T22:45:27Z</time>
      </trkpt>
      <trkpt lat="42.26733" lon="2.6703">
        <ele>549</ele>
        <time>2010-01-01T22:45:40Z</time>
      </trkpt>
      <trkpt lat="42.26735" lon="2.67042">
        <ele>550</ele>
        <time>2010-01-01T22:45:49Z</time>
      </trkpt>
      <trkpt lat="42.26739" lon="2.67053">
        <ele>549</ele>
        <time>2010-01-01T22:45:58Z</time>
      </trkpt>
      <trkpt lat="42.26742" lon="2.67062">
        <ele>548</ele>
        <time>2010-01-01T22:46:05Z</time>
      </trkpt>
      <trkpt lat="42.26745" lon="2.6708">
        <ele>547</ele>
        <time>2010-01-01T22:46:19Z</time>
      </trkpt>
      <trkpt lat="42.26744" lon="2.67093">
        <ele>549</ele>
        <time>2010-01-01T22:46:29Z</time>
      </trkpt>
      <trkpt lat="42.26751" lon="2.67105">
        <ele>545</ele>
        <time>2010-01-01T22:46:40Z</time>
      </trkpt>
      <trkpt lat="42.26757" lon="2.67114">
        <ele>542</ele>
        <time>2010-01-01T22:46:49Z</time>
      </trkpt>
      <trkpt lat="42.26761" lon="2.67122">
        <ele>540</ele>
        <time>2010-01-01T22:46:57Z</time>
      </trkpt>
      <trkpt lat="42.26766" lon="2.67134">
        <ele>538</ele>
        <time>2010-01-01T22:47:06Z</time>
      </trkpt>
      <trkpt lat="42.26767" lon="2.67146">
        <ele>538</ele>
        <time>2010-01-01T22:47:15Z</time>
      </trkpt>
      <trkpt lat="42.26773" lon="2.67158">
        <ele>536</ele>
        <time>2010-01-01T22:47:26Z</time>
      </trkpt>
      <trkpt lat="42.26777" lon="2.67174">
        <ele>533</ele>
        <time>2010-01-01T22:47:39Z</time>
      </trkpt>
      <trkpt lat="42.26777" lon="2.6718">
        <ele>533</ele>
        <time>2010-01-01T22:47:43Z</time>
      </trkpt>
      <trkpt lat="42.26785" lon="2.6719">
        <ele>529</ele>
        <time>2010-01-01T22:47:54Z</time>
      </trkpt>
      <trkpt lat="42.26786" lon="2.672">
        <ele>529</ele>
        <time>2010-01-01T22:48:01Z</time>
      </trkpt>
      <trkpt lat="42.26792" lon="2.67216">
        <ele>527</ele>
        <time>2010-01-01T22:48:14Z</time>
      </trkpt>
      <trkpt lat="42.26791" lon="2.67221">
        <ele>528</ele>
        <time>2010-01-01T22:48:18Z</time>
      </trkpt>
      <trkpt lat="42.26796" lon="2.67225">
        <ele>526</ele>
        <time>2010-01-01T22:48:24Z</time>
      </trkpt>
      <trkpt lat="42.26802" lon="2.67229">
        <ele>525</ele>
        <time>2010-01-01T22:48:30Z</time>
      </trkpt>
      <trkpt lat="42.26801" lon="2.67244">
        <ele>526</ele>
        <time>2010-01-01T22:48:42Z</time>
      </trkpt>
      <trkpt lat="42.2681" lon="2.67256">
        <ele>528</ele>
        <time>2010-01-01T22:48:54Z</time>
      </trkpt>
      <trkpt lat="42.26816" lon="2.67258">
        <ele>529</ele>
        <time>2010-01-01T22:49:01Z</time>
      </trkpt>
      <trkpt lat="42.26828" lon="2.67257">
        <ele>532</ele>
        <time>2010-01-01T22:49:12Z</time>
      </trkpt>
      <trkpt lat="42.26831" lon="2.67267">
        <ele>535</ele>
        <time>2010-01-01T22:49:21Z</time>
      </trkpt>
      <trkpt lat="42.26821" lon="2.67267">
        <ele>532</ele>
        <time>2010-01-01T22:49:31Z</time>
      </trkpt>
      <trkpt lat="42.26825" lon="2.67262">
        <ele>532</ele>
        <time>2010-01-01T22:49:37Z</time>
      </trkpt>
      <trkpt lat="42.2682" lon="2.67264">
        <ele>531</ele>
        <time>2010-01-01T22:49:41Z</time>
      </trkpt>
      <trkpt lat="42.26825" lon="2.67259">
        <ele>532</ele>
        <time>2010-01-01T22:49:47Z</time>
      </trkpt>
      <trkpt lat="42.26833" lon="2.67247">
        <ele>531</ele>
        <time>2010-01-01T22:49:59Z</time>
      </trkpt>
      <trkpt lat="42.26833" lon="2.67238">
        <ele>529</ele>
        <time>2010-01-01T22:50:05Z</time>
      </trkpt>
      <trkpt lat="42.26836" lon="2.67226">
        <ele>528</ele>
        <time>2010-01-01T22:50:15Z</time>
      </trkpt>
      <trkpt lat="42.26843" lon="2.67211">
        <ele>527</ele>
        <time>2010-01-01T22:50:29Z</time>
      </trkpt>
      <trkpt lat="42.2685" lon="2.67205">
        <ele>529</ele>
        <time>2010-01-01T22:50:37Z</time>
      </trkpt>
      <trkpt lat="42.26859" lon="2.67201">
        <ele>530</ele>
        <time>2010-01-01T22:50:47Z</time>
      </trkpt>
      <trkpt lat="42.26867" lon="2.67192">
        <ele>531</ele>
        <time>2010-01-01T22:50:56Z</time>
      </trkpt>
      <trkpt lat="42.26875" lon="2.67181">
        <ele>531</ele>
        <time>2010-01-01T22:51:08Z</time>
      </trkpt>
      <trkpt lat="42.26879" lon="2.67173">
        <ele>530</ele>
        <time>2010-01-01T22:51:15Z</time>
      </trkpt>
      <trkpt lat="42.26886" lon="2.67168">
        <ele>532</ele>
        <time>2010-01-01T22:51:23Z</time>
      </trkpt>
      <trkpt lat="42.26896" lon="2.67158">
        <ele>533</ele>
        <time>2010-01-01T22:51:36Z</time>
      </trkpt>
      <trkpt lat="42.26898" lon="2.67151">
        <ele>532</ele>
        <time>2010-01-01T22:51:41Z</time>
      </trkpt>
      <trkpt lat="42.26904" lon="2.67143">
        <ele>532</ele>
        <time>2010-01-01T22:51:50Z</time>
      </trkpt>
      <trkpt lat="42.26913" lon="2.6713">
        <ele>533</ele>
        <time>2010-01-01T22:52:03Z</time>
      </trkpt>
      <trkpt lat="42.26918" lon="2.67113">
        <ele>531</ele>
        <time>2010-01-01T22:52:17Z</time>
      </trkpt>
      <trkpt lat="42.26922" lon="2.67106">
        <ele>532</ele>
        <time>2010-01-01T22:52:23Z</time>
      </trkpt>
      <trkpt lat="42.26929" lon="2.67105">
        <ele>535</ele>
        <time>2010-01-01T22:52:30Z</time>
      </trkpt>
      <trkpt lat="42.26939" lon="2.67107">
        <ele>541</ele>
        <time>2010-01-01T22:52:41Z</time>
      </trkpt>
      <trkpt lat="42.26946" lon="2.67106">
        <ele>544</ele>
        <time>2010-01-01T22:52:47Z</time>
      </trkpt>
      <trkpt lat="42.26954" lon="2.67101">
        <ele>547</ele>
        <time>2010-01-01T22:52:56Z</time>
      </trkpt>
      <trkpt lat="42.26965" lon="2.67092">
        <ele>551</ele>
        <time>2010-01-01T22:53:10Z</time>
      </trkpt>
      <trkpt lat="42.26974" lon="2.67084">
        <ele>553</ele>
        <time>2010-01-01T22:53:20Z</time>
      </trkpt>
      <trkpt lat="42.26981" lon="2.67081">
        <ele>556</ele>
        <time>2010-01-01T22:53:28Z</time>
      </trkpt>
      <trkpt lat="42.26985" lon="2.67091">
        <ele>559</ele>
        <time>2010-01-01T22:53:36Z</time>
      </trkpt>
      <trkpt lat="42.26987" lon="2.67079">
        <ele>559</ele>
        <time>2010-01-01T22:53:45Z</time>
      </trkpt>
      <trkpt lat="42.26985" lon="2.67059">
        <ele>558</ele>
        <time>2010-01-01T22:54:00Z</time>
      </trkpt>
      <trkpt lat="42.26987" lon="2.67049">
        <ele>560</ele>
        <time>2010-01-01T22:54:07Z</time>
      </trkpt>
      <trkpt lat="42.26989" lon="2.67041">
        <ele>561</ele>
        <time>2010-01-01T22:54:13Z</time>
      </trkpt>
      <trkpt lat="42.26987" lon="2.67025">
        <ele>562</ele>
        <time>2010-01-01T22:54:25Z</time>
      </trkpt>
      <trkpt lat="42.26984" lon="2.67017">
        <ele>563</ele>
        <time>2010-01-01T22:54:32Z</time>
      </trkpt>
      <trkpt lat="42.2699" lon="2.67019">
        <ele>565</ele>
        <time>2010-01-01T22:54:39Z</time>
      </trkpt>
      <trkpt lat="42.27001" lon="2.6703">
        <ele>569</ele>
        <time>2010-01-01T22:54:53Z</time>
      </trkpt>
      <trkpt lat="42.27005" lon="2.67036">
        <ele>569</ele>
        <time>2010-01-01T22:54:58Z</time>
      </trkpt>
      <trkpt lat="42.27015" lon="2.67044">
        <ele>572</ele>
        <time>2010-01-01T22:55:10Z</time>
      </trkpt>
      <trkpt lat="42.27019" lon="2.67048">
        <ele>573</ele>
        <time>2010-01-01T22:55:15Z</time>
      </trkpt>
      <trkpt lat="42.2703" lon="2.67055">
        <ele>576</ele>
        <time>2010-01-01T22:55:27Z</time>
      </trkpt>
      <trkpt lat="42.27033" lon="2.67055">
        <ele>576</ele>
        <time>2010-01-01T22:55:30Z</time>
      </trkpt>
      <trkpt lat="42.27034" lon="2.6705">
        <ele>576</ele>
        <time>2010-01-01T22:55:34Z</time>
      </trkpt>
      <trkpt lat="42.27033" lon="2.67052">
        <ele>576</ele>
        <time>2010-01-01T22:55:36Z</time>
      </trkpt>
      <trkpt lat="42.27031" lon="2.67046">
        <ele>576</ele>
        <time>2010-01-01T22:55:40Z</time>
      </trkpt>
      <trkpt lat="42.2703" lon="2.67047">
        <ele>576</ele>
        <time>2010-01-01T22:55:42Z</time>
      </trkpt>
      <trkpt lat="42.27029" lon="2.67044">
        <ele>576</ele>
        <time>2010-01-01T22:55:44Z</time>
      </trkpt>
      <trkpt lat="42.27025" lon="2.67045">
        <ele>575</ele>
        <time>2010-01-01T22:55:48Z</time>
      </trkpt>
      <trkpt lat="42.27031" lon="2.67048">
        <ele>576</ele>
        <time>2010-01-01T22:55:54Z</time>
      </trkpt>
      <trkpt lat="42.27028" lon="2.67048">
        <ele>576</ele>
        <time>2010-01-01T22:55:57Z</time>
      </trkpt>
      <trkpt lat="42.27032" lon="2.67046">
        <ele>576</ele>
        <time>2010-01-01T22:56:01Z</time>
      </trkpt>
      <trkpt lat="42.27031" lon="2.67049">
        <ele>576</ele>
        <time>2010-01-01T22:56:04Z</time>
      </trkpt>
      <trkpt lat="42.27032" lon="2.67044">
        <ele>576</ele>
        <time>2010-01-01T22:56:07Z</time>
      </trkpt>
      <trkpt lat="42.27036" lon="2.67051">
        <ele>576</ele>
        <time>2010-01-01T22:56:13Z</time>
      </trkpt>
      <trkpt lat="42.2704" lon="2.67059">
        <ele>577</ele>
        <time>2010-01-01T22:56:21Z</time>
      </trkpt>
      <trkpt lat="42.27049" lon="2.67066">
        <ele>579</ele>
        <time>2010-01-01T22:56:31Z</time>
      </trkpt>
      <trkpt lat="42.27053" lon="2.67064">
        <ele>579</ele>
        <time>2010-01-01T22:56:36Z</time>
      </trkpt>
      <trkpt lat="42.27053" lon="2.67065">
        <ele>579</ele>
        <time>2010-01-01T22:56:37Z</time>
      </trkpt>
      <trkpt lat="42.27057" lon="2.67072">
        <ele>580</ele>
        <time>2010-01-01T22:56:43Z</time>
      </trkpt>
      <trkpt lat="42.27053" lon="2.6707">
        <ele>580</ele>
        <time>2010-01-01T22:56:47Z</time>
      </trkpt>
      <trkpt lat="42.27055" lon="2.67067">
        <ele>580</ele>
        <time>2010-01-01T22:56:49Z</time>
      </trkpt>
      <trkpt lat="42.27057" lon="2.67069">
        <ele>580</ele>
        <time>2010-01-01T22:56:51Z</time>
      </trkpt>
      <trkpt lat="42.2707" lon="2.67073">
        <ele>579</ele>
        <time>2010-01-01T22:57:05Z</time>
      </trkpt>
      <trkpt lat="42.27075" lon="2.6707">
        <ele>577</ele>
        <time>2010-01-01T22:57:11Z</time>
      </trkpt>
      <trkpt lat="42.27163" lon="2.6712">
        <ele>567</ele>
        <time>2010-01-01T22:58:46Z</time>
      </trkpt>
      <trkpt lat="42.27175" lon="2.67128">
        <ele>565</ele>
        <time>2010-01-01T22:59:00Z</time>
      </trkpt>
      <trkpt lat="42.27182" lon="2.67132">
        <ele>563</ele>
        <time>2010-01-01T22:59:07Z</time>
      </trkpt>
      <trkpt lat="42.27189" lon="2.67135">
        <ele>561</ele>
        <time>2010-01-01T22:59:15Z</time>
      </trkpt>
      <trkpt lat="42.27196" lon="2.67136">
        <ele>559</ele>
        <time>2010-01-01T22:59:21Z</time>
      </trkpt>
      <trkpt lat="42.27199" lon="2.6714">
        <ele>558</ele>
        <time>2010-01-01T22:59:26Z</time>
      </trkpt>
      <trkpt lat="42.27207" lon="2.67143">
        <ele>555</ele>
        <time>2010-01-01T22:59:33Z</time>
      </trkpt>
      <trkpt lat="42.27208" lon="2.67138">
        <ele>553</ele>
        <time>2010-01-01T22:59:37Z</time>
      </trkpt>
      <trkpt lat="42.27206" lon="2.67135">
        <ele>554</ele>
        <time>2010-01-01T22:59:41Z</time>
      </trkpt>
      <trkpt lat="42.27203" lon="2.67132">
        <ele>555</ele>
        <time>2010-01-01T22:59:44Z</time>
      </trkpt>
      <trkpt lat="42.27201" lon="2.67129">
        <ele>555</ele>
        <time>2010-01-01T22:59:47Z</time>
      </trkpt>
      <trkpt lat="42.27197" lon="2.67123">
        <ele>555</ele>
        <time>2010-01-01T22:59:53Z</time>
      </trkpt>
      <trkpt lat="42.27194" lon="2.67112">
        <ele>554</ele>
        <time>2010-01-01T23:00:02Z</time>
      </trkpt>
      <trkpt lat="42.27182" lon="2.67095">
        <ele>555</ele>
        <time>2010-01-01T23:00:20Z</time>
      </trkpt>
      <trkpt lat="42.27176" lon="2.67084">
        <ele>555</ele>
        <time>2010-01-01T23:00:29Z</time>
      </trkpt>
      <trkpt lat="42.27169" lon="2.67073">
        <ele>555</ele>
        <time>2010-01-01T23:00:40Z</time>
      </trkpt>
      <trkpt lat="42.27163" lon="2.6706">
        <ele>553</ele>
        <time>2010-01-01T23:00:51Z</time>
      </trkpt>
      <trkpt lat="42.27162" lon="2.67059">
        <ele>553</ele>
        <time>2010-01-01T23:00:53Z</time>
      </trkpt>
      <trkpt lat="42.27157" lon="2.67052">
        <ele>553</ele>
        <time>2010-01-01T23:00:59Z</time>
      </trkpt>
      <trkpt lat="42.27156" lon="2.67049">
        <ele>552</ele>
        <time>2010-01-01T23:01:03Z</time>
      </trkpt>
      <trkpt lat="42.27153" lon="2.67039">
        <ele>551</ele>
        <time>2010-01-01T23:01:11Z</time>
      </trkpt>
      <trkpt lat="42.27153" lon="2.67036">
        <ele>550</ele>
        <time>2010-01-01T23:01:13Z</time>
      </trkpt>
      <trkpt lat="42.27155" lon="2.67034">
        <ele>549</ele>
        <time>2010-01-01T23:01:15Z</time>
      </trkpt>
      <trkpt lat="42.27156" lon="2.67032">
        <ele>548</ele>
        <time>2010-01-01T23:01:17Z</time>
      </trkpt>
      <trkpt lat="42.27158" lon="2.67031">
        <ele>547</ele>
        <time>2010-01-01T23:01:19Z</time>
      </trkpt>
      <trkpt lat="42.27159" lon="2.67031">
        <ele>547</ele>
        <time>2010-01-01T23:01:20Z</time>
      </trkpt>
      <trkpt lat="42.27164" lon="2.67033">
        <ele>546</ele>
        <time>2010-01-01T23:01:25Z</time>
      </trkpt>
      <trkpt lat="42.27169" lon="2.67035">
        <ele>545</ele>
        <time>2010-01-01T23:01:30Z</time>
      </trkpt>
      <trkpt lat="42.27172" lon="2.67039">
        <ele>545</ele>
        <time>2010-01-01T23:01:34Z</time>
      </trkpt>
      <trkpt lat="42.27183" lon="2.67043">
        <ele>543</ele>
        <time>2010-01-01T23:01:45Z</time>
      </trkpt>
      <trkpt lat="42.27192" lon="2.6705">
        <ele>543</ele>
        <time>2010-01-01T23:01:56Z</time>
      </trkpt>
      <trkpt lat="42.27194" lon="2.67054">
        <ele>543</ele>
        <time>2010-01-01T23:01:59Z</time>
      </trkpt>
      <trkpt lat="42.27198" lon="2.67061">
        <ele>543</ele>
        <time>2010-01-01T23:02:06Z</time>
      </trkpt>
      <trkpt lat="42.27204" lon="2.67067">
        <ele>543</ele>
        <time>2010-01-01T23:02:13Z</time>
      </trkpt>
      <trkpt lat="42.2721" lon="2.67072">
        <ele>542</ele>
        <time>2010-01-01T23:02:21Z</time>
      </trkpt>
      <trkpt lat="42.2722" lon="2.67083">
        <ele>541</ele>
        <time>2010-01-01T23:02:34Z</time>
      </trkpt>
      <trkpt lat="42.27222" lon="2.67083">
        <ele>541</ele>
        <time>2010-01-01T23:02:35Z</time>
      </trkpt>
      <trkpt lat="42.27224" lon="2.67085">
        <ele>540</ele>
        <time>2010-01-01T23:02:37Z</time>
      </trkpt>
      <trkpt lat="42.27229" lon="2.67089">
        <ele>538</ele>
        <time>2010-01-01T23:02:44Z</time>
      </trkpt>
      <trkpt lat="42.2723" lon="2.6709">
        <ele>538</ele>
        <time>2010-01-01T23:02:45Z</time>
      </trkpt>
      <trkpt lat="42.27233" lon="2.67093">
        <ele>538</ele>
        <time>2010-01-01T23:02:48Z</time>
      </trkpt>
      <trkpt lat="42.27236" lon="2.67101">
        <ele>537</ele>
        <time>2010-01-01T23:02:55Z</time>
      </trkpt>
      <trkpt lat="42.27239" lon="2.67107">
        <ele>537</ele>
        <time>2010-01-01T23:03:00Z</time>
      </trkpt>
      <trkpt lat="42.2724" lon="2.67109">
        <ele>537</ele>
        <time>2010-01-01T23:03:02Z</time>
      </trkpt>
      <trkpt lat="42.2724" lon="2.67111">
        <ele>537</ele>
        <time>2010-01-01T23:03:04Z</time>
      </trkpt>
      <trkpt lat="42.27243" lon="2.67114">
        <ele>536</ele>
        <time>2010-01-01T23:03:07Z</time>
      </trkpt>
      <trkpt lat="42.27245" lon="2.67117">
        <ele>535</ele>
        <time>2010-01-01T23:03:11Z</time>
      </trkpt>
      <trkpt lat="42.27247" lon="2.67123">
        <ele>535</ele>
        <time>2010-01-01T23:03:15Z</time>
      </trkpt>
      <trkpt lat="42.27248" lon="2.67145">
        <ele>538</ele>
        <time>2010-01-01T23:03:31Z</time>
      </trkpt>
      <trkpt lat="42.27249" lon="2.67154">
        <ele>539</ele>
        <time>2010-01-01T23:03:38Z</time>
      </trkpt>
      <trkpt lat="42.27251" lon="2.67159">
        <ele>538</ele>
        <time>2010-01-01T23:03:42Z</time>
      </trkpt>
      <trkpt lat="42.27257" lon="2.67164">
        <ele>537</ele>
        <time>2010-01-01T23:03:50Z</time>
      </trkpt>
      <trkpt lat="42.2726" lon="2.67171">
        <ele>536</ele>
        <time>2010-01-01T23:03:56Z</time>
      </trkpt>
      <trkpt lat="42.27261" lon="2.67177">
        <ele>537</ele>
        <time>2010-01-01T23:04:00Z</time>
      </trkpt>
      <trkpt lat="42.27265" lon="2.67184">
        <ele>537</ele>
        <time>2010-01-01T23:04:07Z</time>
      </trkpt>
      <trkpt lat="42.27268" lon="2.6719">
        <ele>536</ele>
        <time>2010-01-01T23:04:12Z</time>
      </trkpt>
      <trkpt lat="42.27271" lon="2.67197">
        <ele>536</ele>
        <time>2010-01-01T23:04:18Z</time>
      </trkpt>
      <trkpt lat="42.27274" lon="2.67206">
        <ele>536</ele>
        <time>2010-01-01T23:04:25Z</time>
      </trkpt>
      <trkpt lat="42.27277" lon="2.67208">
        <ele>536</ele>
        <time>2010-01-01T23:04:28Z</time>
      </trkpt>
      <trkpt lat="42.27279" lon="2.67209">
        <ele>535</ele>
        <time>2010-01-01T23:04:30Z</time>
      </trkpt>
      <trkpt lat="42.2728" lon="2.67211">
        <ele>535</ele>
        <time>2010-01-01T23:04:32Z</time>
      </trkpt>
      <trkpt lat="42.27283" lon="2.67214">
        <ele>534</ele>
        <time>2010-01-01T23:04:36Z</time>
      </trkpt>
      <trkpt lat="42.27282" lon="2.67218">
        <ele>536</ele>
        <time>2010-01-01T23:04:39Z</time>
      </trkpt>
      <trkpt lat="42.27284" lon="2.67226">
        <ele>536</ele>
        <time>2010-01-01T23:04:45Z</time>
      </trkpt>
      <trkpt lat="42.27284" lon="2.67227">
        <ele>537</ele>
        <time>2010-01-01T23:04:47Z</time>
      </trkpt>
      <trkpt lat="42.27292" lon="2.67255">
        <ele>540</ele>
        <time>2010-01-01T23:05:09Z</time>
      </trkpt>
      <trkpt lat="42.27294" lon="2.67256">
        <ele>540</ele>
        <time>2010-01-01T23:05:10Z</time>
      </trkpt>
      <trkpt lat="42.27297" lon="2.67255">
        <ele>538</ele>
        <time>2010-01-01T23:05:13Z</time>
      </trkpt>
      <trkpt lat="42.273" lon="2.6725">
        <ele>535</ele>
        <time>2010-01-01T23:05:18Z</time>
      </trkpt>
      <trkpt lat="42.273" lon="2.67249">
        <ele>535</ele>
        <time>2010-01-01T23:05:20Z</time>
      </trkpt>
      <trkpt lat="42.27301" lon="2.67243">
        <ele>533</ele>
        <time>2010-01-01T23:05:24Z</time>
      </trkpt>
      <trkpt lat="42.27301" lon="2.67241">
        <ele>532</ele>
        <time>2010-01-01T23:05:26Z</time>
      </trkpt>
      <trkpt lat="42.27301" lon="2.67227">
        <ele>528</ele>
        <time>2010-01-01T23:05:36Z</time>
      </trkpt>
      <trkpt lat="42.27301" lon="2.67221">
        <ele>527</ele>
        <time>2010-01-01T23:05:41Z</time>
      </trkpt>
      <trkpt lat="42.27299" lon="2.67214">
        <ele>526</ele>
        <time>2010-01-01T23:05:46Z</time>
      </trkpt>
      <trkpt lat="42.27297" lon="2.67206">
        <ele>525</ele>
        <time>2010-01-01T23:05:52Z</time>
      </trkpt>
      <trkpt lat="42.27296" lon="2.67198">
        <ele>525</ele>
        <time>2010-01-01T23:05:58Z</time>
      </trkpt>
      <trkpt lat="42.27296" lon="2.67196">
        <ele>524</ele>
        <time>2010-01-01T23:05:59Z</time>
      </trkpt>
      <trkpt lat="42.27295" lon="2.67193">
        <ele>524</ele>
        <time>2010-01-01T23:06:02Z</time>
      </trkpt>
      <trkpt lat="42.27295" lon="2.67189">
        <ele>524</ele>
        <time>2010-01-01T23:06:05Z</time>
      </trkpt>
      <trkpt lat="42.27294" lon="2.67186">
        <ele>524</ele>
        <time>2010-01-01T23:06:07Z</time>
      </trkpt>
      <trkpt lat="42.27291" lon="2.67178">
        <ele>524</ele>
        <time>2010-01-01T23:06:14Z</time>
      </trkpt>
      <trkpt lat="42.27288" lon="2.67175">
        <ele>525</ele>
        <time>2010-01-01T23:06:18Z</time>
      </trkpt>
      <trkpt lat="42.27286" lon="2.67171">
        <ele>525</ele>
        <time>2010-01-01T23:06:21Z</time>
      </trkpt>
      <trkpt lat="42.27286" lon="2.6717">
        <ele>525</ele>
        <time>2010-01-01T23:06:22Z</time>
      </trkpt>
      <trkpt lat="42.27281" lon="2.6716">
        <ele>526</ele>
        <time>2010-01-01T23:06:31Z</time>
      </trkpt>
      <trkpt lat="42.27279" lon="2.67152">
        <ele>526</ele>
        <time>2010-01-01T23:06:37Z</time>
      </trkpt>
      <trkpt lat="42.27282" lon="2.67139">
        <ele>522</ele>
        <time>2010-01-01T23:06:47Z</time>
      </trkpt>
      <trkpt lat="42.27286" lon="2.67131">
        <ele>519</ele>
        <time>2010-01-01T23:06:55Z</time>
      </trkpt>
      <trkpt lat="42.27289" lon="2.67122">
        <ele>517</ele>
        <time>2010-01-01T23:07:01Z</time>
      </trkpt>
      <trkpt lat="42.2729" lon="2.67116">
        <ele>515</ele>
        <time>2010-01-01T23:07:06Z</time>
      </trkpt>
      <trkpt lat="42.27292" lon="2.67097">
        <ele>512</ele>
        <time>2010-01-01T23:07:20Z</time>
      </trkpt>
      <trkpt lat="42.27293" lon="2.67079">
        <ele>509</ele>
        <time>2010-01-01T23:07:33Z</time>
      </trkpt>
      <trkpt lat="42.27293" lon="2.67078">
        <ele>509</ele>
        <time>2010-01-01T23:07:34Z</time>
      </trkpt>
      <trkpt lat="42.27295" lon="2.67076">
        <ele>508</ele>
        <time>2010-01-01T23:07:37Z</time>
      </trkpt>
      <trkpt lat="42.27298" lon="2.67074">
        <ele>507</ele>
        <time>2010-01-01T23:07:40Z</time>
      </trkpt>
      <trkpt lat="42.27304" lon="2.67073">
        <ele>505</ele>
        <time>2010-01-01T23:07:46Z</time>
      </trkpt>
      <trkpt lat="42.27305" lon="2.67073">
        <ele>505</ele>
        <time>2010-01-01T23:07:47Z</time>
      </trkpt>
      <trkpt lat="42.27307" lon="2.67073">
        <ele>504</ele>
        <time>2010-01-01T23:07:50Z</time>
      </trkpt>
      <trkpt lat="42.27309" lon="2.67073">
        <ele>504</ele>
        <time>2010-01-01T23:07:51Z</time>
      </trkpt>
      <trkpt lat="42.27315" lon="2.67071">
        <ele>503</ele>
        <time>2010-01-01T23:07:58Z</time>
      </trkpt>
      <trkpt lat="42.27318" lon="2.67072">
        <ele>502</ele>
        <time>2010-01-01T23:08:00Z</time>
      </trkpt>
      <trkpt lat="42.27319" lon="2.67071">
        <ele>502</ele>
        <time>2010-01-01T23:08:02Z</time>
      </trkpt>
      <trkpt lat="42.2732" lon="2.6707">
        <ele>502</ele>
        <time>2010-01-01T23:08:03Z</time>
      </trkpt>
      <trkpt lat="42.27322" lon="2.67066">
        <ele>501</ele>
        <time>2010-01-01T23:08:07Z</time>
      </trkpt>
      <trkpt lat="42.27323" lon="2.67063">
        <ele>501</ele>
        <time>2010-01-01T23:08:10Z</time>
      </trkpt>
      <trkpt lat="42.27326" lon="2.67053">
        <ele>500</ele>
        <time>2010-01-01T23:08:18Z</time>
      </trkpt>
      <trkpt lat="42.27323" lon="2.67035">
        <ele>499</ele>
        <time>2010-01-01T23:08:31Z</time>
      </trkpt>
      <trkpt lat="42.27322" lon="2.67029">
        <ele>499</ele>
        <time>2010-01-01T23:08:36Z</time>
      </trkpt>
      <trkpt lat="42.2732" lon="2.67024">
        <ele>498</ele>
        <time>2010-01-01T23:08:40Z</time>
      </trkpt>
      <trkpt lat="42.27319" lon="2.67023">
        <ele>498</ele>
        <time>2010-01-01T23:08:41Z</time>
      </trkpt>
      <trkpt lat="42.27313" lon="2.67015">
        <ele>497</ele>
        <time>2010-01-01T23:08:50Z</time>
      </trkpt>
      <trkpt lat="42.2731" lon="2.6701">
        <ele>496</ele>
        <time>2010-01-01T23:08:55Z</time>
      </trkpt>
      <trkpt lat="42.27305" lon="2.67005">
        <ele>495</ele>
        <time>2010-01-01T23:09:01Z</time>
      </trkpt>
      <trkpt lat="42.27301" lon="2.67003">
        <ele>495</ele>
        <time>2010-01-01T23:09:05Z</time>
      </trkpt>
      <trkpt lat="42.27299" lon="2.66994">
        <ele>494</ele>
        <time>2010-01-01T23:09:12Z</time>
      </trkpt>
      <trkpt lat="42.27298" lon="2.66986">
        <ele>493</ele>
        <time>2010-01-01T23:09:18Z</time>
      </trkpt>
      <trkpt lat="42.27296" lon="2.66979">
        <ele>492</ele>
        <time>2010-01-01T23:09:23Z</time>
      </trkpt>
      <trkpt lat="42.27298" lon="2.66974">
        <ele>491</ele>
        <time>2010-01-01T23:09:27Z</time>
      </trkpt>
      <trkpt lat="42.27298" lon="2.66971">
        <ele>490</ele>
        <time>2010-01-01T23:09:29Z</time>
      </trkpt>
      <trkpt lat="42.27295" lon="2.66962">
        <ele>488</ele>
        <time>2010-01-01T23:09:37Z</time>
      </trkpt>
      <trkpt lat="42.27294" lon="2.66955">
        <ele>486</ele>
        <time>2010-01-01T23:09:42Z</time>
      </trkpt>
      <trkpt lat="42.27295" lon="2.6695">
        <ele>484</ele>
        <time>2010-01-01T23:09:46Z</time>
      </trkpt>
      <trkpt lat="42.27295" lon="2.66945">
        <ele>483</ele>
        <time>2010-01-01T23:09:49Z</time>
      </trkpt>
      <trkpt lat="42.27295" lon="2.66942">
        <ele>482</ele>
        <time>2010-01-01T23:09:52Z</time>
      </trkpt>
      <trkpt lat="42.27293" lon="2.66936">
        <ele>481</ele>
        <time>2010-01-01T23:09:57Z</time>
      </trkpt>
      <trkpt lat="42.27295" lon="2.66931">
        <ele>479</ele>
        <time>2010-01-01T23:10:01Z</time>
      </trkpt>
      <trkpt lat="42.27295" lon="2.66929">
        <ele>479</ele>
        <time>2010-01-01T23:10:02Z</time>
      </trkpt>
      <trkpt lat="42.27297" lon="2.66924">
        <ele>477</ele>
        <time>2010-01-01T23:10:07Z</time>
      </trkpt>
      <trkpt lat="42.273" lon="2.66918">
        <ele>475</ele>
        <time>2010-01-01T23:10:12Z</time>
      </trkpt>
      <trkpt lat="42.27306" lon="2.66911">
        <ele>472</ele>
        <time>2010-01-01T23:10:19Z</time>
      </trkpt>
      <trkpt lat="42.2731" lon="2.66909">
        <ele>471</ele>
        <time>2010-01-01T23:10:24Z</time>
      </trkpt>
      <trkpt lat="42.27313" lon="2.66906">
        <ele>470</ele>
        <time>2010-01-01T23:10:28Z</time>
      </trkpt>
      <trkpt lat="42.27314" lon="2.66907">
        <ele>470</ele>
        <time>2010-01-01T23:10:29Z</time>
      </trkpt>
      <trkpt lat="42.27315" lon="2.6691">
        <ele>471</ele>
        <time>2010-01-01T23:10:31Z</time>
      </trkpt>
      <trkpt lat="42.27316" lon="2.66913">
        <ele>472</ele>
        <time>2010-01-01T23:10:34Z</time>
      </trkpt>
      <trkpt lat="42.27318" lon="2.66918">
        <ele>473</ele>
        <time>2010-01-01T23:10:38Z</time>
      </trkpt>
      <trkpt lat="42.2732" lon="2.6692">
        <ele>473</ele>
        <time>2010-01-01T23:10:40Z</time>
      </trkpt>
      <trkpt lat="42.27324" lon="2.6692">
        <ele>473</ele>
        <time>2010-01-01T23:10:44Z</time>
      </trkpt>
      <trkpt lat="42.27326" lon="2.6692">
        <ele>473</ele>
        <time>2010-01-01T23:10:47Z</time>
      </trkpt>
      <trkpt lat="42.2733" lon="2.6692">
        <ele>473</ele>
        <time>2010-01-01T23:10:50Z</time>
      </trkpt>
      <trkpt lat="42.27333" lon="2.6692">
        <ele>473</ele>
        <time>2010-01-01T23:10:53Z</time>
      </trkpt>
      <trkpt lat="42.27338" lon="2.6692">
        <ele>472</ele>
        <time>2010-01-01T23:10:58Z</time>
      </trkpt>
      <trkpt lat="42.27343" lon="2.6692">
        <ele>473</ele>
        <time>2010-01-01T23:11:04Z</time>
      </trkpt>
      <trkpt lat="42.27347" lon="2.6692">
        <ele>472</ele>
        <time>2010-01-01T23:11:07Z</time>
      </trkpt>
      <trkpt lat="42.2735" lon="2.6692">
        <ele>472</ele>
        <time>2010-01-01T23:11:11Z</time>
      </trkpt>
      <trkpt lat="42.27356" lon="2.6692">
        <ele>472</ele>
        <time>2010-01-01T23:11:16Z</time>
      </trkpt>
      <trkpt lat="42.27359" lon="2.66921">
        <ele>472</ele>
        <time>2010-01-01T23:11:19Z</time>
      </trkpt>
      <trkpt lat="42.27361" lon="2.66918">
        <ele>472</ele>
        <time>2010-01-01T23:11:22Z</time>
      </trkpt>
      <trkpt lat="42.2736" lon="2.66915">
        <ele>471</ele>
        <time>2010-01-01T23:11:25Z</time>
      </trkpt>
      <trkpt lat="42.27359" lon="2.66913">
        <ele>470</ele>
        <time>2010-01-01T23:11:27Z</time>
      </trkpt>
      <trkpt lat="42.27361" lon="2.66913">
        <ele>470</ele>
        <time>2010-01-01T23:11:29Z</time>
      </trkpt>
      <trkpt lat="42.27364" lon="2.6691">
        <ele>467</ele>
        <time>2010-01-01T23:11:32Z</time>
      </trkpt>
      <trkpt lat="42.27366" lon="2.66909">
        <ele>466</ele>
        <time>2010-01-01T23:11:35Z</time>
      </trkpt>
      <trkpt lat="42.27368" lon="2.66908">
        <ele>465</ele>
        <time>2010-01-01T23:11:37Z</time>
      </trkpt>
      <trkpt lat="42.27373" lon="2.66906">
        <ele>462</ele>
        <time>2010-01-01T23:11:42Z</time>
      </trkpt>
      <trkpt lat="42.27378" lon="2.66905">
        <ele>460</ele>
        <time>2010-01-01T23:11:46Z</time>
      </trkpt>
      <trkpt lat="42.27381" lon="2.66901">
        <ele>458</ele>
        <time>2010-01-01T23:11:51Z</time>
      </trkpt>
      <trkpt lat="42.27384" lon="2.66899">
        <ele>457</ele>
        <time>2010-01-01T23:11:54Z</time>
      </trkpt>
      <trkpt lat="42.27386" lon="2.66898">
        <ele>456</ele>
        <time>2010-01-01T23:11:56Z</time>
      </trkpt>
      <trkpt lat="42.2739" lon="2.66896">
        <ele>455</ele>
        <time>2010-01-01T23:12:01Z</time>
      </trkpt>
      <trkpt lat="42.27395" lon="2.66895">
        <ele>455</ele>
        <time>2010-01-01T23:12:05Z</time>
      </trkpt>
      <trkpt lat="42.27397" lon="2.66894">
        <ele>454</ele>
        <time>2010-01-01T23:12:08Z</time>
      </trkpt>
      <trkpt lat="42.27401" lon="2.66894">
        <ele>454</ele>
        <time>2010-01-01T23:12:12Z</time>
      </trkpt>
      <trkpt lat="42.27405" lon="2.66896">
        <ele>454</ele>
        <time>2010-01-01T23:12:16Z</time>
      </trkpt>
      <trkpt lat="42.27407" lon="2.66895">
        <ele>454</ele>
        <time>2010-01-01T23:12:18Z</time>
      </trkpt>
      <trkpt lat="42.27407" lon="2.66893">
        <ele>454</ele>
        <time>2010-01-01T23:12:20Z</time>
      </trkpt>
      <trkpt lat="42.27407" lon="2.66893">
        <ele>454</ele>
        <time>2010-01-01T23:12:20Z</time>
      </trkpt>
      <trkpt lat="42.27405" lon="2.66893">
        <ele>454</ele>
        <time>2010-01-01T23:12:21Z</time>
      </trkpt>
      <trkpt lat="42.27402" lon="2.66892">
        <ele>454</ele>
        <time>2010-01-01T23:12:25Z</time>
      </trkpt>
      <trkpt lat="42.27403" lon="2.66892">
        <ele>454</ele>
        <time>2010-01-01T23:12:26Z</time>
      </trkpt>
      <trkpt lat="42.27404" lon="2.66891">
        <ele>454</ele>
        <time>2010-01-01T23:12:27Z</time>
      </trkpt>
      <trkpt lat="42.27407" lon="2.66887">
        <ele>454</ele>
        <time>2010-01-01T23:12:31Z</time>
      </trkpt>
      <trkpt lat="42.27395" lon="2.66882">
        <ele>454</ele>
        <time>2010-01-01T23:12:43Z</time>
      </trkpt>
      <trkpt lat="42.27379" lon="2.66881">
        <ele>454</ele>
        <time>2010-01-01T23:12:59Z</time>
      </trkpt>
      <trkpt lat="42.27374" lon="2.6688">
        <ele>454</ele>
        <time>2010-01-01T23:13:04Z</time>
      </trkpt>
      <trkpt lat="42.27366" lon="2.66877">
        <ele>454</ele>
        <time>2010-01-01T23:13:12Z</time>
      </trkpt>
      <trkpt lat="42.27357" lon="2.66873">
        <ele>454</ele>
        <time>2010-01-01T23:13:22Z</time>
      </trkpt>
      <trkpt lat="42.27348" lon="2.66869">
        <ele>453</ele>
        <time>2010-01-01T23:13:31Z</time>
      </trkpt>
      <trkpt lat="42.27332" lon="2.66847">
        <ele>449</ele>
        <time>2010-01-01T23:13:54Z</time>
      </trkpt>
      <trkpt lat="42.27326" lon="2.66839">
        <ele>447</ele>
        <time>2010-01-01T23:14:02Z</time>
      </trkpt>
      <trkpt lat="42.27322" lon="2.66832">
        <ele>446</ele>
        <time>2010-01-01T23:14:09Z</time>
      </trkpt>
      <trkpt lat="42.27319" lon="2.66825">
        <ele>445</ele>
        <time>2010-01-01T23:14:15Z</time>
      </trkpt>
      <trkpt lat="42.27316" lon="2.66815">
        <ele>443</ele>
        <time>2010-01-01T23:14:23Z</time>
      </trkpt>
      <trkpt lat="42.27312" lon="2.66804">
        <ele>440</ele>
        <time>2010-01-01T23:14:32Z</time>
      </trkpt>
      <trkpt lat="42.27309" lon="2.66789">
        <ele>438</ele>
        <time>2010-01-01T23:14:44Z</time>
      </trkpt>
      <trkpt lat="42.27308" lon="2.66786">
        <ele>437</ele>
        <time>2010-01-01T23:14:46Z</time>
      </trkpt>
      <trkpt lat="42.27306" lon="2.66782">
        <ele>436</ele>
        <time>2010-01-01T23:14:50Z</time>
      </trkpt>
      <trkpt lat="42.27301" lon="2.66765">
        <ele>434</ele>
        <time>2010-01-01T23:15:03Z</time>
      </trkpt>
      <trkpt lat="42.27299" lon="2.66758">
        <ele>434</ele>
        <time>2010-01-01T23:15:08Z</time>
      </trkpt>
      <trkpt lat="42.27298" lon="2.66753">
        <ele>433</ele>
        <time>2010-01-01T23:15:12Z</time>
      </trkpt>
      <trkpt lat="42.27292" lon="2.66752">
        <ele>432</ele>
        <time>2010-01-01T23:15:19Z</time>
      </trkpt>
      <trkpt lat="42.27289" lon="2.66752">
        <ele>432</ele>
        <time>2010-01-01T23:15:22Z</time>
      </trkpt>
      <trkpt lat="42.27286" lon="2.66753">
        <ele>431</ele>
        <time>2010-01-01T23:15:25Z</time>
      </trkpt>
      <trkpt lat="42.27284" lon="2.66752">
        <ele>431</ele>
        <time>2010-01-01T23:15:27Z</time>
      </trkpt>
      <trkpt lat="42.27284" lon="2.66751">
        <ele>431</ele>
        <time>2010-01-01T23:15:28Z</time>
      </trkpt>
      <trkpt lat="42.27279" lon="2.66751">
        <ele>430</ele>
        <time>2010-01-01T23:15:33Z</time>
      </trkpt>
      <trkpt lat="42.27277" lon="2.66751">
        <ele>430</ele>
        <time>2010-01-01T23:15:34Z</time>
      </trkpt>
      <trkpt lat="42.27274" lon="2.66751">
        <ele>430</ele>
        <time>2010-01-01T23:15:37Z</time>
      </trkpt>
      <trkpt lat="42.27263" lon="2.6675">
        <ele>430</ele>
        <time>2010-01-01T23:15:48Z</time>
      </trkpt>
      <trkpt lat="42.27264" lon="2.66744">
        <ele>430</ele>
        <time>2010-01-01T23:15:53Z</time>
      </trkpt>
      <trkpt lat="42.27265" lon="2.6674">
        <ele>430</ele>
        <time>2010-01-01T23:15:56Z</time>
      </trkpt>
      <trkpt lat="42.27266" lon="2.66736">
        <ele>430</ele>
        <time>2010-01-01T23:16:00Z</time>
      </trkpt>
      <trkpt lat="42.27271" lon="2.66731">
        <ele>430</ele>
        <time>2010-01-01T23:16:06Z</time>
      </trkpt>
      <trkpt lat="42.27276" lon="2.66723">
        <ele>430</ele>
        <time>2010-01-01T23:16:14Z</time>
      </trkpt>
      <trkpt lat="42.2728" lon="2.66718">
        <ele>431</ele>
        <time>2010-01-01T23:16:19Z</time>
      </trkpt>
      <trkpt lat="42.27284" lon="2.66712">
        <ele>432</ele>
        <time>2010-01-01T23:16:25Z</time>
      </trkpt>
      <trkpt lat="42.27287" lon="2.66709">
        <ele>433</ele>
        <time>2010-01-01T23:16:29Z</time>
      </trkpt>
      <trkpt lat="42.27286" lon="2.66707">
        <ele>433</ele>
        <time>2010-01-01T23:16:31Z</time>
      </trkpt>
      <trkpt lat="42.27288" lon="2.66704">
        <ele>433</ele>
        <time>2010-01-01T23:16:34Z</time>
      </trkpt>
      <trkpt lat="42.27291" lon="2.66699">
        <ele>434</ele>
        <time>2010-01-01T23:16:39Z</time>
      </trkpt>
      <trkpt lat="42.27294" lon="2.66695">
        <ele>435</ele>
        <time>2010-01-01T23:16:43Z</time>
      </trkpt>
      <trkpt lat="42.27295" lon="2.66691">
        <ele>436</ele>
        <time>2010-01-01T23:16:45Z</time>
      </trkpt>
      <trkpt lat="42.27296" lon="2.66688">
        <ele>437</ele>
        <time>2010-01-01T23:16:48Z</time>
      </trkpt>
      <trkpt lat="42.27297" lon="2.66683">
        <ele>439</ele>
        <time>2010-01-01T23:16:52Z</time>
      </trkpt>
      <trkpt lat="42.27297" lon="2.66681">
        <ele>439</ele>
        <time>2010-01-01T23:16:53Z</time>
      </trkpt>
      <trkpt lat="42.27299" lon="2.66679">
        <ele>440</ele>
        <time>2010-01-01T23:16:56Z</time>
      </trkpt>
      <trkpt lat="42.273" lon="2.66676">
        <ele>441</ele>
        <time>2010-01-01T23:16:58Z</time>
      </trkpt>
      <trkpt lat="42.273" lon="2.66673">
        <ele>442</ele>
        <time>2010-01-01T23:17:00Z</time>
      </trkpt>
      <trkpt lat="42.27299" lon="2.66671">
        <ele>442</ele>
        <time>2010-01-01T23:17:02Z</time>
      </trkpt>
      <trkpt lat="42.273" lon="2.6667">
        <ele>443</ele>
        <time>2010-01-01T23:17:03Z</time>
      </trkpt>
      <trkpt lat="42.273" lon="2.66666">
        <ele>444</ele>
        <time>2010-01-01T23:17:06Z</time>
      </trkpt>
      <trkpt lat="42.27302" lon="2.66664">
        <ele>445</ele>
        <time>2010-01-01T23:17:09Z</time>
      </trkpt>
      <trkpt lat="42.27307" lon="2.66659">
        <ele>447</ele>
        <time>2010-01-01T23:17:15Z</time>
      </trkpt>
      <trkpt lat="42.27311" lon="2.66655">
        <ele>448</ele>
        <time>2010-01-01T23:17:19Z</time>
      </trkpt>
      <trkpt lat="42.27314" lon="2.6665">
        <ele>450</ele>
        <time>2010-01-01T23:17:25Z</time>
      </trkpt>
      <trkpt lat="42.27317" lon="2.66648">
        <ele>451</ele>
        <time>2010-01-01T23:17:27Z</time>
      </trkpt>
      <trkpt lat="42.27318" lon="2.66643">
        <ele>452</ele>
        <time>2010-01-01T23:17:31Z</time>
      </trkpt>
      <trkpt lat="42.2732" lon="2.6664">
        <ele>454</ele>
        <time>2010-01-01T23:17:34Z</time>
      </trkpt>
      <trkpt lat="42.2732" lon="2.66636">
        <ele>455</ele>
        <time>2010-01-01T23:17:37Z</time>
      </trkpt>
      <trkpt lat="42.27322" lon="2.66632">
        <ele>457</ele>
        <time>2010-01-01T23:17:40Z</time>
      </trkpt>
      <trkpt lat="42.27324" lon="2.66627">
        <ele>458</ele>
        <time>2010-01-01T23:17:45Z</time>
      </trkpt>
      <trkpt lat="42.27327" lon="2.66623">
        <ele>460</ele>
        <time>2010-01-01T23:17:49Z</time>
      </trkpt>
      <trkpt lat="42.27328" lon="2.66621">
        <ele>460</ele>
        <time>2010-01-01T23:17:51Z</time>
      </trkpt>
      <trkpt lat="42.27331" lon="2.66618">
        <ele>462</ele>
        <time>2010-01-01T23:17:54Z</time>
      </trkpt>
      <trkpt lat="42.27333" lon="2.66614">
        <ele>463</ele>
        <time>2010-01-01T23:17:58Z</time>
      </trkpt>
      <trkpt lat="42.27336" lon="2.66609">
        <ele>465</ele>
        <time>2010-01-01T23:18:03Z</time>
      </trkpt>
      <trkpt lat="42.27341" lon="2.66607">
        <ele>465</ele>
        <time>2010-01-01T23:18:08Z</time>
      </trkpt>
      <trkpt lat="42.27343" lon="2.66603">
        <ele>466</ele>
        <time>2010-01-01T23:18:11Z</time>
      </trkpt>
      <trkpt lat="42.27344" lon="2.66599">
        <ele>467</ele>
        <time>2010-01-01T23:18:14Z</time>
      </trkpt>
      <trkpt lat="42.27349" lon="2.66592">
        <ele>469</ele>
        <time>2010-01-01T23:18:22Z</time>
      </trkpt>
      <trkpt lat="42.27352" lon="2.6659">
        <ele>470</ele>
        <time>2010-01-01T23:18:25Z</time>
      </trkpt>
      <trkpt lat="42.27354" lon="2.66588">
        <ele>470</ele>
        <time>2010-01-01T23:18:28Z</time>
      </trkpt>
      <trkpt lat="42.2736" lon="2.66581">
        <ele>473</ele>
        <time>2010-01-01T23:18:35Z</time>
      </trkpt>
      <trkpt lat="42.27361" lon="2.66575">
        <ele>475</ele>
        <time>2010-01-01T23:18:40Z</time>
      </trkpt>
      <trkpt lat="42.27358" lon="2.66573">
        <ele>476</ele>
        <time>2010-01-01T23:18:43Z</time>
      </trkpt>
      <trkpt lat="42.27353" lon="2.66575">
        <ele>476</ele>
        <time>2010-01-01T23:18:48Z</time>
      </trkpt>
      <trkpt lat="42.27349" lon="2.66574">
        <ele>476</ele>
        <time>2010-01-01T23:18:52Z</time>
      </trkpt>
      <trkpt lat="42.2735" lon="2.66573">
        <ele>477</ele>
        <time>2010-01-01T23:18:53Z</time>
      </trkpt>
      <trkpt lat="42.27352" lon="2.66571">
        <ele>477</ele>
        <time>2010-01-01T23:18:55Z</time>
      </trkpt>
      <trkpt lat="42.27349" lon="2.66566">
        <ele>479</ele>
        <time>2010-01-01T23:19:00Z</time>
      </trkpt>
      <trkpt lat="42.27348" lon="2.66563">
        <ele>480</ele>
        <time>2010-01-01T23:19:02Z</time>
      </trkpt>
      <trkpt lat="42.27348" lon="2.66561">
        <ele>481</ele>
        <time>2010-01-01T23:19:04Z</time>
      </trkpt>
      <trkpt lat="42.27348" lon="2.6656">
        <ele>482</ele>
        <time>2010-01-01T23:19:05Z</time>
      </trkpt>
      <trkpt lat="42.2735" lon="2.66561">
        <ele>481</ele>
        <time>2010-01-01T23:19:07Z</time>
      </trkpt>
      <trkpt lat="42.27352" lon="2.66558">
        <ele>482</ele>
        <time>2010-01-01T23:19:10Z</time>
      </trkpt>
      <trkpt lat="42.27351" lon="2.66555">
        <ele>483</ele>
        <time>2010-01-01T23:19:12Z</time>
      </trkpt>
      <trkpt lat="42.27353" lon="2.66552">
        <ele>484</ele>
        <time>2010-01-01T23:19:15Z</time>
      </trkpt>
      <trkpt lat="42.27356" lon="2.66549">
        <ele>485</ele>
        <time>2010-01-01T23:19:19Z</time>
      </trkpt>
      <trkpt lat="42.27358" lon="2.66546">
        <ele>485</ele>
        <time>2010-01-01T23:19:22Z</time>
      </trkpt>
      <trkpt lat="42.2736" lon="2.66543">
        <ele>486</ele>
        <time>2010-01-01T23:19:25Z</time>
      </trkpt>
      <trkpt lat="42.27361" lon="2.66542">
        <ele>487</ele>
        <time>2010-01-01T23:19:27Z</time>
      </trkpt>
      <trkpt lat="42.27363" lon="2.66539">
        <ele>487</ele>
        <time>2010-01-01T23:19:29Z</time>
      </trkpt>
      <trkpt lat="42.27362" lon="2.66536">
        <ele>488</ele>
        <time>2010-01-01T23:19:31Z</time>
      </trkpt>
      <trkpt lat="42.27363" lon="2.66533">
        <ele>489</ele>
        <time>2010-01-01T23:19:34Z</time>
      </trkpt>
      <trkpt lat="42.27364" lon="2.66531">
        <ele>489</ele>
        <time>2010-01-01T23:19:35Z</time>
      </trkpt>
      <trkpt lat="42.27365" lon="2.66527">
        <ele>490</ele>
        <time>2010-01-01T23:19:38Z</time>
      </trkpt>
      <trkpt lat="42.27364" lon="2.66522">
        <ele>492</ele>
        <time>2010-01-01T23:19:42Z</time>
      </trkpt>
      <trkpt lat="42.27364" lon="2.66519">
        <ele>493</ele>
        <time>2010-01-01T23:19:44Z</time>
      </trkpt>
      <trkpt lat="42.27363" lon="2.66518">
        <ele>493</ele>
        <time>2010-01-01T23:19:46Z</time>
      </trkpt>
      <trkpt lat="42.27364" lon="2.66518">
        <ele>493</ele>
        <time>2010-01-01T23:19:46Z</time>
      </trkpt>
      <trkpt lat="42.27365" lon="2.66516">
        <ele>493</ele>
        <time>2010-01-01T23:19:48Z</time>
      </trkpt>
      <trkpt lat="42.27365" lon="2.66514">
        <ele>494</ele>
        <time>2010-01-01T23:19:50Z</time>
      </trkpt>
      <trkpt lat="42.27366" lon="2.66512">
        <ele>494</ele>
        <time>2010-01-01T23:19:52Z</time>
      </trkpt>
      <trkpt lat="42.27365" lon="2.66509">
        <ele>496</ele>
        <time>2010-01-01T23:19:54Z</time>
      </trkpt>
      <trkpt lat="42.27364" lon="2.66505">
        <ele>497</ele>
        <time>2010-01-01T23:19:57Z</time>
      </trkpt>
      <trkpt lat="42.27364" lon="2.66502">
        <ele>498</ele>
        <time>2010-01-01T23:20:00Z</time>
      </trkpt>
      <trkpt lat="42.27364" lon="2.665">
        <ele>498</ele>
        <time>2010-01-01T23:20:01Z</time>
      </trkpt>
      <trkpt lat="42.27367" lon="2.66496">
        <ele>499</ele>
        <time>2010-01-01T23:20:05Z</time>
      </trkpt>
      <trkpt lat="42.27369" lon="2.66492">
        <ele>499</ele>
        <time>2010-01-01T23:20:09Z</time>
      </trkpt>
      <trkpt lat="42.27371" lon="2.66486">
        <ele>500</ele>
        <time>2010-01-01T23:20:13Z</time>
      </trkpt>
      <trkpt lat="42.27371" lon="2.66477">
        <ele>502</ele>
        <time>2010-01-01T23:20:20Z</time>
      </trkpt>
      <trkpt lat="42.27369" lon="2.66468">
        <ele>506</ele>
        <time>2010-01-01T23:20:28Z</time>
      </trkpt>
      <trkpt lat="42.27368" lon="2.66459">
        <ele>508</ele>
        <time>2010-01-01T23:20:34Z</time>
      </trkpt>
      <trkpt lat="42.27364" lon="2.6645">
        <ele>513</ele>
        <time>2010-01-01T23:20:42Z</time>
      </trkpt>
      <trkpt lat="42.27361" lon="2.66443">
        <ele>516</ele>
        <time>2010-01-01T23:20:48Z</time>
      </trkpt>
      <trkpt lat="42.27362" lon="2.66432">
        <ele>516</ele>
        <time>2010-01-01T23:20:57Z</time>
      </trkpt>
      <trkpt lat="42.27362" lon="2.66413">
        <ele>517</ele>
        <time>2010-01-01T23:21:10Z</time>
      </trkpt>
      <trkpt lat="42.2736" lon="2.66406">
        <ele>519</ele>
        <time>2010-01-01T23:21:16Z</time>
      </trkpt>
      <trkpt lat="42.27359" lon="2.66399">
        <ele>520</ele>
        <time>2010-01-01T23:21:21Z</time>
      </trkpt>
      <trkpt lat="42.27357" lon="2.66389">
        <ele>521</ele>
        <time>2010-01-01T23:21:29Z</time>
      </trkpt>
      <trkpt lat="42.27356" lon="2.66384">
        <ele>522</ele>
        <time>2010-01-01T23:21:33Z</time>
      </trkpt>
      <trkpt lat="42.27355" lon="2.66375">
        <ele>524</ele>
        <time>2010-01-01T23:21:40Z</time>
      </trkpt>
      <trkpt lat="42.27355" lon="2.66366">
        <ele>526</ele>
        <time>2010-01-01T23:21:46Z</time>
      </trkpt>
      <trkpt lat="42.27355" lon="2.66359">
        <ele>528</ele>
        <time>2010-01-01T23:21:51Z</time>
      </trkpt>
      <trkpt lat="42.27356" lon="2.6635">
        <ele>529</ele>
        <time>2010-01-01T23:21:58Z</time>
      </trkpt>
      <trkpt lat="42.27357" lon="2.6634">
        <ele>531</ele>
        <time>2010-01-01T23:22:06Z</time>
      </trkpt>
      <trkpt lat="42.27358" lon="2.66333">
        <ele>532</ele>
        <time>2010-01-01T23:22:11Z</time>
      </trkpt>
      <trkpt lat="42.27359" lon="2.66324">
        <ele>532</ele>
        <time>2010-01-01T23:22:18Z</time>
      </trkpt>
      <trkpt lat="42.27359" lon="2.66317">
        <ele>532</ele>
        <time>2010-01-01T23:22:23Z</time>
      </trkpt>
      <trkpt lat="42.27359" lon="2.66311">
        <ele>533</ele>
        <time>2010-01-01T23:22:27Z</time>
      </trkpt>
      <trkpt lat="42.2736" lon="2.66307">
        <ele>533</ele>
        <time>2010-01-01T23:22:31Z</time>
      </trkpt>
      <trkpt lat="42.27363" lon="2.663">
        <ele>532</ele>
        <time>2010-01-01T23:22:37Z</time>
      </trkpt>
      <trkpt lat="42.27364" lon="2.66291">
        <ele>533</ele>
        <time>2010-01-01T23:22:43Z</time>
      </trkpt>
      <trkpt lat="42.27368" lon="2.66283">
        <ele>532</ele>
        <time>2010-01-01T23:22:50Z</time>
      </trkpt>
      <trkpt lat="42.27371" lon="2.66272">
        <ele>532</ele>
        <time>2010-01-01T23:23:00Z</time>
      </trkpt>
      <trkpt lat="42.2737" lon="2.66265">
        <ele>534</ele>
        <time>2010-01-01T23:23:05Z</time>
      </trkpt>
      <trkpt lat="42.2737" lon="2.66254">
        <ele>536</ele>
        <time>2010-01-01T23:23:13Z</time>
      </trkpt>
      <trkpt lat="42.27367" lon="2.66248">
        <ele>539</ele>
        <time>2010-01-01T23:23:18Z</time>
      </trkpt>
      <trkpt lat="42.27366" lon="2.66241">
        <ele>541</ele>
        <time>2010-01-01T23:23:24Z</time>
      </trkpt>
      <trkpt lat="42.27365" lon="2.66233">
        <ele>542</ele>
        <time>2010-01-01T23:23:29Z</time>
      </trkpt>
      <trkpt lat="42.27358" lon="2.66213">
        <ele>546</ele>
        <time>2010-01-01T23:23:46Z</time>
      </trkpt>
      <trkpt lat="42.2735" lon="2.66192">
        <ele>545</ele>
        <time>2010-01-01T23:24:03Z</time>
      </trkpt>
      <trkpt lat="42.27345" lon="2.66184">
        <ele>547</ele>
        <time>2010-01-01T23:24:11Z</time>
      </trkpt>
      <trkpt lat="42.27332" lon="2.66159">
        <ele>548</ele>
        <time>2010-01-01T23:24:33Z</time>
      </trkpt>
      <trkpt lat="42.27325" lon="2.66151">
        <ele>548</ele>
        <time>2010-01-01T23:24:43Z</time>
      </trkpt>
      <trkpt lat="42.27321" lon="2.66147">
        <ele>548</ele>
        <time>2010-01-01T23:24:48Z</time>
      </trkpt>
      <trkpt lat="42.27321" lon="2.66136">
        <ele>548</ele>
        <time>2010-01-01T23:24:56Z</time>
      </trkpt>
      <trkpt lat="42.27322" lon="2.66127">
        <ele>549</ele>
        <time>2010-01-01T23:25:02Z</time>
      </trkpt>
      <trkpt lat="42.27322" lon="2.66118">
        <ele>550</ele>
        <time>2010-01-01T23:25:09Z</time>
      </trkpt>
      <trkpt lat="42.27318" lon="2.66111">
        <ele>552</ele>
        <time>2010-01-01T23:25:16Z</time>
      </trkpt>
      <trkpt lat="42.27316" lon="2.66113">
        <ele>552</ele>
        <time>2010-01-01T23:25:18Z</time>
      </trkpt>
      <trkpt lat="42.27316" lon="2.66113">
        <ele>551</ele>
        <time>2010-01-01T23:25:18Z</time>
      </trkpt>
      <trkpt lat="42.27315" lon="2.66115">
        <ele>551</ele>
        <time>2010-01-01T23:25:20Z</time>
      </trkpt>
      <trkpt lat="42.27314" lon="2.66117">
        <ele>551</ele>
        <time>2010-01-01T23:25:21Z</time>
      </trkpt>
      <trkpt lat="42.27313" lon="2.6612">
        <ele>551</ele>
        <time>2010-01-01T23:25:24Z</time>
      </trkpt>
      <trkpt lat="42.27313" lon="2.66122">
        <ele>551</ele>
        <time>2010-01-01T23:25:26Z</time>
      </trkpt>
      <trkpt lat="42.27313" lon="2.66123">
        <ele>551</ele>
        <time>2010-01-01T23:25:26Z</time>
      </trkpt>
      <trkpt lat="42.27312" lon="2.66126">
        <ele>550</ele>
        <time>2010-01-01T23:25:29Z</time>
      </trkpt>
      <trkpt lat="42.27314" lon="2.66127">
        <ele>550</ele>
        <time>2010-01-01T23:25:31Z</time>
      </trkpt>
      <trkpt lat="42.27315" lon="2.66126">
        <ele>550</ele>
        <time>2010-01-01T23:25:32Z</time>
      </trkpt>
      <trkpt lat="42.27315" lon="2.66124">
        <ele>550</ele>
        <time>2010-01-01T23:25:34Z</time>
      </trkpt>
      <trkpt lat="42.27312" lon="2.66113">
        <ele>552</ele>
        <time>2010-01-01T23:25:42Z</time>
      </trkpt>
      <trkpt lat="42.27312" lon="2.66105">
        <ele>553</ele>
        <time>2010-01-01T23:25:48Z</time>
      </trkpt>
      <trkpt lat="42.27312" lon="2.66093">
        <ele>555</ele>
        <time>2010-01-01T23:25:57Z</time>
      </trkpt>
      <trkpt lat="42.27311" lon="2.66086">
        <ele>556</ele>
        <time>2010-01-01T23:26:02Z</time>
      </trkpt>
      <trkpt lat="42.27311" lon="2.6608">
        <ele>558</ele>
        <time>2010-01-01T23:26:07Z</time>
      </trkpt>
      <trkpt lat="42.27312" lon="2.66074">
        <ele>560</ele>
        <time>2010-01-01T23:26:11Z</time>
      </trkpt>
      <trkpt lat="42.27313" lon="2.66069">
        <ele>561</ele>
        <time>2010-01-01T23:26:15Z</time>
      </trkpt>
      <trkpt lat="42.27314" lon="2.66063">
        <ele>563</ele>
        <time>2010-01-01T23:26:20Z</time>
      </trkpt>
      <trkpt lat="42.27316" lon="2.66056">
        <ele>564</ele>
        <time>2010-01-01T23:26:25Z</time>
      </trkpt>
      <trkpt lat="42.27318" lon="2.66048">
        <ele>566</ele>
        <time>2010-01-01T23:26:32Z</time>
      </trkpt>
      <trkpt lat="42.27319" lon="2.66042">
        <ele>569</ele>
        <time>2010-01-01T23:26:36Z</time>
      </trkpt>
      <trkpt lat="42.27318" lon="2.66034">
        <ele>572</ele>
        <time>2010-01-01T23:26:42Z</time>
      </trkpt>
      <trkpt lat="42.27318" lon="2.6603">
        <ele>574</ele>
        <time>2010-01-01T23:26:45Z</time>
      </trkpt>
      <trkpt lat="42.27318" lon="2.66028">
        <ele>575</ele>
        <time>2010-01-01T23:26:47Z</time>
      </trkpt>
      <trkpt lat="42.27319" lon="2.66026">
        <ele>575</ele>
        <time>2010-01-01T23:26:48Z</time>
      </trkpt>
      <trkpt lat="42.2732" lon="2.66021">
        <ele>577</ele>
        <time>2010-01-01T23:26:52Z</time>
      </trkpt>
      <trkpt lat="42.27319" lon="2.66014">
        <ele>579</ele>
        <time>2010-01-01T23:26:57Z</time>
      </trkpt>
      <trkpt lat="42.27321" lon="2.66009">
        <ele>580</ele>
        <time>2010-01-01T23:27:01Z</time>
      </trkpt>
      <trkpt lat="42.27322" lon="2.66007">
        <ele>581</ele>
        <time>2010-01-01T23:27:04Z</time>
      </trkpt>
      <trkpt lat="42.27325" lon="2.66002">
        <ele>581</ele>
        <time>2010-01-01T23:27:08Z</time>
      </trkpt>
      <trkpt lat="42.27325" lon="2.65999">
        <ele>582</ele>
        <time>2010-01-01T23:27:10Z</time>
      </trkpt>
      <trkpt lat="42.27325" lon="2.65994">
        <ele>585</ele>
        <time>2010-01-01T23:27:14Z</time>
      </trkpt>
      <trkpt lat="42.27326" lon="2.65989">
        <ele>586</ele>
        <time>2010-01-01T23:27:17Z</time>
      </trkpt>
      <trkpt lat="42.27327" lon="2.65983">
        <ele>588</ele>
        <time>2010-01-01T23:27:22Z</time>
      </trkpt>
      <trkpt lat="42.27327" lon="2.65978">
        <ele>590</ele>
        <time>2010-01-01T23:27:26Z</time>
      </trkpt>
      <trkpt lat="42.27328" lon="2.65975">
        <ele>591</ele>
        <time>2010-01-01T23:27:28Z</time>
      </trkpt>
      <trkpt lat="42.2733" lon="2.6597">
        <ele>592</ele>
        <time>2010-01-01T23:27:32Z</time>
      </trkpt>
      <trkpt lat="42.27333" lon="2.65964">
        <ele>594</ele>
        <time>2010-01-01T23:27:38Z</time>
      </trkpt>
      <trkpt lat="42.27333" lon="2.6596">
        <ele>595</ele>
        <time>2010-01-01T23:27:41Z</time>
      </trkpt>
      <trkpt lat="42.27335" lon="2.65956">
        <ele>596</ele>
        <time>2010-01-01T23:27:45Z</time>
      </trkpt>
      <trkpt lat="42.27334" lon="2.65953">
        <ele>597</ele>
        <time>2010-01-01T23:27:47Z</time>
      </trkpt>
      <trkpt lat="42.27336" lon="2.6595">
        <ele>597</ele>
        <time>2010-01-01T23:27:50Z</time>
      </trkpt>
      <trkpt lat="42.27338" lon="2.65945">
        <ele>598</ele>
        <time>2010-01-01T23:27:53Z</time>
      </trkpt>
      <trkpt lat="42.27339" lon="2.65941">
        <ele>598</ele>
        <time>2010-01-01T23:27:57Z</time>
      </trkpt>
      <trkpt lat="42.27341" lon="2.65936">
        <ele>598</ele>
        <time>2010-01-01T23:28:02Z</time>
      </trkpt>
      <trkpt lat="42.27342" lon="2.65931">
        <ele>599</ele>
        <time>2010-01-01T23:28:05Z</time>
      </trkpt>
      <trkpt lat="42.27341" lon="2.65925">
        <ele>601</ele>
        <time>2010-01-01T23:28:10Z</time>
      </trkpt>
      <trkpt lat="42.2734" lon="2.65921">
        <ele>602</ele>
        <time>2010-01-01T23:28:13Z</time>
      </trkpt>
      <trkpt lat="42.27339" lon="2.65909">
        <ele>605</ele>
        <time>2010-01-01T23:28:22Z</time>
      </trkpt>
      <trkpt lat="42.27335" lon="2.65899">
        <ele>611</ele>
        <time>2010-01-01T23:28:31Z</time>
      </trkpt>
      <trkpt lat="42.27335" lon="2.65884">
        <ele>613</ele>
        <time>2010-01-01T23:28:42Z</time>
      </trkpt>
      <trkpt lat="42.27335" lon="2.65872">
        <ele>616</ele>
        <time>2010-01-01T23:28:50Z</time>
      </trkpt>
      <trkpt lat="42.27336" lon="2.65858">
        <ele>617</ele>
        <time>2010-01-01T23:29:01Z</time>
      </trkpt>
      <trkpt lat="42.27337" lon="2.6585">
        <ele>616</ele>
        <time>2010-01-01T23:29:07Z</time>
      </trkpt>
      <trkpt lat="42.27336" lon="2.65837">
        <ele>618</ele>
        <time>2010-01-01T23:29:17Z</time>
      </trkpt>
      <trkpt lat="42.27335" lon="2.65826">
        <ele>618</ele>
        <time>2010-01-01T23:29:25Z</time>
      </trkpt>
      <trkpt lat="42.27336" lon="2.65822">
        <ele>617</ele>
        <time>2010-01-01T23:29:28Z</time>
      </trkpt>
      <trkpt lat="42.27336" lon="2.65813">
        <ele>616</ele>
        <time>2010-01-01T23:29:34Z</time>
      </trkpt>
      <trkpt lat="42.27335" lon="2.65807">
        <ele>616</ele>
        <time>2010-01-01T23:29:39Z</time>
      </trkpt>
      <trkpt lat="42.27334" lon="2.65803">
        <ele>617</ele>
        <time>2010-01-01T23:29:42Z</time>
      </trkpt>
      <trkpt lat="42.27335" lon="2.65799">
        <ele>617</ele>
        <time>2010-01-01T23:29:45Z</time>
      </trkpt>
      <trkpt lat="42.27339" lon="2.65787">
        <ele>617</ele>
        <time>2010-01-01T23:29:55Z</time>
      </trkpt>
      <trkpt lat="42.27341" lon="2.6577">
        <ele>619</ele>
        <time>2010-01-01T23:30:08Z</time>
      </trkpt>
      <trkpt lat="42.27344" lon="2.65762">
        <ele>619</ele>
        <time>2010-01-01T23:30:14Z</time>
      </trkpt>
      <trkpt lat="42.27347" lon="2.65752">
        <ele>620</ele>
        <time>2010-01-01T23:30:22Z</time>
      </trkpt>
      <trkpt lat="42.27348" lon="2.65742">
        <ele>622</ele>
        <time>2010-01-01T23:30:29Z</time>
      </trkpt>
      <trkpt lat="42.2735" lon="2.65735">
        <ele>623</ele>
        <time>2010-01-01T23:30:35Z</time>
      </trkpt>
      <trkpt lat="42.27352" lon="2.65728">
        <ele>624</ele>
        <time>2010-01-01T23:30:41Z</time>
      </trkpt>
      <trkpt lat="42.27352" lon="2.65718">
        <ele>626</ele>
        <time>2010-01-01T23:30:48Z</time>
      </trkpt>
      <trkpt lat="42.27351" lon="2.6571">
        <ele>628</ele>
        <time>2010-01-01T23:30:54Z</time>
      </trkpt>
      <trkpt lat="42.2735" lon="2.65704">
        <ele>629</ele>
        <time>2010-01-01T23:30:59Z</time>
      </trkpt>
      <trkpt lat="42.27351" lon="2.65698">
        <ele>630</ele>
        <time>2010-01-01T23:31:03Z</time>
      </trkpt>
      <trkpt lat="42.27351" lon="2.65686">
        <ele>632</ele>
        <time>2010-01-01T23:31:12Z</time>
      </trkpt>
      <trkpt lat="42.27349" lon="2.6568">
        <ele>635</ele>
        <time>2010-01-01T23:31:17Z</time>
      </trkpt>
      <trkpt lat="42.27347" lon="2.65675">
        <ele>637</ele>
        <time>2010-01-01T23:31:21Z</time>
      </trkpt>
      <trkpt lat="42.27346" lon="2.65669">
        <ele>639</ele>
        <time>2010-01-01T23:31:25Z</time>
      </trkpt>
      <trkpt lat="42.27346" lon="2.65663">
        <ele>640</ele>
        <time>2010-01-01T23:31:30Z</time>
      </trkpt>
      <trkpt lat="42.27347" lon="2.65657">
        <ele>641</ele>
        <time>2010-01-01T23:31:35Z</time>
      </trkpt>
      <trkpt lat="42.27347" lon="2.65655">
        <ele>640</ele>
        <time>2010-01-01T23:31:36Z</time>
      </trkpt>
      <trkpt lat="42.27347" lon="2.65653">
        <ele>641</ele>
        <time>2010-01-01T23:31:38Z</time>
      </trkpt>
      <trkpt lat="42.27348" lon="2.65649">
        <ele>641</ele>
        <time>2010-01-01T23:31:41Z</time>
      </trkpt>
      <trkpt lat="42.27346" lon="2.65642">
        <ele>644</ele>
        <time>2010-01-01T23:31:47Z</time>
      </trkpt>
      <trkpt lat="42.27348" lon="2.65633">
        <ele>643</ele>
        <time>2010-01-01T23:31:53Z</time>
      </trkpt>
      <trkpt lat="42.27348" lon="2.65626">
        <ele>645</ele>
        <time>2010-01-01T23:31:58Z</time>
      </trkpt>
      <trkpt lat="42.27349" lon="2.6562">
        <ele>645</ele>
        <time>2010-01-01T23:32:04Z</time>
      </trkpt>
      <trkpt lat="42.27349" lon="2.65615">
        <ele>646</ele>
        <time>2010-01-01T23:32:07Z</time>
      </trkpt>
      <trkpt lat="42.27346" lon="2.65607">
        <ele>649</ele>
        <time>2010-01-01T23:32:13Z</time>
      </trkpt>
      <trkpt lat="42.27345" lon="2.65604">
        <ele>651</ele>
        <time>2010-01-01T23:32:16Z</time>
      </trkpt>
      <trkpt lat="42.27342" lon="2.656">
        <ele>653</ele>
        <time>2010-01-01T23:32:20Z</time>
      </trkpt>
      <trkpt lat="42.27341" lon="2.65597">
        <ele>654</ele>
        <time>2010-01-01T23:32:22Z</time>
      </trkpt>
      <trkpt lat="42.27341" lon="2.65597">
        <ele>654</ele>
        <time>2010-01-01T23:32:23Z</time>
      </trkpt>
      <trkpt lat="42.27339" lon="2.65594">
        <ele>656</ele>
        <time>2010-01-01T23:32:26Z</time>
      </trkpt>
      <trkpt lat="42.27339" lon="2.65591">
        <ele>657</ele>
        <time>2010-01-01T23:32:28Z</time>
      </trkpt>
      <trkpt lat="42.27341" lon="2.65587">
        <ele>656</ele>
        <time>2010-01-01T23:32:32Z</time>
      </trkpt>
      <trkpt lat="42.27342" lon="2.65583">
        <ele>656</ele>
        <time>2010-01-01T23:32:35Z</time>
      </trkpt>
      <trkpt lat="42.27342" lon="2.6558">
        <ele>657</ele>
        <time>2010-01-01T23:32:37Z</time>
      </trkpt>
      <trkpt lat="42.27344" lon="2.65571">
        <ele>658</ele>
        <time>2010-01-01T23:32:44Z</time>
      </trkpt>
      <trkpt lat="42.27343" lon="2.65566">
        <ele>660</ele>
        <time>2010-01-01T23:32:48Z</time>
      </trkpt>
      <trkpt lat="42.27341" lon="2.65562">
        <ele>662</ele>
        <time>2010-01-01T23:32:52Z</time>
      </trkpt>
      <trkpt lat="42.27338" lon="2.65557">
        <ele>664</ele>
        <time>2010-01-01T23:32:56Z</time>
      </trkpt>
      <trkpt lat="42.27337" lon="2.65557">
        <ele>665</ele>
        <time>2010-01-01T23:32:57Z</time>
      </trkpt>
      <trkpt lat="42.27336" lon="2.65558">
        <ele>665</ele>
        <time>2010-01-01T23:32:59Z</time>
      </trkpt>
      <trkpt lat="42.27334" lon="2.65559">
        <ele>665</ele>
        <time>2010-01-01T23:33:01Z</time>
      </trkpt>
      <trkpt lat="42.27333" lon="2.65561">
        <ele>666</ele>
        <time>2010-01-01T23:33:02Z</time>
      </trkpt>
      <trkpt lat="42.27331" lon="2.6556">
        <ele>668</ele>
        <time>2010-01-01T23:33:04Z</time>
      </trkpt>
      <trkpt lat="42.27328" lon="2.65562">
        <ele>670</ele>
        <time>2010-01-01T23:33:07Z</time>
      </trkpt>
      <trkpt lat="42.27327" lon="2.65565">
        <ele>670</ele>
        <time>2010-01-01T23:33:10Z</time>
      </trkpt>
      <trkpt lat="42.27326" lon="2.65568">
        <ele>671</ele>
        <time>2010-01-01T23:33:12Z</time>
      </trkpt>
      <trkpt lat="42.27324" lon="2.65571">
        <ele>672</ele>
        <time>2010-01-01T23:33:15Z</time>
      </trkpt>
      <trkpt lat="42.2732" lon="2.65575">
        <ele>674</ele>
        <time>2010-01-01T23:33:20Z</time>
      </trkpt>
      <trkpt lat="42.27317" lon="2.65577">
        <ele>676</ele>
        <time>2010-01-01T23:33:23Z</time>
      </trkpt>
      <trkpt lat="42.27315" lon="2.65581">
        <ele>677</ele>
        <time>2010-01-01T23:33:27Z</time>
      </trkpt>
      <trkpt lat="42.27312" lon="2.65583">
        <ele>679</ele>
        <time>2010-01-01T23:33:30Z</time>
      </trkpt>
      <trkpt lat="42.2731" lon="2.65583">
        <ele>681</ele>
        <time>2010-01-01T23:33:33Z</time>
      </trkpt>
      <trkpt lat="42.27309" lon="2.65584">
        <ele>682</ele>
        <time>2010-01-01T23:33:34Z</time>
      </trkpt>
      <trkpt lat="42.27306" lon="2.65587">
        <ele>684</ele>
        <time>2010-01-01T23:33:37Z</time>
      </trkpt>
      <trkpt lat="42.27302" lon="2.65591">
        <ele>685</ele>
        <time>2010-01-01T23:33:42Z</time>
      </trkpt>
      <trkpt lat="42.27299" lon="2.65591">
        <ele>687</ele>
        <time>2010-01-01T23:33:44Z</time>
      </trkpt>
      <trkpt lat="42.27298" lon="2.65593">
        <ele>687</ele>
        <time>2010-01-01T23:33:47Z</time>
      </trkpt>
      <trkpt lat="42.27296" lon="2.65594">
        <ele>688</ele>
        <time>2010-01-01T23:33:49Z</time>
      </trkpt>
      <trkpt lat="42.27295" lon="2.65595">
        <ele>689</ele>
        <time>2010-01-01T23:33:50Z</time>
      </trkpt>
      <trkpt lat="42.27294" lon="2.65597">
        <ele>689</ele>
        <time>2010-01-01T23:33:52Z</time>
      </trkpt>
      <trkpt lat="42.27293" lon="2.65599">
        <ele>689</ele>
        <time>2010-01-01T23:33:54Z</time>
      </trkpt>
      <trkpt lat="42.27292" lon="2.65601">
        <ele>689</ele>
        <time>2010-01-01T23:33:56Z</time>
      </trkpt>
      <trkpt lat="42.2729" lon="2.65604">
        <ele>689</ele>
        <time>2010-01-01T23:33:59Z</time>
      </trkpt>
      <trkpt lat="42.27288" lon="2.65606">
        <ele>690</ele>
        <time>2010-01-01T23:34:01Z</time>
      </trkpt>
      <trkpt lat="42.27286" lon="2.65608">
        <ele>691</ele>
        <time>2010-01-01T23:34:04Z</time>
      </trkpt>
      <trkpt lat="42.27283" lon="2.65611">
        <ele>691</ele>
        <time>2010-01-01T23:34:07Z</time>
      </trkpt>
      <trkpt lat="42.2728" lon="2.65613">
        <ele>692</ele>
        <time>2010-01-01T23:34:10Z</time>
      </trkpt>
      <trkpt lat="42.27277" lon="2.65615">
        <ele>694</ele>
        <time>2010-01-01T23:34:14Z</time>
      </trkpt>
      <trkpt lat="42.27275" lon="2.65618">
        <ele>694</ele>
        <time>2010-01-01T23:34:17Z</time>
      </trkpt>
      <trkpt lat="42.27271" lon="2.65617">
        <ele>696</ele>
        <time>2010-01-01T23:34:21Z</time>
      </trkpt>
      <trkpt lat="42.2727" lon="2.65615">
        <ele>698</ele>
        <time>2010-01-01T23:34:23Z</time>
      </trkpt>
      <trkpt lat="42.27269" lon="2.65611">
        <ele>699</ele>
        <time>2010-01-01T23:34:26Z</time>
      </trkpt>
      <trkpt lat="42.27268" lon="2.65608">
        <ele>701</ele>
        <time>2010-01-01T23:34:28Z</time>
      </trkpt>
      <trkpt lat="42.27267" lon="2.65607">
        <ele>702</ele>
        <time>2010-01-01T23:34:29Z</time>
      </trkpt>
      <trkpt lat="42.27267" lon="2.65604">
        <ele>703</ele>
        <time>2010-01-01T23:34:32Z</time>
      </trkpt>
      <trkpt lat="42.27266" lon="2.656">
        <ele>705</ele>
        <time>2010-01-01T23:34:34Z</time>
      </trkpt>
      <trkpt lat="42.27262" lon="2.65597">
        <ele>708</ele>
        <time>2010-01-01T23:34:39Z</time>
      </trkpt>
      <trkpt lat="42.2726" lon="2.65595">
        <ele>710</ele>
        <time>2010-01-01T23:34:41Z</time>
      </trkpt>
      <trkpt lat="42.2726" lon="2.65592">
        <ele>711</ele>
        <time>2010-01-01T23:34:43Z</time>
      </trkpt>
      <trkpt lat="42.27258" lon="2.6559">
        <ele>712</ele>
        <time>2010-01-01T23:34:45Z</time>
      </trkpt>
      <trkpt lat="42.27257" lon="2.65589">
        <ele>713</ele>
        <time>2010-01-01T23:34:47Z</time>
      </trkpt>
      <trkpt lat="42.27256" lon="2.6559">
        <ele>714</ele>
        <time>2010-01-01T23:34:48Z</time>
      </trkpt>
      <trkpt lat="42.27255" lon="2.65592">
        <ele>714</ele>
        <time>2010-01-01T23:34:49Z</time>
      </trkpt>
      <trkpt lat="42.27254" lon="2.65594">
        <ele>713</ele>
        <time>2010-01-01T23:34:51Z</time>
      </trkpt>
      <trkpt lat="42.27251" lon="2.65597">
        <ele>714</ele>
        <time>2010-01-01T23:34:55Z</time>
      </trkpt>
      <trkpt lat="42.27251" lon="2.65598">
        <ele>713</ele>
        <time>2010-01-01T23:34:57Z</time>
      </trkpt>
      <trkpt lat="42.2725" lon="2.65599">
        <ele>713</ele>
        <time>2010-01-01T23:34:58Z</time>
      </trkpt>
      <trkpt lat="42.2725" lon="2.65597">
        <ele>714</ele>
        <time>2010-01-01T23:35:00Z</time>
      </trkpt>
      <trkpt lat="42.27249" lon="2.65601">
        <ele>713</ele>
        <time>2010-01-01T23:35:03Z</time>
      </trkpt>
      <trkpt lat="42.27249" lon="2.65601">
        <ele>713</ele>
        <time>2010-01-01T23:35:03Z</time>
      </trkpt>
      <trkpt lat="42.27245" lon="2.65602">
        <ele>713</ele>
        <time>2010-01-01T23:35:08Z</time>
      </trkpt>
      <trkpt lat="42.27235" lon="2.65603">
        <ele>715</ele>
        <time>2010-01-01T23:35:18Z</time>
      </trkpt>
      <trkpt lat="42.27204" lon="2.6558">
        <ele>719</ele>
        <time>2010-01-01T23:35:53Z</time>
      </trkpt>
      <trkpt lat="42.27194" lon="2.65564">
        <ele>721</ele>
        <time>2010-01-01T23:36:08Z</time>
      </trkpt>
      <trkpt lat="42.27178" lon="2.65536">
        <ele>721</ele>
        <time>2010-01-01T23:36:35Z</time>
      </trkpt>
      <trkpt lat="42.27159" lon="2.655">
        <ele>721</ele>
        <time>2010-01-01T23:37:07Z</time>
      </trkpt>
      <trkpt lat="42.27143" lon="2.65477">
        <ele>721</ele>
        <time>2010-01-01T23:37:31Z</time>
      </trkpt>
      <trkpt lat="42.27139" lon="2.65472">
        <ele>720</ele>
        <time>2010-01-01T23:37:36Z</time>
      </trkpt>
      <trkpt lat="42.27123" lon="2.65452">
        <ele>720</ele>
        <time>2010-01-01T23:37:58Z</time>
      </trkpt>
      <trkpt lat="42.27102" lon="2.65429">
        <ele>718</ele>
        <time>2010-01-01T23:38:25Z</time>
      </trkpt>
      <trkpt lat="42.27072" lon="2.65403">
        <ele>715</ele>
        <time>2010-01-01T23:39:01Z</time>
      </trkpt>
      <trkpt lat="42.27057" lon="2.6539">
        <ele>716</ele>
        <time>2010-01-01T23:39:19Z</time>
      </trkpt>
      <trkpt lat="42.27051" lon="2.65384">
        <ele>715</ele>
        <time>2010-01-01T23:39:26Z</time>
      </trkpt>
      <trkpt lat="42.27034" lon="2.65365">
        <ele>714</ele>
        <time>2010-01-01T23:39:49Z</time>
      </trkpt>
      <trkpt lat="42.27028" lon="2.65358">
        <ele>714</ele>
        <time>2010-01-01T23:39:56Z</time>
      </trkpt>
      <trkpt lat="42.2702" lon="2.65344">
        <ele>713</ele>
        <time>2010-01-01T23:40:10Z</time>
      </trkpt>
      <trkpt lat="42.27007" lon="2.65331">
        <ele>709</ele>
        <time>2010-01-01T23:40:26Z</time>
      </trkpt>
      <trkpt lat="42.26999" lon="2.65322">
        <ele>707</ele>
        <time>2010-01-01T23:40:36Z</time>
      </trkpt>
      <trkpt lat="42.26998" lon="2.65321">
        <ele>707</ele>
        <time>2010-01-01T23:40:37Z</time>
      </trkpt>
      <trkpt lat="42.26992" lon="2.6531">
        <ele>705</ele>
        <time>2010-01-01T23:40:47Z</time>
      </trkpt>
      <trkpt lat="42.26989" lon="2.65295">
        <ele>707</ele>
        <time>2010-01-01T23:40:59Z</time>
      </trkpt>
      <trkpt lat="42.26989" lon="2.65292">
        <ele>707</ele>
        <time>2010-01-01T23:41:01Z</time>
      </trkpt>
      <trkpt lat="42.26991" lon="2.6528">
        <ele>711</ele>
        <time>2010-01-01T23:41:11Z</time>
      </trkpt>
      <trkpt lat="42.2699" lon="2.65274">
        <ele>711</ele>
        <time>2010-01-01T23:41:15Z</time>
      </trkpt>
      <trkpt lat="42.26991" lon="2.65271">
        <ele>712</ele>
        <time>2010-01-01T23:41:17Z</time>
      </trkpt>
      <trkpt lat="42.2699" lon="2.65268">
        <ele>712</ele>
        <time>2010-01-01T23:41:20Z</time>
      </trkpt>
      <trkpt lat="42.26992" lon="2.65258">
        <ele>714</ele>
        <time>2010-01-01T23:41:27Z</time>
      </trkpt>
      <trkpt lat="42.26993" lon="2.65255">
        <ele>714</ele>
        <time>2010-01-01T23:41:30Z</time>
      </trkpt>
      <trkpt lat="42.26993" lon="2.65248">
        <ele>715</ele>
        <time>2010-01-01T23:41:35Z</time>
      </trkpt>
      <trkpt lat="42.26994" lon="2.65239">
        <ele>716</ele>
        <time>2010-01-01T23:41:41Z</time>
      </trkpt>
      <trkpt lat="42.26994" lon="2.65234">
        <ele>716</ele>
        <time>2010-01-01T23:41:45Z</time>
      </trkpt>
      <trkpt lat="42.26994" lon="2.6519">
        <ele>718</ele>
        <time>2010-01-01T23:42:18Z</time>
      </trkpt>
      <trkpt lat="42.26995" lon="2.65181">
        <ele>718</ele>
        <time>2010-01-01T23:42:25Z</time>
      </trkpt>
      <trkpt lat="42.26997" lon="2.65168">
        <ele>719</ele>
        <time>2010-01-01T23:42:34Z</time>
      </trkpt>
      <trkpt lat="42.26997" lon="2.65165">
        <ele>719</ele>
        <time>2010-01-01T23:42:37Z</time>
      </trkpt>
      <trkpt lat="42.26998" lon="2.65163">
        <ele>719</ele>
        <time>2010-01-01T23:42:38Z</time>
      </trkpt>
      <trkpt lat="42.26998" lon="2.65161">
        <ele>719</ele>
        <time>2010-01-01T23:42:40Z</time>
      </trkpt>
      <trkpt lat="42.27002" lon="2.65126">
        <ele>719</ele>
        <time>2010-01-01T23:43:06Z</time>
      </trkpt>
      <trkpt lat="42.26998" lon="2.651">
        <ele>717</ele>
        <time>2010-01-01T23:43:26Z</time>
      </trkpt>
      <trkpt lat="42.26999" lon="2.65097">
        <ele>716</ele>
        <time>2010-01-01T23:43:28Z</time>
      </trkpt>
      <trkpt lat="42.27008" lon="2.65085">
        <ele>718</ele>
        <time>2010-01-01T23:43:41Z</time>
      </trkpt>
      <trkpt lat="42.27012" lon="2.65081">
        <ele>719</ele>
        <time>2010-01-01T23:43:46Z</time>
      </trkpt>
      <trkpt lat="42.27017" lon="2.65076">
        <ele>720</ele>
        <time>2010-01-01T23:43:52Z</time>
      </trkpt>
      <trkpt lat="42.27022" lon="2.65072">
        <ele>721</ele>
        <time>2010-01-01T23:43:58Z</time>
      </trkpt>
      <trkpt lat="42.27028" lon="2.65066">
        <ele>722</ele>
        <time>2010-01-01T23:44:05Z</time>
      </trkpt>
      <trkpt lat="42.27035" lon="2.6506">
        <ele>724</ele>
        <time>2010-01-01T23:44:13Z</time>
      </trkpt>
      <trkpt lat="42.27043" lon="2.65053">
        <ele>726</ele>
        <time>2010-01-01T23:44:23Z</time>
      </trkpt>
      <trkpt lat="42.27048" lon="2.65042">
        <ele>728</ele>
        <time>2010-01-01T23:44:33Z</time>
      </trkpt>
      <trkpt lat="42.2705" lon="2.65038">
        <ele>728</ele>
        <time>2010-01-01T23:44:36Z</time>
      </trkpt>
      <trkpt lat="42.27055" lon="2.65029">
        <ele>729</ele>
        <time>2010-01-01T23:44:45Z</time>
      </trkpt>
      <trkpt lat="42.27057" lon="2.65026">
        <ele>730</ele>
        <time>2010-01-01T23:44:47Z</time>
      </trkpt>
      <trkpt lat="42.27061" lon="2.65017">
        <ele>732</ele>
        <time>2010-01-01T23:44:55Z</time>
      </trkpt>
      <trkpt lat="42.27066" lon="2.6501">
        <ele>733</ele>
        <time>2010-01-01T23:45:02Z</time>
      </trkpt>
      <trkpt lat="42.27071" lon="2.65001">
        <ele>734</ele>
        <time>2010-01-01T23:45:11Z</time>
      </trkpt>
      <trkpt lat="42.27076" lon="2.64988">
        <ele>735</ele>
        <time>2010-01-01T23:45:21Z</time>
      </trkpt>
      <trkpt lat="42.27079" lon="2.64982">
        <ele>736</ele>
        <time>2010-01-01T23:45:27Z</time>
      </trkpt>
      <trkpt lat="42.27082" lon="2.64977">
        <ele>736</ele>
        <time>2010-01-01T23:45:32Z</time>
      </trkpt>
      <trkpt lat="42.27087" lon="2.64967">
        <ele>738</ele>
        <time>2010-01-01T23:45:40Z</time>
      </trkpt>
      <trkpt lat="42.27093" lon="2.64961">
        <ele>740</ele>
        <time>2010-01-01T23:45:48Z</time>
      </trkpt>
      <trkpt lat="42.27098" lon="2.64954">
        <ele>742</ele>
        <time>2010-01-01T23:45:56Z</time>
      </trkpt>
      <trkpt lat="42.27101" lon="2.64948">
        <ele>743</ele>
        <time>2010-01-01T23:46:01Z</time>
      </trkpt>
      <trkpt lat="42.27104" lon="2.64943">
        <ele>744</ele>
        <time>2010-01-01T23:46:06Z</time>
      </trkpt>
      <trkpt lat="42.27107" lon="2.64935">
        <ele>745</ele>
        <time>2010-01-01T23:46:12Z</time>
      </trkpt>
      <trkpt lat="42.27111" lon="2.64925">
        <ele>746</ele>
        <time>2010-01-01T23:46:20Z</time>
      </trkpt>
      <trkpt lat="42.27114" lon="2.64918">
        <ele>748</ele>
        <time>2010-01-01T23:46:27Z</time>
      </trkpt>
      <trkpt lat="42.27119" lon="2.64908">
        <ele>749</ele>
        <time>2010-01-01T23:46:35Z</time>
      </trkpt>
      <trkpt lat="42.27122" lon="2.64901">
        <ele>751</ele>
        <time>2010-01-01T23:46:41Z</time>
      </trkpt>
      <trkpt lat="42.27124" lon="2.64893">
        <ele>752</ele>
        <time>2010-01-01T23:46:47Z</time>
      </trkpt>
      <trkpt lat="42.27125" lon="2.64884">
        <ele>752</ele>
        <time>2010-01-01T23:46:54Z</time>
      </trkpt>
      <trkpt lat="42.27127" lon="2.64878">
        <ele>751</ele>
        <time>2010-01-01T23:46:59Z</time>
      </trkpt>
      <trkpt lat="42.27129" lon="2.64872">
        <ele>752</ele>
        <time>2010-01-01T23:47:04Z</time>
      </trkpt>
      <trkpt lat="42.27131" lon="2.64864">
        <ele>752</ele>
        <time>2010-01-01T23:47:11Z</time>
      </trkpt>
      <trkpt lat="42.27132" lon="2.64856">
        <ele>751</ele>
        <time>2010-01-01T23:47:17Z</time>
      </trkpt>
      <trkpt lat="42.27134" lon="2.64843">
        <ele>752</ele>
        <time>2010-01-01T23:47:26Z</time>
      </trkpt>
      <trkpt lat="42.27135" lon="2.64831">
        <ele>752</ele>
        <time>2010-01-01T23:47:35Z</time>
      </trkpt>
      <trkpt lat="42.27135" lon="2.64817">
        <ele>753</ele>
        <time>2010-01-01T23:47:45Z</time>
      </trkpt>
      <trkpt lat="42.27137" lon="2.64809">
        <ele>754</ele>
        <time>2010-01-01T23:47:52Z</time>
      </trkpt>
      <trkpt lat="42.27139" lon="2.648">
        <ele>755</ele>
        <time>2010-01-01T23:47:59Z</time>
      </trkpt>
      <trkpt lat="42.27141" lon="2.64792">
        <ele>757</ele>
        <time>2010-01-01T23:48:05Z</time>
      </trkpt>
      <trkpt lat="42.27144" lon="2.64785">
        <ele>760</ele>
        <time>2010-01-01T23:48:11Z</time>
      </trkpt>
      <trkpt lat="42.27145" lon="2.64777">
        <ele>762</ele>
        <time>2010-01-01T23:48:17Z</time>
      </trkpt>
      <trkpt lat="42.27147" lon="2.64767">
        <ele>764</ele>
        <time>2010-01-01T23:48:25Z</time>
      </trkpt>
      <trkpt lat="42.27148" lon="2.64759">
        <ele>765</ele>
        <time>2010-01-01T23:48:31Z</time>
      </trkpt>
      <trkpt lat="42.27149" lon="2.64751">
        <ele>766</ele>
        <time>2010-01-01T23:48:37Z</time>
      </trkpt>
      <trkpt lat="42.27148" lon="2.64745">
        <ele>767</ele>
        <time>2010-01-01T23:48:41Z</time>
      </trkpt>
      <trkpt lat="42.2715" lon="2.64736">
        <ele>769</ele>
        <time>2010-01-01T23:48:48Z</time>
      </trkpt>
      <trkpt lat="42.27151" lon="2.6473">
        <ele>770</ele>
        <time>2010-01-01T23:48:53Z</time>
      </trkpt>
      <trkpt lat="42.27152" lon="2.64726">
        <ele>771</ele>
        <time>2010-01-01T23:48:56Z</time>
      </trkpt>
      <trkpt lat="42.27152" lon="2.64721">
        <ele>771</ele>
        <time>2010-01-01T23:49:00Z</time>
      </trkpt>
      <trkpt lat="42.27153" lon="2.64714">
        <ele>772</ele>
        <time>2010-01-01T23:49:05Z</time>
      </trkpt>
      <trkpt lat="42.27152" lon="2.64707">
        <ele>772</ele>
        <time>2010-01-01T23:49:10Z</time>
      </trkpt>
      <trkpt lat="42.27153" lon="2.64701">
        <ele>773</ele>
        <time>2010-01-01T23:49:15Z</time>
      </trkpt>
      <trkpt lat="42.27158" lon="2.64693">
        <ele>776</ele>
        <time>2010-01-01T23:49:22Z</time>
      </trkpt>
      <trkpt lat="42.27158" lon="2.64689">
        <ele>776</ele>
        <time>2010-01-01T23:49:25Z</time>
      </trkpt>
      <trkpt lat="42.27161" lon="2.64685">
        <ele>778</ele>
        <time>2010-01-01T23:49:29Z</time>
      </trkpt>
      <trkpt lat="42.27163" lon="2.64682">
        <ele>779</ele>
        <time>2010-01-01T23:49:32Z</time>
      </trkpt>
      <trkpt lat="42.27165" lon="2.64679">
        <ele>780</ele>
        <time>2010-01-01T23:49:35Z</time>
      </trkpt>
      <trkpt lat="42.27166" lon="2.64676">
        <ele>781</ele>
        <time>2010-01-01T23:49:37Z</time>
      </trkpt>
      <trkpt lat="42.27167" lon="2.64673">
        <ele>782</ele>
        <time>2010-01-01T23:49:40Z</time>
      </trkpt>
      <trkpt lat="42.27167" lon="2.6467">
        <ele>782</ele>
        <time>2010-01-01T23:49:42Z</time>
      </trkpt>
      <trkpt lat="42.27168" lon="2.64666">
        <ele>783</ele>
        <time>2010-01-01T23:49:45Z</time>
      </trkpt>
      <trkpt lat="42.27169" lon="2.64662">
        <ele>784</ele>
        <time>2010-01-01T23:49:48Z</time>
      </trkpt>
      <trkpt lat="42.2717" lon="2.64661">
        <ele>784</ele>
        <time>2010-01-01T23:49:50Z</time>
      </trkpt>
      <trkpt lat="42.27171" lon="2.64657">
        <ele>785</ele>
        <time>2010-01-01T23:49:52Z</time>
      </trkpt>
      <trkpt lat="42.27172" lon="2.64654">
        <ele>785</ele>
        <time>2010-01-01T23:49:55Z</time>
      </trkpt>
      <trkpt lat="42.27176" lon="2.64645">
        <ele>789</ele>
        <time>2010-01-01T23:50:03Z</time>
      </trkpt>
      <trkpt lat="42.27178" lon="2.64633">
        <ele>791</ele>
        <time>2010-01-01T23:50:12Z</time>
      </trkpt>
      <trkpt lat="42.27178" lon="2.64629">
        <ele>792</ele>
        <time>2010-01-01T23:50:15Z</time>
      </trkpt>
      <trkpt lat="42.27178" lon="2.64616">
        <ele>794</ele>
        <time>2010-01-01T23:50:24Z</time>
      </trkpt>
      <trkpt lat="42.27178" lon="2.64611">
        <ele>795</ele>
        <time>2010-01-01T23:50:28Z</time>
      </trkpt>
      <trkpt lat="42.27178" lon="2.64605">
        <ele>796</ele>
        <time>2010-01-01T23:50:33Z</time>
      </trkpt>
      <trkpt lat="42.27178" lon="2.64601">
        <ele>797</ele>
        <time>2010-01-01T23:50:36Z</time>
      </trkpt>
      <trkpt lat="42.27179" lon="2.64597">
        <ele>798</ele>
        <time>2010-01-01T23:50:39Z</time>
      </trkpt>
      <trkpt lat="42.27179" lon="2.64593">
        <ele>799</ele>
        <time>2010-01-01T23:50:42Z</time>
      </trkpt>
      <trkpt lat="42.2718" lon="2.64591">
        <ele>800</ele>
        <time>2010-01-01T23:50:44Z</time>
      </trkpt>
      <trkpt lat="42.2718" lon="2.64585">
        <ele>801</ele>
        <time>2010-01-01T23:50:48Z</time>
      </trkpt>
      <trkpt lat="42.2718" lon="2.64581">
        <ele>802</ele>
        <time>2010-01-01T23:50:51Z</time>
      </trkpt>
      <trkpt lat="42.27179" lon="2.64577">
        <ele>802</ele>
        <time>2010-01-01T23:50:54Z</time>
      </trkpt>
      <trkpt lat="42.27179" lon="2.64573">
        <ele>803</ele>
        <time>2010-01-01T23:50:57Z</time>
      </trkpt>
      <trkpt lat="42.27179" lon="2.64565">
        <ele>804</ele>
        <time>2010-01-01T23:51:03Z</time>
      </trkpt>
      <trkpt lat="42.27182" lon="2.64559">
        <ele>806</ele>
        <time>2010-01-01T23:51:08Z</time>
      </trkpt>
      <trkpt lat="42.27183" lon="2.64553">
        <ele>808</ele>
        <time>2010-01-01T23:51:13Z</time>
      </trkpt>
      <trkpt lat="42.27183" lon="2.64548">
        <ele>809</ele>
        <time>2010-01-01T23:51:16Z</time>
      </trkpt>
      <trkpt lat="42.27184" lon="2.64545">
        <ele>809</ele>
        <time>2010-01-01T23:51:18Z</time>
      </trkpt>
      <trkpt lat="42.27186" lon="2.64541">
        <ele>811</ele>
        <time>2010-01-01T23:51:22Z</time>
      </trkpt>
      <trkpt lat="42.27188" lon="2.64536">
        <ele>813</ele>
        <time>2010-01-01T23:51:27Z</time>
      </trkpt>
      <trkpt lat="42.2719" lon="2.64528">
        <ele>814</ele>
        <time>2010-01-01T23:51:32Z</time>
      </trkpt>
      <trkpt lat="42.2719" lon="2.64524">
        <ele>815</ele>
        <time>2010-01-01T23:51:35Z</time>
      </trkpt>
      <trkpt lat="42.27192" lon="2.64518">
        <ele>817</ele>
        <time>2010-01-01T23:51:40Z</time>
      </trkpt>
      <trkpt lat="42.27194" lon="2.64514">
        <ele>818</ele>
        <time>2010-01-01T23:51:44Z</time>
      </trkpt>
      <trkpt lat="42.27196" lon="2.64509">
        <ele>820</ele>
        <time>2010-01-01T23:51:49Z</time>
      </trkpt>
      <trkpt lat="42.27197" lon="2.64505">
        <ele>821</ele>
        <time>2010-01-01T23:51:51Z</time>
      </trkpt>
      <trkpt lat="42.27197" lon="2.645">
        <ele>822</ele>
        <time>2010-01-01T23:51:55Z</time>
      </trkpt>
      <trkpt lat="42.27198" lon="2.64496">
        <ele>822</ele>
        <time>2010-01-01T23:51:58Z</time>
      </trkpt>
      <trkpt lat="42.27198" lon="2.64492">
        <ele>823</ele>
        <time>2010-01-01T23:52:01Z</time>
      </trkpt>
      <trkpt lat="42.27199" lon="2.64488">
        <ele>824</ele>
        <time>2010-01-01T23:52:04Z</time>
      </trkpt>
      <trkpt lat="42.27199" lon="2.64483">
        <ele>824</ele>
        <time>2010-01-01T23:52:08Z</time>
      </trkpt>
      <trkpt lat="42.27201" lon="2.64478">
        <ele>826</ele>
        <time>2010-01-01T23:52:11Z</time>
      </trkpt>
      <trkpt lat="42.27201" lon="2.64474">
        <ele>827</ele>
        <time>2010-01-01T23:52:15Z</time>
      </trkpt>
      <trkpt lat="42.27203" lon="2.64467">
        <ele>828</ele>
        <time>2010-01-01T23:52:20Z</time>
      </trkpt>
      <trkpt lat="42.27202" lon="2.64459">
        <ele>829</ele>
        <time>2010-01-01T23:52:26Z</time>
      </trkpt>
      <trkpt lat="42.27202" lon="2.64452">
        <ele>829</ele>
        <time>2010-01-01T23:52:31Z</time>
      </trkpt>
      <trkpt lat="42.27203" lon="2.64446">
        <ele>830</ele>
        <time>2010-01-01T23:52:36Z</time>
      </trkpt>
      <trkpt lat="42.27202" lon="2.64441">
        <ele>830</ele>
        <time>2010-01-01T23:52:40Z</time>
      </trkpt>
      <trkpt lat="42.27202" lon="2.64436">
        <ele>831</ele>
        <time>2010-01-01T23:52:43Z</time>
      </trkpt>
      <trkpt lat="42.27204" lon="2.6443">
        <ele>832</ele>
        <time>2010-01-01T23:52:48Z</time>
      </trkpt>
      <trkpt lat="42.27201" lon="2.64425">
        <ele>831</ele>
        <time>2010-01-01T23:52:53Z</time>
      </trkpt>
      <trkpt lat="42.272" lon="2.64419">
        <ele>832</ele>
        <time>2010-01-01T23:52:58Z</time>
      </trkpt>
      <trkpt lat="42.27201" lon="2.64412">
        <ele>832</ele>
        <time>2010-01-01T23:53:03Z</time>
      </trkpt>
      <trkpt lat="42.27203" lon="2.64405">
        <ele>834</ele>
        <time>2010-01-01T23:53:08Z</time>
      </trkpt>
      <trkpt lat="42.27207" lon="2.64395">
        <ele>837</ele>
        <time>2010-01-01T23:53:17Z</time>
      </trkpt>
      <trkpt lat="42.2721" lon="2.64389">
        <ele>839</ele>
        <time>2010-01-01T23:53:23Z</time>
      </trkpt>
      <trkpt lat="42.27214" lon="2.64383">
        <ele>841</ele>
        <time>2010-01-01T23:53:28Z</time>
      </trkpt>
      <trkpt lat="42.27215" lon="2.64378">
        <ele>842</ele>
        <time>2010-01-01T23:53:32Z</time>
      </trkpt>
      <trkpt lat="42.27217" lon="2.6437">
        <ele>844</ele>
        <time>2010-01-01T23:53:38Z</time>
      </trkpt>
      <trkpt lat="42.27219" lon="2.64364">
        <ele>845</ele>
        <time>2010-01-01T23:53:43Z</time>
      </trkpt>
      <trkpt lat="42.27221" lon="2.64357">
        <ele>847</ele>
        <time>2010-01-01T23:53:49Z</time>
      </trkpt>
      <trkpt lat="42.27223" lon="2.64351">
        <ele>848</ele>
        <time>2010-01-01T23:53:54Z</time>
      </trkpt>
      <trkpt lat="42.27224" lon="2.64345">
        <ele>849</ele>
        <time>2010-01-01T23:53:58Z</time>
      </trkpt>
      <trkpt lat="42.27225" lon="2.64339">
        <ele>850</ele>
        <time>2010-01-01T23:54:03Z</time>
      </trkpt>
      <trkpt lat="42.27227" lon="2.64332">
        <ele>851</ele>
        <time>2010-01-01T23:54:08Z</time>
      </trkpt>
      <trkpt lat="42.27229" lon="2.64328">
        <ele>852</ele>
        <time>2010-01-01T23:54:12Z</time>
      </trkpt>
      <trkpt lat="42.27229" lon="2.64323">
        <ele>853</ele>
        <time>2010-01-01T23:54:15Z</time>
      </trkpt>
      <trkpt lat="42.2723" lon="2.64318">
        <ele>854</ele>
        <time>2010-01-01T23:54:19Z</time>
      </trkpt>
      <trkpt lat="42.2723" lon="2.64312">
        <ele>855</ele>
        <time>2010-01-01T23:54:23Z</time>
      </trkpt>
      <trkpt lat="42.27231" lon="2.64308">
        <ele>856</ele>
        <time>2010-01-01T23:54:27Z</time>
      </trkpt>
      <trkpt lat="42.27233" lon="2.64299">
        <ele>858</ele>
        <time>2010-01-01T23:54:33Z</time>
      </trkpt>
      <trkpt lat="42.27234" lon="2.64294">
        <ele>859</ele>
        <time>2010-01-01T23:54:37Z</time>
      </trkpt>
      <trkpt lat="42.27234" lon="2.64288">
        <ele>860</ele>
        <time>2010-01-01T23:54:42Z</time>
      </trkpt>
      <trkpt lat="42.27234" lon="2.64284">
        <ele>860</ele>
        <time>2010-01-01T23:54:44Z</time>
      </trkpt>
      <trkpt lat="42.27234" lon="2.64279">
        <ele>861</ele>
        <time>2010-01-01T23:54:49Z</time>
      </trkpt>
      <trkpt lat="42.27237" lon="2.64271">
        <ele>863</ele>
        <time>2010-01-01T23:54:55Z</time>
      </trkpt>
      <trkpt lat="42.27238" lon="2.64265">
        <ele>865</ele>
        <time>2010-01-01T23:55:01Z</time>
      </trkpt>
      <trkpt lat="42.27239" lon="2.6426">
        <ele>865</ele>
        <time>2010-01-01T23:55:04Z</time>
      </trkpt>
      <trkpt lat="42.27238" lon="2.64254">
        <ele>866</ele>
        <time>2010-01-01T23:55:08Z</time>
      </trkpt>
      <trkpt lat="42.2724" lon="2.64247">
        <ele>867</ele>
        <time>2010-01-01T23:55:14Z</time>
      </trkpt>
      <trkpt lat="42.27242" lon="2.64244">
        <ele>868</ele>
        <time>2010-01-01T23:55:17Z</time>
      </trkpt>
      <trkpt lat="42.27244" lon="2.64243">
        <ele>869</ele>
        <time>2010-01-01T23:55:19Z</time>
      </trkpt>
      <trkpt lat="42.27244" lon="2.64241">
        <ele>869</ele>
        <time>2010-01-01T23:55:20Z</time>
      </trkpt>
      <trkpt lat="42.27246" lon="2.64237">
        <ele>870</ele>
        <time>2010-01-01T23:55:24Z</time>
      </trkpt>
      <trkpt lat="42.27248" lon="2.64231">
        <ele>871</ele>
        <time>2010-01-01T23:55:29Z</time>
      </trkpt>
      <trkpt lat="42.27248" lon="2.6423">
        <ele>871</ele>
        <time>2010-01-01T23:55:30Z</time>
      </trkpt>
      <trkpt lat="42.27251" lon="2.64223">
        <ele>873</ele>
        <time>2010-01-01T23:55:35Z</time>
      </trkpt>
      <trkpt lat="42.27253" lon="2.64217">
        <ele>874</ele>
        <time>2010-01-01T23:55:40Z</time>
      </trkpt>
      <trkpt lat="42.27254" lon="2.64211">
        <ele>875</ele>
        <time>2010-01-01T23:55:45Z</time>
      </trkpt>
      <trkpt lat="42.27254" lon="2.64206">
        <ele>875</ele>
        <time>2010-01-01T23:55:48Z</time>
      </trkpt>
      <trkpt lat="42.27255" lon="2.642">
        <ele>876</ele>
        <time>2010-01-01T23:55:53Z</time>
      </trkpt>
      <trkpt lat="42.27256" lon="2.64193">
        <ele>877</ele>
        <time>2010-01-01T23:55:58Z</time>
      </trkpt>
      <trkpt lat="42.27257" lon="2.64186">
        <ele>878</ele>
        <time>2010-01-01T23:56:04Z</time>
      </trkpt>
      <trkpt lat="42.27257" lon="2.6418">
        <ele>879</ele>
        <time>2010-01-01T23:56:08Z</time>
      </trkpt>
      <trkpt lat="42.27257" lon="2.64175">
        <ele>880</ele>
        <time>2010-01-01T23:56:11Z</time>
      </trkpt>
      <trkpt lat="42.27258" lon="2.64172">
        <ele>881</ele>
        <time>2010-01-01T23:56:14Z</time>
      </trkpt>
      <trkpt lat="42.2726" lon="2.64168">
        <ele>882</ele>
        <time>2010-01-01T23:56:18Z</time>
      </trkpt>
      <trkpt lat="42.27262" lon="2.64162">
        <ele>884</ele>
        <time>2010-01-01T23:56:23Z</time>
      </trkpt>
      <trkpt lat="42.27265" lon="2.64153">
        <ele>887</ele>
        <time>2010-01-01T23:56:30Z</time>
      </trkpt>
      <trkpt lat="42.27265" lon="2.64145">
        <ele>888</ele>
        <time>2010-01-01T23:56:36Z</time>
      </trkpt>
      <trkpt lat="42.27265" lon="2.64141">
        <ele>889</ele>
        <time>2010-01-01T23:56:39Z</time>
      </trkpt>
      <trkpt lat="42.27265" lon="2.64135">
        <ele>890</ele>
        <time>2010-01-01T23:56:43Z</time>
      </trkpt>
      <trkpt lat="42.27265" lon="2.64126">
        <ele>891</ele>
        <time>2010-01-01T23:56:50Z</time>
      </trkpt>
      <trkpt lat="42.27265" lon="2.64116">
        <ele>893</ele>
        <time>2010-01-01T23:56:57Z</time>
      </trkpt>
      <trkpt lat="42.27266" lon="2.64109">
        <ele>895</ele>
        <time>2010-01-01T23:57:02Z</time>
      </trkpt>
      <trkpt lat="42.27264" lon="2.64101">
        <ele>897</ele>
        <time>2010-01-01T23:57:09Z</time>
      </trkpt>
      <trkpt lat="42.27264" lon="2.64094">
        <ele>898</ele>
        <time>2010-01-01T23:57:13Z</time>
      </trkpt>
      <trkpt lat="42.27263" lon="2.6409">
        <ele>899</ele>
        <time>2010-01-01T23:57:17Z</time>
      </trkpt>
      <trkpt lat="42.27262" lon="2.64086">
        <ele>900</ele>
        <time>2010-01-01T23:57:20Z</time>
      </trkpt>
      <trkpt lat="42.27261" lon="2.64083">
        <ele>901</ele>
        <time>2010-01-01T23:57:23Z</time>
      </trkpt>
      <trkpt lat="42.2726" lon="2.64078">
        <ele>902</ele>
        <time>2010-01-01T23:57:26Z</time>
      </trkpt>
      <trkpt lat="42.2726" lon="2.64074">
        <ele>903</ele>
        <time>2010-01-01T23:57:30Z</time>
      </trkpt>
      <trkpt lat="42.27259" lon="2.64069">
        <ele>904</ele>
        <time>2010-01-01T23:57:33Z</time>
      </trkpt>
      <trkpt lat="42.2726" lon="2.64066">
        <ele>905</ele>
        <time>2010-01-01T23:57:36Z</time>
      </trkpt>
      <trkpt lat="42.27259" lon="2.64062">
        <ele>906</ele>
        <time>2010-01-01T23:57:39Z</time>
      </trkpt>
      <trkpt lat="42.2726" lon="2.64057">
        <ele>907</ele>
        <time>2010-01-01T23:57:42Z</time>
      </trkpt>
      <trkpt lat="42.27261" lon="2.6405">
        <ele>908</ele>
        <time>2010-01-01T23:57:48Z</time>
      </trkpt>
      <trkpt lat="42.27265" lon="2.64044">
        <ele>910</ele>
        <time>2010-01-01T23:57:54Z</time>
      </trkpt>
      <trkpt lat="42.27266" lon="2.64041">
        <ele>910</ele>
        <time>2010-01-01T23:57:56Z</time>
      </trkpt>
      <trkpt lat="42.27268" lon="2.64036">
        <ele>911</ele>
        <time>2010-01-01T23:58:00Z</time>
      </trkpt>
      <trkpt lat="42.27269" lon="2.64032">
        <ele>912</ele>
        <time>2010-01-01T23:58:03Z</time>
      </trkpt>
      <trkpt lat="42.27269" lon="2.6403">
        <ele>913</ele>
        <time>2010-01-01T23:58:05Z</time>
      </trkpt>
      <trkpt lat="42.27271" lon="2.64026">
        <ele>913</ele>
        <time>2010-01-01T23:58:09Z</time>
      </trkpt>
      <trkpt lat="42.27273" lon="2.6402">
        <ele>915</ele>
        <time>2010-01-01T23:58:13Z</time>
      </trkpt>
      <trkpt lat="42.27275" lon="2.64016">
        <ele>916</ele>
        <time>2010-01-01T23:58:17Z</time>
      </trkpt>
      <trkpt lat="42.27278" lon="2.64013">
        <ele>917</ele>
        <time>2010-01-01T23:58:21Z</time>
      </trkpt>
      <trkpt lat="42.27278" lon="2.64008">
        <ele>918</ele>
        <time>2010-01-01T23:58:24Z</time>
      </trkpt>
      <trkpt lat="42.27276" lon="2.64">
        <ele>919</ele>
        <time>2010-01-01T23:58:30Z</time>
      </trkpt>
      <trkpt lat="42.27279" lon="2.63993">
        <ele>922</ele>
        <time>2010-01-01T23:58:36Z</time>
      </trkpt>
      <trkpt lat="42.27281" lon="2.63987">
        <ele>923</ele>
        <time>2010-01-01T23:58:41Z</time>
      </trkpt>
      <trkpt lat="42.27281" lon="2.63982">
        <ele>925</ele>
        <time>2010-01-01T23:58:45Z</time>
      </trkpt>
      <trkpt lat="42.2728" lon="2.63976">
        <ele>926</ele>
        <time>2010-01-01T23:58:49Z</time>
      </trkpt>
      <trkpt lat="42.27281" lon="2.63972">
        <ele>927</ele>
        <time>2010-01-01T23:58:52Z</time>
      </trkpt>
      <trkpt lat="42.27279" lon="2.63968">
        <ele>928</ele>
        <time>2010-01-01T23:58:55Z</time>
      </trkpt>
      <trkpt lat="42.27277" lon="2.63962">
        <ele>930</ele>
        <time>2010-01-01T23:59:00Z</time>
      </trkpt>
      <trkpt lat="42.27271" lon="2.63954">
        <ele>931</ele>
        <time>2010-01-01T23:59:08Z</time>
      </trkpt>
      <trkpt lat="42.2727" lon="2.63947">
        <ele>933</ele>
        <time>2010-01-01T23:59:14Z</time>
      </trkpt>
      <trkpt lat="42.27271" lon="2.63943">
        <ele>935</ele>
        <time>2010-01-01T23:59:17Z</time>
      </trkpt>
      <trkpt lat="42.2727" lon="2.63939">
        <ele>935</ele>
        <time>2010-01-01T23:59:20Z</time>
      </trkpt>
      <trkpt lat="42.27269" lon="2.63933">
        <ele>936</ele>
        <time>2010-01-01T23:59:25Z</time>
      </trkpt>
      <trkpt lat="42.27268" lon="2.63932">
        <ele>937</ele>
        <time>2010-01-01T23:59:26Z</time>
      </trkpt>
      <trkpt lat="42.27268" lon="2.63931">
        <ele>937</ele>
        <time>2010-01-01T23:59:26Z</time>
      </trkpt>
      <trkpt lat="42.27268" lon="2.63931">
        <ele>937</ele>
        <time>2010-01-01T23:59:27Z</time>
      </trkpt>
      <trkpt lat="42.27269" lon="2.63929">
        <ele>937</ele>
        <time>2010-01-01T23:59:29Z</time>
      </trkpt>
      <trkpt lat="42.2727" lon="2.63925">
        <ele>938</ele>
        <time>2010-01-01T23:59:31Z</time>
      </trkpt>
      <trkpt lat="42.27272" lon="2.63919">
        <ele>940</ele>
        <time>2010-01-01T23:59:36Z</time>
      </trkpt>
      <trkpt lat="42.27274" lon="2.63915">
        <ele>941</ele>
        <time>2010-01-01T23:59:40Z</time>
      </trkpt>
      <trkpt lat="42.27272" lon="2.6391">
        <ele>941</ele>
        <time>2010-01-01T23:59:44Z</time>
      </trkpt>
      <trkpt lat="42.2727" lon="2.63905">
        <ele>942</ele>
        <time>2010-01-01T23:59:48Z</time>
      </trkpt>
      <trkpt lat="42.27268" lon="2.63901">
        <ele>942</ele>
        <time>2010-01-01T23:59:51Z</time>
      </trkpt>
      <trkpt lat="42.27259" lon="2.63892">
        <ele>943</ele>
        <time>2010-01-02T00:00:03Z</time>
      </trkpt>
      <trkpt lat="42.27255" lon="2.63885">
        <ele>944</ele>
        <time>2010-01-02T00:00:09Z</time>
      </trkpt>
      <trkpt lat="42.27252" lon="2.63882">
        <ele>944</ele>
        <time>2010-01-02T00:00:14Z</time>
      </trkpt>
      <trkpt lat="42.27246" lon="2.63872">
        <ele>945</ele>
        <time>2010-01-02T00:00:23Z</time>
      </trkpt>
      <trkpt lat="42.27244" lon="2.63846">
        <ele>947</ele>
        <time>2010-01-02T00:00:42Z</time>
      </trkpt>
      <trkpt lat="42.27245" lon="2.63844">
        <ele>947</ele>
        <time>2010-01-02T00:00:44Z</time>
      </trkpt>
      <trkpt lat="42.27246" lon="2.63842">
        <ele>947</ele>
        <time>2010-01-02T00:00:45Z</time>
      </trkpt>
      <trkpt lat="42.27244" lon="2.63819">
        <ele>947</ele>
        <time>2010-01-02T00:01:03Z</time>
      </trkpt>
      <trkpt lat="42.27252" lon="2.63802">
        <ele>946</ele>
        <time>2010-01-02T00:01:17Z</time>
      </trkpt>
      <trkpt lat="42.27255" lon="2.63791">
        <ele>945</ele>
        <time>2010-01-02T00:01:26Z</time>
      </trkpt>
      <trkpt lat="42.27255" lon="2.63786">
        <ele>945</ele>
        <time>2010-01-02T00:01:30Z</time>
      </trkpt>
      <trkpt lat="42.27256" lon="2.63782">
        <ele>944</ele>
        <time>2010-01-02T00:01:33Z</time>
      </trkpt>
      <trkpt lat="42.27258" lon="2.63775">
        <ele>944</ele>
        <time>2010-01-02T00:01:39Z</time>
      </trkpt>
      <trkpt lat="42.27259" lon="2.63772">
        <ele>943</ele>
        <time>2010-01-02T00:01:41Z</time>
      </trkpt>
      <trkpt lat="42.2726" lon="2.63769">
        <ele>943</ele>
        <time>2010-01-02T00:01:44Z</time>
      </trkpt>
      <trkpt lat="42.2726" lon="2.63767">
        <ele>942</ele>
        <time>2010-01-02T00:01:45Z</time>
      </trkpt>
      <trkpt lat="42.27259" lon="2.63761">
        <ele>941</ele>
        <time>2010-01-02T00:01:50Z</time>
      </trkpt>
      <trkpt lat="42.2726" lon="2.63755">
        <ele>940</ele>
        <time>2010-01-02T00:01:54Z</time>
      </trkpt>
      <trkpt lat="42.27258" lon="2.6375">
        <ele>938</ele>
        <time>2010-01-02T00:01:58Z</time>
      </trkpt>
      <trkpt lat="42.27259" lon="2.63745">
        <ele>937</ele>
        <time>2010-01-02T00:02:02Z</time>
      </trkpt>
      <trkpt lat="42.27259" lon="2.63741">
        <ele>937</ele>
        <time>2010-01-02T00:02:05Z</time>
      </trkpt>
      <trkpt lat="42.27263" lon="2.63731">
        <ele>935</ele>
        <time>2010-01-02T00:02:13Z</time>
      </trkpt>
      <trkpt lat="42.27269" lon="2.63722">
        <ele>934</ele>
        <time>2010-01-02T00:02:22Z</time>
      </trkpt>
      <trkpt lat="42.27271" lon="2.63716">
        <ele>933</ele>
        <time>2010-01-02T00:02:27Z</time>
      </trkpt>
      <trkpt lat="42.27271" lon="2.63713">
        <ele>932</ele>
        <time>2010-01-02T00:02:29Z</time>
      </trkpt>
      <trkpt lat="42.27272" lon="2.63706">
        <ele>930</ele>
        <time>2010-01-02T00:02:34Z</time>
      </trkpt>
      <trkpt lat="42.27274" lon="2.637">
        <ele>929</ele>
        <time>2010-01-02T00:02:39Z</time>
      </trkpt>
      <trkpt lat="42.27275" lon="2.63696">
        <ele>928</ele>
        <time>2010-01-02T00:02:43Z</time>
      </trkpt>
      <trkpt lat="42.27277" lon="2.6369">
        <ele>926</ele>
        <time>2010-01-02T00:02:47Z</time>
      </trkpt>
      <trkpt lat="42.27277" lon="2.63686">
        <ele>925</ele>
        <time>2010-01-02T00:02:50Z</time>
      </trkpt>
      <trkpt lat="42.2728" lon="2.63681">
        <ele>924</ele>
        <time>2010-01-02T00:02:55Z</time>
      </trkpt>
      <trkpt lat="42.27288" lon="2.63672">
        <ele>923</ele>
        <time>2010-01-02T00:03:05Z</time>
      </trkpt>
      <trkpt lat="42.27293" lon="2.63662">
        <ele>922</ele>
        <time>2010-01-02T00:03:14Z</time>
      </trkpt>
      <trkpt lat="42.27295" lon="2.63654">
        <ele>919</ele>
        <time>2010-01-02T00:03:21Z</time>
      </trkpt>
      <trkpt lat="42.27297" lon="2.63651">
        <ele>919</ele>
        <time>2010-01-02T00:03:23Z</time>
      </trkpt>
      <trkpt lat="42.27299" lon="2.63647">
        <ele>918</ele>
        <time>2010-01-02T00:03:27Z</time>
      </trkpt>
      <trkpt lat="42.27301" lon="2.63643">
        <ele>917</ele>
        <time>2010-01-02T00:03:30Z</time>
      </trkpt>
      <trkpt lat="42.27302" lon="2.63639">
        <ele>916</ele>
        <time>2010-01-02T00:03:33Z</time>
      </trkpt>
      <trkpt lat="42.27304" lon="2.63633">
        <ele>913</ele>
        <time>2010-01-02T00:03:39Z</time>
      </trkpt>
      <trkpt lat="42.27307" lon="2.63629">
        <ele>912</ele>
        <time>2010-01-02T00:03:43Z</time>
      </trkpt>
      <trkpt lat="42.2731" lon="2.63624">
        <ele>911</ele>
        <time>2010-01-02T00:03:47Z</time>
      </trkpt>
      <trkpt lat="42.27314" lon="2.6362">
        <ele>911</ele>
        <time>2010-01-02T00:03:52Z</time>
      </trkpt>
      <trkpt lat="42.27315" lon="2.63614">
        <ele>908</ele>
        <time>2010-01-02T00:03:58Z</time>
      </trkpt>
      <trkpt lat="42.27317" lon="2.63608">
        <ele>906</ele>
        <time>2010-01-02T00:04:02Z</time>
      </trkpt>
      <trkpt lat="42.27319" lon="2.63604">
        <ele>905</ele>
        <time>2010-01-02T00:04:06Z</time>
      </trkpt>
      <trkpt lat="42.27323" lon="2.636">
        <ele>904</ele>
        <time>2010-01-02T00:04:11Z</time>
      </trkpt>
      <trkpt lat="42.27327" lon="2.63592">
        <ele>901</ele>
        <time>2010-01-02T00:04:18Z</time>
      </trkpt>
      <trkpt lat="42.27329" lon="2.6359">
        <ele>901</ele>
        <time>2010-01-02T00:04:20Z</time>
      </trkpt>
      <trkpt lat="42.27331" lon="2.63583">
        <ele>898</ele>
        <time>2010-01-02T00:04:25Z</time>
      </trkpt>
      <trkpt lat="42.27337" lon="2.63576">
        <ele>897</ele>
        <time>2010-01-02T00:04:33Z</time>
      </trkpt>
      <trkpt lat="42.27341" lon="2.63567">
        <ele>894</ele>
        <time>2010-01-02T00:04:41Z</time>
      </trkpt>
      <trkpt lat="42.27341" lon="2.63565">
        <ele>894</ele>
        <time>2010-01-02T00:04:42Z</time>
      </trkpt>
      <trkpt lat="42.27343" lon="2.63561">
        <ele>892</ele>
        <time>2010-01-02T00:04:46Z</time>
      </trkpt>
      <trkpt lat="42.27347" lon="2.63555">
        <ele>891</ele>
        <time>2010-01-02T00:04:52Z</time>
      </trkpt>
      <trkpt lat="42.27352" lon="2.63549">
        <ele>890</ele>
        <time>2010-01-02T00:04:59Z</time>
      </trkpt>
      <trkpt lat="42.27355" lon="2.63545">
        <ele>889</ele>
        <time>2010-01-02T00:05:03Z</time>
      </trkpt>
      <trkpt lat="42.27356" lon="2.6354">
        <ele>888</ele>
        <time>2010-01-02T00:05:07Z</time>
      </trkpt>
      <trkpt lat="42.27357" lon="2.63536">
        <ele>886</ele>
        <time>2010-01-02T00:05:10Z</time>
      </trkpt>
      <trkpt lat="42.27361" lon="2.63532">
        <ele>885</ele>
        <time>2010-01-02T00:05:15Z</time>
      </trkpt>
      <trkpt lat="42.27366" lon="2.63528">
        <ele>886</ele>
        <time>2010-01-02T00:05:21Z</time>
      </trkpt>
      <trkpt lat="42.27385" lon="2.63514">
        <ele>885</ele>
        <time>2010-01-02T00:05:42Z</time>
      </trkpt>
      <trkpt lat="42.2741" lon="2.63495">
        <ele>887</ele>
        <time>2010-01-02T00:06:11Z</time>
      </trkpt>
      <trkpt lat="42.27415" lon="2.6349">
        <ele>886</ele>
        <time>2010-01-02T00:06:17Z</time>
      </trkpt>
      <trkpt lat="42.27428" lon="2.63478">
        <ele>885</ele>
        <time>2010-01-02T00:06:33Z</time>
      </trkpt>
      <trkpt lat="42.27437" lon="2.6347">
        <ele>887</ele>
        <time>2010-01-02T00:06:44Z</time>
      </trkpt>
      <trkpt lat="42.27452" lon="2.63463">
        <ele>890</ele>
        <time>2010-01-02T00:06:59Z</time>
      </trkpt>
      <trkpt lat="42.27457" lon="2.63463">
        <ele>891</ele>
        <time>2010-01-02T00:07:04Z</time>
      </trkpt>
      <trkpt lat="42.27466" lon="2.63458">
        <ele>893</ele>
        <time>2010-01-02T00:07:14Z</time>
      </trkpt>
      <trkpt lat="42.27477" lon="2.63453">
        <ele>896</ele>
        <time>2010-01-02T00:07:25Z</time>
      </trkpt>
      <trkpt lat="42.27484" lon="2.63442">
        <ele>898</ele>
        <time>2010-01-02T00:07:36Z</time>
      </trkpt>
      <trkpt lat="42.27486" lon="2.63434">
        <ele>899</ele>
        <time>2010-01-02T00:07:43Z</time>
      </trkpt>
      <trkpt lat="42.27485" lon="2.6343">
        <ele>898</ele>
        <time>2010-01-02T00:07:46Z</time>
      </trkpt>
      <trkpt lat="42.27484" lon="2.63425">
        <ele>898</ele>
        <time>2010-01-02T00:07:50Z</time>
      </trkpt>
      <trkpt lat="42.27482" lon="2.63421">
        <ele>897</ele>
        <time>2010-01-02T00:07:53Z</time>
      </trkpt>
      <trkpt lat="42.27477" lon="2.63415">
        <ele>895</ele>
        <time>2010-01-02T00:08:00Z</time>
      </trkpt>
      <trkpt lat="42.27473" lon="2.63412">
        <ele>894</ele>
        <time>2010-01-02T00:08:04Z</time>
      </trkpt>
      <trkpt lat="42.27471" lon="2.63409">
        <ele>893</ele>
        <time>2010-01-02T00:08:08Z</time>
      </trkpt>
      <trkpt lat="42.27464" lon="2.63402">
        <ele>890</ele>
        <time>2010-01-02T00:08:16Z</time>
      </trkpt>
      <trkpt lat="42.27459" lon="2.63395">
        <ele>888</ele>
        <time>2010-01-02T00:08:23Z</time>
      </trkpt>
      <trkpt lat="42.27457" lon="2.6339">
        <ele>888</ele>
        <time>2010-01-02T00:08:27Z</time>
      </trkpt>
      <trkpt lat="42.27454" lon="2.63387">
        <ele>886</ele>
        <time>2010-01-02T00:08:31Z</time>
      </trkpt>
      <trkpt lat="42.2745" lon="2.63385">
        <ele>884</ele>
        <time>2010-01-02T00:08:36Z</time>
      </trkpt>
      <trkpt lat="42.27447" lon="2.63383">
        <ele>882</ele>
        <time>2010-01-02T00:08:39Z</time>
      </trkpt>
      <trkpt lat="42.27443" lon="2.63378">
        <ele>881</ele>
        <time>2010-01-02T00:08:44Z</time>
      </trkpt>
      <trkpt lat="42.27438" lon="2.63377">
        <ele>876</ele>
        <time>2010-01-02T00:08:50Z</time>
      </trkpt>
      <trkpt lat="42.27434" lon="2.63373">
        <ele>873</ele>
        <time>2010-01-02T00:08:55Z</time>
      </trkpt>
      <trkpt lat="42.27431" lon="2.63369">
        <ele>872</ele>
        <time>2010-01-02T00:08:59Z</time>
      </trkpt>
      <trkpt lat="42.27426" lon="2.6336">
        <ele>869</ele>
        <time>2010-01-02T00:09:07Z</time>
      </trkpt>
      <trkpt lat="42.27422" lon="2.63356">
        <ele>867</ele>
        <time>2010-01-02T00:09:13Z</time>
      </trkpt>
      <trkpt lat="42.2742" lon="2.63349">
        <ele>866</ele>
        <time>2010-01-02T00:09:17Z</time>
      </trkpt>
      <trkpt lat="42.27419" lon="2.63342">
        <ele>865</ele>
        <time>2010-01-02T00:09:23Z</time>
      </trkpt>
      <trkpt lat="42.27418" lon="2.63334">
        <ele>865</ele>
        <time>2010-01-02T00:09:29Z</time>
      </trkpt>
      <trkpt lat="42.27415" lon="2.63327">
        <ele>864</ele>
        <time>2010-01-02T00:09:35Z</time>
      </trkpt>
      <trkpt lat="42.27411" lon="2.63313">
        <ele>862</ele>
        <time>2010-01-02T00:09:46Z</time>
      </trkpt>
      <trkpt lat="42.27409" lon="2.63306">
        <ele>861</ele>
        <time>2010-01-02T00:09:52Z</time>
      </trkpt>
      <trkpt lat="42.27408" lon="2.63299">
        <ele>861</ele>
        <time>2010-01-02T00:09:57Z</time>
      </trkpt>
      <trkpt lat="42.27407" lon="2.6329">
        <ele>861</ele>
        <time>2010-01-02T00:10:04Z</time>
      </trkpt>
      <trkpt lat="42.27405" lon="2.63284">
        <ele>859</ele>
        <time>2010-01-02T00:10:08Z</time>
      </trkpt>
      <trkpt lat="42.27403" lon="2.6328">
        <ele>857</ele>
        <time>2010-01-02T00:10:12Z</time>
      </trkpt>
      <trkpt lat="42.274" lon="2.63275">
        <ele>855</ele>
        <time>2010-01-02T00:10:17Z</time>
      </trkpt>
      <trkpt lat="42.274" lon="2.63268">
        <ele>855</ele>
        <time>2010-01-02T00:10:22Z</time>
      </trkpt>
      <trkpt lat="42.27398" lon="2.63259">
        <ele>852</ele>
        <time>2010-01-02T00:10:29Z</time>
      </trkpt>
      <trkpt lat="42.27397" lon="2.63245">
        <ele>849</ele>
        <time>2010-01-02T00:10:40Z</time>
      </trkpt>
      <trkpt lat="42.27399" lon="2.63222">
        <ele>847</ele>
        <time>2010-01-02T00:10:57Z</time>
      </trkpt>
      <trkpt lat="42.274" lon="2.63211">
        <ele>847</ele>
        <time>2010-01-02T00:11:05Z</time>
      </trkpt>
      <trkpt lat="42.27402" lon="2.63199">
        <ele>847</ele>
        <time>2010-01-02T00:11:14Z</time>
      </trkpt>
      <trkpt lat="42.27404" lon="2.63191">
        <ele>847</ele>
        <time>2010-01-02T00:11:20Z</time>
      </trkpt>
      <trkpt lat="42.27409" lon="2.63177">
        <ele>848</ele>
        <time>2010-01-02T00:11:32Z</time>
      </trkpt>
      <trkpt lat="42.27412" lon="2.63169">
        <ele>849</ele>
        <time>2010-01-02T00:11:39Z</time>
      </trkpt>
      <trkpt lat="42.27415" lon="2.6316">
        <ele>849</ele>
        <time>2010-01-02T00:11:46Z</time>
      </trkpt>
      <trkpt lat="42.27421" lon="2.63146">
        <ele>848</ele>
        <time>2010-01-02T00:11:58Z</time>
      </trkpt>
      <trkpt lat="42.27422" lon="2.63138">
        <ele>847</ele>
        <time>2010-01-02T00:12:04Z</time>
      </trkpt>
      <trkpt lat="42.27423" lon="2.63127">
        <ele>845</ele>
        <time>2010-01-02T00:12:12Z</time>
      </trkpt>
      <trkpt lat="42.27422" lon="2.63119">
        <ele>843</ele>
        <time>2010-01-02T00:12:18Z</time>
      </trkpt>
      <trkpt lat="42.27421" lon="2.63113">
        <ele>841</ele>
        <time>2010-01-02T00:12:23Z</time>
      </trkpt>
      <trkpt lat="42.2742" lon="2.63108">
        <ele>840</ele>
        <time>2010-01-02T00:12:27Z</time>
      </trkpt>
      <trkpt lat="42.27419" lon="2.63103">
        <ele>839</ele>
        <time>2010-01-02T00:12:30Z</time>
      </trkpt>
      <trkpt lat="42.27419" lon="2.63096">
        <ele>837</ele>
        <time>2010-01-02T00:12:35Z</time>
      </trkpt>
      <trkpt lat="42.27418" lon="2.63093">
        <ele>836</ele>
        <time>2010-01-02T00:12:38Z</time>
      </trkpt>
      <trkpt lat="42.27419" lon="2.63087">
        <ele>836</ele>
        <time>2010-01-02T00:12:43Z</time>
      </trkpt>
      <trkpt lat="42.27418" lon="2.6308">
        <ele>834</ele>
        <time>2010-01-02T00:12:48Z</time>
      </trkpt>
      <trkpt lat="42.27419" lon="2.63074">
        <ele>833</ele>
        <time>2010-01-02T00:12:52Z</time>
      </trkpt>
      <trkpt lat="42.2742" lon="2.63069">
        <ele>832</ele>
        <time>2010-01-02T00:12:56Z</time>
      </trkpt>
      <trkpt lat="42.27421" lon="2.63064">
        <ele>831</ele>
        <time>2010-01-02T00:13:00Z</time>
      </trkpt>
      <trkpt lat="42.27422" lon="2.63059">
        <ele>831</ele>
        <time>2010-01-02T00:13:04Z</time>
      </trkpt>
      <trkpt lat="42.27423" lon="2.63057">
        <ele>831</ele>
        <time>2010-01-02T00:13:06Z</time>
      </trkpt>
      <trkpt lat="42.27424" lon="2.63053">
        <ele>830</ele>
        <time>2010-01-02T00:13:09Z</time>
      </trkpt>
      <trkpt lat="42.27426" lon="2.63049">
        <ele>831</ele>
        <time>2010-01-02T00:13:12Z</time>
      </trkpt>
      <trkpt lat="42.27428" lon="2.63044">
        <ele>831</ele>
        <time>2010-01-02T00:13:17Z</time>
      </trkpt>
      <trkpt lat="42.27431" lon="2.63038">
        <ele>831</ele>
        <time>2010-01-02T00:13:22Z</time>
      </trkpt>
      <trkpt lat="42.27434" lon="2.6303">
        <ele>832</ele>
        <time>2010-01-02T00:13:28Z</time>
      </trkpt>
      <trkpt lat="42.27436" lon="2.63024">
        <ele>832</ele>
        <time>2010-01-02T00:13:33Z</time>
      </trkpt>
      <trkpt lat="42.27437" lon="2.63021">
        <ele>832</ele>
        <time>2010-01-02T00:13:36Z</time>
      </trkpt>
      <trkpt lat="42.27438" lon="2.6302">
        <ele>833</ele>
        <time>2010-01-02T00:13:37Z</time>
      </trkpt>
      <trkpt lat="42.2744" lon="2.63018">
        <ele>834</ele>
        <time>2010-01-02T00:13:40Z</time>
      </trkpt>
      <trkpt lat="42.27442" lon="2.63018">
        <ele>835</ele>
        <time>2010-01-02T00:13:41Z</time>
      </trkpt>
      <trkpt lat="42.27445" lon="2.63015">
        <ele>836</ele>
        <time>2010-01-02T00:13:45Z</time>
      </trkpt>
      <trkpt lat="42.27444" lon="2.63012">
        <ele>835</ele>
        <time>2010-01-02T00:13:47Z</time>
      </trkpt>
      <trkpt lat="42.27446" lon="2.63008">
        <ele>835</ele>
        <time>2010-01-02T00:13:50Z</time>
      </trkpt>
      <trkpt lat="42.27447" lon="2.62998">
        <ele>833</ele>
        <time>2010-01-02T00:13:58Z</time>
      </trkpt>
      <trkpt lat="42.27446" lon="2.62994">
        <ele>832</ele>
        <time>2010-01-02T00:14:00Z</time>
      </trkpt>
      <trkpt lat="42.27448" lon="2.62989">
        <ele>833</ele>
        <time>2010-01-02T00:14:05Z</time>
      </trkpt>
      <trkpt lat="42.2745" lon="2.62982">
        <ele>832</ele>
        <time>2010-01-02T00:14:11Z</time>
      </trkpt>
      <trkpt lat="42.27452" lon="2.62976">
        <ele>833</ele>
        <time>2010-01-02T00:14:15Z</time>
      </trkpt>
      <trkpt lat="42.27454" lon="2.62968">
        <ele>832</ele>
        <time>2010-01-02T00:14:22Z</time>
      </trkpt>
      <trkpt lat="42.27454" lon="2.62959">
        <ele>830</ele>
        <time>2010-01-02T00:14:28Z</time>
      </trkpt>
      <trkpt lat="42.27456" lon="2.62953">
        <ele>830</ele>
        <time>2010-01-02T00:14:33Z</time>
      </trkpt>
      <trkpt lat="42.27457" lon="2.62948">
        <ele>829</ele>
        <time>2010-01-02T00:14:37Z</time>
      </trkpt>
      <trkpt lat="42.27457" lon="2.62938">
        <ele>827</ele>
        <time>2010-01-02T00:14:44Z</time>
      </trkpt>
      <trkpt lat="42.27455" lon="2.6293">
        <ele>824</ele>
        <time>2010-01-02T00:14:51Z</time>
      </trkpt>
      <trkpt lat="42.27456" lon="2.62918">
        <ele>821</ele>
        <time>2010-01-02T00:14:59Z</time>
      </trkpt>
      <trkpt lat="42.27456" lon="2.62914">
        <ele>821</ele>
        <time>2010-01-02T00:15:02Z</time>
      </trkpt>
      <trkpt lat="42.27457" lon="2.62903">
        <ele>819</ele>
        <time>2010-01-02T00:15:10Z</time>
      </trkpt>
      <trkpt lat="42.27458" lon="2.629">
        <ele>819</ele>
        <time>2010-01-02T00:15:13Z</time>
      </trkpt>
      <trkpt lat="42.27459" lon="2.62893">
        <ele>819</ele>
        <time>2010-01-02T00:15:18Z</time>
      </trkpt>
      <trkpt lat="42.27459" lon="2.62885">
        <ele>817</ele>
        <time>2010-01-02T00:15:24Z</time>
      </trkpt>
      <trkpt lat="42.27459" lon="2.62883">
        <ele>816</ele>
        <time>2010-01-02T00:15:25Z</time>
      </trkpt>
      <trkpt lat="42.27462" lon="2.62845">
        <ele>809</ele>
        <time>2010-01-02T00:15:54Z</time>
      </trkpt>
      <trkpt lat="42.27461" lon="2.62842">
        <ele>808</ele>
        <time>2010-01-02T00:15:57Z</time>
      </trkpt>
      <trkpt lat="42.27458" lon="2.62834">
        <ele>805</ele>
        <time>2010-01-02T00:16:03Z</time>
      </trkpt>
      <trkpt lat="42.27456" lon="2.62826">
        <ele>803</ele>
        <time>2010-01-02T00:16:09Z</time>
      </trkpt>
      <trkpt lat="42.27464" lon="2.6279">
        <ele>802</ele>
        <time>2010-01-02T00:16:37Z</time>
      </trkpt>
      <trkpt lat="42.27464" lon="2.62784">
        <ele>802</ele>
        <time>2010-01-02T00:16:42Z</time>
      </trkpt>
      <trkpt lat="42.27467" lon="2.62762">
        <ele>800</ele>
        <time>2010-01-02T00:16:58Z</time>
      </trkpt>
      <trkpt lat="42.27474" lon="2.62717">
        <ele>798</ele>
        <time>2010-01-02T00:17:32Z</time>
      </trkpt>
      <trkpt lat="42.27479" lon="2.62691">
        <ele>801</ele>
        <time>2010-01-02T00:17:52Z</time>
      </trkpt>
      <trkpt lat="42.27478" lon="2.62679">
        <ele>799</ele>
        <time>2010-01-02T00:18:01Z</time>
      </trkpt>
      <trkpt lat="42.27477" lon="2.62671">
        <ele>798</ele>
        <time>2010-01-02T00:18:07Z</time>
      </trkpt>
      <trkpt lat="42.27475" lon="2.62655">
        <ele>796</ele>
        <time>2010-01-02T00:18:19Z</time>
      </trkpt>
      <trkpt lat="42.27476" lon="2.62647">
        <ele>796</ele>
        <time>2010-01-02T00:18:26Z</time>
      </trkpt>
      <trkpt lat="42.27478" lon="2.62641">
        <ele>796</ele>
        <time>2010-01-02T00:18:30Z</time>
      </trkpt>
      <trkpt lat="42.27478" lon="2.62631">
        <ele>795</ele>
        <time>2010-01-02T00:18:37Z</time>
      </trkpt>
      <trkpt lat="42.27478" lon="2.62627">
        <ele>795</ele>
        <time>2010-01-02T00:18:41Z</time>
      </trkpt>
      <trkpt lat="42.27479" lon="2.62611">
        <ele>793</ele>
        <time>2010-01-02T00:18:52Z</time>
      </trkpt>
      <trkpt lat="42.27478" lon="2.62604">
        <ele>792</ele>
        <time>2010-01-02T00:18:57Z</time>
      </trkpt>
      <trkpt lat="42.27473" lon="2.62556">
        <ele>787</ele>
        <time>2010-01-02T00:19:34Z</time>
      </trkpt>
      <trkpt lat="42.27473" lon="2.62548">
        <ele>786</ele>
        <time>2010-01-02T00:19:39Z</time>
      </trkpt>
      <trkpt lat="42.27471" lon="2.62536">
        <ele>783</ele>
        <time>2010-01-02T00:19:48Z</time>
      </trkpt>
      <trkpt lat="42.2747" lon="2.62532">
        <ele>782</ele>
        <time>2010-01-02T00:19:52Z</time>
      </trkpt>
      <trkpt lat="42.2747" lon="2.6253">
        <ele>782</ele>
        <time>2010-01-02T00:19:53Z</time>
      </trkpt>
      <trkpt lat="42.2747" lon="2.62527">
        <ele>782</ele>
        <time>2010-01-02T00:19:55Z</time>
      </trkpt>
      <trkpt lat="42.27451" lon="2.62524">
        <ele>776</ele>
        <time>2010-01-02T00:20:14Z</time>
      </trkpt>
      <trkpt lat="42.27452" lon="2.6249">
        <ele>773</ele>
        <time>2010-01-02T00:20:39Z</time>
      </trkpt>
      <trkpt lat="42.27449" lon="2.62487">
        <ele>772</ele>
        <time>2010-01-02T00:20:43Z</time>
      </trkpt>
      <trkpt lat="42.27444" lon="2.62475">
        <ele>769</ele>
        <time>2010-01-02T00:20:53Z</time>
      </trkpt>
      <trkpt lat="42.2744" lon="2.62467">
        <ele>767</ele>
        <time>2010-01-02T00:21:01Z</time>
      </trkpt>
      <trkpt lat="42.27437" lon="2.62461">
        <ele>766</ele>
        <time>2010-01-02T00:21:06Z</time>
      </trkpt>
      <trkpt lat="42.27437" lon="2.62454">
        <ele>765</ele>
        <time>2010-01-02T00:21:11Z</time>
      </trkpt>
      <trkpt lat="42.27438" lon="2.62447">
        <ele>766</ele>
        <time>2010-01-02T00:21:16Z</time>
      </trkpt>
      <trkpt lat="42.2744" lon="2.62439">
        <ele>766</ele>
        <time>2010-01-02T00:21:23Z</time>
      </trkpt>
      <trkpt lat="42.27441" lon="2.62434">
        <ele>766</ele>
        <time>2010-01-02T00:21:26Z</time>
      </trkpt>
      <trkpt lat="42.27443" lon="2.62426">
        <ele>766</ele>
        <time>2010-01-02T00:21:32Z</time>
      </trkpt>
      <trkpt lat="42.27444" lon="2.62411">
        <ele>766</ele>
        <time>2010-01-02T00:21:44Z</time>
      </trkpt>
      <trkpt lat="42.27444" lon="2.6241">
        <ele>766</ele>
        <time>2010-01-02T00:21:45Z</time>
      </trkpt>
      <trkpt lat="42.2744" lon="2.62397">
        <ele>764</ele>
        <time>2010-01-02T00:21:55Z</time>
      </trkpt>
      <trkpt lat="42.27446" lon="2.62387">
        <ele>765</ele>
        <time>2010-01-02T00:22:04Z</time>
      </trkpt>
      <trkpt lat="42.27452" lon="2.62373">
        <ele>765</ele>
        <time>2010-01-02T00:22:16Z</time>
      </trkpt>
      <trkpt lat="42.27451" lon="2.62372">
        <ele>765</ele>
        <time>2010-01-02T00:22:17Z</time>
      </trkpt>
      <trkpt lat="42.27452" lon="2.62371">
        <ele>765</ele>
        <time>2010-01-02T00:22:18Z</time>
      </trkpt>
      <trkpt lat="42.2745" lon="2.62359">
        <ele>763</ele>
        <time>2010-01-02T00:22:27Z</time>
      </trkpt>
      <trkpt lat="42.27451" lon="2.62352">
        <ele>762</ele>
        <time>2010-01-02T00:22:32Z</time>
      </trkpt>
      <trkpt lat="42.27454" lon="2.62342">
        <ele>761</ele>
        <time>2010-01-02T00:22:40Z</time>
      </trkpt>
      <trkpt lat="42.27456" lon="2.62339">
        <ele>761</ele>
        <time>2010-01-02T00:22:43Z</time>
      </trkpt>
      <trkpt lat="42.27456" lon="2.62338">
        <ele>761</ele>
        <time>2010-01-02T00:22:44Z</time>
      </trkpt>
      <trkpt lat="42.27454" lon="2.62335">
        <ele>761</ele>
        <time>2010-01-02T00:22:47Z</time>
      </trkpt>
      <trkpt lat="42.27453" lon="2.62328">
        <ele>759</ele>
        <time>2010-01-02T00:22:52Z</time>
      </trkpt>
      <trkpt lat="42.27451" lon="2.62326">
        <ele>758</ele>
        <time>2010-01-02T00:22:54Z</time>
      </trkpt>
      <trkpt lat="42.2745" lon="2.62323">
        <ele>757</ele>
        <time>2010-01-02T00:22:57Z</time>
      </trkpt>
      <trkpt lat="42.27448" lon="2.62319">
        <ele>756</ele>
        <time>2010-01-02T00:23:01Z</time>
      </trkpt>
      <trkpt lat="42.27445" lon="2.62316">
        <ele>755</ele>
        <time>2010-01-02T00:23:04Z</time>
      </trkpt>
      <trkpt lat="42.27443" lon="2.62309">
        <ele>753</ele>
        <time>2010-01-02T00:23:10Z</time>
      </trkpt>
      <trkpt lat="42.27442" lon="2.62302">
        <ele>751</ele>
        <time>2010-01-02T00:23:15Z</time>
      </trkpt>
      <trkpt lat="42.27441" lon="2.62294">
        <ele>750</ele>
        <time>2010-01-02T00:23:21Z</time>
      </trkpt>
      <trkpt lat="42.27439" lon="2.62288">
        <ele>749</ele>
        <time>2010-01-02T00:23:25Z</time>
      </trkpt>
      <trkpt lat="42.27437" lon="2.62285">
        <ele>748</ele>
        <time>2010-01-02T00:23:29Z</time>
      </trkpt>
      <trkpt lat="42.27434" lon="2.62283">
        <ele>747</ele>
        <time>2010-01-02T00:23:32Z</time>
      </trkpt>
      <trkpt lat="42.27431" lon="2.6228">
        <ele>746</ele>
        <time>2010-01-02T00:23:36Z</time>
      </trkpt>
      <trkpt lat="42.27427" lon="2.62274">
        <ele>745</ele>
        <time>2010-01-02T00:23:42Z</time>
      </trkpt>
      <trkpt lat="42.27423" lon="2.62272">
        <ele>744</ele>
        <time>2010-01-02T00:23:46Z</time>
      </trkpt>
      <trkpt lat="42.27418" lon="2.62269">
        <ele>743</ele>
        <time>2010-01-02T00:23:51Z</time>
      </trkpt>
      <trkpt lat="42.27418" lon="2.62265">
        <ele>742</ele>
        <time>2010-01-02T00:23:54Z</time>
      </trkpt>
      <trkpt lat="42.27417" lon="2.62263">
        <ele>741</ele>
        <time>2010-01-02T00:23:56Z</time>
      </trkpt>
      <trkpt lat="42.27416" lon="2.62262">
        <ele>741</ele>
        <time>2010-01-02T00:23:57Z</time>
      </trkpt>
      <trkpt lat="42.27412" lon="2.62255">
        <ele>739</ele>
        <time>2010-01-02T00:24:03Z</time>
      </trkpt>
      <trkpt lat="42.2741" lon="2.62243">
        <ele>737</ele>
        <time>2010-01-02T00:24:12Z</time>
      </trkpt>
      <trkpt lat="42.2741" lon="2.6224">
        <ele>737</ele>
        <time>2010-01-02T00:24:14Z</time>
      </trkpt>
      <trkpt lat="42.27408" lon="2.62233">
        <ele>736</ele>
        <time>2010-01-02T00:24:19Z</time>
      </trkpt>
      <trkpt lat="42.27408" lon="2.62231">
        <ele>735</ele>
        <time>2010-01-02T00:24:21Z</time>
      </trkpt>
      <trkpt lat="42.27407" lon="2.62228">
        <ele>735</ele>
        <time>2010-01-02T00:24:24Z</time>
      </trkpt>
      <trkpt lat="42.27406" lon="2.62224">
        <ele>734</ele>
        <time>2010-01-02T00:24:27Z</time>
      </trkpt>
      <trkpt lat="42.27404" lon="2.62217">
        <ele>733</ele>
        <time>2010-01-02T00:24:33Z</time>
      </trkpt>
      <trkpt lat="42.27401" lon="2.62213">
        <ele>732</ele>
        <time>2010-01-02T00:24:37Z</time>
      </trkpt>
      <trkpt lat="42.27401" lon="2.62211">
        <ele>731</ele>
        <time>2010-01-02T00:24:38Z</time>
      </trkpt>
      <trkpt lat="42.27399" lon="2.62205">
        <ele>730</ele>
        <time>2010-01-02T00:24:43Z</time>
      </trkpt>
      <trkpt lat="42.27397" lon="2.62195">
        <ele>729</ele>
        <time>2010-01-02T00:24:50Z</time>
      </trkpt>
      <trkpt lat="42.27396" lon="2.62191">
        <ele>728</ele>
        <time>2010-01-02T00:24:54Z</time>
      </trkpt>
      <trkpt lat="42.27396" lon="2.6219">
        <ele>728</ele>
        <time>2010-01-02T00:24:55Z</time>
      </trkpt>
      <trkpt lat="42.27395" lon="2.62184">
        <ele>727</ele>
        <time>2010-01-02T00:24:59Z</time>
      </trkpt>
      <trkpt lat="42.27394" lon="2.62178">
        <ele>725</ele>
        <time>2010-01-02T00:25:03Z</time>
      </trkpt>
      <trkpt lat="42.27393" lon="2.62174">
        <ele>725</ele>
        <time>2010-01-02T00:25:07Z</time>
      </trkpt>
      <trkpt lat="42.27393" lon="2.62172">
        <ele>724</ele>
        <time>2010-01-02T00:25:08Z</time>
      </trkpt>
      <trkpt lat="42.27393" lon="2.62169">
        <ele>724</ele>
        <time>2010-01-02T00:25:10Z</time>
      </trkpt>
      <trkpt lat="42.27392" lon="2.62164">
        <ele>723</ele>
        <time>2010-01-02T00:25:15Z</time>
      </trkpt>
      <trkpt lat="42.27391" lon="2.62157">
        <ele>721</ele>
        <time>2010-01-02T00:25:20Z</time>
      </trkpt>
      <trkpt lat="42.27391" lon="2.62151">
        <ele>720</ele>
        <time>2010-01-02T00:25:24Z</time>
      </trkpt>
      <trkpt lat="42.27391" lon="2.62148">
        <ele>720</ele>
        <time>2010-01-02T00:25:26Z</time>
      </trkpt>
      <trkpt lat="42.27392" lon="2.62145">
        <ele>719</ele>
        <time>2010-01-02T00:25:29Z</time>
      </trkpt>
      <trkpt lat="42.27394" lon="2.6214">
        <ele>719</ele>
        <time>2010-01-02T00:25:33Z</time>
      </trkpt>
      <trkpt lat="42.27395" lon="2.62137">
        <ele>719</ele>
        <time>2010-01-02T00:25:35Z</time>
      </trkpt>
      <trkpt lat="42.27391" lon="2.62139">
        <ele>718</ele>
        <time>2010-01-02T00:25:40Z</time>
      </trkpt>
      <trkpt lat="42.27388" lon="2.62141">
        <ele>718</ele>
        <time>2010-01-02T00:25:43Z</time>
      </trkpt>
      <trkpt lat="42.27388" lon="2.62141">
        <ele>718</ele>
        <time>2010-01-02T00:25:43Z</time>
      </trkpt>
      <trkpt lat="42.27384" lon="2.62142">
        <ele>717</ele>
        <time>2010-01-02T00:25:47Z</time>
      </trkpt>
      <trkpt lat="42.27382" lon="2.62141">
        <ele>716</ele>
        <time>2010-01-02T00:25:49Z</time>
      </trkpt>
      <trkpt lat="42.27377" lon="2.62139">
        <ele>714</ele>
        <time>2010-01-02T00:25:55Z</time>
      </trkpt>
      <trkpt lat="42.27375" lon="2.62139">
        <ele>714</ele>
        <time>2010-01-02T00:25:57Z</time>
      </trkpt>
      <trkpt lat="42.27375" lon="2.62139">
        <ele>714</ele>
        <time>2010-01-02T00:25:57Z</time>
      </trkpt>
      <trkpt lat="42.27374" lon="2.62139">
        <ele>714</ele>
        <time>2010-01-02T00:25:57Z</time>
      </trkpt>
      <trkpt lat="42.27374" lon="2.62139">
        <ele>714</ele>
        <time>2010-01-02T00:25:57Z</time>
      </trkpt>
      <trkpt lat="42.27374" lon="2.62141">
        <ele>714</ele>
        <time>2010-01-02T00:25:58Z</time>
      </trkpt>
      <trkpt lat="42.27374" lon="2.62142">
        <ele>714</ele>
        <time>2010-01-02T00:26:00Z</time>
      </trkpt>
      <trkpt lat="42.27372" lon="2.62142">
        <ele>714</ele>
        <time>2010-01-02T00:26:02Z</time>
      </trkpt>
      <trkpt lat="42.27372" lon="2.62138">
        <ele>713</ele>
        <time>2010-01-02T00:26:05Z</time>
      </trkpt>
      <trkpt lat="42.27373" lon="2.62133">
        <ele>712</ele>
        <time>2010-01-02T00:26:08Z</time>
      </trkpt>
      <trkpt lat="42.27373" lon="2.62127">
        <ele>711</ele>
        <time>2010-01-02T00:26:13Z</time>
      </trkpt>
      <trkpt lat="42.27372" lon="2.62121">
        <ele>709</ele>
        <time>2010-01-02T00:26:18Z</time>
      </trkpt>
      <trkpt lat="42.27372" lon="2.62116">
        <ele>708</ele>
        <time>2010-01-02T00:26:21Z</time>
      </trkpt>
      <trkpt lat="42.27372" lon="2.62111">
        <ele>707</ele>
        <time>2010-01-02T00:26:25Z</time>
      </trkpt>
      <trkpt lat="42.27372" lon="2.62105">
        <ele>706</ele>
        <time>2010-01-02T00:26:29Z</time>
      </trkpt>
      <trkpt lat="42.27373" lon="2.621">
        <ele>706</ele>
        <time>2010-01-02T00:26:33Z</time>
      </trkpt>
      <trkpt lat="42.27374" lon="2.62092">
        <ele>705</ele>
        <time>2010-01-02T00:26:39Z</time>
      </trkpt>
      <trkpt lat="42.27374" lon="2.62086">
        <ele>704</ele>
        <time>2010-01-02T00:26:44Z</time>
      </trkpt>
      <trkpt lat="42.27374" lon="2.6208">
        <ele>703</ele>
        <time>2010-01-02T00:26:48Z</time>
      </trkpt>
      <trkpt lat="42.27373" lon="2.62078">
        <ele>702</ele>
        <time>2010-01-02T00:26:50Z</time>
      </trkpt>
      <trkpt lat="42.27371" lon="2.62069">
        <ele>700</ele>
        <time>2010-01-02T00:26:57Z</time>
      </trkpt>
      <trkpt lat="42.27369" lon="2.62063">
        <ele>699</ele>
        <time>2010-01-02T00:27:02Z</time>
      </trkpt>
      <trkpt lat="42.27367" lon="2.62059">
        <ele>698</ele>
        <time>2010-01-02T00:27:06Z</time>
      </trkpt>
      <trkpt lat="42.27366" lon="2.62057">
        <ele>697</ele>
        <time>2010-01-02T00:27:07Z</time>
      </trkpt>
      <trkpt lat="42.27365" lon="2.6205">
        <ele>696</ele>
        <time>2010-01-02T00:27:12Z</time>
      </trkpt>
      <trkpt lat="42.27367" lon="2.62047">
        <ele>696</ele>
        <time>2010-01-02T00:27:15Z</time>
      </trkpt>
      <trkpt lat="42.27367" lon="2.62041">
        <ele>696</ele>
        <time>2010-01-02T00:27:19Z</time>
      </trkpt>
      <trkpt lat="42.27366" lon="2.62036">
        <ele>695</ele>
        <time>2010-01-02T00:27:23Z</time>
      </trkpt>
      <trkpt lat="42.27365" lon="2.62022">
        <ele>693</ele>
        <time>2010-01-02T00:27:34Z</time>
      </trkpt>
      <trkpt lat="42.27367" lon="2.62015">
        <ele>693</ele>
        <time>2010-01-02T00:27:39Z</time>
      </trkpt>
      <trkpt lat="42.27368" lon="2.62014">
        <ele>693</ele>
        <time>2010-01-02T00:27:40Z</time>
      </trkpt>
      <trkpt lat="42.27368" lon="2.62014">
        <ele>693</ele>
        <time>2010-01-02T00:27:40Z</time>
      </trkpt>
      <trkpt lat="42.27367" lon="2.62015">
        <ele>693</ele>
        <time>2010-01-02T00:27:41Z</time>
      </trkpt>
      <trkpt lat="42.27366" lon="2.62013">
        <ele>692</ele>
        <time>2010-01-02T00:27:43Z</time>
      </trkpt>
      <trkpt lat="42.27367" lon="2.62008">
        <ele>692</ele>
        <time>2010-01-02T00:27:47Z</time>
      </trkpt>
      <trkpt lat="42.27367" lon="2.62004">
        <ele>692</ele>
        <time>2010-01-02T00:27:49Z</time>
      </trkpt>
      <trkpt lat="42.27367" lon="2.62">
        <ele>691</ele>
        <time>2010-01-02T00:27:52Z</time>
      </trkpt>
      <trkpt lat="42.27368" lon="2.61994">
        <ele>690</ele>
        <time>2010-01-02T00:27:57Z</time>
      </trkpt>
      <trkpt lat="42.27367" lon="2.61988">
        <ele>689</ele>
        <time>2010-01-02T00:28:02Z</time>
      </trkpt>
      <trkpt lat="42.27367" lon="2.61983">
        <ele>688</ele>
        <time>2010-01-02T00:28:05Z</time>
      </trkpt>
      <trkpt lat="42.27365" lon="2.6198">
        <ele>687</ele>
        <time>2010-01-02T00:28:08Z</time>
      </trkpt>
      <trkpt lat="42.27361" lon="2.61976">
        <ele>685</ele>
        <time>2010-01-02T00:28:12Z</time>
      </trkpt>
      <trkpt lat="42.27359" lon="2.61972">
        <ele>684</ele>
        <time>2010-01-02T00:28:16Z</time>
      </trkpt>
      <trkpt lat="42.27356" lon="2.61966">
        <ele>683</ele>
        <time>2010-01-02T00:28:21Z</time>
      </trkpt>
      <trkpt lat="42.27355" lon="2.61959">
        <ele>682</ele>
        <time>2010-01-02T00:28:26Z</time>
      </trkpt>
      <trkpt lat="42.27355" lon="2.61952">
        <ele>681</ele>
        <time>2010-01-02T00:28:32Z</time>
      </trkpt>
      <trkpt lat="42.27356" lon="2.61945">
        <ele>680</ele>
        <time>2010-01-02T00:28:38Z</time>
      </trkpt>
      <trkpt lat="42.27356" lon="2.61939">
        <ele>679</ele>
        <time>2010-01-02T00:28:42Z</time>
      </trkpt>
      <trkpt lat="42.27355" lon="2.61934">
        <ele>678</ele>
        <time>2010-01-02T00:28:46Z</time>
      </trkpt>
      <trkpt lat="42.27353" lon="2.61928">
        <ele>677</ele>
        <time>2010-01-02T00:28:51Z</time>
      </trkpt>
      <trkpt lat="42.2735" lon="2.6192">
        <ele>675</ele>
        <time>2010-01-02T00:28:57Z</time>
      </trkpt>
      <trkpt lat="42.27349" lon="2.61913">
        <ele>674</ele>
        <time>2010-01-02T00:29:02Z</time>
      </trkpt>
      <trkpt lat="42.27348" lon="2.61907">
        <ele>673</ele>
        <time>2010-01-02T00:29:07Z</time>
      </trkpt>
      <trkpt lat="42.27348" lon="2.61904">
        <ele>673</ele>
        <time>2010-01-02T00:29:09Z</time>
      </trkpt>
      <trkpt lat="42.27347" lon="2.61898">
        <ele>672</ele>
        <time>2010-01-02T00:29:14Z</time>
      </trkpt>
      <trkpt lat="42.27348" lon="2.61894">
        <ele>671</ele>
        <time>2010-01-02T00:29:17Z</time>
      </trkpt>
      <trkpt lat="42.27347" lon="2.6189">
        <ele>671</ele>
        <time>2010-01-02T00:29:20Z</time>
      </trkpt>
      <trkpt lat="42.27347" lon="2.61887">
        <ele>670</ele>
        <time>2010-01-02T00:29:22Z</time>
      </trkpt>
      <trkpt lat="42.27346" lon="2.61885">
        <ele>670</ele>
        <time>2010-01-02T00:29:24Z</time>
      </trkpt>
      <trkpt lat="42.27344" lon="2.6188">
        <ele>669</ele>
        <time>2010-01-02T00:29:28Z</time>
      </trkpt>
      <trkpt lat="42.27339" lon="2.61874">
        <ele>668</ele>
        <time>2010-01-02T00:29:35Z</time>
      </trkpt>
      <trkpt lat="42.27336" lon="2.61869">
        <ele>667</ele>
        <time>2010-01-02T00:29:39Z</time>
      </trkpt>
      <trkpt lat="42.27333" lon="2.61867">
        <ele>667</ele>
        <time>2010-01-02T00:29:42Z</time>
      </trkpt>
      <trkpt lat="42.27333" lon="2.61867">
        <ele>667</ele>
        <time>2010-01-02T00:29:43Z</time>
      </trkpt>
      <trkpt lat="42.27331" lon="2.61866">
        <ele>667</ele>
        <time>2010-01-02T00:29:45Z</time>
      </trkpt>
      <trkpt lat="42.2733" lon="2.61866">
        <ele>667</ele>
        <time>2010-01-02T00:29:46Z</time>
      </trkpt>
      <trkpt lat="42.27328" lon="2.61865">
        <ele>666</ele>
        <time>2010-01-02T00:29:49Z</time>
      </trkpt>
      <trkpt lat="42.27325" lon="2.61861">
        <ele>666</ele>
        <time>2010-01-02T00:29:53Z</time>
      </trkpt>
      <trkpt lat="42.2732" lon="2.61855">
        <ele>664</ele>
        <time>2010-01-02T00:29:59Z</time>
      </trkpt>
      <trkpt lat="42.27316" lon="2.61849">
        <ele>663</ele>
        <time>2010-01-02T00:30:05Z</time>
      </trkpt>
      <trkpt lat="42.27315" lon="2.61841">
        <ele>661</ele>
        <time>2010-01-02T00:30:12Z</time>
      </trkpt>
      <trkpt lat="42.27312" lon="2.61834">
        <ele>660</ele>
        <time>2010-01-02T00:30:18Z</time>
      </trkpt>
      <trkpt lat="42.27306" lon="2.61824">
        <ele>657</ele>
        <time>2010-01-02T00:30:26Z</time>
      </trkpt>
      <trkpt lat="42.273" lon="2.61819">
        <ele>655</ele>
        <time>2010-01-02T00:30:34Z</time>
      </trkpt>
      <trkpt lat="42.27295" lon="2.61812">
        <ele>653</ele>
        <time>2010-01-02T00:30:41Z</time>
      </trkpt>
      <trkpt lat="42.27291" lon="2.61807">
        <ele>651</ele>
        <time>2010-01-02T00:30:47Z</time>
      </trkpt>
      <trkpt lat="42.27285" lon="2.61803">
        <ele>650</ele>
        <time>2010-01-02T00:30:54Z</time>
      </trkpt>
      <trkpt lat="42.27283" lon="2.61802">
        <ele>649</ele>
        <time>2010-01-02T00:30:55Z</time>
      </trkpt>
      <trkpt lat="42.27278" lon="2.61797">
        <ele>648</ele>
        <time>2010-01-02T00:31:02Z</time>
      </trkpt>
      <trkpt lat="42.27272" lon="2.61793">
        <ele>646</ele>
        <time>2010-01-02T00:31:08Z</time>
      </trkpt>
      <trkpt lat="42.27267" lon="2.61793">
        <ele>646</ele>
        <time>2010-01-02T00:31:13Z</time>
      </trkpt>
      <trkpt lat="42.27262" lon="2.6179">
        <ele>644</ele>
        <time>2010-01-02T00:31:19Z</time>
      </trkpt>
      <trkpt lat="42.27248" lon="2.61789">
        <ele>643</ele>
        <time>2010-01-02T00:31:32Z</time>
      </trkpt>
      <trkpt lat="42.27238" lon="2.61792">
        <ele>643</ele>
        <time>2010-01-02T00:31:43Z</time>
      </trkpt>
      <trkpt lat="42.27222" lon="2.61788">
        <ele>641</ele>
        <time>2010-01-02T00:31:58Z</time>
      </trkpt>
      <trkpt lat="42.27203" lon="2.61787">
        <ele>639</ele>
        <time>2010-01-02T00:32:18Z</time>
      </trkpt>
      <trkpt lat="42.27199" lon="2.61785">
        <ele>638</ele>
        <time>2010-01-02T00:32:23Z</time>
      </trkpt>
      <trkpt lat="42.27194" lon="2.61784">
        <ele>637</ele>
        <time>2010-01-02T00:32:28Z</time>
      </trkpt>
      <trkpt lat="42.2719" lon="2.61781">
        <ele>636</ele>
        <time>2010-01-02T00:32:31Z</time>
      </trkpt>
      <trkpt lat="42.27187" lon="2.6178">
        <ele>636</ele>
        <time>2010-01-02T00:32:35Z</time>
      </trkpt>
      <trkpt lat="42.27184" lon="2.61778">
        <ele>635</ele>
        <time>2010-01-02T00:32:38Z</time>
      </trkpt>
      <trkpt lat="42.27179" lon="2.61775">
        <ele>634</ele>
        <time>2010-01-02T00:32:44Z</time>
      </trkpt>
      <trkpt lat="42.27176" lon="2.61771">
        <ele>633</ele>
        <time>2010-01-02T00:32:48Z</time>
      </trkpt>
      <trkpt lat="42.27169" lon="2.61764">
        <ele>632</ele>
        <time>2010-01-02T00:32:57Z</time>
      </trkpt>
      <trkpt lat="42.27165" lon="2.61761">
        <ele>631</ele>
        <time>2010-01-02T00:33:01Z</time>
      </trkpt>
      <trkpt lat="42.27159" lon="2.61757">
        <ele>629</ele>
        <time>2010-01-02T00:33:08Z</time>
      </trkpt>
      <trkpt lat="42.27156" lon="2.61755">
        <ele>629</ele>
        <time>2010-01-02T00:33:11Z</time>
      </trkpt>
      <trkpt lat="42.27152" lon="2.61753">
        <ele>628</ele>
        <time>2010-01-02T00:33:15Z</time>
      </trkpt>
      <trkpt lat="42.27148" lon="2.6175">
        <ele>627</ele>
        <time>2010-01-02T00:33:20Z</time>
      </trkpt>
      <trkpt lat="42.27145" lon="2.61746">
        <ele>625</ele>
        <time>2010-01-02T00:33:25Z</time>
      </trkpt>
      <trkpt lat="42.27142" lon="2.61742">
        <ele>624</ele>
        <time>2010-01-02T00:33:29Z</time>
      </trkpt>
      <trkpt lat="42.27139" lon="2.61736">
        <ele>622</ele>
        <time>2010-01-02T00:33:34Z</time>
      </trkpt>
      <trkpt lat="42.27136" lon="2.61733">
        <ele>622</ele>
        <time>2010-01-02T00:33:38Z</time>
      </trkpt>
      <trkpt lat="42.27132" lon="2.6173">
        <ele>622</ele>
        <time>2010-01-02T00:33:43Z</time>
      </trkpt>
      <trkpt lat="42.27129" lon="2.61729">
        <ele>622</ele>
        <time>2010-01-02T00:33:46Z</time>
      </trkpt>
      <trkpt lat="42.27123" lon="2.61723">
        <ele>621</ele>
        <time>2010-01-02T00:33:53Z</time>
      </trkpt>
      <trkpt lat="42.27117" lon="2.61711">
        <ele>620</ele>
        <time>2010-01-02T00:34:04Z</time>
      </trkpt>
      <trkpt lat="42.27111" lon="2.61699">
        <ele>618</ele>
        <time>2010-01-02T00:34:15Z</time>
      </trkpt>
      <trkpt lat="42.27103" lon="2.61682">
        <ele>617</ele>
        <time>2010-01-02T00:34:30Z</time>
      </trkpt>
      <trkpt lat="42.27095" lon="2.61669">
        <ele>617</ele>
        <time>2010-01-02T00:34:42Z</time>
      </trkpt>
      <trkpt lat="42.27087" lon="2.61649">
        <ele>616</ele>
        <time>2010-01-02T00:34:59Z</time>
      </trkpt>
      <trkpt lat="42.27083" lon="2.61639">
        <ele>615</ele>
        <time>2010-01-02T00:35:07Z</time>
      </trkpt>
      <trkpt lat="42.27077" lon="2.61625">
        <ele>613</ele>
        <time>2010-01-02T00:35:20Z</time>
      </trkpt>
      <trkpt lat="42.27072" lon="2.61613">
        <ele>612</ele>
        <time>2010-01-02T00:35:29Z</time>
      </trkpt>
      <trkpt lat="42.27062" lon="2.61595">
        <ele>611</ele>
        <time>2010-01-02T00:35:46Z</time>
      </trkpt>
      <trkpt lat="42.27056" lon="2.61574">
        <ele>609</ele>
        <time>2010-01-02T00:36:03Z</time>
      </trkpt>
      <trkpt lat="42.27054" lon="2.61563">
        <ele>607</ele>
        <time>2010-01-02T00:36:12Z</time>
      </trkpt>
      <trkpt lat="42.27053" lon="2.61552">
        <ele>605</ele>
        <time>2010-01-02T00:36:19Z</time>
      </trkpt>
      <trkpt lat="42.2705" lon="2.61544">
        <ele>604</ele>
        <time>2010-01-02T00:36:26Z</time>
      </trkpt>
      <trkpt lat="42.27048" lon="2.61536">
        <ele>603</ele>
        <time>2010-01-02T00:36:32Z</time>
      </trkpt>
      <trkpt lat="42.27046" lon="2.61531">
        <ele>603</ele>
        <time>2010-01-02T00:36:37Z</time>
      </trkpt>
      <trkpt lat="42.27042" lon="2.61521">
        <ele>602</ele>
        <time>2010-01-02T00:36:45Z</time>
      </trkpt>
      <trkpt lat="42.27039" lon="2.61512">
        <ele>601</ele>
        <time>2010-01-02T00:36:52Z</time>
      </trkpt>
      <trkpt lat="42.2704" lon="2.61495">
        <ele>598</ele>
        <time>2010-01-02T00:37:04Z</time>
      </trkpt>
      <trkpt lat="42.27041" lon="2.61494">
        <ele>597</ele>
        <time>2010-01-02T00:37:06Z</time>
      </trkpt>
      <trkpt lat="42.27042" lon="2.61489">
        <ele>596</ele>
        <time>2010-01-02T00:37:10Z</time>
      </trkpt>
      <trkpt lat="42.27041" lon="2.6148">
        <ele>595</ele>
        <time>2010-01-02T00:37:16Z</time>
      </trkpt>
      <trkpt lat="42.27038" lon="2.61463">
        <ele>593</ele>
        <time>2010-01-02T00:37:30Z</time>
      </trkpt>
      <trkpt lat="42.27035" lon="2.61454">
        <ele>593</ele>
        <time>2010-01-02T00:37:37Z</time>
      </trkpt>
      <trkpt lat="42.27032" lon="2.61445">
        <ele>592</ele>
        <time>2010-01-02T00:37:44Z</time>
      </trkpt>
      <trkpt lat="42.27032" lon="2.61444">
        <ele>592</ele>
        <time>2010-01-02T00:37:45Z</time>
      </trkpt>
      <trkpt lat="42.2703" lon="2.61441">
        <ele>592</ele>
        <time>2010-01-02T00:37:48Z</time>
      </trkpt>
      <trkpt lat="42.27027" lon="2.61435">
        <ele>592</ele>
        <time>2010-01-02T00:37:54Z</time>
      </trkpt>
      <trkpt lat="42.27025" lon="2.61434">
        <ele>592</ele>
        <time>2010-01-02T00:37:55Z</time>
      </trkpt>
      <trkpt lat="42.27023" lon="2.61432">
        <ele>592</ele>
        <time>2010-01-02T00:37:58Z</time>
      </trkpt>
      <trkpt lat="42.27023" lon="2.61425">
        <ele>590</ele>
        <time>2010-01-02T00:38:03Z</time>
      </trkpt>
      <trkpt lat="42.27023" lon="2.6142">
        <ele>588</ele>
        <time>2010-01-02T00:38:06Z</time>
      </trkpt>
      <trkpt lat="42.27021" lon="2.61413">
        <ele>586</ele>
        <time>2010-01-02T00:38:12Z</time>
      </trkpt>
      <trkpt lat="42.27021" lon="2.61406">
        <ele>585</ele>
        <time>2010-01-02T00:38:17Z</time>
      </trkpt>
      <trkpt lat="42.27019" lon="2.61402">
        <ele>584</ele>
        <time>2010-01-02T00:38:20Z</time>
      </trkpt>
      <trkpt lat="42.27018" lon="2.61396">
        <ele>582</ele>
        <time>2010-01-02T00:38:25Z</time>
      </trkpt>
      <trkpt lat="42.27017" lon="2.6139">
        <ele>581</ele>
        <time>2010-01-02T00:38:29Z</time>
      </trkpt>
      <trkpt lat="42.27015" lon="2.61382">
        <ele>579</ele>
        <time>2010-01-02T00:38:36Z</time>
      </trkpt>
      <trkpt lat="42.27014" lon="2.61375">
        <ele>577</ele>
        <time>2010-01-02T00:38:41Z</time>
      </trkpt>
      <trkpt lat="42.27014" lon="2.61373">
        <ele>577</ele>
        <time>2010-01-02T00:38:42Z</time>
      </trkpt>
      <trkpt lat="42.27012" lon="2.61364">
        <ele>575</ele>
        <time>2010-01-02T00:38:49Z</time>
      </trkpt>
      <trkpt lat="42.27011" lon="2.61359">
        <ele>574</ele>
        <time>2010-01-02T00:38:53Z</time>
      </trkpt>
      <trkpt lat="42.27007" lon="2.61354">
        <ele>573</ele>
        <time>2010-01-02T00:38:58Z</time>
      </trkpt>
      <trkpt lat="42.27007" lon="2.61349">
        <ele>572</ele>
        <time>2010-01-02T00:39:02Z</time>
      </trkpt>
      <trkpt lat="42.27006" lon="2.61347">
        <ele>571</ele>
        <time>2010-01-02T00:39:03Z</time>
      </trkpt>
      <trkpt lat="42.27005" lon="2.61342">
        <ele>570</ele>
        <time>2010-01-02T00:39:07Z</time>
      </trkpt>
      <trkpt lat="42.27005" lon="2.61338">
        <ele>569</ele>
        <time>2010-01-02T00:39:10Z</time>
      </trkpt>
      <trkpt lat="42.27002" lon="2.61332">
        <ele>568</ele>
        <time>2010-01-02T00:39:16Z</time>
      </trkpt>
      <trkpt lat="42.26999" lon="2.61325">
        <ele>567</ele>
        <time>2010-01-02T00:39:22Z</time>
      </trkpt>
      <trkpt lat="42.26998" lon="2.61317">
        <ele>565</ele>
        <time>2010-01-02T00:39:28Z</time>
      </trkpt>
      <trkpt lat="42.26999" lon="2.6131">
        <ele>564</ele>
        <time>2010-01-02T00:39:33Z</time>
      </trkpt>
      <trkpt lat="42.26998" lon="2.61305">
        <ele>562</ele>
        <time>2010-01-02T00:39:37Z</time>
      </trkpt>
      <trkpt lat="42.26996" lon="2.61301">
        <ele>561</ele>
        <time>2010-01-02T00:39:40Z</time>
      </trkpt>
      <trkpt lat="42.26992" lon="2.61299">
        <ele>561</ele>
        <time>2010-01-02T00:39:44Z</time>
      </trkpt>
      <trkpt lat="42.26989" lon="2.61297">
        <ele>561</ele>
        <time>2010-01-02T00:39:48Z</time>
      </trkpt>
      <trkpt lat="42.26984" lon="2.61295">
        <ele>561</ele>
        <time>2010-01-02T00:39:53Z</time>
      </trkpt>
      <trkpt lat="42.2698" lon="2.61294">
        <ele>561</ele>
        <time>2010-01-02T00:39:57Z</time>
      </trkpt>
      <trkpt lat="42.26977" lon="2.61289">
        <ele>560</ele>
        <time>2010-01-02T00:40:01Z</time>
      </trkpt>
      <trkpt lat="42.26973" lon="2.61284">
        <ele>560</ele>
        <time>2010-01-02T00:40:06Z</time>
      </trkpt>
      <trkpt lat="42.26971" lon="2.61281">
        <ele>559</ele>
        <time>2010-01-02T00:40:10Z</time>
      </trkpt>
      <trkpt lat="42.26966" lon="2.61274">
        <ele>558</ele>
        <time>2010-01-02T00:40:17Z</time>
      </trkpt>
      <trkpt lat="42.26961" lon="2.61267">
        <ele>555</ele>
        <time>2010-01-02T00:40:24Z</time>
      </trkpt>
      <trkpt lat="42.26955" lon="2.61257">
        <ele>552</ele>
        <time>2010-01-02T00:40:33Z</time>
      </trkpt>
      <trkpt lat="42.26952" lon="2.61251">
        <ele>550</ele>
        <time>2010-01-02T00:40:39Z</time>
      </trkpt>
      <trkpt lat="42.26948" lon="2.61245">
        <ele>548</ele>
        <time>2010-01-02T00:40:46Z</time>
      </trkpt>
      <trkpt lat="42.26941" lon="2.61238">
        <ele>547</ele>
        <time>2010-01-02T00:40:54Z</time>
      </trkpt>
      <trkpt lat="42.26936" lon="2.61235">
        <ele>546</ele>
        <time>2010-01-02T00:41:00Z</time>
      </trkpt>
      <trkpt lat="42.2693" lon="2.6123">
        <ele>545</ele>
        <time>2010-01-02T00:41:06Z</time>
      </trkpt>
      <trkpt lat="42.26926" lon="2.61228">
        <ele>544</ele>
        <time>2010-01-02T00:41:11Z</time>
      </trkpt>
      <trkpt lat="42.26922" lon="2.61224">
        <ele>543</ele>
        <time>2010-01-02T00:41:16Z</time>
      </trkpt>
      <trkpt lat="42.26916" lon="2.61219">
        <ele>542</ele>
        <time>2010-01-02T00:41:22Z</time>
      </trkpt>
      <trkpt lat="42.26911" lon="2.61213">
        <ele>540</ele>
        <time>2010-01-02T00:41:29Z</time>
      </trkpt>
      <trkpt lat="42.26908" lon="2.61209">
        <ele>539</ele>
        <time>2010-01-02T00:41:33Z</time>
      </trkpt>
      <trkpt lat="42.26905" lon="2.61205">
        <ele>538</ele>
        <time>2010-01-02T00:41:38Z</time>
      </trkpt>
      <trkpt lat="42.26902" lon="2.61199">
        <ele>536</ele>
        <time>2010-01-02T00:41:43Z</time>
      </trkpt>
      <trkpt lat="42.26899" lon="2.61197">
        <ele>535</ele>
        <time>2010-01-02T00:41:46Z</time>
      </trkpt>
      <trkpt lat="42.26897" lon="2.61194">
        <ele>535</ele>
        <time>2010-01-02T00:41:49Z</time>
      </trkpt>
      <trkpt lat="42.26893" lon="2.61191">
        <ele>534</ele>
        <time>2010-01-02T00:41:54Z</time>
      </trkpt>
      <trkpt lat="42.26888" lon="2.61189">
        <ele>533</ele>
        <time>2010-01-02T00:41:59Z</time>
      </trkpt>
      <trkpt lat="42.26883" lon="2.61188">
        <ele>532</ele>
        <time>2010-01-02T00:42:04Z</time>
      </trkpt>
      <trkpt lat="42.26878" lon="2.61185">
        <ele>531</ele>
        <time>2010-01-02T00:42:09Z</time>
      </trkpt>
      <trkpt lat="42.26874" lon="2.61181">
        <ele>530</ele>
        <time>2010-01-02T00:42:15Z</time>
      </trkpt>
      <trkpt lat="42.2687" lon="2.61178">
        <ele>529</ele>
        <time>2010-01-02T00:42:19Z</time>
      </trkpt>
      <trkpt lat="42.26865" lon="2.61175">
        <ele>527</ele>
        <time>2010-01-02T00:42:24Z</time>
      </trkpt>
      <trkpt lat="42.26862" lon="2.61171">
        <ele>526</ele>
        <time>2010-01-02T00:42:29Z</time>
      </trkpt>
      <trkpt lat="42.26859" lon="2.61165">
        <ele>525</ele>
        <time>2010-01-02T00:42:34Z</time>
      </trkpt>
      <trkpt lat="42.26855" lon="2.6116">
        <ele>523</ele>
        <time>2010-01-02T00:42:39Z</time>
      </trkpt>
      <trkpt lat="42.26851" lon="2.61155">
        <ele>521</ele>
        <time>2010-01-02T00:42:45Z</time>
      </trkpt>
      <trkpt lat="42.26848" lon="2.6115">
        <ele>520</ele>
        <time>2010-01-02T00:42:49Z</time>
      </trkpt>
      <trkpt lat="42.26845" lon="2.61146">
        <ele>519</ele>
        <time>2010-01-02T00:42:54Z</time>
      </trkpt>
      <trkpt lat="42.26841" lon="2.6114">
        <ele>517</ele>
        <time>2010-01-02T00:43:00Z</time>
      </trkpt>
      <trkpt lat="42.26837" lon="2.61136">
        <ele>517</ele>
        <time>2010-01-02T00:43:05Z</time>
      </trkpt>
      <trkpt lat="42.26836" lon="2.61135">
        <ele>516</ele>
        <time>2010-01-02T00:43:06Z</time>
      </trkpt>
      <trkpt lat="42.26833" lon="2.61132">
        <ele>516</ele>
        <time>2010-01-02T00:43:10Z</time>
      </trkpt>
      <trkpt lat="42.26832" lon="2.61131">
        <ele>515</ele>
        <time>2010-01-02T00:43:11Z</time>
      </trkpt>
      <trkpt lat="42.26831" lon="2.61127">
        <ele>515</ele>
        <time>2010-01-02T00:43:14Z</time>
      </trkpt>
      <trkpt lat="42.26829" lon="2.61121">
        <ele>514</ele>
        <time>2010-01-02T00:43:19Z</time>
      </trkpt>
      <trkpt lat="42.26827" lon="2.61118">
        <ele>513</ele>
        <time>2010-01-02T00:43:22Z</time>
      </trkpt>
      <trkpt lat="42.26826" lon="2.61116">
        <ele>513</ele>
        <time>2010-01-02T00:43:24Z</time>
      </trkpt>
      <trkpt lat="42.26822" lon="2.61111">
        <ele>512</ele>
        <time>2010-01-02T00:43:29Z</time>
      </trkpt>
      <trkpt lat="42.26819" lon="2.6111">
        <ele>511</ele>
        <time>2010-01-02T00:43:32Z</time>
      </trkpt>
      <trkpt lat="42.26818" lon="2.6111">
        <ele>511</ele>
        <time>2010-01-02T00:43:33Z</time>
      </trkpt>
      <trkpt lat="42.26816" lon="2.61108">
        <ele>510</ele>
        <time>2010-01-02T00:43:36Z</time>
      </trkpt>
      <trkpt lat="42.26812" lon="2.61101">
        <ele>509</ele>
        <time>2010-01-02T00:43:42Z</time>
      </trkpt>
      <trkpt lat="42.26811" lon="2.61096">
        <ele>508</ele>
        <time>2010-01-02T00:43:46Z</time>
      </trkpt>
      <trkpt lat="42.26811" lon="2.61093">
        <ele>508</ele>
        <time>2010-01-02T00:43:48Z</time>
      </trkpt>
      <trkpt lat="42.26809" lon="2.61084">
        <ele>507</ele>
        <time>2010-01-02T00:43:55Z</time>
      </trkpt>
      <trkpt lat="42.26809" lon="2.61082">
        <ele>507</ele>
        <time>2010-01-02T00:43:56Z</time>
      </trkpt>
      <trkpt lat="42.26811" lon="2.61072">
        <ele>506</ele>
        <time>2010-01-02T00:44:04Z</time>
      </trkpt>
      <trkpt lat="42.2681" lon="2.61066">
        <ele>505</ele>
        <time>2010-01-02T00:44:09Z</time>
      </trkpt>
      <trkpt lat="42.2681" lon="2.61058">
        <ele>505</ele>
        <time>2010-01-02T00:44:14Z</time>
      </trkpt>
      <trkpt lat="42.26812" lon="2.61052">
        <ele>504</ele>
        <time>2010-01-02T00:44:20Z</time>
      </trkpt>
      <trkpt lat="42.26816" lon="2.61045">
        <ele>503</ele>
        <time>2010-01-02T00:44:26Z</time>
      </trkpt>
      <trkpt lat="42.2682" lon="2.6104">
        <ele>502</ele>
        <time>2010-01-02T00:44:31Z</time>
      </trkpt>
      <trkpt lat="42.26825" lon="2.61035">
        <ele>501</ele>
        <time>2010-01-02T00:44:38Z</time>
      </trkpt>
      <trkpt lat="42.26829" lon="2.61032">
        <ele>501</ele>
        <time>2010-01-02T00:44:42Z</time>
      </trkpt>
      <trkpt lat="42.26833" lon="2.61027">
        <ele>499</ele>
        <time>2010-01-02T00:44:47Z</time>
      </trkpt>
      <trkpt lat="42.26835" lon="2.61025">
        <ele>499</ele>
        <time>2010-01-02T00:44:51Z</time>
      </trkpt>
      <trkpt lat="42.26837" lon="2.6102">
        <ele>497</ele>
        <time>2010-01-02T00:44:54Z</time>
      </trkpt>
      <trkpt lat="42.26839" lon="2.61012">
        <ele>496</ele>
        <time>2010-01-02T00:45:00Z</time>
      </trkpt>
      <trkpt lat="42.26841" lon="2.6101">
        <ele>495</ele>
        <time>2010-01-02T00:45:03Z</time>
      </trkpt>
      <trkpt lat="42.26843" lon="2.61004">
        <ele>494</ele>
        <time>2010-01-02T00:45:08Z</time>
      </trkpt>
      <trkpt lat="42.26845" lon="2.60996">
        <ele>492</ele>
        <time>2010-01-02T00:45:14Z</time>
      </trkpt>
      <trkpt lat="42.26849" lon="2.6099">
        <ele>490</ele>
        <time>2010-01-02T00:45:20Z</time>
      </trkpt>
      <trkpt lat="42.26851" lon="2.60986">
        <ele>488</ele>
        <time>2010-01-02T00:45:24Z</time>
      </trkpt>
      <trkpt lat="42.26854" lon="2.60981">
        <ele>487</ele>
        <time>2010-01-02T00:45:28Z</time>
      </trkpt>
      <trkpt lat="42.26857" lon="2.60976">
        <ele>485</ele>
        <time>2010-01-02T00:45:33Z</time>
      </trkpt>
      <trkpt lat="42.26859" lon="2.60973">
        <ele>484</ele>
        <time>2010-01-02T00:45:36Z</time>
      </trkpt>
      <trkpt lat="42.26865" lon="2.6097">
        <ele>483</ele>
        <time>2010-01-02T00:45:42Z</time>
      </trkpt>
      <trkpt lat="42.26869" lon="2.60969">
        <ele>483</ele>
        <time>2010-01-02T00:45:47Z</time>
      </trkpt>
      <trkpt lat="42.26874" lon="2.60966">
        <ele>483</ele>
        <time>2010-01-02T00:45:52Z</time>
      </trkpt>
      <trkpt lat="42.26879" lon="2.60964">
        <ele>483</ele>
        <time>2010-01-02T00:45:57Z</time>
      </trkpt>
      <trkpt lat="42.26883" lon="2.60963">
        <ele>483</ele>
        <time>2010-01-02T00:46:02Z</time>
      </trkpt>
      <trkpt lat="42.2689" lon="2.6096">
        <ele>482</ele>
        <time>2010-01-02T00:46:08Z</time>
      </trkpt>
      <trkpt lat="42.26894" lon="2.60954">
        <ele>480</ele>
        <time>2010-01-02T00:46:14Z</time>
      </trkpt>
      <trkpt lat="42.26905" lon="2.60951">
        <ele>478</ele>
        <time>2010-01-02T00:46:25Z</time>
      </trkpt>
      <trkpt lat="42.26907" lon="2.60949">
        <ele>477</ele>
        <time>2010-01-02T00:46:28Z</time>
      </trkpt>
      <trkpt lat="42.26915" lon="2.60949">
        <ele>476</ele>
        <time>2010-01-02T00:46:36Z</time>
      </trkpt>
      <trkpt lat="42.26919" lon="2.60949">
        <ele>475</ele>
        <time>2010-01-02T00:46:40Z</time>
      </trkpt>
      <trkpt lat="42.26922" lon="2.60947">
        <ele>474</ele>
        <time>2010-01-02T00:46:43Z</time>
      </trkpt>
      <trkpt lat="42.26928" lon="2.60945">
        <ele>473</ele>
        <time>2010-01-02T00:46:49Z</time>
      </trkpt>
      <trkpt lat="42.26936" lon="2.60946">
        <ele>472</ele>
        <time>2010-01-02T00:46:57Z</time>
      </trkpt>
      <trkpt lat="42.26941" lon="2.60948">
        <ele>471</ele>
        <time>2010-01-02T00:47:03Z</time>
      </trkpt>
      <trkpt lat="42.26954" lon="2.60956">
        <ele>471</ele>
        <time>2010-01-02T00:47:17Z</time>
      </trkpt>
      <trkpt lat="42.26966" lon="2.60963">
        <ele>472</ele>
        <time>2010-01-02T00:47:30Z</time>
      </trkpt>
      <trkpt lat="42.26972" lon="2.60963">
        <ele>471</ele>
        <time>2010-01-02T00:47:36Z</time>
      </trkpt>
      <trkpt lat="42.26974" lon="2.60962">
        <ele>470</ele>
        <time>2010-01-02T00:47:38Z</time>
      </trkpt>
      <trkpt lat="42.26978" lon="2.60962">
        <ele>470</ele>
        <time>2010-01-02T00:47:42Z</time>
      </trkpt>
      <trkpt lat="42.26985" lon="2.6096">
        <ele>469</ele>
        <time>2010-01-02T00:47:49Z</time>
      </trkpt>
      <trkpt lat="42.26989" lon="2.60957">
        <ele>467</ele>
        <time>2010-01-02T00:47:54Z</time>
      </trkpt>
      <trkpt lat="42.26993" lon="2.60953">
        <ele>465</ele>
        <time>2010-01-02T00:47:59Z</time>
      </trkpt>
      <trkpt lat="42.26993" lon="2.6095">
        <ele>464</ele>
        <time>2010-01-02T00:48:02Z</time>
      </trkpt>
      <trkpt lat="42.26993" lon="2.6095">
        <ele>464</ele>
        <time>2010-01-02T00:48:02Z</time>
      </trkpt>
      <trkpt lat="42.26992" lon="2.60949">
        <ele>464</ele>
        <time>2010-01-02T00:48:03Z</time>
      </trkpt>
      <trkpt lat="42.2699" lon="2.60949">
        <ele>464</ele>
        <time>2010-01-02T00:48:05Z</time>
      </trkpt>
      <trkpt lat="42.26989" lon="2.60949">
        <ele>464</ele>
        <time>2010-01-02T00:48:06Z</time>
      </trkpt>
      <trkpt lat="42.26988" lon="2.60948">
        <ele>464</ele>
        <time>2010-01-02T00:48:08Z</time>
      </trkpt>
      <trkpt lat="42.26985" lon="2.60945">
        <ele>463</ele>
        <time>2010-01-02T00:48:11Z</time>
      </trkpt>
      <trkpt lat="42.26983" lon="2.60943">
        <ele>462</ele>
        <time>2010-01-02T00:48:14Z</time>
      </trkpt>
      <trkpt lat="42.26982" lon="2.60942">
        <ele>462</ele>
        <time>2010-01-02T00:48:15Z</time>
      </trkpt>
      <trkpt lat="42.26984" lon="2.6094">
        <ele>461</ele>
        <time>2010-01-02T00:48:17Z</time>
      </trkpt>
      <trkpt lat="42.26984" lon="2.60937">
        <ele>460</ele>
        <time>2010-01-02T00:48:20Z</time>
      </trkpt>
      <trkpt lat="42.26983" lon="2.60932">
        <ele>459</ele>
        <time>2010-01-02T00:48:24Z</time>
      </trkpt>
      <trkpt lat="42.26983" lon="2.60928">
        <ele>458</ele>
        <time>2010-01-02T00:48:26Z</time>
      </trkpt>
      <trkpt lat="42.26984" lon="2.60926">
        <ele>457</ele>
        <time>2010-01-02T00:48:28Z</time>
      </trkpt>
      <trkpt lat="42.26985" lon="2.60921">
        <ele>456</ele>
        <time>2010-01-02T00:48:32Z</time>
      </trkpt>
      <trkpt lat="42.26982" lon="2.6091">
        <ele>453</ele>
        <time>2010-01-02T00:48:40Z</time>
      </trkpt>
      <trkpt lat="42.26979" lon="2.60901">
        <ele>450</ele>
        <time>2010-01-02T00:48:48Z</time>
      </trkpt>
      <trkpt lat="42.26978" lon="2.60888">
        <ele>447</ele>
        <time>2010-01-02T00:48:58Z</time>
      </trkpt>
      <trkpt lat="42.2698" lon="2.60881">
        <ele>444</ele>
        <time>2010-01-02T00:49:03Z</time>
      </trkpt>
      <trkpt lat="42.26983" lon="2.60878">
        <ele>443</ele>
        <time>2010-01-02T00:49:07Z</time>
      </trkpt>
      <trkpt lat="42.26988" lon="2.60876">
        <ele>442</ele>
        <time>2010-01-02T00:49:12Z</time>
      </trkpt>
      <trkpt lat="42.26989" lon="2.60876">
        <ele>442</ele>
        <time>2010-01-02T00:49:14Z</time>
      </trkpt>
      <trkpt lat="42.26996" lon="2.60876">
        <ele>441</ele>
        <time>2010-01-02T00:49:20Z</time>
      </trkpt>
      <trkpt lat="42.27" lon="2.60873">
        <ele>439</ele>
        <time>2010-01-02T00:49:25Z</time>
      </trkpt>
      <trkpt lat="42.27004" lon="2.6087">
        <ele>438</ele>
        <time>2010-01-02T00:49:30Z</time>
      </trkpt>
      <trkpt lat="42.27006" lon="2.6087">
        <ele>437</ele>
        <time>2010-01-02T00:49:32Z</time>
      </trkpt>
      <trkpt lat="42.27012" lon="2.60865">
        <ele>435</ele>
        <time>2010-01-02T00:49:39Z</time>
      </trkpt>
      <trkpt lat="42.27016" lon="2.60861">
        <ele>433</ele>
        <time>2010-01-02T00:49:43Z</time>
      </trkpt>
      <trkpt lat="42.27018" lon="2.60858">
        <ele>432</ele>
        <time>2010-01-02T00:49:46Z</time>
      </trkpt>
      <trkpt lat="42.27019" lon="2.60856">
        <ele>432</ele>
        <time>2010-01-02T00:49:48Z</time>
      </trkpt>
      <trkpt lat="42.27018" lon="2.60852">
        <ele>431</ele>
        <time>2010-01-02T00:49:51Z</time>
      </trkpt>
      <trkpt lat="42.27017" lon="2.6085">
        <ele>431</ele>
        <time>2010-01-02T00:49:53Z</time>
      </trkpt>
      <trkpt lat="42.27016" lon="2.60847">
        <ele>431</ele>
        <time>2010-01-02T00:49:55Z</time>
      </trkpt>
      <trkpt lat="42.27015" lon="2.60846">
        <ele>431</ele>
        <time>2010-01-02T00:49:57Z</time>
      </trkpt>
      <trkpt lat="42.27013" lon="2.60844">
        <ele>431</ele>
        <time>2010-01-02T00:49:59Z</time>
      </trkpt>
      <trkpt lat="42.27011" lon="2.60843">
        <ele>431</ele>
        <time>2010-01-02T00:50:02Z</time>
      </trkpt>
      <trkpt lat="42.27007" lon="2.60841">
        <ele>431</ele>
        <time>2010-01-02T00:50:06Z</time>
      </trkpt>
      <trkpt lat="42.27002" lon="2.60832">
        <ele>430</ele>
        <time>2010-01-02T00:50:14Z</time>
      </trkpt>
      <trkpt lat="42.26996" lon="2.60826">
        <ele>429</ele>
        <time>2010-01-02T00:50:22Z</time>
      </trkpt>
      <trkpt lat="42.26995" lon="2.60823">
        <ele>429</ele>
        <time>2010-01-02T00:50:24Z</time>
      </trkpt>
      <trkpt lat="42.26995" lon="2.60819">
        <ele>428</ele>
        <time>2010-01-02T00:50:27Z</time>
      </trkpt>
      <trkpt lat="42.26994" lon="2.60816">
        <ele>428</ele>
        <time>2010-01-02T00:50:29Z</time>
      </trkpt>
      <trkpt lat="42.26987" lon="2.60805">
        <ele>426</ele>
        <time>2010-01-02T00:50:40Z</time>
      </trkpt>
      <trkpt lat="42.26982" lon="2.608">
        <ele>425</ele>
        <time>2010-01-02T00:50:46Z</time>
      </trkpt>
      <trkpt lat="42.26977" lon="2.60792">
        <ele>423</ele>
        <time>2010-01-02T00:50:53Z</time>
      </trkpt>
      <trkpt lat="42.26975" lon="2.6079">
        <ele>422</ele>
        <time>2010-01-02T00:50:57Z</time>
      </trkpt>
      <trkpt lat="42.26962" lon="2.60782">
        <ele>421</ele>
        <time>2010-01-02T00:51:10Z</time>
      </trkpt>
      <trkpt lat="42.26953" lon="2.60773">
        <ele>418</ele>
        <time>2010-01-02T00:51:22Z</time>
      </trkpt>
      <trkpt lat="42.26947" lon="2.60767">
        <ele>416</ele>
        <time>2010-01-02T00:51:29Z</time>
      </trkpt>
      <trkpt lat="42.26941" lon="2.60764">
        <ele>414</ele>
        <time>2010-01-02T00:51:36Z</time>
      </trkpt>
      <trkpt lat="42.26933" lon="2.6076">
        <ele>414</ele>
        <time>2010-01-02T00:51:44Z</time>
      </trkpt>
      <trkpt lat="42.26919" lon="2.60755">
        <ele>412</ele>
        <time>2010-01-02T00:51:59Z</time>
      </trkpt>
      <trkpt lat="42.26907" lon="2.60755">
        <ele>413</ele>
        <time>2010-01-02T00:52:11Z</time>
      </trkpt>
      <trkpt lat="42.26898" lon="2.60751">
        <ele>412</ele>
        <time>2010-01-02T00:52:20Z</time>
      </trkpt>
      <trkpt lat="42.26897" lon="2.6075">
        <ele>411</ele>
        <time>2010-01-02T00:52:21Z</time>
      </trkpt>
      <trkpt lat="42.26889" lon="2.60745">
        <ele>410</ele>
        <time>2010-01-02T00:52:30Z</time>
      </trkpt>
      <trkpt lat="42.2688" lon="2.60741">
        <ele>409</ele>
        <time>2010-01-02T00:52:40Z</time>
      </trkpt>
      <trkpt lat="42.26874" lon="2.60733">
        <ele>407</ele>
        <time>2010-01-02T00:52:48Z</time>
      </trkpt>
      <trkpt lat="42.2687" lon="2.6073">
        <ele>406</ele>
        <time>2010-01-02T00:52:52Z</time>
      </trkpt>
      <trkpt lat="42.26867" lon="2.6073">
        <ele>406</ele>
        <time>2010-01-02T00:52:56Z</time>
      </trkpt>
      <trkpt lat="42.26864" lon="2.60728">
        <ele>406</ele>
        <time>2010-01-02T00:52:59Z</time>
      </trkpt>
      <trkpt lat="42.2686" lon="2.60727">
        <ele>406</ele>
        <time>2010-01-02T00:53:03Z</time>
      </trkpt>
      <trkpt lat="42.26857" lon="2.60722">
        <ele>403</ele>
        <time>2010-01-02T00:53:08Z</time>
      </trkpt>
      <trkpt lat="42.2685" lon="2.60715">
        <ele>400</ele>
        <time>2010-01-02T00:53:16Z</time>
      </trkpt>
      <trkpt lat="42.26847" lon="2.60711">
        <ele>399</ele>
        <time>2010-01-02T00:53:20Z</time>
      </trkpt>
      <trkpt lat="42.26845" lon="2.60707">
        <ele>398</ele>
        <time>2010-01-02T00:53:23Z</time>
      </trkpt>
      <trkpt lat="42.2684" lon="2.60697">
        <ele>395</ele>
        <time>2010-01-02T00:53:32Z</time>
      </trkpt>
      <trkpt lat="42.26836" lon="2.60688">
        <ele>393</ele>
        <time>2010-01-02T00:53:40Z</time>
      </trkpt>
      <trkpt lat="42.26828" lon="2.60677">
        <ele>390</ele>
        <time>2010-01-02T00:53:52Z</time>
      </trkpt>
      <trkpt lat="42.26823" lon="2.6067">
        <ele>388</ele>
        <time>2010-01-02T00:53:59Z</time>
      </trkpt>
      <trkpt lat="42.26819" lon="2.60665">
        <ele>386</ele>
        <time>2010-01-02T00:54:05Z</time>
      </trkpt>
      <trkpt lat="42.26813" lon="2.6066">
        <ele>384</ele>
        <time>2010-01-02T00:54:12Z</time>
      </trkpt>
      <trkpt lat="42.26809" lon="2.60658">
        <ele>383</ele>
        <time>2010-01-02T00:54:16Z</time>
      </trkpt>
      <trkpt lat="42.26805" lon="2.60656">
        <ele>382</ele>
        <time>2010-01-02T00:54:20Z</time>
      </trkpt>
      <trkpt lat="42.26802" lon="2.60655">
        <ele>381</ele>
        <time>2010-01-02T00:54:23Z</time>
      </trkpt>
      <trkpt lat="42.26799" lon="2.60653">
        <ele>380</ele>
        <time>2010-01-02T00:54:26Z</time>
      </trkpt>
      <trkpt lat="42.26795" lon="2.60652">
        <ele>379</ele>
        <time>2010-01-02T00:54:30Z</time>
      </trkpt>
      <trkpt lat="42.26792" lon="2.60652">
        <ele>378</ele>
        <time>2010-01-02T00:54:34Z</time>
      </trkpt>
      <trkpt lat="42.2679" lon="2.60652">
        <ele>378</ele>
        <time>2010-01-02T00:54:36Z</time>
      </trkpt>
      <trkpt lat="42.2679" lon="2.60652">
        <ele>378</ele>
        <time>2010-01-02T00:54:36Z</time>
      </trkpt>
      <trkpt lat="42.26789" lon="2.60652">
        <ele>377</ele>
        <time>2010-01-02T00:54:37Z</time>
      </trkpt>
      <trkpt lat="42.26788" lon="2.60653">
        <ele>377</ele>
        <time>2010-01-02T00:54:38Z</time>
      </trkpt>
      <trkpt lat="42.26786" lon="2.60655">
        <ele>377</ele>
        <time>2010-01-02T00:54:41Z</time>
      </trkpt>
      <trkpt lat="42.26784" lon="2.60656">
        <ele>377</ele>
        <time>2010-01-02T00:54:43Z</time>
      </trkpt>
      <trkpt lat="42.26781" lon="2.60659">
        <ele>376</ele>
        <time>2010-01-02T00:54:47Z</time>
      </trkpt>
      <trkpt lat="42.26779" lon="2.60659">
        <ele>376</ele>
        <time>2010-01-02T00:54:48Z</time>
      </trkpt>
      <trkpt lat="42.26777" lon="2.60659">
        <ele>375</ele>
        <time>2010-01-02T00:54:51Z</time>
      </trkpt>
      <trkpt lat="42.26772" lon="2.60657">
        <ele>374</ele>
        <time>2010-01-02T00:54:56Z</time>
      </trkpt>
      <trkpt lat="42.26767" lon="2.60654">
        <ele>373</ele>
        <time>2010-01-02T00:55:01Z</time>
      </trkpt>
      <trkpt lat="42.26766" lon="2.60651">
        <ele>372</ele>
        <time>2010-01-02T00:55:04Z</time>
      </trkpt>
      <trkpt lat="42.26763" lon="2.60647">
        <ele>371</ele>
        <time>2010-01-02T00:55:08Z</time>
      </trkpt>
      <trkpt lat="42.26757" lon="2.60637">
        <ele>369</ele>
        <time>2010-01-02T00:55:17Z</time>
      </trkpt>
      <trkpt lat="42.26754" lon="2.60631">
        <ele>367</ele>
        <time>2010-01-02T00:55:23Z</time>
      </trkpt>
      <trkpt lat="42.26751" lon="2.60629">
        <ele>366</ele>
        <time>2010-01-02T00:55:25Z</time>
      </trkpt>
      <trkpt lat="42.2675" lon="2.60625">
        <ele>365</ele>
        <time>2010-01-02T00:55:29Z</time>
      </trkpt>
      <trkpt lat="42.2675" lon="2.60622">
        <ele>365</ele>
        <time>2010-01-02T00:55:31Z</time>
      </trkpt>
      <trkpt lat="42.26749" lon="2.60619">
        <ele>364</ele>
        <time>2010-01-02T00:55:34Z</time>
      </trkpt>
      <trkpt lat="42.26749" lon="2.60614">
        <ele>363</ele>
        <time>2010-01-02T00:55:38Z</time>
      </trkpt>
      <trkpt lat="42.26746" lon="2.60601">
        <ele>361</ele>
        <time>2010-01-02T00:55:47Z</time>
      </trkpt>
      <trkpt lat="42.2674" lon="2.6058">
        <ele>356</ele>
        <time>2010-01-02T00:56:04Z</time>
      </trkpt>
      <trkpt lat="42.26736" lon="2.60571">
        <ele>354</ele>
        <time>2010-01-02T00:56:12Z</time>
      </trkpt>
      <trkpt lat="42.26734" lon="2.60568">
        <ele>352</ele>
        <time>2010-01-02T00:56:15Z</time>
      </trkpt>
      <trkpt lat="42.2673" lon="2.60564">
        <ele>350</ele>
        <time>2010-01-02T00:56:20Z</time>
      </trkpt>
      <trkpt lat="42.26727" lon="2.6056">
        <ele>349</ele>
        <time>2010-01-02T00:56:23Z</time>
      </trkpt>
      <trkpt lat="42.26724" lon="2.60556">
        <ele>347</ele>
        <time>2010-01-02T00:56:28Z</time>
      </trkpt>
      <trkpt lat="42.26723" lon="2.60551">
        <ele>346</ele>
        <time>2010-01-02T00:56:32Z</time>
      </trkpt>
      <trkpt lat="42.26722" lon="2.60544">
        <ele>345</ele>
        <time>2010-01-02T00:56:37Z</time>
      </trkpt>
      <trkpt lat="42.2672" lon="2.60542">
        <ele>344</ele>
        <time>2010-01-02T00:56:39Z</time>
      </trkpt>
      <trkpt lat="42.26719" lon="2.60541">
        <ele>343</ele>
        <time>2010-01-02T00:56:41Z</time>
      </trkpt>
      <trkpt lat="42.26716" lon="2.60538">
        <ele>342</ele>
        <time>2010-01-02T00:56:45Z</time>
      </trkpt>
      <trkpt lat="42.26714" lon="2.6054">
        <ele>342</ele>
        <time>2010-01-02T00:56:47Z</time>
      </trkpt>
      <trkpt lat="42.26713" lon="2.60543">
        <ele>342</ele>
        <time>2010-01-02T00:56:49Z</time>
      </trkpt>
      <trkpt lat="42.26713" lon="2.60546">
        <ele>343</ele>
        <time>2010-01-02T00:56:52Z</time>
      </trkpt>
      <trkpt lat="42.26713" lon="2.60547">
        <ele>343</ele>
        <time>2010-01-02T00:56:53Z</time>
      </trkpt>
      <trkpt lat="42.26712" lon="2.60552">
        <ele>343</ele>
        <time>2010-01-02T00:56:56Z</time>
      </trkpt>
      <trkpt lat="42.26711" lon="2.60558">
        <ele>344</ele>
        <time>2010-01-02T00:57:01Z</time>
      </trkpt>
      <trkpt lat="42.26711" lon="2.60566">
        <ele>345</ele>
        <time>2010-01-02T00:57:06Z</time>
      </trkpt>
      <trkpt lat="42.2671" lon="2.60572">
        <ele>346</ele>
        <time>2010-01-02T00:57:11Z</time>
      </trkpt>
      <trkpt lat="42.26709" lon="2.60578">
        <ele>346</ele>
        <time>2010-01-02T00:57:16Z</time>
      </trkpt>
      <trkpt lat="42.26709" lon="2.60582">
        <ele>347</ele>
        <time>2010-01-02T00:57:19Z</time>
      </trkpt>
      <trkpt lat="42.26706" lon="2.60584">
        <ele>347</ele>
        <time>2010-01-02T00:57:22Z</time>
      </trkpt>
      <trkpt lat="42.26706" lon="2.60586">
        <ele>347</ele>
        <time>2010-01-02T00:57:24Z</time>
      </trkpt>
      <trkpt lat="42.26707" lon="2.60587">
        <ele>347</ele>
        <time>2010-01-02T00:57:25Z</time>
      </trkpt>
      <trkpt lat="42.26708" lon="2.60587">
        <ele>348</ele>
        <time>2010-01-02T00:57:27Z</time>
      </trkpt>
      <trkpt lat="42.26704" lon="2.60591">
        <ele>347</ele>
        <time>2010-01-02T00:57:32Z</time>
      </trkpt>
      <trkpt lat="42.267" lon="2.60589">
        <ele>346</ele>
        <time>2010-01-02T00:57:37Z</time>
      </trkpt>
      <trkpt lat="42.26696" lon="2.60586">
        <ele>344</ele>
        <time>2010-01-02T00:57:42Z</time>
      </trkpt>
      <trkpt lat="42.26692" lon="2.60584">
        <ele>343</ele>
        <time>2010-01-02T00:57:46Z</time>
      </trkpt>
      <trkpt lat="42.26688" lon="2.6058">
        <ele>342</ele>
        <time>2010-01-02T00:57:51Z</time>
      </trkpt>
      <trkpt lat="42.26683" lon="2.60578">
        <ele>341</ele>
        <time>2010-01-02T00:57:56Z</time>
      </trkpt>
      <trkpt lat="42.26679" lon="2.60576">
        <ele>339</ele>
        <time>2010-01-02T00:58:00Z</time>
      </trkpt>
      <trkpt lat="42.26675" lon="2.60569">
        <ele>338</ele>
        <time>2010-01-02T00:58:06Z</time>
      </trkpt>
      <trkpt lat="42.26672" lon="2.60567">
        <ele>337</ele>
        <time>2010-01-02T00:58:10Z</time>
      </trkpt>
      <trkpt lat="42.26669" lon="2.60564">
        <ele>335</ele>
        <time>2010-01-02T00:58:13Z</time>
      </trkpt>
      <trkpt lat="42.26667" lon="2.60562">
        <ele>335</ele>
        <time>2010-01-02T00:58:16Z</time>
      </trkpt>
      <trkpt lat="42.26666" lon="2.60559">
        <ele>334</ele>
        <time>2010-01-02T00:58:19Z</time>
      </trkpt>
      <trkpt lat="42.26665" lon="2.60558">
        <ele>334</ele>
        <time>2010-01-02T00:58:19Z</time>
      </trkpt>
      <trkpt lat="42.2666" lon="2.60554">
        <ele>333</ele>
        <time>2010-01-02T00:58:25Z</time>
      </trkpt>
      <trkpt lat="42.26657" lon="2.60552">
        <ele>332</ele>
        <time>2010-01-02T00:58:29Z</time>
      </trkpt>
      <trkpt lat="42.26653" lon="2.60548">
        <ele>331</ele>
        <time>2010-01-02T00:58:34Z</time>
      </trkpt>
      <trkpt lat="42.26649" lon="2.6054">
        <ele>329</ele>
        <time>2010-01-02T00:58:41Z</time>
      </trkpt>
      <trkpt lat="42.26649" lon="2.60536">
        <ele>328</ele>
        <time>2010-01-02T00:58:44Z</time>
      </trkpt>
      <trkpt lat="42.26647" lon="2.60531">
        <ele>327</ele>
        <time>2010-01-02T00:58:48Z</time>
      </trkpt>
      <trkpt lat="42.26643" lon="2.60518">
        <ele>322</ele>
        <time>2010-01-02T00:58:58Z</time>
      </trkpt>
      <trkpt lat="42.26643" lon="2.60515">
        <ele>321</ele>
        <time>2010-01-02T00:59:01Z</time>
      </trkpt>
      <trkpt lat="42.26644" lon="2.60513">
        <ele>321</ele>
        <time>2010-01-02T00:59:02Z</time>
      </trkpt>
      <trkpt lat="42.26641" lon="2.60506">
        <ele>319</ele>
        <time>2010-01-02T00:59:08Z</time>
      </trkpt>
      <trkpt lat="42.26639" lon="2.60505">
        <ele>318</ele>
        <time>2010-01-02T00:59:10Z</time>
      </trkpt>
      <trkpt lat="42.26638" lon="2.60503">
        <ele>317</ele>
        <time>2010-01-02T00:59:12Z</time>
      </trkpt>
      <trkpt lat="42.26636" lon="2.60501">
        <ele>316</ele>
        <time>2010-01-02T00:59:15Z</time>
      </trkpt>
      <trkpt lat="42.26632" lon="2.60494">
        <ele>314</ele>
        <time>2010-01-02T00:59:21Z</time>
      </trkpt>
      <trkpt lat="42.26631" lon="2.60487">
        <ele>311</ele>
        <time>2010-01-02T00:59:27Z</time>
      </trkpt>
      <trkpt lat="42.26631" lon="2.60479">
        <ele>308</ele>
        <time>2010-01-02T00:59:32Z</time>
      </trkpt>
      <trkpt lat="42.26632" lon="2.60476">
        <ele>307</ele>
        <time>2010-01-02T00:59:35Z</time>
      </trkpt>
      <trkpt lat="42.26633" lon="2.60474">
        <ele>307</ele>
        <time>2010-01-02T00:59:37Z</time>
      </trkpt>
      <trkpt lat="42.26634" lon="2.60472">
        <ele>307</ele>
        <time>2010-01-02T00:59:38Z</time>
      </trkpt>
      <trkpt lat="42.26636" lon="2.6047">
        <ele>306</ele>
        <time>2010-01-02T00:59:41Z</time>
      </trkpt>
      <trkpt lat="42.26641" lon="2.60466">
        <ele>306</ele>
        <time>2010-01-02T00:59:47Z</time>
      </trkpt>
      <trkpt lat="42.26647" lon="2.60459">
        <ele>304</ele>
        <time>2010-01-02T00:59:55Z</time>
      </trkpt>
      <trkpt lat="42.26654" lon="2.6045">
        <ele>302</ele>
        <time>2010-01-02T01:00:05Z</time>
      </trkpt>
      <trkpt lat="42.26661" lon="2.60444">
        <ele>301</ele>
        <time>2010-01-02T01:00:13Z</time>
      </trkpt>
      <trkpt lat="42.26677" lon="2.60436">
        <ele>299</ele>
        <time>2010-01-02T01:00:30Z</time>
      </trkpt>
      <trkpt lat="42.2668" lon="2.60435">
        <ele>299</ele>
        <time>2010-01-02T01:00:32Z</time>
      </trkpt>
      <trkpt lat="42.26684" lon="2.60434">
        <ele>298</ele>
        <time>2010-01-02T01:00:37Z</time>
      </trkpt>
      <trkpt lat="42.26688" lon="2.60428">
        <ele>296</ele>
        <time>2010-01-02T01:00:42Z</time>
      </trkpt>
      <trkpt lat="42.26692" lon="2.60425">
        <ele>295</ele>
        <time>2010-01-02T01:00:47Z</time>
      </trkpt>
      <trkpt lat="42.26703" lon="2.60422">
        <ele>295</ele>
        <time>2010-01-02T01:00:59Z</time>
      </trkpt>
      <trkpt lat="42.26707" lon="2.6042">
        <ele>294</ele>
        <time>2010-01-02T01:01:02Z</time>
      </trkpt>
      <trkpt lat="42.26713" lon="2.60419">
        <ele>295</ele>
        <time>2010-01-02T01:01:08Z</time>
      </trkpt>
      <trkpt lat="42.26719" lon="2.60417">
        <ele>294</ele>
        <time>2010-01-02T01:01:15Z</time>
      </trkpt>
      <trkpt lat="42.26731" lon="2.60409">
        <ele>293</ele>
        <time>2010-01-02T01:01:29Z</time>
      </trkpt>
      <trkpt lat="42.26733" lon="2.60407">
        <ele>293</ele>
        <time>2010-01-02T01:01:31Z</time>
      </trkpt>
      <trkpt lat="42.26735" lon="2.60402">
        <ele>291</ele>
        <time>2010-01-02T01:01:35Z</time>
      </trkpt>
      <trkpt lat="42.26737" lon="2.60399">
        <ele>291</ele>
        <time>2010-01-02T01:01:38Z</time>
      </trkpt>
      <trkpt lat="42.26736" lon="2.60397">
        <ele>290</ele>
        <time>2010-01-02T01:01:39Z</time>
      </trkpt>
      <trkpt lat="42.26733" lon="2.60396">
        <ele>288</ele>
        <time>2010-01-02T01:01:43Z</time>
      </trkpt>
      <trkpt lat="42.26732" lon="2.60396">
        <ele>288</ele>
        <time>2010-01-02T01:01:44Z</time>
      </trkpt>
      <trkpt lat="42.26729" lon="2.60394">
        <ele>287</ele>
        <time>2010-01-02T01:01:47Z</time>
      </trkpt>
      <trkpt lat="42.26727" lon="2.60393">
        <ele>286</ele>
        <time>2010-01-02T01:01:50Z</time>
      </trkpt>
      <trkpt lat="42.26723" lon="2.6039">
        <ele>284</ele>
        <time>2010-01-02T01:01:53Z</time>
      </trkpt>
      <trkpt lat="42.26723" lon="2.6039">
        <ele>284</ele>
        <time>2010-01-02T01:01:54Z</time>
      </trkpt>
      <trkpt lat="42.26722" lon="2.60389">
        <ele>284</ele>
        <time>2010-01-02T01:01:55Z</time>
      </trkpt>
      <trkpt lat="42.26722" lon="2.6039">
        <ele>284</ele>
        <time>2010-01-02T01:01:55Z</time>
      </trkpt>
      <trkpt lat="42.26721" lon="2.60388">
        <ele>283</ele>
        <time>2010-01-02T01:01:57Z</time>
      </trkpt>
      <trkpt lat="42.26719" lon="2.60384">
        <ele>281</ele>
        <time>2010-01-02T01:02:00Z</time>
      </trkpt>
      <trkpt lat="42.26718" lon="2.60381">
        <ele>280</ele>
        <time>2010-01-02T01:02:03Z</time>
      </trkpt>
      <trkpt lat="42.26717" lon="2.60376">
        <ele>277</ele>
        <time>2010-01-02T01:02:07Z</time>
      </trkpt>
      <trkpt lat="42.26716" lon="2.60374">
        <ele>276</ele>
        <time>2010-01-02T01:02:09Z</time>
      </trkpt>
      <trkpt lat="42.26713" lon="2.60371">
        <ele>275</ele>
        <time>2010-01-02T01:02:12Z</time>
      </trkpt>
      <trkpt lat="42.26711" lon="2.60368">
        <ele>273</ele>
        <time>2010-01-02T01:02:15Z</time>
      </trkpt>
      <trkpt lat="42.26711" lon="2.60365">
        <ele>272</ele>
        <time>2010-01-02T01:02:18Z</time>
      </trkpt>
      <trkpt lat="42.26713" lon="2.60364">
        <ele>272</ele>
        <time>2010-01-02T01:02:19Z</time>
      </trkpt>
      <trkpt lat="42.26714" lon="2.60363">
        <ele>271</ele>
        <time>2010-01-02T01:02:20Z</time>
      </trkpt>
      <trkpt lat="42.26718" lon="2.6036">
        <ele>271</ele>
        <time>2010-01-02T01:02:25Z</time>
      </trkpt>
      <trkpt lat="42.26723" lon="2.60358">
        <ele>272</ele>
        <time>2010-01-02T01:02:31Z</time>
      </trkpt>
      <trkpt lat="42.26728" lon="2.60356">
        <ele>272</ele>
        <time>2010-01-02T01:02:35Z</time>
      </trkpt>
      <trkpt lat="42.26733" lon="2.60353">
        <ele>272</ele>
        <time>2010-01-02T01:02:41Z</time>
      </trkpt>
      <trkpt lat="42.26735" lon="2.60349">
        <ele>270</ele>
        <time>2010-01-02T01:02:45Z</time>
      </trkpt>
      <trkpt lat="42.26737" lon="2.60346">
        <ele>269</ele>
        <time>2010-01-02T01:02:48Z</time>
      </trkpt>
      <trkpt lat="42.26737" lon="2.60343">
        <ele>268</ele>
        <time>2010-01-02T01:02:49Z</time>
      </trkpt>
      <trkpt lat="42.26735" lon="2.60339">
        <ele>266</ele>
        <time>2010-01-02T01:02:53Z</time>
      </trkpt>
      <trkpt lat="42.26736" lon="2.60336">
        <ele>265</ele>
        <time>2010-01-02T01:02:55Z</time>
      </trkpt>
      <trkpt lat="42.26737" lon="2.60335">
        <ele>265</ele>
        <time>2010-01-02T01:02:56Z</time>
      </trkpt>
      <trkpt lat="42.2674" lon="2.60332">
        <ele>264</ele>
        <time>2010-01-02T01:03:00Z</time>
      </trkpt>
      <trkpt lat="42.26742" lon="2.60325">
        <ele>262</ele>
        <time>2010-01-02T01:03:06Z</time>
      </trkpt>
      <trkpt lat="42.26744" lon="2.6032">
        <ele>260</ele>
        <time>2010-01-02T01:03:10Z</time>
      </trkpt>
      <trkpt lat="42.26746" lon="2.60311">
        <ele>258</ele>
        <time>2010-01-02T01:03:17Z</time>
      </trkpt>
      <trkpt lat="42.26753" lon="2.60291">
        <ele>256</ele>
        <time>2010-01-02T01:03:33Z</time>
      </trkpt>
      <trkpt lat="42.26755" lon="2.60289">
        <ele>256</ele>
        <time>2010-01-02T01:03:36Z</time>
      </trkpt>
      <trkpt lat="42.26756" lon="2.60286">
        <ele>256</ele>
        <time>2010-01-02T01:03:38Z</time>
      </trkpt>
      <trkpt lat="42.26757" lon="2.60276">
        <ele>255</ele>
        <time>2010-01-02T01:03:45Z</time>
      </trkpt>
      <trkpt lat="42.26757" lon="2.60273">
        <ele>255</ele>
        <time>2010-01-02T01:03:48Z</time>
      </trkpt>
      <trkpt lat="42.26757" lon="2.6027">
        <ele>255</ele>
        <time>2010-01-02T01:03:50Z</time>
      </trkpt>
      <trkpt lat="42.26755" lon="2.60251">
        <ele>255</ele>
        <time>2010-01-02T01:04:04Z</time>
      </trkpt>
      <trkpt lat="42.26753" lon="2.60249">
        <ele>255</ele>
        <time>2010-01-02T01:04:07Z</time>
      </trkpt>
      <trkpt lat="42.26747" lon="2.60228">
        <ele>256</ele>
        <time>2010-01-02T01:04:23Z</time>
      </trkpt>
      <trkpt lat="42.26744" lon="2.60208">
        <ele>256</ele>
        <time>2010-01-02T01:04:39Z</time>
      </trkpt>
      <trkpt lat="42.26743" lon="2.602">
        <ele>256</ele>
        <time>2010-01-02T01:04:44Z</time>
      </trkpt>
      <trkpt lat="42.26749" lon="2.60174">
        <ele>257</ele>
        <time>2010-01-02T01:05:05Z</time>
      </trkpt>
      <trkpt lat="42.26756" lon="2.60152">
        <ele>258</ele>
        <time>2010-01-02T01:05:22Z</time>
      </trkpt>
      <trkpt lat="42.2676" lon="2.60138">
        <ele>258</ele>
        <time>2010-01-02T01:05:33Z</time>
      </trkpt>
      <trkpt lat="42.26768" lon="2.60124">
        <ele>259</ele>
        <time>2010-01-02T01:05:46Z</time>
      </trkpt>
      <trkpt lat="42.26772" lon="2.60112">
        <ele>260</ele>
        <time>2010-01-02T01:05:56Z</time>
      </trkpt>
      <trkpt lat="42.26774" lon="2.60108">
        <ele>260</ele>
        <time>2010-01-02T01:05:59Z</time>
      </trkpt>
      <trkpt lat="42.26782" lon="2.60088">
        <ele>260</ele>
        <time>2010-01-02T01:06:17Z</time>
      </trkpt>
      <trkpt lat="42.26793" lon="2.60066">
        <ele>260</ele>
        <time>2010-01-02T01:06:36Z</time>
      </trkpt>
      <trkpt lat="42.26803" lon="2.60044">
        <ele>261</ele>
        <time>2010-01-02T01:06:55Z</time>
      </trkpt>
      <trkpt lat="42.26806" lon="2.60039">
        <ele>262</ele>
        <time>2010-01-02T01:07:00Z</time>
      </trkpt>
      <trkpt lat="42.26813" lon="2.6003">
        <ele>263</ele>
        <time>2010-01-02T01:07:10Z</time>
      </trkpt>
      <trkpt lat="42.26815" lon="2.6003">
        <ele>264</ele>
        <time>2010-01-02T01:07:11Z</time>
      </trkpt>
      <trkpt lat="42.26823" lon="2.60024">
        <ele>266</ele>
        <time>2010-01-02T01:07:20Z</time>
      </trkpt>
      <trkpt lat="42.2683" lon="2.60018">
        <ele>267</ele>
        <time>2010-01-02T01:07:29Z</time>
      </trkpt>
      <trkpt lat="42.26835" lon="2.60013">
        <ele>268</ele>
        <time>2010-01-02T01:07:35Z</time>
      </trkpt>
      <trkpt lat="42.26839" lon="2.60009">
        <ele>269</ele>
        <time>2010-01-02T01:07:40Z</time>
      </trkpt>
      <trkpt lat="42.26842" lon="2.60004">
        <ele>269</ele>
        <time>2010-01-02T01:07:45Z</time>
      </trkpt>
      <trkpt lat="42.26843" lon="2.60002">
        <ele>269</ele>
        <time>2010-01-02T01:07:46Z</time>
      </trkpt>
      <trkpt lat="42.26847" lon="2.59992">
        <ele>270</ele>
        <time>2010-01-02T01:07:55Z</time>
      </trkpt>
      <trkpt lat="42.26852" lon="2.59978">
        <ele>271</ele>
        <time>2010-01-02T01:08:07Z</time>
      </trkpt>
      <trkpt lat="42.26853" lon="2.59973">
        <ele>271</ele>
        <time>2010-01-02T01:08:11Z</time>
      </trkpt>
      <trkpt lat="42.26855" lon="2.59968">
        <ele>272</ele>
        <time>2010-01-02T01:08:14Z</time>
      </trkpt>
      <trkpt lat="42.26856" lon="2.59964">
        <ele>272</ele>
        <time>2010-01-02T01:08:17Z</time>
      </trkpt>
      <trkpt lat="42.26856" lon="2.59961">
        <ele>272</ele>
        <time>2010-01-02T01:08:20Z</time>
      </trkpt>
      <trkpt lat="42.26859" lon="2.59953">
        <ele>272</ele>
        <time>2010-01-02T01:08:26Z</time>
      </trkpt>
      <trkpt lat="42.26859" lon="2.59952">
        <ele>272</ele>
        <time>2010-01-02T01:08:27Z</time>
      </trkpt>
      <trkpt lat="42.26862" lon="2.59938">
        <ele>272</ele>
        <time>2010-01-02T01:08:38Z</time>
      </trkpt>
      <trkpt lat="42.26863" lon="2.59936">
        <ele>272</ele>
        <time>2010-01-02T01:08:39Z</time>
      </trkpt>
      <trkpt lat="42.26867" lon="2.59922">
        <ele>273</ele>
        <time>2010-01-02T01:08:51Z</time>
      </trkpt>
      <trkpt lat="42.26871" lon="2.59909">
        <ele>273</ele>
        <time>2010-01-02T01:09:01Z</time>
      </trkpt>
      <trkpt lat="42.26874" lon="2.59899">
        <ele>273</ele>
        <time>2010-01-02T01:09:09Z</time>
      </trkpt>
      <trkpt lat="42.26874" lon="2.59895">
        <ele>273</ele>
        <time>2010-01-02T01:09:12Z</time>
      </trkpt>
      <trkpt lat="42.26875" lon="2.59892">
        <ele>273</ele>
        <time>2010-01-02T01:09:15Z</time>
      </trkpt>
      <trkpt lat="42.26876" lon="2.59888">
        <ele>273</ele>
        <time>2010-01-02T01:09:18Z</time>
      </trkpt>
      <trkpt lat="42.26879" lon="2.59882">
        <ele>273</ele>
        <time>2010-01-02T01:09:23Z</time>
      </trkpt>
      <trkpt lat="42.26884" lon="2.59871">
        <ele>273</ele>
        <time>2010-01-02T01:09:32Z</time>
      </trkpt>
      <trkpt lat="42.26886" lon="2.59868">
        <ele>274</ele>
        <time>2010-01-02T01:09:36Z</time>
      </trkpt>
      <trkpt lat="42.26889" lon="2.59868">
        <ele>275</ele>
        <time>2010-01-02T01:09:38Z</time>
      </trkpt>
      <trkpt lat="42.26889" lon="2.59868">
        <ele>275</ele>
        <time>2010-01-02T01:09:39Z</time>
      </trkpt>
      <trkpt lat="42.2689" lon="2.59869">
        <ele>275</ele>
        <time>2010-01-02T01:09:40Z</time>
      </trkpt>
      <trkpt lat="42.26891" lon="2.59876">
        <ele>277</ele>
        <time>2010-01-02T01:09:45Z</time>
      </trkpt>
      <trkpt lat="42.26891" lon="2.59878">
        <ele>277</ele>
        <time>2010-01-02T01:09:47Z</time>
      </trkpt>
      <trkpt lat="42.26891" lon="2.59884">
        <ele>279</ele>
        <time>2010-01-02T01:09:51Z</time>
      </trkpt>
      <trkpt lat="42.26891" lon="2.59888">
        <ele>279</ele>
        <time>2010-01-02T01:09:54Z</time>
      </trkpt>
      <trkpt lat="42.2689" lon="2.59896">
        <ele>279</ele>
        <time>2010-01-02T01:10:00Z</time>
      </trkpt>
      <trkpt lat="42.26889" lon="2.59907">
        <ele>280</ele>
        <time>2010-01-02T01:10:08Z</time>
      </trkpt>
      <trkpt lat="42.26889" lon="2.59909">
        <ele>280</ele>
        <time>2010-01-02T01:10:10Z</time>
      </trkpt>
      <trkpt lat="42.2689" lon="2.59915">
        <ele>281</ele>
        <time>2010-01-02T01:10:14Z</time>
      </trkpt>
      <trkpt lat="42.26893" lon="2.59915">
        <ele>282</ele>
        <time>2010-01-02T01:10:17Z</time>
      </trkpt>
      <trkpt lat="42.26895" lon="2.59914">
        <ele>283</ele>
        <time>2010-01-02T01:10:19Z</time>
      </trkpt>
      <trkpt lat="42.26896" lon="2.59911">
        <ele>283</ele>
        <time>2010-01-02T01:10:21Z</time>
      </trkpt>
      <trkpt lat="42.26902" lon="2.59899">
        <ele>284</ele>
        <time>2010-01-02T01:10:32Z</time>
      </trkpt>
      <trkpt lat="42.26902" lon="2.59897">
        <ele>284</ele>
        <time>2010-01-02T01:10:33Z</time>
      </trkpt>
      <trkpt lat="42.26907" lon="2.59886">
        <ele>285</ele>
        <time>2010-01-02T01:10:43Z</time>
      </trkpt>
      <trkpt lat="42.26908" lon="2.59882">
        <ele>285</ele>
        <time>2010-01-02T01:10:46Z</time>
      </trkpt>
      <trkpt lat="42.26912" lon="2.59876">
        <ele>285</ele>
        <time>2010-01-02T01:10:52Z</time>
      </trkpt>
      <trkpt lat="42.26918" lon="2.59866">
        <ele>286</ele>
        <time>2010-01-02T01:11:01Z</time>
      </trkpt>
      <trkpt lat="42.26919" lon="2.59865">
        <ele>286</ele>
        <time>2010-01-02T01:11:03Z</time>
      </trkpt>
      <trkpt lat="42.26922" lon="2.59862">
        <ele>286</ele>
        <time>2010-01-02T01:11:06Z</time>
      </trkpt>
      <trkpt lat="42.26925" lon="2.59859">
        <ele>286</ele>
        <time>2010-01-02T01:11:10Z</time>
      </trkpt>
      <trkpt lat="42.26931" lon="2.59853">
        <ele>285</ele>
        <time>2010-01-02T01:11:17Z</time>
      </trkpt>
      <trkpt lat="42.26937" lon="2.59848">
        <ele>285</ele>
        <time>2010-01-02T01:11:25Z</time>
      </trkpt>
      <trkpt lat="42.2694" lon="2.59845">
        <ele>285</ele>
        <time>2010-01-02T01:11:29Z</time>
      </trkpt>
      <trkpt lat="42.26944" lon="2.59842">
        <ele>285</ele>
        <time>2010-01-02T01:11:33Z</time>
      </trkpt>
      <trkpt lat="42.2695" lon="2.59838">
        <ele>285</ele>
        <time>2010-01-02T01:11:40Z</time>
      </trkpt>
      <trkpt lat="42.26951" lon="2.59837">
        <ele>285</ele>
        <time>2010-01-02T01:11:41Z</time>
      </trkpt>
      <trkpt lat="42.26959" lon="2.59836">
        <ele>287</ele>
        <time>2010-01-02T01:11:49Z</time>
      </trkpt>
      <trkpt lat="42.26968" lon="2.59835">
        <ele>290</ele>
        <time>2010-01-02T01:11:58Z</time>
      </trkpt>
      <trkpt lat="42.26984" lon="2.59835">
        <ele>292</ele>
        <time>2010-01-02T01:12:14Z</time>
      </trkpt>
      <trkpt lat="42.27003" lon="2.59835">
        <ele>295</ele>
        <time>2010-01-02T01:12:33Z</time>
      </trkpt>
      <trkpt lat="42.27024" lon="2.5984">
        <ele>300</ele>
        <time>2010-01-02T01:12:54Z</time>
      </trkpt>
      <trkpt lat="42.27028" lon="2.59841">
        <ele>301</ele>
        <time>2010-01-02T01:12:59Z</time>
      </trkpt>
      <trkpt lat="42.27039" lon="2.59837">
        <ele>302</ele>
        <time>2010-01-02T01:13:09Z</time>
      </trkpt>
      <trkpt lat="42.27043" lon="2.59828">
        <ele>302</ele>
        <time>2010-01-02T01:13:17Z</time>
      </trkpt>
      <trkpt lat="42.27058" lon="2.59794">
        <ele>303</ele>
        <time>2010-01-02T01:13:46Z</time>
      </trkpt>
      <trkpt lat="42.27059" lon="2.59789">
        <ele>303</ele>
        <time>2010-01-02T01:13:51Z</time>
      </trkpt>
      <trkpt lat="42.2707" lon="2.59773">
        <ele>304</ele>
        <time>2010-01-02T01:14:07Z</time>
      </trkpt>
      <trkpt lat="42.27071" lon="2.59771">
        <ele>304</ele>
        <time>2010-01-02T01:14:08Z</time>
      </trkpt>
      <trkpt lat="42.2708" lon="2.59754">
        <ele>305</ele>
        <time>2010-01-02T01:14:24Z</time>
      </trkpt>
      <trkpt lat="42.27091" lon="2.59736">
        <ele>307</ele>
        <time>2010-01-02T01:14:41Z</time>
      </trkpt>
      <trkpt lat="42.27093" lon="2.59731">
        <ele>307</ele>
        <time>2010-01-02T01:14:45Z</time>
      </trkpt>
      <trkpt lat="42.27094" lon="2.59716">
        <ele>308</ele>
        <time>2010-01-02T01:14:57Z</time>
      </trkpt>
      <trkpt lat="42.2709" lon="2.59707">
        <ele>307</ele>
        <time>2010-01-02T01:15:04Z</time>
      </trkpt>
      <trkpt lat="42.27081" lon="2.59696">
        <ele>306</ele>
        <time>2010-01-02T01:15:16Z</time>
      </trkpt>
      <trkpt lat="42.2707" lon="2.59685">
        <ele>305</ele>
        <time>2010-01-02T01:15:30Z</time>
      </trkpt>
      <trkpt lat="42.27068" lon="2.59683">
        <ele>305</ele>
        <time>2010-01-02T01:15:32Z</time>
      </trkpt>
      <trkpt lat="42.2705" lon="2.59654">
        <ele>304</ele>
        <time>2010-01-02T01:16:00Z</time>
      </trkpt>
      <trkpt lat="42.2705" lon="2.59654">
        <ele>304</ele>
        <time>2010-01-02T01:16:01Z</time>
      </trkpt>
      <trkpt lat="42.27044" lon="2.59647">
        <ele>304</ele>
        <time>2010-01-02T01:16:09Z</time>
      </trkpt>
      <trkpt lat="42.27021" lon="2.59639">
        <ele>301</ele>
        <time>2010-01-02T01:16:32Z</time>
      </trkpt>
      <trkpt lat="42.27014" lon="2.59618">
        <ele>300</ele>
        <time>2010-01-02T01:16:49Z</time>
      </trkpt>
      <trkpt lat="42.27014" lon="2.59606">
        <ele>300</ele>
        <time>2010-01-02T01:16:58Z</time>
      </trkpt>
      <trkpt lat="42.27012" lon="2.59592">
        <ele>299</ele>
        <time>2010-01-02T01:17:09Z</time>
      </trkpt>
      <trkpt lat="42.27012" lon="2.59584">
        <ele>299</ele>
        <time>2010-01-02T01:17:15Z</time>
      </trkpt>
      <trkpt lat="42.27012" lon="2.59574">
        <ele>298</ele>
        <time>2010-01-02T01:17:22Z</time>
      </trkpt>
      <trkpt lat="42.27013" lon="2.59561">
        <ele>298</ele>
        <time>2010-01-02T01:17:32Z</time>
      </trkpt>
      <trkpt lat="42.27015" lon="2.59551">
        <ele>298</ele>
        <time>2010-01-02T01:17:39Z</time>
      </trkpt>
      <trkpt lat="42.27015" lon="2.5954">
        <ele>298</ele>
        <time>2010-01-02T01:17:48Z</time>
      </trkpt>
      <trkpt lat="42.27005" lon="2.59519">
        <ele>298</ele>
        <time>2010-01-02T01:18:06Z</time>
      </trkpt>
    </trkseg>
  </trk>
</gpx>